<?xml version="1.0" encoding="UTF-8" standalone="no" ?>
<gpx xmlns="http://www.topografix.com/GPX/1/1" xmlns:xsi="http://www.w3.org/2001/XMLSchema-instance" xsi:schemaLocation="http://www.topografix.com/GPX/1/1 http://www.topografix.com/GPX/1/1/gpx.xsd" version="1.1" creator="VisuGPX - https://www.visugpx.com">
  <metadata>
    <name>Balade hivernale</name>
    <desc><![CDATA[Balade effectuée du 9 décembre 2022 au 7 janvier 2023.]]></desc>
  </metadata>
  <trk>
    <name><![CDATA[Narbonne - Marseillan]]></name>
    <extensions>
      <line xmlns="http://www.topografix.com/GPX/gpx_style/0/2">
        <color>0000FF</color>
        <width>4</width>
      </line>
    </extensions>
    <trkseg>
      <trkpt lat="43.18944" lon="2.98769">
        <ele>51.810009</ele>
        <time>2023-01-07T11:00:21.311Z</time>
      </trkpt>
      <trkpt lat="43.18953" lon="2.98778">
        <ele>51.810009</ele>
        <time>2023-01-07T11:01:37.114Z</time>
      </trkpt>
      <trkpt lat="43.18962" lon="2.98786">
        <ele>51.810009</ele>
        <time>2023-01-07T11:01:42.063Z</time>
      </trkpt>
      <trkpt lat="43.18971" lon="2.98793">
        <ele>51.810009</ele>
        <time>2023-01-07T11:01:47.114Z</time>
      </trkpt>
      <trkpt lat="43.18978" lon="2.98801">
        <ele>51.810009</ele>
        <time>2023-01-07T11:01:53.071Z</time>
      </trkpt>
      <trkpt lat="43.18986" lon="2.98808">
        <ele>51.810009</ele>
        <time>2023-01-07T11:01:58.066Z</time>
      </trkpt>
      <trkpt lat="43.18995" lon="2.98813">
        <ele>51.810009</ele>
        <time>2023-01-07T11:02:04.078Z</time>
      </trkpt>
      <trkpt lat="43.19004" lon="2.98815">
        <ele>51.810009</ele>
        <time>2023-01-07T11:02:10.063Z</time>
      </trkpt>
      <trkpt lat="43.18998" lon="2.98826">
        <ele>51.810009</ele>
        <time>2023-01-07T11:02:37.084Z</time>
      </trkpt>
      <trkpt lat="43.18992" lon="2.98838">
        <ele>51.815536</ele>
        <time>2023-01-07T11:02:41.064Z</time>
      </trkpt>
      <trkpt lat="43.18985" lon="2.98851">
        <ele>51.90239</ele>
        <time>2023-01-07T11:02:45.073Z</time>
      </trkpt>
      <trkpt lat="43.18978" lon="2.98863">
        <ele>51.983279</ele>
        <time>2023-01-07T11:02:49.074Z</time>
      </trkpt>
      <trkpt lat="43.1897" lon="2.98875">
        <ele>52.070137</ele>
        <time>2023-01-07T11:02:53.075Z</time>
      </trkpt>
      <trkpt lat="43.18965" lon="2.98886">
        <ele>52.141906</ele>
        <time>2023-01-07T11:02:56.068Z</time>
      </trkpt>
      <trkpt lat="43.18957" lon="2.98898">
        <ele>52.225546</ele>
        <time>2023-01-07T11:03:00.078Z</time>
      </trkpt>
      <trkpt lat="43.1895" lon="2.9891">
        <ele>52.309066</ele>
        <time>2023-01-07T11:03:04.074Z</time>
      </trkpt>
      <trkpt lat="43.18944" lon="2.98922">
        <ele>52.38901</ele>
        <time>2023-01-07T11:03:08.091Z</time>
      </trkpt>
      <trkpt lat="43.18937" lon="2.98935">
        <ele>52.476301</ele>
        <time>2023-01-07T11:03:12.061Z</time>
      </trkpt>
      <trkpt lat="43.18931" lon="2.98946">
        <ele>52.545878</ele>
        <time>2023-01-07T11:03:15.075Z</time>
      </trkpt>
      <trkpt lat="43.18925" lon="2.98957">
        <ele>52.621555</ele>
        <time>2023-01-07T11:03:18.080Z</time>
      </trkpt>
      <trkpt lat="43.18918" lon="2.98968">
        <ele>52.699774</ele>
        <time>2023-01-07T11:03:21.078Z</time>
      </trkpt>
      <trkpt lat="43.18912" lon="2.9898">
        <ele>52.773238</ele>
        <time>2023-01-07T11:03:24.066Z</time>
      </trkpt>
      <trkpt lat="43.18906" lon="2.98991">
        <ele>52.852753</ele>
        <time>2023-01-07T11:03:28.073Z</time>
      </trkpt>
      <trkpt lat="43.189" lon="2.99004">
        <ele>52.931007</ele>
        <time>2023-01-07T11:03:32.071Z</time>
      </trkpt>
      <trkpt lat="43.18893" lon="2.99013">
        <ele>53.002861</ele>
        <time>2023-01-07T11:03:36.074Z</time>
      </trkpt>
      <trkpt lat="43.18886" lon="2.99023">
        <ele>53.078535</ele>
        <time>2023-01-07T11:03:41.058Z</time>
      </trkpt>
      <trkpt lat="43.18878" lon="2.99033">
        <ele>53.110815</ele>
        <time>2023-01-07T11:03:45.063Z</time>
      </trkpt>
      <trkpt lat="43.18871" lon="2.99043">
        <ele>53.055486</ele>
        <time>2023-01-07T11:03:48.069Z</time>
      </trkpt>
      <trkpt lat="43.18865" lon="2.99052">
        <ele>53.003575</ele>
        <time>2023-01-07T11:03:51.060Z</time>
      </trkpt>
      <trkpt lat="43.18857" lon="2.99062">
        <ele>52.946614</ele>
        <time>2023-01-07T11:03:54.063Z</time>
      </trkpt>
      <trkpt lat="43.1885" lon="2.99071">
        <ele>52.895701</ele>
        <time>2023-01-07T11:03:57.062Z</time>
      </trkpt>
      <trkpt lat="43.18843" lon="2.99082">
        <ele>52.836009</ele>
        <time>2023-01-07T11:04:01.059Z</time>
      </trkpt>
      <trkpt lat="43.18837" lon="2.99092">
        <ele>52.785805</ele>
        <time>2023-01-07T11:04:05.064Z</time>
      </trkpt>
      <trkpt lat="43.18837" lon="2.99106">
        <ele>52.728222</ele>
        <time>2023-01-07T11:04:11.069Z</time>
      </trkpt>
      <trkpt lat="43.18845" lon="2.99115">
        <ele>52.671766</ele>
        <time>2023-01-07T11:04:15.086Z</time>
      </trkpt>
      <trkpt lat="43.18853" lon="2.99121">
        <ele>52.622529</ele>
        <time>2023-01-07T11:04:19.065Z</time>
      </trkpt>
      <trkpt lat="43.1886" lon="2.99129">
        <ele>52.573238</ele>
        <time>2023-01-07T11:04:22.078Z</time>
      </trkpt>
      <trkpt lat="43.18869" lon="2.99137">
        <ele>52.515078</ele>
        <time>2023-01-07T11:04:25.073Z</time>
      </trkpt>
      <trkpt lat="43.18877" lon="2.99147">
        <ele>52.456134</ele>
        <time>2023-01-07T11:04:28.059Z</time>
      </trkpt>
      <trkpt lat="43.18885" lon="2.99157">
        <ele>52.397985</ele>
        <time>2023-01-07T11:04:31.066Z</time>
      </trkpt>
      <trkpt lat="43.18892" lon="2.99168">
        <ele>52.337725</ele>
        <time>2023-01-07T11:04:34.068Z</time>
      </trkpt>
      <trkpt lat="43.18899" lon="2.9918">
        <ele>52.277089</ele>
        <time>2023-01-07T11:04:37.059Z</time>
      </trkpt>
      <trkpt lat="43.18902" lon="2.99193">
        <ele>52.222273</ele>
        <time>2023-01-07T11:04:40.061Z</time>
      </trkpt>
      <trkpt lat="43.18902" lon="2.99207">
        <ele>52.169441</ele>
        <time>2023-01-07T11:04:43.064Z</time>
      </trkpt>
      <trkpt lat="43.18903" lon="2.9922">
        <ele>52.176075</ele>
        <time>2023-01-07T11:04:46.071Z</time>
      </trkpt>
      <trkpt lat="43.18903" lon="2.99233">
        <ele>52.214181</ele>
        <time>2023-01-07T11:04:49.061Z</time>
      </trkpt>
      <trkpt lat="43.18899" lon="2.99245">
        <ele>52.253365</ele>
        <time>2023-01-07T11:04:52.063Z</time>
      </trkpt>
      <trkpt lat="43.18893" lon="2.99257">
        <ele>52.296971</ele>
        <time>2023-01-07T11:04:55.069Z</time>
      </trkpt>
      <trkpt lat="43.18886" lon="2.99267">
        <ele>52.337539</ele>
        <time>2023-01-07T11:04:58.064Z</time>
      </trkpt>
      <trkpt lat="43.1888" lon="2.99279">
        <ele>52.383564</ele>
        <time>2023-01-07T11:05:02.072Z</time>
      </trkpt>
      <trkpt lat="43.18876" lon="2.99294">
        <ele>52.430335</ele>
        <time>2023-01-07T11:05:06.066Z</time>
      </trkpt>
      <trkpt lat="43.18878" lon="2.99308">
        <ele>52.473062</ele>
        <time>2023-01-07T11:05:10.063Z</time>
      </trkpt>
      <trkpt lat="43.18886" lon="2.99316">
        <ele>52.513513</ele>
        <time>2023-01-07T11:05:13.078Z</time>
      </trkpt>
      <trkpt lat="43.18893" lon="2.99324">
        <ele>52.552361</ele>
        <time>2023-01-07T11:05:16.070Z</time>
      </trkpt>
      <trkpt lat="43.18901" lon="2.99331">
        <ele>52.591365</ele>
        <time>2023-01-07T11:05:19.074Z</time>
      </trkpt>
      <trkpt lat="43.18909" lon="2.99341">
        <ele>52.636786</ele>
        <time>2023-01-07T11:05:23.066Z</time>
      </trkpt>
      <trkpt lat="43.18918" lon="2.99354">
        <ele>52.687246</ele>
        <time>2023-01-07T11:05:27.065Z</time>
      </trkpt>
      <trkpt lat="43.18922" lon="2.99369">
        <ele>52.73658</ele>
        <time>2023-01-07T11:05:31.072Z</time>
      </trkpt>
      <trkpt lat="43.1892" lon="2.99382">
        <ele>52.775661</ele>
        <time>2023-01-07T11:05:35.061Z</time>
      </trkpt>
      <trkpt lat="43.18915" lon="2.99396">
        <ele>52.823572</ele>
        <time>2023-01-07T11:05:39.064Z</time>
      </trkpt>
      <trkpt lat="43.18912" lon="2.99408">
        <ele>52.861312</ele>
        <time>2023-01-07T11:05:42.057Z</time>
      </trkpt>
      <trkpt lat="43.1891" lon="2.9942">
        <ele>52.905394</ele>
        <time>2023-01-07T11:05:45.059Z</time>
      </trkpt>
      <trkpt lat="43.18907" lon="2.99434">
        <ele>52.975458</ele>
        <time>2023-01-07T11:05:48.063Z</time>
      </trkpt>
      <trkpt lat="43.18903" lon="2.99446">
        <ele>53.045532</ele>
        <time>2023-01-07T11:05:51.071Z</time>
      </trkpt>
      <trkpt lat="43.18897" lon="2.99458">
        <ele>53.118158</ele>
        <time>2023-01-07T11:05:55.065Z</time>
      </trkpt>
      <trkpt lat="43.18893" lon="2.99471">
        <ele>53.187221</ele>
        <time>2023-01-07T11:05:58.074Z</time>
      </trkpt>
      <trkpt lat="43.18889" lon="2.99484">
        <ele>53.256062</ele>
        <time>2023-01-07T11:06:01.065Z</time>
      </trkpt>
      <trkpt lat="43.18885" lon="2.99497">
        <ele>53.32772</ele>
        <time>2023-01-07T11:06:04.075Z</time>
      </trkpt>
      <trkpt lat="43.18883" lon="2.9951">
        <ele>53.395175</ele>
        <time>2023-01-07T11:06:07.078Z</time>
      </trkpt>
      <trkpt lat="43.1888" lon="2.99523">
        <ele>53.461685</ele>
        <time>2023-01-07T11:06:10.065Z</time>
      </trkpt>
      <trkpt lat="43.18878" lon="2.99535">
        <ele>53.525127</ele>
        <time>2023-01-07T11:06:18.083Z</time>
      </trkpt>
      <trkpt lat="43.18874" lon="2.9955">
        <ele>53.604399</ele>
        <time>2023-01-07T11:08:05.105Z</time>
      </trkpt>
      <trkpt lat="43.18869" lon="2.99564">
        <ele>53.682221</ele>
        <time>2023-01-07T11:08:10.062Z</time>
      </trkpt>
      <trkpt lat="43.18864" lon="2.99577">
        <ele>53.758961</ele>
        <time>2023-01-07T11:08:14.068Z</time>
      </trkpt>
      <trkpt lat="43.18859" lon="2.99588">
        <ele>53.822033</ele>
        <time>2023-01-07T11:08:17.067Z</time>
      </trkpt>
      <trkpt lat="43.18854" lon="2.99599">
        <ele>53.888293</ele>
        <time>2023-01-07T11:08:20.071Z</time>
      </trkpt>
      <trkpt lat="43.1885" lon="2.9961">
        <ele>53.951489</ele>
        <time>2023-01-07T11:08:23.072Z</time>
      </trkpt>
      <trkpt lat="43.18844" lon="2.99624">
        <ele>54.028823</ele>
        <time>2023-01-07T11:08:27.071Z</time>
      </trkpt>
      <trkpt lat="43.1884" lon="2.99635">
        <ele>54.094867</ele>
        <time>2023-01-07T11:08:31.080Z</time>
      </trkpt>
      <trkpt lat="43.18832" lon="2.99642">
        <ele>54.105283</ele>
        <time>2023-01-07T11:08:35.063Z</time>
      </trkpt>
      <trkpt lat="43.18823" lon="2.99643">
        <ele>54.064606</ele>
        <time>2023-01-07T11:08:38.066Z</time>
      </trkpt>
      <trkpt lat="43.18813" lon="2.99645">
        <ele>54.021462</ele>
        <time>2023-01-07T11:08:41.065Z</time>
      </trkpt>
      <trkpt lat="43.18804" lon="2.99648">
        <ele>53.978543</ele>
        <time>2023-01-07T11:08:44.076Z</time>
      </trkpt>
      <trkpt lat="43.18793" lon="2.99652">
        <ele>53.925935</ele>
        <time>2023-01-07T11:08:48.064Z</time>
      </trkpt>
      <trkpt lat="43.18782" lon="2.99657">
        <ele>53.877644</ele>
        <time>2023-01-07T11:08:52.072Z</time>
      </trkpt>
      <trkpt lat="43.18774" lon="2.99663">
        <ele>53.836147</ele>
        <time>2023-01-07T11:08:55.079Z</time>
      </trkpt>
      <trkpt lat="43.18766" lon="2.99669">
        <ele>53.792504</ele>
        <time>2023-01-07T11:08:58.076Z</time>
      </trkpt>
      <trkpt lat="43.18757" lon="2.99674">
        <ele>53.750169</ele>
        <time>2023-01-07T11:09:01.066Z</time>
      </trkpt>
      <trkpt lat="43.18749" lon="2.99681">
        <ele>53.707788</ele>
        <time>2023-01-07T11:09:04.081Z</time>
      </trkpt>
      <trkpt lat="43.18742" lon="2.99688">
        <ele>53.666709</ele>
        <time>2023-01-07T11:09:07.072Z</time>
      </trkpt>
      <trkpt lat="43.18734" lon="2.99696">
        <ele>53.623826</ele>
        <time>2023-01-07T11:09:10.060Z</time>
      </trkpt>
      <trkpt lat="43.18726" lon="2.99705">
        <ele>53.578713</ele>
        <time>2023-01-07T11:09:13.063Z</time>
      </trkpt>
      <trkpt lat="43.18718" lon="2.99713">
        <ele>53.532939</ele>
        <time>2023-01-07T11:09:16.058Z</time>
      </trkpt>
      <trkpt lat="43.18711" lon="2.99721">
        <ele>53.491519</ele>
        <time>2023-01-07T11:09:19.066Z</time>
      </trkpt>
      <trkpt lat="43.18703" lon="2.99731">
        <ele>53.442505</ele>
        <time>2023-01-07T11:09:22.062Z</time>
      </trkpt>
      <trkpt lat="43.18693" lon="2.99741">
        <ele>53.388041</ele>
        <time>2023-01-07T11:09:25.071Z</time>
      </trkpt>
      <trkpt lat="43.18684" lon="2.99749">
        <ele>53.338966</ele>
        <time>2023-01-07T11:09:28.074Z</time>
      </trkpt>
      <trkpt lat="43.18676" lon="2.99759">
        <ele>53.290869</ele>
        <time>2023-01-07T11:09:31.066Z</time>
      </trkpt>
      <trkpt lat="43.18667" lon="2.99769">
        <ele>53.243201</ele>
        <time>2023-01-07T11:09:34.070Z</time>
      </trkpt>
      <trkpt lat="43.18658" lon="2.99778">
        <ele>53.196537</ele>
        <time>2023-01-07T11:09:37.067Z</time>
      </trkpt>
      <trkpt lat="43.18649" lon="2.99788">
        <ele>53.148559</ele>
        <time>2023-01-07T11:09:40.070Z</time>
      </trkpt>
      <trkpt lat="43.18639" lon="2.99797">
        <ele>53.098455</ele>
        <time>2023-01-07T11:09:43.065Z</time>
      </trkpt>
      <trkpt lat="43.18631" lon="2.99806">
        <ele>53.053322</ele>
        <time>2023-01-07T11:09:46.064Z</time>
      </trkpt>
      <trkpt lat="43.18623" lon="2.99815">
        <ele>53.011476</ele>
        <time>2023-01-07T11:09:49.079Z</time>
      </trkpt>
      <trkpt lat="43.18615" lon="2.99824">
        <ele>52.968144</ele>
        <time>2023-01-07T11:09:52.073Z</time>
      </trkpt>
      <trkpt lat="43.18606" lon="2.99833">
        <ele>52.923346</ele>
        <time>2023-01-07T11:09:55.061Z</time>
      </trkpt>
      <trkpt lat="43.18599" lon="2.99841">
        <ele>52.883627</ele>
        <time>2023-01-07T11:09:58.081Z</time>
      </trkpt>
      <trkpt lat="43.1859" lon="2.9985">
        <ele>52.83658</ele>
        <time>2023-01-07T11:10:02.060Z</time>
      </trkpt>
      <trkpt lat="43.18581" lon="2.99858">
        <ele>52.791777</ele>
        <time>2023-01-07T11:10:06.079Z</time>
      </trkpt>
      <trkpt lat="43.18573" lon="2.99865">
        <ele>52.753203</ele>
        <time>2023-01-07T11:10:09.062Z</time>
      </trkpt>
      <trkpt lat="43.18565" lon="2.99873">
        <ele>52.712356</ele>
        <time>2023-01-07T11:10:12.062Z</time>
      </trkpt>
      <trkpt lat="43.18557" lon="2.99884">
        <ele>52.663772</ele>
        <time>2023-01-07T11:10:16.069Z</time>
      </trkpt>
      <trkpt lat="43.1855" lon="2.99896">
        <ele>52.617986</ele>
        <time>2023-01-07T11:10:20.057Z</time>
      </trkpt>
      <trkpt lat="43.18542" lon="2.99907">
        <ele>52.572141</ele>
        <time>2023-01-07T11:10:24.062Z</time>
      </trkpt>
      <trkpt lat="43.18534" lon="2.99916">
        <ele>52.64737</ele>
        <time>2023-01-07T11:10:28.064Z</time>
      </trkpt>
      <trkpt lat="43.18524" lon="2.99923">
        <ele>52.753632</ele>
        <time>2023-01-07T11:10:32.075Z</time>
      </trkpt>
      <trkpt lat="43.18516" lon="2.99929">
        <ele>52.841734</ele>
        <time>2023-01-07T11:10:36.067Z</time>
      </trkpt>
      <trkpt lat="43.18507" lon="2.99935">
        <ele>52.934321</ele>
        <time>2023-01-07T11:10:40.081Z</time>
      </trkpt>
      <trkpt lat="43.18499" lon="2.99942">
        <ele>53.026541</ele>
        <time>2023-01-07T11:10:45.064Z</time>
      </trkpt>
      <trkpt lat="43.18492" lon="2.99951">
        <ele>53.112244</ele>
        <time>2023-01-07T11:10:54.073Z</time>
      </trkpt>
      <trkpt lat="43.18485" lon="2.99959">
        <ele>53.201285</ele>
        <time>2023-01-07T11:11:04.060Z</time>
      </trkpt>
      <trkpt lat="43.18478" lon="2.9997">
        <ele>53.297557</ele>
        <time>2023-01-07T11:11:08.066Z</time>
      </trkpt>
      <trkpt lat="43.18473" lon="2.9998">
        <ele>53.388314</ele>
        <time>2023-01-07T11:11:11.066Z</time>
      </trkpt>
      <trkpt lat="43.1847" lon="2.99993">
        <ele>53.480204</ele>
        <time>2023-01-07T11:11:14.059Z</time>
      </trkpt>
      <trkpt lat="43.18471" lon="3.00006">
        <ele>53.568823</ele>
        <time>2023-01-07T11:11:17.061Z</time>
      </trkpt>
      <trkpt lat="43.18476" lon="3.00017">
        <ele>53.655838</ele>
        <time>2023-01-07T11:11:20.064Z</time>
      </trkpt>
      <trkpt lat="43.18483" lon="3.00026">
        <ele>53.748132</ele>
        <time>2023-01-07T11:11:23.065Z</time>
      </trkpt>
      <trkpt lat="43.1849" lon="3.00036">
        <ele>53.842904</ele>
        <time>2023-01-07T11:11:26.065Z</time>
      </trkpt>
      <trkpt lat="43.18498" lon="3.00046">
        <ele>53.940858</ele>
        <time>2023-01-07T11:11:29.060Z</time>
      </trkpt>
      <trkpt lat="43.18505" lon="3.00055">
        <ele>54.032575</ele>
        <time>2023-01-07T11:11:32.067Z</time>
      </trkpt>
      <trkpt lat="43.18513" lon="3.00064">
        <ele>54.12892</ele>
        <time>2023-01-07T11:11:35.066Z</time>
      </trkpt>
      <trkpt lat="43.1852" lon="3.00076">
        <ele>54.230743</ele>
        <time>2023-01-07T11:11:38.074Z</time>
      </trkpt>
      <trkpt lat="43.18528" lon="3.00087">
        <ele>54.334005</ele>
        <time>2023-01-07T11:11:41.063Z</time>
      </trkpt>
      <trkpt lat="43.18535" lon="3.00097">
        <ele>54.427168</ele>
        <time>2023-01-07T11:11:44.066Z</time>
      </trkpt>
      <trkpt lat="43.18544" lon="3.0011">
        <ele>54.538906</ele>
        <time>2023-01-07T11:11:47.075Z</time>
      </trkpt>
      <trkpt lat="43.18552" lon="3.00122">
        <ele>54.648776</ele>
        <time>2023-01-07T11:11:50.062Z</time>
      </trkpt>
      <trkpt lat="43.1856" lon="3.00133">
        <ele>54.748673</ele>
        <time>2023-01-07T11:11:53.071Z</time>
      </trkpt>
      <trkpt lat="43.18568" lon="3.00145">
        <ele>54.852873</ele>
        <time>2023-01-07T11:11:56.069Z</time>
      </trkpt>
      <trkpt lat="43.18577" lon="3.00153">
        <ele>54.946623</ele>
        <time>2023-01-07T11:11:59.065Z</time>
      </trkpt>
      <trkpt lat="43.18586" lon="3.00162">
        <ele>55.044027</ele>
        <time>2023-01-07T11:12:02.066Z</time>
      </trkpt>
      <trkpt lat="43.18594" lon="3.00173">
        <ele>55.14801</ele>
        <time>2023-01-07T11:12:05.069Z</time>
      </trkpt>
      <trkpt lat="43.18603" lon="3.00185">
        <ele>55.26101</ele>
        <time>2023-01-07T11:12:08.064Z</time>
      </trkpt>
      <trkpt lat="43.18614" lon="3.00196">
        <ele>55.376932</ele>
        <time>2023-01-07T11:12:11.061Z</time>
      </trkpt>
      <trkpt lat="43.18622" lon="3.00207">
        <ele>55.480511</ele>
        <time>2023-01-07T11:12:14.070Z</time>
      </trkpt>
      <trkpt lat="43.18629" lon="3.00218">
        <ele>55.575042</ele>
        <time>2023-01-07T11:12:17.069Z</time>
      </trkpt>
      <trkpt lat="43.18638" lon="3.00228">
        <ele>55.673647</ele>
        <time>2023-01-07T11:12:20.078Z</time>
      </trkpt>
      <trkpt lat="43.18645" lon="3.0024">
        <ele>55.776072</ele>
        <time>2023-01-07T11:12:23.063Z</time>
      </trkpt>
      <trkpt lat="43.18653" lon="3.00251">
        <ele>55.882772</ele>
        <time>2023-01-07T11:12:26.071Z</time>
      </trkpt>
      <trkpt lat="43.18661" lon="3.00262">
        <ele>56.016467</ele>
        <time>2023-01-07T11:12:29.083Z</time>
      </trkpt>
      <trkpt lat="43.18668" lon="3.00273">
        <ele>56.131118</ele>
        <time>2023-01-07T11:12:32.068Z</time>
      </trkpt>
      <trkpt lat="43.18676" lon="3.00281">
        <ele>56.249974</ele>
        <time>2023-01-07T11:12:37.064Z</time>
      </trkpt>
      <trkpt lat="43.18689" lon="3.0029">
        <ele>56.406601</ele>
        <time>2023-01-07T11:13:34.111Z</time>
      </trkpt>
      <trkpt lat="43.18695" lon="3.00299">
        <ele>56.508413</ele>
        <time>2023-01-07T11:13:37.071Z</time>
      </trkpt>
      <trkpt lat="43.18703" lon="3.00307">
        <ele>56.617669</ele>
        <time>2023-01-07T11:13:40.073Z</time>
      </trkpt>
      <trkpt lat="43.18711" lon="3.00316">
        <ele>56.739321</ele>
        <time>2023-01-07T11:13:43.071Z</time>
      </trkpt>
      <trkpt lat="43.18721" lon="3.00325">
        <ele>56.867922</ele>
        <time>2023-01-07T11:13:46.071Z</time>
      </trkpt>
      <trkpt lat="43.18731" lon="3.00334">
        <ele>57.00304</ele>
        <time>2023-01-07T11:13:49.066Z</time>
      </trkpt>
      <trkpt lat="43.18741" lon="3.00343">
        <ele>57.143818</ele>
        <time>2023-01-07T11:13:52.081Z</time>
      </trkpt>
      <trkpt lat="43.1875" lon="3.00353">
        <ele>57.276604</ele>
        <time>2023-01-07T11:13:55.079Z</time>
      </trkpt>
      <trkpt lat="43.18757" lon="3.00362">
        <ele>57.383405</ele>
        <time>2023-01-07T11:13:58.071Z</time>
      </trkpt>
      <trkpt lat="43.18765" lon="3.00371">
        <ele>57.498754</ele>
        <time>2023-01-07T11:14:01.061Z</time>
      </trkpt>
      <trkpt lat="43.18772" lon="3.00379">
        <ele>57.604114</ele>
        <time>2023-01-07T11:14:04.065Z</time>
      </trkpt>
      <trkpt lat="43.18782" lon="3.00388">
        <ele>57.737386</ele>
        <time>2023-01-07T11:14:07.068Z</time>
      </trkpt>
      <trkpt lat="43.18793" lon="3.00398">
        <ele>57.879813</ele>
        <time>2023-01-07T11:14:10.072Z</time>
      </trkpt>
      <trkpt lat="43.18804" lon="3.00408">
        <ele>57.735815</ele>
        <time>2023-01-07T11:14:13.081Z</time>
      </trkpt>
      <trkpt lat="43.18814" lon="3.00417">
        <ele>57.595005</ele>
        <time>2023-01-07T11:14:16.068Z</time>
      </trkpt>
      <trkpt lat="43.18824" lon="3.00427">
        <ele>57.456469</ele>
        <time>2023-01-07T11:14:19.074Z</time>
      </trkpt>
      <trkpt lat="43.18833" lon="3.00436">
        <ele>57.327797</ele>
        <time>2023-01-07T11:14:22.084Z</time>
      </trkpt>
      <trkpt lat="43.18843" lon="3.00444">
        <ele>57.199455</ele>
        <time>2023-01-07T11:14:25.073Z</time>
      </trkpt>
      <trkpt lat="43.18852" lon="3.00453">
        <ele>57.074095</ele>
        <time>2023-01-07T11:14:28.059Z</time>
      </trkpt>
      <trkpt lat="43.1886" lon="3.0046">
        <ele>56.969237</ele>
        <time>2023-01-07T11:14:31.081Z</time>
      </trkpt>
      <trkpt lat="43.18867" lon="3.00468">
        <ele>56.861057</ele>
        <time>2023-01-07T11:14:38.075Z</time>
      </trkpt>
      <trkpt lat="43.18874" lon="3.00479">
        <ele>56.741755</ele>
        <time>2023-01-07T11:14:47.074Z</time>
      </trkpt>
      <trkpt lat="43.18882" lon="3.00489">
        <ele>56.617127</ele>
        <time>2023-01-07T11:14:51.059Z</time>
      </trkpt>
      <trkpt lat="43.18891" lon="3.00496">
        <ele>56.509678</ele>
        <time>2023-01-07T11:14:54.063Z</time>
      </trkpt>
      <trkpt lat="43.189" lon="3.00505">
        <ele>56.38149</ele>
        <time>2023-01-07T11:14:57.064Z</time>
      </trkpt>
      <trkpt lat="43.18909" lon="3.00513">
        <ele>56.257329</ele>
        <time>2023-01-07T11:15:00.065Z</time>
      </trkpt>
      <trkpt lat="43.18917" lon="3.0052">
        <ele>56.148176</ele>
        <time>2023-01-07T11:15:03.061Z</time>
      </trkpt>
      <trkpt lat="43.18925" lon="3.00527">
        <ele>56.040489</ele>
        <time>2023-01-07T11:15:08.068Z</time>
      </trkpt>
      <trkpt lat="43.18939" lon="3.00542">
        <ele>55.855138</ele>
        <time>2023-01-07T11:15:52.073Z</time>
      </trkpt>
      <trkpt lat="43.18948" lon="3.0055">
        <ele>55.896937</ele>
        <time>2023-01-07T11:15:55.075Z</time>
      </trkpt>
      <trkpt lat="43.18957" lon="3.00558">
        <ele>55.943774</ele>
        <time>2023-01-07T11:15:58.071Z</time>
      </trkpt>
      <trkpt lat="43.18965" lon="3.00565">
        <ele>55.981428</ele>
        <time>2023-01-07T11:16:00.069Z</time>
      </trkpt>
      <trkpt lat="43.18975" lon="3.00578">
        <ele>56.035139</ele>
        <time>2023-01-07T11:16:03.066Z</time>
      </trkpt>
      <trkpt lat="43.18985" lon="3.00587">
        <ele>56.08348</ele>
        <time>2023-01-07T11:16:06.065Z</time>
      </trkpt>
      <trkpt lat="43.18994" lon="3.00595">
        <ele>56.129149</ele>
        <time>2023-01-07T11:16:09.070Z</time>
      </trkpt>
      <trkpt lat="43.19002" lon="3.00603">
        <ele>56.168428</ele>
        <time>2023-01-07T11:16:12.062Z</time>
      </trkpt>
      <trkpt lat="43.1901" lon="3.0061">
        <ele>56.20654</ele>
        <time>2023-01-07T11:16:17.075Z</time>
      </trkpt>
      <trkpt lat="43.19024" lon="3.00621">
        <ele>56.274594</ele>
        <time>2023-01-07T11:17:05.062Z</time>
      </trkpt>
      <trkpt lat="43.19033" lon="3.00629">
        <ele>56.319082</ele>
        <time>2023-01-07T11:17:08.071Z</time>
      </trkpt>
      <trkpt lat="43.19043" lon="3.00638">
        <ele>56.367256</ele>
        <time>2023-01-07T11:17:11.069Z</time>
      </trkpt>
      <trkpt lat="43.19054" lon="3.00648">
        <ele>56.419466</ele>
        <time>2023-01-07T11:17:14.078Z</time>
      </trkpt>
      <trkpt lat="43.19061" lon="3.00657">
        <ele>56.457943</ele>
        <time>2023-01-07T11:17:17.073Z</time>
      </trkpt>
      <trkpt lat="43.19069" lon="3.00664">
        <ele>56.497556</ele>
        <time>2023-01-07T11:17:20.082Z</time>
      </trkpt>
      <trkpt lat="43.19079" lon="3.00673">
        <ele>56.546407</ele>
        <time>2023-01-07T11:17:23.078Z</time>
      </trkpt>
      <trkpt lat="43.19089" lon="3.00683">
        <ele>56.51379</ele>
        <time>2023-01-07T11:17:26.080Z</time>
      </trkpt>
      <trkpt lat="43.19098" lon="3.00692">
        <ele>56.267845</ele>
        <time>2023-01-07T11:17:29.073Z</time>
      </trkpt>
      <trkpt lat="43.19108" lon="3.00701">
        <ele>56.019255</ele>
        <time>2023-01-07T11:17:32.070Z</time>
      </trkpt>
      <trkpt lat="43.19118" lon="3.00711">
        <ele>55.746002</ele>
        <time>2023-01-07T11:17:35.063Z</time>
      </trkpt>
      <trkpt lat="43.19129" lon="3.00721">
        <ele>55.471859</ele>
        <time>2023-01-07T11:17:38.073Z</time>
      </trkpt>
      <trkpt lat="43.19136" lon="3.00729">
        <ele>55.279535</ele>
        <time>2023-01-07T11:17:40.073Z</time>
      </trkpt>
      <trkpt lat="43.19145" lon="3.00737">
        <ele>55.058234</ele>
        <time>2023-01-07T11:17:42.063Z</time>
      </trkpt>
      <trkpt lat="43.19155" lon="3.00749">
        <ele>54.772357</ele>
        <time>2023-01-07T11:17:45.072Z</time>
      </trkpt>
      <trkpt lat="43.19166" lon="3.0076">
        <ele>54.476985</ele>
        <time>2023-01-07T11:17:48.060Z</time>
      </trkpt>
      <trkpt lat="43.19173" lon="3.00768">
        <ele>54.282405</ele>
        <time>2023-01-07T11:17:50.067Z</time>
      </trkpt>
      <trkpt lat="43.19181" lon="3.00778">
        <ele>54.040389</ele>
        <time>2023-01-07T11:17:53.063Z</time>
      </trkpt>
      <trkpt lat="43.1919" lon="3.00788">
        <ele>53.806989</ele>
        <time>2023-01-07T11:17:56.066Z</time>
      </trkpt>
      <trkpt lat="43.192" lon="3.00797">
        <ele>53.55754</ele>
        <time>2023-01-07T11:17:59.065Z</time>
      </trkpt>
      <trkpt lat="43.1921" lon="3.00807">
        <ele>53.281596</ele>
        <time>2023-01-07T11:18:02.069Z</time>
      </trkpt>
      <trkpt lat="43.1922" lon="3.00817">
        <ele>53.016134</ele>
        <time>2023-01-07T11:18:05.078Z</time>
      </trkpt>
      <trkpt lat="43.19231" lon="3.00827">
        <ele>52.747251</ele>
        <time>2023-01-07T11:18:08.071Z</time>
      </trkpt>
      <trkpt lat="43.1924" lon="3.00835">
        <ele>52.734645</ele>
        <time>2023-01-07T11:18:11.070Z</time>
      </trkpt>
      <trkpt lat="43.19249" lon="3.00843">
        <ele>52.730874</ele>
        <time>2023-01-07T11:18:14.067Z</time>
      </trkpt>
      <trkpt lat="43.19258" lon="3.0085">
        <ele>52.727278</ele>
        <time>2023-01-07T11:18:17.061Z</time>
      </trkpt>
      <trkpt lat="43.19266" lon="3.00857">
        <ele>52.723784</ele>
        <time>2023-01-07T11:18:20.078Z</time>
      </trkpt>
      <trkpt lat="43.19275" lon="3.00865">
        <ele>52.720177</ele>
        <time>2023-01-07T11:18:24.087Z</time>
      </trkpt>
      <trkpt lat="43.19283" lon="3.00874">
        <ele>52.716524</ele>
        <time>2023-01-07T11:18:27.062Z</time>
      </trkpt>
      <trkpt lat="43.19292" lon="3.00883">
        <ele>52.712667</ele>
        <time>2023-01-07T11:18:30.066Z</time>
      </trkpt>
      <trkpt lat="43.19302" lon="3.00893">
        <ele>52.708222</ele>
        <time>2023-01-07T11:18:33.067Z</time>
      </trkpt>
      <trkpt lat="43.19314" lon="3.00902">
        <ele>52.703593</ele>
        <time>2023-01-07T11:18:36.066Z</time>
      </trkpt>
      <trkpt lat="43.19325" lon="3.00912">
        <ele>52.699074</ele>
        <time>2023-01-07T11:18:39.079Z</time>
      </trkpt>
      <trkpt lat="43.19334" lon="3.00921">
        <ele>52.694918</ele>
        <time>2023-01-07T11:18:42.067Z</time>
      </trkpt>
      <trkpt lat="43.19344" lon="3.00929">
        <ele>52.691036</ele>
        <time>2023-01-07T11:18:45.064Z</time>
      </trkpt>
      <trkpt lat="43.19352" lon="3.00937">
        <ele>52.687558</ele>
        <time>2023-01-07T11:18:48.075Z</time>
      </trkpt>
      <trkpt lat="43.1936" lon="3.00946">
        <ele>52.684056</ele>
        <time>2023-01-07T11:18:51.063Z</time>
      </trkpt>
      <trkpt lat="43.1936" lon="3.00962">
        <ele>52.680017</ele>
        <time>2023-01-07T11:18:55.065Z</time>
      </trkpt>
      <trkpt lat="43.19362" lon="3.00977">
        <ele>52.676018</ele>
        <time>2023-01-07T11:18:59.065Z</time>
      </trkpt>
      <trkpt lat="43.19372" lon="3.00985">
        <ele>52.677377</ele>
        <time>2023-01-07T11:19:03.061Z</time>
      </trkpt>
      <trkpt lat="43.19381" lon="3.00982">
        <ele>52.679109</ele>
        <time>2023-01-07T11:19:06.070Z</time>
      </trkpt>
      <trkpt lat="43.19392" lon="3.00981">
        <ele>52.681083</ele>
        <time>2023-01-07T11:19:10.065Z</time>
      </trkpt>
      <trkpt lat="43.19401" lon="3.00987">
        <ele>52.683023</ele>
        <time>2023-01-07T11:19:13.068Z</time>
      </trkpt>
      <trkpt lat="43.19412" lon="3.00998">
        <ele>52.685402</ele>
        <time>2023-01-07T11:19:16.083Z</time>
      </trkpt>
      <trkpt lat="43.19422" lon="3.01008">
        <ele>52.687743</ele>
        <time>2023-01-07T11:19:19.083Z</time>
      </trkpt>
      <trkpt lat="43.19432" lon="3.01017">
        <ele>52.690016</ele>
        <time>2023-01-07T11:19:22.070Z</time>
      </trkpt>
      <trkpt lat="43.19442" lon="3.01026">
        <ele>52.692263</ele>
        <time>2023-01-07T11:19:25.075Z</time>
      </trkpt>
      <trkpt lat="43.19451" lon="3.01036">
        <ele>52.694274</ele>
        <time>2023-01-07T11:19:28.073Z</time>
      </trkpt>
      <trkpt lat="43.1946" lon="3.01044">
        <ele>52.696352</ele>
        <time>2023-01-07T11:19:31.062Z</time>
      </trkpt>
      <trkpt lat="43.19468" lon="3.01054">
        <ele>52.698432</ele>
        <time>2023-01-07T11:19:34.072Z</time>
      </trkpt>
      <trkpt lat="43.19478" lon="3.01064">
        <ele>52.700669</ele>
        <time>2023-01-07T11:19:37.076Z</time>
      </trkpt>
      <trkpt lat="43.19487" lon="3.01075">
        <ele>52.702881</ele>
        <time>2023-01-07T11:19:40.078Z</time>
      </trkpt>
      <trkpt lat="43.19496" lon="3.01085">
        <ele>52.705067</ele>
        <time>2023-01-07T11:19:43.082Z</time>
      </trkpt>
      <trkpt lat="43.19504" lon="3.01096">
        <ele>52.70714</ele>
        <time>2023-01-07T11:19:46.076Z</time>
      </trkpt>
      <trkpt lat="43.19513" lon="3.01107">
        <ele>52.742298</ele>
        <time>2023-01-07T11:19:49.076Z</time>
      </trkpt>
      <trkpt lat="43.19521" lon="3.01118">
        <ele>52.900631</ele>
        <time>2023-01-07T11:19:52.078Z</time>
      </trkpt>
      <trkpt lat="43.19528" lon="3.01128">
        <ele>53.050981</ele>
        <time>2023-01-07T11:19:55.075Z</time>
      </trkpt>
      <trkpt lat="43.19536" lon="3.01138">
        <ele>53.210006</ele>
        <time>2023-01-07T11:19:58.076Z</time>
      </trkpt>
      <trkpt lat="43.19545" lon="3.01148">
        <ele>53.371068</ele>
        <time>2023-01-07T11:20:01.064Z</time>
      </trkpt>
      <trkpt lat="43.19552" lon="3.01157">
        <ele>53.509989</ele>
        <time>2023-01-07T11:20:04.075Z</time>
      </trkpt>
      <trkpt lat="43.1956" lon="3.01166">
        <ele>53.663062</ele>
        <time>2023-01-07T11:20:07.074Z</time>
      </trkpt>
      <trkpt lat="43.19569" lon="3.01176">
        <ele>53.82137</ele>
        <time>2023-01-07T11:20:10.082Z</time>
      </trkpt>
      <trkpt lat="43.19578" lon="3.01186">
        <ele>53.989868</ele>
        <time>2023-01-07T11:20:13.081Z</time>
      </trkpt>
      <trkpt lat="43.19588" lon="3.01197">
        <ele>54.166275</ele>
        <time>2023-01-07T11:20:16.064Z</time>
      </trkpt>
      <trkpt lat="43.19597" lon="3.01207">
        <ele>54.334531</ele>
        <time>2023-01-07T11:20:19.063Z</time>
      </trkpt>
      <trkpt lat="43.19606" lon="3.01218">
        <ele>54.506824</ele>
        <time>2023-01-07T11:20:22.072Z</time>
      </trkpt>
      <trkpt lat="43.19616" lon="3.01229">
        <ele>54.685471</ele>
        <time>2023-01-07T11:20:25.059Z</time>
      </trkpt>
      <trkpt lat="43.19623" lon="3.01239">
        <ele>54.836319</ele>
        <time>2023-01-07T11:20:28.062Z</time>
      </trkpt>
      <trkpt lat="43.19631" lon="3.01248">
        <ele>54.977361</ele>
        <time>2023-01-07T11:20:31.069Z</time>
      </trkpt>
      <trkpt lat="43.19639" lon="3.01257">
        <ele>55.127338</ele>
        <time>2023-01-07T11:20:34.073Z</time>
      </trkpt>
      <trkpt lat="43.19647" lon="3.01266">
        <ele>55.272995</ele>
        <time>2023-01-07T11:20:37.075Z</time>
      </trkpt>
      <trkpt lat="43.19656" lon="3.01276">
        <ele>55.082401</ele>
        <time>2023-01-07T11:20:40.074Z</time>
      </trkpt>
      <trkpt lat="43.19664" lon="3.01286">
        <ele>54.892994</ele>
        <time>2023-01-07T11:20:43.069Z</time>
      </trkpt>
      <trkpt lat="43.19673" lon="3.01296">
        <ele>54.70725</ele>
        <time>2023-01-07T11:20:46.076Z</time>
      </trkpt>
      <trkpt lat="43.1968" lon="3.01304">
        <ele>54.555092</ele>
        <time>2023-01-07T11:20:48.070Z</time>
      </trkpt>
      <trkpt lat="43.1969" lon="3.01316">
        <ele>54.336066</ele>
        <time>2023-01-07T11:20:51.083Z</time>
      </trkpt>
      <trkpt lat="43.19699" lon="3.01327">
        <ele>54.136694</ele>
        <time>2023-01-07T11:20:54.077Z</time>
      </trkpt>
      <trkpt lat="43.19708" lon="3.01337">
        <ele>53.944566</ele>
        <time>2023-01-07T11:20:57.087Z</time>
      </trkpt>
      <trkpt lat="43.19716" lon="3.01347">
        <ele>53.754226</ele>
        <time>2023-01-07T11:21:00.074Z</time>
      </trkpt>
      <trkpt lat="43.19724" lon="3.01357">
        <ele>53.570599</ele>
        <time>2023-01-07T11:21:03.077Z</time>
      </trkpt>
      <trkpt lat="43.19733" lon="3.01366">
        <ele>53.38565</ele>
        <time>2023-01-07T11:21:06.063Z</time>
      </trkpt>
      <trkpt lat="43.19742" lon="3.01376">
        <ele>53.190375</ele>
        <time>2023-01-07T11:21:09.073Z</time>
      </trkpt>
      <trkpt lat="43.19752" lon="3.01386">
        <ele>52.992597</ele>
        <time>2023-01-07T11:21:12.066Z</time>
      </trkpt>
      <trkpt lat="43.19761" lon="3.01395">
        <ele>52.799052</ele>
        <time>2023-01-07T11:21:15.067Z</time>
      </trkpt>
      <trkpt lat="43.19771" lon="3.01405">
        <ele>52.592385</ele>
        <time>2023-01-07T11:21:18.073Z</time>
      </trkpt>
      <trkpt lat="43.19779" lon="3.01411">
        <ele>52.440754</ele>
        <time>2023-01-07T11:21:20.064Z</time>
      </trkpt>
      <trkpt lat="43.19787" lon="3.01418">
        <ele>52.290617</ele>
        <time>2023-01-07T11:21:22.065Z</time>
      </trkpt>
      <trkpt lat="43.19795" lon="3.01425">
        <ele>52.215884</ele>
        <time>2023-01-07T11:21:24.061Z</time>
      </trkpt>
      <trkpt lat="43.19803" lon="3.01433">
        <ele>52.155536</ele>
        <time>2023-01-07T11:21:26.065Z</time>
      </trkpt>
      <trkpt lat="43.19814" lon="3.01442">
        <ele>52.078284</ele>
        <time>2023-01-07T11:21:29.076Z</time>
      </trkpt>
      <trkpt lat="43.19823" lon="3.01452">
        <ele>52.008544</ele>
        <time>2023-01-07T11:21:32.060Z</time>
      </trkpt>
      <trkpt lat="43.19832" lon="3.01461">
        <ele>51.940188</ele>
        <time>2023-01-07T11:21:35.063Z</time>
      </trkpt>
      <trkpt lat="43.19841" lon="3.01472">
        <ele>51.865498</ele>
        <time>2023-01-07T11:21:38.063Z</time>
      </trkpt>
      <trkpt lat="43.19851" lon="3.01482">
        <ele>51.791284</ele>
        <time>2023-01-07T11:21:41.070Z</time>
      </trkpt>
      <trkpt lat="43.19861" lon="3.01493">
        <ele>51.712126</ele>
        <time>2023-01-07T11:21:44.073Z</time>
      </trkpt>
      <trkpt lat="43.1987" lon="3.01504">
        <ele>51.635901</ele>
        <time>2023-01-07T11:21:47.076Z</time>
      </trkpt>
      <trkpt lat="43.19879" lon="3.01516">
        <ele>51.561053</ele>
        <time>2023-01-07T11:21:50.067Z</time>
      </trkpt>
      <trkpt lat="43.19888" lon="3.01528">
        <ele>51.483072</ele>
        <time>2023-01-07T11:21:53.072Z</time>
      </trkpt>
      <trkpt lat="43.19897" lon="3.01542">
        <ele>51.400233</ele>
        <time>2023-01-07T11:21:56.080Z</time>
      </trkpt>
      <trkpt lat="43.19904" lon="3.01551">
        <ele>51.342824</ele>
        <time>2023-01-07T11:21:58.080Z</time>
      </trkpt>
      <trkpt lat="43.19912" lon="3.01566">
        <ele>51.259355</ele>
        <time>2023-01-07T11:22:01.076Z</time>
      </trkpt>
      <trkpt lat="43.19919" lon="3.01581">
        <ele>51.179764</ele>
        <time>2023-01-07T11:22:04.075Z</time>
      </trkpt>
      <trkpt lat="43.19925" lon="3.01595">
        <ele>51.235981</ele>
        <time>2023-01-07T11:22:07.065Z</time>
      </trkpt>
      <trkpt lat="43.1993" lon="3.01607">
        <ele>51.304947</ele>
        <time>2023-01-07T11:22:10.084Z</time>
      </trkpt>
      <trkpt lat="43.19934" lon="3.0162">
        <ele>51.377884</ele>
        <time>2023-01-07T11:22:14.078Z</time>
      </trkpt>
      <trkpt lat="43.19942" lon="3.01653">
        <ele>51.545556</ele>
        <time>2023-01-07T11:22:53.069Z</time>
      </trkpt>
      <trkpt lat="43.19944" lon="3.01667">
        <ele>51.619048</ele>
        <time>2023-01-07T11:22:56.075Z</time>
      </trkpt>
      <trkpt lat="43.19947" lon="3.01682">
        <ele>51.693952</ele>
        <time>2023-01-07T11:22:59.069Z</time>
      </trkpt>
      <trkpt lat="43.1995" lon="3.01698">
        <ele>51.771883</ele>
        <time>2023-01-07T11:23:02.070Z</time>
      </trkpt>
      <trkpt lat="43.19953" lon="3.01715">
        <ele>51.857306</ele>
        <time>2023-01-07T11:23:05.071Z</time>
      </trkpt>
      <trkpt lat="43.19955" lon="3.01731">
        <ele>51.938442</ele>
        <time>2023-01-07T11:23:08.067Z</time>
      </trkpt>
      <trkpt lat="43.19958" lon="3.01747">
        <ele>52.020538</ele>
        <time>2023-01-07T11:23:11.071Z</time>
      </trkpt>
      <trkpt lat="43.19961" lon="3.01764">
        <ele>52.106145</ele>
        <time>2023-01-07T11:23:14.064Z</time>
      </trkpt>
      <trkpt lat="43.19964" lon="3.01781">
        <ele>52.193797</ele>
        <time>2023-01-07T11:23:17.064Z</time>
      </trkpt>
      <trkpt lat="43.19968" lon="3.01798">
        <ele>52.283769</ele>
        <time>2023-01-07T11:23:20.062Z</time>
      </trkpt>
      <trkpt lat="43.19972" lon="3.0181">
        <ele>52.344793</ele>
        <time>2023-01-07T11:23:22.073Z</time>
      </trkpt>
      <trkpt lat="43.19977" lon="3.01827">
        <ele>52.356941</ele>
        <time>2023-01-07T11:23:25.064Z</time>
      </trkpt>
      <trkpt lat="43.19981" lon="3.01838">
        <ele>52.326473</ele>
        <time>2023-01-07T11:23:27.059Z</time>
      </trkpt>
      <trkpt lat="43.19985" lon="3.01849">
        <ele>52.295474</ele>
        <time>2023-01-07T11:23:29.066Z</time>
      </trkpt>
      <trkpt lat="43.1999" lon="3.01859">
        <ele>52.264768</ele>
        <time>2023-01-07T11:23:31.071Z</time>
      </trkpt>
      <trkpt lat="43.19996" lon="3.0187">
        <ele>52.233678</ele>
        <time>2023-01-07T11:23:33.061Z</time>
      </trkpt>
      <trkpt lat="43.20002" lon="3.01879">
        <ele>52.202333</ele>
        <time>2023-01-07T11:23:35.072Z</time>
      </trkpt>
      <trkpt lat="43.20008" lon="3.01889">
        <ele>52.171521</ele>
        <time>2023-01-07T11:23:37.072Z</time>
      </trkpt>
      <trkpt lat="43.20015" lon="3.01898">
        <ele>52.138984</ele>
        <time>2023-01-07T11:23:39.077Z</time>
      </trkpt>
      <trkpt lat="43.20021" lon="3.01907">
        <ele>52.107675</ele>
        <time>2023-01-07T11:23:41.072Z</time>
      </trkpt>
      <trkpt lat="43.2003" lon="3.01919">
        <ele>52.064819</ele>
        <time>2023-01-07T11:23:44.070Z</time>
      </trkpt>
      <trkpt lat="43.20039" lon="3.01931">
        <ele>52.021945</ele>
        <time>2023-01-07T11:23:47.083Z</time>
      </trkpt>
      <trkpt lat="43.20047" lon="3.01943">
        <ele>51.982446</ele>
        <time>2023-01-07T11:23:50.074Z</time>
      </trkpt>
      <trkpt lat="43.2005" lon="3.01958">
        <ele>51.943502</ele>
        <time>2023-01-07T11:23:53.083Z</time>
      </trkpt>
      <trkpt lat="43.20055" lon="3.01974">
        <ele>51.902064</ele>
        <time>2023-01-07T11:23:56.076Z</time>
      </trkpt>
      <trkpt lat="43.20064" lon="3.01986">
        <ele>51.858189</ele>
        <time>2023-01-07T11:23:59.070Z</time>
      </trkpt>
      <trkpt lat="43.20077" lon="3.01992">
        <ele>51.813209</ele>
        <time>2023-01-07T11:24:02.075Z</time>
      </trkpt>
      <trkpt lat="43.20091" lon="3.01991">
        <ele>51.794244</ele>
        <time>2023-01-07T11:24:05.071Z</time>
      </trkpt>
      <trkpt lat="43.20104" lon="3.01989">
        <ele>51.924816</ele>
        <time>2023-01-07T11:24:08.080Z</time>
      </trkpt>
      <trkpt lat="43.20113" lon="3.01989">
        <ele>52.015181</ele>
        <time>2023-01-07T11:24:10.067Z</time>
      </trkpt>
      <trkpt lat="43.20122" lon="3.01992">
        <ele>52.105349</ele>
        <time>2023-01-07T11:24:12.065Z</time>
      </trkpt>
      <trkpt lat="43.20131" lon="3.01995">
        <ele>52.194746</ele>
        <time>2023-01-07T11:24:14.064Z</time>
      </trkpt>
      <trkpt lat="43.2014" lon="3.01998">
        <ele>52.287282</ele>
        <time>2023-01-07T11:24:16.062Z</time>
      </trkpt>
      <trkpt lat="43.20153" lon="3.02001">
        <ele>52.41807</ele>
        <time>2023-01-07T11:24:19.066Z</time>
      </trkpt>
      <trkpt lat="43.20162" lon="3.02004">
        <ele>52.509345</ele>
        <time>2023-01-07T11:24:21.061Z</time>
      </trkpt>
      <trkpt lat="43.20172" lon="3.02007">
        <ele>52.604913</ele>
        <time>2023-01-07T11:24:23.072Z</time>
      </trkpt>
      <trkpt lat="43.20181" lon="3.0201">
        <ele>52.704171</ele>
        <time>2023-01-07T11:24:25.083Z</time>
      </trkpt>
      <trkpt lat="43.20191" lon="3.02013">
        <ele>52.803092</ele>
        <time>2023-01-07T11:24:27.069Z</time>
      </trkpt>
      <trkpt lat="43.20201" lon="3.02016">
        <ele>52.897701</ele>
        <time>2023-01-07T11:24:29.073Z</time>
      </trkpt>
      <trkpt lat="43.2021" lon="3.02019">
        <ele>52.99359</ele>
        <time>2023-01-07T11:24:31.065Z</time>
      </trkpt>
      <trkpt lat="43.2022" lon="3.02021">
        <ele>53.090506</ele>
        <time>2023-01-07T11:24:33.087Z</time>
      </trkpt>
      <trkpt lat="43.20229" lon="3.02024">
        <ele>53.187189</ele>
        <time>2023-01-07T11:24:35.084Z</time>
      </trkpt>
      <trkpt lat="43.20239" lon="3.02027">
        <ele>53.279017</ele>
        <time>2023-01-07T11:24:37.066Z</time>
      </trkpt>
      <trkpt lat="43.20248" lon="3.02029">
        <ele>53.372513</ele>
        <time>2023-01-07T11:24:39.079Z</time>
      </trkpt>
      <trkpt lat="43.20257" lon="3.02032">
        <ele>53.466674</ele>
        <time>2023-01-07T11:24:41.073Z</time>
      </trkpt>
      <trkpt lat="43.20267" lon="3.02034">
        <ele>53.540621</ele>
        <time>2023-01-07T11:24:43.073Z</time>
      </trkpt>
      <trkpt lat="43.20277" lon="3.02038">
        <ele>53.539772</ele>
        <time>2023-01-07T11:24:45.083Z</time>
      </trkpt>
      <trkpt lat="43.20286" lon="3.02042">
        <ele>53.538983</ele>
        <time>2023-01-07T11:24:47.082Z</time>
      </trkpt>
      <trkpt lat="43.20295" lon="3.02047">
        <ele>53.538195</ele>
        <time>2023-01-07T11:24:49.071Z</time>
      </trkpt>
      <trkpt lat="43.20304" lon="3.02051">
        <ele>53.537393</ele>
        <time>2023-01-07T11:24:51.082Z</time>
      </trkpt>
      <trkpt lat="43.20313" lon="3.02057">
        <ele>53.536597</ele>
        <time>2023-01-07T11:24:53.061Z</time>
      </trkpt>
      <trkpt lat="43.20323" lon="3.02063">
        <ele>53.535715</ele>
        <time>2023-01-07T11:24:55.066Z</time>
      </trkpt>
      <trkpt lat="43.20332" lon="3.0207">
        <ele>53.534861</ele>
        <time>2023-01-07T11:24:57.070Z</time>
      </trkpt>
      <trkpt lat="43.20341" lon="3.02078">
        <ele>53.534</ele>
        <time>2023-01-07T11:24:59.095Z</time>
      </trkpt>
      <trkpt lat="43.20349" lon="3.02085">
        <ele>53.533261</ele>
        <time>2023-01-07T11:25:01.068Z</time>
      </trkpt>
      <trkpt lat="43.20358" lon="3.02092">
        <ele>53.532417</ele>
        <time>2023-01-07T11:25:03.063Z</time>
      </trkpt>
      <trkpt lat="43.20366" lon="3.02099">
        <ele>53.531627</ele>
        <time>2023-01-07T11:25:05.070Z</time>
      </trkpt>
      <trkpt lat="43.20373" lon="3.02108">
        <ele>53.530813</ele>
        <time>2023-01-07T11:25:07.075Z</time>
      </trkpt>
      <trkpt lat="43.2038" lon="3.02116">
        <ele>53.530075</ele>
        <time>2023-01-07T11:25:09.083Z</time>
      </trkpt>
      <trkpt lat="43.20389" lon="3.02125">
        <ele>53.529214</ele>
        <time>2023-01-07T11:25:11.078Z</time>
      </trkpt>
      <trkpt lat="43.20399" lon="3.02137">
        <ele>53.528099</ele>
        <time>2023-01-07T11:25:14.078Z</time>
      </trkpt>
      <trkpt lat="43.20407" lon="3.02146">
        <ele>53.527264</ele>
        <time>2023-01-07T11:25:16.071Z</time>
      </trkpt>
      <trkpt lat="43.20415" lon="3.02154">
        <ele>53.526422</ele>
        <time>2023-01-07T11:25:18.081Z</time>
      </trkpt>
      <trkpt lat="43.20423" lon="3.02165">
        <ele>53.469315</ele>
        <time>2023-01-07T11:25:20.080Z</time>
      </trkpt>
      <trkpt lat="43.20431" lon="3.02173">
        <ele>53.390137</ele>
        <time>2023-01-07T11:25:22.065Z</time>
      </trkpt>
      <trkpt lat="43.20439" lon="3.02182">
        <ele>53.306179</ele>
        <time>2023-01-07T11:25:24.079Z</time>
      </trkpt>
      <trkpt lat="43.20446" lon="3.02191">
        <ele>53.226055</ele>
        <time>2023-01-07T11:25:26.076Z</time>
      </trkpt>
      <trkpt lat="43.20453" lon="3.02198">
        <ele>53.152515</ele>
        <time>2023-01-07T11:25:28.087Z</time>
      </trkpt>
      <trkpt lat="43.2046" lon="3.02207">
        <ele>53.078164</ele>
        <time>2023-01-07T11:25:30.079Z</time>
      </trkpt>
      <trkpt lat="43.20467" lon="3.02215">
        <ele>53.001346</ele>
        <time>2023-01-07T11:25:32.087Z</time>
      </trkpt>
      <trkpt lat="43.20474" lon="3.02223">
        <ele>52.926413</ele>
        <time>2023-01-07T11:25:34.067Z</time>
      </trkpt>
      <trkpt lat="43.20482" lon="3.02232">
        <ele>52.849596</ele>
        <time>2023-01-07T11:25:36.087Z</time>
      </trkpt>
      <trkpt lat="43.20492" lon="3.02244">
        <ele>52.740729</ele>
        <time>2023-01-07T11:25:39.072Z</time>
      </trkpt>
      <trkpt lat="43.20499" lon="3.02252">
        <ele>52.665199</ele>
        <time>2023-01-07T11:25:41.066Z</time>
      </trkpt>
      <trkpt lat="43.20506" lon="3.02261">
        <ele>52.585859</ele>
        <time>2023-01-07T11:25:43.068Z</time>
      </trkpt>
      <trkpt lat="43.20514" lon="3.0227">
        <ele>52.504129</ele>
        <time>2023-01-07T11:25:45.064Z</time>
      </trkpt>
      <trkpt lat="43.20522" lon="3.02278">
        <ele>52.424222</ele>
        <time>2023-01-07T11:25:47.081Z</time>
      </trkpt>
      <trkpt lat="43.20529" lon="3.02286">
        <ele>52.348261</ele>
        <time>2023-01-07T11:25:49.061Z</time>
      </trkpt>
      <trkpt lat="43.20536" lon="3.02295">
        <ele>52.269915</ele>
        <time>2023-01-07T11:25:51.070Z</time>
      </trkpt>
      <trkpt lat="43.20543" lon="3.02304">
        <ele>52.193586</ele>
        <time>2023-01-07T11:25:53.069Z</time>
      </trkpt>
      <trkpt lat="43.2055" lon="3.02313">
        <ele>52.113232</ele>
        <time>2023-01-07T11:25:55.076Z</time>
      </trkpt>
      <trkpt lat="43.20558" lon="3.02323">
        <ele>52.001722</ele>
        <time>2023-01-07T11:25:57.071Z</time>
      </trkpt>
      <trkpt lat="43.20568" lon="3.02336">
        <ele>51.825092</ele>
        <time>2023-01-07T11:26:00.087Z</time>
      </trkpt>
      <trkpt lat="43.20576" lon="3.02344">
        <ele>51.700031</ele>
        <time>2023-01-07T11:26:02.061Z</time>
      </trkpt>
      <trkpt lat="43.20583" lon="3.02352">
        <ele>51.576369</ele>
        <time>2023-01-07T11:26:04.068Z</time>
      </trkpt>
      <trkpt lat="43.2059" lon="3.02361">
        <ele>51.453941</ele>
        <time>2023-01-07T11:26:06.075Z</time>
      </trkpt>
      <trkpt lat="43.20598" lon="3.0237">
        <ele>51.329923</ele>
        <time>2023-01-07T11:26:08.071Z</time>
      </trkpt>
      <trkpt lat="43.20605" lon="3.02379">
        <ele>51.207211</ele>
        <time>2023-01-07T11:26:10.073Z</time>
      </trkpt>
      <trkpt lat="43.20612" lon="3.02387">
        <ele>51.087793</ele>
        <time>2023-01-07T11:26:12.072Z</time>
      </trkpt>
      <trkpt lat="43.20618" lon="3.02395">
        <ele>50.970473</ele>
        <time>2023-01-07T11:26:14.061Z</time>
      </trkpt>
      <trkpt lat="43.20626" lon="3.02404">
        <ele>50.84608</ele>
        <time>2023-01-07T11:26:16.077Z</time>
      </trkpt>
      <trkpt lat="43.20634" lon="3.02412">
        <ele>50.721588</ele>
        <time>2023-01-07T11:26:18.063Z</time>
      </trkpt>
      <trkpt lat="43.20641" lon="3.0242">
        <ele>50.600135</ele>
        <time>2023-01-07T11:26:20.059Z</time>
      </trkpt>
      <trkpt lat="43.20648" lon="3.02428">
        <ele>50.482709</ele>
        <time>2023-01-07T11:26:22.069Z</time>
      </trkpt>
      <trkpt lat="43.20654" lon="3.02437">
        <ele>50.365009</ele>
        <time>2023-01-07T11:26:24.065Z</time>
      </trkpt>
      <trkpt lat="43.20664" lon="3.0245">
        <ele>50.188103</ele>
        <time>2023-01-07T11:26:27.061Z</time>
      </trkpt>
      <trkpt lat="43.20672" lon="3.02458">
        <ele>50.061891</ele>
        <time>2023-01-07T11:26:29.078Z</time>
      </trkpt>
      <trkpt lat="43.2068" lon="3.02466">
        <ele>49.935907</ele>
        <time>2023-01-07T11:26:31.061Z</time>
      </trkpt>
      <trkpt lat="43.20687" lon="3.02474">
        <ele>49.819675</ele>
        <time>2023-01-07T11:26:33.072Z</time>
      </trkpt>
      <trkpt lat="43.20696" lon="3.02486">
        <ele>49.808097</ele>
        <time>2023-01-07T11:26:36.073Z</time>
      </trkpt>
      <trkpt lat="43.20705" lon="3.02498">
        <ele>49.911572</ele>
        <time>2023-01-07T11:26:39.069Z</time>
      </trkpt>
      <trkpt lat="43.20716" lon="3.0251">
        <ele>50.017853</ele>
        <time>2023-01-07T11:26:42.072Z</time>
      </trkpt>
      <trkpt lat="43.20723" lon="3.02519">
        <ele>50.092603</ele>
        <time>2023-01-07T11:26:44.067Z</time>
      </trkpt>
      <trkpt lat="43.2073" lon="3.02527">
        <ele>50.167939</ele>
        <time>2023-01-07T11:26:46.061Z</time>
      </trkpt>
      <trkpt lat="43.2074" lon="3.0254">
        <ele>50.271664</ele>
        <time>2023-01-07T11:26:49.065Z</time>
      </trkpt>
      <trkpt lat="43.20747" lon="3.02548">
        <ele>50.348813</ele>
        <time>2023-01-07T11:26:51.065Z</time>
      </trkpt>
      <trkpt lat="43.20757" lon="3.02561">
        <ele>50.455997</ele>
        <time>2023-01-07T11:26:54.070Z</time>
      </trkpt>
      <trkpt lat="43.20764" lon="3.02569">
        <ele>50.528414</ele>
        <time>2023-01-07T11:26:56.072Z</time>
      </trkpt>
      <trkpt lat="43.20771" lon="3.02578">
        <ele>50.604958</ele>
        <time>2023-01-07T11:26:58.071Z</time>
      </trkpt>
      <trkpt lat="43.20778" lon="3.02587">
        <ele>50.682268</ele>
        <time>2023-01-07T11:27:00.070Z</time>
      </trkpt>
      <trkpt lat="43.20786" lon="3.02596">
        <ele>50.763081</ele>
        <time>2023-01-07T11:27:02.070Z</time>
      </trkpt>
      <trkpt lat="43.20794" lon="3.02605">
        <ele>50.840837</ele>
        <time>2023-01-07T11:27:04.066Z</time>
      </trkpt>
      <trkpt lat="43.20804" lon="3.02617">
        <ele>50.947265</ele>
        <time>2023-01-07T11:27:07.061Z</time>
      </trkpt>
      <trkpt lat="43.20812" lon="3.02626">
        <ele>51.026861</ele>
        <time>2023-01-07T11:27:09.073Z</time>
      </trkpt>
      <trkpt lat="43.20819" lon="3.02635">
        <ele>51.103609</ele>
        <time>2023-01-07T11:27:11.076Z</time>
      </trkpt>
      <trkpt lat="43.20826" lon="3.02643">
        <ele>51.18376</ele>
        <time>2023-01-07T11:27:13.069Z</time>
      </trkpt>
      <trkpt lat="43.20833" lon="3.02651">
        <ele>51.304781</ele>
        <time>2023-01-07T11:27:15.064Z</time>
      </trkpt>
      <trkpt lat="43.20843" lon="3.02663">
        <ele>51.479347</ele>
        <time>2023-01-07T11:27:18.064Z</time>
      </trkpt>
      <trkpt lat="43.20853" lon="3.02676">
        <ele>51.664148</ele>
        <time>2023-01-07T11:27:21.073Z</time>
      </trkpt>
      <trkpt lat="43.20863" lon="3.02688">
        <ele>51.844957</ele>
        <time>2023-01-07T11:27:24.077Z</time>
      </trkpt>
      <trkpt lat="43.2087" lon="3.02697">
        <ele>51.976197</ele>
        <time>2023-01-07T11:27:26.079Z</time>
      </trkpt>
      <trkpt lat="43.20877" lon="3.02706">
        <ele>52.101525</ele>
        <time>2023-01-07T11:27:28.068Z</time>
      </trkpt>
      <trkpt lat="43.20884" lon="3.02715">
        <ele>52.237381</ele>
        <time>2023-01-07T11:27:30.076Z</time>
      </trkpt>
      <trkpt lat="43.20892" lon="3.02723">
        <ele>52.365653</ele>
        <time>2023-01-07T11:27:32.077Z</time>
      </trkpt>
      <trkpt lat="43.20899" lon="3.02732">
        <ele>52.492033</ele>
        <time>2023-01-07T11:27:34.066Z</time>
      </trkpt>
      <trkpt lat="43.20906" lon="3.0274">
        <ele>52.624021</ele>
        <time>2023-01-07T11:27:36.089Z</time>
      </trkpt>
      <trkpt lat="43.20915" lon="3.02749">
        <ele>52.762727</ele>
        <time>2023-01-07T11:27:38.076Z</time>
      </trkpt>
      <trkpt lat="43.20922" lon="3.02758">
        <ele>52.891017</ele>
        <time>2023-01-07T11:27:40.076Z</time>
      </trkpt>
      <trkpt lat="43.20929" lon="3.02765">
        <ele>53.016424</ele>
        <time>2023-01-07T11:27:42.084Z</time>
      </trkpt>
      <trkpt lat="43.20936" lon="3.02774">
        <ele>53.143121</ele>
        <time>2023-01-07T11:27:44.075Z</time>
      </trkpt>
      <trkpt lat="43.20943" lon="3.02783">
        <ele>53.264103</ele>
        <time>2023-01-07T11:27:46.075Z</time>
      </trkpt>
      <trkpt lat="43.20952" lon="3.02794">
        <ele>53.435509</ele>
        <time>2023-01-07T11:27:49.075Z</time>
      </trkpt>
      <trkpt lat="43.20962" lon="3.02805">
        <ele>53.586405</ele>
        <time>2023-01-07T11:27:52.068Z</time>
      </trkpt>
      <trkpt lat="43.20971" lon="3.02816">
        <ele>53.576008</ele>
        <time>2023-01-07T11:27:55.084Z</time>
      </trkpt>
      <trkpt lat="43.20981" lon="3.02827">
        <ele>53.565929</ele>
        <time>2023-01-07T11:27:58.080Z</time>
      </trkpt>
      <trkpt lat="43.2099" lon="3.02838">
        <ele>53.55543</ele>
        <time>2023-01-07T11:28:01.087Z</time>
      </trkpt>
      <trkpt lat="43.21" lon="3.0285">
        <ele>53.544737</ele>
        <time>2023-01-07T11:28:04.082Z</time>
      </trkpt>
      <trkpt lat="43.21007" lon="3.02857">
        <ele>53.537298</ele>
        <time>2023-01-07T11:28:06.079Z</time>
      </trkpt>
      <trkpt lat="43.21017" lon="3.02869">
        <ele>53.526366</ele>
        <time>2023-01-07T11:28:09.061Z</time>
      </trkpt>
      <trkpt lat="43.21027" lon="3.02882">
        <ele>53.515557</ele>
        <time>2023-01-07T11:28:12.070Z</time>
      </trkpt>
      <trkpt lat="43.21036" lon="3.02893">
        <ele>53.505131</ele>
        <time>2023-01-07T11:28:15.078Z</time>
      </trkpt>
      <trkpt lat="43.21046" lon="3.02904">
        <ele>53.494594</ele>
        <time>2023-01-07T11:28:18.081Z</time>
      </trkpt>
      <trkpt lat="43.21056" lon="3.02916">
        <ele>53.483866</ele>
        <time>2023-01-07T11:28:21.088Z</time>
      </trkpt>
      <trkpt lat="43.21065" lon="3.02928">
        <ele>53.473014</ele>
        <time>2023-01-07T11:28:24.072Z</time>
      </trkpt>
      <trkpt lat="43.21073" lon="3.02936">
        <ele>53.465089</ele>
        <time>2023-01-07T11:28:26.085Z</time>
      </trkpt>
      <trkpt lat="43.2108" lon="3.02945">
        <ele>53.45715</ele>
        <time>2023-01-07T11:28:28.079Z</time>
      </trkpt>
      <trkpt lat="43.21087" lon="3.02953">
        <ele>53.449583</ele>
        <time>2023-01-07T11:28:30.079Z</time>
      </trkpt>
      <trkpt lat="43.21094" lon="3.02961">
        <ele>53.442014</ele>
        <time>2023-01-07T11:28:32.079Z</time>
      </trkpt>
      <trkpt lat="43.21101" lon="3.02969">
        <ele>53.43576</ele>
        <time>2023-01-07T11:28:34.072Z</time>
      </trkpt>
      <trkpt lat="43.21108" lon="3.02978">
        <ele>53.430758</ele>
        <time>2023-01-07T11:28:36.074Z</time>
      </trkpt>
      <trkpt lat="43.21115" lon="3.02987">
        <ele>53.425692</ele>
        <time>2023-01-07T11:28:38.073Z</time>
      </trkpt>
      <trkpt lat="43.21122" lon="3.02995">
        <ele>53.420897</ele>
        <time>2023-01-07T11:28:40.083Z</time>
      </trkpt>
      <trkpt lat="43.21131" lon="3.03006">
        <ele>53.414172</ele>
        <time>2023-01-07T11:28:43.064Z</time>
      </trkpt>
      <trkpt lat="43.21141" lon="3.03019">
        <ele>53.407122</ele>
        <time>2023-01-07T11:28:46.074Z</time>
      </trkpt>
      <trkpt lat="43.21151" lon="3.03031">
        <ele>53.40011</ele>
        <time>2023-01-07T11:28:49.081Z</time>
      </trkpt>
      <trkpt lat="43.21158" lon="3.03039">
        <ele>53.395315</ele>
        <time>2023-01-07T11:28:51.073Z</time>
      </trkpt>
      <trkpt lat="43.21165" lon="3.03047">
        <ele>53.390327</ele>
        <time>2023-01-07T11:28:53.081Z</time>
      </trkpt>
      <trkpt lat="43.21172" lon="3.03056">
        <ele>53.385285</ele>
        <time>2023-01-07T11:28:55.084Z</time>
      </trkpt>
      <trkpt lat="43.2118" lon="3.03064">
        <ele>53.380129</ele>
        <time>2023-01-07T11:28:57.062Z</time>
      </trkpt>
      <trkpt lat="43.21186" lon="3.03072">
        <ele>53.375246</ele>
        <time>2023-01-07T11:28:59.079Z</time>
      </trkpt>
      <trkpt lat="43.21194" lon="3.03081">
        <ele>53.370214</ele>
        <time>2023-01-07T11:29:01.073Z</time>
      </trkpt>
      <trkpt lat="43.21201" lon="3.0309">
        <ele>53.364991</ele>
        <time>2023-01-07T11:29:03.074Z</time>
      </trkpt>
      <trkpt lat="43.21208" lon="3.03098">
        <ele>53.360114</ele>
        <time>2023-01-07T11:29:05.070Z</time>
      </trkpt>
      <trkpt lat="43.21218" lon="3.0311">
        <ele>53.35309</ele>
        <time>2023-01-07T11:29:08.075Z</time>
      </trkpt>
      <trkpt lat="43.21225" lon="3.03119">
        <ele>53.347816</ele>
        <time>2023-01-07T11:29:10.065Z</time>
      </trkpt>
      <trkpt lat="43.21232" lon="3.03127">
        <ele>53.342963</ele>
        <time>2023-01-07T11:29:12.064Z</time>
      </trkpt>
      <trkpt lat="43.21243" lon="3.03139">
        <ele>53.375593</ele>
        <time>2023-01-07T11:29:15.066Z</time>
      </trkpt>
      <trkpt lat="43.21251" lon="3.03149">
        <ele>53.400753</ele>
        <time>2023-01-07T11:29:17.064Z</time>
      </trkpt>
      <trkpt lat="43.21258" lon="3.03157">
        <ele>53.424878</ele>
        <time>2023-01-07T11:29:19.074Z</time>
      </trkpt>
      <trkpt lat="43.21265" lon="3.03166">
        <ele>53.447579</ele>
        <time>2023-01-07T11:29:21.073Z</time>
      </trkpt>
      <trkpt lat="43.21272" lon="3.03174">
        <ele>53.469818</ele>
        <time>2023-01-07T11:29:23.060Z</time>
      </trkpt>
      <trkpt lat="43.21282" lon="3.03186">
        <ele>53.502001</ele>
        <time>2023-01-07T11:29:26.075Z</time>
      </trkpt>
      <trkpt lat="43.21289" lon="3.03194">
        <ele>53.524771</ele>
        <time>2023-01-07T11:29:28.075Z</time>
      </trkpt>
      <trkpt lat="43.21299" lon="3.03206">
        <ele>53.557085</ele>
        <time>2023-01-07T11:29:31.074Z</time>
      </trkpt>
      <trkpt lat="43.21309" lon="3.03218">
        <ele>53.589331</ele>
        <time>2023-01-07T11:29:34.067Z</time>
      </trkpt>
      <trkpt lat="43.21319" lon="3.0323">
        <ele>53.620974</ele>
        <time>2023-01-07T11:29:37.069Z</time>
      </trkpt>
      <trkpt lat="43.21329" lon="3.03242">
        <ele>53.653773</ele>
        <time>2023-01-07T11:29:40.064Z</time>
      </trkpt>
      <trkpt lat="43.21339" lon="3.03254">
        <ele>53.686573</ele>
        <time>2023-01-07T11:29:43.064Z</time>
      </trkpt>
      <trkpt lat="43.21349" lon="3.03266">
        <ele>53.719187</ele>
        <time>2023-01-07T11:29:46.071Z</time>
      </trkpt>
      <trkpt lat="43.21359" lon="3.03278">
        <ele>53.751153</ele>
        <time>2023-01-07T11:29:49.086Z</time>
      </trkpt>
      <trkpt lat="43.21369" lon="3.03289">
        <ele>53.779848</ele>
        <time>2023-01-07T11:29:52.082Z</time>
      </trkpt>
      <trkpt lat="43.21379" lon="3.03302">
        <ele>53.717225</ele>
        <time>2023-01-07T11:29:55.079Z</time>
      </trkpt>
      <trkpt lat="43.21386" lon="3.0331">
        <ele>53.673806</ele>
        <time>2023-01-07T11:29:57.067Z</time>
      </trkpt>
      <trkpt lat="43.21393" lon="3.03318">
        <ele>53.632263</ele>
        <time>2023-01-07T11:29:59.064Z</time>
      </trkpt>
      <trkpt lat="43.214" lon="3.03326">
        <ele>53.59055</ele>
        <time>2023-01-07T11:30:01.074Z</time>
      </trkpt>
      <trkpt lat="43.21407" lon="3.03334">
        <ele>53.548664</ele>
        <time>2023-01-07T11:30:03.074Z</time>
      </trkpt>
      <trkpt lat="43.21416" lon="3.03345">
        <ele>53.494783</ele>
        <time>2023-01-07T11:30:06.077Z</time>
      </trkpt>
      <trkpt lat="43.21424" lon="3.03355">
        <ele>53.44596</ele>
        <time>2023-01-07T11:30:09.064Z</time>
      </trkpt>
      <trkpt lat="43.21431" lon="3.03364">
        <ele>53.39796</ele>
        <time>2023-01-07T11:30:12.076Z</time>
      </trkpt>
      <trkpt lat="43.21439" lon="3.03374">
        <ele>53.34838</ele>
        <time>2023-01-07T11:30:15.078Z</time>
      </trkpt>
      <trkpt lat="43.21447" lon="3.03384">
        <ele>53.299919</ele>
        <time>2023-01-07T11:30:18.069Z</time>
      </trkpt>
      <trkpt lat="43.21456" lon="3.03395">
        <ele>53.243192</ele>
        <time>2023-01-07T11:30:21.074Z</time>
      </trkpt>
      <trkpt lat="43.21465" lon="3.03406">
        <ele>53.187498</ele>
        <time>2023-01-07T11:30:24.077Z</time>
      </trkpt>
      <trkpt lat="43.21475" lon="3.03417">
        <ele>53.129015</ele>
        <time>2023-01-07T11:30:27.081Z</time>
      </trkpt>
      <trkpt lat="43.21485" lon="3.03429">
        <ele>53.067965</ele>
        <time>2023-01-07T11:30:30.076Z</time>
      </trkpt>
      <trkpt lat="43.21495" lon="3.03441">
        <ele>53.007179</ele>
        <time>2023-01-07T11:30:33.074Z</time>
      </trkpt>
      <trkpt lat="43.21502" lon="3.03449">
        <ele>52.965466</ele>
        <time>2023-01-07T11:30:35.075Z</time>
      </trkpt>
      <trkpt lat="43.21509" lon="3.03457">
        <ele>52.983014</ele>
        <time>2023-01-07T11:30:37.080Z</time>
      </trkpt>
      <trkpt lat="43.21519" lon="3.03469">
        <ele>53.042336</ele>
        <time>2023-01-07T11:30:40.069Z</time>
      </trkpt>
      <trkpt lat="43.21526" lon="3.03478">
        <ele>53.085082</ele>
        <time>2023-01-07T11:30:42.072Z</time>
      </trkpt>
      <trkpt lat="43.21537" lon="3.0349">
        <ele>53.145951</ele>
        <time>2023-01-07T11:30:45.073Z</time>
      </trkpt>
      <trkpt lat="43.21544" lon="3.03499">
        <ele>53.187391</ele>
        <time>2023-01-07T11:30:47.074Z</time>
      </trkpt>
      <trkpt lat="43.21551" lon="3.03507">
        <ele>53.228608</ele>
        <time>2023-01-07T11:30:49.072Z</time>
      </trkpt>
      <trkpt lat="43.21558" lon="3.03514">
        <ele>53.26893</ele>
        <time>2023-01-07T11:30:51.081Z</time>
      </trkpt>
      <trkpt lat="43.21568" lon="3.03526">
        <ele>53.325739</ele>
        <time>2023-01-07T11:30:54.080Z</time>
      </trkpt>
      <trkpt lat="43.21574" lon="3.03535">
        <ele>53.365973</ele>
        <time>2023-01-07T11:30:56.072Z</time>
      </trkpt>
      <trkpt lat="43.21581" lon="3.03543">
        <ele>53.407959</ele>
        <time>2023-01-07T11:30:58.083Z</time>
      </trkpt>
      <trkpt lat="43.21588" lon="3.03551">
        <ele>53.448092</ele>
        <time>2023-01-07T11:31:00.073Z</time>
      </trkpt>
      <trkpt lat="43.21595" lon="3.0356">
        <ele>53.488986</ele>
        <time>2023-01-07T11:31:02.069Z</time>
      </trkpt>
      <trkpt lat="43.21605" lon="3.03572">
        <ele>53.548201</ele>
        <time>2023-01-07T11:31:05.072Z</time>
      </trkpt>
      <trkpt lat="43.21615" lon="3.03585">
        <ele>53.607299</ele>
        <time>2023-01-07T11:31:08.072Z</time>
      </trkpt>
      <trkpt lat="43.21622" lon="3.03593">
        <ele>53.648234</ele>
        <time>2023-01-07T11:31:10.077Z</time>
      </trkpt>
      <trkpt lat="43.21629" lon="3.03601">
        <ele>53.689854</ele>
        <time>2023-01-07T11:31:12.076Z</time>
      </trkpt>
      <trkpt lat="43.21638" lon="3.03613">
        <ele>53.747981</ele>
        <time>2023-01-07T11:31:15.072Z</time>
      </trkpt>
      <trkpt lat="43.21648" lon="3.03624">
        <ele>53.807249</ele>
        <time>2023-01-07T11:31:18.078Z</time>
      </trkpt>
      <trkpt lat="43.21658" lon="3.03636">
        <ele>53.868802</ele>
        <time>2023-01-07T11:31:21.074Z</time>
      </trkpt>
      <trkpt lat="43.21669" lon="3.03648">
        <ele>53.931999</ele>
        <time>2023-01-07T11:31:24.070Z</time>
      </trkpt>
      <trkpt lat="43.21679" lon="3.0366">
        <ele>53.992624</ele>
        <time>2023-01-07T11:31:27.068Z</time>
      </trkpt>
      <trkpt lat="43.21685" lon="3.03668">
        <ele>54.034873</ele>
        <time>2023-01-07T11:31:29.067Z</time>
      </trkpt>
      <trkpt lat="43.21695" lon="3.0368">
        <ele>54.094112</ele>
        <time>2023-01-07T11:31:32.073Z</time>
      </trkpt>
      <trkpt lat="43.21702" lon="3.03688">
        <ele>54.137998</ele>
        <time>2023-01-07T11:31:34.078Z</time>
      </trkpt>
      <trkpt lat="43.21712" lon="3.03699">
        <ele>54.196872</ele>
        <time>2023-01-07T11:31:37.071Z</time>
      </trkpt>
      <trkpt lat="43.21721" lon="3.03711">
        <ele>54.256123</ele>
        <time>2023-01-07T11:31:40.063Z</time>
      </trkpt>
      <trkpt lat="43.2173" lon="3.03722">
        <ele>54.311908</ele>
        <time>2023-01-07T11:31:43.067Z</time>
      </trkpt>
      <trkpt lat="43.21739" lon="3.03733">
        <ele>54.369483</ele>
        <time>2023-01-07T11:31:46.071Z</time>
      </trkpt>
      <trkpt lat="43.21748" lon="3.03744">
        <ele>54.426416</ele>
        <time>2023-01-07T11:31:49.086Z</time>
      </trkpt>
      <trkpt lat="43.21757" lon="3.03755">
        <ele>54.482439</ele>
        <time>2023-01-07T11:31:52.081Z</time>
      </trkpt>
      <trkpt lat="43.21767" lon="3.03766">
        <ele>54.538813</ele>
        <time>2023-01-07T11:31:55.065Z</time>
      </trkpt>
      <trkpt lat="43.21776" lon="3.03777">
        <ele>54.585442</ele>
        <time>2023-01-07T11:31:58.081Z</time>
      </trkpt>
      <trkpt lat="43.21785" lon="3.03789">
        <ele>54.53275</ele>
        <time>2023-01-07T11:32:01.080Z</time>
      </trkpt>
      <trkpt lat="43.21795" lon="3.03799">
        <ele>54.481199</ele>
        <time>2023-01-07T11:32:04.067Z</time>
      </trkpt>
      <trkpt lat="43.21805" lon="3.0381">
        <ele>54.42991</ele>
        <time>2023-01-07T11:32:07.082Z</time>
      </trkpt>
      <trkpt lat="43.21814" lon="3.03821">
        <ele>54.379636</ele>
        <time>2023-01-07T11:32:10.090Z</time>
      </trkpt>
      <trkpt lat="43.21823" lon="3.03833">
        <ele>54.327551</ele>
        <time>2023-01-07T11:32:13.083Z</time>
      </trkpt>
      <trkpt lat="43.21833" lon="3.03844">
        <ele>54.27437</ele>
        <time>2023-01-07T11:32:16.074Z</time>
      </trkpt>
      <trkpt lat="43.21843" lon="3.03856">
        <ele>54.219948</ele>
        <time>2023-01-07T11:32:19.086Z</time>
      </trkpt>
      <trkpt lat="43.21853" lon="3.03868">
        <ele>54.16643</ele>
        <time>2023-01-07T11:32:22.077Z</time>
      </trkpt>
      <trkpt lat="43.21863" lon="3.03879">
        <ele>54.113616</ele>
        <time>2023-01-07T11:32:25.071Z</time>
      </trkpt>
      <trkpt lat="43.21872" lon="3.0389">
        <ele>54.06221</ele>
        <time>2023-01-07T11:32:28.065Z</time>
      </trkpt>
      <trkpt lat="43.21882" lon="3.03902">
        <ele>54.010018</ele>
        <time>2023-01-07T11:32:31.075Z</time>
      </trkpt>
      <trkpt lat="43.21892" lon="3.03914">
        <ele>53.955794</ele>
        <time>2023-01-07T11:32:34.065Z</time>
      </trkpt>
      <trkpt lat="43.21902" lon="3.03926">
        <ele>53.899932</ele>
        <time>2023-01-07T11:32:37.078Z</time>
      </trkpt>
      <trkpt lat="43.21912" lon="3.03938">
        <ele>53.848012</ele>
        <time>2023-01-07T11:32:40.082Z</time>
      </trkpt>
      <trkpt lat="43.21921" lon="3.0395">
        <ele>53.814761</ele>
        <time>2023-01-07T11:32:43.083Z</time>
      </trkpt>
      <trkpt lat="43.21931" lon="3.03962">
        <ele>53.781322</ele>
        <time>2023-01-07T11:32:46.083Z</time>
      </trkpt>
      <trkpt lat="43.21942" lon="3.03974">
        <ele>53.748171</ele>
        <time>2023-01-07T11:32:49.083Z</time>
      </trkpt>
      <trkpt lat="43.21951" lon="3.03985">
        <ele>53.716218</ele>
        <time>2023-01-07T11:32:52.071Z</time>
      </trkpt>
      <trkpt lat="43.21961" lon="3.03997">
        <ele>53.684305</ele>
        <time>2023-01-07T11:32:55.078Z</time>
      </trkpt>
      <trkpt lat="43.2197" lon="3.04008">
        <ele>53.652968</ele>
        <time>2023-01-07T11:32:58.073Z</time>
      </trkpt>
      <trkpt lat="43.21979" lon="3.04019">
        <ele>53.622412</ele>
        <time>2023-01-07T11:33:01.085Z</time>
      </trkpt>
      <trkpt lat="43.21988" lon="3.0403">
        <ele>53.592679</ele>
        <time>2023-01-07T11:33:04.073Z</time>
      </trkpt>
      <trkpt lat="43.21996" lon="3.0404">
        <ele>53.564907</ele>
        <time>2023-01-07T11:33:07.075Z</time>
      </trkpt>
      <trkpt lat="43.22005" lon="3.0405">
        <ele>53.535631</ele>
        <time>2023-01-07T11:33:10.071Z</time>
      </trkpt>
      <trkpt lat="43.22014" lon="3.04061">
        <ele>53.506515</ele>
        <time>2023-01-07T11:33:13.094Z</time>
      </trkpt>
      <trkpt lat="43.22022" lon="3.04071">
        <ele>53.478074</ele>
        <time>2023-01-07T11:33:16.085Z</time>
      </trkpt>
      <trkpt lat="43.22031" lon="3.04082">
        <ele>53.448959</ele>
        <time>2023-01-07T11:33:19.080Z</time>
      </trkpt>
      <trkpt lat="43.22039" lon="3.04092">
        <ele>53.421386</ele>
        <time>2023-01-07T11:33:22.087Z</time>
      </trkpt>
      <trkpt lat="43.22047" lon="3.04102">
        <ele>53.406608</ele>
        <time>2023-01-07T11:33:25.070Z</time>
      </trkpt>
      <trkpt lat="43.22056" lon="3.04113">
        <ele>53.470704</ele>
        <time>2023-01-07T11:33:28.081Z</time>
      </trkpt>
      <trkpt lat="43.22066" lon="3.04123">
        <ele>53.533671</ele>
        <time>2023-01-07T11:33:31.086Z</time>
      </trkpt>
      <trkpt lat="43.22075" lon="3.04135">
        <ele>53.598239</ele>
        <time>2023-01-07T11:33:34.068Z</time>
      </trkpt>
      <trkpt lat="43.22084" lon="3.04146">
        <ele>53.662975</ele>
        <time>2023-01-07T11:33:37.073Z</time>
      </trkpt>
      <trkpt lat="43.22094" lon="3.04157">
        <ele>53.7257</ele>
        <time>2023-01-07T11:33:40.067Z</time>
      </trkpt>
      <trkpt lat="43.22103" lon="3.04167">
        <ele>53.788989</ele>
        <time>2023-01-07T11:33:43.067Z</time>
      </trkpt>
      <trkpt lat="43.22113" lon="3.04178">
        <ele>53.851714</ele>
        <time>2023-01-07T11:33:46.064Z</time>
      </trkpt>
      <trkpt lat="43.22122" lon="3.04189">
        <ele>53.917403</ele>
        <time>2023-01-07T11:33:49.061Z</time>
      </trkpt>
      <trkpt lat="43.22132" lon="3.042">
        <ele>53.98338</ele>
        <time>2023-01-07T11:33:52.066Z</time>
      </trkpt>
      <trkpt lat="43.22142" lon="3.04212">
        <ele>54.049642</ele>
        <time>2023-01-07T11:33:55.064Z</time>
      </trkpt>
      <trkpt lat="43.22151" lon="3.04222">
        <ele>54.113648</ele>
        <time>2023-01-07T11:33:58.073Z</time>
      </trkpt>
      <trkpt lat="43.2216" lon="3.04234">
        <ele>54.178727</ele>
        <time>2023-01-07T11:34:01.071Z</time>
      </trkpt>
      <trkpt lat="43.22169" lon="3.04245">
        <ele>54.242036</ele>
        <time>2023-01-07T11:34:04.071Z</time>
      </trkpt>
      <trkpt lat="43.22178" lon="3.04256">
        <ele>54.303082</ele>
        <time>2023-01-07T11:34:07.066Z</time>
      </trkpt>
      <trkpt lat="43.22187" lon="3.04267">
        <ele>54.328152</ele>
        <time>2023-01-07T11:34:10.065Z</time>
      </trkpt>
      <trkpt lat="43.22196" lon="3.04278">
        <ele>54.320852</ele>
        <time>2023-01-07T11:34:13.073Z</time>
      </trkpt>
      <trkpt lat="43.22205" lon="3.04288">
        <ele>54.313539</ele>
        <time>2023-01-07T11:34:16.081Z</time>
      </trkpt>
      <trkpt lat="43.22215" lon="3.04299">
        <ele>54.30631</ele>
        <time>2023-01-07T11:34:19.083Z</time>
      </trkpt>
      <trkpt lat="43.22224" lon="3.04309">
        <ele>54.299023</ele>
        <time>2023-01-07T11:34:22.072Z</time>
      </trkpt>
      <trkpt lat="43.22233" lon="3.0432">
        <ele>54.291485</ele>
        <time>2023-01-07T11:34:25.067Z</time>
      </trkpt>
      <trkpt lat="43.22243" lon="3.04332">
        <ele>54.283828</ele>
        <time>2023-01-07T11:34:28.083Z</time>
      </trkpt>
      <trkpt lat="43.22252" lon="3.04343">
        <ele>54.276075</ele>
        <time>2023-01-07T11:34:31.086Z</time>
      </trkpt>
      <trkpt lat="43.22262" lon="3.04355">
        <ele>54.268357</ele>
        <time>2023-01-07T11:34:34.077Z</time>
      </trkpt>
      <trkpt lat="43.22272" lon="3.04367">
        <ele>54.260388</ele>
        <time>2023-01-07T11:34:37.079Z</time>
      </trkpt>
      <trkpt lat="43.22278" lon="3.04375">
        <ele>54.254847</ele>
        <time>2023-01-07T11:34:39.085Z</time>
      </trkpt>
      <trkpt lat="43.22286" lon="3.04383">
        <ele>54.249311</ele>
        <time>2023-01-07T11:34:41.077Z</time>
      </trkpt>
      <trkpt lat="43.22296" lon="3.04396">
        <ele>54.241087</ele>
        <time>2023-01-07T11:34:44.079Z</time>
      </trkpt>
      <trkpt lat="43.22305" lon="3.04408">
        <ele>54.233177</ele>
        <time>2023-01-07T11:34:47.066Z</time>
      </trkpt>
      <trkpt lat="43.22316" lon="3.0442">
        <ele>54.224982</ele>
        <time>2023-01-07T11:34:50.081Z</time>
      </trkpt>
      <trkpt lat="43.22326" lon="3.04432">
        <ele>54.220945</ele>
        <time>2023-01-07T11:34:53.088Z</time>
      </trkpt>
      <trkpt lat="43.22336" lon="3.04444">
        <ele>54.218294</ele>
        <time>2023-01-07T11:34:56.079Z</time>
      </trkpt>
      <trkpt lat="43.22346" lon="3.04456">
        <ele>54.215609</ele>
        <time>2023-01-07T11:34:59.082Z</time>
      </trkpt>
      <trkpt lat="43.22356" lon="3.04469">
        <ele>54.212974</ele>
        <time>2023-01-07T11:35:02.081Z</time>
      </trkpt>
      <trkpt lat="43.22365" lon="3.0448">
        <ele>54.210496</ele>
        <time>2023-01-07T11:35:05.073Z</time>
      </trkpt>
      <trkpt lat="43.22372" lon="3.04488">
        <ele>54.208655</ele>
        <time>2023-01-07T11:35:07.073Z</time>
      </trkpt>
      <trkpt lat="43.22379" lon="3.04497">
        <ele>54.206807</ele>
        <time>2023-01-07T11:35:09.075Z</time>
      </trkpt>
      <trkpt lat="43.22386" lon="3.04505">
        <ele>54.205021</ele>
        <time>2023-01-07T11:35:11.075Z</time>
      </trkpt>
      <trkpt lat="43.22396" lon="3.04517">
        <ele>54.202415</ele>
        <time>2023-01-07T11:35:14.084Z</time>
      </trkpt>
      <trkpt lat="43.22403" lon="3.04525">
        <ele>54.200607</ele>
        <time>2023-01-07T11:35:16.068Z</time>
      </trkpt>
      <trkpt lat="43.22413" lon="3.04536">
        <ele>54.197921</ele>
        <time>2023-01-07T11:35:19.075Z</time>
      </trkpt>
      <trkpt lat="43.22422" lon="3.04548">
        <ele>54.195452</ele>
        <time>2023-01-07T11:35:22.060Z</time>
      </trkpt>
      <trkpt lat="43.22432" lon="3.0456">
        <ele>54.192887</ele>
        <time>2023-01-07T11:35:25.067Z</time>
      </trkpt>
      <trkpt lat="43.2244" lon="3.04567">
        <ele>54.191032</ele>
        <time>2023-01-07T11:35:27.073Z</time>
      </trkpt>
      <trkpt lat="43.22446" lon="3.04576">
        <ele>54.189223</ele>
        <time>2023-01-07T11:35:29.073Z</time>
      </trkpt>
      <trkpt lat="43.22456" lon="3.04587">
        <ele>54.147097</ele>
        <time>2023-01-07T11:35:32.083Z</time>
      </trkpt>
      <trkpt lat="43.22466" lon="3.046">
        <ele>53.983038</ele>
        <time>2023-01-07T11:35:35.085Z</time>
      </trkpt>
      <trkpt lat="43.22476" lon="3.04611">
        <ele>53.820779</ele>
        <time>2023-01-07T11:35:38.065Z</time>
      </trkpt>
      <trkpt lat="43.22485" lon="3.04622">
        <ele>53.666465</ele>
        <time>2023-01-07T11:35:41.078Z</time>
      </trkpt>
      <trkpt lat="43.22494" lon="3.04633">
        <ele>53.51618</ele>
        <time>2023-01-07T11:35:44.078Z</time>
      </trkpt>
      <trkpt lat="43.22504" lon="3.04645">
        <ele>53.35794</ele>
        <time>2023-01-07T11:35:47.087Z</time>
      </trkpt>
      <trkpt lat="43.22513" lon="3.04655">
        <ele>53.210469</ele>
        <time>2023-01-07T11:35:50.082Z</time>
      </trkpt>
      <trkpt lat="43.22521" lon="3.04666">
        <ele>53.062065</ele>
        <time>2023-01-07T11:35:53.065Z</time>
      </trkpt>
      <trkpt lat="43.2253" lon="3.04677">
        <ele>52.911224</ele>
        <time>2023-01-07T11:35:56.084Z</time>
      </trkpt>
      <trkpt lat="43.2254" lon="3.04689">
        <ele>52.751165</ele>
        <time>2023-01-07T11:35:59.076Z</time>
      </trkpt>
      <trkpt lat="43.2255" lon="3.04701">
        <ele>52.585473</ele>
        <time>2023-01-07T11:36:02.067Z</time>
      </trkpt>
      <trkpt lat="43.2256" lon="3.04713">
        <ele>52.422498</ele>
        <time>2023-01-07T11:36:05.077Z</time>
      </trkpt>
      <trkpt lat="43.2257" lon="3.04724">
        <ele>52.259888</ele>
        <time>2023-01-07T11:36:08.084Z</time>
      </trkpt>
      <trkpt lat="43.2258" lon="3.04736">
        <ele>52.097969</ele>
        <time>2023-01-07T11:36:11.065Z</time>
      </trkpt>
      <trkpt lat="43.22589" lon="3.04748">
        <ele>51.93885</ele>
        <time>2023-01-07T11:36:14.066Z</time>
      </trkpt>
      <trkpt lat="43.22599" lon="3.0476">
        <ele>51.905544</ele>
        <time>2023-01-07T11:36:17.065Z</time>
      </trkpt>
      <trkpt lat="43.22608" lon="3.04772">
        <ele>51.872745</ele>
        <time>2023-01-07T11:36:20.064Z</time>
      </trkpt>
      <trkpt lat="43.22619" lon="3.04784">
        <ele>51.837959</ele>
        <time>2023-01-07T11:36:23.087Z</time>
      </trkpt>
      <trkpt lat="43.22628" lon="3.04796">
        <ele>51.805476</ele>
        <time>2023-01-07T11:36:26.063Z</time>
      </trkpt>
      <trkpt lat="43.22638" lon="3.04807">
        <ele>51.771886</ele>
        <time>2023-01-07T11:36:29.080Z</time>
      </trkpt>
      <trkpt lat="43.22644" lon="3.04816">
        <ele>51.748428</ele>
        <time>2023-01-07T11:36:31.068Z</time>
      </trkpt>
      <trkpt lat="43.22652" lon="3.04824">
        <ele>51.7239</ele>
        <time>2023-01-07T11:36:33.082Z</time>
      </trkpt>
      <trkpt lat="43.22662" lon="3.04836">
        <ele>51.689313</ele>
        <time>2023-01-07T11:36:36.077Z</time>
      </trkpt>
      <trkpt lat="43.22669" lon="3.04844">
        <ele>51.665124</ele>
        <time>2023-01-07T11:36:38.079Z</time>
      </trkpt>
      <trkpt lat="43.22679" lon="3.04857">
        <ele>51.630866</ele>
        <time>2023-01-07T11:36:41.086Z</time>
      </trkpt>
      <trkpt lat="43.22687" lon="3.04864">
        <ele>51.606559</ele>
        <time>2023-01-07T11:36:43.084Z</time>
      </trkpt>
      <trkpt lat="43.22695" lon="3.04875">
        <ele>51.576608</ele>
        <time>2023-01-07T11:36:46.081Z</time>
      </trkpt>
      <trkpt lat="43.22704" lon="3.04885">
        <ele>51.54743</ele>
        <time>2023-01-07T11:36:49.084Z</time>
      </trkpt>
      <trkpt lat="43.22714" lon="3.04895">
        <ele>51.515739</ele>
        <time>2023-01-07T11:36:52.071Z</time>
      </trkpt>
      <trkpt lat="43.22723" lon="3.04907">
        <ele>51.484079</ele>
        <time>2023-01-07T11:36:55.080Z</time>
      </trkpt>
      <trkpt lat="43.22733" lon="3.04918">
        <ele>51.633817</ele>
        <time>2023-01-07T11:36:58.087Z</time>
      </trkpt>
      <trkpt lat="43.2274" lon="3.04926">
        <ele>51.767619</ele>
        <time>2023-01-07T11:37:00.082Z</time>
      </trkpt>
      <trkpt lat="43.22746" lon="3.04935">
        <ele>51.902045</ele>
        <time>2023-01-07T11:37:02.071Z</time>
      </trkpt>
      <trkpt lat="43.22757" lon="3.04946">
        <ele>52.092223</ele>
        <time>2023-01-07T11:37:05.084Z</time>
      </trkpt>
      <trkpt lat="43.22766" lon="3.04956">
        <ele>52.270162</ele>
        <time>2023-01-07T11:37:08.076Z</time>
      </trkpt>
      <trkpt lat="43.22774" lon="3.04967">
        <ele>52.441831</ele>
        <time>2023-01-07T11:37:11.061Z</time>
      </trkpt>
      <trkpt lat="43.22782" lon="3.04976">
        <ele>52.588211</ele>
        <time>2023-01-07T11:37:14.068Z</time>
      </trkpt>
      <trkpt lat="43.22789" lon="3.04983">
        <ele>52.724479</ele>
        <time>2023-01-07T11:37:17.064Z</time>
      </trkpt>
      <trkpt lat="43.22797" lon="3.04992">
        <ele>52.880226</ele>
        <time>2023-01-07T11:37:20.064Z</time>
      </trkpt>
      <trkpt lat="43.22804" lon="3.05002">
        <ele>53.021671</ele>
        <time>2023-01-07T11:37:23.069Z</time>
      </trkpt>
      <trkpt lat="43.22811" lon="3.05013">
        <ele>53.181466</ele>
        <time>2023-01-07T11:37:27.074Z</time>
      </trkpt>
      <trkpt lat="43.22818" lon="3.05022">
        <ele>53.321549</ele>
        <time>2023-01-07T11:37:33.061Z</time>
      </trkpt>
      <trkpt lat="43.22831" lon="3.05037">
        <ele>53.577695</ele>
        <time>2023-01-07T11:38:03.069Z</time>
      </trkpt>
      <trkpt lat="43.22839" lon="3.05045">
        <ele>53.722738</ele>
        <time>2023-01-07T11:38:06.071Z</time>
      </trkpt>
      <trkpt lat="43.22847" lon="3.05054">
        <ele>53.872997</ele>
        <time>2023-01-07T11:38:09.066Z</time>
      </trkpt>
      <trkpt lat="43.22855" lon="3.05065">
        <ele>54.043499</ele>
        <time>2023-01-07T11:38:12.076Z</time>
      </trkpt>
      <trkpt lat="43.22862" lon="3.05075">
        <ele>54.165395</ele>
        <time>2023-01-07T11:38:15.085Z</time>
      </trkpt>
      <trkpt lat="43.22869" lon="3.05084">
        <ele>54.22788</ele>
        <time>2023-01-07T11:38:18.082Z</time>
      </trkpt>
      <trkpt lat="43.22877" lon="3.05091">
        <ele>54.290402</ele>
        <time>2023-01-07T11:38:21.085Z</time>
      </trkpt>
      <trkpt lat="43.22886" lon="3.05101">
        <ele>54.360048</ele>
        <time>2023-01-07T11:38:24.082Z</time>
      </trkpt>
      <trkpt lat="43.22894" lon="3.05111">
        <ele>54.434202</ele>
        <time>2023-01-07T11:38:27.084Z</time>
      </trkpt>
      <trkpt lat="43.22903" lon="3.05121">
        <ele>54.507863</ele>
        <time>2023-01-07T11:38:30.073Z</time>
      </trkpt>
      <trkpt lat="43.22912" lon="3.05132">
        <ele>54.584369</ele>
        <time>2023-01-07T11:38:33.072Z</time>
      </trkpt>
      <trkpt lat="43.22921" lon="3.05143">
        <ele>54.661507</ele>
        <time>2023-01-07T11:38:36.076Z</time>
      </trkpt>
      <trkpt lat="43.2293" lon="3.05153">
        <ele>54.738153</ele>
        <time>2023-01-07T11:38:39.078Z</time>
      </trkpt>
      <trkpt lat="43.22939" lon="3.05163">
        <ele>54.812799</ele>
        <time>2023-01-07T11:38:42.068Z</time>
      </trkpt>
      <trkpt lat="43.22947" lon="3.05173">
        <ele>54.885485</ele>
        <time>2023-01-07T11:38:45.068Z</time>
      </trkpt>
      <trkpt lat="43.22956" lon="3.05184">
        <ele>54.960932</ele>
        <time>2023-01-07T11:38:48.072Z</time>
      </trkpt>
      <trkpt lat="43.22965" lon="3.05195">
        <ele>55.039388</ele>
        <time>2023-01-07T11:38:51.085Z</time>
      </trkpt>
      <trkpt lat="43.22975" lon="3.05206">
        <ele>55.123836</ele>
        <time>2023-01-07T11:38:54.078Z</time>
      </trkpt>
      <trkpt lat="43.22985" lon="3.05217">
        <ele>55.204691</ele>
        <time>2023-01-07T11:38:57.084Z</time>
      </trkpt>
      <trkpt lat="43.22995" lon="3.05228">
        <ele>55.28764</ele>
        <time>2023-01-07T11:39:00.071Z</time>
      </trkpt>
      <trkpt lat="43.23004" lon="3.0524">
        <ele>55.233503</ele>
        <time>2023-01-07T11:39:03.063Z</time>
      </trkpt>
      <trkpt lat="43.23013" lon="3.0525">
        <ele>55.149593</ele>
        <time>2023-01-07T11:39:06.080Z</time>
      </trkpt>
      <trkpt lat="43.23021" lon="3.05259">
        <ele>55.067212</ele>
        <time>2023-01-07T11:39:09.070Z</time>
      </trkpt>
      <trkpt lat="43.2303" lon="3.05269">
        <ele>54.979204</ele>
        <time>2023-01-07T11:39:12.088Z</time>
      </trkpt>
      <trkpt lat="43.23038" lon="3.05279">
        <ele>54.896945</ele>
        <time>2023-01-07T11:39:15.080Z</time>
      </trkpt>
      <trkpt lat="43.23048" lon="3.0529">
        <ele>54.802287</ele>
        <time>2023-01-07T11:39:18.066Z</time>
      </trkpt>
      <trkpt lat="43.23057" lon="3.05301">
        <ele>54.710022</ele>
        <time>2023-01-07T11:39:21.085Z</time>
      </trkpt>
      <trkpt lat="43.23064" lon="3.05309">
        <ele>54.641785</ele>
        <time>2023-01-07T11:39:23.079Z</time>
      </trkpt>
      <trkpt lat="43.23074" lon="3.0532">
        <ele>54.54594</ele>
        <time>2023-01-07T11:39:26.075Z</time>
      </trkpt>
      <trkpt lat="43.23084" lon="3.05331">
        <ele>54.447291</ele>
        <time>2023-01-07T11:39:29.080Z</time>
      </trkpt>
      <trkpt lat="43.23092" lon="3.05343">
        <ele>54.355782</ele>
        <time>2023-01-07T11:39:32.077Z</time>
      </trkpt>
      <trkpt lat="43.23102" lon="3.05353">
        <ele>54.260625</ele>
        <time>2023-01-07T11:39:35.086Z</time>
      </trkpt>
      <trkpt lat="43.23112" lon="3.05365">
        <ele>54.162221</ele>
        <time>2023-01-07T11:39:38.080Z</time>
      </trkpt>
      <trkpt lat="43.2312" lon="3.05376">
        <ele>54.074992</ele>
        <time>2023-01-07T11:39:41.077Z</time>
      </trkpt>
      <trkpt lat="43.23128" lon="3.05386">
        <ele>53.992056</ele>
        <time>2023-01-07T11:39:44.069Z</time>
      </trkpt>
      <trkpt lat="43.23137" lon="3.05398">
        <ele>54.052889</ele>
        <time>2023-01-07T11:39:47.066Z</time>
      </trkpt>
      <trkpt lat="43.23146" lon="3.05408">
        <ele>54.277483</ele>
        <time>2023-01-07T11:39:50.074Z</time>
      </trkpt>
      <trkpt lat="43.23154" lon="3.05418">
        <ele>54.486464</ele>
        <time>2023-01-07T11:39:53.080Z</time>
      </trkpt>
      <trkpt lat="43.23161" lon="3.05429">
        <ele>54.687746</ele>
        <time>2023-01-07T11:39:56.075Z</time>
      </trkpt>
      <trkpt lat="43.2317" lon="3.05438">
        <ele>54.897612</ele>
        <time>2023-01-07T11:39:59.079Z</time>
      </trkpt>
      <trkpt lat="43.23178" lon="3.05449">
        <ele>55.121274</ele>
        <time>2023-01-07T11:40:02.075Z</time>
      </trkpt>
      <trkpt lat="43.23188" lon="3.0546">
        <ele>55.356395</ele>
        <time>2023-01-07T11:40:05.078Z</time>
      </trkpt>
      <trkpt lat="43.23197" lon="3.0547">
        <ele>55.596532</ele>
        <time>2023-01-07T11:40:08.069Z</time>
      </trkpt>
      <trkpt lat="43.23207" lon="3.05481">
        <ele>55.830428</ele>
        <time>2023-01-07T11:40:11.080Z</time>
      </trkpt>
      <trkpt lat="43.23215" lon="3.05491">
        <ele>56.043551</ele>
        <time>2023-01-07T11:40:14.078Z</time>
      </trkpt>
      <trkpt lat="43.23224" lon="3.055">
        <ele>56.253183</ele>
        <time>2023-01-07T11:40:17.078Z</time>
      </trkpt>
      <trkpt lat="43.23232" lon="3.0551">
        <ele>56.472109</ele>
        <time>2023-01-07T11:40:20.068Z</time>
      </trkpt>
      <trkpt lat="43.23241" lon="3.05522">
        <ele>56.700479</ele>
        <time>2023-01-07T11:40:23.070Z</time>
      </trkpt>
      <trkpt lat="43.23251" lon="3.05531">
        <ele>56.931156</ele>
        <time>2023-01-07T11:40:26.070Z</time>
      </trkpt>
      <trkpt lat="43.2326" lon="3.05541">
        <ele>57.162677</ele>
        <time>2023-01-07T11:40:29.072Z</time>
      </trkpt>
      <trkpt lat="43.23269" lon="3.0555">
        <ele>57.372976</ele>
        <time>2023-01-07T11:40:32.066Z</time>
      </trkpt>
      <trkpt lat="43.23278" lon="3.0556">
        <ele>57.248355</ele>
        <time>2023-01-07T11:40:35.075Z</time>
      </trkpt>
      <trkpt lat="43.23286" lon="3.0557">
        <ele>57.071615</ele>
        <time>2023-01-07T11:40:38.072Z</time>
      </trkpt>
      <trkpt lat="43.23293" lon="3.05581">
        <ele>56.896356</ele>
        <time>2023-01-07T11:40:41.067Z</time>
      </trkpt>
      <trkpt lat="43.23302" lon="3.05592">
        <ele>56.719615</ele>
        <time>2023-01-07T11:40:44.076Z</time>
      </trkpt>
      <trkpt lat="43.23309" lon="3.05604">
        <ele>56.536919</ele>
        <time>2023-01-07T11:40:47.067Z</time>
      </trkpt>
      <trkpt lat="43.23319" lon="3.05613">
        <ele>56.358434</ele>
        <time>2023-01-07T11:40:50.075Z</time>
      </trkpt>
      <trkpt lat="43.23326" lon="3.05621">
        <ele>56.206049</ele>
        <time>2023-01-07T11:40:53.081Z</time>
      </trkpt>
      <trkpt lat="43.23327" lon="3.05636">
        <ele>56.04096</ele>
        <time>2023-01-07T11:40:58.067Z</time>
      </trkpt>
      <trkpt lat="43.23321" lon="3.05649">
        <ele>55.85581</ele>
        <time>2023-01-07T11:41:02.066Z</time>
      </trkpt>
      <trkpt lat="43.23316" lon="3.05661">
        <ele>55.690973</ele>
        <time>2023-01-07T11:41:05.076Z</time>
      </trkpt>
      <trkpt lat="43.23314" lon="3.05676">
        <ele>55.51636</ele>
        <time>2023-01-07T11:41:08.072Z</time>
      </trkpt>
      <trkpt lat="43.23308" lon="3.0569">
        <ele>55.333607</ele>
        <time>2023-01-07T11:41:11.064Z</time>
      </trkpt>
      <trkpt lat="43.23303" lon="3.05704">
        <ele>55.157662</ele>
        <time>2023-01-07T11:41:14.068Z</time>
      </trkpt>
      <trkpt lat="43.23298" lon="3.05717">
        <ele>54.991297</ele>
        <time>2023-01-07T11:41:17.066Z</time>
      </trkpt>
      <trkpt lat="43.2329" lon="3.05736">
        <ele>54.738807</ele>
        <time>2023-01-07T11:42:07.082Z</time>
      </trkpt>
      <trkpt lat="43.23287" lon="3.05748">
        <ele>54.586761</ele>
        <time>2023-01-07T11:42:10.082Z</time>
      </trkpt>
      <trkpt lat="43.23283" lon="3.05762">
        <ele>54.431642</ele>
        <time>2023-01-07T11:42:13.080Z</time>
      </trkpt>
      <trkpt lat="43.2328" lon="3.05776">
        <ele>54.272492</ele>
        <time>2023-01-07T11:42:16.079Z</time>
      </trkpt>
      <trkpt lat="43.23277" lon="3.05789">
        <ele>54.134421</ele>
        <time>2023-01-07T11:42:19.078Z</time>
      </trkpt>
      <trkpt lat="43.23278" lon="3.05805">
        <ele>53.970688</ele>
        <time>2023-01-07T11:42:23.067Z</time>
      </trkpt>
      <trkpt lat="43.23286" lon="3.05816">
        <ele>53.807518</ele>
        <time>2023-01-07T11:42:26.072Z</time>
      </trkpt>
      <trkpt lat="43.23295" lon="3.05826">
        <ele>53.63985</ele>
        <time>2023-01-07T11:42:29.086Z</time>
      </trkpt>
      <trkpt lat="43.23302" lon="3.05834">
        <ele>53.509145</ele>
        <time>2023-01-07T11:42:31.088Z</time>
      </trkpt>
      <trkpt lat="43.2331" lon="3.05842">
        <ele>53.369367</ele>
        <time>2023-01-07T11:42:33.072Z</time>
      </trkpt>
      <trkpt lat="43.23318" lon="3.05849">
        <ele>53.231989</ele>
        <time>2023-01-07T11:42:35.068Z</time>
      </trkpt>
      <trkpt lat="43.23325" lon="3.05857">
        <ele>53.104158</ele>
        <time>2023-01-07T11:42:37.079Z</time>
      </trkpt>
      <trkpt lat="43.23332" lon="3.05864">
        <ele>52.974268</ele>
        <time>2023-01-07T11:42:39.087Z</time>
      </trkpt>
      <trkpt lat="43.23341" lon="3.05873">
        <ele>52.816271</ele>
        <time>2023-01-07T11:42:42.079Z</time>
      </trkpt>
      <trkpt lat="43.23352" lon="3.05876">
        <ele>52.6605</ele>
        <time>2023-01-07T11:42:45.076Z</time>
      </trkpt>
      <trkpt lat="43.23363" lon="3.05877">
        <ele>52.502779</ele>
        <time>2023-01-07T11:42:48.077Z</time>
      </trkpt>
      <trkpt lat="43.23375" lon="3.05874">
        <ele>52.331874</ele>
        <time>2023-01-07T11:42:51.072Z</time>
      </trkpt>
      <trkpt lat="43.23384" lon="3.05872">
        <ele>52.191755</ele>
        <time>2023-01-07T11:42:54.074Z</time>
      </trkpt>
      <trkpt lat="43.23395" lon="3.05875">
        <ele>52.038122</ele>
        <time>2023-01-07T11:42:58.084Z</time>
      </trkpt>
      <trkpt lat="43.23397" lon="3.05888">
        <ele>52.149699</ele>
        <time>2023-01-07T11:43:01.079Z</time>
      </trkpt>
      <trkpt lat="43.23399" lon="3.05903">
        <ele>52.42777</ele>
        <time>2023-01-07T11:43:04.077Z</time>
      </trkpt>
      <trkpt lat="43.234" lon="3.05919">
        <ele>52.731171</ele>
        <time>2023-01-07T11:43:07.067Z</time>
      </trkpt>
      <trkpt lat="43.23402" lon="3.05936">
        <ele>53.037366</ele>
        <time>2023-01-07T11:43:10.070Z</time>
      </trkpt>
      <trkpt lat="43.23401" lon="3.05953">
        <ele>53.340919</ele>
        <time>2023-01-07T11:43:13.078Z</time>
      </trkpt>
      <trkpt lat="43.23399" lon="3.0597">
        <ele>53.653375</ele>
        <time>2023-01-07T11:43:16.082Z</time>
      </trkpt>
      <trkpt lat="43.23396" lon="3.05985">
        <ele>53.94476</ele>
        <time>2023-01-07T11:43:19.076Z</time>
      </trkpt>
      <trkpt lat="43.23392" lon="3.06002">
        <ele>54.263788</ele>
        <time>2023-01-07T11:43:22.075Z</time>
      </trkpt>
      <trkpt lat="43.23389" lon="3.06018">
        <ele>54.571081</ele>
        <time>2023-01-07T11:43:25.079Z</time>
      </trkpt>
      <trkpt lat="43.23386" lon="3.06035">
        <ele>54.882163</ele>
        <time>2023-01-07T11:43:28.065Z</time>
      </trkpt>
      <trkpt lat="43.23386" lon="3.06052">
        <ele>55.199899</ele>
        <time>2023-01-07T11:43:31.092Z</time>
      </trkpt>
      <trkpt lat="43.23386" lon="3.06065">
        <ele>55.442784</ele>
        <time>2023-01-07T11:43:34.074Z</time>
      </trkpt>
      <trkpt lat="43.23389" lon="3.06082">
        <ele>55.757244</ele>
        <time>2023-01-07T11:43:37.078Z</time>
      </trkpt>
      <trkpt lat="43.23391" lon="3.06095">
        <ele>55.996011</ele>
        <time>2023-01-07T11:43:39.067Z</time>
      </trkpt>
      <trkpt lat="43.23392" lon="3.06113">
        <ele>56.319339</ele>
        <time>2023-01-07T11:43:42.073Z</time>
      </trkpt>
      <trkpt lat="43.23394" lon="3.06125">
        <ele>56.458097</ele>
        <time>2023-01-07T11:43:44.082Z</time>
      </trkpt>
      <trkpt lat="43.23395" lon="3.06138">
        <ele>56.317606</ele>
        <time>2023-01-07T11:43:46.076Z</time>
      </trkpt>
      <trkpt lat="43.23396" lon="3.06156">
        <ele>56.116669</ele>
        <time>2023-01-07T11:43:49.070Z</time>
      </trkpt>
      <trkpt lat="43.23397" lon="3.06169">
        <ele>55.971457</ele>
        <time>2023-01-07T11:43:51.066Z</time>
      </trkpt>
      <trkpt lat="43.23397" lon="3.06182">
        <ele>55.829561</ele>
        <time>2023-01-07T11:43:53.082Z</time>
      </trkpt>
      <trkpt lat="43.23397" lon="3.06196">
        <ele>55.675625</ele>
        <time>2023-01-07T11:43:55.074Z</time>
      </trkpt>
      <trkpt lat="43.23397" lon="3.06214">
        <ele>55.471942</ele>
        <time>2023-01-07T11:43:58.083Z</time>
      </trkpt>
      <trkpt lat="43.23397" lon="3.06233">
        <ele>55.267147</ele>
        <time>2023-01-07T11:44:01.079Z</time>
      </trkpt>
      <trkpt lat="43.23397" lon="3.06245">
        <ele>55.128643</ele>
        <time>2023-01-07T11:44:03.089Z</time>
      </trkpt>
      <trkpt lat="43.23399" lon="3.06259">
        <ele>54.974796</ele>
        <time>2023-01-07T11:44:05.075Z</time>
      </trkpt>
      <trkpt lat="43.234" lon="3.06272">
        <ele>54.82968</ele>
        <time>2023-01-07T11:44:07.089Z</time>
      </trkpt>
      <trkpt lat="43.23403" lon="3.06285">
        <ele>54.678706</ele>
        <time>2023-01-07T11:44:09.075Z</time>
      </trkpt>
      <trkpt lat="43.23405" lon="3.06298">
        <ele>54.534917</ele>
        <time>2023-01-07T11:44:11.074Z</time>
      </trkpt>
      <trkpt lat="43.23407" lon="3.0631">
        <ele>54.39527</ele>
        <time>2023-01-07T11:44:13.070Z</time>
      </trkpt>
      <trkpt lat="43.23412" lon="3.06327">
        <ele>54.197635</ele>
        <time>2023-01-07T11:44:16.082Z</time>
      </trkpt>
      <trkpt lat="43.23415" lon="3.0634">
        <ele>54.038392</ele>
        <time>2023-01-07T11:44:19.064Z</time>
      </trkpt>
      <trkpt lat="43.23418" lon="3.06355">
        <ele>53.864496</ele>
        <time>2023-01-07T11:44:22.067Z</time>
      </trkpt>
      <trkpt lat="43.23423" lon="3.06371">
        <ele>53.677255</ele>
        <time>2023-01-07T11:44:25.073Z</time>
      </trkpt>
      <trkpt lat="43.23427" lon="3.06385">
        <ele>53.509476</ele>
        <time>2023-01-07T11:44:28.088Z</time>
      </trkpt>
      <trkpt lat="43.2343" lon="3.06399">
        <ele>53.338535</ele>
        <time>2023-01-07T11:44:31.077Z</time>
      </trkpt>
      <trkpt lat="43.23433" lon="3.06413">
        <ele>53.170651</ele>
        <time>2023-01-07T11:44:34.078Z</time>
      </trkpt>
      <trkpt lat="43.23433" lon="3.06428">
        <ele>53.009506</ele>
        <time>2023-01-07T11:44:37.067Z</time>
      </trkpt>
      <trkpt lat="43.23434" lon="3.06443">
        <ele>52.832825</ele>
        <time>2023-01-07T11:44:40.078Z</time>
      </trkpt>
      <trkpt lat="43.23435" lon="3.06457">
        <ele>52.674992</ele>
        <time>2023-01-07T11:44:43.084Z</time>
      </trkpt>
      <trkpt lat="43.23434" lon="3.0647">
        <ele>52.528638</ele>
        <time>2023-01-07T11:44:47.082Z</time>
      </trkpt>
      <trkpt lat="43.23435" lon="3.0649">
        <ele>52.302638</ele>
        <time>2023-01-07T11:45:30.073Z</time>
      </trkpt>
      <trkpt lat="43.23437" lon="3.06506">
        <ele>52.12128</ele>
        <time>2023-01-07T11:45:34.066Z</time>
      </trkpt>
      <trkpt lat="43.23437" lon="3.06519">
        <ele>51.968882</ele>
        <time>2023-01-07T11:45:37.071Z</time>
      </trkpt>
      <trkpt lat="43.23438" lon="3.06533">
        <ele>51.808688</ele>
        <time>2023-01-07T11:45:40.064Z</time>
      </trkpt>
      <trkpt lat="43.23439" lon="3.06549">
        <ele>51.634018</ele>
        <time>2023-01-07T11:45:43.066Z</time>
      </trkpt>
      <trkpt lat="43.23439" lon="3.06565">
        <ele>51.452492</ele>
        <time>2023-01-07T11:45:46.069Z</time>
      </trkpt>
      <trkpt lat="43.2344" lon="3.06581">
        <ele>51.269198</ele>
        <time>2023-01-07T11:45:49.072Z</time>
      </trkpt>
      <trkpt lat="43.2344" lon="3.06597">
        <ele>51.090105</ele>
        <time>2023-01-07T11:45:52.065Z</time>
      </trkpt>
      <trkpt lat="43.23441" lon="3.06613">
        <ele>51.005394</ele>
        <time>2023-01-07T11:45:55.084Z</time>
      </trkpt>
      <trkpt lat="43.23441" lon="3.0663">
        <ele>51.128213</ele>
        <time>2023-01-07T11:45:58.075Z</time>
      </trkpt>
      <trkpt lat="43.23441" lon="3.06647">
        <ele>51.252524</ele>
        <time>2023-01-07T11:46:01.077Z</time>
      </trkpt>
      <trkpt lat="43.23442" lon="3.06664">
        <ele>51.377892</ele>
        <time>2023-01-07T11:46:04.076Z</time>
      </trkpt>
      <trkpt lat="43.23443" lon="3.06681">
        <ele>51.502601</ele>
        <time>2023-01-07T11:46:07.074Z</time>
      </trkpt>
      <trkpt lat="43.23443" lon="3.06698">
        <ele>51.63283</ele>
        <time>2023-01-07T11:46:10.069Z</time>
      </trkpt>
      <trkpt lat="43.23439" lon="3.06715">
        <ele>51.760849</ele>
        <time>2023-01-07T11:46:13.077Z</time>
      </trkpt>
      <trkpt lat="43.23436" lon="3.06732">
        <ele>51.891118</ele>
        <time>2023-01-07T11:46:16.086Z</time>
      </trkpt>
      <trkpt lat="43.23429" lon="3.06747">
        <ele>52.02</ele>
        <time>2023-01-07T11:46:19.075Z</time>
      </trkpt>
      <trkpt lat="43.23423" lon="3.06762">
        <ele>52.149529</ele>
        <time>2023-01-07T11:46:22.085Z</time>
      </trkpt>
      <trkpt lat="43.23416" lon="3.06777">
        <ele>52.278172</ele>
        <time>2023-01-07T11:46:25.088Z</time>
      </trkpt>
      <trkpt lat="43.23408" lon="3.06791">
        <ele>52.412722</ele>
        <time>2023-01-07T11:46:28.078Z</time>
      </trkpt>
      <trkpt lat="43.23404" lon="3.06802">
        <ele>52.50378</ele>
        <time>2023-01-07T11:46:30.074Z</time>
      </trkpt>
      <trkpt lat="43.23399" lon="3.06813">
        <ele>52.595698</ele>
        <time>2023-01-07T11:46:32.079Z</time>
      </trkpt>
      <trkpt lat="43.23393" lon="3.06828">
        <ele>52.725586</ele>
        <time>2023-01-07T11:46:35.083Z</time>
      </trkpt>
      <trkpt lat="43.23387" lon="3.06844">
        <ele>52.833895</ele>
        <time>2023-01-07T11:46:38.076Z</time>
      </trkpt>
      <trkpt lat="43.23381" lon="3.06861">
        <ele>52.920251</ele>
        <time>2023-01-07T11:46:41.075Z</time>
      </trkpt>
      <trkpt lat="43.23378" lon="3.06873">
        <ele>52.979423</ele>
        <time>2023-01-07T11:46:43.079Z</time>
      </trkpt>
      <trkpt lat="43.23373" lon="3.0689">
        <ele>53.06158</ele>
        <time>2023-01-07T11:46:46.088Z</time>
      </trkpt>
      <trkpt lat="43.23369" lon="3.06907">
        <ele>53.144639</ele>
        <time>2023-01-07T11:46:49.087Z</time>
      </trkpt>
      <trkpt lat="43.23366" lon="3.06924">
        <ele>53.224695</ele>
        <time>2023-01-07T11:46:52.070Z</time>
      </trkpt>
      <trkpt lat="43.23363" lon="3.06941">
        <ele>53.305565</ele>
        <time>2023-01-07T11:46:55.089Z</time>
      </trkpt>
      <trkpt lat="43.23362" lon="3.06953">
        <ele>53.362637</ele>
        <time>2023-01-07T11:46:57.077Z</time>
      </trkpt>
      <trkpt lat="43.23359" lon="3.06971">
        <ele>53.446235</ele>
        <time>2023-01-07T11:47:00.076Z</time>
      </trkpt>
      <trkpt lat="43.23357" lon="3.06989">
        <ele>53.530847</ele>
        <time>2023-01-07T11:47:03.083Z</time>
      </trkpt>
      <trkpt lat="43.23354" lon="3.07007">
        <ele>53.615262</ele>
        <time>2023-01-07T11:47:06.071Z</time>
      </trkpt>
      <trkpt lat="43.23351" lon="3.07025">
        <ele>53.699648</ele>
        <time>2023-01-07T11:47:09.089Z</time>
      </trkpt>
      <trkpt lat="43.2335" lon="3.07037">
        <ele>53.756956</ele>
        <time>2023-01-07T11:47:11.094Z</time>
      </trkpt>
      <trkpt lat="43.23348" lon="3.0705">
        <ele>53.818423</ele>
        <time>2023-01-07T11:47:13.069Z</time>
      </trkpt>
      <trkpt lat="43.23345" lon="3.07062">
        <ele>53.877136</ele>
        <time>2023-01-07T11:47:15.075Z</time>
      </trkpt>
      <trkpt lat="43.23344" lon="3.07075">
        <ele>53.937907</ele>
        <time>2023-01-07T11:47:17.085Z</time>
      </trkpt>
      <trkpt lat="43.23342" lon="3.07087">
        <ele>53.999688</ele>
        <time>2023-01-07T11:47:19.087Z</time>
      </trkpt>
      <trkpt lat="43.23339" lon="3.07105">
        <ele>54.08869</ele>
        <time>2023-01-07T11:47:22.084Z</time>
      </trkpt>
      <trkpt lat="43.23336" lon="3.07122">
        <ele>54.173687</ele>
        <time>2023-01-07T11:47:25.085Z</time>
      </trkpt>
      <trkpt lat="43.23334" lon="3.07139">
        <ele>54.261055</ele>
        <time>2023-01-07T11:47:28.065Z</time>
      </trkpt>
      <trkpt lat="43.23332" lon="3.07157">
        <ele>54.350239</ele>
        <time>2023-01-07T11:47:31.081Z</time>
      </trkpt>
      <trkpt lat="43.23331" lon="3.07175">
        <ele>54.437361</ele>
        <time>2023-01-07T11:47:34.067Z</time>
      </trkpt>
      <trkpt lat="43.23331" lon="3.07193">
        <ele>54.52833</ele>
        <time>2023-01-07T11:47:37.084Z</time>
      </trkpt>
      <trkpt lat="43.23331" lon="3.0721">
        <ele>54.612813</ele>
        <time>2023-01-07T11:47:40.079Z</time>
      </trkpt>
      <trkpt lat="43.23333" lon="3.07224">
        <ele>54.686109</ele>
        <time>2023-01-07T11:47:43.076Z</time>
      </trkpt>
      <trkpt lat="43.23335" lon="3.07239">
        <ele>54.756717</ele>
        <time>2023-01-07T11:47:46.083Z</time>
      </trkpt>
      <trkpt lat="43.23338" lon="3.07252">
        <ele>54.826973</ele>
        <time>2023-01-07T11:47:49.075Z</time>
      </trkpt>
      <trkpt lat="43.23341" lon="3.07265">
        <ele>54.895022</ele>
        <time>2023-01-07T11:47:52.082Z</time>
      </trkpt>
      <trkpt lat="43.23343" lon="3.07279">
        <ele>54.966094</ele>
        <time>2023-01-07T11:47:55.074Z</time>
      </trkpt>
      <trkpt lat="43.23345" lon="3.07292">
        <ele>55.030015</ele>
        <time>2023-01-07T11:47:58.087Z</time>
      </trkpt>
      <trkpt lat="43.23346" lon="3.07306">
        <ele>55.099887</ele>
        <time>2023-01-07T11:48:01.085Z</time>
      </trkpt>
      <trkpt lat="43.23345" lon="3.07322">
        <ele>55.22671</ele>
        <time>2023-01-07T11:48:04.066Z</time>
      </trkpt>
      <trkpt lat="43.23344" lon="3.07337">
        <ele>55.441063</ele>
        <time>2023-01-07T11:48:07.084Z</time>
      </trkpt>
      <trkpt lat="43.23343" lon="3.07352">
        <ele>55.649152</ele>
        <time>2023-01-07T11:48:10.072Z</time>
      </trkpt>
      <trkpt lat="43.23342" lon="3.07368">
        <ele>55.866518</ele>
        <time>2023-01-07T11:48:13.068Z</time>
      </trkpt>
      <trkpt lat="43.23342" lon="3.07384">
        <ele>56.086137</ele>
        <time>2023-01-07T11:48:16.079Z</time>
      </trkpt>
      <trkpt lat="43.23342" lon="3.074">
        <ele>56.311339</ele>
        <time>2023-01-07T11:48:19.080Z</time>
      </trkpt>
      <trkpt lat="43.23341" lon="3.07416">
        <ele>56.525735</ele>
        <time>2023-01-07T11:48:22.084Z</time>
      </trkpt>
      <trkpt lat="43.23342" lon="3.07431">
        <ele>56.732638</ele>
        <time>2023-01-07T11:48:25.072Z</time>
      </trkpt>
      <trkpt lat="43.23342" lon="3.07446">
        <ele>56.933046</ele>
        <time>2023-01-07T11:48:28.069Z</time>
      </trkpt>
      <trkpt lat="43.23342" lon="3.07461">
        <ele>57.143102</ele>
        <time>2023-01-07T11:48:31.079Z</time>
      </trkpt>
      <trkpt lat="43.23342" lon="3.07477">
        <ele>57.364094</ele>
        <time>2023-01-07T11:48:34.070Z</time>
      </trkpt>
      <trkpt lat="43.23343" lon="3.07493">
        <ele>57.578323</ele>
        <time>2023-01-07T11:48:37.079Z</time>
      </trkpt>
      <trkpt lat="43.23343" lon="3.07507">
        <ele>57.778705</ele>
        <time>2023-01-07T11:48:40.077Z</time>
      </trkpt>
      <trkpt lat="43.23342" lon="3.07523">
        <ele>57.992836</ele>
        <time>2023-01-07T11:48:43.073Z</time>
      </trkpt>
      <trkpt lat="43.23342" lon="3.07538">
        <ele>58.208314</ele>
        <time>2023-01-07T11:48:46.081Z</time>
      </trkpt>
      <trkpt lat="43.23343" lon="3.07554">
        <ele>58.422485</ele>
        <time>2023-01-07T11:48:49.077Z</time>
      </trkpt>
      <trkpt lat="43.23343" lon="3.07569">
        <ele>58.51884</ele>
        <time>2023-01-07T11:48:52.078Z</time>
      </trkpt>
      <trkpt lat="43.23343" lon="3.07585">
        <ele>58.481522</ele>
        <time>2023-01-07T11:48:55.089Z</time>
      </trkpt>
      <trkpt lat="43.23343" lon="3.076">
        <ele>58.44493</ele>
        <time>2023-01-07T11:48:58.085Z</time>
      </trkpt>
      <trkpt lat="43.23344" lon="3.07616">
        <ele>58.406824</ele>
        <time>2023-01-07T11:49:01.085Z</time>
      </trkpt>
      <trkpt lat="43.23344" lon="3.07632">
        <ele>58.368754</ele>
        <time>2023-01-07T11:49:04.069Z</time>
      </trkpt>
      <trkpt lat="43.23345" lon="3.07647">
        <ele>58.33262</ele>
        <time>2023-01-07T11:49:07.076Z</time>
      </trkpt>
      <trkpt lat="43.23345" lon="3.07662">
        <ele>58.294825</ele>
        <time>2023-01-07T11:49:10.075Z</time>
      </trkpt>
      <trkpt lat="43.23344" lon="3.07678">
        <ele>58.256547</ele>
        <time>2023-01-07T11:49:13.078Z</time>
      </trkpt>
      <trkpt lat="43.23344" lon="3.07694">
        <ele>58.217544</ele>
        <time>2023-01-07T11:49:16.078Z</time>
      </trkpt>
      <trkpt lat="43.23343" lon="3.0771">
        <ele>58.179096</ele>
        <time>2023-01-07T11:49:19.083Z</time>
      </trkpt>
      <trkpt lat="43.23342" lon="3.07726">
        <ele>58.140438</ele>
        <time>2023-01-07T11:49:22.072Z</time>
      </trkpt>
      <trkpt lat="43.23341" lon="3.07743">
        <ele>58.10045</ele>
        <time>2023-01-07T11:49:25.084Z</time>
      </trkpt>
      <trkpt lat="43.23339" lon="3.07759">
        <ele>58.059891</ele>
        <time>2023-01-07T11:49:28.083Z</time>
      </trkpt>
      <trkpt lat="43.23336" lon="3.07776">
        <ele>58.019031</ele>
        <time>2023-01-07T11:49:31.075Z</time>
      </trkpt>
      <trkpt lat="43.23333" lon="3.07792">
        <ele>57.979639</ele>
        <time>2023-01-07T11:49:34.084Z</time>
      </trkpt>
      <trkpt lat="43.2333" lon="3.07807">
        <ele>57.9415</ele>
        <time>2023-01-07T11:49:37.078Z</time>
      </trkpt>
      <trkpt lat="43.23327" lon="3.07824">
        <ele>57.913769</ele>
        <time>2023-01-07T11:49:40.082Z</time>
      </trkpt>
      <trkpt lat="43.23325" lon="3.07841">
        <ele>57.885789</ele>
        <time>2023-01-07T11:49:43.084Z</time>
      </trkpt>
      <trkpt lat="43.23322" lon="3.07857">
        <ele>57.858687</ele>
        <time>2023-01-07T11:49:46.072Z</time>
      </trkpt>
      <trkpt lat="43.23319" lon="3.07872">
        <ele>57.832802</ele>
        <time>2023-01-07T11:49:49.073Z</time>
      </trkpt>
      <trkpt lat="43.23317" lon="3.07887">
        <ele>57.808602</ele>
        <time>2023-01-07T11:49:52.080Z</time>
      </trkpt>
      <trkpt lat="43.23315" lon="3.079">
        <ele>57.787138</ele>
        <time>2023-01-07T11:49:55.070Z</time>
      </trkpt>
      <trkpt lat="43.23313" lon="3.07913">
        <ele>57.764206</ele>
        <time>2023-01-07T11:49:58.073Z</time>
      </trkpt>
      <trkpt lat="43.2331" lon="3.07927">
        <ele>57.740612</ele>
        <time>2023-01-07T11:50:01.081Z</time>
      </trkpt>
      <trkpt lat="43.23308" lon="3.07941">
        <ele>57.717509</ele>
        <time>2023-01-07T11:50:04.090Z</time>
      </trkpt>
      <trkpt lat="43.23305" lon="3.07955">
        <ele>57.693882</ele>
        <time>2023-01-07T11:50:07.068Z</time>
      </trkpt>
      <trkpt lat="43.23303" lon="3.0797">
        <ele>57.669139</ele>
        <time>2023-01-07T11:50:10.076Z</time>
      </trkpt>
      <trkpt lat="43.233" lon="3.07985">
        <ele>57.644304</ele>
        <time>2023-01-07T11:50:13.070Z</time>
      </trkpt>
      <trkpt lat="43.23298" lon="3.07999">
        <ele>57.621155</ele>
        <time>2023-01-07T11:50:16.078Z</time>
      </trkpt>
      <trkpt lat="43.23296" lon="3.08013">
        <ele>57.597892</ele>
        <time>2023-01-07T11:50:19.069Z</time>
      </trkpt>
      <trkpt lat="43.23293" lon="3.08027">
        <ele>57.574852</ele>
        <time>2023-01-07T11:50:22.075Z</time>
      </trkpt>
      <trkpt lat="43.23291" lon="3.0804">
        <ele>57.55192</ele>
        <time>2023-01-07T11:50:25.068Z</time>
      </trkpt>
      <trkpt lat="43.23289" lon="3.08053">
        <ele>57.78676</ele>
        <time>2023-01-07T11:50:28.082Z</time>
      </trkpt>
      <trkpt lat="43.23287" lon="3.08066">
        <ele>58.322938</ele>
        <time>2023-01-07T11:50:31.075Z</time>
      </trkpt>
      <trkpt lat="43.23285" lon="3.08081">
        <ele>58.937344</ele>
        <time>2023-01-07T11:50:35.078Z</time>
      </trkpt>
      <trkpt lat="43.23283" lon="3.08095">
        <ele>59.535557</ele>
        <time>2023-01-07T11:50:39.080Z</time>
      </trkpt>
      <trkpt lat="43.23282" lon="3.08108">
        <ele>60.080658</ele>
        <time>2023-01-07T11:50:43.078Z</time>
      </trkpt>
      <trkpt lat="43.23279" lon="3.08124">
        <ele>60.727499</ele>
        <time>2023-01-07T11:50:48.081Z</time>
      </trkpt>
      <trkpt lat="43.23278" lon="3.08139">
        <ele>61.355129</ele>
        <time>2023-01-07T11:50:53.073Z</time>
      </trkpt>
      <trkpt lat="43.23276" lon="3.08154">
        <ele>61.990909</ele>
        <time>2023-01-07T11:50:58.071Z</time>
      </trkpt>
      <trkpt lat="43.23275" lon="3.08167">
        <ele>62.525421</ele>
        <time>2023-01-07T11:51:03.075Z</time>
      </trkpt>
      <trkpt lat="43.23273" lon="3.08181">
        <ele>63.127691</ele>
        <time>2023-01-07T11:51:08.074Z</time>
      </trkpt>
      <trkpt lat="43.23273" lon="3.08195">
        <ele>63.693307</ele>
        <time>2023-01-07T11:51:13.076Z</time>
      </trkpt>
      <trkpt lat="43.23272" lon="3.08209">
        <ele>64.274079</ele>
        <time>2023-01-07T11:51:18.079Z</time>
      </trkpt>
      <trkpt lat="43.23271" lon="3.08222">
        <ele>64.834311</ele>
        <time>2023-01-07T11:51:23.081Z</time>
      </trkpt>
      <trkpt lat="43.2327" lon="3.08236">
        <ele>65.413641</ele>
        <time>2023-01-07T11:51:28.069Z</time>
      </trkpt>
      <trkpt lat="43.23269" lon="3.08251">
        <ele>66.016136</ele>
        <time>2023-01-07T11:51:33.075Z</time>
      </trkpt>
      <trkpt lat="43.23268" lon="3.08265">
        <ele>66.591378</ele>
        <time>2023-01-07T11:51:38.075Z</time>
      </trkpt>
      <trkpt lat="43.23266" lon="3.08279">
        <ele>67.185499</ele>
        <time>2023-01-07T11:51:43.071Z</time>
      </trkpt>
      <trkpt lat="43.23265" lon="3.08292">
        <ele>67.730803</ele>
        <time>2023-01-07T11:51:48.071Z</time>
      </trkpt>
      <trkpt lat="43.23264" lon="3.08306">
        <ele>67.692175</ele>
        <time>2023-01-07T11:51:53.062Z</time>
      </trkpt>
      <trkpt lat="43.23263" lon="3.08321">
        <ele>67.648631</ele>
        <time>2023-01-07T11:51:58.072Z</time>
      </trkpt>
      <trkpt lat="43.23262" lon="3.08334">
        <ele>67.612509</ele>
        <time>2023-01-07T11:52:02.082Z</time>
      </trkpt>
      <trkpt lat="43.2326" lon="3.08347">
        <ele>67.576787</ele>
        <time>2023-01-07T11:52:06.073Z</time>
      </trkpt>
      <trkpt lat="43.2326" lon="3.08361">
        <ele>67.536664</ele>
        <time>2023-01-07T11:52:10.070Z</time>
      </trkpt>
      <trkpt lat="43.23258" lon="3.08376">
        <ele>67.495619</ele>
        <time>2023-01-07T11:52:14.064Z</time>
      </trkpt>
      <trkpt lat="43.23258" lon="3.08389">
        <ele>67.456942</ele>
        <time>2023-01-07T11:52:18.066Z</time>
      </trkpt>
      <trkpt lat="43.23258" lon="3.08403">
        <ele>67.41985</ele>
        <time>2023-01-07T11:52:22.065Z</time>
      </trkpt>
      <trkpt lat="43.23257" lon="3.08416">
        <ele>67.383645</ele>
        <time>2023-01-07T11:52:26.075Z</time>
      </trkpt>
      <trkpt lat="43.23257" lon="3.08441">
        <ele>67.313576</ele>
        <time>2023-01-07T11:57:22.147Z</time>
      </trkpt>
      <trkpt lat="43.23256" lon="3.08455">
        <ele>67.271698</ele>
        <time>2023-01-07T11:57:26.090Z</time>
      </trkpt>
      <trkpt lat="43.23255" lon="3.08469">
        <ele>67.233304</ele>
        <time>2023-01-07T11:57:29.070Z</time>
      </trkpt>
      <trkpt lat="43.23254" lon="3.08483">
        <ele>67.194839</ele>
        <time>2023-01-07T11:57:32.101Z</time>
      </trkpt>
      <trkpt lat="43.23253" lon="3.08496">
        <ele>67.155972</ele>
        <time>2023-01-07T11:57:35.088Z</time>
      </trkpt>
      <trkpt lat="43.23252" lon="3.08511">
        <ele>67.115027</ele>
        <time>2023-01-07T11:57:38.066Z</time>
      </trkpt>
      <trkpt lat="43.23251" lon="3.08526">
        <ele>67.071975</ele>
        <time>2023-01-07T11:57:41.095Z</time>
      </trkpt>
      <trkpt lat="43.2325" lon="3.08542">
        <ele>67.027321</ele>
        <time>2023-01-07T11:57:44.073Z</time>
      </trkpt>
      <trkpt lat="43.2325" lon="3.08557">
        <ele>66.984673</ele>
        <time>2023-01-07T11:57:47.098Z</time>
      </trkpt>
      <trkpt lat="43.23249" lon="3.08571">
        <ele>66.942393</ele>
        <time>2023-01-07T11:57:50.085Z</time>
      </trkpt>
      <trkpt lat="43.23248" lon="3.08586">
        <ele>66.900219</ele>
        <time>2023-01-07T11:57:53.068Z</time>
      </trkpt>
      <trkpt lat="43.23246" lon="3.08601">
        <ele>66.85686</ele>
        <time>2023-01-07T11:57:56.090Z</time>
      </trkpt>
      <trkpt lat="43.23244" lon="3.08616">
        <ele>66.812563</ele>
        <time>2023-01-07T11:57:59.098Z</time>
      </trkpt>
      <trkpt lat="43.23241" lon="3.08631">
        <ele>66.768867</ele>
        <time>2023-01-07T11:58:02.096Z</time>
      </trkpt>
      <trkpt lat="43.23239" lon="3.08645">
        <ele>66.724998</ele>
        <time>2023-01-07T11:58:05.093Z</time>
      </trkpt>
      <trkpt lat="43.23236" lon="3.08661">
        <ele>66.679636</ele>
        <time>2023-01-07T11:58:08.095Z</time>
      </trkpt>
      <trkpt lat="43.23233" lon="3.08676">
        <ele>66.633539</ele>
        <time>2023-01-07T11:58:11.076Z</time>
      </trkpt>
      <trkpt lat="43.23229" lon="3.08692">
        <ele>66.586127</ele>
        <time>2023-01-07T11:58:14.066Z</time>
      </trkpt>
      <trkpt lat="43.23226" lon="3.08707">
        <ele>66.539549</ele>
        <time>2023-01-07T11:58:17.076Z</time>
      </trkpt>
      <trkpt lat="43.23223" lon="3.08723">
        <ele>66.492866</ele>
        <time>2023-01-07T11:58:20.094Z</time>
      </trkpt>
      <trkpt lat="43.2322" lon="3.08739">
        <ele>66.446769</ele>
        <time>2023-01-07T11:58:23.095Z</time>
      </trkpt>
      <trkpt lat="43.23217" lon="3.08754">
        <ele>66.401407</ele>
        <time>2023-01-07T11:58:26.093Z</time>
      </trkpt>
      <trkpt lat="43.23214" lon="3.08769">
        <ele>66.355939</ele>
        <time>2023-01-07T11:58:29.089Z</time>
      </trkpt>
      <trkpt lat="43.23211" lon="3.08783">
        <ele>66.268765</ele>
        <time>2023-01-07T11:58:32.081Z</time>
      </trkpt>
      <trkpt lat="43.23207" lon="3.08799">
        <ele>66.098641</ele>
        <time>2023-01-07T11:58:35.064Z</time>
      </trkpt>
      <trkpt lat="43.23204" lon="3.08815">
        <ele>65.919383</ele>
        <time>2023-01-07T11:58:38.080Z</time>
      </trkpt>
      <trkpt lat="43.232" lon="3.08831">
        <ele>65.734817</ele>
        <time>2023-01-07T11:58:41.074Z</time>
      </trkpt>
      <trkpt lat="43.23196" lon="3.08848">
        <ele>65.546232</ele>
        <time>2023-01-07T11:58:44.088Z</time>
      </trkpt>
      <trkpt lat="43.23193" lon="3.08865">
        <ele>65.358816</ele>
        <time>2023-01-07T11:58:47.070Z</time>
      </trkpt>
      <trkpt lat="43.23189" lon="3.08882">
        <ele>65.168945</ele>
        <time>2023-01-07T11:58:50.076Z</time>
      </trkpt>
      <trkpt lat="43.23185" lon="3.08899">
        <ele>64.982133</ele>
        <time>2023-01-07T11:58:53.080Z</time>
      </trkpt>
      <trkpt lat="43.23181" lon="3.08916">
        <ele>64.795909</ele>
        <time>2023-01-07T11:58:56.085Z</time>
      </trkpt>
      <trkpt lat="43.23178" lon="3.08934">
        <ele>64.596836</ele>
        <time>2023-01-07T11:58:59.089Z</time>
      </trkpt>
      <trkpt lat="43.23175" lon="3.08946">
        <ele>64.462558</ele>
        <time>2023-01-07T11:59:01.077Z</time>
      </trkpt>
      <trkpt lat="43.23172" lon="3.08963">
        <ele>64.276714</ele>
        <time>2023-01-07T11:59:04.090Z</time>
      </trkpt>
      <trkpt lat="43.23168" lon="3.08979">
        <ele>64.09049</ele>
        <time>2023-01-07T11:59:07.099Z</time>
      </trkpt>
      <trkpt lat="43.23164" lon="3.08997">
        <ele>63.894918</ele>
        <time>2023-01-07T11:59:10.093Z</time>
      </trkpt>
      <trkpt lat="43.23162" lon="3.09009">
        <ele>63.755527</ele>
        <time>2023-01-07T11:59:12.136Z</time>
      </trkpt>
      <trkpt lat="43.23158" lon="3.09027">
        <ele>63.715371</ele>
        <time>2023-01-07T11:59:15.082Z</time>
      </trkpt>
      <trkpt lat="43.23156" lon="3.09039">
        <ele>63.728777</ele>
        <time>2023-01-07T11:59:17.078Z</time>
      </trkpt>
      <trkpt lat="43.23153" lon="3.09051">
        <ele>63.742887</ele>
        <time>2023-01-07T11:59:19.096Z</time>
      </trkpt>
      <trkpt lat="43.2315" lon="3.09064">
        <ele>63.757454</ele>
        <time>2023-01-07T11:59:21.078Z</time>
      </trkpt>
      <trkpt lat="43.23148" lon="3.09077">
        <ele>63.771633</ele>
        <time>2023-01-07T11:59:23.071Z</time>
      </trkpt>
      <trkpt lat="43.23145" lon="3.09089">
        <ele>63.78548</ele>
        <time>2023-01-07T11:59:25.078Z</time>
      </trkpt>
      <trkpt lat="43.23142" lon="3.09106">
        <ele>63.804376</ele>
        <time>2023-01-07T11:59:28.096Z</time>
      </trkpt>
      <trkpt lat="43.23139" lon="3.09118">
        <ele>63.818486</ele>
        <time>2023-01-07T11:59:30.095Z</time>
      </trkpt>
      <trkpt lat="43.23137" lon="3.09131">
        <ele>63.8323</ele>
        <time>2023-01-07T11:59:32.097Z</time>
      </trkpt>
      <trkpt lat="43.23134" lon="3.09143">
        <ele>63.846058</ele>
        <time>2023-01-07T11:59:34.089Z</time>
      </trkpt>
      <trkpt lat="43.23132" lon="3.09155">
        <ele>63.85971</ele>
        <time>2023-01-07T11:59:36.093Z</time>
      </trkpt>
      <trkpt lat="43.23129" lon="3.09167">
        <ele>63.8733</ele>
        <time>2023-01-07T11:59:38.074Z</time>
      </trkpt>
      <trkpt lat="43.23126" lon="3.09179">
        <ele>63.887384</ele>
        <time>2023-01-07T11:59:40.091Z</time>
      </trkpt>
      <trkpt lat="43.23123" lon="3.09192">
        <ele>63.901494</ele>
        <time>2023-01-07T11:59:42.079Z</time>
      </trkpt>
      <trkpt lat="43.23121" lon="3.09204">
        <ele>63.915042</ele>
        <time>2023-01-07T11:59:44.098Z</time>
      </trkpt>
      <trkpt lat="43.23118" lon="3.09216">
        <ele>63.929152</ele>
        <time>2023-01-07T11:59:46.085Z</time>
      </trkpt>
      <trkpt lat="43.23114" lon="3.09234">
        <ele>63.948957</ele>
        <time>2023-01-07T11:59:49.088Z</time>
      </trkpt>
      <trkpt lat="43.2311" lon="3.09251">
        <ele>63.967882</ele>
        <time>2023-01-07T11:59:52.079Z</time>
      </trkpt>
      <trkpt lat="43.23106" lon="3.09263">
        <ele>63.90646</ele>
        <time>2023-01-07T11:59:54.065Z</time>
      </trkpt>
      <trkpt lat="43.23103" lon="3.09275">
        <ele>63.844818</ele>
        <time>2023-01-07T11:59:56.085Z</time>
      </trkpt>
      <trkpt lat="43.231" lon="3.09286">
        <ele>63.784328</ele>
        <time>2023-01-07T11:59:58.084Z</time>
      </trkpt>
      <trkpt lat="43.23094" lon="3.09303">
        <ele>63.692382</ele>
        <time>2023-01-07T12:00:01.085Z</time>
      </trkpt>
      <trkpt lat="43.23089" lon="3.09314">
        <ele>63.626949</ele>
        <time>2023-01-07T12:00:03.086Z</time>
      </trkpt>
      <trkpt lat="43.23084" lon="3.09326">
        <ele>63.561386</ele>
        <time>2023-01-07T12:00:05.078Z</time>
      </trkpt>
      <trkpt lat="43.23078" lon="3.09337">
        <ele>63.493325</ele>
        <time>2023-01-07T12:00:07.083Z</time>
      </trkpt>
      <trkpt lat="43.23072" lon="3.0935">
        <ele>63.421415</ele>
        <time>2023-01-07T12:00:10.080Z</time>
      </trkpt>
      <trkpt lat="43.23067" lon="3.09361">
        <ele>63.355255</ele>
        <time>2023-01-07T12:00:13.074Z</time>
      </trkpt>
      <trkpt lat="43.23058" lon="3.09372">
        <ele>63.272784</ele>
        <time>2023-01-07T12:00:16.078Z</time>
      </trkpt>
      <trkpt lat="43.23051" lon="3.09386">
        <ele>63.194425</ele>
        <time>2023-01-07T12:00:19.090Z</time>
      </trkpt>
      <trkpt lat="43.23044" lon="3.094">
        <ele>63.109637</ele>
        <time>2023-01-07T12:00:22.096Z</time>
      </trkpt>
      <trkpt lat="43.2304" lon="3.09415">
        <ele>63.031761</ele>
        <time>2023-01-07T12:00:25.096Z</time>
      </trkpt>
      <trkpt lat="43.23037" lon="3.0943">
        <ele>62.956236</ele>
        <time>2023-01-07T12:00:28.099Z</time>
      </trkpt>
      <trkpt lat="43.23037" lon="3.09445">
        <ele>62.882234</ele>
        <time>2023-01-07T12:00:31.079Z</time>
      </trkpt>
      <trkpt lat="43.23039" lon="3.0946">
        <ele>62.808625</ele>
        <time>2023-01-07T12:00:34.084Z</time>
      </trkpt>
      <trkpt lat="43.23044" lon="3.09473">
        <ele>62.858225</ele>
        <time>2023-01-07T12:00:37.085Z</time>
      </trkpt>
      <trkpt lat="43.23051" lon="3.09487">
        <ele>63.175831</ele>
        <time>2023-01-07T12:00:40.093Z</time>
      </trkpt>
      <trkpt lat="43.23057" lon="3.09501">
        <ele>63.494869</ele>
        <time>2023-01-07T12:00:43.097Z</time>
      </trkpt>
      <trkpt lat="43.23064" lon="3.09514">
        <ele>63.813547</ele>
        <time>2023-01-07T12:00:46.089Z</time>
      </trkpt>
      <trkpt lat="43.2307" lon="3.09528">
        <ele>64.11602</ele>
        <time>2023-01-07T12:00:49.095Z</time>
      </trkpt>
      <trkpt lat="43.23075" lon="3.09541">
        <ele>64.408422</ele>
        <time>2023-01-07T12:00:52.098Z</time>
      </trkpt>
      <trkpt lat="43.2308" lon="3.09554">
        <ele>64.686881</ele>
        <time>2023-01-07T12:00:55.090Z</time>
      </trkpt>
      <trkpt lat="43.23086" lon="3.09565">
        <ele>64.951404</ele>
        <time>2023-01-07T12:00:58.094Z</time>
      </trkpt>
      <trkpt lat="43.23091" lon="3.09576">
        <ele>65.209447</ele>
        <time>2023-01-07T12:01:01.093Z</time>
      </trkpt>
      <trkpt lat="43.23098" lon="3.09588">
        <ele>65.484585</ele>
        <time>2023-01-07T12:01:04.098Z</time>
      </trkpt>
      <trkpt lat="43.23104" lon="3.09598">
        <ele>65.756164</ele>
        <time>2023-01-07T12:01:07.095Z</time>
      </trkpt>
      <trkpt lat="43.23112" lon="3.09609">
        <ele>66.028821</ele>
        <time>2023-01-07T12:01:10.090Z</time>
      </trkpt>
      <trkpt lat="43.23119" lon="3.09619">
        <ele>66.30748</ele>
        <time>2023-01-07T12:01:13.089Z</time>
      </trkpt>
      <trkpt lat="43.23127" lon="3.0963">
        <ele>66.603121</ele>
        <time>2023-01-07T12:01:16.095Z</time>
      </trkpt>
      <trkpt lat="43.23135" lon="3.09641">
        <ele>66.901986</ele>
        <time>2023-01-07T12:01:19.084Z</time>
      </trkpt>
      <trkpt lat="43.23144" lon="3.09652">
        <ele>67.216202</ele>
        <time>2023-01-07T12:01:22.097Z</time>
      </trkpt>
      <trkpt lat="43.23152" lon="3.09664">
        <ele>67.532926</ele>
        <time>2023-01-07T12:01:25.097Z</time>
      </trkpt>
      <trkpt lat="43.2316" lon="3.09675">
        <ele>67.837661</ele>
        <time>2023-01-07T12:01:28.097Z</time>
      </trkpt>
      <trkpt lat="43.23169" lon="3.09686">
        <ele>68.135704</ele>
        <time>2023-01-07T12:01:31.098Z</time>
      </trkpt>
      <trkpt lat="43.23177" lon="3.09697">
        <ele>68.441795</ele>
        <time>2023-01-07T12:01:34.086Z</time>
      </trkpt>
      <trkpt lat="43.23185" lon="3.09708">
        <ele>68.733408</ele>
        <time>2023-01-07T12:01:37.085Z</time>
      </trkpt>
      <trkpt lat="43.23192" lon="3.09719">
        <ele>69.024875</ele>
        <time>2023-01-07T12:01:40.095Z</time>
      </trkpt>
      <trkpt lat="43.232" lon="3.09729">
        <ele>69.312737</ele>
        <time>2023-01-07T12:01:43.092Z</time>
      </trkpt>
      <trkpt lat="43.23208" lon="3.0974">
        <ele>69.598261</ele>
        <time>2023-01-07T12:01:46.097Z</time>
      </trkpt>
      <trkpt lat="43.23216" lon="3.0975">
        <ele>69.880097</ele>
        <time>2023-01-07T12:01:49.099Z</time>
      </trkpt>
      <trkpt lat="43.23223" lon="3.0976">
        <ele>70.140963</ele>
        <time>2023-01-07T12:01:52.098Z</time>
      </trkpt>
      <trkpt lat="43.2323" lon="3.09769">
        <ele>70.39967</ele>
        <time>2023-01-07T12:01:55.094Z</time>
      </trkpt>
      <trkpt lat="43.23238" lon="3.09778">
        <ele>70.676617</ele>
        <time>2023-01-07T12:01:58.089Z</time>
      </trkpt>
      <trkpt lat="43.23247" lon="3.09788">
        <ele>70.964932</ele>
        <time>2023-01-07T12:02:01.093Z</time>
      </trkpt>
      <trkpt lat="43.23255" lon="3.09797">
        <ele>71.248548</ele>
        <time>2023-01-07T12:02:04.080Z</time>
      </trkpt>
      <trkpt lat="43.23264" lon="3.09806">
        <ele>71.531255</ele>
        <time>2023-01-07T12:02:07.088Z</time>
      </trkpt>
      <trkpt lat="43.23272" lon="3.09815">
        <ele>71.808187</ele>
        <time>2023-01-07T12:02:10.093Z</time>
      </trkpt>
      <trkpt lat="43.2328" lon="3.09824">
        <ele>72.089177</ele>
        <time>2023-01-07T12:02:13.097Z</time>
      </trkpt>
      <trkpt lat="43.23289" lon="3.09833">
        <ele>72.242322</ele>
        <time>2023-01-07T12:02:16.091Z</time>
      </trkpt>
      <trkpt lat="43.23298" lon="3.09842">
        <ele>72.275584</ele>
        <time>2023-01-07T12:02:19.096Z</time>
      </trkpt>
      <trkpt lat="43.23306" lon="3.09851">
        <ele>72.307845</ele>
        <time>2023-01-07T12:02:22.096Z</time>
      </trkpt>
      <trkpt lat="43.23314" lon="3.0986">
        <ele>72.338828</ele>
        <time>2023-01-07T12:02:25.093Z</time>
      </trkpt>
      <trkpt lat="43.23322" lon="3.09868">
        <ele>72.370432</ele>
        <time>2023-01-07T12:02:28.098Z</time>
      </trkpt>
      <trkpt lat="43.2333" lon="3.09877">
        <ele>72.401654</ele>
        <time>2023-01-07T12:02:31.098Z</time>
      </trkpt>
      <trkpt lat="43.23338" lon="3.09886">
        <ele>72.433016</ele>
        <time>2023-01-07T12:02:34.093Z</time>
      </trkpt>
      <trkpt lat="43.23345" lon="3.09896">
        <ele>72.464753</ele>
        <time>2023-01-07T12:02:37.101Z</time>
      </trkpt>
      <trkpt lat="43.23353" lon="3.09905">
        <ele>72.495961</ele>
        <time>2023-01-07T12:02:40.081Z</time>
      </trkpt>
      <trkpt lat="43.2336" lon="3.09915">
        <ele>72.527916</ele>
        <time>2023-01-07T12:02:43.092Z</time>
      </trkpt>
      <trkpt lat="43.23367" lon="3.09925">
        <ele>72.559175</ele>
        <time>2023-01-07T12:02:46.093Z</time>
      </trkpt>
      <trkpt lat="43.23375" lon="3.09937">
        <ele>72.59323</ele>
        <time>2023-01-07T12:02:49.095Z</time>
      </trkpt>
      <trkpt lat="43.23382" lon="3.09947">
        <ele>72.626211</ele>
        <time>2023-01-07T12:02:52.093Z</time>
      </trkpt>
      <trkpt lat="43.23389" lon="3.09958">
        <ele>72.659191</ele>
        <time>2023-01-07T12:02:55.094Z</time>
      </trkpt>
      <trkpt lat="43.23397" lon="3.09969">
        <ele>72.691521</ele>
        <time>2023-01-07T12:02:58.097Z</time>
      </trkpt>
      <trkpt lat="43.23404" lon="3.09979">
        <ele>72.724174</ele>
        <time>2023-01-07T12:03:01.092Z</time>
      </trkpt>
      <trkpt lat="43.23411" lon="3.0999">
        <ele>72.757738</ele>
        <time>2023-01-07T12:03:04.099Z</time>
      </trkpt>
      <trkpt lat="43.23419" lon="3.10001">
        <ele>72.712298</ele>
        <time>2023-01-07T12:03:07.096Z</time>
      </trkpt>
      <trkpt lat="43.23427" lon="3.10012">
        <ele>72.555744</ele>
        <time>2023-01-07T12:03:10.081Z</time>
      </trkpt>
      <trkpt lat="43.23434" lon="3.10025">
        <ele>72.391247</ele>
        <time>2023-01-07T12:03:13.131Z</time>
      </trkpt>
      <trkpt lat="43.23441" lon="3.1004">
        <ele>72.214056</ele>
        <time>2023-01-07T12:03:16.098Z</time>
      </trkpt>
      <trkpt lat="43.23448" lon="3.10056">
        <ele>72.028543</ele>
        <time>2023-01-07T12:03:19.079Z</time>
      </trkpt>
      <trkpt lat="43.23453" lon="3.10068">
        <ele>71.889063</ele>
        <time>2023-01-07T12:03:21.081Z</time>
      </trkpt>
      <trkpt lat="43.23457" lon="3.1008">
        <ele>71.751352</ele>
        <time>2023-01-07T12:03:23.097Z</time>
      </trkpt>
      <trkpt lat="43.23461" lon="3.10092">
        <ele>71.615878</ele>
        <time>2023-01-07T12:03:25.097Z</time>
      </trkpt>
      <trkpt lat="43.23466" lon="3.10106">
        <ele>71.457049</ele>
        <time>2023-01-07T12:03:27.090Z</time>
      </trkpt>
      <trkpt lat="43.2347" lon="3.10121">
        <ele>71.301848</ele>
        <time>2023-01-07T12:03:29.090Z</time>
      </trkpt>
      <trkpt lat="43.23475" lon="3.10134">
        <ele>71.153255</ele>
        <time>2023-01-07T12:03:31.081Z</time>
      </trkpt>
      <trkpt lat="43.23479" lon="3.10148">
        <ele>71.00025</ele>
        <time>2023-01-07T12:03:33.070Z</time>
      </trkpt>
      <trkpt lat="43.23483" lon="3.10162">
        <ele>70.851686</ele>
        <time>2023-01-07T12:03:35.076Z</time>
      </trkpt>
      <trkpt lat="43.23487" lon="3.10176">
        <ele>70.702929</ele>
        <time>2023-01-07T12:03:37.095Z</time>
      </trkpt>
      <trkpt lat="43.23491" lon="3.10189">
        <ele>70.558573</ele>
        <time>2023-01-07T12:03:39.075Z</time>
      </trkpt>
      <trkpt lat="43.23495" lon="3.10202">
        <ele>70.414744</ele>
        <time>2023-01-07T12:03:41.096Z</time>
      </trkpt>
      <trkpt lat="43.23499" lon="3.10213">
        <ele>70.28933</ele>
        <time>2023-01-07T12:03:43.081Z</time>
      </trkpt>
      <trkpt lat="43.23502" lon="3.10225">
        <ele>70.154253</ele>
        <time>2023-01-07T12:03:45.089Z</time>
      </trkpt>
      <trkpt lat="43.23506" lon="3.10237">
        <ele>70.018463</ele>
        <time>2023-01-07T12:03:47.090Z</time>
      </trkpt>
      <trkpt lat="43.2351" lon="3.10255">
        <ele>69.816421</ele>
        <time>2023-01-07T12:03:50.081Z</time>
      </trkpt>
      <trkpt lat="43.23514" lon="3.10267">
        <ele>69.67282</ele>
        <time>2023-01-07T12:03:52.076Z</time>
      </trkpt>
      <trkpt lat="43.23518" lon="3.10279">
        <ele>69.528565</ele>
        <time>2023-01-07T12:03:54.097Z</time>
      </trkpt>
      <trkpt lat="43.23522" lon="3.10292">
        <ele>69.381565</ele>
        <time>2023-01-07T12:03:56.095Z</time>
      </trkpt>
      <trkpt lat="43.23526" lon="3.10304">
        <ele>69.236547</ele>
        <time>2023-01-07T12:03:58.097Z</time>
      </trkpt>
      <trkpt lat="43.2353" lon="3.10317">
        <ele>69.087344</ele>
        <time>2023-01-07T12:04:00.094Z</time>
      </trkpt>
      <trkpt lat="43.23535" lon="3.10329">
        <ele>68.933714</ele>
        <time>2023-01-07T12:04:02.095Z</time>
      </trkpt>
      <trkpt lat="43.23541" lon="3.10341">
        <ele>68.783234</ele>
        <time>2023-01-07T12:04:04.095Z</time>
      </trkpt>
      <trkpt lat="43.23547" lon="3.10353">
        <ele>68.63325</ele>
        <time>2023-01-07T12:04:06.093Z</time>
      </trkpt>
      <trkpt lat="43.23552" lon="3.10365">
        <ele>68.476136</ele>
        <time>2023-01-07T12:04:08.092Z</time>
      </trkpt>
      <trkpt lat="43.23558" lon="3.10378">
        <ele>68.316312</ele>
        <time>2023-01-07T12:04:10.093Z</time>
      </trkpt>
      <trkpt lat="43.23564" lon="3.1039">
        <ele>68.155444</ele>
        <time>2023-01-07T12:04:12.092Z</time>
      </trkpt>
      <trkpt lat="43.23569" lon="3.10403">
        <ele>68.000818</ele>
        <time>2023-01-07T12:04:14.093Z</time>
      </trkpt>
      <trkpt lat="43.23575" lon="3.10416">
        <ele>67.841544</ele>
        <time>2023-01-07T12:04:16.075Z</time>
      </trkpt>
      <trkpt lat="43.23581" lon="3.10429">
        <ele>67.675009</ele>
        <time>2023-01-07T12:04:18.092Z</time>
      </trkpt>
      <trkpt lat="43.23587" lon="3.10441">
        <ele>67.648784</ele>
        <time>2023-01-07T12:04:20.097Z</time>
      </trkpt>
      <trkpt lat="43.23592" lon="3.10452">
        <ele>67.655158</ele>
        <time>2023-01-07T12:04:22.097Z</time>
      </trkpt>
      <trkpt lat="43.23597" lon="3.10463">
        <ele>67.661244</ele>
        <time>2023-01-07T12:04:24.099Z</time>
      </trkpt>
      <trkpt lat="43.23603" lon="3.10475">
        <ele>67.667706</ele>
        <time>2023-01-07T12:04:26.078Z</time>
      </trkpt>
      <trkpt lat="43.23609" lon="3.10486">
        <ele>67.674384</ele>
        <time>2023-01-07T12:04:28.087Z</time>
      </trkpt>
      <trkpt lat="43.23614" lon="3.10498">
        <ele>67.680557</ele>
        <time>2023-01-07T12:04:30.073Z</time>
      </trkpt>
      <trkpt lat="43.23619" lon="3.10509">
        <ele>67.686964</ele>
        <time>2023-01-07T12:04:32.095Z</time>
      </trkpt>
      <trkpt lat="43.23624" lon="3.10521">
        <ele>67.693347</ele>
        <time>2023-01-07T12:04:34.068Z</time>
      </trkpt>
      <trkpt lat="43.2363" lon="3.10532">
        <ele>67.699844</ele>
        <time>2023-01-07T12:04:36.083Z</time>
      </trkpt>
      <trkpt lat="43.23637" lon="3.10548">
        <ele>67.708512</ele>
        <time>2023-01-07T12:04:39.096Z</time>
      </trkpt>
      <trkpt lat="43.23641" lon="3.10559">
        <ele>67.714361</ele>
        <time>2023-01-07T12:04:41.093Z</time>
      </trkpt>
      <trkpt lat="43.23646" lon="3.1057">
        <ele>67.72038</ele>
        <time>2023-01-07T12:04:43.097Z</time>
      </trkpt>
      <trkpt lat="43.23652" lon="3.10581">
        <ele>67.72683</ele>
        <time>2023-01-07T12:04:45.093Z</time>
      </trkpt>
      <trkpt lat="43.23657" lon="3.10592">
        <ele>67.73299</ele>
        <time>2023-01-07T12:04:47.091Z</time>
      </trkpt>
      <trkpt lat="43.23662" lon="3.10604">
        <ele>67.739537</ele>
        <time>2023-01-07T12:04:49.095Z</time>
      </trkpt>
      <trkpt lat="43.23667" lon="3.10615">
        <ele>67.745596</ele>
        <time>2023-01-07T12:04:51.098Z</time>
      </trkpt>
      <trkpt lat="43.23672" lon="3.10626">
        <ele>67.751559</ele>
        <time>2023-01-07T12:04:53.100Z</time>
      </trkpt>
      <trkpt lat="43.23679" lon="3.10641">
        <ele>67.771961</ele>
        <time>2023-01-07T12:04:56.094Z</time>
      </trkpt>
      <trkpt lat="43.23685" lon="3.10655">
        <ele>67.901917</ele>
        <time>2023-01-07T12:04:59.089Z</time>
      </trkpt>
      <trkpt lat="43.23691" lon="3.1067">
        <ele>68.032681</ele>
        <time>2023-01-07T12:05:02.094Z</time>
      </trkpt>
      <trkpt lat="43.23697" lon="3.10685">
        <ele>68.161817</ele>
        <time>2023-01-07T12:05:05.072Z</time>
      </trkpt>
      <trkpt lat="43.23702" lon="3.10701">
        <ele>68.293163</ele>
        <time>2023-01-07T12:05:08.089Z</time>
      </trkpt>
      <trkpt lat="43.23706" lon="3.10717">
        <ele>68.422143</ele>
        <time>2023-01-07T12:05:11.097Z</time>
      </trkpt>
      <trkpt lat="43.23709" lon="3.10731">
        <ele>68.538242</ele>
        <time>2023-01-07T12:05:14.073Z</time>
      </trkpt>
      <trkpt lat="43.23711" lon="3.10745">
        <ele>68.645689</ele>
        <time>2023-01-07T12:05:17.073Z</time>
      </trkpt>
      <trkpt lat="43.23711" lon="3.10759">
        <ele>68.75138</ele>
        <time>2023-01-07T12:05:20.094Z</time>
      </trkpt>
      <trkpt lat="43.23713" lon="3.10772">
        <ele>68.853198</ele>
        <time>2023-01-07T12:05:23.098Z</time>
      </trkpt>
      <trkpt lat="43.23714" lon="3.10785">
        <ele>68.95766</ele>
        <time>2023-01-07T12:05:26.093Z</time>
      </trkpt>
      <trkpt lat="43.23715" lon="3.10801">
        <ele>69.07962</ele>
        <time>2023-01-07T12:05:30.088Z</time>
      </trkpt>
      <trkpt lat="43.23716" lon="3.10816">
        <ele>69.195663</ele>
        <time>2023-01-07T12:05:34.092Z</time>
      </trkpt>
      <trkpt lat="43.23718" lon="3.10829">
        <ele>69.298048</ele>
        <time>2023-01-07T12:05:37.086Z</time>
      </trkpt>
      <trkpt lat="43.23722" lon="3.10841">
        <ele>69.397403</ele>
        <time>2023-01-07T12:05:40.099Z</time>
      </trkpt>
      <trkpt lat="43.23725" lon="3.10854">
        <ele>69.49861</ele>
        <time>2023-01-07T12:05:43.093Z</time>
      </trkpt>
      <trkpt lat="43.23728" lon="3.10867">
        <ele>69.60655</ele>
        <time>2023-01-07T12:05:46.093Z</time>
      </trkpt>
      <trkpt lat="43.23731" lon="3.10883">
        <ele>69.459337</ele>
        <time>2023-01-07T12:05:49.092Z</time>
      </trkpt>
      <trkpt lat="43.23736" lon="3.109">
        <ele>69.083404</ele>
        <time>2023-01-07T12:05:52.093Z</time>
      </trkpt>
      <trkpt lat="43.23739" lon="3.10913">
        <ele>68.818352</ele>
        <time>2023-01-07T12:05:54.076Z</time>
      </trkpt>
      <trkpt lat="43.23743" lon="3.10926">
        <ele>68.537144</ele>
        <time>2023-01-07T12:05:56.093Z</time>
      </trkpt>
      <trkpt lat="43.23748" lon="3.10939">
        <ele>68.233802</ele>
        <time>2023-01-07T12:05:58.096Z</time>
      </trkpt>
      <trkpt lat="43.23753" lon="3.10952">
        <ele>67.931797</ele>
        <time>2023-01-07T12:06:00.078Z</time>
      </trkpt>
      <trkpt lat="43.2376" lon="3.10965">
        <ele>67.622097</ele>
        <time>2023-01-07T12:06:02.103Z</time>
      </trkpt>
      <trkpt lat="43.23765" lon="3.10977">
        <ele>67.325196</ele>
        <time>2023-01-07T12:06:04.092Z</time>
      </trkpt>
      <trkpt lat="43.23771" lon="3.10988">
        <ele>67.066043</ele>
        <time>2023-01-07T12:06:06.089Z</time>
      </trkpt>
      <trkpt lat="43.23776" lon="3.11">
        <ele>66.780488</ele>
        <time>2023-01-07T12:06:08.086Z</time>
      </trkpt>
      <trkpt lat="43.23781" lon="3.1101">
        <ele>66.524806</ele>
        <time>2023-01-07T12:06:10.077Z</time>
      </trkpt>
      <trkpt lat="43.23786" lon="3.11022">
        <ele>66.245503</ele>
        <time>2023-01-07T12:06:12.093Z</time>
      </trkpt>
      <trkpt lat="43.23792" lon="3.11035">
        <ele>65.950296</ele>
        <time>2023-01-07T12:06:14.099Z</time>
      </trkpt>
      <trkpt lat="43.23798" lon="3.11046">
        <ele>65.660275</ele>
        <time>2023-01-07T12:06:16.091Z</time>
      </trkpt>
      <trkpt lat="43.23804" lon="3.11059">
        <ele>65.35849</ele>
        <time>2023-01-07T12:06:18.097Z</time>
      </trkpt>
      <trkpt lat="43.2381" lon="3.11071">
        <ele>65.063671</ele>
        <time>2023-01-07T12:06:20.098Z</time>
      </trkpt>
      <trkpt lat="43.23816" lon="3.11083">
        <ele>64.771982</ele>
        <time>2023-01-07T12:06:22.097Z</time>
      </trkpt>
      <trkpt lat="43.23822" lon="3.11096">
        <ele>64.548941</ele>
        <time>2023-01-07T12:06:24.093Z</time>
      </trkpt>
      <trkpt lat="43.23828" lon="3.11108">
        <ele>64.364853</ele>
        <time>2023-01-07T12:06:26.092Z</time>
      </trkpt>
      <trkpt lat="43.23833" lon="3.1112">
        <ele>64.182774</ele>
        <time>2023-01-07T12:06:28.080Z</time>
      </trkpt>
      <trkpt lat="43.23841" lon="3.11134">
        <ele>63.956903</ele>
        <time>2023-01-07T12:06:31.095Z</time>
      </trkpt>
      <trkpt lat="43.23848" lon="3.11146">
        <ele>63.764467</ele>
        <time>2023-01-07T12:06:34.097Z</time>
      </trkpt>
      <trkpt lat="43.23854" lon="3.11159">
        <ele>63.573005</ele>
        <time>2023-01-07T12:06:38.096Z</time>
      </trkpt>
      <trkpt lat="43.23864" lon="3.11164">
        <ele>63.386318</ele>
        <time>2023-01-07T12:06:42.097Z</time>
      </trkpt>
      <trkpt lat="43.23874" lon="3.11162">
        <ele>63.199408</ele>
        <time>2023-01-07T12:06:45.088Z</time>
      </trkpt>
      <trkpt lat="43.23885" lon="3.11164">
        <ele>63.01695</ele>
        <time>2023-01-07T12:06:48.098Z</time>
      </trkpt>
      <trkpt lat="43.23894" lon="3.11167">
        <ele>62.843441</ele>
        <time>2023-01-07T12:06:51.094Z</time>
      </trkpt>
      <trkpt lat="43.23903" lon="3.11175">
        <ele>62.656658</ele>
        <time>2023-01-07T12:06:55.084Z</time>
      </trkpt>
      <trkpt lat="43.23908" lon="3.11186">
        <ele>62.497453</ele>
        <time>2023-01-07T12:07:12.089Z</time>
      </trkpt>
      <trkpt lat="43.23898" lon="3.11194">
        <ele>62.300156</ele>
        <time>2023-01-07T12:18:55.148Z</time>
      </trkpt>
      <trkpt lat="43.23907" lon="3.1119">
        <ele>62.140589</ele>
        <time>2023-01-07T12:19:06.086Z</time>
      </trkpt>
      <trkpt lat="43.23909" lon="3.11176">
        <ele>61.95874</ele>
        <time>2023-01-07T12:19:11.079Z</time>
      </trkpt>
      <trkpt lat="43.2392" lon="3.1118">
        <ele>61.752947</ele>
        <time>2023-01-07T12:19:16.089Z</time>
      </trkpt>
      <trkpt lat="43.23927" lon="3.11191">
        <ele>61.576802</ele>
        <time>2023-01-07T12:19:19.074Z</time>
      </trkpt>
      <trkpt lat="43.23935" lon="3.11201">
        <ele>61.495642</ele>
        <time>2023-01-07T12:19:22.096Z</time>
      </trkpt>
      <trkpt lat="43.23944" lon="3.11213">
        <ele>61.42567</ele>
        <time>2023-01-07T12:19:25.071Z</time>
      </trkpt>
      <trkpt lat="43.23954" lon="3.11226">
        <ele>61.350079</ele>
        <time>2023-01-07T12:19:28.101Z</time>
      </trkpt>
      <trkpt lat="43.2396" lon="3.11236">
        <ele>61.298182</ele>
        <time>2023-01-07T12:19:30.090Z</time>
      </trkpt>
      <trkpt lat="43.23968" lon="3.11245">
        <ele>61.242319</ele>
        <time>2023-01-07T12:19:32.093Z</time>
      </trkpt>
      <trkpt lat="43.23974" lon="3.11254">
        <ele>61.192475</ele>
        <time>2023-01-07T12:19:34.088Z</time>
      </trkpt>
      <trkpt lat="43.23981" lon="3.11263">
        <ele>61.141359</ele>
        <time>2023-01-07T12:19:36.090Z</time>
      </trkpt>
      <trkpt lat="43.23988" lon="3.11272">
        <ele>61.087125</ele>
        <time>2023-01-07T12:19:38.098Z</time>
      </trkpt>
      <trkpt lat="43.23995" lon="3.11281">
        <ele>61.036031</ele>
        <time>2023-01-07T12:19:40.074Z</time>
      </trkpt>
      <trkpt lat="43.24003" lon="3.11292">
        <ele>60.973884</ele>
        <time>2023-01-07T12:19:43.093Z</time>
      </trkpt>
      <trkpt lat="43.24008" lon="3.11303">
        <ele>60.922826</ele>
        <time>2023-01-07T12:19:46.091Z</time>
      </trkpt>
      <trkpt lat="43.24006" lon="3.11316">
        <ele>60.870751</ele>
        <time>2023-01-07T12:19:49.094Z</time>
      </trkpt>
      <trkpt lat="43.23997" lon="3.11322">
        <ele>60.818167</ele>
        <time>2023-01-07T12:19:54.078Z</time>
      </trkpt>
      <trkpt lat="43.24008" lon="3.11314">
        <ele>60.753197</ele>
        <time>2023-01-07T12:20:25.079Z</time>
      </trkpt>
      <trkpt lat="43.24009" lon="3.11299">
        <ele>60.693414</ele>
        <time>2023-01-07T12:20:29.081Z</time>
      </trkpt>
      <trkpt lat="43.24003" lon="3.11289">
        <ele>60.64138</ele>
        <time>2023-01-07T12:20:32.079Z</time>
      </trkpt>
      <trkpt lat="43.23997" lon="3.1128">
        <ele>60.589518</ele>
        <time>2023-01-07T12:20:35.074Z</time>
      </trkpt>
      <trkpt lat="43.2399" lon="3.11271">
        <ele>60.607237</ele>
        <time>2023-01-07T12:20:38.093Z</time>
      </trkpt>
      <trkpt lat="43.23983" lon="3.11262">
        <ele>60.753747</ele>
        <time>2023-01-07T12:20:41.080Z</time>
      </trkpt>
      <trkpt lat="43.23975" lon="3.1125">
        <ele>60.934829</ele>
        <time>2023-01-07T12:20:45.097Z</time>
      </trkpt>
      <trkpt lat="43.23969" lon="3.11241">
        <ele>61.080206</ele>
        <time>2023-01-07T12:20:48.081Z</time>
      </trkpt>
      <trkpt lat="43.2396" lon="3.1123">
        <ele>61.264049</ele>
        <time>2023-01-07T12:20:52.097Z</time>
      </trkpt>
      <trkpt lat="43.23953" lon="3.11221">
        <ele>61.404788</ele>
        <time>2023-01-07T12:20:55.082Z</time>
      </trkpt>
      <trkpt lat="43.23947" lon="3.11212">
        <ele>61.543929</ele>
        <time>2023-01-07T12:20:58.087Z</time>
      </trkpt>
      <trkpt lat="43.23938" lon="3.11201">
        <ele>61.728576</ele>
        <time>2023-01-07T12:21:02.070Z</time>
      </trkpt>
      <trkpt lat="43.2393" lon="3.1119">
        <ele>61.905302</ele>
        <time>2023-01-07T12:21:06.083Z</time>
      </trkpt>
      <trkpt lat="43.23922" lon="3.11181">
        <ele>62.068366</ele>
        <time>2023-01-07T12:21:10.092Z</time>
      </trkpt>
      <trkpt lat="43.23913" lon="3.11172">
        <ele>62.236571</ele>
        <time>2023-01-07T12:21:14.093Z</time>
      </trkpt>
      <trkpt lat="43.23904" lon="3.11166">
        <ele>62.389867</ele>
        <time>2023-01-07T12:21:18.078Z</time>
      </trkpt>
      <trkpt lat="43.23895" lon="3.11162">
        <ele>62.543578</ele>
        <time>2023-01-07T12:21:22.076Z</time>
      </trkpt>
      <trkpt lat="43.23886" lon="3.11158">
        <ele>62.698543</ele>
        <time>2023-01-07T12:21:26.080Z</time>
      </trkpt>
      <trkpt lat="43.23877" lon="3.11152">
        <ele>62.848555</ele>
        <time>2023-01-07T12:21:31.093Z</time>
      </trkpt>
      <trkpt lat="43.2387" lon="3.11143">
        <ele>62.997686</ele>
        <time>2023-01-07T12:21:37.081Z</time>
      </trkpt>
      <trkpt lat="43.2386" lon="3.11138">
        <ele>63.159616</ele>
        <time>2023-01-07T12:21:42.074Z</time>
      </trkpt>
      <trkpt lat="43.23853" lon="3.11146">
        <ele>63.298748</ele>
        <time>2023-01-07T12:21:47.082Z</time>
      </trkpt>
      <trkpt lat="43.23857" lon="3.11158">
        <ele>63.357819</ele>
        <time>2023-01-07T12:21:52.083Z</time>
      </trkpt>
      <trkpt lat="43.23867" lon="3.11154">
        <ele>63.377019</ele>
        <time>2023-01-07T12:21:56.081Z</time>
      </trkpt>
      <trkpt lat="43.23868" lon="3.11138">
        <ele>63.398512</ele>
        <time>2023-01-07T12:22:00.079Z</time>
      </trkpt>
      <trkpt lat="43.23867" lon="3.11124">
        <ele>63.418383</ele>
        <time>2023-01-07T12:22:04.089Z</time>
      </trkpt>
      <trkpt lat="43.23868" lon="3.1111">
        <ele>63.436877</ele>
        <time>2023-01-07T12:22:08.078Z</time>
      </trkpt>
      <trkpt lat="43.23874" lon="3.11095">
        <ele>63.459734</ele>
        <time>2023-01-07T12:22:12.081Z</time>
      </trkpt>
      <trkpt lat="43.23879" lon="3.11083">
        <ele>63.479773</ele>
        <time>2023-01-07T12:22:15.082Z</time>
      </trkpt>
      <trkpt lat="43.23887" lon="3.11069">
        <ele>63.502959</ele>
        <time>2023-01-07T12:22:19.072Z</time>
      </trkpt>
      <trkpt lat="43.23893" lon="3.11056">
        <ele>63.52386</ele>
        <time>2023-01-07T12:22:22.081Z</time>
      </trkpt>
      <trkpt lat="43.239" lon="3.11043">
        <ele>63.546082</ele>
        <time>2023-01-07T12:22:25.087Z</time>
      </trkpt>
      <trkpt lat="43.23907" lon="3.1103">
        <ele>63.568076</ele>
        <time>2023-01-07T12:22:28.085Z</time>
      </trkpt>
      <trkpt lat="43.23915" lon="3.11018">
        <ele>63.589813</ele>
        <time>2023-01-07T12:22:31.094Z</time>
      </trkpt>
      <trkpt lat="43.23921" lon="3.11004">
        <ele>63.611077</ele>
        <time>2023-01-07T12:22:34.096Z</time>
      </trkpt>
      <trkpt lat="43.23928" lon="3.10993">
        <ele>63.631236</ele>
        <time>2023-01-07T12:22:37.096Z</time>
      </trkpt>
      <trkpt lat="43.23937" lon="3.10981">
        <ele>63.654421</ele>
        <time>2023-01-07T12:22:40.074Z</time>
      </trkpt>
      <trkpt lat="43.23944" lon="3.10966">
        <ele>63.677723</ele>
        <time>2023-01-07T12:22:43.090Z</time>
      </trkpt>
      <trkpt lat="43.23952" lon="3.10953">
        <ele>63.388728</ele>
        <time>2023-01-07T12:22:46.086Z</time>
      </trkpt>
      <trkpt lat="43.23958" lon="3.10943">
        <ele>63.164864</ele>
        <time>2023-01-07T12:22:48.088Z</time>
      </trkpt>
      <trkpt lat="43.23966" lon="3.1093">
        <ele>62.850559</ele>
        <time>2023-01-07T12:22:51.078Z</time>
      </trkpt>
      <trkpt lat="43.23975" lon="3.10917">
        <ele>62.544041</ele>
        <time>2023-01-07T12:22:54.074Z</time>
      </trkpt>
      <trkpt lat="43.23983" lon="3.10905">
        <ele>62.250059</ele>
        <time>2023-01-07T12:22:57.072Z</time>
      </trkpt>
      <trkpt lat="43.23992" lon="3.10893">
        <ele>61.962015</ele>
        <time>2023-01-07T12:23:00.087Z</time>
      </trkpt>
      <trkpt lat="43.23999" lon="3.10882">
        <ele>61.689196</ele>
        <time>2023-01-07T12:23:03.074Z</time>
      </trkpt>
      <trkpt lat="43.24008" lon="3.10874">
        <ele>61.436311</ele>
        <time>2023-01-07T12:23:07.089Z</time>
      </trkpt>
      <trkpt lat="43.24016" lon="3.10877">
        <ele>61.209653</ele>
        <time>2023-01-07T12:23:11.079Z</time>
      </trkpt>
      <trkpt lat="43.24024" lon="3.10887">
        <ele>60.955505</ele>
        <time>2023-01-07T12:23:15.076Z</time>
      </trkpt>
      <trkpt lat="43.24032" lon="3.10896">
        <ele>60.705398</ele>
        <time>2023-01-07T12:23:18.096Z</time>
      </trkpt>
      <trkpt lat="43.24042" lon="3.10907">
        <ele>60.402434</ele>
        <time>2023-01-07T12:23:21.087Z</time>
      </trkpt>
      <trkpt lat="43.24049" lon="3.10916">
        <ele>60.169006</ele>
        <time>2023-01-07T12:23:23.084Z</time>
      </trkpt>
      <trkpt lat="43.24054" lon="3.10927">
        <ele>59.935606</ele>
        <time>2023-01-07T12:23:25.070Z</time>
      </trkpt>
      <trkpt lat="43.24059" lon="3.10938">
        <ele>59.706111</ele>
        <time>2023-01-07T12:23:27.080Z</time>
      </trkpt>
      <trkpt lat="43.24065" lon="3.10949">
        <ele>59.471126</ele>
        <time>2023-01-07T12:23:29.090Z</time>
      </trkpt>
      <trkpt lat="43.2407" lon="3.10959">
        <ele>59.227575</ele>
        <time>2023-01-07T12:23:31.081Z</time>
      </trkpt>
      <trkpt lat="43.24076" lon="3.10969">
        <ele>58.94814</ele>
        <time>2023-01-07T12:23:33.082Z</time>
      </trkpt>
      <trkpt lat="43.24081" lon="3.1098">
        <ele>58.66164</ele>
        <time>2023-01-07T12:23:35.073Z</time>
      </trkpt>
      <trkpt lat="43.24086" lon="3.10991">
        <ele>58.373672</ele>
        <time>2023-01-07T12:23:37.092Z</time>
      </trkpt>
      <trkpt lat="43.24089" lon="3.11003">
        <ele>58.095807</ele>
        <time>2023-01-07T12:23:39.085Z</time>
      </trkpt>
      <trkpt lat="43.24093" lon="3.11015">
        <ele>57.80248</ele>
        <time>2023-01-07T12:23:41.093Z</time>
      </trkpt>
      <trkpt lat="43.241" lon="3.11026">
        <ele>57.480119</ele>
        <time>2023-01-07T12:23:43.079Z</time>
      </trkpt>
      <trkpt lat="43.24107" lon="3.11036">
        <ele>57.182197</ele>
        <time>2023-01-07T12:23:45.091Z</time>
      </trkpt>
      <trkpt lat="43.24114" lon="3.11045">
        <ele>56.88559</ele>
        <time>2023-01-07T12:23:47.095Z</time>
      </trkpt>
      <trkpt lat="43.24123" lon="3.11058">
        <ele>56.469546</ele>
        <time>2023-01-07T12:23:50.100Z</time>
      </trkpt>
      <trkpt lat="43.24131" lon="3.11066">
        <ele>56.177715</ele>
        <time>2023-01-07T12:23:52.083Z</time>
      </trkpt>
      <trkpt lat="43.24141" lon="3.11074">
        <ele>55.839577</ele>
        <time>2023-01-07T12:23:54.093Z</time>
      </trkpt>
      <trkpt lat="43.24147" lon="3.11084">
        <ele>55.54483</ele>
        <time>2023-01-07T12:23:56.085Z</time>
      </trkpt>
      <trkpt lat="43.24155" lon="3.11098">
        <ele>55.151212</ele>
        <time>2023-01-07T12:23:59.093Z</time>
      </trkpt>
      <trkpt lat="43.24159" lon="3.11114">
        <ele>54.786956</ele>
        <time>2023-01-07T12:24:02.077Z</time>
      </trkpt>
      <trkpt lat="43.24163" lon="3.1113">
        <ele>54.396743</ele>
        <time>2023-01-07T12:24:05.077Z</time>
      </trkpt>
      <trkpt lat="43.24167" lon="3.11148">
        <ele>53.988119</ele>
        <time>2023-01-07T12:24:08.081Z</time>
      </trkpt>
      <trkpt lat="43.24171" lon="3.11167">
        <ele>53.837279</ele>
        <time>2023-01-07T12:24:11.082Z</time>
      </trkpt>
      <trkpt lat="43.24174" lon="3.11184">
        <ele>53.831639</ele>
        <time>2023-01-07T12:24:14.072Z</time>
      </trkpt>
      <trkpt lat="43.24177" lon="3.11201">
        <ele>53.826173</ele>
        <time>2023-01-07T12:24:17.087Z</time>
      </trkpt>
      <trkpt lat="43.2418" lon="3.11216">
        <ele>53.821281</ele>
        <time>2023-01-07T12:24:20.095Z</time>
      </trkpt>
      <trkpt lat="43.24182" lon="3.1123">
        <ele>53.816756</ele>
        <time>2023-01-07T12:24:23.102Z</time>
      </trkpt>
      <trkpt lat="43.24185" lon="3.11243">
        <ele>53.812472</ele>
        <time>2023-01-07T12:24:26.077Z</time>
      </trkpt>
      <trkpt lat="43.24188" lon="3.11257">
        <ele>53.807926</ele>
        <time>2023-01-07T12:24:29.072Z</time>
      </trkpt>
      <trkpt lat="43.24192" lon="3.1127">
        <ele>53.803383</ele>
        <time>2023-01-07T12:24:32.066Z</time>
      </trkpt>
      <trkpt lat="43.24194" lon="3.11283">
        <ele>53.799184</ele>
        <time>2023-01-07T12:24:35.091Z</time>
      </trkpt>
      <trkpt lat="43.24203" lon="3.11288">
        <ele>53.795186</ele>
        <time>2023-01-07T12:24:38.083Z</time>
      </trkpt>
      <trkpt lat="43.24212" lon="3.11278">
        <ele>53.790022</ele>
        <time>2023-01-07T12:24:42.081Z</time>
      </trkpt>
      <trkpt lat="43.24218" lon="3.11265">
        <ele>53.785029</ele>
        <time>2023-01-07T12:24:45.075Z</time>
      </trkpt>
      <trkpt lat="43.24225" lon="3.11251">
        <ele>53.779739</ele>
        <time>2023-01-07T12:24:48.078Z</time>
      </trkpt>
      <trkpt lat="43.24233" lon="3.1124">
        <ele>53.774827</ele>
        <time>2023-01-07T12:24:51.073Z</time>
      </trkpt>
      <trkpt lat="43.24241" lon="3.11229">
        <ele>53.770131</ele>
        <time>2023-01-07T12:24:54.074Z</time>
      </trkpt>
      <trkpt lat="43.24247" lon="3.11219">
        <ele>53.765667</ele>
        <time>2023-01-07T12:24:57.071Z</time>
      </trkpt>
      <trkpt lat="43.24254" lon="3.1121">
        <ele>53.74624</ele>
        <time>2023-01-07T12:25:00.079Z</time>
      </trkpt>
      <trkpt lat="43.24263" lon="3.11202">
        <ele>53.699681</ele>
        <time>2023-01-07T12:25:03.075Z</time>
      </trkpt>
      <trkpt lat="43.24272" lon="3.11195">
        <ele>53.649767</ele>
        <time>2023-01-07T12:25:06.088Z</time>
      </trkpt>
      <trkpt lat="43.24282" lon="3.11188">
        <ele>53.599828</ele>
        <time>2023-01-07T12:25:09.073Z</time>
      </trkpt>
      <trkpt lat="43.24291" lon="3.11182">
        <ele>53.554421</ele>
        <time>2023-01-07T12:25:12.076Z</time>
      </trkpt>
      <trkpt lat="43.24277" lon="3.11187">
        <ele>53.486325</ele>
        <time>2023-01-07T12:26:13.081Z</time>
      </trkpt>
      <trkpt lat="43.24267" lon="3.11194">
        <ele>53.437983</ele>
        <time>2023-01-07T12:26:16.091Z</time>
      </trkpt>
      <trkpt lat="43.24258" lon="3.11202">
        <ele>53.387807</ele>
        <time>2023-01-07T12:26:20.081Z</time>
      </trkpt>
      <trkpt lat="43.24251" lon="3.11213">
        <ele>53.342495</ele>
        <time>2023-01-07T12:26:24.082Z</time>
      </trkpt>
      <trkpt lat="43.24254" lon="3.11228">
        <ele>53.292823</ele>
        <time>2023-01-07T12:26:28.070Z</time>
      </trkpt>
      <trkpt lat="43.2426" lon="3.11241">
        <ele>53.239184</ele>
        <time>2023-01-07T12:26:32.076Z</time>
      </trkpt>
      <trkpt lat="43.24266" lon="3.11253">
        <ele>53.19545</ele>
        <time>2023-01-07T12:26:35.083Z</time>
      </trkpt>
      <trkpt lat="43.2427" lon="3.11264">
        <ele>53.153388</ele>
        <time>2023-01-07T12:26:38.083Z</time>
      </trkpt>
      <trkpt lat="43.24275" lon="3.11279">
        <ele>53.099151</ele>
        <time>2023-01-07T12:26:42.082Z</time>
      </trkpt>
      <trkpt lat="43.2428" lon="3.11291">
        <ele>53.053431</ele>
        <time>2023-01-07T12:26:45.090Z</time>
      </trkpt>
      <trkpt lat="43.24286" lon="3.11304">
        <ele>53.003997</ele>
        <time>2023-01-07T12:26:48.079Z</time>
      </trkpt>
      <trkpt lat="43.24292" lon="3.11317">
        <ele>52.955374</ele>
        <time>2023-01-07T12:26:51.084Z</time>
      </trkpt>
      <trkpt lat="43.24299" lon="3.11329">
        <ele>53.038456</ele>
        <time>2023-01-07T12:26:54.079Z</time>
      </trkpt>
      <trkpt lat="43.24305" lon="3.11339">
        <ele>53.110384</ele>
        <time>2023-01-07T12:26:57.092Z</time>
      </trkpt>
      <trkpt lat="43.24311" lon="3.11352">
        <ele>53.199325</ele>
        <time>2023-01-07T12:27:01.087Z</time>
      </trkpt>
      <trkpt lat="43.24318" lon="3.11362">
        <ele>53.277069</ele>
        <time>2023-01-07T12:27:04.093Z</time>
      </trkpt>
      <trkpt lat="43.24325" lon="3.11372">
        <ele>53.352022</ele>
        <time>2023-01-07T12:27:07.078Z</time>
      </trkpt>
      <trkpt lat="43.2433" lon="3.11383">
        <ele>53.427619</ele>
        <time>2023-01-07T12:27:10.079Z</time>
      </trkpt>
      <trkpt lat="43.24332" lon="3.11395">
        <ele>53.496547</ele>
        <time>2023-01-07T12:27:13.074Z</time>
      </trkpt>
      <trkpt lat="43.24332" lon="3.11411">
        <ele>53.582613</ele>
        <time>2023-01-07T12:27:17.074Z</time>
      </trkpt>
      <trkpt lat="43.2433" lon="3.11426">
        <ele>53.67218</ele>
        <time>2023-01-07T12:27:21.071Z</time>
      </trkpt>
      <trkpt lat="43.24329" lon="3.11439">
        <ele>53.741858</ele>
        <time>2023-01-07T12:27:24.093Z</time>
      </trkpt>
      <trkpt lat="43.24329" lon="3.11452">
        <ele>53.815168</ele>
        <time>2023-01-07T12:27:27.073Z</time>
      </trkpt>
      <trkpt lat="43.2433" lon="3.11465">
        <ele>53.890326</ele>
        <time>2023-01-07T12:27:30.073Z</time>
      </trkpt>
      <trkpt lat="43.24331" lon="3.11479">
        <ele>53.968495</ele>
        <time>2023-01-07T12:27:33.086Z</time>
      </trkpt>
      <trkpt lat="43.24333" lon="3.11492">
        <ele>54.040903</ele>
        <time>2023-01-07T12:27:36.073Z</time>
      </trkpt>
      <trkpt lat="43.24334" lon="3.11506">
        <ele>54.119174</ele>
        <time>2023-01-07T12:27:39.079Z</time>
      </trkpt>
      <trkpt lat="43.24336" lon="3.1152">
        <ele>54.197654</ele>
        <time>2023-01-07T12:27:42.078Z</time>
      </trkpt>
      <trkpt lat="43.24339" lon="3.11533">
        <ele>54.277946</ele>
        <time>2023-01-07T12:27:45.079Z</time>
      </trkpt>
      <trkpt lat="43.24345" lon="3.11544">
        <ele>54.320703</ele>
        <time>2023-01-07T12:27:48.084Z</time>
      </trkpt>
      <trkpt lat="43.24347" lon="3.11558">
        <ele>54.264848</ele>
        <time>2023-01-07T12:27:52.078Z</time>
      </trkpt>
      <trkpt lat="43.24343" lon="3.11573">
        <ele>54.205936</ele>
        <time>2023-01-07T12:27:57.087Z</time>
      </trkpt>
      <trkpt lat="43.24337" lon="3.11583">
        <ele>54.153429</ele>
        <time>2023-01-07T12:28:01.088Z</time>
      </trkpt>
      <trkpt lat="43.2433" lon="3.11595">
        <ele>54.097625</ele>
        <time>2023-01-07T12:28:05.087Z</time>
      </trkpt>
      <trkpt lat="43.24324" lon="3.11606">
        <ele>54.038965</ele>
        <time>2023-01-07T12:28:09.069Z</time>
      </trkpt>
      <trkpt lat="43.24318" lon="3.11618">
        <ele>53.983765</ele>
        <time>2023-01-07T12:28:13.087Z</time>
      </trkpt>
      <trkpt lat="43.24311" lon="3.11631">
        <ele>53.922665</ele>
        <time>2023-01-07T12:28:17.078Z</time>
      </trkpt>
      <trkpt lat="43.24305" lon="3.11643">
        <ele>53.86644</ele>
        <time>2023-01-07T12:28:21.084Z</time>
      </trkpt>
      <trkpt lat="43.24303" lon="3.11659">
        <ele>53.804192</ele>
        <time>2023-01-07T12:28:25.081Z</time>
      </trkpt>
      <trkpt lat="43.24303" lon="3.11675">
        <ele>53.74286</ele>
        <time>2023-01-07T12:28:29.094Z</time>
      </trkpt>
      <trkpt lat="43.24305" lon="3.11689">
        <ele>53.688593</ele>
        <time>2023-01-07T12:28:33.090Z</time>
      </trkpt>
      <trkpt lat="43.24307" lon="3.11702">
        <ele>53.638366</ele>
        <time>2023-01-07T12:28:37.081Z</time>
      </trkpt>
      <trkpt lat="43.24309" lon="3.11715">
        <ele>53.587602</ele>
        <time>2023-01-07T12:28:41.094Z</time>
      </trkpt>
      <trkpt lat="43.2431" lon="3.11729">
        <ele>53.530781</ele>
        <time>2023-01-07T12:28:45.086Z</time>
      </trkpt>
      <trkpt lat="43.24312" lon="3.11745">
        <ele>53.467979</ele>
        <time>2023-01-07T12:28:49.074Z</time>
      </trkpt>
      <trkpt lat="43.24314" lon="3.11761">
        <ele>53.406217</ele>
        <time>2023-01-07T12:28:53.072Z</time>
      </trkpt>
      <trkpt lat="43.24315" lon="3.11777">
        <ele>53.363746</ele>
        <time>2023-01-07T12:28:57.083Z</time>
      </trkpt>
      <trkpt lat="43.24315" lon="3.11792">
        <ele>53.334625</ele>
        <time>2023-01-07T12:29:01.073Z</time>
      </trkpt>
      <trkpt lat="43.24317" lon="3.11805">
        <ele>53.310961</ele>
        <time>2023-01-07T12:29:04.088Z</time>
      </trkpt>
      <trkpt lat="43.24317" lon="3.11818">
        <ele>53.286736</ele>
        <time>2023-01-07T12:29:07.074Z</time>
      </trkpt>
      <trkpt lat="43.24319" lon="3.1183">
        <ele>53.263458</ele>
        <time>2023-01-07T12:29:10.092Z</time>
      </trkpt>
      <trkpt lat="43.24321" lon="3.11846">
        <ele>53.233155</ele>
        <time>2023-01-07T12:29:14.071Z</time>
      </trkpt>
      <trkpt lat="43.24323" lon="3.11858">
        <ele>53.210085</ele>
        <time>2023-01-07T12:29:17.069Z</time>
      </trkpt>
      <trkpt lat="43.24328" lon="3.11872">
        <ele>53.180016</ele>
        <time>2023-01-07T12:29:21.084Z</time>
      </trkpt>
      <trkpt lat="43.24332" lon="3.11885">
        <ele>53.154459</ele>
        <time>2023-01-07T12:29:24.075Z</time>
      </trkpt>
      <trkpt lat="43.24337" lon="3.11896">
        <ele>53.129252</ele>
        <time>2023-01-07T12:29:27.072Z</time>
      </trkpt>
      <trkpt lat="43.24341" lon="3.11907">
        <ele>53.105281</ele>
        <time>2023-01-07T12:29:30.071Z</time>
      </trkpt>
      <trkpt lat="43.24346" lon="3.11921">
        <ele>53.076839</ele>
        <time>2023-01-07T12:29:34.079Z</time>
      </trkpt>
      <trkpt lat="43.24351" lon="3.11936">
        <ele>53.046435</ele>
        <time>2023-01-07T12:29:38.084Z</time>
      </trkpt>
      <trkpt lat="43.24356" lon="3.1195">
        <ele>53.01637</ele>
        <time>2023-01-07T12:29:42.086Z</time>
      </trkpt>
      <trkpt lat="43.24361" lon="3.11961">
        <ele>52.992389</ele>
        <time>2023-01-07T12:29:45.083Z</time>
      </trkpt>
      <trkpt lat="43.24369" lon="3.11969">
        <ele>52.966908</ele>
        <time>2023-01-07T12:29:48.083Z</time>
      </trkpt>
      <trkpt lat="43.24377" lon="3.11976">
        <ele>52.943626</ele>
        <time>2023-01-07T12:29:51.079Z</time>
      </trkpt>
      <trkpt lat="43.24387" lon="3.11984">
        <ele>52.910353</ele>
        <time>2023-01-07T12:29:55.072Z</time>
      </trkpt>
      <trkpt lat="43.24395" lon="3.11996">
        <ele>52.860899</ele>
        <time>2023-01-07T12:29:59.084Z</time>
      </trkpt>
      <trkpt lat="43.244" lon="3.12006">
        <ele>52.82181</ele>
        <time>2023-01-07T12:30:02.074Z</time>
      </trkpt>
      <trkpt lat="43.24406" lon="3.12016">
        <ele>52.781228</ele>
        <time>2023-01-07T12:30:05.074Z</time>
      </trkpt>
      <trkpt lat="43.24412" lon="3.12029">
        <ele>52.733591</ele>
        <time>2023-01-07T12:30:09.080Z</time>
      </trkpt>
      <trkpt lat="43.24417" lon="3.12043">
        <ele>52.686665</ele>
        <time>2023-01-07T12:30:13.077Z</time>
      </trkpt>
      <trkpt lat="43.2442" lon="3.12056">
        <ele>52.644822</ele>
        <time>2023-01-07T12:30:16.090Z</time>
      </trkpt>
      <trkpt lat="43.24423" lon="3.12069">
        <ele>52.601725</ele>
        <time>2023-01-07T12:30:19.073Z</time>
      </trkpt>
      <trkpt lat="43.24426" lon="3.12082">
        <ele>52.557059</ele>
        <time>2023-01-07T12:30:23.082Z</time>
      </trkpt>
      <trkpt lat="43.24431" lon="3.12095">
        <ele>52.512374</ele>
        <time>2023-01-07T12:30:27.091Z</time>
      </trkpt>
      <trkpt lat="43.24435" lon="3.12107">
        <ele>52.471701</ele>
        <time>2023-01-07T12:30:31.093Z</time>
      </trkpt>
      <trkpt lat="43.24442" lon="3.12119">
        <ele>52.427408</ele>
        <time>2023-01-07T12:30:35.076Z</time>
      </trkpt>
      <trkpt lat="43.24446" lon="3.12132">
        <ele>52.382084</ele>
        <time>2023-01-07T12:30:39.083Z</time>
      </trkpt>
      <trkpt lat="43.24451" lon="3.12145">
        <ele>52.335397</ele>
        <time>2023-01-07T12:30:43.078Z</time>
      </trkpt>
      <trkpt lat="43.24457" lon="3.12159">
        <ele>52.286781</ele>
        <time>2023-01-07T12:30:47.078Z</time>
      </trkpt>
      <trkpt lat="43.24462" lon="3.12172">
        <ele>52.240179</ele>
        <time>2023-01-07T12:30:51.081Z</time>
      </trkpt>
      <trkpt lat="43.24466" lon="3.12184">
        <ele>52.197948</ele>
        <time>2023-01-07T12:30:55.079Z</time>
      </trkpt>
      <trkpt lat="43.24471" lon="3.12195">
        <ele>52.158077</ele>
        <time>2023-01-07T12:30:59.069Z</time>
      </trkpt>
      <trkpt lat="43.2448" lon="3.12206">
        <ele>52.223017</ele>
        <time>2023-01-07T12:31:03.075Z</time>
      </trkpt>
      <trkpt lat="43.24486" lon="3.12215">
        <ele>52.283471</ele>
        <time>2023-01-07T12:31:06.084Z</time>
      </trkpt>
      <trkpt lat="43.24494" lon="3.12224">
        <ele>52.352621</ele>
        <time>2023-01-07T12:31:10.074Z</time>
      </trkpt>
      <trkpt lat="43.24502" lon="3.12233">
        <ele>52.416234</ele>
        <time>2023-01-07T12:31:13.072Z</time>
      </trkpt>
      <trkpt lat="43.2451" lon="3.1224">
        <ele>52.477781</ele>
        <time>2023-01-07T12:31:16.072Z</time>
      </trkpt>
      <trkpt lat="43.24518" lon="3.12249">
        <ele>52.545058</ele>
        <time>2023-01-07T12:31:20.078Z</time>
      </trkpt>
      <trkpt lat="43.24528" lon="3.12258">
        <ele>52.621929</ele>
        <time>2023-01-07T12:31:24.079Z</time>
      </trkpt>
      <trkpt lat="43.24538" lon="3.12266">
        <ele>52.701085</ele>
        <time>2023-01-07T12:31:28.073Z</time>
      </trkpt>
      <trkpt lat="43.24546" lon="3.12272">
        <ele>52.761091</ele>
        <time>2023-01-07T12:31:31.087Z</time>
      </trkpt>
      <trkpt lat="43.24556" lon="3.12279">
        <ele>52.8299</ele>
        <time>2023-01-07T12:31:35.078Z</time>
      </trkpt>
      <trkpt lat="43.24563" lon="3.12288">
        <ele>52.893216</ele>
        <time>2023-01-07T12:31:38.080Z</time>
      </trkpt>
      <trkpt lat="43.24572" lon="3.12297">
        <ele>52.96476</ele>
        <time>2023-01-07T12:31:41.080Z</time>
      </trkpt>
      <trkpt lat="43.24581" lon="3.12306">
        <ele>53.039218</ele>
        <time>2023-01-07T12:31:44.088Z</time>
      </trkpt>
      <trkpt lat="43.24591" lon="3.12314">
        <ele>53.115347</ele>
        <time>2023-01-07T12:31:47.095Z</time>
      </trkpt>
      <trkpt lat="43.246" lon="3.12323">
        <ele>53.186084</ele>
        <time>2023-01-07T12:31:50.084Z</time>
      </trkpt>
      <trkpt lat="43.24608" lon="3.12331">
        <ele>53.249329</ele>
        <time>2023-01-07T12:31:53.077Z</time>
      </trkpt>
      <trkpt lat="43.24615" lon="3.12338">
        <ele>53.31089</ele>
        <time>2023-01-07T12:31:56.080Z</time>
      </trkpt>
      <trkpt lat="43.24623" lon="3.12347">
        <ele>53.385822</ele>
        <time>2023-01-07T12:31:59.087Z</time>
      </trkpt>
      <trkpt lat="43.24631" lon="3.12358">
        <ele>53.469209</ele>
        <time>2023-01-07T12:32:02.087Z</time>
      </trkpt>
      <trkpt lat="43.24636" lon="3.12371">
        <ele>53.555827</ele>
        <time>2023-01-07T12:32:05.094Z</time>
      </trkpt>
      <trkpt lat="43.24641" lon="3.12385">
        <ele>53.643806</ele>
        <time>2023-01-07T12:32:08.088Z</time>
      </trkpt>
      <trkpt lat="43.24646" lon="3.12399">
        <ele>53.73045</ele>
        <time>2023-01-07T12:32:11.086Z</time>
      </trkpt>
      <trkpt lat="43.2465" lon="3.12411">
        <ele>53.80548</ele>
        <time>2023-01-07T12:32:14.092Z</time>
      </trkpt>
      <trkpt lat="43.24654" lon="3.12424">
        <ele>53.881678</ele>
        <time>2023-01-07T12:32:18.097Z</time>
      </trkpt>
      <trkpt lat="43.24653" lon="3.1244">
        <ele>53.971433</ele>
        <time>2023-01-07T12:32:44.087Z</time>
      </trkpt>
      <trkpt lat="43.24655" lon="3.12454">
        <ele>54.053712</ele>
        <time>2023-01-07T12:32:50.097Z</time>
      </trkpt>
      <trkpt lat="43.24657" lon="3.12466">
        <ele>54.126284</ele>
        <time>2023-01-07T12:32:54.076Z</time>
      </trkpt>
      <trkpt lat="43.24659" lon="3.1248">
        <ele>54.20609</ele>
        <time>2023-01-07T12:32:58.081Z</time>
      </trkpt>
      <trkpt lat="43.2466" lon="3.12495">
        <ele>54.28587</ele>
        <time>2023-01-07T12:33:02.080Z</time>
      </trkpt>
      <trkpt lat="43.24662" lon="3.1251">
        <ele>54.372358</ele>
        <time>2023-01-07T12:33:06.078Z</time>
      </trkpt>
      <trkpt lat="43.24662" lon="3.12526">
        <ele>54.462625</ele>
        <time>2023-01-07T12:33:10.097Z</time>
      </trkpt>
      <trkpt lat="43.24662" lon="3.12542">
        <ele>54.554432</ele>
        <time>2023-01-07T12:33:14.094Z</time>
      </trkpt>
      <trkpt lat="43.24661" lon="3.12555">
        <ele>54.625541</ele>
        <time>2023-01-07T12:33:17.094Z</time>
      </trkpt>
      <trkpt lat="43.24659" lon="3.12571">
        <ele>54.714563</ele>
        <time>2023-01-07T12:33:21.088Z</time>
      </trkpt>
      <trkpt lat="43.24656" lon="3.12583">
        <ele>54.584751</ele>
        <time>2023-01-07T12:33:24.083Z</time>
      </trkpt>
      <trkpt lat="43.24652" lon="3.12595">
        <ele>54.447199</ele>
        <time>2023-01-07T12:33:27.080Z</time>
      </trkpt>
      <trkpt lat="43.24648" lon="3.12609">
        <ele>54.301753</ele>
        <time>2023-01-07T12:33:30.094Z</time>
      </trkpt>
      <trkpt lat="43.24644" lon="3.12622">
        <ele>54.155486</ele>
        <time>2023-01-07T12:33:33.065Z</time>
      </trkpt>
      <trkpt lat="43.2464" lon="3.12638">
        <ele>53.987607</ele>
        <time>2023-01-07T12:33:36.085Z</time>
      </trkpt>
      <trkpt lat="43.24637" lon="3.12654">
        <ele>53.819727</ele>
        <time>2023-01-07T12:33:39.078Z</time>
      </trkpt>
      <trkpt lat="43.24635" lon="3.12671">
        <ele>53.646821</ele>
        <time>2023-01-07T12:33:42.088Z</time>
      </trkpt>
      <trkpt lat="43.24636" lon="3.12688">
        <ele>53.473575</ele>
        <time>2023-01-07T12:33:45.074Z</time>
      </trkpt>
      <trkpt lat="43.24637" lon="3.12705">
        <ele>53.305378</ele>
        <time>2023-01-07T12:33:48.070Z</time>
      </trkpt>
      <trkpt lat="43.24637" lon="3.1272">
        <ele>53.147426</ele>
        <time>2023-01-07T12:33:51.089Z</time>
      </trkpt>
      <trkpt lat="43.24636" lon="3.12735">
        <ele>52.996189</ele>
        <time>2023-01-07T12:33:54.081Z</time>
      </trkpt>
      <trkpt lat="43.24637" lon="3.1275">
        <ele>52.843944</ele>
        <time>2023-01-07T12:33:57.096Z</time>
      </trkpt>
      <trkpt lat="43.24638" lon="3.12766">
        <ele>52.687101</ele>
        <time>2023-01-07T12:34:00.086Z</time>
      </trkpt>
      <trkpt lat="43.24637" lon="3.12782">
        <ele>52.525159</ele>
        <time>2023-01-07T12:34:03.083Z</time>
      </trkpt>
      <trkpt lat="43.24636" lon="3.12797">
        <ele>52.36447</ele>
        <time>2023-01-07T12:34:06.094Z</time>
      </trkpt>
      <trkpt lat="43.24635" lon="3.12812">
        <ele>52.216357</ele>
        <time>2023-01-07T12:34:09.099Z</time>
      </trkpt>
      <trkpt lat="43.24634" lon="3.12825">
        <ele>52.136725</ele>
        <time>2023-01-07T12:34:12.092Z</time>
      </trkpt>
      <trkpt lat="43.24633" lon="3.12841">
        <ele>52.038988</ele>
        <time>2023-01-07T12:34:15.085Z</time>
      </trkpt>
      <trkpt lat="43.24633" lon="3.12854">
        <ele>51.955264</ele>
        <time>2023-01-07T12:34:18.091Z</time>
      </trkpt>
      <trkpt lat="43.24632" lon="3.12868">
        <ele>51.870259</ele>
        <time>2023-01-07T12:34:21.085Z</time>
      </trkpt>
      <trkpt lat="43.24632" lon="3.12882">
        <ele>51.783615</ele>
        <time>2023-01-07T12:34:24.078Z</time>
      </trkpt>
      <trkpt lat="43.24632" lon="3.12896">
        <ele>51.698748</ele>
        <time>2023-01-07T12:34:27.091Z</time>
      </trkpt>
      <trkpt lat="43.24631" lon="3.1291">
        <ele>51.61222</ele>
        <time>2023-01-07T12:34:30.077Z</time>
      </trkpt>
      <trkpt lat="43.24629" lon="3.12924">
        <ele>51.524552</ele>
        <time>2023-01-07T12:34:33.075Z</time>
      </trkpt>
      <trkpt lat="43.24624" lon="3.12938">
        <ele>51.433538</ele>
        <time>2023-01-07T12:34:36.079Z</time>
      </trkpt>
      <trkpt lat="43.24618" lon="3.12951">
        <ele>51.336138</ele>
        <time>2023-01-07T12:34:39.081Z</time>
      </trkpt>
      <trkpt lat="43.24611" lon="3.12964">
        <ele>51.239776</ele>
        <time>2023-01-07T12:34:42.079Z</time>
      </trkpt>
      <trkpt lat="43.24604" lon="3.12975">
        <ele>51.146593</ele>
        <time>2023-01-07T12:34:45.085Z</time>
      </trkpt>
      <trkpt lat="43.24596" lon="3.12987">
        <ele>51.049457</ele>
        <time>2023-01-07T12:34:48.077Z</time>
      </trkpt>
      <trkpt lat="43.24588" lon="3.12998">
        <ele>50.951541</ele>
        <time>2023-01-07T12:34:51.087Z</time>
      </trkpt>
      <trkpt lat="43.24581" lon="3.1301">
        <ele>50.853731</ele>
        <time>2023-01-07T12:34:54.088Z</time>
      </trkpt>
      <trkpt lat="43.24574" lon="3.13023">
        <ele>50.756865</ele>
        <time>2023-01-07T12:34:57.080Z</time>
      </trkpt>
      <trkpt lat="43.24568" lon="3.13036">
        <ele>50.638915</ele>
        <time>2023-01-07T12:35:00.084Z</time>
      </trkpt>
      <trkpt lat="43.24562" lon="3.1305">
        <ele>50.481524</ele>
        <time>2023-01-07T12:35:03.072Z</time>
      </trkpt>
      <trkpt lat="43.24556" lon="3.13064">
        <ele>50.314911</ele>
        <time>2023-01-07T12:35:06.084Z</time>
      </trkpt>
      <trkpt lat="43.24553" lon="3.13078">
        <ele>50.16846</ele>
        <time>2023-01-07T12:35:09.086Z</time>
      </trkpt>
      <trkpt lat="43.2455" lon="3.13093">
        <ele>50.017964</ele>
        <time>2023-01-07T12:35:12.074Z</time>
      </trkpt>
      <trkpt lat="43.24547" lon="3.13106">
        <ele>49.877617</ele>
        <time>2023-01-07T12:35:15.087Z</time>
      </trkpt>
      <trkpt lat="43.24543" lon="3.13121">
        <ele>49.721202</ele>
        <time>2023-01-07T12:35:18.086Z</time>
      </trkpt>
      <trkpt lat="43.24539" lon="3.13136">
        <ele>49.55691</ele>
        <time>2023-01-07T12:35:21.071Z</time>
      </trkpt>
      <trkpt lat="43.24534" lon="3.13149">
        <ele>49.408507</ele>
        <time>2023-01-07T12:35:24.080Z</time>
      </trkpt>
      <trkpt lat="43.24527" lon="3.13161">
        <ele>49.260698</ele>
        <time>2023-01-07T12:35:27.088Z</time>
      </trkpt>
      <trkpt lat="43.2452" lon="3.13171">
        <ele>49.120685</ele>
        <time>2023-01-07T12:35:30.084Z</time>
      </trkpt>
      <trkpt lat="43.24514" lon="3.13182">
        <ele>48.979169</ele>
        <time>2023-01-07T12:35:33.079Z</time>
      </trkpt>
      <trkpt lat="43.24508" lon="3.13192">
        <ele>48.850673</ele>
        <time>2023-01-07T12:35:36.075Z</time>
      </trkpt>
      <trkpt lat="43.24503" lon="3.13204">
        <ele>48.717975</ele>
        <time>2023-01-07T12:35:39.084Z</time>
      </trkpt>
      <trkpt lat="43.24498" lon="3.13216">
        <ele>48.579562</ele>
        <time>2023-01-07T12:35:42.095Z</time>
      </trkpt>
      <trkpt lat="43.24495" lon="3.13228">
        <ele>48.444618</ele>
        <time>2023-01-07T12:35:45.078Z</time>
      </trkpt>
      <trkpt lat="43.24491" lon="3.13241">
        <ele>48.307951</ele>
        <time>2023-01-07T12:35:48.082Z</time>
      </trkpt>
      <trkpt lat="43.24489" lon="3.13255">
        <ele>48.187331</ele>
        <time>2023-01-07T12:35:51.085Z</time>
      </trkpt>
      <trkpt lat="43.24486" lon="3.13269">
        <ele>48.084461</ele>
        <time>2023-01-07T12:35:54.100Z</time>
      </trkpt>
      <trkpt lat="43.24483" lon="3.13283">
        <ele>47.979669</ele>
        <time>2023-01-07T12:35:57.092Z</time>
      </trkpt>
      <trkpt lat="43.2448" lon="3.13297">
        <ele>47.875221</ele>
        <time>2023-01-07T12:36:00.094Z</time>
      </trkpt>
      <trkpt lat="43.24478" lon="3.13311">
        <ele>47.774156</ele>
        <time>2023-01-07T12:36:03.096Z</time>
      </trkpt>
      <trkpt lat="43.24475" lon="3.13326">
        <ele>47.664062</ele>
        <time>2023-01-07T12:36:06.084Z</time>
      </trkpt>
      <trkpt lat="43.24474" lon="3.1334">
        <ele>47.56085</ele>
        <time>2023-01-07T12:36:09.101Z</time>
      </trkpt>
      <trkpt lat="43.24471" lon="3.13354">
        <ele>47.459728</ele>
        <time>2023-01-07T12:36:12.083Z</time>
      </trkpt>
      <trkpt lat="43.24468" lon="3.13369">
        <ele>47.351399</ele>
        <time>2023-01-07T12:36:15.100Z</time>
      </trkpt>
      <trkpt lat="43.24466" lon="3.13383">
        <ele>47.244789</ele>
        <time>2023-01-07T12:36:18.076Z</time>
      </trkpt>
      <trkpt lat="43.24463" lon="3.13397">
        <ele>47.140255</ele>
        <time>2023-01-07T12:36:21.084Z</time>
      </trkpt>
      <trkpt lat="43.2446" lon="3.13412">
        <ele>47.035054</ele>
        <time>2023-01-07T12:36:24.092Z</time>
      </trkpt>
      <trkpt lat="43.24458" lon="3.13427">
        <ele>46.925862</ele>
        <time>2023-01-07T12:36:27.076Z</time>
      </trkpt>
      <trkpt lat="43.24456" lon="3.13442">
        <ele>46.815613</ele>
        <time>2023-01-07T12:36:30.092Z</time>
      </trkpt>
      <trkpt lat="43.24456" lon="3.13458">
        <ele>46.702313</ele>
        <time>2023-01-07T12:36:33.086Z</time>
      </trkpt>
      <trkpt lat="43.24457" lon="3.13473">
        <ele>46.592065</ele>
        <time>2023-01-07T12:36:36.077Z</time>
      </trkpt>
      <trkpt lat="43.2446" lon="3.13488">
        <ele>46.485356</ele>
        <time>2023-01-07T12:36:39.088Z</time>
      </trkpt>
      <trkpt lat="43.24462" lon="3.13503">
        <ele>46.543621</ele>
        <time>2023-01-07T12:36:42.073Z</time>
      </trkpt>
      <trkpt lat="43.24464" lon="3.1352">
        <ele>46.622907</ele>
        <time>2023-01-07T12:36:45.091Z</time>
      </trkpt>
      <trkpt lat="43.24465" lon="3.13538">
        <ele>46.702489</ele>
        <time>2023-01-07T12:36:48.075Z</time>
      </trkpt>
      <trkpt lat="43.24467" lon="3.13554">
        <ele>46.779125</ele>
        <time>2023-01-07T12:36:51.086Z</time>
      </trkpt>
      <trkpt lat="43.24468" lon="3.13571">
        <ele>46.856962</ele>
        <time>2023-01-07T12:36:54.092Z</time>
      </trkpt>
      <trkpt lat="43.24468" lon="3.13589">
        <ele>46.937857</ele>
        <time>2023-01-07T12:36:57.098Z</time>
      </trkpt>
      <trkpt lat="43.24467" lon="3.13606">
        <ele>47.016965</ele>
        <time>2023-01-07T12:37:00.078Z</time>
      </trkpt>
      <trkpt lat="43.24467" lon="3.13623">
        <ele>47.097882</ele>
        <time>2023-01-07T12:37:03.092Z</time>
      </trkpt>
      <trkpt lat="43.24467" lon="3.13641">
        <ele>47.1783</ele>
        <time>2023-01-07T12:37:06.078Z</time>
      </trkpt>
      <trkpt lat="43.24468" lon="3.13658">
        <ele>47.255573</ele>
        <time>2023-01-07T12:37:09.095Z</time>
      </trkpt>
      <trkpt lat="43.24468" lon="3.13675">
        <ele>47.333672</ele>
        <time>2023-01-07T12:37:12.087Z</time>
      </trkpt>
      <trkpt lat="43.24467" lon="3.13692">
        <ele>47.411793</ele>
        <time>2023-01-07T12:37:15.075Z</time>
      </trkpt>
      <trkpt lat="43.24467" lon="3.13709">
        <ele>47.490851</ele>
        <time>2023-01-07T12:37:18.075Z</time>
      </trkpt>
      <trkpt lat="43.24467" lon="3.13726">
        <ele>47.569432</ele>
        <time>2023-01-07T12:37:21.096Z</time>
      </trkpt>
      <trkpt lat="43.24467" lon="3.13743">
        <ele>47.629594</ele>
        <time>2023-01-07T12:37:24.075Z</time>
      </trkpt>
      <trkpt lat="43.24467" lon="3.1376">
        <ele>47.669221</ele>
        <time>2023-01-07T12:37:27.096Z</time>
      </trkpt>
      <trkpt lat="43.24467" lon="3.13777">
        <ele>47.709115</ele>
        <time>2023-01-07T12:37:30.094Z</time>
      </trkpt>
      <trkpt lat="43.24467" lon="3.13794">
        <ele>47.749224</ele>
        <time>2023-01-07T12:37:33.083Z</time>
      </trkpt>
      <trkpt lat="43.24468" lon="3.13809">
        <ele>47.786458</ele>
        <time>2023-01-07T12:37:36.096Z</time>
      </trkpt>
      <trkpt lat="43.24468" lon="3.13823">
        <ele>47.819258</ele>
        <time>2023-01-07T12:37:39.080Z</time>
      </trkpt>
      <trkpt lat="43.24466" lon="3.13837">
        <ele>47.851457</ele>
        <time>2023-01-07T12:37:42.088Z</time>
      </trkpt>
      <trkpt lat="43.24461" lon="3.13848">
        <ele>47.883617</ele>
        <time>2023-01-07T12:37:45.073Z</time>
      </trkpt>
      <trkpt lat="43.24458" lon="3.13863">
        <ele>47.919994</ele>
        <time>2023-01-07T12:37:48.076Z</time>
      </trkpt>
      <trkpt lat="43.24455" lon="3.13878">
        <ele>47.957055</ele>
        <time>2023-01-07T12:37:51.093Z</time>
      </trkpt>
      <trkpt lat="43.24453" lon="3.13892">
        <ele>47.990769</ele>
        <time>2023-01-07T12:37:54.104Z</time>
      </trkpt>
      <trkpt lat="43.24449" lon="3.13907">
        <ele>48.027899</ele>
        <time>2023-01-07T12:37:57.071Z</time>
      </trkpt>
      <trkpt lat="43.24446" lon="3.13922">
        <ele>48.065475</ele>
        <time>2023-01-07T12:38:00.090Z</time>
      </trkpt>
      <trkpt lat="43.24443" lon="3.13937">
        <ele>48.101256</ele>
        <time>2023-01-07T12:38:03.095Z</time>
      </trkpt>
      <trkpt lat="43.2444" lon="3.13952">
        <ele>48.137551</ele>
        <time>2023-01-07T12:38:06.083Z</time>
      </trkpt>
      <trkpt lat="43.24437" lon="3.13967">
        <ele>48.173385</ele>
        <time>2023-01-07T12:38:09.090Z</time>
      </trkpt>
      <trkpt lat="43.24435" lon="3.13981">
        <ele>48.228391</ele>
        <time>2023-01-07T12:38:12.087Z</time>
      </trkpt>
      <trkpt lat="43.24433" lon="3.13995">
        <ele>48.316021</ele>
        <time>2023-01-07T12:38:15.081Z</time>
      </trkpt>
      <trkpt lat="43.24431" lon="3.1401">
        <ele>48.405488</ele>
        <time>2023-01-07T12:38:18.079Z</time>
      </trkpt>
      <trkpt lat="43.24429" lon="3.14026">
        <ele>48.498304</ele>
        <time>2023-01-07T12:38:21.097Z</time>
      </trkpt>
      <trkpt lat="43.24428" lon="3.14042">
        <ele>48.594637</ele>
        <time>2023-01-07T12:38:24.088Z</time>
      </trkpt>
      <trkpt lat="43.24426" lon="3.14058">
        <ele>48.693411</ele>
        <time>2023-01-07T12:38:27.107Z</time>
      </trkpt>
      <trkpt lat="43.24423" lon="3.14075">
        <ele>48.79097</ele>
        <time>2023-01-07T12:38:30.085Z</time>
      </trkpt>
      <trkpt lat="43.24421" lon="3.14091">
        <ele>48.891332</ele>
        <time>2023-01-07T12:38:33.102Z</time>
      </trkpt>
      <trkpt lat="43.24419" lon="3.14108">
        <ele>48.99271</ele>
        <time>2023-01-07T12:38:36.081Z</time>
      </trkpt>
      <trkpt lat="43.24416" lon="3.14125">
        <ele>49.092067</ele>
        <time>2023-01-07T12:38:39.091Z</time>
      </trkpt>
      <trkpt lat="43.24413" lon="3.14141">
        <ele>49.192325</ele>
        <time>2023-01-07T12:38:42.079Z</time>
      </trkpt>
      <trkpt lat="43.2441" lon="3.14158">
        <ele>49.295616</ele>
        <time>2023-01-07T12:38:45.088Z</time>
      </trkpt>
      <trkpt lat="43.24408" lon="3.14175">
        <ele>49.396871</ele>
        <time>2023-01-07T12:38:48.084Z</time>
      </trkpt>
      <trkpt lat="43.24405" lon="3.1419">
        <ele>49.489542</ele>
        <time>2023-01-07T12:38:51.086Z</time>
      </trkpt>
      <trkpt lat="43.24403" lon="3.14206">
        <ele>49.581794</ele>
        <time>2023-01-07T12:38:54.102Z</time>
      </trkpt>
      <trkpt lat="43.24401" lon="3.14222">
        <ele>49.653834</ele>
        <time>2023-01-07T12:38:57.101Z</time>
      </trkpt>
      <trkpt lat="43.24399" lon="3.14236">
        <ele>49.662174</ele>
        <time>2023-01-07T12:39:00.082Z</time>
      </trkpt>
      <trkpt lat="43.24398" lon="3.1425">
        <ele>49.670906</ele>
        <time>2023-01-07T12:39:03.083Z</time>
      </trkpt>
      <trkpt lat="43.24396" lon="3.14266">
        <ele>49.680069</ele>
        <time>2023-01-07T12:39:06.082Z</time>
      </trkpt>
      <trkpt lat="43.24393" lon="3.1428">
        <ele>49.688602</ele>
        <time>2023-01-07T12:39:09.086Z</time>
      </trkpt>
      <trkpt lat="43.2439" lon="3.14294">
        <ele>49.696985</ele>
        <time>2023-01-07T12:39:12.080Z</time>
      </trkpt>
      <trkpt lat="43.24387" lon="3.14309">
        <ele>49.706211</ele>
        <time>2023-01-07T12:39:15.092Z</time>
      </trkpt>
      <trkpt lat="43.24385" lon="3.14324">
        <ele>49.715447</ele>
        <time>2023-01-07T12:39:18.098Z</time>
      </trkpt>
      <trkpt lat="43.24381" lon="3.14339">
        <ele>49.724793</ele>
        <time>2023-01-07T12:39:21.087Z</time>
      </trkpt>
      <trkpt lat="43.24378" lon="3.14354">
        <ele>49.734019</ele>
        <time>2023-01-07T12:39:24.081Z</time>
      </trkpt>
      <trkpt lat="43.24374" lon="3.14369">
        <ele>49.743142</ele>
        <time>2023-01-07T12:39:27.083Z</time>
      </trkpt>
      <trkpt lat="43.2437" lon="3.14382">
        <ele>49.751108</ele>
        <time>2023-01-07T12:39:30.098Z</time>
      </trkpt>
      <trkpt lat="43.24366" lon="3.14394">
        <ele>49.758831</ele>
        <time>2023-01-07T12:39:33.084Z</time>
      </trkpt>
      <trkpt lat="43.24361" lon="3.14406">
        <ele>49.76739</ele>
        <time>2023-01-07T12:39:36.089Z</time>
      </trkpt>
      <trkpt lat="43.24355" lon="3.14419">
        <ele>49.776227</ele>
        <time>2023-01-07T12:39:39.084Z</time>
      </trkpt>
      <trkpt lat="43.24349" lon="3.14432">
        <ele>49.785271</ele>
        <time>2023-01-07T12:39:42.078Z</time>
      </trkpt>
      <trkpt lat="43.24343" lon="3.14445">
        <ele>49.794485</ele>
        <time>2023-01-07T12:39:45.094Z</time>
      </trkpt>
      <trkpt lat="43.24337" lon="3.14459">
        <ele>49.777092</ele>
        <time>2023-01-07T12:39:48.084Z</time>
      </trkpt>
      <trkpt lat="43.24331" lon="3.14473">
        <ele>49.755713</ele>
        <time>2023-01-07T12:39:51.077Z</time>
      </trkpt>
      <trkpt lat="43.24327" lon="3.14486">
        <ele>49.736356</ele>
        <time>2023-01-07T12:39:54.078Z</time>
      </trkpt>
      <trkpt lat="43.24323" lon="3.145">
        <ele>49.715566</ele>
        <time>2023-01-07T12:39:57.077Z</time>
      </trkpt>
      <trkpt lat="43.2432" lon="3.14516">
        <ele>49.693285</ele>
        <time>2023-01-07T12:40:00.080Z</time>
      </trkpt>
      <trkpt lat="43.24318" lon="3.14532">
        <ele>49.670187</ele>
        <time>2023-01-07T12:40:03.077Z</time>
      </trkpt>
      <trkpt lat="43.24315" lon="3.14548">
        <ele>49.647855</ele>
        <time>2023-01-07T12:40:06.082Z</time>
      </trkpt>
      <trkpt lat="43.24313" lon="3.14564">
        <ele>49.626325</ele>
        <time>2023-01-07T12:40:09.081Z</time>
      </trkpt>
      <trkpt lat="43.24309" lon="3.14578">
        <ele>49.605723</ele>
        <time>2023-01-07T12:40:12.092Z</time>
      </trkpt>
      <trkpt lat="43.24306" lon="3.1459">
        <ele>49.588475</ele>
        <time>2023-01-07T12:40:15.090Z</time>
      </trkpt>
      <trkpt lat="43.24303" lon="3.14602">
        <ele>49.57134</ele>
        <time>2023-01-07T12:40:18.082Z</time>
      </trkpt>
      <trkpt lat="43.24299" lon="3.14614">
        <ele>49.553513</ele>
        <time>2023-01-07T12:40:21.074Z</time>
      </trkpt>
      <trkpt lat="43.24295" lon="3.14628">
        <ele>49.53235</ele>
        <time>2023-01-07T12:40:25.088Z</time>
      </trkpt>
      <trkpt lat="43.24291" lon="3.14639">
        <ele>49.515449</ele>
        <time>2023-01-07T12:40:28.091Z</time>
      </trkpt>
      <trkpt lat="43.24285" lon="3.14651">
        <ele>49.496762</ele>
        <time>2023-01-07T12:40:31.100Z</time>
      </trkpt>
      <trkpt lat="43.24279" lon="3.14662">
        <ele>49.477119</ele>
        <time>2023-01-07T12:40:34.080Z</time>
      </trkpt>
      <trkpt lat="43.24272" lon="3.14673">
        <ele>49.456342</ele>
        <time>2023-01-07T12:40:37.081Z</time>
      </trkpt>
      <trkpt lat="43.24264" lon="3.14685">
        <ele>49.43161</ele>
        <time>2023-01-07T12:40:40.091Z</time>
      </trkpt>
      <trkpt lat="43.24257" lon="3.14697">
        <ele>49.405715</ele>
        <time>2023-01-07T12:40:43.083Z</time>
      </trkpt>
      <trkpt lat="43.2425" lon="3.1471">
        <ele>49.379815</ele>
        <time>2023-01-07T12:40:46.084Z</time>
      </trkpt>
      <trkpt lat="43.24243" lon="3.14722">
        <ele>49.355355</ele>
        <time>2023-01-07T12:40:49.086Z</time>
      </trkpt>
      <trkpt lat="43.24237" lon="3.14733">
        <ele>49.333373</ele>
        <time>2023-01-07T12:40:53.085Z</time>
      </trkpt>
      <trkpt lat="43.24228" lon="3.14744">
        <ele>49.305409</ele>
        <time>2023-01-07T12:41:01.091Z</time>
      </trkpt>
      <trkpt lat="43.2422" lon="3.14753">
        <ele>49.282782</ele>
        <time>2023-01-07T12:41:05.086Z</time>
      </trkpt>
      <trkpt lat="43.24212" lon="3.14759">
        <ele>49.262731</ele>
        <time>2023-01-07T12:41:09.079Z</time>
      </trkpt>
      <trkpt lat="43.24207" lon="3.14776">
        <ele>49.234136</ele>
        <time>2023-01-07T12:41:12.087Z</time>
      </trkpt>
      <trkpt lat="43.24202" lon="3.14787">
        <ele>49.213203</ele>
        <time>2023-01-07T12:41:15.079Z</time>
      </trkpt>
      <trkpt lat="43.24196" lon="3.14796">
        <ele>49.192509</ele>
        <time>2023-01-07T12:41:18.075Z</time>
      </trkpt>
      <trkpt lat="43.24189" lon="3.14806">
        <ele>49.171305</ele>
        <time>2023-01-07T12:41:21.086Z</time>
      </trkpt>
      <trkpt lat="43.24182" lon="3.14816">
        <ele>49.147329</ele>
        <time>2023-01-07T12:41:24.077Z</time>
      </trkpt>
      <trkpt lat="43.24174" lon="3.14826">
        <ele>49.124171</ele>
        <time>2023-01-07T12:41:27.077Z</time>
      </trkpt>
      <trkpt lat="43.24166" lon="3.14835">
        <ele>49.101393</ele>
        <time>2023-01-07T12:41:30.098Z</time>
      </trkpt>
      <trkpt lat="43.24159" lon="3.14845">
        <ele>49.078331</ele>
        <time>2023-01-07T12:41:33.089Z</time>
      </trkpt>
      <trkpt lat="43.24153" lon="3.14854">
        <ele>49.064339</ele>
        <time>2023-01-07T12:41:36.094Z</time>
      </trkpt>
      <trkpt lat="43.24145" lon="3.14865">
        <ele>49.166266</ele>
        <time>2023-01-07T12:41:40.095Z</time>
      </trkpt>
      <trkpt lat="43.24139" lon="3.14876">
        <ele>49.254154</ele>
        <time>2023-01-07T12:41:44.091Z</time>
      </trkpt>
      <trkpt lat="43.24146" lon="3.14889">
        <ele>49.359974</ele>
        <time>2023-01-07T12:41:49.080Z</time>
      </trkpt>
      <trkpt lat="43.24155" lon="3.14899">
        <ele>49.4585</ele>
        <time>2023-01-07T12:41:52.098Z</time>
      </trkpt>
      <trkpt lat="43.24163" lon="3.1491">
        <ele>49.567042</ele>
        <time>2023-01-07T12:41:55.092Z</time>
      </trkpt>
      <trkpt lat="43.24172" lon="3.1492">
        <ele>49.674085</ele>
        <time>2023-01-07T12:41:58.078Z</time>
      </trkpt>
      <trkpt lat="43.2418" lon="3.1493">
        <ele>49.76554</ele>
        <time>2023-01-07T12:42:01.083Z</time>
      </trkpt>
      <trkpt lat="43.24188" lon="3.14939">
        <ele>49.858489</ele>
        <time>2023-01-07T12:42:04.079Z</time>
      </trkpt>
      <trkpt lat="43.24196" lon="3.14949">
        <ele>49.955489</ele>
        <time>2023-01-07T12:42:07.081Z</time>
      </trkpt>
      <trkpt lat="43.24204" lon="3.14961">
        <ele>50.065246</ele>
        <time>2023-01-07T12:42:10.075Z</time>
      </trkpt>
      <trkpt lat="43.24213" lon="3.14971">
        <ele>50.17383</ele>
        <time>2023-01-07T12:42:13.077Z</time>
      </trkpt>
      <trkpt lat="43.24222" lon="3.14982">
        <ele>50.27971</ele>
        <time>2023-01-07T12:42:16.084Z</time>
      </trkpt>
      <trkpt lat="43.24232" lon="3.14993">
        <ele>50.390356</ele>
        <time>2023-01-07T12:42:19.076Z</time>
      </trkpt>
      <trkpt lat="43.24241" lon="3.15004">
        <ele>50.500008</ele>
        <time>2023-01-07T12:42:22.093Z</time>
      </trkpt>
      <trkpt lat="43.24249" lon="3.15016">
        <ele>50.610591</ele>
        <time>2023-01-07T12:42:25.084Z</time>
      </trkpt>
      <trkpt lat="43.24258" lon="3.15028">
        <ele>50.699228</ele>
        <time>2023-01-07T12:42:28.097Z</time>
      </trkpt>
      <trkpt lat="43.24267" lon="3.15038">
        <ele>50.746754</ele>
        <time>2023-01-07T12:42:31.098Z</time>
      </trkpt>
      <trkpt lat="43.24275" lon="3.15049">
        <ele>50.792574</ele>
        <time>2023-01-07T12:42:34.085Z</time>
      </trkpt>
      <trkpt lat="43.24284" lon="3.1506">
        <ele>50.83887</ele>
        <time>2023-01-07T12:42:37.087Z</time>
      </trkpt>
      <trkpt lat="43.24293" lon="3.15071">
        <ele>50.886623</ele>
        <time>2023-01-07T12:42:40.081Z</time>
      </trkpt>
      <trkpt lat="43.24302" lon="3.15083">
        <ele>50.935247</ele>
        <time>2023-01-07T12:42:43.089Z</time>
      </trkpt>
      <trkpt lat="43.24312" lon="3.15094">
        <ele>50.9843</ele>
        <time>2023-01-07T12:42:46.098Z</time>
      </trkpt>
      <trkpt lat="43.24321" lon="3.15105">
        <ele>51.033025</ele>
        <time>2023-01-07T12:42:49.080Z</time>
      </trkpt>
      <trkpt lat="43.2433" lon="3.15117">
        <ele>51.081456</ele>
        <time>2023-01-07T12:42:52.084Z</time>
      </trkpt>
      <trkpt lat="43.2434" lon="3.15128">
        <ele>51.13242</ele>
        <time>2023-01-07T12:42:55.098Z</time>
      </trkpt>
      <trkpt lat="43.24349" lon="3.15141">
        <ele>51.183874</ele>
        <time>2023-01-07T12:42:58.090Z</time>
      </trkpt>
      <trkpt lat="43.24358" lon="3.15154">
        <ele>51.235023</ele>
        <time>2023-01-07T12:43:01.088Z</time>
      </trkpt>
      <trkpt lat="43.24367" lon="3.15166">
        <ele>51.286798</ele>
        <time>2023-01-07T12:43:04.082Z</time>
      </trkpt>
      <trkpt lat="43.24374" lon="3.15182">
        <ele>51.339168</ele>
        <time>2023-01-07T12:43:07.087Z</time>
      </trkpt>
      <trkpt lat="43.24382" lon="3.15196">
        <ele>51.390319</ele>
        <time>2023-01-07T12:43:10.086Z</time>
      </trkpt>
      <trkpt lat="43.2439" lon="3.1521">
        <ele>51.280941</ele>
        <time>2023-01-07T12:43:13.080Z</time>
      </trkpt>
      <trkpt lat="43.24397" lon="3.15222">
        <ele>51.174253</ele>
        <time>2023-01-07T12:43:16.077Z</time>
      </trkpt>
      <trkpt lat="43.24404" lon="3.15233">
        <ele>51.079392</ele>
        <time>2023-01-07T12:43:19.076Z</time>
      </trkpt>
      <trkpt lat="43.2441" lon="3.15245">
        <ele>50.982435</ele>
        <time>2023-01-07T12:43:22.077Z</time>
      </trkpt>
      <trkpt lat="43.24416" lon="3.15255">
        <ele>50.893889</ele>
        <time>2023-01-07T12:43:25.079Z</time>
      </trkpt>
      <trkpt lat="43.24424" lon="3.15267">
        <ele>50.789695</ele>
        <time>2023-01-07T12:43:28.086Z</time>
      </trkpt>
      <trkpt lat="43.24431" lon="3.15279">
        <ele>50.680719</ele>
        <time>2023-01-07T12:43:31.084Z</time>
      </trkpt>
      <trkpt lat="43.24439" lon="3.15291">
        <ele>50.574909</ele>
        <time>2023-01-07T12:43:34.076Z</time>
      </trkpt>
      <trkpt lat="43.24445" lon="3.15304">
        <ele>50.474219</ele>
        <time>2023-01-07T12:43:37.074Z</time>
      </trkpt>
      <trkpt lat="43.24445" lon="3.15317">
        <ele>50.383806</ele>
        <time>2023-01-07T12:43:41.090Z</time>
      </trkpt>
      <trkpt lat="43.24437" lon="3.15326">
        <ele>50.289069</ele>
        <time>2023-01-07T12:43:44.093Z</time>
      </trkpt>
      <trkpt lat="43.24431" lon="3.15337">
        <ele>50.19397</ele>
        <time>2023-01-07T12:43:47.087Z</time>
      </trkpt>
      <trkpt lat="43.24423" lon="3.15346">
        <ele>50.104828</ele>
        <time>2023-01-07T12:43:50.090Z</time>
      </trkpt>
      <trkpt lat="43.24416" lon="3.15357">
        <ele>50.007766</ele>
        <time>2023-01-07T12:43:53.089Z</time>
      </trkpt>
      <trkpt lat="43.24409" lon="3.15369">
        <ele>49.904162</ele>
        <time>2023-01-07T12:43:56.088Z</time>
      </trkpt>
      <trkpt lat="43.24402" lon="3.15382">
        <ele>49.795892</ele>
        <time>2023-01-07T12:43:59.092Z</time>
      </trkpt>
      <trkpt lat="43.24397" lon="3.15397">
        <ele>49.707237</ele>
        <time>2023-01-07T12:44:02.096Z</time>
      </trkpt>
      <trkpt lat="43.24392" lon="3.15412">
        <ele>49.64319</ele>
        <time>2023-01-07T12:44:05.084Z</time>
      </trkpt>
      <trkpt lat="43.24391" lon="3.15428">
        <ele>49.577849</ele>
        <time>2023-01-07T12:44:08.084Z</time>
      </trkpt>
      <trkpt lat="43.2439" lon="3.15445">
        <ele>49.510697</ele>
        <time>2023-01-07T12:44:11.081Z</time>
      </trkpt>
      <trkpt lat="43.24388" lon="3.15462">
        <ele>49.442178</ele>
        <time>2023-01-07T12:44:14.091Z</time>
      </trkpt>
      <trkpt lat="43.24387" lon="3.1548">
        <ele>49.372536</ele>
        <time>2023-01-07T12:44:17.090Z</time>
      </trkpt>
      <trkpt lat="43.24386" lon="3.15498">
        <ele>49.301274</ele>
        <time>2023-01-07T12:44:20.099Z</time>
      </trkpt>
      <trkpt lat="43.24386" lon="3.15516">
        <ele>49.231522</ele>
        <time>2023-01-07T12:44:23.078Z</time>
      </trkpt>
      <trkpt lat="43.24384" lon="3.15533">
        <ele>49.162747</ele>
        <time>2023-01-07T12:44:26.080Z</time>
      </trkpt>
      <trkpt lat="43.24383" lon="3.15551">
        <ele>49.093154</ele>
        <time>2023-01-07T12:44:29.117Z</time>
      </trkpt>
      <trkpt lat="43.24382" lon="3.15569">
        <ele>49.022033</ele>
        <time>2023-01-07T12:44:32.115Z</time>
      </trkpt>
      <trkpt lat="43.24382" lon="3.15587">
        <ele>48.950322</ele>
        <time>2023-01-07T12:44:35.090Z</time>
      </trkpt>
      <trkpt lat="43.24383" lon="3.15605">
        <ele>48.879594</ele>
        <time>2023-01-07T12:44:38.079Z</time>
      </trkpt>
      <trkpt lat="43.24383" lon="3.15623">
        <ele>48.809021</ele>
        <time>2023-01-07T12:44:41.087Z</time>
      </trkpt>
      <trkpt lat="43.24384" lon="3.1564">
        <ele>48.781115</ele>
        <time>2023-01-07T12:44:44.090Z</time>
      </trkpt>
      <trkpt lat="43.24385" lon="3.15658">
        <ele>48.818343</ele>
        <time>2023-01-07T12:44:47.106Z</time>
      </trkpt>
      <trkpt lat="43.24385" lon="3.15675">
        <ele>48.855376</ele>
        <time>2023-01-07T12:44:50.097Z</time>
      </trkpt>
      <trkpt lat="43.24387" lon="3.15692">
        <ele>48.892882</ele>
        <time>2023-01-07T12:44:53.082Z</time>
      </trkpt>
      <trkpt lat="43.24387" lon="3.1571">
        <ele>48.931175</ele>
        <time>2023-01-07T12:44:56.084Z</time>
      </trkpt>
      <trkpt lat="43.24388" lon="3.15728">
        <ele>48.968766</ele>
        <time>2023-01-07T12:44:59.088Z</time>
      </trkpt>
      <trkpt lat="43.24389" lon="3.15746">
        <ele>49.006652</ele>
        <time>2023-01-07T12:45:02.084Z</time>
      </trkpt>
      <trkpt lat="43.24389" lon="3.15763">
        <ele>49.044464</ele>
        <time>2023-01-07T12:45:05.078Z</time>
      </trkpt>
      <trkpt lat="43.24389" lon="3.15781">
        <ele>49.082713</ele>
        <time>2023-01-07T12:45:08.094Z</time>
      </trkpt>
      <trkpt lat="43.2439" lon="3.15799">
        <ele>49.120108</ele>
        <time>2023-01-07T12:45:11.085Z</time>
      </trkpt>
      <trkpt lat="43.2439" lon="3.15817">
        <ele>49.158334</ele>
        <time>2023-01-07T12:45:14.103Z</time>
      </trkpt>
      <trkpt lat="43.2439" lon="3.15834">
        <ele>49.195924</ele>
        <time>2023-01-07T12:45:17.082Z</time>
      </trkpt>
      <trkpt lat="43.24391" lon="3.15849">
        <ele>49.228465</ele>
        <time>2023-01-07T12:45:20.093Z</time>
      </trkpt>
      <trkpt lat="43.24392" lon="3.15862">
        <ele>49.255923</ele>
        <time>2023-01-07T12:45:23.083Z</time>
      </trkpt>
      <trkpt lat="43.24392" lon="3.15876">
        <ele>49.28475</ele>
        <time>2023-01-07T12:45:26.084Z</time>
      </trkpt>
      <trkpt lat="43.24393" lon="3.1589">
        <ele>49.246115</ele>
        <time>2023-01-07T12:45:29.089Z</time>
      </trkpt>
      <trkpt lat="43.24396" lon="3.15906">
        <ele>49.174727</ele>
        <time>2023-01-07T12:45:32.096Z</time>
      </trkpt>
      <trkpt lat="43.244" lon="3.15921">
        <ele>49.101555</ele>
        <time>2023-01-07T12:45:35.099Z</time>
      </trkpt>
      <trkpt lat="43.24405" lon="3.15935">
        <ele>49.029875</ele>
        <time>2023-01-07T12:45:38.086Z</time>
      </trkpt>
      <trkpt lat="43.2441" lon="3.1595">
        <ele>48.95343</ele>
        <time>2023-01-07T12:45:41.076Z</time>
      </trkpt>
      <trkpt lat="43.24415" lon="3.15966">
        <ele>48.874401</ele>
        <time>2023-01-07T12:45:44.083Z</time>
      </trkpt>
      <trkpt lat="43.24419" lon="3.15982">
        <ele>48.796927</ele>
        <time>2023-01-07T12:45:47.088Z</time>
      </trkpt>
      <trkpt lat="43.24424" lon="3.15997">
        <ele>48.722403</ele>
        <time>2023-01-07T12:45:50.080Z</time>
      </trkpt>
      <trkpt lat="43.24428" lon="3.16013">
        <ele>48.646031</ele>
        <time>2023-01-07T12:45:53.078Z</time>
      </trkpt>
      <trkpt lat="43.24431" lon="3.16029">
        <ele>48.572137</ele>
        <time>2023-01-07T12:45:56.092Z</time>
      </trkpt>
      <trkpt lat="43.24432" lon="3.16043">
        <ele>48.506069</ele>
        <time>2023-01-07T12:45:59.097Z</time>
      </trkpt>
      <trkpt lat="43.24433" lon="3.16057">
        <ele>48.440979</ele>
        <time>2023-01-07T12:46:02.092Z</time>
      </trkpt>
      <trkpt lat="43.24435" lon="3.16072">
        <ele>48.375815</ele>
        <time>2023-01-07T12:46:05.081Z</time>
      </trkpt>
      <trkpt lat="43.24436" lon="3.16086">
        <ele>48.30741</ele>
        <time>2023-01-07T12:46:08.085Z</time>
      </trkpt>
      <trkpt lat="43.24438" lon="3.16101">
        <ele>48.238833</ele>
        <time>2023-01-07T12:46:11.082Z</time>
      </trkpt>
      <trkpt lat="43.24439" lon="3.16117">
        <ele>48.164589</ele>
        <time>2023-01-07T12:46:14.091Z</time>
      </trkpt>
      <trkpt lat="43.24441" lon="3.16134">
        <ele>48.078201</ele>
        <time>2023-01-07T12:46:17.093Z</time>
      </trkpt>
      <trkpt lat="43.24443" lon="3.1615">
        <ele>47.992102</ele>
        <time>2023-01-07T12:46:20.089Z</time>
      </trkpt>
      <trkpt lat="43.24444" lon="3.16166">
        <ele>47.910531</ele>
        <time>2023-01-07T12:46:23.083Z</time>
      </trkpt>
      <trkpt lat="43.24445" lon="3.16181">
        <ele>47.829602</ele>
        <time>2023-01-07T12:46:26.095Z</time>
      </trkpt>
      <trkpt lat="43.24447" lon="3.16196">
        <ele>47.749607</ele>
        <time>2023-01-07T12:46:29.099Z</time>
      </trkpt>
      <trkpt lat="43.24448" lon="3.16212">
        <ele>47.668991</ele>
        <time>2023-01-07T12:46:32.079Z</time>
      </trkpt>
      <trkpt lat="43.24449" lon="3.16228">
        <ele>47.585974</ele>
        <time>2023-01-07T12:46:35.086Z</time>
      </trkpt>
      <trkpt lat="43.2445" lon="3.16244">
        <ele>47.501398</ele>
        <time>2023-01-07T12:46:38.091Z</time>
      </trkpt>
      <trkpt lat="43.2445" lon="3.1626">
        <ele>47.415454</ele>
        <time>2023-01-07T12:46:41.087Z</time>
      </trkpt>
      <trkpt lat="43.24449" lon="3.16276">
        <ele>47.331398</ele>
        <time>2023-01-07T12:46:44.085Z</time>
      </trkpt>
      <trkpt lat="43.24448" lon="3.16292">
        <ele>47.248403</ele>
        <time>2023-01-07T12:46:47.084Z</time>
      </trkpt>
      <trkpt lat="43.24445" lon="3.16308">
        <ele>47.164363</ele>
        <time>2023-01-07T12:46:50.101Z</time>
      </trkpt>
      <trkpt lat="43.24442" lon="3.16323">
        <ele>47.081823</ele>
        <time>2023-01-07T12:46:53.100Z</time>
      </trkpt>
      <trkpt lat="43.24439" lon="3.16339">
        <ele>46.996088</ele>
        <time>2023-01-07T12:46:56.087Z</time>
      </trkpt>
      <trkpt lat="43.24436" lon="3.16355">
        <ele>46.908156</ele>
        <time>2023-01-07T12:46:59.092Z</time>
      </trkpt>
      <trkpt lat="43.24432" lon="3.16371">
        <ele>46.943236</ele>
        <time>2023-01-07T12:47:02.108Z</time>
      </trkpt>
      <trkpt lat="43.24428" lon="3.16387">
        <ele>47.022476</ele>
        <time>2023-01-07T12:47:05.092Z</time>
      </trkpt>
      <trkpt lat="43.24425" lon="3.16403">
        <ele>47.10175</ele>
        <time>2023-01-07T12:47:08.089Z</time>
      </trkpt>
      <trkpt lat="43.24423" lon="3.16416">
        <ele>47.171071</ele>
        <time>2023-01-07T12:47:11.086Z</time>
      </trkpt>
      <trkpt lat="43.24421" lon="3.16429">
        <ele>47.232489</ele>
        <time>2023-01-07T12:47:14.090Z</time>
      </trkpt>
      <trkpt lat="43.24418" lon="3.16442">
        <ele>47.301274</ele>
        <time>2023-01-07T12:47:18.081Z</time>
      </trkpt>
      <trkpt lat="43.24414" lon="3.16463">
        <ele>47.402833</ele>
        <time>2023-01-07T12:53:35.140Z</time>
      </trkpt>
      <trkpt lat="43.24412" lon="3.16475">
        <ele>47.465977</ele>
        <time>2023-01-07T12:53:39.082Z</time>
      </trkpt>
      <trkpt lat="43.2441" lon="3.16491">
        <ele>47.545456</ele>
        <time>2023-01-07T12:53:43.089Z</time>
      </trkpt>
      <trkpt lat="43.24409" lon="3.16505">
        <ele>47.611736</ele>
        <time>2023-01-07T12:53:46.093Z</time>
      </trkpt>
      <trkpt lat="43.24407" lon="3.16519">
        <ele>47.684015</ele>
        <time>2023-01-07T12:53:49.098Z</time>
      </trkpt>
      <trkpt lat="43.24405" lon="3.16534">
        <ele>47.75714</ele>
        <time>2023-01-07T12:53:52.088Z</time>
      </trkpt>
      <trkpt lat="43.24403" lon="3.16549">
        <ele>47.832468</ele>
        <time>2023-01-07T12:53:55.087Z</time>
      </trkpt>
      <trkpt lat="43.24401" lon="3.16564">
        <ele>47.905473</ele>
        <time>2023-01-07T12:53:58.082Z</time>
      </trkpt>
      <trkpt lat="43.24398" lon="3.16576">
        <ele>47.966147</ele>
        <time>2023-01-07T12:54:01.084Z</time>
      </trkpt>
      <trkpt lat="43.24395" lon="3.16588">
        <ele>48.029652</ele>
        <time>2023-01-07T12:54:04.085Z</time>
      </trkpt>
      <trkpt lat="43.24391" lon="3.16602">
        <ele>48.096281</ele>
        <time>2023-01-07T12:54:07.084Z</time>
      </trkpt>
      <trkpt lat="43.2439" lon="3.16618">
        <ele>48.145404</ele>
        <time>2023-01-07T12:54:10.089Z</time>
      </trkpt>
      <trkpt lat="43.24391" lon="3.16633">
        <ele>48.191302</ele>
        <time>2023-01-07T12:54:13.087Z</time>
      </trkpt>
      <trkpt lat="43.24391" lon="3.16645">
        <ele>48.229757</ele>
        <time>2023-01-07T12:54:16.081Z</time>
      </trkpt>
      <trkpt lat="43.24391" lon="3.16659">
        <ele>48.27097</ele>
        <time>2023-01-07T12:54:19.074Z</time>
      </trkpt>
      <trkpt lat="43.24391" lon="3.16673">
        <ele>48.31373</ele>
        <time>2023-01-07T12:54:22.081Z</time>
      </trkpt>
      <trkpt lat="43.24391" lon="3.16687">
        <ele>48.358336</ele>
        <time>2023-01-07T12:54:25.096Z</time>
      </trkpt>
      <trkpt lat="43.24391" lon="3.16702">
        <ele>48.402625</ele>
        <time>2023-01-07T12:54:28.085Z</time>
      </trkpt>
      <trkpt lat="43.2439" lon="3.16716">
        <ele>48.447769</ele>
        <time>2023-01-07T12:54:31.077Z</time>
      </trkpt>
      <trkpt lat="43.24389" lon="3.1673">
        <ele>48.490467</ele>
        <time>2023-01-07T12:54:34.085Z</time>
      </trkpt>
      <trkpt lat="43.24388" lon="3.16744">
        <ele>48.533658</ele>
        <time>2023-01-07T12:54:37.088Z</time>
      </trkpt>
      <trkpt lat="43.24388" lon="3.16757">
        <ele>48.572722</ele>
        <time>2023-01-07T12:54:40.079Z</time>
      </trkpt>
      <trkpt lat="43.24388" lon="3.16769">
        <ele>48.611792</ele>
        <time>2023-01-07T12:54:43.083Z</time>
      </trkpt>
      <trkpt lat="43.24388" lon="3.16782">
        <ele>48.652092</ele>
        <time>2023-01-07T12:54:46.091Z</time>
      </trkpt>
      <trkpt lat="43.24387" lon="3.16796">
        <ele>48.695095</ele>
        <time>2023-01-07T12:54:49.085Z</time>
      </trkpt>
      <trkpt lat="43.24385" lon="3.16809">
        <ele>48.733873</ele>
        <time>2023-01-07T12:54:52.081Z</time>
      </trkpt>
      <trkpt lat="43.24385" lon="3.16822">
        <ele>48.773278</ele>
        <time>2023-01-07T12:54:55.079Z</time>
      </trkpt>
      <trkpt lat="43.24384" lon="3.16836">
        <ele>48.816389</ele>
        <time>2023-01-07T12:54:58.089Z</time>
      </trkpt>
      <trkpt lat="43.24383" lon="3.1685">
        <ele>48.829035</ele>
        <time>2023-01-07T12:55:01.077Z</time>
      </trkpt>
      <trkpt lat="43.24383" lon="3.16865">
        <ele>48.781705</ele>
        <time>2023-01-07T12:55:04.094Z</time>
      </trkpt>
      <trkpt lat="43.24382" lon="3.16879">
        <ele>48.732355</ele>
        <time>2023-01-07T12:55:07.098Z</time>
      </trkpt>
      <trkpt lat="43.24382" lon="3.16893">
        <ele>48.686083</ele>
        <time>2023-01-07T12:55:10.086Z</time>
      </trkpt>
      <trkpt lat="43.24381" lon="3.16907">
        <ele>48.641306</ele>
        <time>2023-01-07T12:55:13.098Z</time>
      </trkpt>
      <trkpt lat="43.2438" lon="3.16921">
        <ele>48.593336</ele>
        <time>2023-01-07T12:55:16.081Z</time>
      </trkpt>
      <trkpt lat="43.24379" lon="3.16936">
        <ele>48.542297</ele>
        <time>2023-01-07T12:55:19.089Z</time>
      </trkpt>
      <trkpt lat="43.24377" lon="3.16952">
        <ele>48.490987</ele>
        <time>2023-01-07T12:55:22.079Z</time>
      </trkpt>
      <trkpt lat="43.24376" lon="3.16967">
        <ele>48.437445</ele>
        <time>2023-01-07T12:55:25.086Z</time>
      </trkpt>
      <trkpt lat="43.24374" lon="3.16983">
        <ele>48.385875</ele>
        <time>2023-01-07T12:55:28.091Z</time>
      </trkpt>
      <trkpt lat="43.24372" lon="3.16996">
        <ele>48.341517</ele>
        <time>2023-01-07T12:55:31.085Z</time>
      </trkpt>
      <trkpt lat="43.2437" lon="3.17009">
        <ele>48.295708</ele>
        <time>2023-01-07T12:55:34.078Z</time>
      </trkpt>
      <trkpt lat="43.24369" lon="3.17024">
        <ele>48.247353</ele>
        <time>2023-01-07T12:55:37.103Z</time>
      </trkpt>
      <trkpt lat="43.24368" lon="3.17039">
        <ele>48.19742</ele>
        <time>2023-01-07T12:55:40.098Z</time>
      </trkpt>
      <trkpt lat="43.24367" lon="3.17052">
        <ele>48.154103</ele>
        <time>2023-01-07T12:55:43.079Z</time>
      </trkpt>
      <trkpt lat="43.24366" lon="3.17065">
        <ele>48.110306</ele>
        <time>2023-01-07T12:55:46.084Z</time>
      </trkpt>
      <trkpt lat="43.24366" lon="3.17077">
        <ele>48.067595</ele>
        <time>2023-01-07T12:55:49.080Z</time>
      </trkpt>
      <trkpt lat="43.24369" lon="3.17092">
        <ele>48.025704</ele>
        <time>2023-01-07T12:55:53.072Z</time>
      </trkpt>
      <trkpt lat="43.24368" lon="3.17106">
        <ele>48.033008</ele>
        <time>2023-01-07T12:55:56.082Z</time>
      </trkpt>
      <trkpt lat="43.24369" lon="3.17121">
        <ele>48.04122</ele>
        <time>2023-01-07T12:55:59.079Z</time>
      </trkpt>
      <trkpt lat="43.2437" lon="3.17137">
        <ele>48.049768</ele>
        <time>2023-01-07T12:56:02.080Z</time>
      </trkpt>
      <trkpt lat="43.2437" lon="3.17154">
        <ele>48.058565</ele>
        <time>2023-01-07T12:56:05.077Z</time>
      </trkpt>
      <trkpt lat="43.24371" lon="3.1717">
        <ele>48.067385</ele>
        <time>2023-01-07T12:56:08.079Z</time>
      </trkpt>
      <trkpt lat="43.24372" lon="3.17188">
        <ele>48.076523</ele>
        <time>2023-01-07T12:56:11.080Z</time>
      </trkpt>
      <trkpt lat="43.24373" lon="3.17204">
        <ele>48.085077</ele>
        <time>2023-01-07T12:56:14.079Z</time>
      </trkpt>
      <trkpt lat="43.24374" lon="3.17219">
        <ele>48.093413</ele>
        <time>2023-01-07T12:56:17.088Z</time>
      </trkpt>
      <trkpt lat="43.24375" lon="3.17235">
        <ele>48.101689</ele>
        <time>2023-01-07T12:56:20.076Z</time>
      </trkpt>
      <trkpt lat="43.24377" lon="3.1725">
        <ele>48.110167</ele>
        <time>2023-01-07T12:56:23.089Z</time>
      </trkpt>
      <trkpt lat="43.2438" lon="3.17265">
        <ele>48.118312</ele>
        <time>2023-01-07T12:56:26.085Z</time>
      </trkpt>
      <trkpt lat="43.24382" lon="3.1728">
        <ele>48.126337</ele>
        <time>2023-01-07T12:56:29.092Z</time>
      </trkpt>
      <trkpt lat="43.24385" lon="3.17295">
        <ele>48.134623</ele>
        <time>2023-01-07T12:56:32.076Z</time>
      </trkpt>
      <trkpt lat="43.24388" lon="3.17309">
        <ele>48.142601</ele>
        <time>2023-01-07T12:56:35.098Z</time>
      </trkpt>
      <trkpt lat="43.24391" lon="3.17322">
        <ele>48.149786</ele>
        <time>2023-01-07T12:56:38.086Z</time>
      </trkpt>
      <trkpt lat="43.24394" lon="3.17336">
        <ele>48.161846</ele>
        <time>2023-01-07T12:56:41.089Z</time>
      </trkpt>
      <trkpt lat="43.24396" lon="3.17351">
        <ele>48.195818</ele>
        <time>2023-01-07T12:56:44.085Z</time>
      </trkpt>
      <trkpt lat="43.24398" lon="3.17367">
        <ele>48.229378</ele>
        <time>2023-01-07T12:56:47.108Z</time>
      </trkpt>
      <trkpt lat="43.244" lon="3.17382">
        <ele>48.262565</ele>
        <time>2023-01-07T12:56:50.095Z</time>
      </trkpt>
      <trkpt lat="43.24403" lon="3.17396">
        <ele>48.294792</ele>
        <time>2023-01-07T12:56:53.094Z</time>
      </trkpt>
      <trkpt lat="43.24405" lon="3.1741">
        <ele>48.326171</ele>
        <time>2023-01-07T12:56:56.087Z</time>
      </trkpt>
      <trkpt lat="43.24408" lon="3.17425">
        <ele>48.35846</ele>
        <time>2023-01-07T12:56:59.095Z</time>
      </trkpt>
      <trkpt lat="43.24409" lon="3.1744">
        <ele>48.392447</ele>
        <time>2023-01-07T12:57:02.097Z</time>
      </trkpt>
      <trkpt lat="43.24411" lon="3.17456">
        <ele>48.425442</ele>
        <time>2023-01-07T12:57:05.100Z</time>
      </trkpt>
      <trkpt lat="43.24413" lon="3.17471">
        <ele>48.458864</ele>
        <time>2023-01-07T12:57:08.089Z</time>
      </trkpt>
      <trkpt lat="43.24413" lon="3.17486">
        <ele>48.492248</ele>
        <time>2023-01-07T12:57:11.081Z</time>
      </trkpt>
      <trkpt lat="43.24414" lon="3.17501">
        <ele>48.524717</ele>
        <time>2023-01-07T12:57:14.086Z</time>
      </trkpt>
      <trkpt lat="43.24413" lon="3.17515">
        <ele>48.554609</ele>
        <time>2023-01-07T12:57:17.092Z</time>
      </trkpt>
      <trkpt lat="43.24411" lon="3.17529">
        <ele>48.58634</ele>
        <time>2023-01-07T12:57:21.099Z</time>
      </trkpt>
      <trkpt lat="43.24414" lon="3.17544">
        <ele>48.619308</ele>
        <time>2023-01-07T12:57:25.079Z</time>
      </trkpt>
      <trkpt lat="43.24422" lon="3.17552">
        <ele>48.648736</ele>
        <time>2023-01-07T12:57:28.077Z</time>
      </trkpt>
      <trkpt lat="43.24431" lon="3.17561">
        <ele>48.681661</ele>
        <time>2023-01-07T12:57:31.077Z</time>
      </trkpt>
      <trkpt lat="43.24439" lon="3.17573">
        <ele>48.683212</ele>
        <time>2023-01-07T12:57:34.081Z</time>
      </trkpt>
      <trkpt lat="43.24448" lon="3.17584">
        <ele>48.674121</ele>
        <time>2023-01-07T12:57:37.079Z</time>
      </trkpt>
      <trkpt lat="43.24456" lon="3.17595">
        <ele>48.665474</ele>
        <time>2023-01-07T12:57:40.087Z</time>
      </trkpt>
      <trkpt lat="43.24464" lon="3.17606">
        <ele>48.65668</ele>
        <time>2023-01-07T12:57:43.088Z</time>
      </trkpt>
      <trkpt lat="43.24473" lon="3.17617">
        <ele>48.647666</ele>
        <time>2023-01-07T12:57:46.072Z</time>
      </trkpt>
      <trkpt lat="43.24482" lon="3.17628">
        <ele>48.638103</ele>
        <time>2023-01-07T12:57:49.083Z</time>
      </trkpt>
      <trkpt lat="43.24493" lon="3.17638">
        <ele>48.628216</ele>
        <time>2023-01-07T12:57:52.083Z</time>
      </trkpt>
      <trkpt lat="43.24504" lon="3.17648">
        <ele>48.618329</ele>
        <time>2023-01-07T12:57:55.082Z</time>
      </trkpt>
      <trkpt lat="43.24514" lon="3.17656">
        <ele>48.608832</ele>
        <time>2023-01-07T12:57:58.091Z</time>
      </trkpt>
      <trkpt lat="43.24525" lon="3.17665">
        <ele>48.59938</ele>
        <time>2023-01-07T12:58:01.089Z</time>
      </trkpt>
      <trkpt lat="43.24536" lon="3.17673">
        <ele>48.590049</ele>
        <time>2023-01-07T12:58:04.092Z</time>
      </trkpt>
      <trkpt lat="43.24546" lon="3.17682">
        <ele>48.580654</ele>
        <time>2023-01-07T12:58:07.086Z</time>
      </trkpt>
      <trkpt lat="43.24558" lon="3.1769">
        <ele>48.570881</ele>
        <time>2023-01-07T12:58:10.098Z</time>
      </trkpt>
      <trkpt lat="43.24569" lon="3.17699">
        <ele>48.561015</ele>
        <time>2023-01-07T12:58:13.155Z</time>
      </trkpt>
      <trkpt lat="43.2458" lon="3.17706">
        <ele>48.548299</ele>
        <time>2023-01-07T12:58:16.095Z</time>
      </trkpt>
      <trkpt lat="43.24591" lon="3.17716">
        <ele>48.51586</ele>
        <time>2023-01-07T12:58:19.085Z</time>
      </trkpt>
      <trkpt lat="43.24601" lon="3.17724">
        <ele>48.484017</ele>
        <time>2023-01-07T12:58:22.097Z</time>
      </trkpt>
      <trkpt lat="43.24612" lon="3.17733">
        <ele>48.452105</ele>
        <time>2023-01-07T12:58:25.088Z</time>
      </trkpt>
      <trkpt lat="43.24622" lon="3.17741">
        <ele>48.419872</ele>
        <time>2023-01-07T12:58:28.080Z</time>
      </trkpt>
      <trkpt lat="43.24633" lon="3.17749">
        <ele>48.387866</ele>
        <time>2023-01-07T12:58:31.083Z</time>
      </trkpt>
      <trkpt lat="43.24643" lon="3.17757">
        <ele>48.356638</ele>
        <time>2023-01-07T12:58:34.080Z</time>
      </trkpt>
      <trkpt lat="43.24654" lon="3.17765">
        <ele>48.325693</ele>
        <time>2023-01-07T12:58:37.086Z</time>
      </trkpt>
      <trkpt lat="43.24664" lon="3.17773">
        <ele>48.294748</ele>
        <time>2023-01-07T12:58:40.084Z</time>
      </trkpt>
      <trkpt lat="43.24675" lon="3.17781">
        <ele>48.262792</ele>
        <time>2023-01-07T12:58:43.087Z</time>
      </trkpt>
      <trkpt lat="43.24685" lon="3.17789">
        <ele>48.231241</ele>
        <time>2023-01-07T12:58:46.085Z</time>
      </trkpt>
      <trkpt lat="43.24696" lon="3.17798">
        <ele>48.198363</ele>
        <time>2023-01-07T12:58:49.094Z</time>
      </trkpt>
      <trkpt lat="43.24707" lon="3.17806">
        <ele>48.165855</ele>
        <time>2023-01-07T12:58:52.087Z</time>
      </trkpt>
      <trkpt lat="43.24717" lon="3.17815">
        <ele>48.133689</ele>
        <time>2023-01-07T12:58:55.090Z</time>
      </trkpt>
      <trkpt lat="43.24728" lon="3.17824">
        <ele>48.101122</ele>
        <time>2023-01-07T12:58:58.093Z</time>
      </trkpt>
      <trkpt lat="43.24738" lon="3.17834">
        <ele>48.054832</ele>
        <time>2023-01-07T12:59:01.085Z</time>
      </trkpt>
      <trkpt lat="43.24747" lon="3.17846">
        <ele>47.989051</ele>
        <time>2023-01-07T12:59:04.095Z</time>
      </trkpt>
      <trkpt lat="43.24755" lon="3.17857">
        <ele>47.926459</ele>
        <time>2023-01-07T12:59:07.105Z</time>
      </trkpt>
      <trkpt lat="43.24763" lon="3.17867">
        <ele>47.870412</ele>
        <time>2023-01-07T12:59:10.088Z</time>
      </trkpt>
      <trkpt lat="43.2477" lon="3.17877">
        <ele>47.819867</ele>
        <time>2023-01-07T12:59:13.098Z</time>
      </trkpt>
      <trkpt lat="43.24777" lon="3.17888">
        <ele>47.761398</ele>
        <time>2023-01-07T12:59:17.100Z</time>
      </trkpt>
      <trkpt lat="43.24785" lon="3.17897">
        <ele>47.70963</ele>
        <time>2023-01-07T12:59:22.081Z</time>
      </trkpt>
      <trkpt lat="43.24793" lon="3.17906">
        <ele>47.654163</ele>
        <time>2023-01-07T12:59:26.092Z</time>
      </trkpt>
      <trkpt lat="43.248" lon="3.17914">
        <ele>47.606055</ele>
        <time>2023-01-07T12:59:29.081Z</time>
      </trkpt>
      <trkpt lat="43.24808" lon="3.17922">
        <ele>47.553334</ele>
        <time>2023-01-07T12:59:32.079Z</time>
      </trkpt>
      <trkpt lat="43.24816" lon="3.17931">
        <ele>47.498426</ele>
        <time>2023-01-07T12:59:35.080Z</time>
      </trkpt>
      <trkpt lat="43.24824" lon="3.17941">
        <ele>47.442379</ele>
        <time>2023-01-07T12:59:38.083Z</time>
      </trkpt>
      <trkpt lat="43.24831" lon="3.17951">
        <ele>47.389628</ele>
        <time>2023-01-07T12:59:41.080Z</time>
      </trkpt>
      <trkpt lat="43.24838" lon="3.17962">
        <ele>47.333078</ele>
        <time>2023-01-07T12:59:44.085Z</time>
      </trkpt>
      <trkpt lat="43.24844" lon="3.17972">
        <ele>47.281808</ele>
        <time>2023-01-07T12:59:47.094Z</time>
      </trkpt>
      <trkpt lat="43.24849" lon="3.17984">
        <ele>47.229916</ele>
        <time>2023-01-07T12:59:50.085Z</time>
      </trkpt>
      <trkpt lat="43.24857" lon="3.17995">
        <ele>47.172506</ele>
        <time>2023-01-07T12:59:53.083Z</time>
      </trkpt>
      <trkpt lat="43.24863" lon="3.18006">
        <ele>47.145174</ele>
        <time>2023-01-07T12:59:56.101Z</time>
      </trkpt>
      <trkpt lat="43.2487" lon="3.18018">
        <ele>47.192872</ele>
        <time>2023-01-07T12:59:59.102Z</time>
      </trkpt>
      <trkpt lat="43.24877" lon="3.1803">
        <ele>47.240797</ele>
        <time>2023-01-07T13:00:02.086Z</time>
      </trkpt>
      <trkpt lat="43.24884" lon="3.18043">
        <ele>47.29127</ele>
        <time>2023-01-07T13:00:05.099Z</time>
      </trkpt>
      <trkpt lat="43.24891" lon="3.18056">
        <ele>47.340744</ele>
        <time>2023-01-07T13:00:08.087Z</time>
      </trkpt>
      <trkpt lat="43.24898" lon="3.18069">
        <ele>47.39173</ele>
        <time>2023-01-07T13:00:11.086Z</time>
      </trkpt>
      <trkpt lat="43.24905" lon="3.18081">
        <ele>47.443638</ele>
        <time>2023-01-07T13:00:14.100Z</time>
      </trkpt>
      <trkpt lat="43.24912" lon="3.18095">
        <ele>47.49592</ele>
        <time>2023-01-07T13:00:17.091Z</time>
      </trkpt>
      <trkpt lat="43.24919" lon="3.18109">
        <ele>47.54881</ele>
        <time>2023-01-07T13:00:20.136Z</time>
      </trkpt>
      <trkpt lat="43.24924" lon="3.18124">
        <ele>47.601685</ele>
        <time>2023-01-07T13:00:23.097Z</time>
      </trkpt>
      <trkpt lat="43.24929" lon="3.18139">
        <ele>47.653788</ele>
        <time>2023-01-07T13:00:26.090Z</time>
      </trkpt>
      <trkpt lat="43.24935" lon="3.18155">
        <ele>47.708634</ele>
        <time>2023-01-07T13:00:29.094Z</time>
      </trkpt>
      <trkpt lat="43.24941" lon="3.1817">
        <ele>47.763198</ele>
        <time>2023-01-07T13:00:32.083Z</time>
      </trkpt>
      <trkpt lat="43.24946" lon="3.18186">
        <ele>47.81757</ele>
        <time>2023-01-07T13:00:35.085Z</time>
      </trkpt>
      <trkpt lat="43.24952" lon="3.18201">
        <ele>47.87133</ele>
        <time>2023-01-07T13:00:38.095Z</time>
      </trkpt>
      <trkpt lat="43.24957" lon="3.18216">
        <ele>47.901429</ele>
        <time>2023-01-07T13:00:41.088Z</time>
      </trkpt>
      <trkpt lat="43.24963" lon="3.18231">
        <ele>47.868394</ele>
        <time>2023-01-07T13:00:44.093Z</time>
      </trkpt>
      <trkpt lat="43.24968" lon="3.18247">
        <ele>47.833693</ele>
        <time>2023-01-07T13:00:47.080Z</time>
      </trkpt>
      <trkpt lat="43.24974" lon="3.18263">
        <ele>47.797911</ele>
        <time>2023-01-07T13:00:50.093Z</time>
      </trkpt>
      <trkpt lat="43.2498" lon="3.18279">
        <ele>47.761702</ele>
        <time>2023-01-07T13:00:53.081Z</time>
      </trkpt>
      <trkpt lat="43.24987" lon="3.18294">
        <ele>47.726313</ele>
        <time>2023-01-07T13:00:56.093Z</time>
      </trkpt>
      <trkpt lat="43.24993" lon="3.18309">
        <ele>47.693201</ele>
        <time>2023-01-07T13:00:59.090Z</time>
      </trkpt>
      <trkpt lat="43.24998" lon="3.18324">
        <ele>47.660112</ele>
        <time>2023-01-07T13:01:02.084Z</time>
      </trkpt>
      <trkpt lat="43.25004" lon="3.18338">
        <ele>47.628485</ele>
        <time>2023-01-07T13:01:05.081Z</time>
      </trkpt>
      <trkpt lat="43.25008" lon="3.18349">
        <ele>47.603663</ele>
        <time>2023-01-07T13:01:08.086Z</time>
      </trkpt>
      <trkpt lat="43.25012" lon="3.18363">
        <ele>47.573191</ele>
        <time>2023-01-07T13:01:12.080Z</time>
      </trkpt>
      <trkpt lat="43.25017" lon="3.18374">
        <ele>47.54828</ele>
        <time>2023-01-07T13:01:15.081Z</time>
      </trkpt>
      <trkpt lat="43.25022" lon="3.18386">
        <ele>47.52074</ele>
        <time>2023-01-07T13:01:18.091Z</time>
      </trkpt>
      <trkpt lat="43.25028" lon="3.18399">
        <ele>47.488474</ele>
        <time>2023-01-07T13:01:22.087Z</time>
      </trkpt>
      <trkpt lat="43.25033" lon="3.18412">
        <ele>47.46116</ele>
        <time>2023-01-07T13:01:26.082Z</time>
      </trkpt>
      <trkpt lat="43.25038" lon="3.18425">
        <ele>47.430444</ele>
        <time>2023-01-07T13:01:31.077Z</time>
      </trkpt>
      <trkpt lat="43.25042" lon="3.1844">
        <ele>47.409794</ele>
        <time>2023-01-07T13:01:36.084Z</time>
      </trkpt>
      <trkpt lat="43.25047" lon="3.18454">
        <ele>47.395401</ele>
        <time>2023-01-07T13:01:40.076Z</time>
      </trkpt>
      <trkpt lat="43.25052" lon="3.18468">
        <ele>47.380175</ele>
        <time>2023-01-07T13:01:44.084Z</time>
      </trkpt>
      <trkpt lat="43.25057" lon="3.18483">
        <ele>47.364641</ele>
        <time>2023-01-07T13:01:48.087Z</time>
      </trkpt>
      <trkpt lat="43.2506" lon="3.18495">
        <ele>47.352785</ele>
        <time>2023-01-07T13:01:51.082Z</time>
      </trkpt>
      <trkpt lat="43.25065" lon="3.18509">
        <ele>47.337788</ele>
        <time>2023-01-07T13:01:55.076Z</time>
      </trkpt>
      <trkpt lat="43.25069" lon="3.18522">
        <ele>47.32398</ele>
        <time>2023-01-07T13:01:59.088Z</time>
      </trkpt>
      <trkpt lat="43.25073" lon="3.18534">
        <ele>47.311574</ele>
        <time>2023-01-07T13:02:03.088Z</time>
      </trkpt>
      <trkpt lat="43.25077" lon="3.18549">
        <ele>47.297228</ele>
        <time>2023-01-07T13:02:07.084Z</time>
      </trkpt>
      <trkpt lat="43.2508" lon="3.1856">
        <ele>47.285379</ele>
        <time>2023-01-07T13:02:10.098Z</time>
      </trkpt>
      <trkpt lat="43.25082" lon="3.18573">
        <ele>47.273217</ele>
        <time>2023-01-07T13:02:13.095Z</time>
      </trkpt>
      <trkpt lat="43.25084" lon="3.18586">
        <ele>47.260378</ele>
        <time>2023-01-07T13:02:16.098Z</time>
      </trkpt>
      <trkpt lat="43.25087" lon="3.18602">
        <ele>47.244623</ele>
        <time>2023-01-07T13:02:20.094Z</time>
      </trkpt>
      <trkpt lat="43.2509" lon="3.18614">
        <ele>47.232262</ele>
        <time>2023-01-07T13:02:23.084Z</time>
      </trkpt>
      <trkpt lat="43.25093" lon="3.18627">
        <ele>47.219639</ele>
        <time>2023-01-07T13:02:26.087Z</time>
      </trkpt>
      <trkpt lat="43.25095" lon="3.1864">
        <ele>47.207078</ele>
        <time>2023-01-07T13:02:29.096Z</time>
      </trkpt>
      <trkpt lat="43.25098" lon="3.18656">
        <ele>47.191722</ele>
        <time>2023-01-07T13:02:33.096Z</time>
      </trkpt>
      <trkpt lat="43.251" lon="3.1867">
        <ele>47.148558</ele>
        <time>2023-01-07T13:02:37.088Z</time>
      </trkpt>
      <trkpt lat="43.25103" lon="3.18685">
        <ele>47.072316</ele>
        <time>2023-01-07T13:02:41.078Z</time>
      </trkpt>
      <trkpt lat="43.25105" lon="3.18701">
        <ele>46.993121</ele>
        <time>2023-01-07T13:02:45.083Z</time>
      </trkpt>
      <trkpt lat="43.25105" lon="3.18714">
        <ele>46.930338</ele>
        <time>2023-01-07T13:02:48.078Z</time>
      </trkpt>
      <trkpt lat="43.25105" lon="3.18729">
        <ele>46.862375</ele>
        <time>2023-01-07T13:02:51.080Z</time>
      </trkpt>
      <trkpt lat="43.25105" lon="3.18744">
        <ele>46.786678</ele>
        <time>2023-01-07T13:02:55.087Z</time>
      </trkpt>
      <trkpt lat="43.25105" lon="3.18759">
        <ele>46.714378</ele>
        <time>2023-01-07T13:02:59.082Z</time>
      </trkpt>
      <trkpt lat="43.25101" lon="3.18775">
        <ele>46.635794</ele>
        <time>2023-01-07T13:03:03.081Z</time>
      </trkpt>
      <trkpt lat="43.25096" lon="3.18785">
        <ele>46.57533</ele>
        <time>2023-01-07T13:03:06.089Z</time>
      </trkpt>
      <trkpt lat="43.2509" lon="3.18799">
        <ele>46.496831</ele>
        <time>2023-01-07T13:03:10.079Z</time>
      </trkpt>
      <trkpt lat="43.25083" lon="3.18808">
        <ele>46.435351</ele>
        <time>2023-01-07T13:03:13.097Z</time>
      </trkpt>
      <trkpt lat="43.25077" lon="3.18819">
        <ele>46.370616</ele>
        <time>2023-01-07T13:03:16.093Z</time>
      </trkpt>
      <trkpt lat="43.25071" lon="3.18828">
        <ele>46.311095</ele>
        <time>2023-01-07T13:03:19.082Z</time>
      </trkpt>
      <trkpt lat="43.25064" lon="3.1884">
        <ele>46.238489</ele>
        <time>2023-01-07T13:03:23.082Z</time>
      </trkpt>
      <trkpt lat="43.25059" lon="3.1885">
        <ele>46.178042</ele>
        <time>2023-01-07T13:03:26.077Z</time>
      </trkpt>
      <trkpt lat="43.25053" lon="3.1886">
        <ele>46.115694</ele>
        <time>2023-01-07T13:03:29.077Z</time>
      </trkpt>
      <trkpt lat="43.25048" lon="3.18872">
        <ele>46.046536</ele>
        <time>2023-01-07T13:03:32.092Z</time>
      </trkpt>
      <trkpt lat="43.25043" lon="3.18885">
        <ele>46.007602</ele>
        <time>2023-01-07T13:03:35.104Z</time>
      </trkpt>
      <trkpt lat="43.25039" lon="3.18897">
        <ele>46.056379</ele>
        <time>2023-01-07T13:03:38.081Z</time>
      </trkpt>
      <trkpt lat="43.25034" lon="3.18909">
        <ele>46.103453</ele>
        <time>2023-01-07T13:03:41.090Z</time>
      </trkpt>
      <trkpt lat="43.2503" lon="3.1892">
        <ele>46.147693</ele>
        <time>2023-01-07T13:03:44.090Z</time>
      </trkpt>
      <trkpt lat="43.25027" lon="3.18934">
        <ele>46.197519</ele>
        <time>2023-01-07T13:03:48.080Z</time>
      </trkpt>
      <trkpt lat="43.25023" lon="3.18949">
        <ele>46.254137</ele>
        <time>2023-01-07T13:03:52.083Z</time>
      </trkpt>
      <trkpt lat="43.25019" lon="3.18963">
        <ele>46.308365</ele>
        <time>2023-01-07T13:03:56.077Z</time>
      </trkpt>
      <trkpt lat="43.25013" lon="3.18976">
        <ele>46.362344</ele>
        <time>2023-01-07T13:04:01.081Z</time>
      </trkpt>
      <trkpt lat="43.25009" lon="3.18989">
        <ele>46.413458</ele>
        <time>2023-01-07T13:04:05.080Z</time>
      </trkpt>
      <trkpt lat="43.25007" lon="3.19004">
        <ele>46.468472</ele>
        <time>2023-01-07T13:04:09.094Z</time>
      </trkpt>
      <trkpt lat="43.25008" lon="3.19019">
        <ele>46.522124</ele>
        <time>2023-01-07T13:04:13.089Z</time>
      </trkpt>
      <trkpt lat="43.2501" lon="3.19035">
        <ele>46.577485</ele>
        <time>2023-01-07T13:04:17.097Z</time>
      </trkpt>
      <trkpt lat="43.2501" lon="3.1905">
        <ele>46.632421</ele>
        <time>2023-01-07T13:04:21.080Z</time>
      </trkpt>
      <trkpt lat="43.25011" lon="3.19063">
        <ele>46.676581</ele>
        <time>2023-01-07T13:04:24.079Z</time>
      </trkpt>
      <trkpt lat="43.25014" lon="3.19077">
        <ele>46.731539</ele>
        <time>2023-01-07T13:04:28.098Z</time>
      </trkpt>
      <trkpt lat="43.25016" lon="3.19093">
        <ele>46.78654</ele>
        <time>2023-01-07T13:04:32.088Z</time>
      </trkpt>
      <trkpt lat="43.25017" lon="3.19105">
        <ele>46.831807</ele>
        <time>2023-01-07T13:04:36.083Z</time>
      </trkpt>
      <trkpt lat="43.25018" lon="3.1912">
        <ele>46.854942</ele>
        <time>2023-01-07T13:04:41.080Z</time>
      </trkpt>
      <trkpt lat="43.2502" lon="3.19135">
        <ele>46.793705</ele>
        <time>2023-01-07T13:04:46.076Z</time>
      </trkpt>
      <trkpt lat="43.25021" lon="3.19151">
        <ele>46.726818</ele>
        <time>2023-01-07T13:04:50.104Z</time>
      </trkpt>
      <trkpt lat="43.25022" lon="3.19164">
        <ele>46.675656</ele>
        <time>2023-01-07T13:04:53.095Z</time>
      </trkpt>
      <trkpt lat="43.25023" lon="3.19178">
        <ele>46.618718</ele>
        <time>2023-01-07T13:04:57.087Z</time>
      </trkpt>
      <trkpt lat="43.25025" lon="3.19193">
        <ele>46.556189</ele>
        <time>2023-01-07T13:05:02.096Z</time>
      </trkpt>
      <trkpt lat="43.25025" lon="3.19207">
        <ele>46.500138</ele>
        <time>2023-01-07T13:05:06.085Z</time>
      </trkpt>
      <trkpt lat="43.25028" lon="3.19221">
        <ele>46.441747</ele>
        <time>2023-01-07T13:05:11.087Z</time>
      </trkpt>
      <trkpt lat="43.25028" lon="3.19235">
        <ele>46.381737</ele>
        <time>2023-01-07T13:05:16.096Z</time>
      </trkpt>
      <trkpt lat="43.25029" lon="3.19248">
        <ele>46.330218</ele>
        <time>2023-01-07T13:05:20.100Z</time>
      </trkpt>
      <trkpt lat="43.25028" lon="3.19262">
        <ele>46.273762</ele>
        <time>2023-01-07T13:05:24.092Z</time>
      </trkpt>
      <trkpt lat="43.25028" lon="3.19276">
        <ele>46.21736</ele>
        <time>2023-01-07T13:05:28.081Z</time>
      </trkpt>
      <trkpt lat="43.25029" lon="3.19291">
        <ele>46.157145</ele>
        <time>2023-01-07T13:05:33.080Z</time>
      </trkpt>
      <trkpt lat="43.25029" lon="3.19305">
        <ele>46.098289</ele>
        <time>2023-01-07T13:05:37.099Z</time>
      </trkpt>
      <trkpt lat="43.25027" lon="3.1932">
        <ele>46.035663</ele>
        <time>2023-01-07T13:05:41.077Z</time>
      </trkpt>
      <trkpt lat="43.25027" lon="3.19334">
        <ele>45.978876</ele>
        <time>2023-01-07T13:05:45.090Z</time>
      </trkpt>
      <trkpt lat="43.25028" lon="3.19349">
        <ele>45.921697</ele>
        <time>2023-01-07T13:05:49.095Z</time>
      </trkpt>
      <trkpt lat="43.25026" lon="3.19363">
        <ele>45.866125</ele>
        <time>2023-01-07T13:05:53.087Z</time>
      </trkpt>
      <trkpt lat="43.25024" lon="3.19378">
        <ele>45.832594</ele>
        <time>2023-01-07T13:05:58.081Z</time>
      </trkpt>
      <trkpt lat="43.25024" lon="3.19392">
        <ele>45.802111</ele>
        <time>2023-01-07T13:06:02.088Z</time>
      </trkpt>
      <trkpt lat="43.25024" lon="3.19407">
        <ele>45.768142</ele>
        <time>2023-01-07T13:06:06.083Z</time>
      </trkpt>
      <trkpt lat="43.25023" lon="3.19422">
        <ele>45.735561</ele>
        <time>2023-01-07T13:06:11.081Z</time>
      </trkpt>
      <trkpt lat="43.25021" lon="3.19438">
        <ele>45.702077</ele>
        <time>2023-01-07T13:06:16.082Z</time>
      </trkpt>
      <trkpt lat="43.2502" lon="3.19452">
        <ele>45.67055</ele>
        <time>2023-01-07T13:06:21.085Z</time>
      </trkpt>
      <trkpt lat="43.25019" lon="3.19467">
        <ele>45.63867</ele>
        <time>2023-01-07T13:06:25.094Z</time>
      </trkpt>
      <trkpt lat="43.25018" lon="3.1948">
        <ele>45.608935</ele>
        <time>2023-01-07T13:06:30.086Z</time>
      </trkpt>
      <trkpt lat="43.25018" lon="3.19494">
        <ele>45.577899</ele>
        <time>2023-01-07T13:06:36.096Z</time>
      </trkpt>
      <trkpt lat="43.25018" lon="3.19509">
        <ele>45.54698</ele>
        <time>2023-01-07T13:06:42.089Z</time>
      </trkpt>
      <trkpt lat="43.25031" lon="3.19514">
        <ele>45.50355</ele>
        <time>2023-01-07T13:08:25.083Z</time>
      </trkpt>
      <trkpt lat="43.25045" lon="3.19507">
        <ele>45.460207</ele>
        <time>2023-01-07T13:09:24.091Z</time>
      </trkpt>
      <trkpt lat="43.25055" lon="3.19501">
        <ele>45.426861</ele>
        <time>2023-01-07T13:09:45.087Z</time>
      </trkpt>
      <trkpt lat="43.25064" lon="3.195">
        <ele>45.399005</ele>
        <time>2023-01-07T13:09:55.082Z</time>
      </trkpt>
      <trkpt lat="43.25073" lon="3.19495">
        <ele>45.371548</ele>
        <time>2023-01-07T13:10:05.092Z</time>
      </trkpt>
      <trkpt lat="43.25082" lon="3.19494">
        <ele>45.343921</ele>
        <time>2023-01-07T13:10:14.091Z</time>
      </trkpt>
      <trkpt lat="43.25091" lon="3.19491">
        <ele>45.369809</ele>
        <time>2023-01-07T13:10:25.100Z</time>
      </trkpt>
      <trkpt lat="43.25103" lon="3.19488">
        <ele>45.464419</ele>
        <time>2023-01-07T13:10:53.101Z</time>
      </trkpt>
      <trkpt lat="43.25112" lon="3.19485">
        <ele>45.533961</ele>
        <time>2023-01-07T13:11:00.107Z</time>
      </trkpt>
      <trkpt lat="43.25121" lon="3.1948">
        <ele>45.603799</ele>
        <time>2023-01-07T13:11:09.089Z</time>
      </trkpt>
      <trkpt lat="43.2513" lon="3.19477">
        <ele>45.674933</ele>
        <time>2023-01-07T13:11:17.085Z</time>
      </trkpt>
      <trkpt lat="43.25141" lon="3.19473">
        <ele>45.764822</ele>
        <time>2023-01-07T13:11:39.089Z</time>
      </trkpt>
      <trkpt lat="43.25149" lon="3.19467">
        <ele>45.83333</ele>
        <time>2023-01-07T13:11:49.091Z</time>
      </trkpt>
      <trkpt lat="43.25157" lon="3.19459">
        <ele>45.906881</ele>
        <time>2023-01-07T13:12:01.086Z</time>
      </trkpt>
      <trkpt lat="43.25166" lon="3.1946">
        <ele>45.977628</ele>
        <time>2023-01-07T13:12:10.088Z</time>
      </trkpt>
      <trkpt lat="43.25181" lon="3.19463">
        <ele>46.090657</ele>
        <time>2023-01-07T13:12:42.081Z</time>
      </trkpt>
      <trkpt lat="43.2519" lon="3.19467">
        <ele>46.15977</ele>
        <time>2023-01-07T13:12:51.089Z</time>
      </trkpt>
      <trkpt lat="43.2518" lon="3.19464">
        <ele>46.234481</ele>
        <time>2023-01-07T13:14:21.081Z</time>
      </trkpt>
      <trkpt lat="43.2517" lon="3.19462">
        <ele>46.309085</ele>
        <time>2023-01-07T13:14:31.081Z</time>
      </trkpt>
      <trkpt lat="43.25161" lon="3.1946">
        <ele>46.379018</ele>
        <time>2023-01-07T13:14:40.093Z</time>
      </trkpt>
      <trkpt lat="43.25152" lon="3.19462">
        <ele>46.448304</ele>
        <time>2023-01-07T13:14:50.085Z</time>
      </trkpt>
      <trkpt lat="43.25146" lon="3.19471">
        <ele>46.517964</ele>
        <time>2023-01-07T13:14:59.091Z</time>
      </trkpt>
      <trkpt lat="43.25137" lon="3.19475">
        <ele>46.588134</ele>
        <time>2023-01-07T13:15:08.079Z</time>
      </trkpt>
      <trkpt lat="43.25127" lon="3.19477">
        <ele>46.662486</ele>
        <time>2023-01-07T13:15:17.083Z</time>
      </trkpt>
      <trkpt lat="43.25118" lon="3.1948">
        <ele>46.721894</ele>
        <time>2023-01-07T13:15:26.084Z</time>
      </trkpt>
      <trkpt lat="43.25109" lon="3.19484">
        <ele>46.77392</ele>
        <time>2023-01-07T13:15:37.095Z</time>
      </trkpt>
      <trkpt lat="43.251" lon="3.19488">
        <ele>46.824145</ele>
        <time>2023-01-07T13:15:46.086Z</time>
      </trkpt>
      <trkpt lat="43.25091" lon="3.19492">
        <ele>46.874225</ele>
        <time>2023-01-07T13:15:56.095Z</time>
      </trkpt>
      <trkpt lat="43.25081" lon="3.19494">
        <ele>46.924229</ele>
        <time>2023-01-07T13:16:05.102Z</time>
      </trkpt>
      <trkpt lat="43.25072" lon="3.19496">
        <ele>46.974808</ele>
        <time>2023-01-07T13:16:15.098Z</time>
      </trkpt>
      <trkpt lat="43.25064" lon="3.19502">
        <ele>47.022006</ele>
        <time>2023-01-07T13:16:24.081Z</time>
      </trkpt>
      <trkpt lat="43.25054" lon="3.19504">
        <ele>47.073041</ele>
        <time>2023-01-07T13:16:33.100Z</time>
      </trkpt>
      <trkpt lat="43.25046" lon="3.1951">
        <ele>47.122548</ele>
        <time>2023-01-07T13:16:43.079Z</time>
      </trkpt>
      <trkpt lat="43.2504" lon="3.19519">
        <ele>47.17185</ele>
        <time>2023-01-07T13:16:57.101Z</time>
      </trkpt>
      <trkpt lat="43.2503" lon="3.19515">
        <ele>47.224173</ele>
        <time>2023-01-07T13:17:11.084Z</time>
      </trkpt>
      <trkpt lat="43.25019" lon="3.19515">
        <ele>47.283718</ele>
        <time>2023-01-07T13:17:38.086Z</time>
      </trkpt>
      <trkpt lat="43.25015" lon="3.19527">
        <ele>47.331828</ele>
        <time>2023-01-07T13:18:29.083Z</time>
      </trkpt>
      <trkpt lat="43.25016" lon="3.1954">
        <ele>47.383039</ele>
        <time>2023-01-07T13:18:36.087Z</time>
      </trkpt>
      <trkpt lat="43.25015" lon="3.19554">
        <ele>47.435443</ele>
        <time>2023-01-07T13:18:41.088Z</time>
      </trkpt>
      <trkpt lat="43.25016" lon="3.19567">
        <ele>47.487251</ele>
        <time>2023-01-07T13:18:46.084Z</time>
      </trkpt>
      <trkpt lat="43.25018" lon="3.19581">
        <ele>47.541933</ele>
        <time>2023-01-07T13:18:51.086Z</time>
      </trkpt>
      <trkpt lat="43.25019" lon="3.19594">
        <ele>47.591392</ele>
        <time>2023-01-07T13:18:56.092Z</time>
      </trkpt>
      <trkpt lat="43.25016" lon="3.19582">
        <ele>47.639351</ele>
        <time>2023-01-07T13:20:15.080Z</time>
      </trkpt>
      <trkpt lat="43.25015" lon="3.19569">
        <ele>47.656064</ele>
        <time>2023-01-07T13:20:31.077Z</time>
      </trkpt>
      <trkpt lat="43.25014" lon="3.19556">
        <ele>47.668431</ele>
        <time>2023-01-07T13:20:36.082Z</time>
      </trkpt>
      <trkpt lat="43.25015" lon="3.19542">
        <ele>47.681687</ele>
        <time>2023-01-07T13:20:42.096Z</time>
      </trkpt>
      <trkpt lat="43.25015" lon="3.1953">
        <ele>47.69419</ele>
        <time>2023-01-07T13:20:47.090Z</time>
      </trkpt>
      <trkpt lat="43.25015" lon="3.19515">
        <ele>47.708072</ele>
        <time>2023-01-07T13:20:52.082Z</time>
      </trkpt>
      <trkpt lat="43.25017" lon="3.19501">
        <ele>47.722152</ele>
        <time>2023-01-07T13:20:56.085Z</time>
      </trkpt>
      <trkpt lat="43.25017" lon="3.19489">
        <ele>47.73457</ele>
        <time>2023-01-07T13:21:00.084Z</time>
      </trkpt>
      <trkpt lat="43.25019" lon="3.19476">
        <ele>47.747098</ele>
        <time>2023-01-07T13:21:05.098Z</time>
      </trkpt>
      <trkpt lat="43.25019" lon="3.19463">
        <ele>47.759409</ele>
        <time>2023-01-07T13:21:10.090Z</time>
      </trkpt>
      <trkpt lat="43.2502" lon="3.19451">
        <ele>47.771596</ele>
        <time>2023-01-07T13:21:14.086Z</time>
      </trkpt>
      <trkpt lat="43.25021" lon="3.19437">
        <ele>47.785508</ele>
        <time>2023-01-07T13:21:18.100Z</time>
      </trkpt>
      <trkpt lat="43.25022" lon="3.19423">
        <ele>47.799158</ele>
        <time>2023-01-07T13:21:22.081Z</time>
      </trkpt>
      <trkpt lat="43.25024" lon="3.19409">
        <ele>47.812615</ele>
        <time>2023-01-07T13:21:27.091Z</time>
      </trkpt>
      <trkpt lat="43.25026" lon="3.19397">
        <ele>47.825229</ele>
        <time>2023-01-07T13:21:31.078Z</time>
      </trkpt>
      <trkpt lat="43.25025" lon="3.19381">
        <ele>47.840213</ele>
        <time>2023-01-07T13:21:35.084Z</time>
      </trkpt>
      <trkpt lat="43.25025" lon="3.19366">
        <ele>47.85557</ele>
        <time>2023-01-07T13:21:39.088Z</time>
      </trkpt>
      <trkpt lat="43.25027" lon="3.19352">
        <ele>47.869339</ele>
        <time>2023-01-07T13:21:43.086Z</time>
      </trkpt>
      <trkpt lat="43.25027" lon="3.19339">
        <ele>47.881751</ele>
        <time>2023-01-07T13:21:47.087Z</time>
      </trkpt>
      <trkpt lat="43.25028" lon="3.19325">
        <ele>47.943762</ele>
        <time>2023-01-07T13:21:51.083Z</time>
      </trkpt>
      <trkpt lat="43.25028" lon="3.19309">
        <ele>48.032829</ele>
        <time>2023-01-07T13:21:55.101Z</time>
      </trkpt>
      <trkpt lat="43.25029" lon="3.19296">
        <ele>48.106944</ele>
        <time>2023-01-07T13:21:58.080Z</time>
      </trkpt>
      <trkpt lat="43.25029" lon="3.19283">
        <ele>48.177492</ele>
        <time>2023-01-07T13:22:01.085Z</time>
      </trkpt>
      <trkpt lat="43.25028" lon="3.19269">
        <ele>48.257642</ele>
        <time>2023-01-07T13:22:05.089Z</time>
      </trkpt>
      <trkpt lat="43.25029" lon="3.19256">
        <ele>48.32819</ele>
        <time>2023-01-07T13:22:09.078Z</time>
      </trkpt>
      <trkpt lat="43.25029" lon="3.19242">
        <ele>48.403858</ele>
        <time>2023-01-07T13:22:13.088Z</time>
      </trkpt>
      <trkpt lat="43.2503" lon="3.19227">
        <ele>48.488883</ele>
        <time>2023-01-07T13:22:18.093Z</time>
      </trkpt>
      <trkpt lat="43.25028" lon="3.19212">
        <ele>48.572869</ele>
        <time>2023-01-07T13:22:23.090Z</time>
      </trkpt>
      <trkpt lat="43.25025" lon="3.19199">
        <ele>48.649222</ele>
        <time>2023-01-07T13:22:27.087Z</time>
      </trkpt>
      <trkpt lat="43.25025" lon="3.19183">
        <ele>48.736023</ele>
        <time>2023-01-07T13:22:31.081Z</time>
      </trkpt>
      <trkpt lat="43.25023" lon="3.1917">
        <ele>48.808697</ele>
        <time>2023-01-07T13:22:34.081Z</time>
      </trkpt>
      <trkpt lat="43.25022" lon="3.19157">
        <ele>48.884414</ele>
        <time>2023-01-07T13:22:37.085Z</time>
      </trkpt>
      <trkpt lat="43.25022" lon="3.19144">
        <ele>48.955762</ele>
        <time>2023-01-07T13:22:40.087Z</time>
      </trkpt>
      <trkpt lat="43.25021" lon="3.1913">
        <ele>49.035545</ele>
        <time>2023-01-07T13:22:44.084Z</time>
      </trkpt>
      <trkpt lat="43.2502" lon="3.19116">
        <ele>49.114774</ele>
        <time>2023-01-07T13:22:48.092Z</time>
      </trkpt>
      <trkpt lat="43.25018" lon="3.19101">
        <ele>49.193805</ele>
        <time>2023-01-07T13:22:53.081Z</time>
      </trkpt>
      <trkpt lat="43.25017" lon="3.19086">
        <ele>49.252463</ele>
        <time>2023-01-07T13:22:57.084Z</time>
      </trkpt>
      <trkpt lat="43.25015" lon="3.19074">
        <ele>49.239925</ele>
        <time>2023-01-07T13:23:00.086Z</time>
      </trkpt>
      <trkpt lat="43.25012" lon="3.1906">
        <ele>49.225424</ele>
        <time>2023-01-07T13:23:04.096Z</time>
      </trkpt>
      <trkpt lat="43.25011" lon="3.19048">
        <ele>49.213032</ele>
        <time>2023-01-07T13:23:07.103Z</time>
      </trkpt>
      <trkpt lat="43.25009" lon="3.19035">
        <ele>49.199818</ele>
        <time>2023-01-07T13:23:10.084Z</time>
      </trkpt>
      <trkpt lat="43.25008" lon="3.19021">
        <ele>49.185663</ele>
        <time>2023-01-07T13:23:13.081Z</time>
      </trkpt>
      <trkpt lat="43.25008" lon="3.19007">
        <ele>49.171551</ele>
        <time>2023-01-07T13:23:16.086Z</time>
      </trkpt>
      <trkpt lat="43.25009" lon="3.18994">
        <ele>49.158659</ele>
        <time>2023-01-07T13:23:19.092Z</time>
      </trkpt>
      <trkpt lat="43.25013" lon="3.18979">
        <ele>49.14226</ele>
        <time>2023-01-07T13:23:23.074Z</time>
      </trkpt>
      <trkpt lat="43.25016" lon="3.18967">
        <ele>49.129095</ele>
        <time>2023-01-07T13:23:26.084Z</time>
      </trkpt>
      <trkpt lat="43.25019" lon="3.18954">
        <ele>49.115498</ele>
        <time>2023-01-07T13:23:29.095Z</time>
      </trkpt>
      <trkpt lat="43.25026" lon="3.1894">
        <ele>49.09891</ele>
        <time>2023-01-07T13:23:33.081Z</time>
      </trkpt>
      <trkpt lat="43.2503" lon="3.18929">
        <ele>49.085724</ele>
        <time>2023-01-07T13:23:36.100Z</time>
      </trkpt>
      <trkpt lat="43.25034" lon="3.18917">
        <ele>49.073052</ele>
        <time>2023-01-07T13:23:39.078Z</time>
      </trkpt>
      <trkpt lat="43.25036" lon="3.18905">
        <ele>49.060307</ele>
        <time>2023-01-07T13:23:42.080Z</time>
      </trkpt>
      <trkpt lat="43.25041" lon="3.1889">
        <ele>49.043792</ele>
        <time>2023-01-07T13:23:46.090Z</time>
      </trkpt>
      <trkpt lat="43.25045" lon="3.18878">
        <ele>49.030722</ele>
        <time>2023-01-07T13:23:49.085Z</time>
      </trkpt>
      <trkpt lat="43.25051" lon="3.18867">
        <ele>49.016378</ele>
        <time>2023-01-07T13:23:52.080Z</time>
      </trkpt>
      <trkpt lat="43.25058" lon="3.18855">
        <ele>49.024609</ele>
        <time>2023-01-07T13:23:55.077Z</time>
      </trkpt>
      <trkpt lat="43.25063" lon="3.18844">
        <ele>49.060898</ele>
        <time>2023-01-07T13:23:58.086Z</time>
      </trkpt>
      <trkpt lat="43.25069" lon="3.18833">
        <ele>49.101013</ele>
        <time>2023-01-07T13:24:01.085Z</time>
      </trkpt>
      <trkpt lat="43.25076" lon="3.18822">
        <ele>49.141609</ele>
        <time>2023-01-07T13:24:04.087Z</time>
      </trkpt>
      <trkpt lat="43.25082" lon="3.18811">
        <ele>49.184042</ele>
        <time>2023-01-07T13:24:07.087Z</time>
      </trkpt>
      <trkpt lat="43.25089" lon="3.18799">
        <ele>49.228383</ele>
        <time>2023-01-07T13:24:10.107Z</time>
      </trkpt>
      <trkpt lat="43.25096" lon="3.18788">
        <ele>49.268627</ele>
        <time>2023-01-07T13:24:13.091Z</time>
      </trkpt>
      <trkpt lat="43.25102" lon="3.18776">
        <ele>49.310129</ele>
        <time>2023-01-07T13:24:17.088Z</time>
      </trkpt>
      <trkpt lat="43.25105" lon="3.18763">
        <ele>49.34833</ele>
        <time>2023-01-07T13:24:21.088Z</time>
      </trkpt>
      <trkpt lat="43.25106" lon="3.18751">
        <ele>49.384118</ele>
        <time>2023-01-07T13:24:24.091Z</time>
      </trkpt>
      <trkpt lat="43.25106" lon="3.18737">
        <ele>49.424949</ele>
        <time>2023-01-07T13:24:27.081Z</time>
      </trkpt>
      <trkpt lat="43.25106" lon="3.18721">
        <ele>49.470298</ele>
        <time>2023-01-07T13:24:30.084Z</time>
      </trkpt>
      <trkpt lat="43.25106" lon="3.18705">
        <ele>49.514789</ele>
        <time>2023-01-07T13:24:33.081Z</time>
      </trkpt>
      <trkpt lat="43.25104" lon="3.1869">
        <ele>49.559335</ele>
        <time>2023-01-07T13:24:36.091Z</time>
      </trkpt>
      <trkpt lat="43.25102" lon="3.18674">
        <ele>49.60486</ele>
        <time>2023-01-07T13:24:39.083Z</time>
      </trkpt>
      <trkpt lat="43.251" lon="3.18659">
        <ele>49.648651</ele>
        <time>2023-01-07T13:24:42.088Z</time>
      </trkpt>
      <trkpt lat="43.25097" lon="3.18645">
        <ele>49.688854</ele>
        <time>2023-01-07T13:24:45.080Z</time>
      </trkpt>
      <trkpt lat="43.25095" lon="3.18633">
        <ele>49.746485</ele>
        <time>2023-01-07T13:24:48.088Z</time>
      </trkpt>
      <trkpt lat="43.25092" lon="3.18621">
        <ele>49.848896</ele>
        <time>2023-01-07T13:24:51.082Z</time>
      </trkpt>
      <trkpt lat="43.2509" lon="3.18607">
        <ele>49.957736</ele>
        <time>2023-01-07T13:24:54.081Z</time>
      </trkpt>
      <trkpt lat="43.25087" lon="3.18593">
        <ele>50.075358</ele>
        <time>2023-01-07T13:24:57.080Z</time>
      </trkpt>
      <trkpt lat="43.25084" lon="3.18579">
        <ele>50.195707</ele>
        <time>2023-01-07T13:25:00.085Z</time>
      </trkpt>
      <trkpt lat="43.25081" lon="3.18564">
        <ele>50.315744</ele>
        <time>2023-01-07T13:25:03.094Z</time>
      </trkpt>
      <trkpt lat="43.25078" lon="3.18549">
        <ele>50.437773</ele>
        <time>2023-01-07T13:25:06.104Z</time>
      </trkpt>
      <trkpt lat="43.25074" lon="3.18536">
        <ele>50.552922</ele>
        <time>2023-01-07T13:25:09.096Z</time>
      </trkpt>
      <trkpt lat="43.2507" lon="3.18522">
        <ele>50.669022</ele>
        <time>2023-01-07T13:25:12.093Z</time>
      </trkpt>
      <trkpt lat="43.25066" lon="3.18509">
        <ele>50.783598</ele>
        <time>2023-01-07T13:25:15.097Z</time>
      </trkpt>
      <trkpt lat="43.25062" lon="3.18496">
        <ele>50.891191</ele>
        <time>2023-01-07T13:25:18.095Z</time>
      </trkpt>
      <trkpt lat="43.25058" lon="3.18485">
        <ele>50.994555</ele>
        <time>2023-01-07T13:25:21.096Z</time>
      </trkpt>
      <trkpt lat="43.25054" lon="3.1847">
        <ele>51.118458</ele>
        <time>2023-01-07T13:25:25.093Z</time>
      </trkpt>
      <trkpt lat="43.25048" lon="3.18456">
        <ele>51.246396</ele>
        <time>2023-01-07T13:25:29.085Z</time>
      </trkpt>
      <trkpt lat="43.25044" lon="3.18445">
        <ele>51.348101</ele>
        <time>2023-01-07T13:25:32.095Z</time>
      </trkpt>
      <trkpt lat="43.25041" lon="3.18432">
        <ele>51.454461</ele>
        <time>2023-01-07T13:25:35.096Z</time>
      </trkpt>
      <trkpt lat="43.25036" lon="3.1842">
        <ele>51.562689</ele>
        <time>2023-01-07T13:25:38.080Z</time>
      </trkpt>
      <trkpt lat="43.25031" lon="3.18408">
        <ele>51.673404</ele>
        <time>2023-01-07T13:25:41.091Z</time>
      </trkpt>
      <trkpt lat="43.25026" lon="3.18396">
        <ele>51.546921</ele>
        <time>2023-01-07T13:25:44.091Z</time>
      </trkpt>
      <trkpt lat="43.25021" lon="3.18385">
        <ele>51.428072</ele>
        <time>2023-01-07T13:25:47.101Z</time>
      </trkpt>
      <trkpt lat="43.25016" lon="3.18372">
        <ele>51.291523</ele>
        <time>2023-01-07T13:25:51.094Z</time>
      </trkpt>
      <trkpt lat="43.25011" lon="3.1836">
        <ele>51.165837</ele>
        <time>2023-01-07T13:25:55.095Z</time>
      </trkpt>
      <trkpt lat="43.25008" lon="3.18347">
        <ele>51.036063</ele>
        <time>2023-01-07T13:25:59.093Z</time>
      </trkpt>
      <trkpt lat="43.25015" lon="3.18335">
        <ele>50.8934</ele>
        <time>2023-01-07T13:26:03.085Z</time>
      </trkpt>
      <trkpt lat="43.25024" lon="3.18326">
        <ele>50.753875</ele>
        <time>2023-01-07T13:26:06.094Z</time>
      </trkpt>
      <trkpt lat="43.25033" lon="3.18315">
        <ele>50.598712</ele>
        <time>2023-01-07T13:26:09.088Z</time>
      </trkpt>
      <trkpt lat="43.25043" lon="3.18304">
        <ele>50.440656</ele>
        <time>2023-01-07T13:26:12.093Z</time>
      </trkpt>
      <trkpt lat="43.25053" lon="3.18292">
        <ele>50.275967</ele>
        <time>2023-01-07T13:26:15.095Z</time>
      </trkpt>
      <trkpt lat="43.25063" lon="3.18281">
        <ele>50.113421</ele>
        <time>2023-01-07T13:26:18.108Z</time>
      </trkpt>
      <trkpt lat="43.25072" lon="3.18271">
        <ele>49.962664</ele>
        <time>2023-01-07T13:26:21.076Z</time>
      </trkpt>
      <trkpt lat="43.25081" lon="3.18262">
        <ele>49.822153</ele>
        <time>2023-01-07T13:26:24.096Z</time>
      </trkpt>
      <trkpt lat="43.2509" lon="3.18252">
        <ele>49.681067</ele>
        <time>2023-01-07T13:26:27.091Z</time>
      </trkpt>
      <trkpt lat="43.25099" lon="3.18244">
        <ele>49.538732</ele>
        <time>2023-01-07T13:26:31.086Z</time>
      </trkpt>
      <trkpt lat="43.25108" lon="3.18234">
        <ele>49.398465</ele>
        <time>2023-01-07T13:26:35.091Z</time>
      </trkpt>
      <trkpt lat="43.25117" lon="3.18224">
        <ele>49.35801</ele>
        <time>2023-01-07T13:26:39.077Z</time>
      </trkpt>
      <trkpt lat="43.25125" lon="3.18216">
        <ele>49.324312</ele>
        <time>2023-01-07T13:26:42.093Z</time>
      </trkpt>
      <trkpt lat="43.25134" lon="3.18207">
        <ele>49.288143</ele>
        <time>2023-01-07T13:26:45.083Z</time>
      </trkpt>
      <trkpt lat="43.25142" lon="3.18198">
        <ele>49.2496</ele>
        <time>2023-01-07T13:26:48.086Z</time>
      </trkpt>
      <trkpt lat="43.25151" lon="3.18188">
        <ele>49.209993</ele>
        <time>2023-01-07T13:26:51.082Z</time>
      </trkpt>
      <trkpt lat="43.2516" lon="3.18177">
        <ele>49.168482</ele>
        <time>2023-01-07T13:26:54.078Z</time>
      </trkpt>
      <trkpt lat="43.25169" lon="3.18167">
        <ele>49.130625</ele>
        <time>2023-01-07T13:26:57.102Z</time>
      </trkpt>
      <trkpt lat="43.25176" lon="3.18157">
        <ele>49.094016</ele>
        <time>2023-01-07T13:27:00.085Z</time>
      </trkpt>
      <trkpt lat="43.25183" lon="3.18147">
        <ele>49.060942</ele>
        <time>2023-01-07T13:27:03.095Z</time>
      </trkpt>
      <trkpt lat="43.25188" lon="3.18135">
        <ele>49.027441</ele>
        <time>2023-01-07T13:27:06.083Z</time>
      </trkpt>
      <trkpt lat="43.25193" lon="3.18124">
        <ele>48.99361</ele>
        <time>2023-01-07T13:27:09.098Z</time>
      </trkpt>
      <trkpt lat="43.252" lon="3.18113">
        <ele>48.956823</ele>
        <time>2023-01-07T13:27:12.094Z</time>
      </trkpt>
      <trkpt lat="43.25212" lon="3.18109">
        <ele>48.91635</ele>
        <time>2023-01-07T13:27:15.081Z</time>
      </trkpt>
      <trkpt lat="43.25224" lon="3.18108">
        <ele>48.874361</ele>
        <time>2023-01-07T13:27:18.086Z</time>
      </trkpt>
      <trkpt lat="43.25235" lon="3.18108">
        <ele>48.83657</ele>
        <time>2023-01-07T13:27:21.079Z</time>
      </trkpt>
      <trkpt lat="43.25246" lon="3.18107">
        <ele>48.799357</ele>
        <time>2023-01-07T13:27:24.085Z</time>
      </trkpt>
      <trkpt lat="43.25257" lon="3.18104">
        <ele>48.783242</ele>
        <time>2023-01-07T13:27:27.091Z</time>
      </trkpt>
      <trkpt lat="43.25269" lon="3.18103">
        <ele>48.785119</ele>
        <time>2023-01-07T13:27:30.082Z</time>
      </trkpt>
      <trkpt lat="43.25281" lon="3.181">
        <ele>48.787073</ele>
        <time>2023-01-07T13:27:33.090Z</time>
      </trkpt>
      <trkpt lat="43.25293" lon="3.18098">
        <ele>48.789085</ele>
        <time>2023-01-07T13:27:36.090Z</time>
      </trkpt>
      <trkpt lat="43.25305" lon="3.18097">
        <ele>48.790984</ele>
        <time>2023-01-07T13:27:39.092Z</time>
      </trkpt>
      <trkpt lat="43.25315" lon="3.18095">
        <ele>48.792656</ele>
        <time>2023-01-07T13:27:42.085Z</time>
      </trkpt>
      <trkpt lat="43.25326" lon="3.18092">
        <ele>48.794525</ele>
        <time>2023-01-07T13:27:46.080Z</time>
      </trkpt>
      <trkpt lat="43.25336" lon="3.1809">
        <ele>48.796057</ele>
        <time>2023-01-07T13:27:49.088Z</time>
      </trkpt>
      <trkpt lat="43.25346" lon="3.18088">
        <ele>48.797782</ele>
        <time>2023-01-07T13:27:52.095Z</time>
      </trkpt>
      <trkpt lat="43.25358" lon="3.18086">
        <ele>48.799717</ele>
        <time>2023-01-07T13:27:55.100Z</time>
      </trkpt>
      <trkpt lat="43.2537" lon="3.18084">
        <ele>48.80158</ele>
        <time>2023-01-07T13:27:58.089Z</time>
      </trkpt>
      <trkpt lat="43.25382" lon="3.18082">
        <ele>48.803535</ele>
        <time>2023-01-07T13:28:01.087Z</time>
      </trkpt>
      <trkpt lat="43.25393" lon="3.1808">
        <ele>48.80542</ele>
        <time>2023-01-07T13:28:04.086Z</time>
      </trkpt>
      <trkpt lat="43.25406" lon="3.18079">
        <ele>48.807457</ele>
        <time>2023-01-07T13:28:07.089Z</time>
      </trkpt>
      <trkpt lat="43.25415" lon="3.18077">
        <ele>48.808967</ele>
        <time>2023-01-07T13:28:10.085Z</time>
      </trkpt>
      <trkpt lat="43.25426" lon="3.18075">
        <ele>48.810749</ele>
        <time>2023-01-07T13:28:14.084Z</time>
      </trkpt>
      <trkpt lat="43.25436" lon="3.18074">
        <ele>49.026208</ele>
        <time>2023-01-07T13:28:17.083Z</time>
      </trkpt>
      <trkpt lat="43.25447" lon="3.18076">
        <ele>49.394152</ele>
        <time>2023-01-07T13:28:20.093Z</time>
      </trkpt>
      <trkpt lat="43.25457" lon="3.1808">
        <ele>49.731018</ele>
        <time>2023-01-07T13:28:23.095Z</time>
      </trkpt>
      <trkpt lat="43.25466" lon="3.18086">
        <ele>50.02873</ele>
        <time>2023-01-07T13:28:26.085Z</time>
      </trkpt>
      <trkpt lat="43.25475" lon="3.18092">
        <ele>50.355267</ele>
        <time>2023-01-07T13:28:30.083Z</time>
      </trkpt>
      <trkpt lat="43.25484" lon="3.181">
        <ele>50.71752</ele>
        <time>2023-01-07T13:28:34.093Z</time>
      </trkpt>
      <trkpt lat="43.25494" lon="3.18106">
        <ele>51.060376</ele>
        <time>2023-01-07T13:28:38.095Z</time>
      </trkpt>
      <trkpt lat="43.25503" lon="3.18112">
        <ele>51.375073</ele>
        <time>2023-01-07T13:28:42.107Z</time>
      </trkpt>
      <trkpt lat="43.25512" lon="3.18115">
        <ele>51.679739</ele>
        <time>2023-01-07T13:28:46.081Z</time>
      </trkpt>
      <trkpt lat="43.25523" lon="3.18116">
        <ele>52.029613</ele>
        <time>2023-01-07T13:28:51.088Z</time>
      </trkpt>
      <trkpt lat="43.25535" lon="3.18117">
        <ele>52.395479</ele>
        <time>2023-01-07T13:28:56.090Z</time>
      </trkpt>
      <trkpt lat="43.25545" lon="3.18119">
        <ele>52.742136</ele>
        <time>2023-01-07T13:29:01.099Z</time>
      </trkpt>
      <trkpt lat="43.25555" lon="3.1812">
        <ele>53.063764</ele>
        <time>2023-01-07T13:29:06.088Z</time>
      </trkpt>
      <trkpt lat="43.25565" lon="3.18122">
        <ele>53.390722</ele>
        <time>2023-01-07T13:29:11.102Z</time>
      </trkpt>
      <trkpt lat="43.25576" lon="3.18126">
        <ele>53.727588</ele>
        <time>2023-01-07T13:29:16.095Z</time>
      </trkpt>
      <trkpt lat="43.25585" lon="3.18128">
        <ele>54.042041</ele>
        <time>2023-01-07T13:29:21.083Z</time>
      </trkpt>
      <trkpt lat="43.25595" lon="3.18131">
        <ele>54.369515</ele>
        <time>2023-01-07T13:29:26.081Z</time>
      </trkpt>
      <trkpt lat="43.25605" lon="3.18134">
        <ele>54.598182</ele>
        <time>2023-01-07T13:29:30.088Z</time>
      </trkpt>
      <trkpt lat="43.25614" lon="3.18138">
        <ele>54.670756</ele>
        <time>2023-01-07T13:29:34.083Z</time>
      </trkpt>
      <trkpt lat="43.25623" lon="3.18143">
        <ele>54.742686</ele>
        <time>2023-01-07T13:29:38.088Z</time>
      </trkpt>
      <trkpt lat="43.2563" lon="3.18152">
        <ele>54.812303</ele>
        <time>2023-01-07T13:29:41.080Z</time>
      </trkpt>
      <trkpt lat="43.25638" lon="3.18162">
        <ele>54.893378</ele>
        <time>2023-01-07T13:29:44.085Z</time>
      </trkpt>
      <trkpt lat="43.25649" lon="3.18168">
        <ele>54.97766</ele>
        <time>2023-01-07T13:29:47.096Z</time>
      </trkpt>
      <trkpt lat="43.25661" lon="3.1817">
        <ele>55.070021</ele>
        <time>2023-01-07T13:29:50.084Z</time>
      </trkpt>
      <trkpt lat="43.25673" lon="3.18172">
        <ele>55.15694</ele>
        <time>2023-01-07T13:29:53.087Z</time>
      </trkpt>
      <trkpt lat="43.25683" lon="3.18175">
        <ele>55.234079</ele>
        <time>2023-01-07T13:29:56.083Z</time>
      </trkpt>
      <trkpt lat="43.25693" lon="3.18179">
        <ele>55.313507</ele>
        <time>2023-01-07T13:29:59.088Z</time>
      </trkpt>
      <trkpt lat="43.25704" lon="3.18183">
        <ele>55.396742</ele>
        <time>2023-01-07T13:30:02.082Z</time>
      </trkpt>
      <trkpt lat="43.25715" lon="3.18187">
        <ele>55.481577</ele>
        <time>2023-01-07T13:30:05.080Z</time>
      </trkpt>
      <trkpt lat="43.25725" lon="3.18189">
        <ele>55.554439</ele>
        <time>2023-01-07T13:30:08.080Z</time>
      </trkpt>
      <trkpt lat="43.25735" lon="3.18192">
        <ele>55.628548</ele>
        <time>2023-01-07T13:30:11.087Z</time>
      </trkpt>
      <trkpt lat="43.25745" lon="3.18195">
        <ele>55.703014</ele>
        <time>2023-01-07T13:30:14.092Z</time>
      </trkpt>
      <trkpt lat="43.25754" lon="3.18199">
        <ele>55.776629</ele>
        <time>2023-01-07T13:30:17.093Z</time>
      </trkpt>
      <trkpt lat="43.25763" lon="3.18202">
        <ele>55.847251</ele>
        <time>2023-01-07T13:30:20.088Z</time>
      </trkpt>
      <trkpt lat="43.25774" lon="3.18207">
        <ele>55.954776</ele>
        <time>2023-01-07T13:30:24.083Z</time>
      </trkpt>
      <trkpt lat="43.25785" lon="3.18209">
        <ele>56.099014</ele>
        <time>2023-01-07T13:30:28.096Z</time>
      </trkpt>
      <trkpt lat="43.25795" lon="3.18212">
        <ele>56.240739</ele>
        <time>2023-01-07T13:30:32.087Z</time>
      </trkpt>
      <trkpt lat="43.25805" lon="3.18215">
        <ele>56.388117</ele>
        <time>2023-01-07T13:30:36.079Z</time>
      </trkpt>
      <trkpt lat="43.25816" lon="3.18219">
        <ele>56.53331</ele>
        <time>2023-01-07T13:30:40.089Z</time>
      </trkpt>
      <trkpt lat="43.25826" lon="3.18222">
        <ele>56.678287</ele>
        <time>2023-01-07T13:30:44.100Z</time>
      </trkpt>
      <trkpt lat="43.25837" lon="3.18219">
        <ele>56.828436</ele>
        <time>2023-01-07T13:30:48.089Z</time>
      </trkpt>
      <trkpt lat="43.25847" lon="3.18213">
        <ele>56.975843</ele>
        <time>2023-01-07T13:30:52.106Z</time>
      </trkpt>
      <trkpt lat="43.25856" lon="3.18207">
        <ele>57.120774</ele>
        <time>2023-01-07T13:30:56.081Z</time>
      </trkpt>
      <trkpt lat="43.25865" lon="3.18202">
        <ele>57.255812</ele>
        <time>2023-01-07T13:31:00.081Z</time>
      </trkpt>
      <trkpt lat="43.25874" lon="3.18196">
        <ele>57.392453</ele>
        <time>2023-01-07T13:31:04.090Z</time>
      </trkpt>
      <trkpt lat="43.25885" lon="3.18188">
        <ele>57.554822</ele>
        <time>2023-01-07T13:31:08.095Z</time>
      </trkpt>
      <trkpt lat="43.25895" lon="3.18179">
        <ele>57.725517</ele>
        <time>2023-01-07T13:31:11.080Z</time>
      </trkpt>
      <trkpt lat="43.25906" lon="3.18168">
        <ele>57.907968</ele>
        <time>2023-01-07T13:31:14.091Z</time>
      </trkpt>
      <trkpt lat="43.25916" lon="3.18158">
        <ele>58.080702</ele>
        <time>2023-01-07T13:31:17.103Z</time>
      </trkpt>
      <trkpt lat="43.25927" lon="3.18148">
        <ele>58.255314</ele>
        <time>2023-01-07T13:31:20.092Z</time>
      </trkpt>
      <trkpt lat="43.25937" lon="3.18143">
        <ele>58.284113</ele>
        <time>2023-01-07T13:31:23.084Z</time>
      </trkpt>
      <trkpt lat="43.25947" lon="3.18138">
        <ele>57.971972</ele>
        <time>2023-01-07T13:31:27.096Z</time>
      </trkpt>
      <trkpt lat="43.25957" lon="3.18132">
        <ele>57.670821</ele>
        <time>2023-01-07T13:31:31.089Z</time>
      </trkpt>
      <trkpt lat="43.25967" lon="3.18124">
        <ele>57.358945</ele>
        <time>2023-01-07T13:31:35.086Z</time>
      </trkpt>
      <trkpt lat="43.25976" lon="3.18117">
        <ele>57.048745</ele>
        <time>2023-01-07T13:31:39.095Z</time>
      </trkpt>
      <trkpt lat="43.25986" lon="3.1811">
        <ele>56.73224</ele>
        <time>2023-01-07T13:31:43.091Z</time>
      </trkpt>
      <trkpt lat="43.25995" lon="3.18104">
        <ele>56.466882</ele>
        <time>2023-01-07T13:31:46.076Z</time>
      </trkpt>
      <trkpt lat="43.26003" lon="3.18097">
        <ele>56.201131</ele>
        <time>2023-01-07T13:31:49.091Z</time>
      </trkpt>
      <trkpt lat="43.26011" lon="3.18091">
        <ele>55.918903</ele>
        <time>2023-01-07T13:31:52.092Z</time>
      </trkpt>
      <trkpt lat="43.26022" lon="3.18086">
        <ele>55.602081</ele>
        <time>2023-01-07T13:31:56.094Z</time>
      </trkpt>
      <trkpt lat="43.26024" lon="3.18098">
        <ele>55.340899</ele>
        <time>2023-01-07T13:34:20.099Z</time>
      </trkpt>
      <trkpt lat="43.26019" lon="3.18111">
        <ele>55.030981</ele>
        <time>2023-01-07T13:34:24.094Z</time>
      </trkpt>
      <trkpt lat="43.26022" lon="3.18127">
        <ele>54.703089</ele>
        <time>2023-01-07T13:34:28.082Z</time>
      </trkpt>
      <trkpt lat="43.26029" lon="3.1814">
        <ele>54.368385</ele>
        <time>2023-01-07T13:34:32.091Z</time>
      </trkpt>
      <trkpt lat="43.26033" lon="3.18152">
        <ele>54.092855</ele>
        <time>2023-01-07T13:34:35.082Z</time>
      </trkpt>
      <trkpt lat="43.26034" lon="3.18166">
        <ele>53.815374</ele>
        <time>2023-01-07T13:34:38.089Z</time>
      </trkpt>
      <trkpt lat="43.26035" lon="3.18182">
        <ele>53.477789</ele>
        <time>2023-01-07T13:34:41.087Z</time>
      </trkpt>
      <trkpt lat="43.26036" lon="3.18195">
        <ele>53.227207</ele>
        <time>2023-01-07T13:34:43.103Z</time>
      </trkpt>
      <trkpt lat="43.26037" lon="3.18207">
        <ele>52.979632</ele>
        <time>2023-01-07T13:34:45.085Z</time>
      </trkpt>
      <trkpt lat="43.26038" lon="3.18222">
        <ele>52.694817</ele>
        <time>2023-01-07T13:34:47.093Z</time>
      </trkpt>
      <trkpt lat="43.26039" lon="3.18236">
        <ele>52.415571</ele>
        <time>2023-01-07T13:34:49.091Z</time>
      </trkpt>
      <trkpt lat="43.26039" lon="3.18251">
        <ele>52.128114</ele>
        <time>2023-01-07T13:34:51.103Z</time>
      </trkpt>
      <trkpt lat="43.26037" lon="3.18265">
        <ele>51.836621</ele>
        <time>2023-01-07T13:34:53.105Z</time>
      </trkpt>
      <trkpt lat="43.26035" lon="3.1828">
        <ele>51.549656</ele>
        <time>2023-01-07T13:34:55.100Z</time>
      </trkpt>
      <trkpt lat="43.26033" lon="3.18294">
        <ele>51.260174</ele>
        <time>2023-01-07T13:34:57.088Z</time>
      </trkpt>
      <trkpt lat="43.2603" lon="3.18307">
        <ele>50.993462</ele>
        <time>2023-01-07T13:34:59.095Z</time>
      </trkpt>
      <trkpt lat="43.26027" lon="3.1832">
        <ele>50.72461</ele>
        <time>2023-01-07T13:35:01.096Z</time>
      </trkpt>
      <trkpt lat="43.26025" lon="3.18333">
        <ele>50.465461</ele>
        <time>2023-01-07T13:35:03.099Z</time>
      </trkpt>
      <trkpt lat="43.26022" lon="3.18345">
        <ele>50.222772</ele>
        <time>2023-01-07T13:35:05.095Z</time>
      </trkpt>
      <trkpt lat="43.26019" lon="3.18362">
        <ele>49.876279</ele>
        <time>2023-01-07T13:35:08.103Z</time>
      </trkpt>
      <trkpt lat="43.26016" lon="3.18378">
        <ele>49.560821</ele>
        <time>2023-01-07T13:35:11.104Z</time>
      </trkpt>
      <trkpt lat="43.26015" lon="3.18393">
        <ele>49.264322</ele>
        <time>2023-01-07T13:35:14.090Z</time>
      </trkpt>
      <trkpt lat="43.26021" lon="3.18405">
        <ele>48.978734</ele>
        <time>2023-01-07T13:35:17.093Z</time>
      </trkpt>
      <trkpt lat="43.26029" lon="3.18414">
        <ele>48.70085</ele>
        <time>2023-01-07T13:35:20.105Z</time>
      </trkpt>
      <trkpt lat="43.26038" lon="3.18421">
        <ele>48.466581</ele>
        <time>2023-01-07T13:35:23.093Z</time>
      </trkpt>
      <trkpt lat="43.26046" lon="3.18429">
        <ele>48.451581</ele>
        <time>2023-01-07T13:35:26.102Z</time>
      </trkpt>
      <trkpt lat="43.26053" lon="3.18436">
        <ele>48.438048</ele>
        <time>2023-01-07T13:35:29.099Z</time>
      </trkpt>
      <trkpt lat="43.26063" lon="3.18446">
        <ele>48.420282</ele>
        <time>2023-01-07T13:35:33.092Z</time>
      </trkpt>
      <trkpt lat="43.26073" lon="3.18455">
        <ele>48.402823</ele>
        <time>2023-01-07T13:35:37.103Z</time>
      </trkpt>
      <trkpt lat="43.26081" lon="3.18463">
        <ele>48.387815</ele>
        <time>2023-01-07T13:35:41.098Z</time>
      </trkpt>
      <trkpt lat="43.26089" lon="3.1847">
        <ele>48.373288</ele>
        <time>2023-01-07T13:35:45.099Z</time>
      </trkpt>
      <trkpt lat="43.26098" lon="3.18478">
        <ele>48.357541</ele>
        <time>2023-01-07T13:35:49.093Z</time>
      </trkpt>
      <trkpt lat="43.26107" lon="3.18487">
        <ele>48.34039</ele>
        <time>2023-01-07T13:35:53.101Z</time>
      </trkpt>
      <trkpt lat="43.26115" lon="3.18494">
        <ele>48.326742</ele>
        <time>2023-01-07T13:35:56.101Z</time>
      </trkpt>
      <trkpt lat="43.26122" lon="3.18501">
        <ele>48.312776</ele>
        <time>2023-01-07T13:35:59.096Z</time>
      </trkpt>
      <trkpt lat="43.26131" lon="3.18509">
        <ele>48.29796</ele>
        <time>2023-01-07T13:36:02.103Z</time>
      </trkpt>
      <trkpt lat="43.26138" lon="3.18518">
        <ele>48.283145</ele>
        <time>2023-01-07T13:36:05.098Z</time>
      </trkpt>
      <trkpt lat="43.26146" lon="3.18526">
        <ele>48.268269</ele>
        <time>2023-01-07T13:36:08.096Z</time>
      </trkpt>
      <trkpt lat="43.26154" lon="3.18535">
        <ele>48.252932</ele>
        <time>2023-01-07T13:36:11.090Z</time>
      </trkpt>
      <trkpt lat="43.26162" lon="3.18543">
        <ele>48.23845</ele>
        <time>2023-01-07T13:36:14.104Z</time>
      </trkpt>
      <trkpt lat="43.2617" lon="3.18553">
        <ele>48.222492</ele>
        <time>2023-01-07T13:36:18.093Z</time>
      </trkpt>
      <trkpt lat="43.26178" lon="3.18562">
        <ele>48.206308</ele>
        <time>2023-01-07T13:36:22.087Z</time>
      </trkpt>
      <trkpt lat="43.26186" lon="3.1857">
        <ele>48.148629</ele>
        <time>2023-01-07T13:36:26.090Z</time>
      </trkpt>
      <trkpt lat="43.26195" lon="3.18578">
        <ele>48.048527</ele>
        <time>2023-01-07T13:36:31.087Z</time>
      </trkpt>
      <trkpt lat="43.26201" lon="3.18591">
        <ele>47.952271</ele>
        <time>2023-01-07T13:36:35.095Z</time>
      </trkpt>
      <trkpt lat="43.26207" lon="3.18602">
        <ele>47.85556</ele>
        <time>2023-01-07T13:36:39.098Z</time>
      </trkpt>
      <trkpt lat="43.26213" lon="3.18613">
        <ele>47.76893</ele>
        <time>2023-01-07T13:36:43.090Z</time>
      </trkpt>
      <trkpt lat="43.2622" lon="3.18623">
        <ele>47.674353</ele>
        <time>2023-01-07T13:36:48.088Z</time>
      </trkpt>
      <trkpt lat="43.26227" lon="3.18634">
        <ele>47.57896</ele>
        <time>2023-01-07T13:36:52.091Z</time>
      </trkpt>
      <trkpt lat="43.26234" lon="3.18645">
        <ele>47.479667</ele>
        <time>2023-01-07T13:36:56.083Z</time>
      </trkpt>
      <trkpt lat="43.2624" lon="3.18655">
        <ele>47.392785</ele>
        <time>2023-01-07T13:37:00.086Z</time>
      </trkpt>
      <trkpt lat="43.26247" lon="3.18664">
        <ele>47.303446</ele>
        <time>2023-01-07T13:37:04.094Z</time>
      </trkpt>
      <trkpt lat="43.26255" lon="3.18671">
        <ele>47.219926</ele>
        <time>2023-01-07T13:37:08.096Z</time>
      </trkpt>
      <trkpt lat="43.26264" lon="3.18679">
        <ele>47.118974</ele>
        <time>2023-01-07T13:37:12.095Z</time>
      </trkpt>
      <trkpt lat="43.26274" lon="3.18686">
        <ele>47.020876</ele>
        <time>2023-01-07T13:37:16.086Z</time>
      </trkpt>
      <trkpt lat="43.26281" lon="3.18695">
        <ele>46.932017</ele>
        <time>2023-01-07T13:37:22.093Z</time>
      </trkpt>
      <trkpt lat="43.26285" lon="3.18707">
        <ele>46.844073</ele>
        <time>2023-01-07T13:37:26.084Z</time>
      </trkpt>
      <trkpt lat="43.26287" lon="3.1872">
        <ele>46.758165</ele>
        <time>2023-01-07T13:37:30.093Z</time>
      </trkpt>
      <trkpt lat="43.26289" lon="3.18732">
        <ele>46.675898</ele>
        <time>2023-01-07T13:37:34.084Z</time>
      </trkpt>
      <trkpt lat="43.2629" lon="3.18746">
        <ele>46.583025</ele>
        <time>2023-01-07T13:37:38.092Z</time>
      </trkpt>
      <trkpt lat="43.26291" lon="3.18758">
        <ele>46.529676</ele>
        <time>2023-01-07T13:37:42.086Z</time>
      </trkpt>
      <trkpt lat="43.26293" lon="3.18772">
        <ele>46.483041</ele>
        <time>2023-01-07T13:37:47.094Z</time>
      </trkpt>
      <trkpt lat="43.26297" lon="3.18786">
        <ele>46.433574</ele>
        <time>2023-01-07T13:37:52.098Z</time>
      </trkpt>
      <trkpt lat="43.263" lon="3.18799">
        <ele>46.38793</ele>
        <time>2023-01-07T13:37:56.091Z</time>
      </trkpt>
      <trkpt lat="43.26302" lon="3.18814">
        <ele>46.338218</ele>
        <time>2023-01-07T13:38:00.092Z</time>
      </trkpt>
      <trkpt lat="43.26304" lon="3.18828">
        <ele>46.290698</ele>
        <time>2023-01-07T13:38:04.091Z</time>
      </trkpt>
      <trkpt lat="43.26305" lon="3.18844">
        <ele>46.239944</ele>
        <time>2023-01-07T13:38:08.092Z</time>
      </trkpt>
      <trkpt lat="43.26306" lon="3.18859">
        <ele>46.19017</ele>
        <time>2023-01-07T13:38:12.095Z</time>
      </trkpt>
      <trkpt lat="43.26306" lon="3.18871">
        <ele>46.148699</ele>
        <time>2023-01-07T13:38:16.102Z</time>
      </trkpt>
      <trkpt lat="43.26305" lon="3.18885">
        <ele>46.101952</ele>
        <time>2023-01-07T13:38:21.101Z</time>
      </trkpt>
      <trkpt lat="43.26303" lon="3.18901">
        <ele>46.050456</ele>
        <time>2023-01-07T13:38:26.101Z</time>
      </trkpt>
      <trkpt lat="43.26304" lon="3.18915">
        <ele>46.001535</ele>
        <time>2023-01-07T13:38:31.092Z</time>
      </trkpt>
      <trkpt lat="43.26309" lon="3.18927">
        <ele>45.956981</ele>
        <time>2023-01-07T13:38:35.092Z</time>
      </trkpt>
      <trkpt lat="43.26311" lon="3.1894">
        <ele>45.91278</ele>
        <time>2023-01-07T13:38:39.085Z</time>
      </trkpt>
      <trkpt lat="43.26315" lon="3.18954">
        <ele>45.865141</ele>
        <time>2023-01-07T13:38:44.081Z</time>
      </trkpt>
      <trkpt lat="43.2632" lon="3.18967">
        <ele>45.815521</ele>
        <time>2023-01-07T13:38:49.081Z</time>
      </trkpt>
      <trkpt lat="43.26324" lon="3.1898">
        <ele>45.769418</ele>
        <time>2023-01-07T13:38:54.098Z</time>
      </trkpt>
      <trkpt lat="43.26325" lon="3.18994">
        <ele>45.730112</ele>
        <time>2023-01-07T13:38:58.094Z</time>
      </trkpt>
      <trkpt lat="43.26326" lon="3.19007">
        <ele>45.700357</ele>
        <time>2023-01-07T13:39:03.093Z</time>
      </trkpt>
      <trkpt lat="43.26333" lon="3.19018">
        <ele>45.667424</ele>
        <time>2023-01-07T13:39:08.086Z</time>
      </trkpt>
      <trkpt lat="43.26338" lon="3.19029">
        <ele>45.638383</ele>
        <time>2023-01-07T13:39:12.092Z</time>
      </trkpt>
      <trkpt lat="43.26341" lon="3.19042">
        <ele>45.607027</ele>
        <time>2023-01-07T13:39:16.091Z</time>
      </trkpt>
      <trkpt lat="43.26343" lon="3.19057">
        <ele>45.571787</ele>
        <time>2023-01-07T13:39:20.094Z</time>
      </trkpt>
      <trkpt lat="43.26347" lon="3.19071">
        <ele>45.538717</ele>
        <time>2023-01-07T13:39:24.086Z</time>
      </trkpt>
      <trkpt lat="43.2635" lon="3.19083">
        <ele>45.508107</ele>
        <time>2023-01-07T13:39:28.089Z</time>
      </trkpt>
      <trkpt lat="43.26352" lon="3.19098">
        <ele>45.473538</ele>
        <time>2023-01-07T13:39:33.088Z</time>
      </trkpt>
      <trkpt lat="43.26353" lon="3.19113">
        <ele>45.440211</ele>
        <time>2023-01-07T13:39:38.095Z</time>
      </trkpt>
      <trkpt lat="43.2635" lon="3.19125">
        <ele>45.411844</ele>
        <time>2023-01-07T13:39:43.092Z</time>
      </trkpt>
      <trkpt lat="43.26345" lon="3.19136">
        <ele>45.382803</ele>
        <time>2023-01-07T13:39:49.095Z</time>
      </trkpt>
      <trkpt lat="43.2634" lon="3.19148">
        <ele>45.350517</ele>
        <time>2023-01-07T13:39:53.091Z</time>
      </trkpt>
      <trkpt lat="43.26336" lon="3.19162">
        <ele>45.315698</ele>
        <time>2023-01-07T13:39:57.093Z</time>
      </trkpt>
      <trkpt lat="43.26331" lon="3.19176">
        <ele>45.281136</ele>
        <time>2023-01-07T13:40:01.089Z</time>
      </trkpt>
      <trkpt lat="43.26326" lon="3.19188">
        <ele>45.248672</ele>
        <time>2023-01-07T13:40:05.083Z</time>
      </trkpt>
      <trkpt lat="43.2632" lon="3.192">
        <ele>45.215601</ele>
        <time>2023-01-07T13:40:09.083Z</time>
      </trkpt>
      <trkpt lat="43.26316" lon="3.19215">
        <ele>45.17424</ele>
        <time>2023-01-07T13:40:13.094Z</time>
      </trkpt>
      <trkpt lat="43.26312" lon="3.1923">
        <ele>45.07244</ele>
        <time>2023-01-07T13:40:17.100Z</time>
      </trkpt>
      <trkpt lat="43.2631" lon="3.19244">
        <ele>44.978042</ele>
        <time>2023-01-07T13:40:21.084Z</time>
      </trkpt>
      <trkpt lat="43.26306" lon="3.19258">
        <ele>44.88113</ele>
        <time>2023-01-07T13:40:26.095Z</time>
      </trkpt>
      <trkpt lat="43.263" lon="3.19269">
        <ele>44.793859</ele>
        <time>2023-01-07T13:40:30.083Z</time>
      </trkpt>
      <trkpt lat="43.26299" lon="3.19283">
        <ele>44.699066</ele>
        <time>2023-01-07T13:40:35.105Z</time>
      </trkpt>
      <trkpt lat="43.26298" lon="3.19296">
        <ele>44.61825</ele>
        <time>2023-01-07T13:40:39.092Z</time>
      </trkpt>
      <trkpt lat="43.26296" lon="3.19309">
        <ele>44.52645</ele>
        <time>2023-01-07T13:40:45.086Z</time>
      </trkpt>
      <trkpt lat="43.26294" lon="3.19322">
        <ele>44.443171</ele>
        <time>2023-01-07T13:40:49.084Z</time>
      </trkpt>
      <trkpt lat="43.26294" lon="3.19335">
        <ele>44.358599</ele>
        <time>2023-01-07T13:40:54.085Z</time>
      </trkpt>
      <trkpt lat="43.26296" lon="3.19349">
        <ele>44.266132</ele>
        <time>2023-01-07T13:40:59.088Z</time>
      </trkpt>
      <trkpt lat="43.26299" lon="3.19361">
        <ele>44.183222</ele>
        <time>2023-01-07T13:41:03.091Z</time>
      </trkpt>
      <trkpt lat="43.26302" lon="3.19373">
        <ele>44.100393</ele>
        <time>2023-01-07T13:41:07.084Z</time>
      </trkpt>
      <trkpt lat="43.26302" lon="3.19385">
        <ele>44.019109</ele>
        <time>2023-01-07T13:41:18.092Z</time>
      </trkpt>
      <trkpt lat="43.26304" lon="3.19398">
        <ele>43.932752</ele>
        <time>2023-01-07T13:41:37.084Z</time>
      </trkpt>
      <trkpt lat="43.26308" lon="3.1941">
        <ele>43.851442</ele>
        <time>2023-01-07T13:41:43.087Z</time>
      </trkpt>
      <trkpt lat="43.26312" lon="3.19423">
        <ele>43.760364</ele>
        <time>2023-01-07T13:41:57.089Z</time>
      </trkpt>
      <trkpt lat="43.26308" lon="3.19435">
        <ele>43.673134</ele>
        <time>2023-01-07T13:42:02.092Z</time>
      </trkpt>
      <trkpt lat="43.26306" lon="3.1945">
        <ele>43.577479</ele>
        <time>2023-01-07T13:42:07.086Z</time>
      </trkpt>
      <trkpt lat="43.26307" lon="3.19463">
        <ele>43.592227</ele>
        <time>2023-01-07T13:42:12.100Z</time>
      </trkpt>
      <trkpt lat="43.26308" lon="3.19477">
        <ele>43.607711</ele>
        <time>2023-01-07T13:42:18.085Z</time>
      </trkpt>
      <trkpt lat="43.26308" lon="3.19489">
        <ele>43.62163</ele>
        <time>2023-01-07T13:42:24.094Z</time>
      </trkpt>
      <trkpt lat="43.26307" lon="3.19507">
        <ele>43.641083</ele>
        <time>2023-01-07T13:44:10.097Z</time>
      </trkpt>
      <trkpt lat="43.26316" lon="3.1951">
        <ele>43.654798</ele>
        <time>2023-01-07T13:44:23.099Z</time>
      </trkpt>
      <trkpt lat="43.26319" lon="3.19522">
        <ele>43.668763</ele>
        <time>2023-01-07T13:44:31.086Z</time>
      </trkpt>
      <trkpt lat="43.26326" lon="3.1953">
        <ele>43.6825</ele>
        <time>2023-01-07T13:44:39.098Z</time>
      </trkpt>
      <trkpt lat="43.26334" lon="3.19538">
        <ele>43.697628</ele>
        <time>2023-01-07T13:44:53.100Z</time>
      </trkpt>
      <trkpt lat="43.26339" lon="3.19552">
        <ele>43.714302</ele>
        <time>2023-01-07T13:44:59.095Z</time>
      </trkpt>
      <trkpt lat="43.26345" lon="3.19564">
        <ele>43.730112</ele>
        <time>2023-01-07T13:45:04.102Z</time>
      </trkpt>
      <trkpt lat="43.26352" lon="3.19574">
        <ele>43.745405</ele>
        <time>2023-01-07T13:45:09.091Z</time>
      </trkpt>
      <trkpt lat="43.26359" lon="3.19585">
        <ele>43.761675</ele>
        <time>2023-01-07T13:45:14.104Z</time>
      </trkpt>
      <trkpt lat="43.26365" lon="3.19597">
        <ele>43.778276</ele>
        <time>2023-01-07T13:45:19.096Z</time>
      </trkpt>
      <trkpt lat="43.26371" lon="3.19608">
        <ele>43.793449</ele>
        <time>2023-01-07T13:45:24.099Z</time>
      </trkpt>
      <trkpt lat="43.26377" lon="3.1962">
        <ele>43.809158</ele>
        <time>2023-01-07T13:45:29.092Z</time>
      </trkpt>
      <trkpt lat="43.26383" lon="3.19631">
        <ele>43.824063</ele>
        <time>2023-01-07T13:45:34.081Z</time>
      </trkpt>
      <trkpt lat="43.26388" lon="3.19641">
        <ele>43.838255</ele>
        <time>2023-01-07T13:45:39.086Z</time>
      </trkpt>
      <trkpt lat="43.26395" lon="3.19652">
        <ele>43.913939</ele>
        <time>2023-01-07T13:45:44.081Z</time>
      </trkpt>
      <trkpt lat="43.26402" lon="3.19662">
        <ele>44.150651</ele>
        <time>2023-01-07T13:45:49.087Z</time>
      </trkpt>
      <trkpt lat="43.26408" lon="3.19672">
        <ele>44.378096</ele>
        <time>2023-01-07T13:45:54.082Z</time>
      </trkpt>
      <trkpt lat="43.26414" lon="3.19684">
        <ele>44.629117</ele>
        <time>2023-01-07T13:45:59.103Z</time>
      </trkpt>
      <trkpt lat="43.26421" lon="3.19696">
        <ele>44.88428</ele>
        <time>2023-01-07T13:46:04.101Z</time>
      </trkpt>
      <trkpt lat="43.26426" lon="3.19708">
        <ele>45.130219</ele>
        <time>2023-01-07T13:46:09.099Z</time>
      </trkpt>
      <trkpt lat="43.26433" lon="3.1972">
        <ele>45.389533</ele>
        <time>2023-01-07T13:46:15.102Z</time>
      </trkpt>
      <trkpt lat="43.26439" lon="3.1973">
        <ele>45.604562</ele>
        <time>2023-01-07T13:46:20.085Z</time>
      </trkpt>
      <trkpt lat="43.26442" lon="3.19755">
        <ele>46.039989</ele>
        <time>2023-01-07T13:46:50.090Z</time>
      </trkpt>
      <trkpt lat="43.26439" lon="3.19767">
        <ele>46.26739</ele>
        <time>2023-01-07T13:46:56.093Z</time>
      </trkpt>
      <trkpt lat="43.26443" lon="3.19779">
        <ele>46.493076</ele>
        <time>2023-01-07T13:47:02.089Z</time>
      </trkpt>
      <trkpt lat="43.26443" lon="3.19794">
        <ele>46.735051</ele>
        <time>2023-01-07T13:47:08.084Z</time>
      </trkpt>
      <trkpt lat="43.26443" lon="3.19776">
        <ele>47.043833</ele>
        <time>2023-01-07T13:47:33.090Z</time>
      </trkpt>
      <trkpt lat="43.26441" lon="3.19762">
        <ele>47.273438</ele>
        <time>2023-01-07T13:47:38.094Z</time>
      </trkpt>
      <trkpt lat="43.26441" lon="3.1975">
        <ele>47.489592</ele>
        <time>2023-01-07T13:47:43.105Z</time>
      </trkpt>
      <trkpt lat="43.26445" lon="3.19738">
        <ele>47.720311</ele>
        <time>2023-01-07T13:47:49.083Z</time>
      </trkpt>
      <trkpt lat="43.26456" lon="3.19734">
        <ele>47.970682</ele>
        <time>2023-01-07T13:48:56.084Z</time>
      </trkpt>
      <trkpt lat="43.26465" lon="3.1973">
        <ele>48.319498</ele>
        <time>2023-01-07T13:49:04.111Z</time>
      </trkpt>
      <trkpt lat="43.26474" lon="3.19726">
        <ele>48.764683</ele>
        <time>2023-01-07T13:49:13.091Z</time>
      </trkpt>
      <trkpt lat="43.26479" lon="3.19714">
        <ele>49.223061</ele>
        <time>2023-01-07T13:49:23.082Z</time>
      </trkpt>
      <trkpt lat="43.2648" lon="3.19701">
        <ele>49.679521</ele>
        <time>2023-01-07T13:49:34.098Z</time>
      </trkpt>
      <trkpt lat="43.2648" lon="3.19688">
        <ele>50.142367</ele>
        <time>2023-01-07T13:49:44.093Z</time>
      </trkpt>
      <trkpt lat="43.2648" lon="3.19675">
        <ele>50.585312</ele>
        <time>2023-01-07T13:49:53.100Z</time>
      </trkpt>
      <trkpt lat="43.26482" lon="3.19662">
        <ele>51.050993</ele>
        <time>2023-01-07T13:50:02.093Z</time>
      </trkpt>
      <trkpt lat="43.26482" lon="3.19649">
        <ele>51.499929</ele>
        <time>2023-01-07T13:50:12.095Z</time>
      </trkpt>
      <trkpt lat="43.26482" lon="3.19635">
        <ele>51.962775</ele>
        <time>2023-01-07T13:50:21.090Z</time>
      </trkpt>
      <trkpt lat="43.26481" lon="3.19622">
        <ele>52.417644</ele>
        <time>2023-01-07T13:50:30.089Z</time>
      </trkpt>
      <trkpt lat="43.26481" lon="3.19609">
        <ele>52.880612</ele>
        <time>2023-01-07T13:50:39.102Z</time>
      </trkpt>
      <trkpt lat="43.26484" lon="3.19597">
        <ele>53.318285</ele>
        <time>2023-01-07T13:50:47.100Z</time>
      </trkpt>
      <trkpt lat="43.26485" lon="3.19584">
        <ele>53.770242</ele>
        <time>2023-01-07T13:50:56.094Z</time>
      </trkpt>
      <trkpt lat="43.26485" lon="3.1957">
        <ele>54.236661</ele>
        <time>2023-01-07T13:51:06.090Z</time>
      </trkpt>
      <trkpt lat="43.26492" lon="3.1956">
        <ele>54.709155</ele>
        <time>2023-01-07T13:51:16.092Z</time>
      </trkpt>
      <trkpt lat="43.26501" lon="3.19557">
        <ele>55.146339</ele>
        <time>2023-01-07T13:51:26.078Z</time>
      </trkpt>
      <trkpt lat="43.2651" lon="3.19554">
        <ele>55.614022</ele>
        <time>2023-01-07T13:51:35.087Z</time>
      </trkpt>
      <trkpt lat="43.26519" lon="3.19551">
        <ele>56.0509</ele>
        <time>2023-01-07T13:51:44.099Z</time>
      </trkpt>
      <trkpt lat="43.26528" lon="3.19547">
        <ele>56.490494</ele>
        <time>2023-01-07T13:51:53.103Z</time>
      </trkpt>
      <trkpt lat="43.26537" lon="3.19543">
        <ele>56.628201</ele>
        <time>2023-01-07T13:52:02.095Z</time>
      </trkpt>
      <trkpt lat="43.26547" lon="3.19541">
        <ele>56.644798</ele>
        <time>2023-01-07T13:52:11.084Z</time>
      </trkpt>
      <trkpt lat="43.26557" lon="3.19537">
        <ele>56.661644</ele>
        <time>2023-01-07T13:52:20.099Z</time>
      </trkpt>
      <trkpt lat="43.26566" lon="3.19535">
        <ele>56.677765</ele>
        <time>2023-01-07T13:52:29.111Z</time>
      </trkpt>
      <trkpt lat="43.26564" lon="3.19523">
        <ele>56.693397</ele>
        <time>2023-01-07T13:53:05.096Z</time>
      </trkpt>
      <trkpt lat="43.26558" lon="3.19513">
        <ele>56.708576</ele>
        <time>2023-01-07T13:53:13.085Z</time>
      </trkpt>
      <trkpt lat="43.26553" lon="3.19502">
        <ele>56.724749</ele>
        <time>2023-01-07T13:53:24.093Z</time>
      </trkpt>
      <trkpt lat="43.26548" lon="3.1949">
        <ele>56.74166</ele>
        <time>2023-01-07T13:53:32.095Z</time>
      </trkpt>
      <trkpt lat="43.26542" lon="3.19478">
        <ele>56.758952</ele>
        <time>2023-01-07T13:53:40.085Z</time>
      </trkpt>
      <trkpt lat="43.26542" lon="3.19464">
        <ele>56.775714</ele>
        <time>2023-01-07T13:53:48.106Z</time>
      </trkpt>
      <trkpt lat="43.26535" lon="3.19455">
        <ele>56.791168</ele>
        <time>2023-01-07T13:53:57.090Z</time>
      </trkpt>
      <trkpt lat="43.26527" lon="3.1945">
        <ele>56.806795</ele>
        <time>2023-01-07T13:54:07.099Z</time>
      </trkpt>
      <trkpt lat="43.26517" lon="3.19449">
        <ele>56.823195</ele>
        <time>2023-01-07T13:54:51.095Z</time>
      </trkpt>
      <trkpt lat="43.26508" lon="3.19449">
        <ele>56.838435</ele>
        <time>2023-01-07T13:55:00.089Z</time>
      </trkpt>
      <trkpt lat="43.26498" lon="3.19451">
        <ele>56.854466</ele>
        <time>2023-01-07T13:55:08.092Z</time>
      </trkpt>
      <trkpt lat="43.26488" lon="3.19451">
        <ele>56.871032</ele>
        <time>2023-01-07T13:55:18.104Z</time>
      </trkpt>
      <trkpt lat="43.26479" lon="3.19448">
        <ele>56.887547</ele>
        <time>2023-01-07T13:55:27.102Z</time>
      </trkpt>
      <trkpt lat="43.26469" lon="3.1945">
        <ele>56.904183</ele>
        <time>2023-01-07T13:55:37.099Z</time>
      </trkpt>
      <trkpt lat="43.2646" lon="3.19452">
        <ele>56.904669</ele>
        <time>2023-01-07T13:55:50.096Z</time>
      </trkpt>
      <trkpt lat="43.26469" lon="3.19451">
        <ele>56.751703</ele>
        <time>2023-01-07T13:56:19.101Z</time>
      </trkpt>
      <trkpt lat="43.26477" lon="3.1946">
        <ele>56.589984</ele>
        <time>2023-01-07T13:56:32.104Z</time>
      </trkpt>
      <trkpt lat="43.26481" lon="3.19471">
        <ele>56.442499</ele>
        <time>2023-01-07T13:56:40.103Z</time>
      </trkpt>
      <trkpt lat="43.26485" lon="3.19483">
        <ele>56.2835</ele>
        <time>2023-01-07T13:56:49.089Z</time>
      </trkpt>
      <trkpt lat="43.2649" lon="3.19495">
        <ele>56.12414</ele>
        <time>2023-01-07T13:56:57.111Z</time>
      </trkpt>
      <trkpt lat="43.26493" lon="3.19508">
        <ele>55.964477</ele>
        <time>2023-01-07T13:57:05.106Z</time>
      </trkpt>
      <trkpt lat="43.26495" lon="3.1952">
        <ele>55.817643</ele>
        <time>2023-01-07T13:57:13.096Z</time>
      </trkpt>
      <trkpt lat="43.26499" lon="3.19532">
        <ele>55.663784</ele>
        <time>2023-01-07T13:57:21.094Z</time>
      </trkpt>
      <trkpt lat="43.26502" lon="3.19543">
        <ele>55.517952</ele>
        <time>2023-01-07T13:57:29.101Z</time>
      </trkpt>
      <trkpt lat="43.26516" lon="3.1955">
        <ele>55.273609</ele>
        <time>2023-01-07T13:58:15.103Z</time>
      </trkpt>
      <trkpt lat="43.26526" lon="3.19547">
        <ele>55.117213</ele>
        <time>2023-01-07T13:58:24.103Z</time>
      </trkpt>
      <trkpt lat="43.26535" lon="3.19543">
        <ele>54.962146</ele>
        <time>2023-01-07T13:58:33.091Z</time>
      </trkpt>
      <trkpt lat="43.26544" lon="3.1954">
        <ele>54.816009</ele>
        <time>2023-01-07T13:58:42.089Z</time>
      </trkpt>
      <trkpt lat="43.26553" lon="3.19537">
        <ele>54.664387</ele>
        <time>2023-01-07T13:58:51.097Z</time>
      </trkpt>
      <trkpt lat="43.26562" lon="3.19534">
        <ele>54.505733</ele>
        <time>2023-01-07T13:59:00.098Z</time>
      </trkpt>
      <trkpt lat="43.26554" lon="3.19538">
        <ele>54.357372</ele>
        <time>2023-01-07T14:07:19.101Z</time>
      </trkpt>
      <trkpt lat="43.26545" lon="3.1954">
        <ele>54.208675</ele>
        <time>2023-01-07T14:07:27.115Z</time>
      </trkpt>
      <trkpt lat="43.26535" lon="3.19544">
        <ele>54.045897</ele>
        <time>2023-01-07T14:07:35.118Z</time>
      </trkpt>
      <trkpt lat="43.26526" lon="3.19547">
        <ele>53.671682</ele>
        <time>2023-01-07T14:07:42.113Z</time>
      </trkpt>
      <trkpt lat="43.26517" lon="3.1955">
        <ele>53.186777</ele>
        <time>2023-01-07T14:07:51.117Z</time>
      </trkpt>
      <trkpt lat="43.26508" lon="3.19555">
        <ele>52.711403</ele>
        <time>2023-01-07T14:07:59.163Z</time>
      </trkpt>
      <trkpt lat="43.26498" lon="3.19557">
        <ele>52.212203</ele>
        <time>2023-01-07T14:08:07.117Z</time>
      </trkpt>
      <trkpt lat="43.26491" lon="3.19564">
        <ele>51.752846</ele>
        <time>2023-01-07T14:08:15.114Z</time>
      </trkpt>
      <trkpt lat="43.26486" lon="3.19575">
        <ele>51.287436</ele>
        <time>2023-01-07T14:08:22.095Z</time>
      </trkpt>
      <trkpt lat="43.26485" lon="3.19588">
        <ele>50.826047</ele>
        <time>2023-01-07T14:08:29.119Z</time>
      </trkpt>
      <trkpt lat="43.26482" lon="3.196">
        <ele>50.353723</ele>
        <time>2023-01-07T14:08:36.118Z</time>
      </trkpt>
      <trkpt lat="43.26483" lon="3.19612">
        <ele>49.887075</ele>
        <time>2023-01-07T14:08:46.113Z</time>
      </trkpt>
      <trkpt lat="43.26483" lon="3.19626">
        <ele>49.399093</ele>
        <time>2023-01-07T14:08:53.120Z</time>
      </trkpt>
      <trkpt lat="43.26483" lon="3.19639">
        <ele>48.916763</ele>
        <time>2023-01-07T14:09:00.181Z</time>
      </trkpt>
      <trkpt lat="43.26483" lon="3.19651">
        <ele>48.460799</ele>
        <time>2023-01-07T14:09:07.120Z</time>
      </trkpt>
      <trkpt lat="43.26482" lon="3.19665">
        <ele>47.957737</ele>
        <time>2023-01-07T14:09:14.116Z</time>
      </trkpt>
      <trkpt lat="43.26482" lon="3.19678">
        <ele>47.476434</ele>
        <time>2023-01-07T14:09:22.114Z</time>
      </trkpt>
      <trkpt lat="43.26481" lon="3.1969">
        <ele>47.020109</ele>
        <time>2023-01-07T14:09:29.121Z</time>
      </trkpt>
      <trkpt lat="43.2648" lon="3.19714">
        <ele>46.166748</ele>
        <time>2023-01-07T14:10:25.109Z</time>
      </trkpt>
      <trkpt lat="43.26475" lon="3.19725">
        <ele>45.687863</ele>
        <time>2023-01-07T14:10:34.086Z</time>
      </trkpt>
      <trkpt lat="43.26467" lon="3.1973">
        <ele>45.225105</ele>
        <time>2023-01-07T14:10:43.090Z</time>
      </trkpt>
      <trkpt lat="43.26458" lon="3.19735">
        <ele>44.918614</ele>
        <time>2023-01-07T14:10:50.103Z</time>
      </trkpt>
      <trkpt lat="43.26442" lon="3.19728">
        <ele>44.818432</ele>
        <time>2023-01-07T14:13:18.107Z</time>
      </trkpt>
      <trkpt lat="43.26433" lon="3.19718">
        <ele>44.754073</ele>
        <time>2023-01-07T14:13:28.115Z</time>
      </trkpt>
      <trkpt lat="43.26427" lon="3.19709">
        <ele>44.695673</ele>
        <time>2023-01-07T14:13:32.113Z</time>
      </trkpt>
      <trkpt lat="43.26422" lon="3.19696">
        <ele>44.633368</ele>
        <time>2023-01-07T14:13:36.108Z</time>
      </trkpt>
      <trkpt lat="43.26416" lon="3.19684">
        <ele>44.570022</ele>
        <time>2023-01-07T14:13:40.108Z</time>
      </trkpt>
      <trkpt lat="43.2641" lon="3.19673">
        <ele>44.509545</ele>
        <time>2023-01-07T14:13:44.116Z</time>
      </trkpt>
      <trkpt lat="43.26404" lon="3.19663">
        <ele>44.451121</ele>
        <time>2023-01-07T14:13:48.116Z</time>
      </trkpt>
      <trkpt lat="43.26398" lon="3.19653">
        <ele>44.396188</ele>
        <time>2023-01-07T14:13:52.108Z</time>
      </trkpt>
      <trkpt lat="43.26391" lon="3.19642">
        <ele>44.334271</ele>
        <time>2023-01-07T14:13:56.091Z</time>
      </trkpt>
      <trkpt lat="43.26385" lon="3.19631">
        <ele>44.272008</ele>
        <time>2023-01-07T14:14:00.095Z</time>
      </trkpt>
      <trkpt lat="43.26378" lon="3.19619">
        <ele>44.206544</ele>
        <time>2023-01-07T14:14:04.102Z</time>
      </trkpt>
      <trkpt lat="43.26372" lon="3.19608">
        <ele>44.143169</ele>
        <time>2023-01-07T14:14:08.084Z</time>
      </trkpt>
      <trkpt lat="43.26366" lon="3.19596">
        <ele>44.080884</ele>
        <time>2023-01-07T14:14:12.107Z</time>
      </trkpt>
      <trkpt lat="43.26359" lon="3.19585">
        <ele>44.018567</ele>
        <time>2023-01-07T14:14:16.109Z</time>
      </trkpt>
      <trkpt lat="43.26353" lon="3.19574">
        <ele>43.957341</ele>
        <time>2023-01-07T14:14:20.109Z</time>
      </trkpt>
      <trkpt lat="43.26347" lon="3.19563">
        <ele>43.897924</ele>
        <time>2023-01-07T14:14:24.107Z</time>
      </trkpt>
      <trkpt lat="43.26341" lon="3.19554">
        <ele>43.878166</ele>
        <time>2023-01-07T14:14:28.099Z</time>
      </trkpt>
      <trkpt lat="43.26335" lon="3.19544">
        <ele>43.922676</ele>
        <time>2023-01-07T14:14:32.118Z</time>
      </trkpt>
      <trkpt lat="43.26328" lon="3.19536">
        <ele>43.966771</ele>
        <time>2023-01-07T14:14:36.117Z</time>
      </trkpt>
      <trkpt lat="43.26322" lon="3.19527">
        <ele>44.009872</ele>
        <time>2023-01-07T14:14:41.115Z</time>
      </trkpt>
      <trkpt lat="43.26317" lon="3.19514">
        <ele>44.059966</ele>
        <time>2023-01-07T14:14:47.111Z</time>
      </trkpt>
      <trkpt lat="43.2631" lon="3.19504">
        <ele>44.10755</ele>
        <time>2023-01-07T14:14:52.106Z</time>
      </trkpt>
      <trkpt lat="43.26308" lon="3.19479">
        <ele>44.191382</ele>
        <time>2023-01-07T14:15:55.118Z</time>
      </trkpt>
      <trkpt lat="43.26308" lon="3.19467">
        <ele>44.235786</ele>
        <time>2023-01-07T14:16:00.101Z</time>
      </trkpt>
      <trkpt lat="43.26308" lon="3.19452">
        <ele>44.286024</ele>
        <time>2023-01-07T14:16:05.115Z</time>
      </trkpt>
      <trkpt lat="43.26308" lon="3.1944">
        <ele>44.329368</ele>
        <time>2023-01-07T14:16:09.115Z</time>
      </trkpt>
      <trkpt lat="43.26312" lon="3.19428">
        <ele>44.373367</ele>
        <time>2023-01-07T14:16:13.098Z</time>
      </trkpt>
      <trkpt lat="43.26313" lon="3.19414">
        <ele>44.421063</ele>
        <time>2023-01-07T14:16:18.105Z</time>
      </trkpt>
      <trkpt lat="43.26306" lon="3.19403">
        <ele>44.470675</ele>
        <time>2023-01-07T14:16:25.087Z</time>
      </trkpt>
      <trkpt lat="43.26304" lon="3.19389">
        <ele>44.520605</ele>
        <time>2023-01-07T14:16:31.100Z</time>
      </trkpt>
      <trkpt lat="43.26303" lon="3.19377">
        <ele>44.563634</ele>
        <time>2023-01-07T14:16:52.115Z</time>
      </trkpt>
      <trkpt lat="43.26299" lon="3.19365">
        <ele>44.608201</ele>
        <time>2023-01-07T14:16:57.116Z</time>
      </trkpt>
      <trkpt lat="43.26296" lon="3.19352">
        <ele>44.654167</ele>
        <time>2023-01-07T14:17:02.117Z</time>
      </trkpt>
      <trkpt lat="43.26295" lon="3.19337">
        <ele>44.707245</ele>
        <time>2023-01-07T14:17:07.112Z</time>
      </trkpt>
      <trkpt lat="43.26294" lon="3.19322">
        <ele>44.809993</ele>
        <time>2023-01-07T14:17:12.104Z</time>
      </trkpt>
      <trkpt lat="43.26296" lon="3.19309">
        <ele>44.917228</ele>
        <time>2023-01-07T14:17:17.117Z</time>
      </trkpt>
      <trkpt lat="43.263" lon="3.19295">
        <ele>45.030177</ele>
        <time>2023-01-07T14:17:22.116Z</time>
      </trkpt>
      <trkpt lat="43.26301" lon="3.19283">
        <ele>45.130464</ele>
        <time>2023-01-07T14:17:26.096Z</time>
      </trkpt>
      <trkpt lat="43.26303" lon="3.1927">
        <ele>45.23248</ele>
        <time>2023-01-07T14:17:30.104Z</time>
      </trkpt>
      <trkpt lat="43.26308" lon="3.19258">
        <ele>45.344625</ele>
        <time>2023-01-07T14:17:35.095Z</time>
      </trkpt>
      <trkpt lat="43.26313" lon="3.19246">
        <ele>45.452541</ele>
        <time>2023-01-07T14:17:41.102Z</time>
      </trkpt>
      <trkpt lat="43.26315" lon="3.19232">
        <ele>45.562296</ele>
        <time>2023-01-07T14:17:46.112Z</time>
      </trkpt>
      <trkpt lat="43.26316" lon="3.19218">
        <ele>45.675942</ele>
        <time>2023-01-07T14:18:30.100Z</time>
      </trkpt>
      <trkpt lat="43.26318" lon="3.19205">
        <ele>45.774709</ele>
        <time>2023-01-07T14:18:36.086Z</time>
      </trkpt>
      <trkpt lat="43.26324" lon="3.19194">
        <ele>45.87641</ele>
        <time>2023-01-07T14:18:40.096Z</time>
      </trkpt>
      <trkpt lat="43.26328" lon="3.19183">
        <ele>45.97865</ele>
        <time>2023-01-07T14:18:45.111Z</time>
      </trkpt>
      <trkpt lat="43.26333" lon="3.19172">
        <ele>46.081665</ele>
        <time>2023-01-07T14:18:50.103Z</time>
      </trkpt>
      <trkpt lat="43.26338" lon="3.19158">
        <ele>46.200853</ele>
        <time>2023-01-07T14:18:55.101Z</time>
      </trkpt>
      <trkpt lat="43.26343" lon="3.19146">
        <ele>46.311672</ele>
        <time>2023-01-07T14:19:00.110Z</time>
      </trkpt>
      <trkpt lat="43.26347" lon="3.19134">
        <ele>46.418396</ele>
        <time>2023-01-07T14:19:04.114Z</time>
      </trkpt>
      <trkpt lat="43.26351" lon="3.19123">
        <ele>46.516463</ele>
        <time>2023-01-07T14:19:09.107Z</time>
      </trkpt>
      <trkpt lat="43.26354" lon="3.19109">
        <ele>46.622312</ele>
        <time>2023-01-07T14:19:14.085Z</time>
      </trkpt>
      <trkpt lat="43.2635" lon="3.19094">
        <ele>46.655529</ele>
        <time>2023-01-07T14:19:19.086Z</time>
      </trkpt>
      <trkpt lat="43.26349" lon="3.1908">
        <ele>46.65199</ele>
        <time>2023-01-07T14:19:23.101Z</time>
      </trkpt>
      <trkpt lat="43.26344" lon="3.19065">
        <ele>46.648052</ele>
        <time>2023-01-07T14:19:27.101Z</time>
      </trkpt>
      <trkpt lat="43.26341" lon="3.19051">
        <ele>46.644406</ele>
        <time>2023-01-07T14:19:31.111Z</time>
      </trkpt>
      <trkpt lat="43.26339" lon="3.19036">
        <ele>46.640728</ele>
        <time>2023-01-07T14:19:35.110Z</time>
      </trkpt>
      <trkpt lat="43.26335" lon="3.1902">
        <ele>46.636777</ele>
        <time>2023-01-07T14:19:39.105Z</time>
      </trkpt>
      <trkpt lat="43.26331" lon="3.19009">
        <ele>46.633561</ele>
        <time>2023-01-07T14:19:43.103Z</time>
      </trkpt>
      <trkpt lat="43.26327" lon="3.18996">
        <ele>46.63025</ele>
        <time>2023-01-07T14:19:48.106Z</time>
      </trkpt>
      <trkpt lat="43.26326" lon="3.18982">
        <ele>46.626814</ele>
        <time>2023-01-07T14:19:53.103Z</time>
      </trkpt>
      <trkpt lat="43.26323" lon="3.18967">
        <ele>46.623027</ele>
        <time>2023-01-07T14:19:58.093Z</time>
      </trkpt>
      <trkpt lat="43.26318" lon="3.18956">
        <ele>46.619716</ele>
        <time>2023-01-07T14:20:02.098Z</time>
      </trkpt>
      <trkpt lat="43.26314" lon="3.18944">
        <ele>46.616525</ele>
        <time>2023-01-07T14:20:07.094Z</time>
      </trkpt>
      <trkpt lat="43.26312" lon="3.1893">
        <ele>46.613123</ele>
        <time>2023-01-07T14:20:12.091Z</time>
      </trkpt>
      <trkpt lat="43.26308" lon="3.18917">
        <ele>46.609622</ele>
        <time>2023-01-07T14:20:17.094Z</time>
      </trkpt>
      <trkpt lat="43.26305" lon="3.18905">
        <ele>46.606532</ele>
        <time>2023-01-07T14:20:21.104Z</time>
      </trkpt>
      <trkpt lat="43.26307" lon="3.18893">
        <ele>46.603495</ele>
        <time>2023-01-07T14:20:26.106Z</time>
      </trkpt>
      <trkpt lat="43.26309" lon="3.18879">
        <ele>46.599973</ele>
        <time>2023-01-07T14:20:32.104Z</time>
      </trkpt>
      <trkpt lat="43.26315" lon="3.1887">
        <ele>46.636958</ele>
        <time>2023-01-07T14:20:37.100Z</time>
      </trkpt>
      <trkpt lat="43.26321" lon="3.18859">
        <ele>46.739469</ele>
        <time>2023-01-07T14:20:42.117Z</time>
      </trkpt>
      <trkpt lat="43.26328" lon="3.18848">
        <ele>46.854419</ele>
        <time>2023-01-07T14:20:47.101Z</time>
      </trkpt>
      <trkpt lat="43.26336" lon="3.18838">
        <ele>46.973848</ele>
        <time>2023-01-07T14:20:52.085Z</time>
      </trkpt>
      <trkpt lat="43.26344" lon="3.18832">
        <ele>47.072266</ele>
        <time>2023-01-07T14:20:56.114Z</time>
      </trkpt>
      <trkpt lat="43.26351" lon="3.18823">
        <ele>47.173585</ele>
        <time>2023-01-07T14:21:00.112Z</time>
      </trkpt>
      <trkpt lat="43.26359" lon="3.18814">
        <ele>47.2888</ele>
        <time>2023-01-07T14:21:06.113Z</time>
      </trkpt>
      <trkpt lat="43.26368" lon="3.18807">
        <ele>47.39949</ele>
        <time>2023-01-07T14:21:11.097Z</time>
      </trkpt>
      <trkpt lat="43.26376" lon="3.18799">
        <ele>47.511841</ele>
        <time>2023-01-07T14:21:16.100Z</time>
      </trkpt>
      <trkpt lat="43.26385" lon="3.18792">
        <ele>47.621464</ele>
        <time>2023-01-07T14:21:21.100Z</time>
      </trkpt>
      <trkpt lat="43.26395" lon="3.18788">
        <ele>47.733231</ele>
        <time>2023-01-07T14:21:26.107Z</time>
      </trkpt>
      <trkpt lat="43.26405" lon="3.18784">
        <ele>47.843813</ele>
        <time>2023-01-07T14:21:31.099Z</time>
      </trkpt>
      <trkpt lat="43.26414" lon="3.18777">
        <ele>47.956449</ele>
        <time>2023-01-07T14:21:36.096Z</time>
      </trkpt>
      <trkpt lat="43.26421" lon="3.18769">
        <ele>48.05796</ele>
        <time>2023-01-07T14:21:40.094Z</time>
      </trkpt>
      <trkpt lat="43.26429" lon="3.18761">
        <ele>48.158812</ele>
        <time>2023-01-07T14:21:44.101Z</time>
      </trkpt>
      <trkpt lat="43.26437" lon="3.18752">
        <ele>48.277433</ele>
        <time>2023-01-07T14:21:49.099Z</time>
      </trkpt>
      <trkpt lat="43.26447" lon="3.18745">
        <ele>48.392718</ele>
        <time>2023-01-07T14:21:54.113Z</time>
      </trkpt>
      <trkpt lat="43.26456" lon="3.1874">
        <ele>48.497332</ele>
        <time>2023-01-07T14:21:59.106Z</time>
      </trkpt>
      <trkpt lat="43.26464" lon="3.18731">
        <ele>48.542385</ele>
        <time>2023-01-07T14:22:05.097Z</time>
      </trkpt>
      <trkpt lat="43.26464" lon="3.18717">
        <ele>48.540337</ele>
        <time>2023-01-07T14:22:11.103Z</time>
      </trkpt>
      <trkpt lat="43.26463" lon="3.18703">
        <ele>48.538307</ele>
        <time>2023-01-07T14:22:17.100Z</time>
      </trkpt>
      <trkpt lat="43.2646" lon="3.18688">
        <ele>48.536146</ele>
        <time>2023-01-07T14:22:24.095Z</time>
      </trkpt>
      <trkpt lat="43.26456" lon="3.18674">
        <ele>48.534128</ele>
        <time>2023-01-07T14:22:28.090Z</time>
      </trkpt>
      <trkpt lat="43.26454" lon="3.18661">
        <ele>48.532192</ele>
        <time>2023-01-07T14:22:31.100Z</time>
      </trkpt>
      <trkpt lat="43.26452" lon="3.18646">
        <ele>48.529999</ele>
        <time>2023-01-07T14:22:35.096Z</time>
      </trkpt>
      <trkpt lat="43.2645" lon="3.18634">
        <ele>48.528244</ele>
        <time>2023-01-07T14:22:39.108Z</time>
      </trkpt>
      <trkpt lat="43.26458" lon="3.18613">
        <ele>48.525062</ele>
        <time>2023-01-07T14:23:08.123Z</time>
      </trkpt>
      <trkpt lat="43.26466" lon="3.18604">
        <ele>48.522978</ele>
        <time>2023-01-07T14:23:14.114Z</time>
      </trkpt>
      <trkpt lat="43.2647" lon="3.18593">
        <ele>48.521198</ele>
        <time>2023-01-07T14:23:18.198Z</time>
      </trkpt>
      <trkpt lat="43.26475" lon="3.1858">
        <ele>48.519068</ele>
        <time>2023-01-07T14:23:23.109Z</time>
      </trkpt>
      <trkpt lat="43.26481" lon="3.18567">
        <ele>48.516914</ele>
        <time>2023-01-07T14:23:28.119Z</time>
      </trkpt>
      <trkpt lat="43.26486" lon="3.18554">
        <ele>48.514855</ele>
        <time>2023-01-07T14:23:33.116Z</time>
      </trkpt>
      <trkpt lat="43.2649" lon="3.18542">
        <ele>48.512934</ele>
        <time>2023-01-07T14:23:38.114Z</time>
      </trkpt>
      <trkpt lat="43.26495" lon="3.1853">
        <ele>48.511117</ele>
        <time>2023-01-07T14:23:43.114Z</time>
      </trkpt>
      <trkpt lat="43.265" lon="3.18518">
        <ele>48.509078</ele>
        <time>2023-01-07T14:23:48.120Z</time>
      </trkpt>
      <trkpt lat="43.26506" lon="3.18507">
        <ele>48.60574</ele>
        <time>2023-01-07T14:23:53.113Z</time>
      </trkpt>
      <trkpt lat="43.26512" lon="3.18494">
        <ele>48.734715</ele>
        <time>2023-01-07T14:23:58.112Z</time>
      </trkpt>
      <trkpt lat="43.26517" lon="3.18483">
        <ele>48.849967</ele>
        <time>2023-01-07T14:24:03.119Z</time>
      </trkpt>
      <trkpt lat="43.26518" lon="3.1847">
        <ele>48.96498</ele>
        <time>2023-01-07T14:24:07.163Z</time>
      </trkpt>
      <trkpt lat="43.26519" lon="3.18457">
        <ele>49.083919</ele>
        <time>2023-01-07T14:24:11.118Z</time>
      </trkpt>
      <trkpt lat="43.26521" lon="3.18443">
        <ele>49.207473</ele>
        <time>2023-01-07T14:24:15.117Z</time>
      </trkpt>
      <trkpt lat="43.26524" lon="3.1843">
        <ele>49.326118</ele>
        <time>2023-01-07T14:24:19.097Z</time>
      </trkpt>
      <trkpt lat="43.26527" lon="3.18418">
        <ele>49.438448</ele>
        <time>2023-01-07T14:24:23.116Z</time>
      </trkpt>
      <trkpt lat="43.2653" lon="3.18402">
        <ele>49.579086</ele>
        <time>2023-01-07T14:24:27.118Z</time>
      </trkpt>
      <trkpt lat="43.26531" lon="3.18389">
        <ele>49.695988</ele>
        <time>2023-01-07T14:24:30.101Z</time>
      </trkpt>
      <trkpt lat="43.26532" lon="3.18376">
        <ele>49.809585</ele>
        <time>2023-01-07T14:24:33.117Z</time>
      </trkpt>
      <trkpt lat="43.26532" lon="3.18361">
        <ele>49.939737</ele>
        <time>2023-01-07T14:24:37.096Z</time>
      </trkpt>
      <trkpt lat="43.26533" lon="3.18345">
        <ele>50.084269</ele>
        <time>2023-01-07T14:24:41.117Z</time>
      </trkpt>
      <trkpt lat="43.26534" lon="3.18333">
        <ele>50.194046</ele>
        <time>2023-01-07T14:24:44.116Z</time>
      </trkpt>
      <trkpt lat="43.26534" lon="3.18318">
        <ele>50.321523</ele>
        <time>2023-01-07T14:24:48.115Z</time>
      </trkpt>
      <trkpt lat="43.26534" lon="3.18303">
        <ele>50.458637</ele>
        <time>2023-01-07T14:24:52.116Z</time>
      </trkpt>
      <trkpt lat="43.26535" lon="3.18287">
        <ele>50.594166</ele>
        <time>2023-01-07T14:24:56.116Z</time>
      </trkpt>
      <trkpt lat="43.26535" lon="3.18274">
        <ele>50.790379</ele>
        <time>2023-01-07T14:25:00.120Z</time>
      </trkpt>
      <trkpt lat="43.26535" lon="3.18259">
        <ele>51.224758</ele>
        <time>2023-01-07T14:25:04.116Z</time>
      </trkpt>
      <trkpt lat="43.26536" lon="3.18243">
        <ele>51.69405</ele>
        <time>2023-01-07T14:25:08.116Z</time>
      </trkpt>
      <trkpt lat="43.26536" lon="3.1823">
        <ele>52.058428</ele>
        <time>2023-01-07T14:25:11.119Z</time>
      </trkpt>
      <trkpt lat="43.26537" lon="3.18215">
        <ele>52.511253</ele>
        <time>2023-01-07T14:25:15.115Z</time>
      </trkpt>
      <trkpt lat="43.26539" lon="3.18201">
        <ele>52.925269</ele>
        <time>2023-01-07T14:25:20.119Z</time>
      </trkpt>
      <trkpt lat="43.26547" lon="3.18186">
        <ele>53.478783</ele>
        <time>2023-01-07T14:26:02.094Z</time>
      </trkpt>
      <trkpt lat="43.26556" lon="3.18176">
        <ele>53.934538</ele>
        <time>2023-01-07T14:26:06.090Z</time>
      </trkpt>
      <trkpt lat="43.26566" lon="3.18167">
        <ele>54.396349</ele>
        <time>2023-01-07T14:26:10.090Z</time>
      </trkpt>
      <trkpt lat="43.26575" lon="3.18157">
        <ele>54.85315</ele>
        <time>2023-01-07T14:26:14.101Z</time>
      </trkpt>
      <trkpt lat="43.26584" lon="3.18147">
        <ele>55.32794</ele>
        <time>2023-01-07T14:26:18.096Z</time>
      </trkpt>
      <trkpt lat="43.26592" lon="3.18139">
        <ele>55.725263</ele>
        <time>2023-01-07T14:26:22.090Z</time>
      </trkpt>
      <trkpt lat="43.26601" lon="3.18132">
        <ele>56.116711</ele>
        <time>2023-01-07T14:26:26.098Z</time>
      </trkpt>
      <trkpt lat="43.26609" lon="3.18125">
        <ele>56.497515</ele>
        <time>2023-01-07T14:26:30.107Z</time>
      </trkpt>
      <trkpt lat="43.26617" lon="3.18117">
        <ele>56.911278</ele>
        <time>2023-01-07T14:26:35.094Z</time>
      </trkpt>
      <trkpt lat="43.26624" lon="3.18109">
        <ele>57.274456</ele>
        <time>2023-01-07T14:26:40.102Z</time>
      </trkpt>
      <trkpt lat="43.26633" lon="3.18101">
        <ele>57.683272</ele>
        <time>2023-01-07T14:26:46.090Z</time>
      </trkpt>
      <trkpt lat="43.26641" lon="3.18093">
        <ele>58.443591</ele>
        <time>2023-01-07T14:26:52.100Z</time>
      </trkpt>
      <trkpt lat="43.26649" lon="3.18083">
        <ele>59.454334</ele>
        <time>2023-01-07T14:26:58.097Z</time>
      </trkpt>
      <trkpt lat="43.26656" lon="3.18073">
        <ele>60.480158</ele>
        <time>2023-01-07T14:27:04.102Z</time>
      </trkpt>
      <trkpt lat="43.26663" lon="3.18064">
        <ele>61.374578</ele>
        <time>2023-01-07T14:27:09.095Z</time>
      </trkpt>
      <trkpt lat="43.26672" lon="3.18053">
        <ele>62.546224</ele>
        <time>2023-01-07T14:27:36.099Z</time>
      </trkpt>
      <trkpt lat="43.2668" lon="3.18044">
        <ele>63.507463</ele>
        <time>2023-01-07T14:27:48.096Z</time>
      </trkpt>
      <trkpt lat="43.26686" lon="3.18034">
        <ele>64.444877</ele>
        <time>2023-01-07T14:27:57.111Z</time>
      </trkpt>
      <trkpt lat="43.26692" lon="3.18024">
        <ele>65.344208</ele>
        <time>2023-01-07T14:28:07.101Z</time>
      </trkpt>
      <trkpt lat="43.26697" lon="3.18013">
        <ele>66.234206</ele>
        <time>2023-01-07T14:28:16.103Z</time>
      </trkpt>
      <trkpt lat="43.26703" lon="3.18004">
        <ele>67.128572</ele>
        <time>2023-01-07T14:28:24.091Z</time>
      </trkpt>
      <trkpt lat="43.26709" lon="3.17995">
        <ele>68.021584</ele>
        <time>2023-01-07T14:28:33.090Z</time>
      </trkpt>
      <trkpt lat="43.26715" lon="3.17985">
        <ele>68.922346</ele>
        <time>2023-01-07T14:28:42.101Z</time>
      </trkpt>
      <trkpt lat="43.26722" lon="3.17975">
        <ele>69.879155</ele>
        <time>2023-01-07T14:28:52.101Z</time>
      </trkpt>
      <trkpt lat="43.26729" lon="3.17966">
        <ele>70.787471</ele>
        <time>2023-01-07T14:29:02.101Z</time>
      </trkpt>
      <trkpt lat="43.26736" lon="3.17957">
        <ele>71.729242</ele>
        <time>2023-01-07T14:29:13.093Z</time>
      </trkpt>
      <trkpt lat="43.26742" lon="3.17947">
        <ele>72.635349</ele>
        <time>2023-01-07T14:29:23.098Z</time>
      </trkpt>
      <trkpt lat="43.26749" lon="3.17938">
        <ele>73.548087</ele>
        <time>2023-01-07T14:29:34.111Z</time>
      </trkpt>
      <trkpt lat="43.26753" lon="3.17927">
        <ele>74.436458</ele>
        <time>2023-01-07T14:29:45.095Z</time>
      </trkpt>
      <trkpt lat="43.26759" lon="3.17916">
        <ele>75.412118</ele>
        <time>2023-01-07T14:29:57.089Z</time>
      </trkpt>
      <trkpt lat="43.26763" lon="3.17905">
        <ele>76.515299</ele>
        <time>2023-01-07T14:30:08.109Z</time>
      </trkpt>
      <trkpt lat="43.26767" lon="3.17893">
        <ele>77.690175</ele>
        <time>2023-01-07T14:30:19.105Z</time>
      </trkpt>
      <trkpt lat="43.26775" lon="3.17879">
        <ele>79.266547</ele>
        <time>2023-01-07T14:30:45.097Z</time>
      </trkpt>
      <trkpt lat="43.2678" lon="3.17868">
        <ele>80.403186</ele>
        <time>2023-01-07T14:30:58.106Z</time>
      </trkpt>
      <trkpt lat="43.26785" lon="3.17858">
        <ele>81.520946</ele>
        <time>2023-01-07T14:31:09.100Z</time>
      </trkpt>
      <trkpt lat="43.2679" lon="3.17847">
        <ele>82.627531</ele>
        <time>2023-01-07T14:31:19.088Z</time>
      </trkpt>
      <trkpt lat="43.26794" lon="3.17835">
        <ele>83.782727</ele>
        <time>2023-01-07T14:31:31.089Z</time>
      </trkpt>
      <trkpt lat="43.26805" lon="3.17825">
        <ele>85.404008</ele>
        <time>2023-01-07T14:32:34.098Z</time>
      </trkpt>
      <trkpt lat="43.26827" lon="3.17836">
        <ele>88.201629</ele>
        <time>2023-01-07T14:35:21.100Z</time>
      </trkpt>
      <trkpt lat="43.26834" lon="3.17844">
        <ele>89.300274</ele>
        <time>2023-01-07T14:35:29.099Z</time>
      </trkpt>
      <trkpt lat="43.2684" lon="3.17855">
        <ele>90.511368</ele>
        <time>2023-01-07T14:35:38.105Z</time>
      </trkpt>
      <trkpt lat="43.26843" lon="3.17867">
        <ele>91.665012</ele>
        <time>2023-01-07T14:35:48.114Z</time>
      </trkpt>
      <trkpt lat="43.26844" lon="3.1788">
        <ele>92.796615</ele>
        <time>2023-01-07T14:35:58.107Z</time>
      </trkpt>
      <trkpt lat="43.26845" lon="3.17892">
        <ele>93.897348</ele>
        <time>2023-01-07T14:36:08.100Z</time>
      </trkpt>
      <trkpt lat="43.26843" lon="3.17906">
        <ele>95.08125</ele>
        <time>2023-01-07T14:36:17.093Z</time>
      </trkpt>
      <trkpt lat="43.26839" lon="3.17917">
        <ele>96.197629</ele>
        <time>2023-01-07T14:36:26.113Z</time>
      </trkpt>
      <trkpt lat="43.26835" lon="3.1793">
        <ele>97.266341</ele>
        <time>2023-01-07T14:36:35.092Z</time>
      </trkpt>
      <trkpt lat="43.26831" lon="3.17943">
        <ele>97.734269</ele>
        <time>2023-01-07T14:36:43.097Z</time>
      </trkpt>
      <trkpt lat="43.26827" lon="3.17969">
        <ele>98.637376</ele>
        <time>2023-01-07T14:37:19.087Z</time>
      </trkpt>
      <trkpt lat="43.26825" lon="3.17981">
        <ele>99.062194</ele>
        <time>2023-01-07T14:37:23.094Z</time>
      </trkpt>
      <trkpt lat="43.26824" lon="3.17994">
        <ele>99.489492</ele>
        <time>2023-01-07T14:37:27.093Z</time>
      </trkpt>
      <trkpt lat="43.26824" lon="3.18007">
        <ele>99.909921</ele>
        <time>2023-01-07T14:37:31.093Z</time>
      </trkpt>
      <trkpt lat="43.26823" lon="3.18019">
        <ele>100.332298</ele>
        <time>2023-01-07T14:37:35.088Z</time>
      </trkpt>
      <trkpt lat="43.2682" lon="3.18034">
        <ele>100.84544</ele>
        <time>2023-01-07T14:37:40.095Z</time>
      </trkpt>
      <trkpt lat="43.2682" lon="3.18046">
        <ele>101.259274</ele>
        <time>2023-01-07T14:37:44.090Z</time>
      </trkpt>
      <trkpt lat="43.2682" lon="3.18059">
        <ele>101.699873</ele>
        <time>2023-01-07T14:37:48.090Z</time>
      </trkpt>
      <trkpt lat="43.26823" lon="3.18074">
        <ele>102.209355</ele>
        <time>2023-01-07T14:37:53.095Z</time>
      </trkpt>
      <trkpt lat="43.26829" lon="3.18084">
        <ele>102.638853</ele>
        <time>2023-01-07T14:37:57.089Z</time>
      </trkpt>
      <trkpt lat="43.26836" lon="3.18094">
        <ele>103.08773</ele>
        <time>2023-01-07T14:38:01.097Z</time>
      </trkpt>
      <trkpt lat="43.26843" lon="3.18104">
        <ele>103.561509</ele>
        <time>2023-01-07T14:38:06.103Z</time>
      </trkpt>
      <trkpt lat="43.26851" lon="3.18109">
        <ele>103.996871</ele>
        <time>2023-01-07T14:38:17.098Z</time>
      </trkpt>
      <trkpt lat="43.26859" lon="3.18117">
        <ele>104.431325</ele>
        <time>2023-01-07T14:38:22.100Z</time>
      </trkpt>
      <trkpt lat="43.26867" lon="3.18126">
        <ele>104.916735</ele>
        <time>2023-01-07T14:38:27.097Z</time>
      </trkpt>
      <trkpt lat="43.26876" lon="3.18136">
        <ele>105.433643</ele>
        <time>2023-01-07T14:38:32.107Z</time>
      </trkpt>
      <trkpt lat="43.26883" lon="3.18144">
        <ele>105.336554</ele>
        <time>2023-01-07T14:38:36.112Z</time>
      </trkpt>
      <trkpt lat="43.26891" lon="3.18154">
        <ele>105.16625</ele>
        <time>2023-01-07T14:38:40.086Z</time>
      </trkpt>
      <trkpt lat="43.26899" lon="3.18164">
        <ele>105.00464</ele>
        <time>2023-01-07T14:38:44.096Z</time>
      </trkpt>
      <trkpt lat="43.26906" lon="3.18175">
        <ele>104.840978</ele>
        <time>2023-01-07T14:38:48.099Z</time>
      </trkpt>
      <trkpt lat="43.26913" lon="3.18185">
        <ele>104.684224</ele>
        <time>2023-01-07T14:38:51.094Z</time>
      </trkpt>
      <trkpt lat="43.2692" lon="3.18194">
        <ele>104.532917</ele>
        <time>2023-01-07T14:38:54.096Z</time>
      </trkpt>
      <trkpt lat="43.26927" lon="3.18204">
        <ele>104.378578</ele>
        <time>2023-01-07T14:38:57.094Z</time>
      </trkpt>
      <trkpt lat="43.26934" lon="3.18214">
        <ele>104.218354</ele>
        <time>2023-01-07T14:39:00.099Z</time>
      </trkpt>
      <trkpt lat="43.26942" lon="3.18224">
        <ele>104.055642</ele>
        <time>2023-01-07T14:39:03.094Z</time>
      </trkpt>
      <trkpt lat="43.26949" lon="3.18235">
        <ele>103.89354</ele>
        <time>2023-01-07T14:39:06.098Z</time>
      </trkpt>
      <trkpt lat="43.26957" lon="3.18244">
        <ele>103.733491</ele>
        <time>2023-01-07T14:39:09.092Z</time>
      </trkpt>
      <trkpt lat="43.26964" lon="3.18254">
        <ele>103.573442</ele>
        <time>2023-01-07T14:39:12.103Z</time>
      </trkpt>
      <trkpt lat="43.26973" lon="3.18263">
        <ele>103.408439</ele>
        <time>2023-01-07T14:39:15.098Z</time>
      </trkpt>
      <trkpt lat="43.2698" lon="3.18273">
        <ele>103.249934</ele>
        <time>2023-01-07T14:39:18.098Z</time>
      </trkpt>
      <trkpt lat="43.26989" lon="3.18283">
        <ele>103.077825</ele>
        <time>2023-01-07T14:39:22.103Z</time>
      </trkpt>
      <trkpt lat="43.26996" lon="3.18294">
        <ele>102.910565</ele>
        <time>2023-01-07T14:39:26.100Z</time>
      </trkpt>
      <trkpt lat="43.27003" lon="3.18302">
        <ele>102.770137</ele>
        <time>2023-01-07T14:39:29.103Z</time>
      </trkpt>
      <trkpt lat="43.27015" lon="3.18313">
        <ele>102.643866</ele>
        <time>2023-01-07T14:39:32.104Z</time>
      </trkpt>
      <trkpt lat="43.27023" lon="3.18318">
        <ele>102.592106</ele>
        <time>2023-01-07T14:39:34.091Z</time>
      </trkpt>
      <trkpt lat="43.27036" lon="3.18322">
        <ele>102.519236</ele>
        <time>2023-01-07T14:39:37.083Z</time>
      </trkpt>
      <trkpt lat="43.27045" lon="3.18324">
        <ele>102.464116</ele>
        <time>2023-01-07T14:39:40.091Z</time>
      </trkpt>
      <trkpt lat="43.27056" lon="3.18328">
        <ele>102.404307</ele>
        <time>2023-01-07T14:39:43.097Z</time>
      </trkpt>
      <trkpt lat="43.27067" lon="3.18335">
        <ele>102.332057</ele>
        <time>2023-01-07T14:39:46.099Z</time>
      </trkpt>
      <trkpt lat="43.27079" lon="3.18342">
        <ele>102.260972</ele>
        <time>2023-01-07T14:39:49.093Z</time>
      </trkpt>
      <trkpt lat="43.2709" lon="3.18348">
        <ele>102.194691</ele>
        <time>2023-01-07T14:39:52.098Z</time>
      </trkpt>
      <trkpt lat="43.27102" lon="3.18354">
        <ele>102.119223</ele>
        <time>2023-01-07T14:39:55.105Z</time>
      </trkpt>
      <trkpt lat="43.27113" lon="3.18356">
        <ele>102.060153</ele>
        <time>2023-01-07T14:39:57.106Z</time>
      </trkpt>
      <trkpt lat="43.27122" lon="3.18356">
        <ele>102.00477</ele>
        <time>2023-01-07T14:39:59.107Z</time>
      </trkpt>
      <trkpt lat="43.27132" lon="3.18354">
        <ele>101.952088</ele>
        <time>2023-01-07T14:40:01.104Z</time>
      </trkpt>
      <trkpt lat="43.27142" lon="3.18351">
        <ele>101.893145</ele>
        <time>2023-01-07T14:40:03.102Z</time>
      </trkpt>
      <trkpt lat="43.27151" lon="3.18345">
        <ele>101.838184</ele>
        <time>2023-01-07T14:40:05.115Z</time>
      </trkpt>
      <trkpt lat="43.27159" lon="3.18337">
        <ele>101.780187</ele>
        <time>2023-01-07T14:40:07.103Z</time>
      </trkpt>
      <trkpt lat="43.27169" lon="3.18329">
        <ele>101.716815</ele>
        <time>2023-01-07T14:40:09.091Z</time>
      </trkpt>
      <trkpt lat="43.27179" lon="3.18322">
        <ele>101.512038</ele>
        <time>2023-01-07T14:40:11.098Z</time>
      </trkpt>
      <trkpt lat="43.27189" lon="3.18315">
        <ele>101.132338</ele>
        <time>2023-01-07T14:40:13.091Z</time>
      </trkpt>
      <trkpt lat="43.272" lon="3.18309">
        <ele>100.766394</ele>
        <time>2023-01-07T14:40:15.102Z</time>
      </trkpt>
      <trkpt lat="43.2721" lon="3.18303">
        <ele>100.39442</ele>
        <time>2023-01-07T14:40:17.092Z</time>
      </trkpt>
      <trkpt lat="43.27221" lon="3.18297">
        <ele>100.016398</ele>
        <time>2023-01-07T14:40:19.098Z</time>
      </trkpt>
      <trkpt lat="43.27232" lon="3.18292">
        <ele>99.61888</ele>
        <time>2023-01-07T14:40:21.109Z</time>
      </trkpt>
      <trkpt lat="43.27243" lon="3.18286">
        <ele>99.240679</ele>
        <time>2023-01-07T14:40:23.096Z</time>
      </trkpt>
      <trkpt lat="43.27253" lon="3.18282">
        <ele>98.884148</ele>
        <time>2023-01-07T14:40:25.099Z</time>
      </trkpt>
      <trkpt lat="43.27264" lon="3.18276">
        <ele>98.521323</ele>
        <time>2023-01-07T14:40:27.107Z</time>
      </trkpt>
      <trkpt lat="43.27273" lon="3.18272">
        <ele>98.191851</ele>
        <time>2023-01-07T14:40:29.101Z</time>
      </trkpt>
      <trkpt lat="43.27286" lon="3.18266">
        <ele>97.75796</ele>
        <time>2023-01-07T14:40:32.101Z</time>
      </trkpt>
      <trkpt lat="43.27298" lon="3.1826">
        <ele>97.351111</ele>
        <time>2023-01-07T14:40:35.096Z</time>
      </trkpt>
      <trkpt lat="43.27308" lon="3.18255">
        <ele>96.983673</ele>
        <time>2023-01-07T14:40:38.112Z</time>
      </trkpt>
      <trkpt lat="43.27318" lon="3.18251">
        <ele>96.655754</ele>
        <time>2023-01-07T14:40:41.114Z</time>
      </trkpt>
      <trkpt lat="43.27327" lon="3.18248">
        <ele>96.354441</ele>
        <time>2023-01-07T14:40:44.107Z</time>
      </trkpt>
      <trkpt lat="43.27336" lon="3.18248">
        <ele>96.056712</ele>
        <time>2023-01-07T14:40:47.089Z</time>
      </trkpt>
      <trkpt lat="43.27347" lon="3.18252">
        <ele>95.549811</ele>
        <time>2023-01-07T14:40:50.099Z</time>
      </trkpt>
      <trkpt lat="43.27359" lon="3.18258">
        <ele>94.611775</ele>
        <time>2023-01-07T14:40:53.100Z</time>
      </trkpt>
      <trkpt lat="43.27367" lon="3.18261">
        <ele>93.937303</ele>
        <time>2023-01-07T14:40:55.115Z</time>
      </trkpt>
      <trkpt lat="43.27377" lon="3.18266">
        <ele>93.155473</ele>
        <time>2023-01-07T14:40:57.098Z</time>
      </trkpt>
      <trkpt lat="43.27388" lon="3.18271">
        <ele>92.305785</ele>
        <time>2023-01-07T14:40:59.108Z</time>
      </trkpt>
      <trkpt lat="43.27399" lon="3.18274">
        <ele>91.465804</ele>
        <time>2023-01-07T14:41:01.111Z</time>
      </trkpt>
      <trkpt lat="43.2741" lon="3.18277">
        <ele>90.682213</ele>
        <time>2023-01-07T14:41:03.095Z</time>
      </trkpt>
      <trkpt lat="43.2742" lon="3.18281">
        <ele>89.927815</ele>
        <time>2023-01-07T14:41:05.092Z</time>
      </trkpt>
      <trkpt lat="43.27432" lon="3.18285">
        <ele>89.002864</ele>
        <time>2023-01-07T14:41:08.104Z</time>
      </trkpt>
      <trkpt lat="43.27443" lon="3.18289">
        <ele>88.181151</ele>
        <time>2023-01-07T14:41:10.090Z</time>
      </trkpt>
      <trkpt lat="43.27451" lon="3.18293">
        <ele>87.483575</ele>
        <time>2023-01-07T14:41:12.099Z</time>
      </trkpt>
      <trkpt lat="43.2746" lon="3.18297">
        <ele>86.785998</ele>
        <time>2023-01-07T14:41:14.085Z</time>
      </trkpt>
      <trkpt lat="43.2747" lon="3.18301">
        <ele>86.055128</ele>
        <time>2023-01-07T14:41:16.090Z</time>
      </trkpt>
      <trkpt lat="43.2748" lon="3.18306">
        <ele>85.259649</ele>
        <time>2023-01-07T14:41:18.096Z</time>
      </trkpt>
      <trkpt lat="43.27491" lon="3.18312">
        <ele>84.361932</ele>
        <time>2023-01-07T14:41:20.096Z</time>
      </trkpt>
      <trkpt lat="43.27503" lon="3.18319">
        <ele>83.444495</ele>
        <time>2023-01-07T14:41:22.096Z</time>
      </trkpt>
      <trkpt lat="43.27515" lon="3.18324">
        <ele>82.495736</ele>
        <time>2023-01-07T14:41:24.092Z</time>
      </trkpt>
      <trkpt lat="43.27528" lon="3.18331">
        <ele>82.369914</ele>
        <time>2023-01-07T14:41:26.088Z</time>
      </trkpt>
      <trkpt lat="43.27541" lon="3.18336">
        <ele>82.246314</ele>
        <time>2023-01-07T14:41:28.091Z</time>
      </trkpt>
      <trkpt lat="43.27553" lon="3.18342">
        <ele>82.124088</ele>
        <time>2023-01-07T14:41:30.087Z</time>
      </trkpt>
      <trkpt lat="43.27565" lon="3.18348">
        <ele>82.005567</ele>
        <time>2023-01-07T14:41:32.105Z</time>
      </trkpt>
      <trkpt lat="43.27576" lon="3.18355">
        <ele>81.895296</ele>
        <time>2023-01-07T14:41:34.112Z</time>
      </trkpt>
      <trkpt lat="43.27587" lon="3.1836">
        <ele>81.79022</ele>
        <time>2023-01-07T14:41:36.091Z</time>
      </trkpt>
      <trkpt lat="43.27597" lon="3.18367">
        <ele>81.684721</ele>
        <time>2023-01-07T14:41:38.096Z</time>
      </trkpt>
      <trkpt lat="43.27606" lon="3.18371">
        <ele>81.599033</ele>
        <time>2023-01-07T14:41:40.104Z</time>
      </trkpt>
      <trkpt lat="43.27615" lon="3.18378">
        <ele>81.50774</ele>
        <time>2023-01-07T14:41:42.102Z</time>
      </trkpt>
      <trkpt lat="43.27624" lon="3.18383">
        <ele>81.419336</ele>
        <time>2023-01-07T14:41:44.096Z</time>
      </trkpt>
      <trkpt lat="43.27634" lon="3.18388">
        <ele>81.313697</ele>
        <time>2023-01-07T14:41:47.102Z</time>
      </trkpt>
      <trkpt lat="43.27645" lon="3.18394">
        <ele>81.206759</ele>
        <time>2023-01-07T14:41:50.095Z</time>
      </trkpt>
      <trkpt lat="43.27654" lon="3.18399">
        <ele>81.121322</ele>
        <time>2023-01-07T14:41:53.108Z</time>
      </trkpt>
      <trkpt lat="43.27662" lon="3.18403">
        <ele>81.03576</ele>
        <time>2023-01-07T14:41:56.103Z</time>
      </trkpt>
      <trkpt lat="43.27671" lon="3.18409">
        <ele>80.95015</ele>
        <time>2023-01-07T14:41:59.098Z</time>
      </trkpt>
      <trkpt lat="43.27679" lon="3.18416">
        <ele>80.859175</ele>
        <time>2023-01-07T14:42:03.104Z</time>
      </trkpt>
      <trkpt lat="43.27687" lon="3.18423">
        <ele>80.686771</ele>
        <time>2023-01-07T14:42:08.096Z</time>
      </trkpt>
      <trkpt lat="43.27694" lon="3.18433">
        <ele>80.491082</ele>
        <time>2023-01-07T14:42:14.092Z</time>
      </trkpt>
      <trkpt lat="43.27696" lon="3.18455">
        <ele>80.157882</ele>
        <time>2023-01-07T14:43:01.093Z</time>
      </trkpt>
      <trkpt lat="43.27702" lon="3.18466">
        <ele>79.963057</ele>
        <time>2023-01-07T14:43:05.090Z</time>
      </trkpt>
      <trkpt lat="43.27706" lon="3.18477">
        <ele>79.77093</ele>
        <time>2023-01-07T14:43:08.100Z</time>
      </trkpt>
      <trkpt lat="43.27709" lon="3.18491">
        <ele>79.55728</ele>
        <time>2023-01-07T14:43:11.092Z</time>
      </trkpt>
      <trkpt lat="43.27711" lon="3.18506">
        <ele>79.337619</ele>
        <time>2023-01-07T14:43:14.097Z</time>
      </trkpt>
      <trkpt lat="43.27712" lon="3.18521">
        <ele>79.11215</ele>
        <time>2023-01-07T14:43:17.089Z</time>
      </trkpt>
      <trkpt lat="43.27714" lon="3.18539">
        <ele>78.855994</ele>
        <time>2023-01-07T14:43:20.087Z</time>
      </trkpt>
      <trkpt lat="43.27715" lon="3.18551">
        <ele>78.66836</ele>
        <time>2023-01-07T14:43:22.094Z</time>
      </trkpt>
      <trkpt lat="43.27715" lon="3.18565">
        <ele>78.475421</ele>
        <time>2023-01-07T14:43:24.093Z</time>
      </trkpt>
      <trkpt lat="43.27716" lon="3.18578">
        <ele>78.280264</ele>
        <time>2023-01-07T14:43:26.098Z</time>
      </trkpt>
      <trkpt lat="43.27717" lon="3.18591">
        <ele>78.082189</ele>
        <time>2023-01-07T14:43:28.091Z</time>
      </trkpt>
      <trkpt lat="43.27718" lon="3.18605">
        <ele>77.881773</ele>
        <time>2023-01-07T14:43:30.096Z</time>
      </trkpt>
      <trkpt lat="43.27719" lon="3.18618">
        <ele>77.687369</ele>
        <time>2023-01-07T14:43:32.092Z</time>
      </trkpt>
      <trkpt lat="43.2772" lon="3.18631">
        <ele>77.488416</ele>
        <time>2023-01-07T14:43:34.096Z</time>
      </trkpt>
      <trkpt lat="43.27719" lon="3.18645">
        <ele>77.28702</ele>
        <time>2023-01-07T14:43:36.098Z</time>
      </trkpt>
      <trkpt lat="43.27719" lon="3.18659">
        <ele>77.081543</ele>
        <time>2023-01-07T14:43:38.089Z</time>
      </trkpt>
      <trkpt lat="43.27718" lon="3.18673">
        <ele>76.857746</ele>
        <time>2023-01-07T14:43:40.091Z</time>
      </trkpt>
      <trkpt lat="43.27717" lon="3.18686">
        <ele>76.641605</ele>
        <time>2023-01-07T14:43:42.098Z</time>
      </trkpt>
      <trkpt lat="43.27715" lon="3.18701">
        <ele>76.411159</ele>
        <time>2023-01-07T14:43:44.095Z</time>
      </trkpt>
      <trkpt lat="43.27713" lon="3.18714">
        <ele>76.192703</ele>
        <time>2023-01-07T14:43:46.091Z</time>
      </trkpt>
      <trkpt lat="43.27711" lon="3.18729">
        <ele>75.961049</ele>
        <time>2023-01-07T14:43:48.097Z</time>
      </trkpt>
      <trkpt lat="43.27708" lon="3.18744">
        <ele>75.720613</ele>
        <time>2023-01-07T14:43:50.096Z</time>
      </trkpt>
      <trkpt lat="43.27705" lon="3.18759">
        <ele>75.478249</ele>
        <time>2023-01-07T14:43:52.096Z</time>
      </trkpt>
      <trkpt lat="43.27702" lon="3.18774">
        <ele>75.220549</ele>
        <time>2023-01-07T14:43:54.104Z</time>
      </trkpt>
      <trkpt lat="43.27698" lon="3.18789">
        <ele>74.972188</ele>
        <time>2023-01-07T14:43:56.108Z</time>
      </trkpt>
      <trkpt lat="43.27695" lon="3.18805">
        <ele>74.719607</ele>
        <time>2023-01-07T14:43:58.110Z</time>
      </trkpt>
      <trkpt lat="43.27692" lon="3.18821">
        <ele>74.46342</ele>
        <time>2023-01-07T14:44:00.103Z</time>
      </trkpt>
      <trkpt lat="43.27688" lon="3.18836">
        <ele>74.20262</ele>
        <time>2023-01-07T14:44:02.096Z</time>
      </trkpt>
      <trkpt lat="43.27685" lon="3.18853">
        <ele>73.928324</ele>
        <time>2023-01-07T14:44:04.096Z</time>
      </trkpt>
      <trkpt lat="43.27681" lon="3.18869">
        <ele>73.661286</ele>
        <time>2023-01-07T14:44:06.099Z</time>
      </trkpt>
      <trkpt lat="43.27677" lon="3.18886">
        <ele>73.386989</ele>
        <time>2023-01-07T14:44:08.105Z</time>
      </trkpt>
      <trkpt lat="43.27674" lon="3.18901">
        <ele>73.125312</ele>
        <time>2023-01-07T14:44:10.105Z</time>
      </trkpt>
      <trkpt lat="43.2767" lon="3.18917">
        <ele>72.835616</ele>
        <time>2023-01-07T14:44:12.104Z</time>
      </trkpt>
      <trkpt lat="43.27666" lon="3.18935">
        <ele>72.522974</ele>
        <time>2023-01-07T14:44:14.096Z</time>
      </trkpt>
      <trkpt lat="43.27662" lon="3.18953">
        <ele>72.208242</ele>
        <time>2023-01-07T14:44:16.099Z</time>
      </trkpt>
      <trkpt lat="43.27659" lon="3.18969">
        <ele>71.914357</ele>
        <time>2023-01-07T14:44:18.095Z</time>
      </trkpt>
      <trkpt lat="43.27654" lon="3.18987">
        <ele>71.603325</ele>
        <time>2023-01-07T14:44:20.096Z</time>
      </trkpt>
      <trkpt lat="43.2765" lon="3.19004">
        <ele>71.28887</ele>
        <time>2023-01-07T14:44:22.095Z</time>
      </trkpt>
      <trkpt lat="43.27647" lon="3.19022">
        <ele>70.979677</ele>
        <time>2023-01-07T14:44:24.087Z</time>
      </trkpt>
      <trkpt lat="43.27643" lon="3.1904">
        <ele>70.661287</ele>
        <time>2023-01-07T14:44:26.088Z</time>
      </trkpt>
      <trkpt lat="43.27638" lon="3.19057">
        <ele>70.354329</ele>
        <time>2023-01-07T14:44:28.089Z</time>
      </trkpt>
      <trkpt lat="43.27634" lon="3.19075">
        <ele>70.038253</ele>
        <time>2023-01-07T14:44:30.098Z</time>
      </trkpt>
      <trkpt lat="43.2763" lon="3.19093">
        <ele>69.710138</ele>
        <time>2023-01-07T14:44:32.102Z</time>
      </trkpt>
      <trkpt lat="43.27626" lon="3.19111">
        <ele>69.389193</ele>
        <time>2023-01-07T14:44:34.098Z</time>
      </trkpt>
      <trkpt lat="43.27623" lon="3.19128">
        <ele>69.087845</ele>
        <time>2023-01-07T14:44:36.107Z</time>
      </trkpt>
      <trkpt lat="43.27619" lon="3.19145">
        <ele>68.770234</ele>
        <time>2023-01-07T14:44:38.102Z</time>
      </trkpt>
      <trkpt lat="43.27616" lon="3.19163">
        <ele>68.444399</ele>
        <time>2023-01-07T14:44:40.101Z</time>
      </trkpt>
      <trkpt lat="43.27612" lon="3.1918">
        <ele>68.128048</ele>
        <time>2023-01-07T14:44:42.106Z</time>
      </trkpt>
      <trkpt lat="43.2761" lon="3.19197">
        <ele>67.808757</ele>
        <time>2023-01-07T14:44:44.095Z</time>
      </trkpt>
      <trkpt lat="43.27607" lon="3.19216">
        <ele>67.47292</ele>
        <time>2023-01-07T14:44:46.105Z</time>
      </trkpt>
      <trkpt lat="43.27605" lon="3.19233">
        <ele>67.151253</ele>
        <time>2023-01-07T14:44:48.103Z</time>
      </trkpt>
      <trkpt lat="43.27604" lon="3.19252">
        <ele>66.820019</ele>
        <time>2023-01-07T14:44:50.093Z</time>
      </trkpt>
      <trkpt lat="43.27603" lon="3.1927">
        <ele>66.48763</ele>
        <time>2023-01-07T14:44:52.109Z</time>
      </trkpt>
      <trkpt lat="43.27602" lon="3.19289">
        <ele>66.152344</ele>
        <time>2023-01-07T14:44:54.097Z</time>
      </trkpt>
      <trkpt lat="43.27603" lon="3.19308">
        <ele>65.819066</ele>
        <time>2023-01-07T14:44:56.101Z</time>
      </trkpt>
      <trkpt lat="43.27602" lon="3.19327">
        <ele>65.47473</ele>
        <time>2023-01-07T14:44:58.098Z</time>
      </trkpt>
      <trkpt lat="43.27601" lon="3.19345">
        <ele>65.151274</ele>
        <time>2023-01-07T14:45:00.104Z</time>
      </trkpt>
      <trkpt lat="43.276" lon="3.19364">
        <ele>64.811737</ele>
        <time>2023-01-07T14:45:02.101Z</time>
      </trkpt>
      <trkpt lat="43.27599" lon="3.19384">
        <ele>64.590634</ele>
        <time>2023-01-07T14:45:04.102Z</time>
      </trkpt>
      <trkpt lat="43.27598" lon="3.19403">
        <ele>64.435941</ele>
        <time>2023-01-07T14:45:06.111Z</time>
      </trkpt>
      <trkpt lat="43.27598" lon="3.19421">
        <ele>64.287751</ele>
        <time>2023-01-07T14:45:08.097Z</time>
      </trkpt>
      <trkpt lat="43.27597" lon="3.19439">
        <ele>64.137691</ele>
        <time>2023-01-07T14:45:10.097Z</time>
      </trkpt>
      <trkpt lat="43.27597" lon="3.19458">
        <ele>63.985513</ele>
        <time>2023-01-07T14:45:12.105Z</time>
      </trkpt>
      <trkpt lat="43.27595" lon="3.19476">
        <ele>63.835783</ele>
        <time>2023-01-07T14:45:14.103Z</time>
      </trkpt>
      <trkpt lat="43.27596" lon="3.19494">
        <ele>63.685242</ele>
        <time>2023-01-07T14:45:16.097Z</time>
      </trkpt>
      <trkpt lat="43.27595" lon="3.19513">
        <ele>63.536235</ele>
        <time>2023-01-07T14:45:18.103Z</time>
      </trkpt>
      <trkpt lat="43.27594" lon="3.1953">
        <ele>63.392621</ele>
        <time>2023-01-07T14:45:20.108Z</time>
      </trkpt>
      <trkpt lat="43.27594" lon="3.19548">
        <ele>63.250225</ele>
        <time>2023-01-07T14:45:22.096Z</time>
      </trkpt>
      <trkpt lat="43.27592" lon="3.19564">
        <ele>63.113506</ele>
        <time>2023-01-07T14:45:24.106Z</time>
      </trkpt>
      <trkpt lat="43.2759" lon="3.1958">
        <ele>62.981093</ele>
        <time>2023-01-07T14:45:26.100Z</time>
      </trkpt>
      <trkpt lat="43.2759" lon="3.19595">
        <ele>62.86164</ele>
        <time>2023-01-07T14:45:28.100Z</time>
      </trkpt>
      <trkpt lat="43.2759" lon="3.19608">
        <ele>62.752822</ele>
        <time>2023-01-07T14:45:30.107Z</time>
      </trkpt>
      <trkpt lat="43.27589" lon="3.19621">
        <ele>62.678844</ele>
        <time>2023-01-07T14:45:32.095Z</time>
      </trkpt>
      <trkpt lat="43.27588" lon="3.19637">
        <ele>62.651198</ele>
        <time>2023-01-07T14:45:35.108Z</time>
      </trkpt>
      <trkpt lat="43.27589" lon="3.19653">
        <ele>62.622489</ele>
        <time>2023-01-07T14:45:38.107Z</time>
      </trkpt>
      <trkpt lat="43.27589" lon="3.19668">
        <ele>62.596154</ele>
        <time>2023-01-07T14:45:41.107Z</time>
      </trkpt>
      <trkpt lat="43.27589" lon="3.19681">
        <ele>62.57269</ele>
        <time>2023-01-07T14:45:44.111Z</time>
      </trkpt>
      <trkpt lat="43.27588" lon="3.19693">
        <ele>62.550416</ele>
        <time>2023-01-07T14:45:47.107Z</time>
      </trkpt>
      <trkpt lat="43.27587" lon="3.19707">
        <ele>62.525868</ele>
        <time>2023-01-07T14:45:50.106Z</time>
      </trkpt>
      <trkpt lat="43.27587" lon="3.19722">
        <ele>62.499213</ele>
        <time>2023-01-07T14:45:53.112Z</time>
      </trkpt>
      <trkpt lat="43.27586" lon="3.19737">
        <ele>62.472473</ele>
        <time>2023-01-07T14:45:56.092Z</time>
      </trkpt>
      <trkpt lat="43.27586" lon="3.19753">
        <ele>62.445073</ele>
        <time>2023-01-07T14:45:59.104Z</time>
      </trkpt>
      <trkpt lat="43.27585" lon="3.19768">
        <ele>62.417886</ele>
        <time>2023-01-07T14:46:02.108Z</time>
      </trkpt>
      <trkpt lat="43.27586" lon="3.19783">
        <ele>62.390515</ele>
        <time>2023-01-07T14:46:05.111Z</time>
      </trkpt>
      <trkpt lat="43.27585" lon="3.19799">
        <ele>62.361901</ele>
        <time>2023-01-07T14:46:08.091Z</time>
      </trkpt>
      <trkpt lat="43.27584" lon="3.19816">
        <ele>62.331885</ele>
        <time>2023-01-07T14:46:11.091Z</time>
      </trkpt>
      <trkpt lat="43.27583" lon="3.19832">
        <ele>62.303332</ele>
        <time>2023-01-07T14:46:14.096Z</time>
      </trkpt>
      <trkpt lat="43.27582" lon="3.19848">
        <ele>62.274602</ele>
        <time>2023-01-07T14:46:17.096Z</time>
      </trkpt>
      <trkpt lat="43.27581" lon="3.19865">
        <ele>62.269534</ele>
        <time>2023-01-07T14:46:20.109Z</time>
      </trkpt>
      <trkpt lat="43.2758" lon="3.19881">
        <ele>62.395961</ele>
        <time>2023-01-07T14:46:23.109Z</time>
      </trkpt>
      <trkpt lat="43.27579" lon="3.19898">
        <ele>62.526742</ele>
        <time>2023-01-07T14:46:26.089Z</time>
      </trkpt>
      <trkpt lat="43.27576" lon="3.19915">
        <ele>62.664878</ele>
        <time>2023-01-07T14:46:29.094Z</time>
      </trkpt>
      <trkpt lat="43.27573" lon="3.19933">
        <ele>62.80272</ele>
        <time>2023-01-07T14:46:32.095Z</time>
      </trkpt>
      <trkpt lat="43.27569" lon="3.1995">
        <ele>62.941134</ele>
        <time>2023-01-07T14:46:35.098Z</time>
      </trkpt>
      <trkpt lat="43.27565" lon="3.19967">
        <ele>63.079977</ele>
        <time>2023-01-07T14:46:38.093Z</time>
      </trkpt>
      <trkpt lat="43.27561" lon="3.19984">
        <ele>63.222091</ele>
        <time>2023-01-07T14:46:41.107Z</time>
      </trkpt>
      <trkpt lat="43.27558" lon="3.19996">
        <ele>63.317343</ele>
        <time>2023-01-07T14:46:43.105Z</time>
      </trkpt>
      <trkpt lat="43.27555" lon="3.20008">
        <ele>63.415866</ele>
        <time>2023-01-07T14:46:45.101Z</time>
      </trkpt>
      <trkpt lat="43.27552" lon="3.2002">
        <ele>63.516886</ele>
        <time>2023-01-07T14:46:47.107Z</time>
      </trkpt>
      <trkpt lat="43.27548" lon="3.20033">
        <ele>63.621178</ele>
        <time>2023-01-07T14:46:49.113Z</time>
      </trkpt>
      <trkpt lat="43.27545" lon="3.20046">
        <ele>63.728865</ele>
        <time>2023-01-07T14:46:51.097Z</time>
      </trkpt>
      <trkpt lat="43.27542" lon="3.2006">
        <ele>63.839003</ele>
        <time>2023-01-07T14:46:53.111Z</time>
      </trkpt>
      <trkpt lat="43.27539" lon="3.20073">
        <ele>63.946691</ele>
        <time>2023-01-07T14:46:55.097Z</time>
      </trkpt>
      <trkpt lat="43.27536" lon="3.20088">
        <ele>64.065177</ele>
        <time>2023-01-07T14:46:57.103Z</time>
      </trkpt>
      <trkpt lat="43.27533" lon="3.20102">
        <ele>64.157243</ele>
        <time>2023-01-07T14:46:59.102Z</time>
      </trkpt>
      <trkpt lat="43.27529" lon="3.20115">
        <ele>64.134531</ele>
        <time>2023-01-07T14:47:01.090Z</time>
      </trkpt>
      <trkpt lat="43.27525" lon="3.20129">
        <ele>64.111606</ele>
        <time>2023-01-07T14:47:03.107Z</time>
      </trkpt>
      <trkpt lat="43.27522" lon="3.20143">
        <ele>64.089812</ele>
        <time>2023-01-07T14:47:05.101Z</time>
      </trkpt>
      <trkpt lat="43.27519" lon="3.20157">
        <ele>64.066811</ele>
        <time>2023-01-07T14:47:07.104Z</time>
      </trkpt>
      <trkpt lat="43.27516" lon="3.2017">
        <ele>64.045434</ele>
        <time>2023-01-07T14:47:09.087Z</time>
      </trkpt>
      <trkpt lat="43.27513" lon="3.20183">
        <ele>64.023885</ele>
        <time>2023-01-07T14:47:11.098Z</time>
      </trkpt>
      <trkpt lat="43.2751" lon="3.20197">
        <ele>64.002152</ele>
        <time>2023-01-07T14:47:13.090Z</time>
      </trkpt>
      <trkpt lat="43.27506" lon="3.2021">
        <ele>63.97988</ele>
        <time>2023-01-07T14:47:15.104Z</time>
      </trkpt>
      <trkpt lat="43.27503" lon="3.20225">
        <ele>63.956156</ele>
        <time>2023-01-07T14:47:17.105Z</time>
      </trkpt>
      <trkpt lat="43.275" lon="3.20239">
        <ele>63.933857</ele>
        <time>2023-01-07T14:47:19.093Z</time>
      </trkpt>
      <trkpt lat="43.27497" lon="3.20253">
        <ele>63.911324</ele>
        <time>2023-01-07T14:47:21.095Z</time>
      </trkpt>
      <trkpt lat="43.27493" lon="3.20267">
        <ele>63.888097</ele>
        <time>2023-01-07T14:47:23.098Z</time>
      </trkpt>
      <trkpt lat="43.2749" lon="3.20281">
        <ele>63.865082</ele>
        <time>2023-01-07T14:47:25.098Z</time>
      </trkpt>
      <trkpt lat="43.27486" lon="3.20295">
        <ele>63.842301</ele>
        <time>2023-01-07T14:47:27.097Z</time>
      </trkpt>
      <trkpt lat="43.27482" lon="3.20309">
        <ele>63.819408</ele>
        <time>2023-01-07T14:47:29.100Z</time>
      </trkpt>
      <trkpt lat="43.27477" lon="3.20322">
        <ele>63.796533</ele>
        <time>2023-01-07T14:47:31.098Z</time>
      </trkpt>
      <trkpt lat="43.27472" lon="3.20334">
        <ele>63.773026</ele>
        <time>2023-01-07T14:47:33.098Z</time>
      </trkpt>
      <trkpt lat="43.27467" lon="3.20347">
        <ele>63.741141</ele>
        <time>2023-01-07T14:47:35.092Z</time>
      </trkpt>
      <trkpt lat="43.27462" lon="3.20359">
        <ele>63.710382</ele>
        <time>2023-01-07T14:47:37.092Z</time>
      </trkpt>
      <trkpt lat="43.27457" lon="3.2037">
        <ele>63.680744</ele>
        <time>2023-01-07T14:47:39.091Z</time>
      </trkpt>
      <trkpt lat="43.27452" lon="3.2038">
        <ele>63.652486</ele>
        <time>2023-01-07T14:47:41.090Z</time>
      </trkpt>
      <trkpt lat="43.27447" lon="3.20392">
        <ele>63.621956</ele>
        <time>2023-01-07T14:47:43.096Z</time>
      </trkpt>
      <trkpt lat="43.27442" lon="3.20403">
        <ele>63.592425</ele>
        <time>2023-01-07T14:47:45.097Z</time>
      </trkpt>
      <trkpt lat="43.27437" lon="3.20415">
        <ele>63.561124</ele>
        <time>2023-01-07T14:47:47.099Z</time>
      </trkpt>
      <trkpt lat="43.27431" lon="3.20427">
        <ele>63.52916</ele>
        <time>2023-01-07T14:47:49.098Z</time>
      </trkpt>
      <trkpt lat="43.27424" lon="3.20443">
        <ele>63.4871</ele>
        <time>2023-01-07T14:47:52.111Z</time>
      </trkpt>
      <trkpt lat="43.27419" lon="3.20455">
        <ele>63.457335</ele>
        <time>2023-01-07T14:47:54.098Z</time>
      </trkpt>
      <trkpt lat="43.27414" lon="3.20465">
        <ele>63.428534</ele>
        <time>2023-01-07T14:47:56.096Z</time>
      </trkpt>
      <trkpt lat="43.27408" lon="3.20476">
        <ele>63.398832</ele>
        <time>2023-01-07T14:47:58.094Z</time>
      </trkpt>
      <trkpt lat="43.27403" lon="3.20487">
        <ele>63.368598</ele>
        <time>2023-01-07T14:48:00.103Z</time>
      </trkpt>
      <trkpt lat="43.27397" lon="3.20503">
        <ele>63.329904</ele>
        <time>2023-01-07T14:48:03.108Z</time>
      </trkpt>
      <trkpt lat="43.27393" lon="3.20515">
        <ele>63.300478</ele>
        <time>2023-01-07T14:48:05.106Z</time>
      </trkpt>
      <trkpt lat="43.27387" lon="3.20532">
        <ele>63.259034</ele>
        <time>2023-01-07T14:48:08.098Z</time>
      </trkpt>
      <trkpt lat="43.27384" lon="3.20544">
        <ele>63.227969</ele>
        <time>2023-01-07T14:48:10.102Z</time>
      </trkpt>
      <trkpt lat="43.2738" lon="3.20558">
        <ele>63.208063</ele>
        <time>2023-01-07T14:48:12.106Z</time>
      </trkpt>
      <trkpt lat="43.27378" lon="3.2057">
        <ele>63.190917</ele>
        <time>2023-01-07T14:48:14.106Z</time>
      </trkpt>
      <trkpt lat="43.27375" lon="3.20583">
        <ele>63.172697</ele>
        <time>2023-01-07T14:48:16.100Z</time>
      </trkpt>
      <trkpt lat="43.27373" lon="3.20595">
        <ele>63.155251</ele>
        <time>2023-01-07T14:48:18.101Z</time>
      </trkpt>
      <trkpt lat="43.27371" lon="3.20609">
        <ele>63.136259</ele>
        <time>2023-01-07T14:48:20.102Z</time>
      </trkpt>
      <trkpt lat="43.27369" lon="3.20622">
        <ele>63.11744</ele>
        <time>2023-01-07T14:48:22.098Z</time>
      </trkpt>
      <trkpt lat="43.27367" lon="3.20636">
        <ele>63.097688</ele>
        <time>2023-01-07T14:48:24.097Z</time>
      </trkpt>
      <trkpt lat="43.27365" lon="3.20649">
        <ele>63.079951</ele>
        <time>2023-01-07T14:48:26.107Z</time>
      </trkpt>
      <trkpt lat="43.27363" lon="3.20663">
        <ele>63.061543</ele>
        <time>2023-01-07T14:48:28.110Z</time>
      </trkpt>
      <trkpt lat="43.27361" lon="3.20675">
        <ele>63.043788</ele>
        <time>2023-01-07T14:48:30.107Z</time>
      </trkpt>
      <trkpt lat="43.27359" lon="3.20688">
        <ele>63.026621</ele>
        <time>2023-01-07T14:48:32.093Z</time>
      </trkpt>
      <trkpt lat="43.27356" lon="3.20705">
        <ele>63.001796</ele>
        <time>2023-01-07T14:48:35.097Z</time>
      </trkpt>
      <trkpt lat="43.27354" lon="3.20718">
        <ele>62.984707</ele>
        <time>2023-01-07T14:48:37.092Z</time>
      </trkpt>
      <trkpt lat="43.27352" lon="3.2073">
        <ele>62.967659</ele>
        <time>2023-01-07T14:48:39.088Z</time>
      </trkpt>
      <trkpt lat="43.27351" lon="3.20743">
        <ele>62.950014</ele>
        <time>2023-01-07T14:48:41.107Z</time>
      </trkpt>
      <trkpt lat="43.27349" lon="3.20756">
        <ele>62.931907</ele>
        <time>2023-01-07T14:48:43.094Z</time>
      </trkpt>
      <trkpt lat="43.27347" lon="3.20768">
        <ele>62.915032</ele>
        <time>2023-01-07T14:48:45.097Z</time>
      </trkpt>
      <trkpt lat="43.27345" lon="3.20786">
        <ele>62.889778</ele>
        <time>2023-01-07T14:48:48.083Z</time>
      </trkpt>
      <trkpt lat="43.27344" lon="3.20799">
        <ele>62.81203</ele>
        <time>2023-01-07T14:48:50.088Z</time>
      </trkpt>
      <trkpt lat="43.27341" lon="3.20811">
        <ele>62.730563</ele>
        <time>2023-01-07T14:48:52.092Z</time>
      </trkpt>
      <trkpt lat="43.27339" lon="3.20824">
        <ele>62.6494</ele>
        <time>2023-01-07T14:48:54.088Z</time>
      </trkpt>
      <trkpt lat="43.27337" lon="3.20836">
        <ele>62.567834</ele>
        <time>2023-01-07T14:48:56.098Z</time>
      </trkpt>
      <trkpt lat="43.27334" lon="3.2085">
        <ele>62.479791</ele>
        <time>2023-01-07T14:48:58.092Z</time>
      </trkpt>
      <trkpt lat="43.27332" lon="3.20865">
        <ele>62.386485</ele>
        <time>2023-01-07T14:49:00.115Z</time>
      </trkpt>
      <trkpt lat="43.27328" lon="3.20878">
        <ele>62.298192</ele>
        <time>2023-01-07T14:49:02.095Z</time>
      </trkpt>
      <trkpt lat="43.27324" lon="3.2089">
        <ele>62.213304</ele>
        <time>2023-01-07T14:49:04.089Z</time>
      </trkpt>
      <trkpt lat="43.27319" lon="3.20903">
        <ele>62.124319</ele>
        <time>2023-01-07T14:49:06.103Z</time>
      </trkpt>
      <trkpt lat="43.27313" lon="3.20914">
        <ele>62.036707</ele>
        <time>2023-01-07T14:49:08.086Z</time>
      </trkpt>
      <trkpt lat="43.27308" lon="3.20927">
        <ele>61.94705</ele>
        <time>2023-01-07T14:49:10.088Z</time>
      </trkpt>
      <trkpt lat="43.27302" lon="3.20939">
        <ele>61.854895</ele>
        <time>2023-01-07T14:49:12.085Z</time>
      </trkpt>
      <trkpt lat="43.27296" lon="3.20951">
        <ele>61.764422</ele>
        <time>2023-01-07T14:49:14.090Z</time>
      </trkpt>
      <trkpt lat="43.2729" lon="3.20963">
        <ele>61.672485</ele>
        <time>2023-01-07T14:49:16.089Z</time>
      </trkpt>
      <trkpt lat="43.27283" lon="3.20974">
        <ele>61.579858</ele>
        <time>2023-01-07T14:49:18.094Z</time>
      </trkpt>
      <trkpt lat="43.27276" lon="3.20987">
        <ele>61.479287</ele>
        <time>2023-01-07T14:49:20.091Z</time>
      </trkpt>
      <trkpt lat="43.27268" lon="3.21">
        <ele>61.378082</ele>
        <time>2023-01-07T14:49:22.091Z</time>
      </trkpt>
      <trkpt lat="43.27261" lon="3.21012">
        <ele>61.241966</ele>
        <time>2023-01-07T14:49:24.129Z</time>
      </trkpt>
      <trkpt lat="43.27254" lon="3.21025">
        <ele>61.08839</ele>
        <time>2023-01-07T14:49:26.090Z</time>
      </trkpt>
      <trkpt lat="43.27246" lon="3.21037">
        <ele>60.926804</ele>
        <time>2023-01-07T14:49:28.083Z</time>
      </trkpt>
      <trkpt lat="43.27239" lon="3.2105">
        <ele>60.770265</ele>
        <time>2023-01-07T14:49:30.091Z</time>
      </trkpt>
      <trkpt lat="43.27231" lon="3.21063">
        <ele>60.604725</ele>
        <time>2023-01-07T14:49:32.088Z</time>
      </trkpt>
      <trkpt lat="43.27223" lon="3.21076">
        <ele>60.444743</ele>
        <time>2023-01-07T14:49:34.093Z</time>
      </trkpt>
      <trkpt lat="43.27216" lon="3.21089">
        <ele>60.281761</ele>
        <time>2023-01-07T14:49:36.085Z</time>
      </trkpt>
      <trkpt lat="43.27208" lon="3.21101">
        <ele>60.124397</ele>
        <time>2023-01-07T14:49:38.094Z</time>
      </trkpt>
      <trkpt lat="43.27202" lon="3.21112">
        <ele>59.982453</ele>
        <time>2023-01-07T14:49:40.097Z</time>
      </trkpt>
      <trkpt lat="43.27195" lon="3.21124">
        <ele>59.832911</ele>
        <time>2023-01-07T14:49:42.090Z</time>
      </trkpt>
      <trkpt lat="43.27188" lon="3.21136">
        <ele>59.687986</ele>
        <time>2023-01-07T14:49:44.091Z</time>
      </trkpt>
      <trkpt lat="43.27181" lon="3.21147">
        <ele>59.54678</ele>
        <time>2023-01-07T14:49:46.090Z</time>
      </trkpt>
      <trkpt lat="43.27174" lon="3.21159">
        <ele>59.397794</ele>
        <time>2023-01-07T14:49:48.092Z</time>
      </trkpt>
      <trkpt lat="43.27166" lon="3.21171">
        <ele>59.241112</ele>
        <time>2023-01-07T14:49:50.086Z</time>
      </trkpt>
      <trkpt lat="43.27159" lon="3.21184">
        <ele>59.075918</ele>
        <time>2023-01-07T14:49:52.096Z</time>
      </trkpt>
      <trkpt lat="43.27151" lon="3.21198">
        <ele>58.891881</ele>
        <time>2023-01-07T14:49:54.087Z</time>
      </trkpt>
      <trkpt lat="43.27144" lon="3.21211">
        <ele>58.627622</ele>
        <time>2023-01-07T14:49:56.090Z</time>
      </trkpt>
      <trkpt lat="43.27138" lon="3.21225">
        <ele>58.354731</ele>
        <time>2023-01-07T14:49:58.087Z</time>
      </trkpt>
      <trkpt lat="43.27133" lon="3.21238">
        <ele>58.099487</ele>
        <time>2023-01-07T14:50:00.100Z</time>
      </trkpt>
      <trkpt lat="43.27127" lon="3.21253">
        <ele>57.823315</ele>
        <time>2023-01-07T14:50:02.154Z</time>
      </trkpt>
      <trkpt lat="43.27123" lon="3.21267">
        <ele>57.560867</ele>
        <time>2023-01-07T14:50:04.085Z</time>
      </trkpt>
      <trkpt lat="43.27118" lon="3.21283">
        <ele>57.291099</ele>
        <time>2023-01-07T14:50:06.094Z</time>
      </trkpt>
      <trkpt lat="43.27114" lon="3.21297">
        <ele>57.027129</ele>
        <time>2023-01-07T14:50:08.087Z</time>
      </trkpt>
      <trkpt lat="43.2711" lon="3.21313">
        <ele>56.755047</ele>
        <time>2023-01-07T14:50:10.099Z</time>
      </trkpt>
      <trkpt lat="43.27106" lon="3.21328">
        <ele>56.485958</ele>
        <time>2023-01-07T14:50:12.088Z</time>
      </trkpt>
      <trkpt lat="43.27102" lon="3.21342">
        <ele>56.234862</ele>
        <time>2023-01-07T14:50:14.088Z</time>
      </trkpt>
      <trkpt lat="43.27098" lon="3.21356">
        <ele>55.987726</ele>
        <time>2023-01-07T14:50:16.087Z</time>
      </trkpt>
      <trkpt lat="43.27094" lon="3.21371">
        <ele>55.720231</ele>
        <time>2023-01-07T14:50:18.087Z</time>
      </trkpt>
      <trkpt lat="43.27091" lon="3.21385">
        <ele>55.474243</ele>
        <time>2023-01-07T14:50:20.094Z</time>
      </trkpt>
      <trkpt lat="43.27087" lon="3.21399">
        <ele>55.229995</ele>
        <time>2023-01-07T14:50:22.091Z</time>
      </trkpt>
      <trkpt lat="43.27084" lon="3.21412">
        <ele>55.009811</ele>
        <time>2023-01-07T14:50:24.112Z</time>
      </trkpt>
      <trkpt lat="43.2708" lon="3.21425">
        <ele>54.774997</ele>
        <time>2023-01-07T14:50:26.089Z</time>
      </trkpt>
      <trkpt lat="43.27077" lon="3.21438">
        <ele>54.550708</ele>
        <time>2023-01-07T14:50:28.090Z</time>
      </trkpt>
      <trkpt lat="43.27074" lon="3.2145">
        <ele>54.33905</ele>
        <time>2023-01-07T14:50:30.090Z</time>
      </trkpt>
      <trkpt lat="43.27071" lon="3.21462">
        <ele>54.122736</ele>
        <time>2023-01-07T14:50:32.103Z</time>
      </trkpt>
      <trkpt lat="43.27068" lon="3.21475">
        <ele>53.901579</ele>
        <time>2023-01-07T14:50:34.099Z</time>
      </trkpt>
      <trkpt lat="43.27064" lon="3.21488">
        <ele>53.675305</ele>
        <time>2023-01-07T14:50:36.095Z</time>
      </trkpt>
      <trkpt lat="43.27061" lon="3.21503">
        <ele>53.427451</ele>
        <time>2023-01-07T14:50:38.091Z</time>
      </trkpt>
      <trkpt lat="43.27057" lon="3.21516">
        <ele>53.189514</ele>
        <time>2023-01-07T14:50:40.093Z</time>
      </trkpt>
      <trkpt lat="43.27053" lon="3.21531">
        <ele>52.935406</ele>
        <time>2023-01-07T14:50:42.083Z</time>
      </trkpt>
      <trkpt lat="43.27049" lon="3.21545">
        <ele>52.679873</ele>
        <time>2023-01-07T14:50:44.089Z</time>
      </trkpt>
      <trkpt lat="43.27045" lon="3.2156">
        <ele>52.422045</ele>
        <time>2023-01-07T14:50:46.096Z</time>
      </trkpt>
      <trkpt lat="43.27042" lon="3.21574">
        <ele>52.190164</ele>
        <time>2023-01-07T14:50:48.104Z</time>
      </trkpt>
      <trkpt lat="43.27038" lon="3.21589">
        <ele>51.93077</ele>
        <time>2023-01-07T14:50:50.101Z</time>
      </trkpt>
      <trkpt lat="43.27034" lon="3.21603">
        <ele>51.679014</ele>
        <time>2023-01-07T14:50:52.098Z</time>
      </trkpt>
      <trkpt lat="43.2703" lon="3.21617">
        <ele>51.430414</ele>
        <time>2023-01-07T14:50:54.101Z</time>
      </trkpt>
      <trkpt lat="43.27026" lon="3.21631">
        <ele>51.184743</ele>
        <time>2023-01-07T14:50:56.090Z</time>
      </trkpt>
      <trkpt lat="43.27022" lon="3.21646">
        <ele>50.928454</ele>
        <time>2023-01-07T14:50:58.083Z</time>
      </trkpt>
      <trkpt lat="43.27018" lon="3.2166">
        <ele>50.80699</ele>
        <time>2023-01-07T14:51:00.094Z</time>
      </trkpt>
      <trkpt lat="43.27014" lon="3.21673">
        <ele>50.824879</ele>
        <time>2023-01-07T14:51:02.098Z</time>
      </trkpt>
      <trkpt lat="43.27008" lon="3.21685">
        <ele>50.842487</ele>
        <time>2023-01-07T14:51:04.097Z</time>
      </trkpt>
      <trkpt lat="43.27003" lon="3.21696">
        <ele>50.859285</ele>
        <time>2023-01-07T14:51:06.092Z</time>
      </trkpt>
      <trkpt lat="43.26999" lon="3.21709">
        <ele>50.875876</ele>
        <time>2023-01-07T14:51:08.099Z</time>
      </trkpt>
      <trkpt lat="43.26998" lon="3.21723">
        <ele>50.893623</ele>
        <time>2023-01-07T14:51:10.093Z</time>
      </trkpt>
      <trkpt lat="43.26997" lon="3.21737">
        <ele>50.910894</ele>
        <time>2023-01-07T14:51:12.092Z</time>
      </trkpt>
      <trkpt lat="43.26994" lon="3.2175">
        <ele>50.927842</ele>
        <time>2023-01-07T14:51:14.095Z</time>
      </trkpt>
      <trkpt lat="43.26991" lon="3.21763">
        <ele>50.944523</ele>
        <time>2023-01-07T14:51:16.091Z</time>
      </trkpt>
      <trkpt lat="43.26988" lon="3.21776">
        <ele>50.96154</ele>
        <time>2023-01-07T14:51:18.094Z</time>
      </trkpt>
      <trkpt lat="43.26984" lon="3.21789">
        <ele>50.97918</ele>
        <time>2023-01-07T14:51:20.094Z</time>
      </trkpt>
      <trkpt lat="43.2698" lon="3.21802">
        <ele>50.996424</ele>
        <time>2023-01-07T14:51:22.089Z</time>
      </trkpt>
      <trkpt lat="43.26977" lon="3.21815">
        <ele>51.013361</ele>
        <time>2023-01-07T14:51:24.089Z</time>
      </trkpt>
      <trkpt lat="43.26973" lon="3.21829">
        <ele>51.032455</ele>
        <time>2023-01-07T14:51:26.090Z</time>
      </trkpt>
      <trkpt lat="43.2697" lon="3.21842">
        <ele>51.049276</ele>
        <time>2023-01-07T14:51:28.090Z</time>
      </trkpt>
      <trkpt lat="43.26966" lon="3.21856">
        <ele>51.067617</ele>
        <time>2023-01-07T14:51:30.107Z</time>
      </trkpt>
      <trkpt lat="43.26964" lon="3.21868">
        <ele>51.084132</ele>
        <time>2023-01-07T14:51:32.111Z</time>
      </trkpt>
      <trkpt lat="43.26961" lon="3.2188">
        <ele>51.09961</ele>
        <time>2023-01-07T14:51:34.085Z</time>
      </trkpt>
      <trkpt lat="43.26958" lon="3.21892">
        <ele>50.951565</ele>
        <time>2023-01-07T14:51:36.086Z</time>
      </trkpt>
      <trkpt lat="43.26954" lon="3.21908">
        <ele>50.66622</ele>
        <time>2023-01-07T14:51:39.107Z</time>
      </trkpt>
      <trkpt lat="43.26949" lon="3.21924">
        <ele>50.372631</ele>
        <time>2023-01-07T14:51:42.088Z</time>
      </trkpt>
      <trkpt lat="43.26945" lon="3.21941">
        <ele>50.064351</ele>
        <time>2023-01-07T14:51:45.103Z</time>
      </trkpt>
      <trkpt lat="43.26943" lon="3.21953">
        <ele>49.847554</ele>
        <time>2023-01-07T14:51:47.098Z</time>
      </trkpt>
      <trkpt lat="43.2694" lon="3.21965">
        <ele>49.618855</ele>
        <time>2023-01-07T14:51:49.113Z</time>
      </trkpt>
      <trkpt lat="43.26937" lon="3.21983">
        <ele>49.30655</ele>
        <time>2023-01-07T14:51:52.100Z</time>
      </trkpt>
      <trkpt lat="43.26935" lon="3.21995">
        <ele>49.091841</ele>
        <time>2023-01-07T14:51:54.104Z</time>
      </trkpt>
      <trkpt lat="43.26932" lon="3.22013">
        <ele>48.773247</ele>
        <time>2023-01-07T14:51:57.106Z</time>
      </trkpt>
      <trkpt lat="43.2693" lon="3.22025">
        <ele>48.549169</ele>
        <time>2023-01-07T14:51:59.098Z</time>
      </trkpt>
      <trkpt lat="43.26927" lon="3.22043">
        <ele>48.23831</ele>
        <time>2023-01-07T14:52:02.087Z</time>
      </trkpt>
      <trkpt lat="43.26923" lon="3.22059">
        <ele>47.938568</ele>
        <time>2023-01-07T14:52:05.098Z</time>
      </trkpt>
      <trkpt lat="43.26921" lon="3.22075">
        <ele>47.656577</ele>
        <time>2023-01-07T14:52:08.090Z</time>
      </trkpt>
      <trkpt lat="43.26918" lon="3.22089">
        <ele>47.405249</ele>
        <time>2023-01-07T14:52:11.088Z</time>
      </trkpt>
      <trkpt lat="43.26914" lon="3.22102">
        <ele>47.167903</ele>
        <time>2023-01-07T14:52:14.091Z</time>
      </trkpt>
      <trkpt lat="43.26908" lon="3.22114">
        <ele>46.916891</ele>
        <time>2023-01-07T14:52:17.100Z</time>
      </trkpt>
      <trkpt lat="43.269" lon="3.22125">
        <ele>46.87908</ele>
        <time>2023-01-07T14:52:20.085Z</time>
      </trkpt>
      <trkpt lat="43.26893" lon="3.22136">
        <ele>46.968209</ele>
        <time>2023-01-07T14:52:23.097Z</time>
      </trkpt>
      <trkpt lat="43.26889" lon="3.2215">
        <ele>47.053865</ele>
        <time>2023-01-07T14:52:26.086Z</time>
      </trkpt>
      <trkpt lat="43.26888" lon="3.22165">
        <ele>47.142731</ele>
        <time>2023-01-07T14:52:29.115Z</time>
      </trkpt>
      <trkpt lat="43.2689" lon="3.22179">
        <ele>47.226775</ele>
        <time>2023-01-07T14:52:32.085Z</time>
      </trkpt>
      <trkpt lat="43.26893" lon="3.22191">
        <ele>47.302181</ele>
        <time>2023-01-07T14:52:35.098Z</time>
      </trkpt>
      <trkpt lat="43.26898" lon="3.22204">
        <ele>47.387002</ele>
        <time>2023-01-07T14:52:38.087Z</time>
      </trkpt>
      <trkpt lat="43.26904" lon="3.22218">
        <ele>47.478702</ele>
        <time>2023-01-07T14:52:41.098Z</time>
      </trkpt>
      <trkpt lat="43.26909" lon="3.22232">
        <ele>47.574817</ele>
        <time>2023-01-07T14:52:44.094Z</time>
      </trkpt>
      <trkpt lat="43.26915" lon="3.22244">
        <ele>47.660138</ele>
        <time>2023-01-07T14:52:47.093Z</time>
      </trkpt>
      <trkpt lat="43.2692" lon="3.22256">
        <ele>47.735694</ele>
        <time>2023-01-07T14:52:50.103Z</time>
      </trkpt>
      <trkpt lat="43.26924" lon="3.22268">
        <ele>47.816899</ele>
        <time>2023-01-07T14:52:54.095Z</time>
      </trkpt>
      <trkpt lat="43.26928" lon="3.2228">
        <ele>47.892934</ele>
        <time>2023-01-07T14:52:58.104Z</time>
      </trkpt>
      <trkpt lat="43.2693" lon="3.22292">
        <ele>47.965992</ele>
        <time>2023-01-07T14:53:02.095Z</time>
      </trkpt>
      <trkpt lat="43.26929" lon="3.22304">
        <ele>48.039631</ele>
        <time>2023-01-07T14:53:06.088Z</time>
      </trkpt>
      <trkpt lat="43.26928" lon="3.22319">
        <ele>48.124235</ele>
        <time>2023-01-07T14:53:10.098Z</time>
      </trkpt>
      <trkpt lat="43.26924" lon="3.22333">
        <ele>48.210627</ele>
        <time>2023-01-07T14:53:14.088Z</time>
      </trkpt>
      <trkpt lat="43.26919" lon="3.22344">
        <ele>48.339956</ele>
        <time>2023-01-07T14:53:18.097Z</time>
      </trkpt>
      <trkpt lat="43.26912" lon="3.22352">
        <ele>48.665827</ele>
        <time>2023-01-07T14:53:22.101Z</time>
      </trkpt>
      <trkpt lat="43.26903" lon="3.22359">
        <ele>49.007621</ele>
        <time>2023-01-07T14:53:26.084Z</time>
      </trkpt>
      <trkpt lat="43.2688" lon="3.22375">
        <ele>49.847515</ele>
        <time>2023-01-07T14:55:06.187Z</time>
      </trkpt>
      <trkpt lat="43.26876" lon="3.22392">
        <ele>50.279768</ele>
        <time>2023-01-07T14:55:09.089Z</time>
      </trkpt>
      <trkpt lat="43.26869" lon="3.22401">
        <ele>50.59444</ele>
        <time>2023-01-07T14:55:12.093Z</time>
      </trkpt>
      <trkpt lat="43.26863" lon="3.22411">
        <ele>50.906561</ele>
        <time>2023-01-07T14:55:17.107Z</time>
      </trkpt>
      <trkpt lat="43.26856" lon="3.22423">
        <ele>51.293777</ele>
        <time>2023-01-07T14:55:22.089Z</time>
      </trkpt>
      <trkpt lat="43.26855" lon="3.22436">
        <ele>51.617471</ele>
        <time>2023-01-07T14:55:26.095Z</time>
      </trkpt>
      <trkpt lat="43.26858" lon="3.22448">
        <ele>51.923485</ele>
        <time>2023-01-07T14:55:31.087Z</time>
      </trkpt>
      <trkpt lat="43.26863" lon="3.2246">
        <ele>52.2603</ele>
        <time>2023-01-07T14:55:36.106Z</time>
      </trkpt>
      <trkpt lat="43.26867" lon="3.22473">
        <ele>52.59751</ele>
        <time>2023-01-07T14:55:42.089Z</time>
      </trkpt>
      <trkpt lat="43.26872" lon="3.22484">
        <ele>52.910646</ele>
        <time>2023-01-07T14:55:47.103Z</time>
      </trkpt>
      <trkpt lat="43.26877" lon="3.22494">
        <ele>53.215642</ele>
        <time>2023-01-07T14:55:53.102Z</time>
      </trkpt>
      <trkpt lat="43.26882" lon="3.22506">
        <ele>53.546917</ele>
        <time>2023-01-07T14:55:59.092Z</time>
      </trkpt>
      <trkpt lat="43.26887" lon="3.22517">
        <ele>53.867818</ele>
        <time>2023-01-07T14:56:05.093Z</time>
      </trkpt>
      <trkpt lat="43.2689" lon="3.2253">
        <ele>54.176974</ele>
        <time>2023-01-07T14:56:11.099Z</time>
      </trkpt>
      <trkpt lat="43.26893" lon="3.22543">
        <ele>54.864006</ele>
        <time>2023-01-07T14:56:18.091Z</time>
      </trkpt>
      <trkpt lat="43.26899" lon="3.22554">
        <ele>55.604507</ele>
        <time>2023-01-07T14:56:24.093Z</time>
      </trkpt>
      <trkpt lat="43.26903" lon="3.22566">
        <ele>56.33158</ele>
        <time>2023-01-07T14:56:30.095Z</time>
      </trkpt>
      <trkpt lat="43.26907" lon="3.22579">
        <ele>57.103986</ele>
        <time>2023-01-07T14:56:37.110Z</time>
      </trkpt>
      <trkpt lat="43.26912" lon="3.22591">
        <ele>57.854248</ele>
        <time>2023-01-07T14:56:43.094Z</time>
      </trkpt>
      <trkpt lat="43.26915" lon="3.22604">
        <ele>58.61782</ele>
        <time>2023-01-07T14:56:49.096Z</time>
      </trkpt>
      <trkpt lat="43.26919" lon="3.22616">
        <ele>59.348072</ele>
        <time>2023-01-07T14:56:55.091Z</time>
      </trkpt>
      <trkpt lat="43.26925" lon="3.22628">
        <ele>60.119421</ele>
        <time>2023-01-07T14:57:01.095Z</time>
      </trkpt>
      <trkpt lat="43.26928" lon="3.2264">
        <ele>60.859699</ele>
        <time>2023-01-07T14:57:08.097Z</time>
      </trkpt>
      <trkpt lat="43.26932" lon="3.22653">
        <ele>61.600245</ele>
        <time>2023-01-07T14:57:15.090Z</time>
      </trkpt>
      <trkpt lat="43.26934" lon="3.22665">
        <ele>62.31113</ele>
        <time>2023-01-07T14:57:33.094Z</time>
      </trkpt>
      <trkpt lat="43.26938" lon="3.22677">
        <ele>63.032032</ele>
        <time>2023-01-07T14:57:50.105Z</time>
      </trkpt>
      <trkpt lat="43.2694" lon="3.2269">
        <ele>63.74083</ele>
        <time>2023-01-07T14:58:06.102Z</time>
      </trkpt>
      <trkpt lat="43.26939" lon="3.22703">
        <ele>64.474513</ele>
        <time>2023-01-07T14:58:37.101Z</time>
      </trkpt>
      <trkpt lat="43.26943" lon="3.22716">
        <ele>65.2106</ele>
        <time>2023-01-07T14:58:42.106Z</time>
      </trkpt>
      <trkpt lat="43.26943" lon="3.2273">
        <ele>65.982464</ele>
        <time>2023-01-07T14:58:47.089Z</time>
      </trkpt>
      <trkpt lat="43.26943" lon="3.22744">
        <ele>66.794556</ele>
        <time>2023-01-07T14:58:52.087Z</time>
      </trkpt>
      <trkpt lat="43.26941" lon="3.22757">
        <ele>67.500075</ele>
        <time>2023-01-07T14:58:57.094Z</time>
      </trkpt>
      <trkpt lat="43.2694" lon="3.22769">
        <ele>68.112009</ele>
        <time>2023-01-07T14:59:02.091Z</time>
      </trkpt>
      <trkpt lat="43.26939" lon="3.22783">
        <ele>68.715841</ele>
        <time>2023-01-07T14:59:08.102Z</time>
      </trkpt>
      <trkpt lat="43.26938" lon="3.22797">
        <ele>69.294593</ele>
        <time>2023-01-07T14:59:14.089Z</time>
      </trkpt>
      <trkpt lat="43.26936" lon="3.2281">
        <ele>69.873222</ele>
        <time>2023-01-07T14:59:20.095Z</time>
      </trkpt>
      <trkpt lat="43.26933" lon="3.22823">
        <ele>70.445719</ele>
        <time>2023-01-07T14:59:26.095Z</time>
      </trkpt>
      <trkpt lat="43.26929" lon="3.22835">
        <ele>71.03153</ele>
        <time>2023-01-07T14:59:32.107Z</time>
      </trkpt>
      <trkpt lat="43.26923" lon="3.22847">
        <ele>71.652447</ele>
        <time>2023-01-07T14:59:39.087Z</time>
      </trkpt>
      <trkpt lat="43.26923" lon="3.2286">
        <ele>72.205804</ele>
        <time>2023-01-07T14:59:44.109Z</time>
      </trkpt>
      <trkpt lat="43.26931" lon="3.22867">
        <ele>72.773411</ele>
        <time>2023-01-07T14:59:48.109Z</time>
      </trkpt>
      <trkpt lat="43.26938" lon="3.22876">
        <ele>73.333223</ele>
        <time>2023-01-07T14:59:52.097Z</time>
      </trkpt>
      <trkpt lat="43.26942" lon="3.2289">
        <ele>73.973225</ele>
        <time>2023-01-07T14:59:56.110Z</time>
      </trkpt>
      <trkpt lat="43.26942" lon="3.22903">
        <ele>74.505973</ele>
        <time>2023-01-07T14:59:59.103Z</time>
      </trkpt>
      <trkpt lat="43.26943" lon="3.22916">
        <ele>75.090931</ele>
        <time>2023-01-07T15:00:02.084Z</time>
      </trkpt>
      <trkpt lat="43.26944" lon="3.2293">
        <ele>75.675385</ele>
        <time>2023-01-07T15:00:05.083Z</time>
      </trkpt>
      <trkpt lat="43.26945" lon="3.22945">
        <ele>76.325423</ele>
        <time>2023-01-07T15:00:08.106Z</time>
      </trkpt>
      <trkpt lat="43.26946" lon="3.22961">
        <ele>77.012019</ele>
        <time>2023-01-07T15:00:11.090Z</time>
      </trkpt>
      <trkpt lat="43.26947" lon="3.22977">
        <ele>77.716972</ele>
        <time>2023-01-07T15:00:14.110Z</time>
      </trkpt>
      <trkpt lat="43.26948" lon="3.22993">
        <ele>78.391563</ele>
        <time>2023-01-07T15:00:17.109Z</time>
      </trkpt>
      <trkpt lat="43.26949" lon="3.2301">
        <ele>78.020925</ele>
        <time>2023-01-07T15:00:20.099Z</time>
      </trkpt>
      <trkpt lat="43.2695" lon="3.23026">
        <ele>77.585341</ele>
        <time>2023-01-07T15:00:23.094Z</time>
      </trkpt>
      <trkpt lat="43.26952" lon="3.23043">
        <ele>77.124203</ele>
        <time>2023-01-07T15:00:26.100Z</time>
      </trkpt>
      <trkpt lat="43.26953" lon="3.2306">
        <ele>76.658197</ele>
        <time>2023-01-07T15:00:29.106Z</time>
      </trkpt>
      <trkpt lat="43.26956" lon="3.23077">
        <ele>76.186798</ele>
        <time>2023-01-07T15:00:32.088Z</time>
      </trkpt>
      <trkpt lat="43.26957" lon="3.23094">
        <ele>75.708552</ele>
        <time>2023-01-07T15:00:35.103Z</time>
      </trkpt>
      <trkpt lat="43.26959" lon="3.23112">
        <ele>75.232414</ele>
        <time>2023-01-07T15:00:38.097Z</time>
      </trkpt>
      <trkpt lat="43.26963" lon="3.23128">
        <ele>74.77512</ele>
        <time>2023-01-07T15:00:41.115Z</time>
      </trkpt>
      <trkpt lat="43.26965" lon="3.23144">
        <ele>74.347551</ele>
        <time>2023-01-07T15:00:44.105Z</time>
      </trkpt>
      <trkpt lat="43.26966" lon="3.23157">
        <ele>73.971435</ele>
        <time>2023-01-07T15:00:47.088Z</time>
      </trkpt>
      <trkpt lat="43.26968" lon="3.2317">
        <ele>73.62469</ele>
        <time>2023-01-07T15:00:50.099Z</time>
      </trkpt>
      <trkpt lat="43.2697" lon="3.23183">
        <ele>73.253725</ele>
        <time>2023-01-07T15:00:53.108Z</time>
      </trkpt>
      <trkpt lat="43.26972" lon="3.23198">
        <ele>72.850813</ele>
        <time>2023-01-07T15:00:56.096Z</time>
      </trkpt>
      <trkpt lat="43.26974" lon="3.23214">
        <ele>72.418551</ele>
        <time>2023-01-07T15:00:59.104Z</time>
      </trkpt>
      <trkpt lat="43.26975" lon="3.2323">
        <ele>71.969103</ele>
        <time>2023-01-07T15:01:02.091Z</time>
      </trkpt>
      <trkpt lat="43.26975" lon="3.23247">
        <ele>71.837566</ele>
        <time>2023-01-07T15:01:05.092Z</time>
      </trkpt>
      <trkpt lat="43.26973" lon="3.23261">
        <ele>71.955886</ele>
        <time>2023-01-07T15:01:09.093Z</time>
      </trkpt>
      <trkpt lat="43.26973" lon="3.23274">
        <ele>72.070951</ele>
        <time>2023-01-07T15:01:12.092Z</time>
      </trkpt>
      <trkpt lat="43.26977" lon="3.23288">
        <ele>72.193506</ele>
        <time>2023-01-07T15:01:15.102Z</time>
      </trkpt>
      <trkpt lat="43.26987" lon="3.23293">
        <ele>72.317354</ele>
        <time>2023-01-07T15:01:18.099Z</time>
      </trkpt>
      <trkpt lat="43.26996" lon="3.23289">
        <ele>72.424144</ele>
        <time>2023-01-07T15:01:21.091Z</time>
      </trkpt>
      <trkpt lat="43.27002" lon="3.23277">
        <ele>72.543083</ele>
        <time>2023-01-07T15:01:25.100Z</time>
      </trkpt>
      <trkpt lat="43.27" lon="3.2329">
        <ele>72.652928</ele>
        <time>2023-01-07T15:01:35.106Z</time>
      </trkpt>
      <trkpt lat="43.26994" lon="3.23302">
        <ele>72.770134</ele>
        <time>2023-01-07T15:01:39.106Z</time>
      </trkpt>
      <trkpt lat="43.26992" lon="3.23315">
        <ele>72.885735</ele>
        <time>2023-01-07T15:01:43.097Z</time>
      </trkpt>
      <trkpt lat="43.26991" lon="3.23329">
        <ele>73.001697</ele>
        <time>2023-01-07T15:01:46.095Z</time>
      </trkpt>
      <trkpt lat="43.26994" lon="3.23345">
        <ele>73.138969</ele>
        <time>2023-01-07T15:01:49.092Z</time>
      </trkpt>
      <trkpt lat="43.26995" lon="3.23361">
        <ele>73.279009</ele>
        <time>2023-01-07T15:01:52.107Z</time>
      </trkpt>
      <trkpt lat="43.26997" lon="3.23378">
        <ele>73.42028</ele>
        <time>2023-01-07T15:01:55.105Z</time>
      </trkpt>
      <trkpt lat="43.26998" lon="3.23395">
        <ele>73.563367</ele>
        <time>2023-01-07T15:01:58.087Z</time>
      </trkpt>
      <trkpt lat="43.27" lon="3.2341">
        <ele>73.699059</ele>
        <time>2023-01-07T15:02:01.098Z</time>
      </trkpt>
      <trkpt lat="43.27001" lon="3.23423">
        <ele>73.806484</ele>
        <time>2023-01-07T15:02:04.103Z</time>
      </trkpt>
      <trkpt lat="43.27002" lon="3.23438">
        <ele>73.850663</ele>
        <time>2023-01-07T15:02:08.104Z</time>
      </trkpt>
      <trkpt lat="43.27004" lon="3.23453">
        <ele>73.851465</ele>
        <time>2023-01-07T15:02:12.088Z</time>
      </trkpt>
      <trkpt lat="43.27009" lon="3.23464">
        <ele>73.852194</ele>
        <time>2023-01-07T15:02:15.093Z</time>
      </trkpt>
      <trkpt lat="43.27019" lon="3.23473">
        <ele>73.853084</ele>
        <time>2023-01-07T15:02:18.091Z</time>
      </trkpt>
      <trkpt lat="43.27028" lon="3.23485">
        <ele>73.854034</ele>
        <time>2023-01-07T15:02:21.087Z</time>
      </trkpt>
      <trkpt lat="43.27036" lon="3.23497">
        <ele>73.854943</ele>
        <time>2023-01-07T15:02:24.099Z</time>
      </trkpt>
      <trkpt lat="43.27043" lon="3.23509">
        <ele>73.855762</ele>
        <time>2023-01-07T15:02:27.097Z</time>
      </trkpt>
      <trkpt lat="43.27047" lon="3.23521">
        <ele>73.856439</ele>
        <time>2023-01-07T15:02:30.091Z</time>
      </trkpt>
      <trkpt lat="43.2705" lon="3.23534">
        <ele>73.857167</ele>
        <time>2023-01-07T15:02:34.105Z</time>
      </trkpt>
      <trkpt lat="43.27055" lon="3.23547">
        <ele>73.857969</ele>
        <time>2023-01-07T15:02:38.096Z</time>
      </trkpt>
      <trkpt lat="43.27062" lon="3.23556">
        <ele>73.8587</ele>
        <time>2023-01-07T15:02:41.106Z</time>
      </trkpt>
      <trkpt lat="43.2707" lon="3.23567">
        <ele>73.859538</ele>
        <time>2023-01-07T15:02:44.094Z</time>
      </trkpt>
      <trkpt lat="43.2707" lon="3.23582">
        <ele>73.860367</ele>
        <time>2023-01-07T15:02:47.091Z</time>
      </trkpt>
      <trkpt lat="43.27067" lon="3.23597">
        <ele>73.861213</ele>
        <time>2023-01-07T15:02:50.101Z</time>
      </trkpt>
      <trkpt lat="43.27063" lon="3.23613">
        <ele>73.862115</ele>
        <time>2023-01-07T15:02:53.095Z</time>
      </trkpt>
      <trkpt lat="43.27058" lon="3.23626">
        <ele>73.862952</ele>
        <time>2023-01-07T15:02:56.081Z</time>
      </trkpt>
      <trkpt lat="43.2705" lon="3.23634">
        <ele>73.821966</ele>
        <time>2023-01-07T15:02:59.091Z</time>
      </trkpt>
      <trkpt lat="43.27043" lon="3.23642">
        <ele>73.627353</ele>
        <time>2023-01-07T15:03:03.106Z</time>
      </trkpt>
      <trkpt lat="43.27042" lon="3.23655">
        <ele>73.432937</ele>
        <time>2023-01-07T15:03:06.107Z</time>
      </trkpt>
      <trkpt lat="43.27042" lon="3.23668">
        <ele>73.225051</ele>
        <time>2023-01-07T15:03:09.090Z</time>
      </trkpt>
      <trkpt lat="43.27043" lon="3.23685">
        <ele>72.966861</ele>
        <time>2023-01-07T15:03:12.099Z</time>
      </trkpt>
      <trkpt lat="43.27042" lon="3.23701">
        <ele>72.70641</ele>
        <time>2023-01-07T15:03:15.097Z</time>
      </trkpt>
      <trkpt lat="43.27039" lon="3.23717">
        <ele>72.456469</ele>
        <time>2023-01-07T15:03:18.103Z</time>
      </trkpt>
      <trkpt lat="43.27035" lon="3.23732">
        <ele>72.211153</ele>
        <time>2023-01-07T15:03:21.104Z</time>
      </trkpt>
      <trkpt lat="43.27031" lon="3.23748">
        <ele>71.954913</ele>
        <time>2023-01-07T15:03:24.092Z</time>
      </trkpt>
      <trkpt lat="43.27028" lon="3.23764">
        <ele>71.689229</ele>
        <time>2023-01-07T15:03:27.091Z</time>
      </trkpt>
      <trkpt lat="43.27025" lon="3.23782">
        <ele>71.409672</ele>
        <time>2023-01-07T15:03:30.097Z</time>
      </trkpt>
      <trkpt lat="43.27022" lon="3.23794">
        <ele>71.214418</ele>
        <time>2023-01-07T15:03:32.094Z</time>
      </trkpt>
      <trkpt lat="43.27022" lon="3.23812">
        <ele>70.932363</ele>
        <time>2023-01-07T15:03:35.099Z</time>
      </trkpt>
      <trkpt lat="43.27022" lon="3.2383">
        <ele>70.6518</ele>
        <time>2023-01-07T15:03:38.093Z</time>
      </trkpt>
      <trkpt lat="43.27023" lon="3.23843">
        <ele>70.445724</ele>
        <time>2023-01-07T15:03:40.092Z</time>
      </trkpt>
      <trkpt lat="43.27025" lon="3.2386">
        <ele>70.175069</ele>
        <time>2023-01-07T15:03:43.101Z</time>
      </trkpt>
      <trkpt lat="43.27029" lon="3.23876">
        <ele>70.137008</ele>
        <time>2023-01-07T15:03:46.105Z</time>
      </trkpt>
      <trkpt lat="43.27031" lon="3.23892">
        <ele>70.356725</ele>
        <time>2023-01-07T15:03:49.107Z</time>
      </trkpt>
      <trkpt lat="43.27033" lon="3.23908">
        <ele>70.572248</ele>
        <time>2023-01-07T15:03:52.096Z</time>
      </trkpt>
      <trkpt lat="43.27036" lon="3.23923">
        <ele>70.780742</ele>
        <time>2023-01-07T15:03:55.091Z</time>
      </trkpt>
      <trkpt lat="43.27039" lon="3.23937">
        <ele>70.987433</ele>
        <time>2023-01-07T15:03:58.095Z</time>
      </trkpt>
      <trkpt lat="43.27042" lon="3.23952">
        <ele>71.204341</ele>
        <time>2023-01-07T15:04:01.105Z</time>
      </trkpt>
      <trkpt lat="43.27044" lon="3.23969">
        <ele>71.430398</ele>
        <time>2023-01-07T15:04:04.095Z</time>
      </trkpt>
      <trkpt lat="43.27046" lon="3.23986">
        <ele>71.664451</ele>
        <time>2023-01-07T15:04:07.095Z</time>
      </trkpt>
      <trkpt lat="43.27047" lon="3.24004">
        <ele>71.905959</ele>
        <time>2023-01-07T15:04:10.105Z</time>
      </trkpt>
      <trkpt lat="43.27048" lon="3.24021">
        <ele>72.14697</ele>
        <time>2023-01-07T15:04:13.095Z</time>
      </trkpt>
      <trkpt lat="43.2705" lon="3.24039">
        <ele>72.383716</ele>
        <time>2023-01-07T15:04:16.094Z</time>
      </trkpt>
      <trkpt lat="43.27053" lon="3.24056">
        <ele>72.624306</ele>
        <time>2023-01-07T15:04:19.110Z</time>
      </trkpt>
      <trkpt lat="43.27054" lon="3.24074">
        <ele>72.866009</ele>
        <time>2023-01-07T15:04:22.095Z</time>
      </trkpt>
      <trkpt lat="43.27056" lon="3.24092">
        <ele>73.112417</ele>
        <time>2023-01-07T15:04:25.100Z</time>
      </trkpt>
      <trkpt lat="43.27057" lon="3.24104">
        <ele>73.284108</ele>
        <time>2023-01-07T15:04:27.099Z</time>
      </trkpt>
      <trkpt lat="43.27059" lon="3.24116">
        <ele>73.339172</ele>
        <time>2023-01-07T15:04:29.089Z</time>
      </trkpt>
      <trkpt lat="43.27061" lon="3.2413">
        <ele>73.195139</ele>
        <time>2023-01-07T15:04:31.110Z</time>
      </trkpt>
      <trkpt lat="43.27061" lon="3.24143">
        <ele>73.060864</ele>
        <time>2023-01-07T15:04:33.089Z</time>
      </trkpt>
      <trkpt lat="43.27061" lon="3.24156">
        <ele>72.923441</ele>
        <time>2023-01-07T15:04:35.102Z</time>
      </trkpt>
      <trkpt lat="43.27061" lon="3.24172">
        <ele>72.744802</ele>
        <time>2023-01-07T15:04:38.091Z</time>
      </trkpt>
      <trkpt lat="43.2706" lon="3.24188">
        <ele>72.576708</ele>
        <time>2023-01-07T15:04:41.091Z</time>
      </trkpt>
      <trkpt lat="43.27059" lon="3.24206">
        <ele>72.391158</ele>
        <time>2023-01-07T15:04:44.092Z</time>
      </trkpt>
      <trkpt lat="43.27059" lon="3.24223">
        <ele>72.205716</ele>
        <time>2023-01-07T15:04:47.089Z</time>
      </trkpt>
      <trkpt lat="43.27059" lon="3.24241">
        <ele>72.01545</ele>
        <time>2023-01-07T15:04:50.090Z</time>
      </trkpt>
      <trkpt lat="43.27059" lon="3.24259">
        <ele>71.832375</ele>
        <time>2023-01-07T15:04:53.102Z</time>
      </trkpt>
      <trkpt lat="43.27058" lon="3.24275">
        <ele>71.6592</ele>
        <time>2023-01-07T15:04:56.094Z</time>
      </trkpt>
      <trkpt lat="43.27058" lon="3.24292">
        <ele>71.480507</ele>
        <time>2023-01-07T15:04:59.110Z</time>
      </trkpt>
      <trkpt lat="43.27057" lon="3.24308">
        <ele>71.307129</ele>
        <time>2023-01-07T15:05:02.097Z</time>
      </trkpt>
      <trkpt lat="43.27058" lon="3.24325">
        <ele>71.131637</ele>
        <time>2023-01-07T15:05:05.091Z</time>
      </trkpt>
      <trkpt lat="43.27058" lon="3.24342">
        <ele>70.954049</ele>
        <time>2023-01-07T15:05:08.089Z</time>
      </trkpt>
      <trkpt lat="43.27058" lon="3.24359">
        <ele>70.777671</ele>
        <time>2023-01-07T15:05:11.096Z</time>
      </trkpt>
      <trkpt lat="43.27058" lon="3.24375">
        <ele>70.724859</ele>
        <time>2023-01-07T15:05:14.096Z</time>
      </trkpt>
      <trkpt lat="43.27058" lon="3.24393">
        <ele>70.670167</ele>
        <time>2023-01-07T15:05:17.101Z</time>
      </trkpt>
      <trkpt lat="43.27059" lon="3.2441">
        <ele>70.615144</ele>
        <time>2023-01-07T15:05:20.102Z</time>
      </trkpt>
      <trkpt lat="43.2706" lon="3.24427">
        <ele>70.560309</ele>
        <time>2023-01-07T15:05:23.092Z</time>
      </trkpt>
      <trkpt lat="43.27061" lon="3.24445">
        <ele>70.50504</ele>
        <time>2023-01-07T15:05:26.101Z</time>
      </trkpt>
      <trkpt lat="43.27063" lon="3.24462">
        <ele>70.448996</ele>
        <time>2023-01-07T15:05:29.108Z</time>
      </trkpt>
      <trkpt lat="43.27064" lon="3.2448">
        <ele>70.392063</ele>
        <time>2023-01-07T15:05:32.114Z</time>
      </trkpt>
      <trkpt lat="43.27066" lon="3.24497">
        <ele>70.338005</ele>
        <time>2023-01-07T15:05:35.104Z</time>
      </trkpt>
      <trkpt lat="43.27067" lon="3.24514">
        <ele>70.283784</ele>
        <time>2023-01-07T15:05:38.107Z</time>
      </trkpt>
      <trkpt lat="43.27071" lon="3.2453">
        <ele>70.23039</ele>
        <time>2023-01-07T15:05:41.104Z</time>
      </trkpt>
      <trkpt lat="43.27074" lon="3.24548">
        <ele>70.173482</ele>
        <time>2023-01-07T15:05:44.095Z</time>
      </trkpt>
      <trkpt lat="43.27076" lon="3.24565">
        <ele>70.117383</ele>
        <time>2023-01-07T15:05:47.094Z</time>
      </trkpt>
      <trkpt lat="43.27076" lon="3.24583">
        <ele>70.063335</ele>
        <time>2023-01-07T15:05:50.097Z</time>
      </trkpt>
      <trkpt lat="43.27077" lon="3.246">
        <ele>70.007956</ele>
        <time>2023-01-07T15:05:53.093Z</time>
      </trkpt>
      <trkpt lat="43.27077" lon="3.24617">
        <ele>69.865746</ele>
        <time>2023-01-07T15:05:56.099Z</time>
      </trkpt>
      <trkpt lat="43.27077" lon="3.24635">
        <ele>69.694785</ele>
        <time>2023-01-07T15:05:59.106Z</time>
      </trkpt>
      <trkpt lat="43.27077" lon="3.24653">
        <ele>69.520903</ele>
        <time>2023-01-07T15:06:02.100Z</time>
      </trkpt>
      <trkpt lat="43.27077" lon="3.24671">
        <ele>69.349947</ele>
        <time>2023-01-07T15:06:05.110Z</time>
      </trkpt>
      <trkpt lat="43.27076" lon="3.24687">
        <ele>69.190379</ele>
        <time>2023-01-07T15:06:08.102Z</time>
      </trkpt>
      <trkpt lat="43.27076" lon="3.24703">
        <ele>69.041513</ele>
        <time>2023-01-07T15:06:11.095Z</time>
      </trkpt>
      <trkpt lat="43.27076" lon="3.24716">
        <ele>68.917365</ele>
        <time>2023-01-07T15:06:14.099Z</time>
      </trkpt>
      <trkpt lat="43.27075" lon="3.24729">
        <ele>68.784721</ele>
        <time>2023-01-07T15:06:17.098Z</time>
      </trkpt>
      <trkpt lat="43.27075" lon="3.24744">
        <ele>68.644344</ele>
        <time>2023-01-07T15:06:20.106Z</time>
      </trkpt>
      <trkpt lat="43.27075" lon="3.24758">
        <ele>68.508821</ele>
        <time>2023-01-07T15:06:23.097Z</time>
      </trkpt>
      <trkpt lat="43.27075" lon="3.24773">
        <ele>68.367638</ele>
        <time>2023-01-07T15:06:26.091Z</time>
      </trkpt>
      <trkpt lat="43.27076" lon="3.24789">
        <ele>68.213766</ele>
        <time>2023-01-07T15:06:29.094Z</time>
      </trkpt>
      <trkpt lat="43.27075" lon="3.24805">
        <ele>68.059821</ele>
        <time>2023-01-07T15:06:32.101Z</time>
      </trkpt>
      <trkpt lat="43.27075" lon="3.24822">
        <ele>67.897423</ele>
        <time>2023-01-07T15:06:35.096Z</time>
      </trkpt>
      <trkpt lat="43.27075" lon="3.24834">
        <ele>67.77615</ele>
        <time>2023-01-07T15:06:37.088Z</time>
      </trkpt>
      <trkpt lat="43.27075" lon="3.24847">
        <ele>67.655108</ele>
        <time>2023-01-07T15:06:39.092Z</time>
      </trkpt>
      <trkpt lat="43.27075" lon="3.2486">
        <ele>67.355688</ele>
        <time>2023-01-07T15:06:41.088Z</time>
      </trkpt>
      <trkpt lat="43.27075" lon="3.24878">
        <ele>66.888533</ele>
        <time>2023-01-07T15:06:44.101Z</time>
      </trkpt>
      <trkpt lat="43.27075" lon="3.24891">
        <ele>66.553071</ele>
        <time>2023-01-07T15:06:46.105Z</time>
      </trkpt>
      <trkpt lat="43.27076" lon="3.24904">
        <ele>66.209316</ele>
        <time>2023-01-07T15:06:48.096Z</time>
      </trkpt>
      <trkpt lat="43.27076" lon="3.24923">
        <ele>65.707859</ele>
        <time>2023-01-07T15:06:51.093Z</time>
      </trkpt>
      <trkpt lat="43.27076" lon="3.24935">
        <ele>65.375348</ele>
        <time>2023-01-07T15:06:53.102Z</time>
      </trkpt>
      <trkpt lat="43.27076" lon="3.24948">
        <ele>65.04266</ele>
        <time>2023-01-07T15:06:55.105Z</time>
      </trkpt>
      <trkpt lat="43.27076" lon="3.24961">
        <ele>64.699517</ele>
        <time>2023-01-07T15:06:57.097Z</time>
      </trkpt>
      <trkpt lat="43.27077" lon="3.24973">
        <ele>64.371003</ele>
        <time>2023-01-07T15:06:59.102Z</time>
      </trkpt>
      <trkpt lat="43.27077" lon="3.24987">
        <ele>64.017362</ele>
        <time>2023-01-07T15:07:01.104Z</time>
      </trkpt>
      <trkpt lat="43.27077" lon="3.25001">
        <ele>63.634711</ele>
        <time>2023-01-07T15:07:03.099Z</time>
      </trkpt>
      <trkpt lat="43.27077" lon="3.25015">
        <ele>63.273099</ele>
        <time>2023-01-07T15:07:05.101Z</time>
      </trkpt>
      <trkpt lat="43.27077" lon="3.2503">
        <ele>62.88238</ele>
        <time>2023-01-07T15:07:07.102Z</time>
      </trkpt>
      <trkpt lat="43.27078" lon="3.25043">
        <ele>62.522001</ele>
        <time>2023-01-07T15:07:09.105Z</time>
      </trkpt>
      <trkpt lat="43.27078" lon="3.25059">
        <ele>62.107429</ele>
        <time>2023-01-07T15:07:11.098Z</time>
      </trkpt>
      <trkpt lat="43.27077" lon="3.25073">
        <ele>61.740164</ele>
        <time>2023-01-07T15:07:13.103Z</time>
      </trkpt>
      <trkpt lat="43.27077" lon="3.25087">
        <ele>61.378462</ele>
        <time>2023-01-07T15:07:15.098Z</time>
      </trkpt>
      <trkpt lat="43.27076" lon="3.25101">
        <ele>61.083396</ele>
        <time>2023-01-07T15:07:17.092Z</time>
      </trkpt>
      <trkpt lat="43.27076" lon="3.25115">
        <ele>61.005985</ele>
        <time>2023-01-07T15:07:19.094Z</time>
      </trkpt>
      <trkpt lat="43.27076" lon="3.25129">
        <ele>60.931953</ele>
        <time>2023-01-07T15:07:21.093Z</time>
      </trkpt>
      <trkpt lat="43.27075" lon="3.25142">
        <ele>60.858781</ele>
        <time>2023-01-07T15:07:23.099Z</time>
      </trkpt>
      <trkpt lat="43.27075" lon="3.25155">
        <ele>60.786938</ele>
        <time>2023-01-07T15:07:25.089Z</time>
      </trkpt>
      <trkpt lat="43.27076" lon="3.25169">
        <ele>60.715036</ele>
        <time>2023-01-07T15:07:27.098Z</time>
      </trkpt>
      <trkpt lat="43.27075" lon="3.25182">
        <ele>60.642556</ele>
        <time>2023-01-07T15:07:29.108Z</time>
      </trkpt>
      <trkpt lat="43.27076" lon="3.25196">
        <ele>60.564601</ele>
        <time>2023-01-07T15:07:31.100Z</time>
      </trkpt>
      <trkpt lat="43.27076" lon="3.2521">
        <ele>60.490037</ele>
        <time>2023-01-07T15:07:33.091Z</time>
      </trkpt>
      <trkpt lat="43.27077" lon="3.25223">
        <ele>60.418967</ele>
        <time>2023-01-07T15:07:35.092Z</time>
      </trkpt>
      <trkpt lat="43.27077" lon="3.25237">
        <ele>60.341653</ele>
        <time>2023-01-07T15:07:37.089Z</time>
      </trkpt>
      <trkpt lat="43.27077" lon="3.25251">
        <ele>60.264912</ele>
        <time>2023-01-07T15:07:39.104Z</time>
      </trkpt>
      <trkpt lat="43.27077" lon="3.25265">
        <ele>60.191984</ele>
        <time>2023-01-07T15:07:41.090Z</time>
      </trkpt>
      <trkpt lat="43.27078" lon="3.25279">
        <ele>60.112353</ele>
        <time>2023-01-07T15:07:43.108Z</time>
      </trkpt>
      <trkpt lat="43.27077" lon="3.25293">
        <ele>60.035558</ele>
        <time>2023-01-07T15:07:45.105Z</time>
      </trkpt>
      <trkpt lat="43.27078" lon="3.25307">
        <ele>59.961447</ele>
        <time>2023-01-07T15:07:47.090Z</time>
      </trkpt>
      <trkpt lat="43.27078" lon="3.2532">
        <ele>59.892329</ele>
        <time>2023-01-07T15:07:49.097Z</time>
      </trkpt>
      <trkpt lat="43.27078" lon="3.25332">
        <ele>59.823013</ele>
        <time>2023-01-07T15:07:51.101Z</time>
      </trkpt>
      <trkpt lat="43.27079" lon="3.25348">
        <ele>59.766994</ele>
        <time>2023-01-07T15:07:53.101Z</time>
      </trkpt>
      <trkpt lat="43.27079" lon="3.25361">
        <ele>59.782329</ele>
        <time>2023-01-07T15:07:55.090Z</time>
      </trkpt>
      <trkpt lat="43.2708" lon="3.25375">
        <ele>59.797853</ele>
        <time>2023-01-07T15:07:57.098Z</time>
      </trkpt>
      <trkpt lat="43.27079" lon="3.25389">
        <ele>59.814149</ele>
        <time>2023-01-07T15:07:59.106Z</time>
      </trkpt>
      <trkpt lat="43.2708" lon="3.25403">
        <ele>59.829608</ele>
        <time>2023-01-07T15:08:01.090Z</time>
      </trkpt>
      <trkpt lat="43.2708" lon="3.25416">
        <ele>59.843948</ele>
        <time>2023-01-07T15:08:03.100Z</time>
      </trkpt>
      <trkpt lat="43.2708" lon="3.25429">
        <ele>59.85906</ele>
        <time>2023-01-07T15:08:05.100Z</time>
      </trkpt>
      <trkpt lat="43.27081" lon="3.25442">
        <ele>59.874085</ele>
        <time>2023-01-07T15:08:07.104Z</time>
      </trkpt>
      <trkpt lat="43.27081" lon="3.25456">
        <ele>59.889313</ele>
        <time>2023-01-07T15:08:09.083Z</time>
      </trkpt>
      <trkpt lat="43.27081" lon="3.25468">
        <ele>59.90341</ele>
        <time>2023-01-07T15:08:11.108Z</time>
      </trkpt>
      <trkpt lat="43.27081" lon="3.25482">
        <ele>59.918747</ele>
        <time>2023-01-07T15:08:13.090Z</time>
      </trkpt>
      <trkpt lat="43.27082" lon="3.25495">
        <ele>59.933471</ele>
        <time>2023-01-07T15:08:15.098Z</time>
      </trkpt>
      <trkpt lat="43.27082" lon="3.25509">
        <ele>59.949518</ele>
        <time>2023-01-07T15:08:17.094Z</time>
      </trkpt>
      <trkpt lat="43.27083" lon="3.25524">
        <ele>59.965757</ele>
        <time>2023-01-07T15:08:19.102Z</time>
      </trkpt>
      <trkpt lat="43.27083" lon="3.25536">
        <ele>59.98009</ele>
        <time>2023-01-07T15:08:21.098Z</time>
      </trkpt>
      <trkpt lat="43.27084" lon="3.25549">
        <ele>59.994141</ele>
        <time>2023-01-07T15:08:23.111Z</time>
      </trkpt>
      <trkpt lat="43.27084" lon="3.25563">
        <ele>60.010276</ele>
        <time>2023-01-07T15:08:25.104Z</time>
      </trkpt>
      <trkpt lat="43.27086" lon="3.25576">
        <ele>60.024808</ele>
        <time>2023-01-07T15:08:27.097Z</time>
      </trkpt>
      <trkpt lat="43.27088" lon="3.25594">
        <ele>60.044296</ele>
        <time>2023-01-07T15:08:30.094Z</time>
      </trkpt>
      <trkpt lat="43.27091" lon="3.2561">
        <ele>60.058309</ele>
        <time>2023-01-07T15:08:33.097Z</time>
      </trkpt>
      <trkpt lat="43.27094" lon="3.25625">
        <ele>60.070905</ele>
        <time>2023-01-07T15:08:36.093Z</time>
      </trkpt>
      <trkpt lat="43.27096" lon="3.25641">
        <ele>60.084303</ele>
        <time>2023-01-07T15:08:39.096Z</time>
      </trkpt>
      <trkpt lat="43.27099" lon="3.25658">
        <ele>60.098544</ele>
        <time>2023-01-07T15:08:42.099Z</time>
      </trkpt>
      <trkpt lat="43.27102" lon="3.25674">
        <ele>60.112507</ele>
        <time>2023-01-07T15:08:45.105Z</time>
      </trkpt>
      <trkpt lat="43.27106" lon="3.25691">
        <ele>60.127627</ele>
        <time>2023-01-07T15:08:48.106Z</time>
      </trkpt>
      <trkpt lat="43.2711" lon="3.25709">
        <ele>60.143096</ele>
        <time>2023-01-07T15:08:51.097Z</time>
      </trkpt>
      <trkpt lat="43.27113" lon="3.25726">
        <ele>60.157264</ele>
        <time>2023-01-07T15:08:54.099Z</time>
      </trkpt>
      <trkpt lat="43.27118" lon="3.25744">
        <ele>60.172808</ele>
        <time>2023-01-07T15:08:57.100Z</time>
      </trkpt>
      <trkpt lat="43.27121" lon="3.25757">
        <ele>60.184338</ele>
        <time>2023-01-07T15:08:59.088Z</time>
      </trkpt>
      <trkpt lat="43.27123" lon="3.2577">
        <ele>60.19549</ele>
        <time>2023-01-07T15:09:01.099Z</time>
      </trkpt>
      <trkpt lat="43.27127" lon="3.25788">
        <ele>60.210706</ele>
        <time>2023-01-07T15:09:04.098Z</time>
      </trkpt>
      <trkpt lat="43.27129" lon="3.258">
        <ele>60.221129</ele>
        <time>2023-01-07T15:09:06.101Z</time>
      </trkpt>
      <trkpt lat="43.27133" lon="3.25818">
        <ele>60.236458</ele>
        <time>2023-01-07T15:09:09.090Z</time>
      </trkpt>
      <trkpt lat="43.27136" lon="3.25829">
        <ele>60.249736</ele>
        <time>2023-01-07T15:09:11.086Z</time>
      </trkpt>
      <trkpt lat="43.2714" lon="3.25841">
        <ele>60.27847</ele>
        <time>2023-01-07T15:09:13.090Z</time>
      </trkpt>
      <trkpt lat="43.27146" lon="3.25857">
        <ele>60.318842</ele>
        <time>2023-01-07T15:09:16.090Z</time>
      </trkpt>
      <trkpt lat="43.27151" lon="3.25873">
        <ele>60.357572</ele>
        <time>2023-01-07T15:09:19.105Z</time>
      </trkpt>
      <trkpt lat="43.27156" lon="3.25888">
        <ele>60.396997</ele>
        <time>2023-01-07T15:09:22.105Z</time>
      </trkpt>
      <trkpt lat="43.27162" lon="3.25904">
        <ele>60.436969</ele>
        <time>2023-01-07T15:09:25.090Z</time>
      </trkpt>
      <trkpt lat="43.27166" lon="3.25916">
        <ele>60.466158</ele>
        <time>2023-01-07T15:09:27.176Z</time>
      </trkpt>
      <trkpt lat="43.27171" lon="3.25932">
        <ele>60.507495</ele>
        <time>2023-01-07T15:09:30.093Z</time>
      </trkpt>
      <trkpt lat="43.27175" lon="3.25947">
        <ele>60.543633</ele>
        <time>2023-01-07T15:09:33.091Z</time>
      </trkpt>
      <trkpt lat="43.2718" lon="3.25962">
        <ele>60.579873</ele>
        <time>2023-01-07T15:09:36.101Z</time>
      </trkpt>
      <trkpt lat="43.27186" lon="3.25975">
        <ele>60.614009</ele>
        <time>2023-01-07T15:09:39.090Z</time>
      </trkpt>
      <trkpt lat="43.27192" lon="3.2599">
        <ele>60.651833</ele>
        <time>2023-01-07T15:09:42.096Z</time>
      </trkpt>
      <trkpt lat="43.27198" lon="3.26004">
        <ele>60.690055</ele>
        <time>2023-01-07T15:09:45.100Z</time>
      </trkpt>
      <trkpt lat="43.27205" lon="3.26014">
        <ele>60.721527</ele>
        <time>2023-01-07T15:09:48.093Z</time>
      </trkpt>
      <trkpt lat="43.27214" lon="3.26022">
        <ele>60.754185</ele>
        <time>2023-01-07T15:09:52.096Z</time>
      </trkpt>
      <trkpt lat="43.27219" lon="3.26034">
        <ele>60.785856</ele>
        <time>2023-01-07T15:09:56.100Z</time>
      </trkpt>
      <trkpt lat="43.27219" lon="3.26048">
        <ele>60.78454</ele>
        <time>2023-01-07T15:09:59.105Z</time>
      </trkpt>
      <trkpt lat="43.27221" lon="3.26063">
        <ele>60.734332</ele>
        <time>2023-01-07T15:10:02.099Z</time>
      </trkpt>
      <trkpt lat="43.27225" lon="3.26077">
        <ele>60.683834</ele>
        <time>2023-01-07T15:10:05.095Z</time>
      </trkpt>
      <trkpt lat="43.2723" lon="3.26091">
        <ele>60.633099</ele>
        <time>2023-01-07T15:10:08.105Z</time>
      </trkpt>
      <trkpt lat="43.27235" lon="3.26104">
        <ele>60.583648</ele>
        <time>2023-01-07T15:10:11.112Z</time>
      </trkpt>
      <trkpt lat="43.27241" lon="3.26117">
        <ele>60.531726</ele>
        <time>2023-01-07T15:10:14.098Z</time>
      </trkpt>
      <trkpt lat="43.27246" lon="3.26131">
        <ele>60.480091</ele>
        <time>2023-01-07T15:10:17.091Z</time>
      </trkpt>
      <trkpt lat="43.27252" lon="3.26144">
        <ele>60.429715</ele>
        <time>2023-01-07T15:10:20.090Z</time>
      </trkpt>
      <trkpt lat="43.27257" lon="3.26157">
        <ele>60.378757</ele>
        <time>2023-01-07T15:10:23.093Z</time>
      </trkpt>
      <trkpt lat="43.27263" lon="3.2617">
        <ele>60.328107</ele>
        <time>2023-01-07T15:10:26.097Z</time>
      </trkpt>
      <trkpt lat="43.2727" lon="3.26183">
        <ele>60.274291</ele>
        <time>2023-01-07T15:10:29.095Z</time>
      </trkpt>
      <trkpt lat="43.27279" lon="3.26195">
        <ele>60.219222</ele>
        <time>2023-01-07T15:10:32.095Z</time>
      </trkpt>
      <trkpt lat="43.27288" lon="3.26207">
        <ele>60.163022</ele>
        <time>2023-01-07T15:10:35.096Z</time>
      </trkpt>
      <trkpt lat="43.27297" lon="3.26217">
        <ele>60.108219</ele>
        <time>2023-01-07T15:10:38.102Z</time>
      </trkpt>
      <trkpt lat="43.27306" lon="3.26226">
        <ele>60.056752</ele>
        <time>2023-01-07T15:10:41.089Z</time>
      </trkpt>
      <trkpt lat="43.27315" lon="3.26235">
        <ele>60.006649</ele>
        <time>2023-01-07T15:10:44.095Z</time>
      </trkpt>
      <trkpt lat="43.27325" lon="3.26244">
        <ele>60.123803</ele>
        <time>2023-01-07T15:10:47.096Z</time>
      </trkpt>
      <trkpt lat="43.27335" lon="3.26253">
        <ele>60.412252</ele>
        <time>2023-01-07T15:10:50.088Z</time>
      </trkpt>
      <trkpt lat="43.27347" lon="3.26261">
        <ele>60.703262</ele>
        <time>2023-01-07T15:10:53.102Z</time>
      </trkpt>
      <trkpt lat="43.27358" lon="3.26269">
        <ele>60.991763</ele>
        <time>2023-01-07T15:10:56.093Z</time>
      </trkpt>
      <trkpt lat="43.27369" lon="3.26276">
        <ele>61.271207</ele>
        <time>2023-01-07T15:10:59.101Z</time>
      </trkpt>
      <trkpt lat="43.27381" lon="3.26284">
        <ele>61.566555</ele>
        <time>2023-01-07T15:11:02.101Z</time>
      </trkpt>
      <trkpt lat="43.27392" lon="3.26292">
        <ele>61.852025</ele>
        <time>2023-01-07T15:11:05.109Z</time>
      </trkpt>
      <trkpt lat="43.27402" lon="3.26303">
        <ele>62.133913</ele>
        <time>2023-01-07T15:11:08.103Z</time>
      </trkpt>
      <trkpt lat="43.27412" lon="3.26314">
        <ele>62.430102</ele>
        <time>2023-01-07T15:11:11.109Z</time>
      </trkpt>
      <trkpt lat="43.27421" lon="3.26327">
        <ele>62.723547</ele>
        <time>2023-01-07T15:11:14.097Z</time>
      </trkpt>
      <trkpt lat="43.2743" lon="3.26338">
        <ele>63.011073</ele>
        <time>2023-01-07T15:11:17.095Z</time>
      </trkpt>
      <trkpt lat="43.2744" lon="3.26351">
        <ele>63.313291</ele>
        <time>2023-01-07T15:11:20.099Z</time>
      </trkpt>
      <trkpt lat="43.27449" lon="3.26364">
        <ele>63.607174</ele>
        <time>2023-01-07T15:11:23.100Z</time>
      </trkpt>
      <trkpt lat="43.27459" lon="3.26376">
        <ele>63.905318</ele>
        <time>2023-01-07T15:11:26.096Z</time>
      </trkpt>
      <trkpt lat="43.27468" lon="3.26389">
        <ele>64.030249</ele>
        <time>2023-01-07T15:11:29.086Z</time>
      </trkpt>
      <trkpt lat="43.27476" lon="3.264">
        <ele>63.957765</ele>
        <time>2023-01-07T15:11:32.099Z</time>
      </trkpt>
      <trkpt lat="43.27484" lon="3.26411">
        <ele>63.890116</ele>
        <time>2023-01-07T15:11:35.112Z</time>
      </trkpt>
      <trkpt lat="43.27491" lon="3.26423">
        <ele>63.826602</ele>
        <time>2023-01-07T15:11:38.105Z</time>
      </trkpt>
      <trkpt lat="43.27498" lon="3.26435">
        <ele>63.758938</ele>
        <time>2023-01-07T15:11:41.100Z</time>
      </trkpt>
      <trkpt lat="43.27504" lon="3.26449">
        <ele>63.686751</ele>
        <time>2023-01-07T15:11:44.105Z</time>
      </trkpt>
      <trkpt lat="43.27509" lon="3.26466">
        <ele>63.606511</ele>
        <time>2023-01-07T15:11:47.088Z</time>
      </trkpt>
      <trkpt lat="43.27512" lon="3.26478">
        <ele>63.550763</ele>
        <time>2023-01-07T15:11:49.101Z</time>
      </trkpt>
      <trkpt lat="43.27515" lon="3.26491">
        <ele>63.489305</ele>
        <time>2023-01-07T15:11:51.110Z</time>
      </trkpt>
      <trkpt lat="43.27517" lon="3.26509">
        <ele>63.410449</ele>
        <time>2023-01-07T15:11:54.088Z</time>
      </trkpt>
      <trkpt lat="43.27518" lon="3.26522">
        <ele>63.353076</ele>
        <time>2023-01-07T15:11:56.090Z</time>
      </trkpt>
      <trkpt lat="43.27518" lon="3.26539">
        <ele>63.279074</ele>
        <time>2023-01-07T15:11:59.088Z</time>
      </trkpt>
      <trkpt lat="43.27518" lon="3.26556">
        <ele>63.204962</ele>
        <time>2023-01-07T15:12:02.094Z</time>
      </trkpt>
      <trkpt lat="43.27516" lon="3.26571">
        <ele>63.139105</ele>
        <time>2023-01-07T15:12:05.090Z</time>
      </trkpt>
      <trkpt lat="43.27514" lon="3.26585">
        <ele>63.074257</ele>
        <time>2023-01-07T15:12:08.110Z</time>
      </trkpt>
      <trkpt lat="43.27513" lon="3.26601">
        <ele>63.00464</ele>
        <time>2023-01-07T15:12:11.092Z</time>
      </trkpt>
      <trkpt lat="43.27511" lon="3.26617">
        <ele>62.810095</ele>
        <time>2023-01-07T15:12:14.111Z</time>
      </trkpt>
      <trkpt lat="43.2751" lon="3.26633">
        <ele>62.576067</ele>
        <time>2023-01-07T15:12:17.098Z</time>
      </trkpt>
      <trkpt lat="43.27508" lon="3.26648">
        <ele>62.346764</ele>
        <time>2023-01-07T15:12:20.099Z</time>
      </trkpt>
      <trkpt lat="43.27506" lon="3.26663">
        <ele>62.113467</ele>
        <time>2023-01-07T15:12:23.089Z</time>
      </trkpt>
      <trkpt lat="43.27504" lon="3.26677">
        <ele>61.899708</ele>
        <time>2023-01-07T15:12:26.096Z</time>
      </trkpt>
      <trkpt lat="43.27503" lon="3.26691">
        <ele>61.69046</ele>
        <time>2023-01-07T15:12:29.091Z</time>
      </trkpt>
      <trkpt lat="43.27501" lon="3.26703">
        <ele>61.499737</ele>
        <time>2023-01-07T15:12:32.082Z</time>
      </trkpt>
      <trkpt lat="43.27501" lon="3.26716">
        <ele>61.301279</ele>
        <time>2023-01-07T15:12:35.100Z</time>
      </trkpt>
      <trkpt lat="43.27501" lon="3.26731">
        <ele>61.087731</ele>
        <time>2023-01-07T15:12:38.088Z</time>
      </trkpt>
      <trkpt lat="43.27502" lon="3.26744">
        <ele>60.879523</ele>
        <time>2023-01-07T15:12:41.097Z</time>
      </trkpt>
      <trkpt lat="43.27502" lon="3.26759">
        <ele>60.656343</ele>
        <time>2023-01-07T15:12:45.112Z</time>
      </trkpt>
      <trkpt lat="43.27505" lon="3.26772">
        <ele>60.455302</ele>
        <time>2023-01-07T15:12:50.105Z</time>
      </trkpt>
      <trkpt lat="43.27499" lon="3.26783">
        <ele>60.26212</ele>
        <time>2023-01-07T15:14:19.198Z</time>
      </trkpt>
      <trkpt lat="43.27491" lon="3.26788">
        <ele>60.066887</ele>
        <time>2023-01-07T15:14:24.106Z</time>
      </trkpt>
      <trkpt lat="43.27492" lon="3.26803">
        <ele>59.847011</ele>
        <time>2023-01-07T15:14:28.109Z</time>
      </trkpt>
      <trkpt lat="43.27496" lon="3.26816">
        <ele>59.64045</ele>
        <time>2023-01-07T15:14:31.087Z</time>
      </trkpt>
      <trkpt lat="43.275" lon="3.26832">
        <ele>59.3804</ele>
        <time>2023-01-07T15:14:34.102Z</time>
      </trkpt>
      <trkpt lat="43.27509" lon="3.26837">
        <ele>59.053834</ele>
        <time>2023-01-07T15:14:35.102Z</time>
      </trkpt>
      <trkpt lat="43.27514" lon="3.26849">
        <ele>58.583274</ele>
        <time>2023-01-07T15:14:37.105Z</time>
      </trkpt>
      <trkpt lat="43.27519" lon="3.2686">
        <ele>58.120496</ele>
        <time>2023-01-07T15:14:39.107Z</time>
      </trkpt>
      <trkpt lat="43.27525" lon="3.2687">
        <ele>57.65209</ele>
        <time>2023-01-07T15:14:41.101Z</time>
      </trkpt>
      <trkpt lat="43.27531" lon="3.26881">
        <ele>57.16937</ele>
        <time>2023-01-07T15:14:43.097Z</time>
      </trkpt>
      <trkpt lat="43.27536" lon="3.26892">
        <ele>56.712208</ele>
        <time>2023-01-07T15:14:45.111Z</time>
      </trkpt>
      <trkpt lat="43.27542" lon="3.26904">
        <ele>56.212194</ele>
        <time>2023-01-07T15:14:47.105Z</time>
      </trkpt>
      <trkpt lat="43.27548" lon="3.26916">
        <ele>55.680348</ele>
        <time>2023-01-07T15:14:49.103Z</time>
      </trkpt>
      <trkpt lat="43.27554" lon="3.26931">
        <ele>55.107543</ele>
        <time>2023-01-07T15:14:51.093Z</time>
      </trkpt>
      <trkpt lat="43.27559" lon="3.26943">
        <ele>54.585546</ele>
        <time>2023-01-07T15:14:53.110Z</time>
      </trkpt>
      <trkpt lat="43.27565" lon="3.26956">
        <ele>54.054414</ele>
        <time>2023-01-07T15:14:55.100Z</time>
      </trkpt>
      <trkpt lat="43.2757" lon="3.26968">
        <ele>53.574257</ele>
        <time>2023-01-07T15:14:57.085Z</time>
      </trkpt>
      <trkpt lat="43.27576" lon="3.26983">
        <ele>52.952342</ele>
        <time>2023-01-07T15:15:00.089Z</time>
      </trkpt>
      <trkpt lat="43.27583" lon="3.26997">
        <ele>52.381019</ele>
        <time>2023-01-07T15:15:03.101Z</time>
      </trkpt>
      <trkpt lat="43.27588" lon="3.27007">
        <ele>51.938076</ele>
        <time>2023-01-07T15:15:05.115Z</time>
      </trkpt>
      <trkpt lat="43.27594" lon="3.27017">
        <ele>51.465571</ele>
        <time>2023-01-07T15:15:07.102Z</time>
      </trkpt>
      <trkpt lat="43.27601" lon="3.27028">
        <ele>50.962372</ele>
        <time>2023-01-07T15:15:09.092Z</time>
      </trkpt>
      <trkpt lat="43.27609" lon="3.27037">
        <ele>50.515571</ele>
        <time>2023-01-07T15:15:11.098Z</time>
      </trkpt>
      <trkpt lat="43.27618" lon="3.27044">
        <ele>50.362641</ele>
        <time>2023-01-07T15:15:13.088Z</time>
      </trkpt>
      <trkpt lat="43.27626" lon="3.27051">
        <ele>50.227642</ele>
        <time>2023-01-07T15:15:15.094Z</time>
      </trkpt>
      <trkpt lat="43.27634" lon="3.27057">
        <ele>50.091677</ele>
        <time>2023-01-07T15:15:17.101Z</time>
      </trkpt>
      <trkpt lat="43.27646" lon="3.27064">
        <ele>49.904157</ele>
        <time>2023-01-07T15:15:20.104Z</time>
      </trkpt>
      <trkpt lat="43.27657" lon="3.27069">
        <ele>49.728728</ele>
        <time>2023-01-07T15:15:23.086Z</time>
      </trkpt>
      <trkpt lat="43.27668" lon="3.27073">
        <ele>49.56047</ele>
        <time>2023-01-07T15:15:26.105Z</time>
      </trkpt>
      <trkpt lat="43.27679" lon="3.27079">
        <ele>49.393782</ele>
        <time>2023-01-07T15:15:29.108Z</time>
      </trkpt>
      <trkpt lat="43.27689" lon="3.27082">
        <ele>49.240539</ele>
        <time>2023-01-07T15:15:32.108Z</time>
      </trkpt>
      <trkpt lat="43.27697" lon="3.27086">
        <ele>49.108583</ele>
        <time>2023-01-07T15:15:35.109Z</time>
      </trkpt>
      <trkpt lat="43.27707" lon="3.27092">
        <ele>48.958945</ele>
        <time>2023-01-07T15:15:38.107Z</time>
      </trkpt>
      <trkpt lat="43.27717" lon="3.27097">
        <ele>48.79116</ele>
        <time>2023-01-07T15:15:41.125Z</time>
      </trkpt>
      <trkpt lat="43.27729" lon="3.27102">
        <ele>48.618533</ele>
        <time>2023-01-07T15:15:44.102Z</time>
      </trkpt>
      <trkpt lat="43.27739" lon="3.27106">
        <ele>48.457311</ele>
        <time>2023-01-07T15:15:47.111Z</time>
      </trkpt>
      <trkpt lat="43.27748" lon="3.27111">
        <ele>48.315905</ele>
        <time>2023-01-07T15:15:50.098Z</time>
      </trkpt>
      <trkpt lat="43.27759" lon="3.27116">
        <ele>48.154083</ele>
        <time>2023-01-07T15:15:53.114Z</time>
      </trkpt>
      <trkpt lat="43.27769" lon="3.27121">
        <ele>47.989486</ele>
        <time>2023-01-07T15:15:56.106Z</time>
      </trkpt>
      <trkpt lat="43.27779" lon="3.27126">
        <ele>47.765797</ele>
        <time>2023-01-07T15:15:59.105Z</time>
      </trkpt>
      <trkpt lat="43.2779" lon="3.2713">
        <ele>47.436571</ele>
        <time>2023-01-07T15:16:02.090Z</time>
      </trkpt>
      <trkpt lat="43.278" lon="3.27136">
        <ele>47.128338</ele>
        <time>2023-01-07T15:16:05.089Z</time>
      </trkpt>
      <trkpt lat="43.27807" lon="3.27145">
        <ele>46.835725</ele>
        <time>2023-01-07T15:16:08.097Z</time>
      </trkpt>
      <trkpt lat="43.27816" lon="3.27155">
        <ele>46.524084</ele>
        <time>2023-01-07T15:16:11.100Z</time>
      </trkpt>
      <trkpt lat="43.27822" lon="3.2717">
        <ele>46.147094</ele>
        <time>2023-01-07T15:16:14.116Z</time>
      </trkpt>
      <trkpt lat="43.27822" lon="3.27188">
        <ele>45.76435</ele>
        <time>2023-01-07T15:16:17.105Z</time>
      </trkpt>
      <trkpt lat="43.27822" lon="3.27207">
        <ele>45.381345</ele>
        <time>2023-01-07T15:16:20.104Z</time>
      </trkpt>
      <trkpt lat="43.27822" lon="3.27225">
        <ele>45.000704</ele>
        <time>2023-01-07T15:16:23.095Z</time>
      </trkpt>
      <trkpt lat="43.27821" lon="3.27243">
        <ele>44.625036</ele>
        <time>2023-01-07T15:16:26.091Z</time>
      </trkpt>
      <trkpt lat="43.27818" lon="3.27259">
        <ele>44.271447</ele>
        <time>2023-01-07T15:16:29.110Z</time>
      </trkpt>
      <trkpt lat="43.27815" lon="3.27274">
        <ele>43.944468</ele>
        <time>2023-01-07T15:16:32.110Z</time>
      </trkpt>
      <trkpt lat="43.27812" lon="3.27291">
        <ele>43.581318</ele>
        <time>2023-01-07T15:16:35.111Z</time>
      </trkpt>
      <trkpt lat="43.27809" lon="3.27309">
        <ele>43.194246</ele>
        <time>2023-01-07T15:16:38.105Z</time>
      </trkpt>
      <trkpt lat="43.2781" lon="3.27326">
        <ele>42.82805</ele>
        <time>2023-01-07T15:16:41.104Z</time>
      </trkpt>
      <trkpt lat="43.27815" lon="3.27341">
        <ele>42.735099</ele>
        <time>2023-01-07T15:16:44.090Z</time>
      </trkpt>
      <trkpt lat="43.27825" lon="3.27353">
        <ele>42.777203</ele>
        <time>2023-01-07T15:16:47.107Z</time>
      </trkpt>
      <trkpt lat="43.27836" lon="3.2736">
        <ele>42.820192</ele>
        <time>2023-01-07T15:16:50.095Z</time>
      </trkpt>
      <trkpt lat="43.27848" lon="3.27366">
        <ele>42.862172</ele>
        <time>2023-01-07T15:16:53.100Z</time>
      </trkpt>
      <trkpt lat="43.2786" lon="3.2737">
        <ele>42.903418</ele>
        <time>2023-01-07T15:16:56.110Z</time>
      </trkpt>
      <trkpt lat="43.27873" lon="3.27375">
        <ele>42.945501</ele>
        <time>2023-01-07T15:16:59.114Z</time>
      </trkpt>
      <trkpt lat="43.27884" lon="3.2738">
        <ele>42.984985</ele>
        <time>2023-01-07T15:17:02.103Z</time>
      </trkpt>
      <trkpt lat="43.27895" lon="3.27387">
        <ele>43.023554</ele>
        <time>2023-01-07T15:17:05.097Z</time>
      </trkpt>
      <trkpt lat="43.27906" lon="3.27395">
        <ele>43.065143</ele>
        <time>2023-01-07T15:17:08.092Z</time>
      </trkpt>
      <trkpt lat="43.27914" lon="3.27401">
        <ele>43.095866</ele>
        <time>2023-01-07T15:17:10.098Z</time>
      </trkpt>
      <trkpt lat="43.27922" lon="3.27407">
        <ele>43.126923</ele>
        <time>2023-01-07T15:17:12.105Z</time>
      </trkpt>
      <trkpt lat="43.2793" lon="3.27414">
        <ele>43.157118</ele>
        <time>2023-01-07T15:17:14.103Z</time>
      </trkpt>
      <trkpt lat="43.27939" lon="3.27419">
        <ele>43.188577</ele>
        <time>2023-01-07T15:17:16.114Z</time>
      </trkpt>
      <trkpt lat="43.27946" lon="3.27425">
        <ele>43.218245</ele>
        <time>2023-01-07T15:17:18.110Z</time>
      </trkpt>
      <trkpt lat="43.27959" lon="3.27436">
        <ele>43.265862</ele>
        <time>2023-01-07T15:17:21.094Z</time>
      </trkpt>
      <trkpt lat="43.27967" lon="3.27443">
        <ele>43.299255</ele>
        <time>2023-01-07T15:17:23.089Z</time>
      </trkpt>
      <trkpt lat="43.27976" lon="3.2745">
        <ele>43.227589</ele>
        <time>2023-01-07T15:17:25.115Z</time>
      </trkpt>
      <trkpt lat="43.27984" lon="3.27457">
        <ele>43.147596</ele>
        <time>2023-01-07T15:17:27.101Z</time>
      </trkpt>
      <trkpt lat="43.27992" lon="3.27463">
        <ele>43.070583</ele>
        <time>2023-01-07T15:17:29.103Z</time>
      </trkpt>
      <trkpt lat="43.28" lon="3.2747">
        <ele>42.992115</ele>
        <time>2023-01-07T15:17:31.099Z</time>
      </trkpt>
      <trkpt lat="43.28008" lon="3.27476">
        <ele>42.913646</ele>
        <time>2023-01-07T15:17:33.105Z</time>
      </trkpt>
      <trkpt lat="43.28016" lon="3.27483">
        <ele>42.832926</ele>
        <time>2023-01-07T15:17:35.100Z</time>
      </trkpt>
      <trkpt lat="43.28025" lon="3.27488">
        <ele>42.753843</ele>
        <time>2023-01-07T15:17:37.107Z</time>
      </trkpt>
      <trkpt lat="43.28037" lon="3.275">
        <ele>42.628564</ele>
        <time>2023-01-07T15:17:40.107Z</time>
      </trkpt>
      <trkpt lat="43.28049" lon="3.2751">
        <ele>42.509189</ele>
        <time>2023-01-07T15:17:43.111Z</time>
      </trkpt>
      <trkpt lat="43.28058" lon="3.27518">
        <ele>42.424529</ele>
        <time>2023-01-07T15:17:45.097Z</time>
      </trkpt>
      <trkpt lat="43.2807" lon="3.27528">
        <ele>42.301842</ele>
        <time>2023-01-07T15:17:48.113Z</time>
      </trkpt>
      <trkpt lat="43.2808" lon="3.27536">
        <ele>42.207016</ele>
        <time>2023-01-07T15:17:50.114Z</time>
      </trkpt>
      <trkpt lat="43.28088" lon="3.27543">
        <ele>42.128596</ele>
        <time>2023-01-07T15:17:52.101Z</time>
      </trkpt>
      <trkpt lat="43.28096" lon="3.2755">
        <ele>42.049946</ele>
        <time>2023-01-07T15:17:54.093Z</time>
      </trkpt>
      <trkpt lat="43.28105" lon="3.2756">
        <ele>41.952516</ele>
        <time>2023-01-07T15:17:57.105Z</time>
      </trkpt>
      <trkpt lat="43.28111" lon="3.27569">
        <ele>41.874439</ele>
        <time>2023-01-07T15:18:00.111Z</time>
      </trkpt>
      <trkpt lat="43.2812" lon="3.27577">
        <ele>41.790557</ele>
        <time>2023-01-07T15:18:05.106Z</time>
      </trkpt>
      <trkpt lat="43.28129" lon="3.27586">
        <ele>41.803604</ele>
        <time>2023-01-07T15:18:09.085Z</time>
      </trkpt>
      <trkpt lat="43.28136" lon="3.27593">
        <ele>41.815216</ele>
        <time>2023-01-07T15:18:12.107Z</time>
      </trkpt>
      <trkpt lat="43.28143" lon="3.27601">
        <ele>41.826601</ele>
        <time>2023-01-07T15:18:15.105Z</time>
      </trkpt>
      <trkpt lat="43.28151" lon="3.2761">
        <ele>41.839542</ele>
        <time>2023-01-07T15:18:18.098Z</time>
      </trkpt>
      <trkpt lat="43.28159" lon="3.27619">
        <ele>41.852637</ele>
        <time>2023-01-07T15:18:21.082Z</time>
      </trkpt>
      <trkpt lat="43.28168" lon="3.27628">
        <ele>41.866053</ele>
        <time>2023-01-07T15:18:24.088Z</time>
      </trkpt>
      <trkpt lat="43.28177" lon="3.27638">
        <ele>41.879788</ele>
        <time>2023-01-07T15:18:27.097Z</time>
      </trkpt>
      <trkpt lat="43.28186" lon="3.27646">
        <ele>41.8935</ele>
        <time>2023-01-07T15:18:30.114Z</time>
      </trkpt>
      <trkpt lat="43.28193" lon="3.27654">
        <ele>41.905541</ele>
        <time>2023-01-07T15:18:33.104Z</time>
      </trkpt>
      <trkpt lat="43.28203" lon="3.27664">
        <ele>41.920591</ele>
        <time>2023-01-07T15:18:37.135Z</time>
      </trkpt>
      <trkpt lat="43.28211" lon="3.27672">
        <ele>41.932744</ele>
        <time>2023-01-07T15:18:40.107Z</time>
      </trkpt>
      <trkpt lat="43.28221" lon="3.27681">
        <ele>41.947486</ele>
        <time>2023-01-07T15:18:44.096Z</time>
      </trkpt>
      <trkpt lat="43.2823" lon="3.27689">
        <ele>41.961206</ele>
        <time>2023-01-07T15:18:48.098Z</time>
      </trkpt>
      <trkpt lat="43.28237" lon="3.27698">
        <ele>41.973013</ele>
        <time>2023-01-07T15:18:52.085Z</time>
      </trkpt>
      <trkpt lat="43.28245" lon="3.27708">
        <ele>41.986163</ele>
        <time>2023-01-07T15:18:56.107Z</time>
      </trkpt>
      <trkpt lat="43.28253" lon="3.27717">
        <ele>41.999047</ele>
        <time>2023-01-07T15:19:00.107Z</time>
      </trkpt>
      <trkpt lat="43.2826" lon="3.27728">
        <ele>42.01233</ele>
        <time>2023-01-07T15:19:04.116Z</time>
      </trkpt>
      <trkpt lat="43.28267" lon="3.27735">
        <ele>42.07032</ele>
        <time>2023-01-07T15:19:07.108Z</time>
      </trkpt>
      <trkpt lat="43.28275" lon="3.27742">
        <ele>42.13594</ele>
        <time>2023-01-07T15:19:10.097Z</time>
      </trkpt>
      <trkpt lat="43.28284" lon="3.27752">
        <ele>42.217945</ele>
        <time>2023-01-07T15:19:14.091Z</time>
      </trkpt>
      <trkpt lat="43.28293" lon="3.27762">
        <ele>42.298653</ele>
        <time>2023-01-07T15:19:18.098Z</time>
      </trkpt>
      <trkpt lat="43.283" lon="3.27773">
        <ele>42.368924</ele>
        <time>2023-01-07T15:19:22.115Z</time>
      </trkpt>
      <trkpt lat="43.28308" lon="3.27783">
        <ele>42.44734</ele>
        <time>2023-01-07T15:19:26.106Z</time>
      </trkpt>
      <trkpt lat="43.28317" lon="3.27792">
        <ele>42.526223</ele>
        <time>2023-01-07T15:19:30.096Z</time>
      </trkpt>
      <trkpt lat="43.28323" lon="3.27803">
        <ele>42.596807</ele>
        <time>2023-01-07T15:19:33.095Z</time>
      </trkpt>
      <trkpt lat="43.28335" lon="3.2781">
        <ele>42.686039</ele>
        <time>2023-01-07T15:19:37.085Z</time>
      </trkpt>
      <trkpt lat="43.28342" lon="3.27817">
        <ele>42.749615</ele>
        <time>2023-01-07T15:19:40.098Z</time>
      </trkpt>
      <trkpt lat="43.28355" lon="3.27821">
        <ele>42.839258</ele>
        <time>2023-01-07T15:19:43.103Z</time>
      </trkpt>
      <trkpt lat="43.28364" lon="3.2783">
        <ele>42.914948</ele>
        <time>2023-01-07T15:19:46.110Z</time>
      </trkpt>
      <trkpt lat="43.28372" lon="3.27838">
        <ele>42.985152</ele>
        <time>2023-01-07T15:19:49.102Z</time>
      </trkpt>
      <trkpt lat="43.2838" lon="3.27845">
        <ele>43.053057</ele>
        <time>2023-01-07T15:19:52.102Z</time>
      </trkpt>
      <trkpt lat="43.28389" lon="3.27853">
        <ele>43.130374</ele>
        <time>2023-01-07T15:19:55.104Z</time>
      </trkpt>
      <trkpt lat="43.28398" lon="3.2786">
        <ele>43.204425</ele>
        <time>2023-01-07T15:19:58.105Z</time>
      </trkpt>
      <trkpt lat="43.28409" lon="3.27867">
        <ele>43.287848</ele>
        <time>2023-01-07T15:20:02.103Z</time>
      </trkpt>
      <trkpt lat="43.2842" lon="3.27875">
        <ele>43.37183</ele>
        <time>2023-01-07T15:20:05.087Z</time>
      </trkpt>
      <trkpt lat="43.28429" lon="3.27885">
        <ele>43.456344</ele>
        <time>2023-01-07T15:20:08.087Z</time>
      </trkpt>
      <trkpt lat="43.28438" lon="3.27893">
        <ele>43.531783</ele>
        <time>2023-01-07T15:20:11.108Z</time>
      </trkpt>
      <trkpt lat="43.28443" lon="3.27906">
        <ele>43.607069</ele>
        <time>2023-01-07T15:20:15.084Z</time>
      </trkpt>
      <trkpt lat="43.2845" lon="3.2792">
        <ele>43.695502</ele>
        <time>2023-01-07T15:20:19.107Z</time>
      </trkpt>
      <trkpt lat="43.28455" lon="3.27931">
        <ele>43.761599</ele>
        <time>2023-01-07T15:20:22.101Z</time>
      </trkpt>
      <trkpt lat="43.28459" lon="3.27944">
        <ele>43.835404</ele>
        <time>2023-01-07T15:20:25.097Z</time>
      </trkpt>
      <trkpt lat="43.28453" lon="3.27958">
        <ele>43.921574</ele>
        <time>2023-01-07T15:20:28.096Z</time>
      </trkpt>
      <trkpt lat="43.28446" lon="3.2797">
        <ele>43.999834</ele>
        <time>2023-01-07T15:20:31.095Z</time>
      </trkpt>
      <trkpt lat="43.28439" lon="3.27982">
        <ele>44.082863</ele>
        <time>2023-01-07T15:20:35.086Z</time>
      </trkpt>
      <trkpt lat="43.28433" lon="3.27996">
        <ele>44.162683</ele>
        <time>2023-01-07T15:20:39.081Z</time>
      </trkpt>
      <trkpt lat="43.2843" lon="3.28008">
        <ele>44.22747</ele>
        <time>2023-01-07T15:20:42.105Z</time>
      </trkpt>
      <trkpt lat="43.28434" lon="3.28019">
        <ele>44.291993</ele>
        <time>2023-01-07T15:20:45.104Z</time>
      </trkpt>
      <trkpt lat="43.28442" lon="3.28028">
        <ele>44.367431</ele>
        <time>2023-01-07T15:20:48.086Z</time>
      </trkpt>
      <trkpt lat="43.28448" lon="3.2804">
        <ele>44.444198</ele>
        <time>2023-01-07T15:20:51.106Z</time>
      </trkpt>
      <trkpt lat="43.28455" lon="3.2805">
        <ele>44.515941</ele>
        <time>2023-01-07T15:20:54.105Z</time>
      </trkpt>
      <trkpt lat="43.28462" lon="3.28062">
        <ele>44.625802</ele>
        <time>2023-01-07T15:20:57.104Z</time>
      </trkpt>
      <trkpt lat="43.28469" lon="3.28074">
        <ele>44.74955</ele>
        <time>2023-01-07T15:21:00.113Z</time>
      </trkpt>
      <trkpt lat="43.28475" lon="3.28085">
        <ele>44.870578</ele>
        <time>2023-01-07T15:21:03.108Z</time>
      </trkpt>
      <trkpt lat="43.28481" lon="3.28096">
        <ele>44.9846</ele>
        <time>2023-01-07T15:21:06.104Z</time>
      </trkpt>
      <trkpt lat="43.28487" lon="3.28107">
        <ele>45.106178</ele>
        <time>2023-01-07T15:21:09.112Z</time>
      </trkpt>
      <trkpt lat="43.28494" lon="3.28119">
        <ele>45.234038</ele>
        <time>2023-01-07T15:21:13.092Z</time>
      </trkpt>
      <trkpt lat="43.28501" lon="3.28131">
        <ele>45.368208</ele>
        <time>2023-01-07T15:21:17.109Z</time>
      </trkpt>
      <trkpt lat="43.28509" lon="3.28143">
        <ele>45.50834</ele>
        <time>2023-01-07T15:21:21.100Z</time>
      </trkpt>
      <trkpt lat="43.28516" lon="3.28155">
        <ele>45.634051</ele>
        <time>2023-01-07T15:21:24.118Z</time>
      </trkpt>
      <trkpt lat="43.28522" lon="3.28167">
        <ele>45.758386</ele>
        <time>2023-01-07T15:21:27.110Z</time>
      </trkpt>
      <trkpt lat="43.28528" lon="3.28181">
        <ele>45.897141</ele>
        <time>2023-01-07T15:21:30.105Z</time>
      </trkpt>
      <trkpt lat="43.28531" lon="3.28197">
        <ele>46.038598</ele>
        <time>2023-01-07T15:21:33.112Z</time>
      </trkpt>
      <trkpt lat="43.28525" lon="3.28211">
        <ele>46.169719</ele>
        <time>2023-01-07T15:21:36.091Z</time>
      </trkpt>
      <trkpt lat="43.28516" lon="3.28221">
        <ele>46.30744</ele>
        <time>2023-01-07T15:21:39.109Z</time>
      </trkpt>
      <trkpt lat="43.28506" lon="3.2823">
        <ele>46.447903</ele>
        <time>2023-01-07T15:21:42.102Z</time>
      </trkpt>
      <trkpt lat="43.28496" lon="3.28238">
        <ele>46.586139</ele>
        <time>2023-01-07T15:21:45.096Z</time>
      </trkpt>
      <trkpt lat="43.28486" lon="3.28246">
        <ele>46.504242</ele>
        <time>2023-01-07T15:21:48.098Z</time>
      </trkpt>
      <trkpt lat="43.28477" lon="3.28253">
        <ele>46.23553</ele>
        <time>2023-01-07T15:21:51.102Z</time>
      </trkpt>
      <trkpt lat="43.28469" lon="3.28261">
        <ele>45.98977</ele>
        <time>2023-01-07T15:21:54.104Z</time>
      </trkpt>
      <trkpt lat="43.2846" lon="3.28268">
        <ele>45.722011</ele>
        <time>2023-01-07T15:21:58.098Z</time>
      </trkpt>
      <trkpt lat="43.2845" lon="3.28275">
        <ele>45.43514</ele>
        <time>2023-01-07T15:22:02.083Z</time>
      </trkpt>
      <trkpt lat="43.28441" lon="3.2828">
        <ele>45.195125</ele>
        <time>2023-01-07T15:22:05.107Z</time>
      </trkpt>
      <trkpt lat="43.28432" lon="3.28287">
        <ele>44.929576</ele>
        <time>2023-01-07T15:22:09.112Z</time>
      </trkpt>
      <trkpt lat="43.28422" lon="3.28296">
        <ele>44.625209</ele>
        <time>2023-01-07T15:22:13.107Z</time>
      </trkpt>
      <trkpt lat="43.28415" lon="3.28305">
        <ele>44.38502</ele>
        <time>2023-01-07T15:22:16.098Z</time>
      </trkpt>
      <trkpt lat="43.28407" lon="3.28313">
        <ele>44.143434</ele>
        <time>2023-01-07T15:22:19.083Z</time>
      </trkpt>
      <trkpt lat="43.28399" lon="3.28321">
        <ele>43.878815</ele>
        <time>2023-01-07T15:22:22.113Z</time>
      </trkpt>
      <trkpt lat="43.2839" lon="3.28332">
        <ele>43.580034</ele>
        <time>2023-01-07T15:22:25.097Z</time>
      </trkpt>
      <trkpt lat="43.28381" lon="3.28344">
        <ele>43.256847</ele>
        <time>2023-01-07T15:22:28.118Z</time>
      </trkpt>
      <trkpt lat="43.28371" lon="3.28355">
        <ele>42.937211</ele>
        <time>2023-01-07T15:22:31.092Z</time>
      </trkpt>
      <trkpt lat="43.28362" lon="3.28365">
        <ele>42.635192</ele>
        <time>2023-01-07T15:22:34.118Z</time>
      </trkpt>
      <trkpt lat="43.28353" lon="3.28375">
        <ele>42.337173</ele>
        <time>2023-01-07T15:22:37.084Z</time>
      </trkpt>
      <trkpt lat="43.28344" lon="3.28386">
        <ele>42.047611</ele>
        <time>2023-01-07T15:22:40.115Z</time>
      </trkpt>
      <trkpt lat="43.28336" lon="3.28396">
        <ele>41.754765</ele>
        <time>2023-01-07T15:22:43.105Z</time>
      </trkpt>
      <trkpt lat="43.28328" lon="3.28406">
        <ele>41.473581</ele>
        <time>2023-01-07T15:22:46.105Z</time>
      </trkpt>
      <trkpt lat="43.2832" lon="3.28412">
        <ele>41.209119</ele>
        <time>2023-01-07T15:22:49.099Z</time>
      </trkpt>
      <trkpt lat="43.28311" lon="3.2842">
        <ele>40.933503</ele>
        <time>2023-01-07T15:22:52.110Z</time>
      </trkpt>
      <trkpt lat="43.28305" lon="3.28432">
        <ele>40.639751</ele>
        <time>2023-01-07T15:22:55.101Z</time>
      </trkpt>
      <trkpt lat="43.28295" lon="3.28444">
        <ele>40.293486</ele>
        <time>2023-01-07T15:22:58.112Z</time>
      </trkpt>
      <trkpt lat="43.28286" lon="3.28456">
        <ele>39.941941</ele>
        <time>2023-01-07T15:23:01.103Z</time>
      </trkpt>
      <trkpt lat="43.28278" lon="3.28465">
        <ele>39.689256</ele>
        <time>2023-01-07T15:23:03.098Z</time>
      </trkpt>
      <trkpt lat="43.28271" lon="3.28474">
        <ele>39.426651</ele>
        <time>2023-01-07T15:23:05.117Z</time>
      </trkpt>
      <trkpt lat="43.28263" lon="3.28482">
        <ele>39.154352</ele>
        <time>2023-01-07T15:23:07.085Z</time>
      </trkpt>
      <trkpt lat="43.28255" lon="3.2849">
        <ele>38.89318</ele>
        <time>2023-01-07T15:23:09.094Z</time>
      </trkpt>
      <trkpt lat="43.28248" lon="3.28499">
        <ele>38.628613</ele>
        <time>2023-01-07T15:23:11.104Z</time>
      </trkpt>
      <trkpt lat="43.28241" lon="3.28508">
        <ele>38.381247</ele>
        <time>2023-01-07T15:23:13.107Z</time>
      </trkpt>
      <trkpt lat="43.28235" lon="3.28518">
        <ele>38.121181</ele>
        <time>2023-01-07T15:23:15.102Z</time>
      </trkpt>
      <trkpt lat="43.28228" lon="3.28527">
        <ele>37.861822</ele>
        <time>2023-01-07T15:23:17.094Z</time>
      </trkpt>
      <trkpt lat="43.28221" lon="3.28536">
        <ele>37.615147</ele>
        <time>2023-01-07T15:23:19.099Z</time>
      </trkpt>
      <trkpt lat="43.28212" lon="3.28548">
        <ele>37.274535</ele>
        <time>2023-01-07T15:23:22.094Z</time>
      </trkpt>
      <trkpt lat="43.28204" lon="3.28561">
        <ele>37.414281</ele>
        <time>2023-01-07T15:23:25.101Z</time>
      </trkpt>
      <trkpt lat="43.28195" lon="3.28573">
        <ele>37.573632</ele>
        <time>2023-01-07T15:23:28.090Z</time>
      </trkpt>
      <trkpt lat="43.28189" lon="3.28583">
        <ele>37.700111</ele>
        <time>2023-01-07T15:23:31.102Z</time>
      </trkpt>
      <trkpt lat="43.28181" lon="3.28596">
        <ele>37.855526</ele>
        <time>2023-01-07T15:23:35.107Z</time>
      </trkpt>
      <trkpt lat="43.28175" lon="3.28606">
        <ele>37.975829</ele>
        <time>2023-01-07T15:23:38.097Z</time>
      </trkpt>
      <trkpt lat="43.28169" lon="3.28618">
        <ele>38.121151</ele>
        <time>2023-01-07T15:23:42.103Z</time>
      </trkpt>
      <trkpt lat="43.28159" lon="3.28642">
        <ele>38.370153</ele>
        <time>2023-01-07T15:24:30.094Z</time>
      </trkpt>
      <trkpt lat="43.28155" lon="3.28656">
        <ele>38.517367</ele>
        <time>2023-01-07T15:24:33.107Z</time>
      </trkpt>
      <trkpt lat="43.28151" lon="3.28672">
        <ele>38.677004</ele>
        <time>2023-01-07T15:24:36.104Z</time>
      </trkpt>
      <trkpt lat="43.28146" lon="3.28686">
        <ele>38.824452</ele>
        <time>2023-01-07T15:24:39.106Z</time>
      </trkpt>
      <trkpt lat="43.28143" lon="3.28703">
        <ele>38.984354</ele>
        <time>2023-01-07T15:24:42.094Z</time>
      </trkpt>
      <trkpt lat="43.28139" lon="3.28718">
        <ele>39.13885</ele>
        <time>2023-01-07T15:24:45.089Z</time>
      </trkpt>
      <trkpt lat="43.28136" lon="3.28734">
        <ele>39.288761</ele>
        <time>2023-01-07T15:24:48.090Z</time>
      </trkpt>
      <trkpt lat="43.28133" lon="3.28749">
        <ele>39.440551</ele>
        <time>2023-01-07T15:24:51.089Z</time>
      </trkpt>
      <trkpt lat="43.2813" lon="3.28762">
        <ele>39.570566</ele>
        <time>2023-01-07T15:24:54.091Z</time>
      </trkpt>
      <trkpt lat="43.28126" lon="3.28776">
        <ele>39.468162</ele>
        <time>2023-01-07T15:24:57.109Z</time>
      </trkpt>
      <trkpt lat="43.28121" lon="3.2879">
        <ele>39.338838</ele>
        <time>2023-01-07T15:25:00.096Z</time>
      </trkpt>
      <trkpt lat="43.2812" lon="3.28804">
        <ele>39.214687</ele>
        <time>2023-01-07T15:25:03.096Z</time>
      </trkpt>
      <trkpt lat="43.28119" lon="3.28818">
        <ele>39.093272</ele>
        <time>2023-01-07T15:25:06.093Z</time>
      </trkpt>
      <trkpt lat="43.2812" lon="3.28834">
        <ele>38.960759</ele>
        <time>2023-01-07T15:25:09.094Z</time>
      </trkpt>
      <trkpt lat="43.2812" lon="3.28849">
        <ele>38.823902</ele>
        <time>2023-01-07T15:25:12.082Z</time>
      </trkpt>
      <trkpt lat="43.2812" lon="3.28866">
        <ele>38.68363</ele>
        <time>2023-01-07T15:25:15.085Z</time>
      </trkpt>
      <trkpt lat="43.28121" lon="3.28883">
        <ele>38.536877</ele>
        <time>2023-01-07T15:25:18.086Z</time>
      </trkpt>
      <trkpt lat="43.28122" lon="3.289">
        <ele>38.386783</ele>
        <time>2023-01-07T15:25:21.088Z</time>
      </trkpt>
      <trkpt lat="43.28123" lon="3.28918">
        <ele>38.233005</ele>
        <time>2023-01-07T15:25:24.086Z</time>
      </trkpt>
      <trkpt lat="43.28125" lon="3.28935">
        <ele>38.083806</ele>
        <time>2023-01-07T15:25:27.090Z</time>
      </trkpt>
      <trkpt lat="43.28127" lon="3.28953">
        <ele>37.930534</ele>
        <time>2023-01-07T15:25:30.090Z</time>
      </trkpt>
      <trkpt lat="43.28128" lon="3.28971">
        <ele>37.773061</ele>
        <time>2023-01-07T15:25:33.087Z</time>
      </trkpt>
      <trkpt lat="43.2813" lon="3.28989">
        <ele>37.61603</ele>
        <time>2023-01-07T15:25:36.091Z</time>
      </trkpt>
      <trkpt lat="43.28132" lon="3.29007">
        <ele>37.462704</ele>
        <time>2023-01-07T15:25:39.095Z</time>
      </trkpt>
      <trkpt lat="43.28133" lon="3.29024">
        <ele>37.64235</ele>
        <time>2023-01-07T15:25:42.090Z</time>
      </trkpt>
      <trkpt lat="43.28135" lon="3.29042">
        <ele>37.836043</ele>
        <time>2023-01-07T15:25:45.095Z</time>
      </trkpt>
      <trkpt lat="43.28136" lon="3.2906">
        <ele>38.026544</ele>
        <time>2023-01-07T15:25:48.094Z</time>
      </trkpt>
      <trkpt lat="43.28137" lon="3.29077">
        <ele>38.210359</ele>
        <time>2023-01-07T15:25:51.105Z</time>
      </trkpt>
      <trkpt lat="43.28139" lon="3.29094">
        <ele>38.396502</ele>
        <time>2023-01-07T15:25:54.096Z</time>
      </trkpt>
      <trkpt lat="43.28141" lon="3.29112">
        <ele>38.584164</ele>
        <time>2023-01-07T15:25:57.101Z</time>
      </trkpt>
      <trkpt lat="43.28143" lon="3.29129">
        <ele>38.771152</ele>
        <time>2023-01-07T15:26:00.095Z</time>
      </trkpt>
      <trkpt lat="43.28145" lon="3.29146">
        <ele>38.958139</ele>
        <time>2023-01-07T15:26:03.109Z</time>
      </trkpt>
      <trkpt lat="43.28146" lon="3.29164">
        <ele>39.152896</ele>
        <time>2023-01-07T15:26:06.103Z</time>
      </trkpt>
      <trkpt lat="43.28148" lon="3.29183">
        <ele>39.354291</ele>
        <time>2023-01-07T15:26:09.100Z</time>
      </trkpt>
      <trkpt lat="43.28149" lon="3.29201">
        <ele>39.550543</ele>
        <time>2023-01-07T15:26:12.102Z</time>
      </trkpt>
      <trkpt lat="43.28151" lon="3.29219">
        <ele>39.74546</ele>
        <time>2023-01-07T15:26:15.108Z</time>
      </trkpt>
      <trkpt lat="43.28153" lon="3.29237">
        <ele>39.939865</ele>
        <time>2023-01-07T15:26:18.085Z</time>
      </trkpt>
      <trkpt lat="43.28154" lon="3.2925">
        <ele>40.079417</ele>
        <time>2023-01-07T15:26:20.091Z</time>
      </trkpt>
      <trkpt lat="43.28156" lon="3.29263">
        <ele>40.059166</ele>
        <time>2023-01-07T15:26:22.091Z</time>
      </trkpt>
      <trkpt lat="43.28157" lon="3.29276">
        <ele>40.005344</ele>
        <time>2023-01-07T15:26:24.089Z</time>
      </trkpt>
      <trkpt lat="43.28159" lon="3.29289">
        <ele>39.953434</ele>
        <time>2023-01-07T15:26:26.105Z</time>
      </trkpt>
      <trkpt lat="43.28162" lon="3.29303">
        <ele>39.899769</ele>
        <time>2023-01-07T15:26:28.107Z</time>
      </trkpt>
      <trkpt lat="43.28164" lon="3.29316">
        <ele>39.84786</ele>
        <time>2023-01-07T15:26:30.099Z</time>
      </trkpt>
      <trkpt lat="43.28165" lon="3.2933">
        <ele>39.792787</ele>
        <time>2023-01-07T15:26:32.097Z</time>
      </trkpt>
      <trkpt lat="43.28166" lon="3.29343">
        <ele>39.739132</ele>
        <time>2023-01-07T15:26:34.098Z</time>
      </trkpt>
      <trkpt lat="43.28168" lon="3.29356">
        <ele>39.690029</ele>
        <time>2023-01-07T15:26:36.093Z</time>
      </trkpt>
      <trkpt lat="43.2817" lon="3.29373">
        <ele>39.62198</ele>
        <time>2023-01-07T15:26:39.087Z</time>
      </trkpt>
      <trkpt lat="43.28172" lon="3.29389">
        <ele>39.557599</ele>
        <time>2023-01-07T15:26:42.103Z</time>
      </trkpt>
      <trkpt lat="43.28174" lon="3.29406">
        <ele>39.491097</ele>
        <time>2023-01-07T15:26:45.091Z</time>
      </trkpt>
      <trkpt lat="43.28177" lon="3.29423">
        <ele>39.423517</ele>
        <time>2023-01-07T15:26:48.100Z</time>
      </trkpt>
      <trkpt lat="43.28179" lon="3.29435">
        <ele>39.372866</ele>
        <time>2023-01-07T15:26:50.098Z</time>
      </trkpt>
      <trkpt lat="43.28182" lon="3.29453">
        <ele>39.300575</ele>
        <time>2023-01-07T15:26:53.098Z</time>
      </trkpt>
      <trkpt lat="43.28183" lon="3.29467">
        <ele>39.245803</ele>
        <time>2023-01-07T15:26:55.097Z</time>
      </trkpt>
      <trkpt lat="43.28186" lon="3.2948">
        <ele>39.194802</ele>
        <time>2023-01-07T15:26:57.093Z</time>
      </trkpt>
      <trkpt lat="43.28188" lon="3.29493">
        <ele>39.142915</ele>
        <time>2023-01-07T15:26:59.106Z</time>
      </trkpt>
      <trkpt lat="43.2819" lon="3.29508">
        <ele>39.050783</ele>
        <time>2023-01-07T15:27:01.100Z</time>
      </trkpt>
      <trkpt lat="43.28191" lon="3.2952">
        <ele>38.967904</ele>
        <time>2023-01-07T15:27:03.098Z</time>
      </trkpt>
      <trkpt lat="43.28194" lon="3.29538">
        <ele>38.846622</ele>
        <time>2023-01-07T15:27:06.090Z</time>
      </trkpt>
      <trkpt lat="43.28196" lon="3.29551">
        <ele>38.765281</ele>
        <time>2023-01-07T15:27:08.092Z</time>
      </trkpt>
      <trkpt lat="43.28199" lon="3.29569">
        <ele>38.643369</ele>
        <time>2023-01-07T15:27:11.086Z</time>
      </trkpt>
      <trkpt lat="43.28202" lon="3.29586">
        <ele>38.529561</ele>
        <time>2023-01-07T15:27:14.097Z</time>
      </trkpt>
      <trkpt lat="43.28205" lon="3.29604">
        <ele>38.410661</ele>
        <time>2023-01-07T15:27:17.093Z</time>
      </trkpt>
      <trkpt lat="43.28207" lon="3.2962">
        <ele>38.300463</ele>
        <time>2023-01-07T15:27:20.096Z</time>
      </trkpt>
      <trkpt lat="43.28209" lon="3.29635">
        <ele>38.202074</ele>
        <time>2023-01-07T15:27:23.094Z</time>
      </trkpt>
      <trkpt lat="43.28211" lon="3.29649">
        <ele>38.10939</ele>
        <time>2023-01-07T15:27:26.102Z</time>
      </trkpt>
      <trkpt lat="43.28213" lon="3.29663">
        <ele>38.020761</ele>
        <time>2023-01-07T15:27:29.086Z</time>
      </trkpt>
      <trkpt lat="43.28214" lon="3.29676">
        <ele>37.935492</ele>
        <time>2023-01-07T15:27:32.091Z</time>
      </trkpt>
      <trkpt lat="43.28216" lon="3.2969">
        <ele>37.841883</ele>
        <time>2023-01-07T15:27:35.100Z</time>
      </trkpt>
      <trkpt lat="43.28218" lon="3.29705">
        <ele>37.741046</ele>
        <time>2023-01-07T15:27:38.101Z</time>
      </trkpt>
      <trkpt lat="43.2822" lon="3.29721">
        <ele>37.6353</ele>
        <time>2023-01-07T15:27:41.094Z</time>
      </trkpt>
      <trkpt lat="43.28221" lon="3.29738">
        <ele>37.528019</ele>
        <time>2023-01-07T15:27:44.100Z</time>
      </trkpt>
      <trkpt lat="43.28224" lon="3.29755">
        <ele>37.49812</ele>
        <time>2023-01-07T15:27:47.084Z</time>
      </trkpt>
      <trkpt lat="43.28226" lon="3.29771">
        <ele>37.469553</ele>
        <time>2023-01-07T15:27:50.094Z</time>
      </trkpt>
      <trkpt lat="43.28227" lon="3.29786">
        <ele>37.442998</ele>
        <time>2023-01-07T15:27:53.093Z</time>
      </trkpt>
      <trkpt lat="43.28229" lon="3.29801">
        <ele>37.416043</ele>
        <time>2023-01-07T15:27:56.101Z</time>
      </trkpt>
      <trkpt lat="43.2823" lon="3.29817">
        <ele>37.387869</ele>
        <time>2023-01-07T15:27:59.094Z</time>
      </trkpt>
      <trkpt lat="43.28232" lon="3.29833">
        <ele>37.359736</ele>
        <time>2023-01-07T15:28:02.091Z</time>
      </trkpt>
      <trkpt lat="43.28233" lon="3.29849">
        <ele>37.331586</ele>
        <time>2023-01-07T15:28:05.088Z</time>
      </trkpt>
      <trkpt lat="43.28234" lon="3.29865">
        <ele>37.302912</ele>
        <time>2023-01-07T15:28:08.084Z</time>
      </trkpt>
      <trkpt lat="43.28235" lon="3.29881">
        <ele>37.274311</ele>
        <time>2023-01-07T15:28:11.091Z</time>
      </trkpt>
      <trkpt lat="43.28235" lon="3.29897">
        <ele>37.245919</ele>
        <time>2023-01-07T15:28:14.095Z</time>
      </trkpt>
      <trkpt lat="43.28236" lon="3.29914">
        <ele>37.216268</ele>
        <time>2023-01-07T15:28:17.093Z</time>
      </trkpt>
      <trkpt lat="43.28236" lon="3.2993">
        <ele>37.188593</ele>
        <time>2023-01-07T15:28:20.086Z</time>
      </trkpt>
      <trkpt lat="43.28236" lon="3.29946">
        <ele>37.160388</ele>
        <time>2023-01-07T15:28:23.103Z</time>
      </trkpt>
      <trkpt lat="43.28237" lon="3.29964">
        <ele>37.130051</ele>
        <time>2023-01-07T15:28:26.096Z</time>
      </trkpt>
      <trkpt lat="43.28236" lon="3.2998">
        <ele>37.101483</ele>
        <time>2023-01-07T15:28:29.100Z</time>
      </trkpt>
      <trkpt lat="43.28237" lon="3.29996">
        <ele>36.949401</ele>
        <time>2023-01-07T15:28:32.087Z</time>
      </trkpt>
      <trkpt lat="43.28237" lon="3.30011">
        <ele>36.780138</ele>
        <time>2023-01-07T15:28:35.095Z</time>
      </trkpt>
      <trkpt lat="43.28238" lon="3.30027">
        <ele>36.59788</ele>
        <time>2023-01-07T15:28:38.091Z</time>
      </trkpt>
      <trkpt lat="43.28237" lon="3.30044">
        <ele>36.415124</ele>
        <time>2023-01-07T15:28:41.102Z</time>
      </trkpt>
      <trkpt lat="43.28236" lon="3.3006">
        <ele>36.228016</ele>
        <time>2023-01-07T15:28:44.088Z</time>
      </trkpt>
      <trkpt lat="43.28236" lon="3.30076">
        <ele>36.050249</ele>
        <time>2023-01-07T15:28:47.104Z</time>
      </trkpt>
      <trkpt lat="43.28237" lon="3.30092">
        <ele>35.87376</ele>
        <time>2023-01-07T15:28:50.100Z</time>
      </trkpt>
      <trkpt lat="43.28237" lon="3.30108">
        <ele>35.690352</ele>
        <time>2023-01-07T15:28:53.095Z</time>
      </trkpt>
      <trkpt lat="43.28238" lon="3.30126">
        <ele>35.496642</ele>
        <time>2023-01-07T15:28:56.093Z</time>
      </trkpt>
      <trkpt lat="43.28238" lon="3.30144">
        <ele>35.290926</ele>
        <time>2023-01-07T15:28:59.090Z</time>
      </trkpt>
      <trkpt lat="43.28239" lon="3.30161">
        <ele>35.100564</ele>
        <time>2023-01-07T15:29:02.091Z</time>
      </trkpt>
      <trkpt lat="43.2824" lon="3.30176">
        <ele>34.931856</ele>
        <time>2023-01-07T15:29:05.100Z</time>
      </trkpt>
      <trkpt lat="43.2824" lon="3.30191">
        <ele>34.767512</ele>
        <time>2023-01-07T15:29:08.096Z</time>
      </trkpt>
      <trkpt lat="43.2824" lon="3.30207">
        <ele>34.588529</ele>
        <time>2023-01-07T15:29:11.103Z</time>
      </trkpt>
      <trkpt lat="43.28241" lon="3.30223">
        <ele>34.410603</ele>
        <time>2023-01-07T15:29:14.096Z</time>
      </trkpt>
      <trkpt lat="43.2824" lon="3.3024">
        <ele>34.361156</ele>
        <time>2023-01-07T15:29:17.097Z</time>
      </trkpt>
      <trkpt lat="43.2824" lon="3.30257">
        <ele>34.407299</ele>
        <time>2023-01-07T15:29:20.088Z</time>
      </trkpt>
      <trkpt lat="43.2824" lon="3.30275">
        <ele>34.453954</ele>
        <time>2023-01-07T15:29:23.098Z</time>
      </trkpt>
      <trkpt lat="43.2824" lon="3.30292">
        <ele>34.499808</ele>
        <time>2023-01-07T15:29:26.104Z</time>
      </trkpt>
      <trkpt lat="43.2824" lon="3.3031">
        <ele>34.548066</ele>
        <time>2023-01-07T15:29:29.085Z</time>
      </trkpt>
      <trkpt lat="43.2824" lon="3.30322">
        <ele>34.581391</ele>
        <time>2023-01-07T15:29:31.104Z</time>
      </trkpt>
      <trkpt lat="43.2824" lon="3.3034">
        <ele>34.629133</ele>
        <time>2023-01-07T15:29:34.092Z</time>
      </trkpt>
      <trkpt lat="43.28239" lon="3.30357">
        <ele>34.674785</ele>
        <time>2023-01-07T15:29:37.090Z</time>
      </trkpt>
      <trkpt lat="43.28238" lon="3.30375">
        <ele>34.723176</ele>
        <time>2023-01-07T15:29:40.104Z</time>
      </trkpt>
      <trkpt lat="43.28238" lon="3.30393">
        <ele>34.77063</ele>
        <time>2023-01-07T15:29:43.096Z</time>
      </trkpt>
      <trkpt lat="43.28238" lon="3.3041">
        <ele>34.815973</ele>
        <time>2023-01-07T15:29:46.102Z</time>
      </trkpt>
      <trkpt lat="43.28237" lon="3.30427">
        <ele>34.861707</ele>
        <time>2023-01-07T15:29:49.104Z</time>
      </trkpt>
      <trkpt lat="43.28236" lon="3.30446">
        <ele>34.910603</ele>
        <time>2023-01-07T15:29:52.097Z</time>
      </trkpt>
      <trkpt lat="43.28235" lon="3.30464">
        <ele>34.958391</ele>
        <time>2023-01-07T15:29:55.099Z</time>
      </trkpt>
      <trkpt lat="43.28234" lon="3.3048">
        <ele>35.056784</ele>
        <time>2023-01-07T15:29:58.095Z</time>
      </trkpt>
      <trkpt lat="43.28233" lon="3.30496">
        <ele>35.31727</ele>
        <time>2023-01-07T15:30:01.092Z</time>
      </trkpt>
      <trkpt lat="43.28232" lon="3.30512">
        <ele>35.598326</ele>
        <time>2023-01-07T15:30:04.103Z</time>
      </trkpt>
      <trkpt lat="43.28231" lon="3.30528">
        <ele>35.871139</ele>
        <time>2023-01-07T15:30:07.102Z</time>
      </trkpt>
      <trkpt lat="43.28231" lon="3.30545">
        <ele>36.14537</ele>
        <time>2023-01-07T15:30:10.092Z</time>
      </trkpt>
      <trkpt lat="43.2823" lon="3.30562">
        <ele>36.430064</ele>
        <time>2023-01-07T15:30:13.083Z</time>
      </trkpt>
      <trkpt lat="43.28229" lon="3.30578">
        <ele>36.713973</ele>
        <time>2023-01-07T15:30:16.093Z</time>
      </trkpt>
      <trkpt lat="43.28228" lon="3.30595">
        <ele>37.001016</ele>
        <time>2023-01-07T15:30:19.084Z</time>
      </trkpt>
      <trkpt lat="43.28227" lon="3.30612">
        <ele>37.28601</ele>
        <time>2023-01-07T15:30:22.096Z</time>
      </trkpt>
      <trkpt lat="43.28226" lon="3.30629">
        <ele>37.563863</ele>
        <time>2023-01-07T15:30:25.086Z</time>
      </trkpt>
      <trkpt lat="43.28225" lon="3.30646">
        <ele>37.854946</ele>
        <time>2023-01-07T15:30:28.096Z</time>
      </trkpt>
      <trkpt lat="43.28224" lon="3.30663">
        <ele>38.148691</ele>
        <time>2023-01-07T15:30:31.087Z</time>
      </trkpt>
      <trkpt lat="43.28223" lon="3.3068">
        <ele>38.427819</ele>
        <time>2023-01-07T15:30:34.087Z</time>
      </trkpt>
      <trkpt lat="43.28221" lon="3.30696">
        <ele>38.697184</ele>
        <time>2023-01-07T15:30:37.086Z</time>
      </trkpt>
      <trkpt lat="43.28219" lon="3.30712">
        <ele>38.973535</ele>
        <time>2023-01-07T15:30:40.110Z</time>
      </trkpt>
      <trkpt lat="43.28217" lon="3.30728">
        <ele>39.185582</ele>
        <time>2023-01-07T15:30:43.091Z</time>
      </trkpt>
      <trkpt lat="43.28213" lon="3.30743">
        <ele>39.292057</ele>
        <time>2023-01-07T15:30:46.086Z</time>
      </trkpt>
      <trkpt lat="43.2821" lon="3.30759">
        <ele>39.404322</ele>
        <time>2023-01-07T15:30:49.084Z</time>
      </trkpt>
      <trkpt lat="43.28207" lon="3.30776">
        <ele>39.515301</ele>
        <time>2023-01-07T15:30:52.097Z</time>
      </trkpt>
      <trkpt lat="43.28204" lon="3.30792">
        <ele>39.626058</ele>
        <time>2023-01-07T15:30:55.091Z</time>
      </trkpt>
      <trkpt lat="43.282" lon="3.30808">
        <ele>39.737117</ele>
        <time>2023-01-07T15:30:58.100Z</time>
      </trkpt>
      <trkpt lat="43.28197" lon="3.30823">
        <ele>39.847308</ele>
        <time>2023-01-07T15:31:01.087Z</time>
      </trkpt>
      <trkpt lat="43.28192" lon="3.3084">
        <ele>39.965219</ele>
        <time>2023-01-07T15:31:04.099Z</time>
      </trkpt>
      <trkpt lat="43.28188" lon="3.30856">
        <ele>40.07846</ele>
        <time>2023-01-07T15:31:07.097Z</time>
      </trkpt>
      <trkpt lat="43.28184" lon="3.30872">
        <ele>40.188294</ele>
        <time>2023-01-07T15:31:10.093Z</time>
      </trkpt>
      <trkpt lat="43.2818" lon="3.30885">
        <ele>40.287598</ele>
        <time>2023-01-07T15:31:13.109Z</time>
      </trkpt>
      <trkpt lat="43.28175" lon="3.30901">
        <ele>40.396885</ele>
        <time>2023-01-07T15:31:16.105Z</time>
      </trkpt>
      <trkpt lat="43.2817" lon="3.30915">
        <ele>40.504795</ele>
        <time>2023-01-07T15:31:19.100Z</time>
      </trkpt>
      <trkpt lat="43.28165" lon="3.30931">
        <ele>40.618815</ele>
        <time>2023-01-07T15:31:22.096Z</time>
      </trkpt>
      <trkpt lat="43.28159" lon="3.30946">
        <ele>40.735212</ele>
        <time>2023-01-07T15:31:25.107Z</time>
      </trkpt>
      <trkpt lat="43.28153" lon="3.30961">
        <ele>40.775747</ele>
        <time>2023-01-07T15:31:28.112Z</time>
      </trkpt>
      <trkpt lat="43.28147" lon="3.30976">
        <ele>40.751544</ele>
        <time>2023-01-07T15:31:31.102Z</time>
      </trkpt>
      <trkpt lat="43.28141" lon="3.30991">
        <ele>40.727118</ele>
        <time>2023-01-07T15:31:34.092Z</time>
      </trkpt>
      <trkpt lat="43.28136" lon="3.31005">
        <ele>40.704387</ele>
        <time>2023-01-07T15:31:37.111Z</time>
      </trkpt>
      <trkpt lat="43.28132" lon="3.31017">
        <ele>40.684473</ele>
        <time>2023-01-07T15:31:40.105Z</time>
      </trkpt>
      <trkpt lat="43.28128" lon="3.31029">
        <ele>40.665463</ele>
        <time>2023-01-07T15:31:43.106Z</time>
      </trkpt>
      <trkpt lat="43.28122" lon="3.31041">
        <ele>40.644428</ele>
        <time>2023-01-07T15:31:46.100Z</time>
      </trkpt>
      <trkpt lat="43.28115" lon="3.31053">
        <ele>40.62224</ele>
        <time>2023-01-07T15:31:49.100Z</time>
      </trkpt>
      <trkpt lat="43.28108" lon="3.31066">
        <ele>40.599456</ele>
        <time>2023-01-07T15:31:52.095Z</time>
      </trkpt>
      <trkpt lat="43.28101" lon="3.31078">
        <ele>40.576784</ele>
        <time>2023-01-07T15:31:55.088Z</time>
      </trkpt>
      <trkpt lat="43.28093" lon="3.31089">
        <ele>40.553883</ele>
        <time>2023-01-07T15:31:58.104Z</time>
      </trkpt>
      <trkpt lat="43.28084" lon="3.31101">
        <ele>40.529954</ele>
        <time>2023-01-07T15:32:01.097Z</time>
      </trkpt>
      <trkpt lat="43.28075" lon="3.31114">
        <ele>40.504575</ele>
        <time>2023-01-07T15:32:04.099Z</time>
      </trkpt>
      <trkpt lat="43.28067" lon="3.31126">
        <ele>40.48044</ele>
        <time>2023-01-07T15:32:07.100Z</time>
      </trkpt>
      <trkpt lat="43.2806" lon="3.31138">
        <ele>40.457961</ele>
        <time>2023-01-07T15:32:10.085Z</time>
      </trkpt>
      <trkpt lat="43.28052" lon="3.31148">
        <ele>40.437484</ele>
        <time>2023-01-07T15:32:13.085Z</time>
      </trkpt>
      <trkpt lat="43.28046" lon="3.31158">
        <ele>40.414981</ele>
        <time>2023-01-07T15:32:16.098Z</time>
      </trkpt>
      <trkpt lat="43.2804" lon="3.31167">
        <ele>40.392944</ele>
        <time>2023-01-07T15:32:19.104Z</time>
      </trkpt>
      <trkpt lat="43.28033" lon="3.31177">
        <ele>40.367586</ele>
        <time>2023-01-07T15:32:23.096Z</time>
      </trkpt>
      <trkpt lat="43.28027" lon="3.31187">
        <ele>40.345586</ele>
        <time>2023-01-07T15:32:27.102Z</time>
      </trkpt>
      <trkpt lat="43.2802" lon="3.31197">
        <ele>40.319941</ele>
        <time>2023-01-07T15:32:31.087Z</time>
      </trkpt>
      <trkpt lat="43.28011" lon="3.31206">
        <ele>40.294821</ele>
        <time>2023-01-07T15:32:35.092Z</time>
      </trkpt>
      <trkpt lat="43.28004" lon="3.31216">
        <ele>40.269806</ele>
        <time>2023-01-07T15:32:40.096Z</time>
      </trkpt>
      <trkpt lat="43.27997" lon="3.31232">
        <ele>40.236125</ele>
        <time>2023-01-07T15:34:10.087Z</time>
      </trkpt>
      <trkpt lat="43.27996" lon="3.31245">
        <ele>40.213025</ele>
        <time>2023-01-07T15:34:15.095Z</time>
      </trkpt>
      <trkpt lat="43.27995" lon="3.31258">
        <ele>40.189622</ele>
        <time>2023-01-07T15:34:19.088Z</time>
      </trkpt>
      <trkpt lat="43.27992" lon="3.31273">
        <ele>40.161045</ele>
        <time>2023-01-07T15:34:23.086Z</time>
      </trkpt>
      <trkpt lat="43.27988" lon="3.31287">
        <ele>40.134889</ele>
        <time>2023-01-07T15:34:27.100Z</time>
      </trkpt>
      <trkpt lat="43.27984" lon="3.31298">
        <ele>40.112808</ele>
        <time>2023-01-07T15:34:30.101Z</time>
      </trkpt>
      <trkpt lat="43.2798" lon="3.3131">
        <ele>40.088958</ele>
        <time>2023-01-07T15:34:33.097Z</time>
      </trkpt>
      <trkpt lat="43.27975" lon="3.31322">
        <ele>40.064879</ele>
        <time>2023-01-07T15:34:36.099Z</time>
      </trkpt>
      <trkpt lat="43.27971" lon="3.31334">
        <ele>40.041463</ele>
        <time>2023-01-07T15:34:39.090Z</time>
      </trkpt>
      <trkpt lat="43.27966" lon="3.31345">
        <ele>40.018281</ele>
        <time>2023-01-07T15:34:42.095Z</time>
      </trkpt>
      <trkpt lat="43.27962" lon="3.31358">
        <ele>39.994173</ele>
        <time>2023-01-07T15:34:45.089Z</time>
      </trkpt>
      <trkpt lat="43.27958" lon="3.31371">
        <ele>40.183502</ele>
        <time>2023-01-07T15:34:48.090Z</time>
      </trkpt>
      <trkpt lat="43.27953" lon="3.31385">
        <ele>40.40282</ele>
        <time>2023-01-07T15:34:51.081Z</time>
      </trkpt>
      <trkpt lat="43.27948" lon="3.314">
        <ele>40.625618</ele>
        <time>2023-01-07T15:34:54.087Z</time>
      </trkpt>
      <trkpt lat="43.27943" lon="3.31414">
        <ele>40.841593</ele>
        <time>2023-01-07T15:34:57.100Z</time>
      </trkpt>
      <trkpt lat="43.27938" lon="3.31427">
        <ele>41.042195</ele>
        <time>2023-01-07T15:35:00.082Z</time>
      </trkpt>
      <trkpt lat="43.27934" lon="3.31439">
        <ele>41.236816</ele>
        <time>2023-01-07T15:35:03.084Z</time>
      </trkpt>
      <trkpt lat="43.2793" lon="3.31451">
        <ele>41.415846</ele>
        <time>2023-01-07T15:35:06.086Z</time>
      </trkpt>
      <trkpt lat="43.27939" lon="3.31445">
        <ele>41.608431</ele>
        <time>2023-01-07T15:35:46.087Z</time>
      </trkpt>
      <trkpt lat="43.27943" lon="3.31431">
        <ele>41.808506</ele>
        <time>2023-01-07T15:35:49.085Z</time>
      </trkpt>
      <trkpt lat="43.27947" lon="3.31417">
        <ele>42.01581</ele>
        <time>2023-01-07T15:35:52.094Z</time>
      </trkpt>
      <trkpt lat="43.27951" lon="3.31404">
        <ele>42.223034</ele>
        <time>2023-01-07T15:35:55.091Z</time>
      </trkpt>
      <trkpt lat="43.27957" lon="3.3139">
        <ele>42.440842</ele>
        <time>2023-01-07T15:35:58.090Z</time>
      </trkpt>
      <trkpt lat="43.27962" lon="3.31376">
        <ele>42.657226</ele>
        <time>2023-01-07T15:36:01.096Z</time>
      </trkpt>
      <trkpt lat="43.27967" lon="3.31362">
        <ele>42.876996</ele>
        <time>2023-01-07T15:36:04.102Z</time>
      </trkpt>
      <trkpt lat="43.27972" lon="3.31348">
        <ele>43.092627</ele>
        <time>2023-01-07T15:36:07.096Z</time>
      </trkpt>
      <trkpt lat="43.27976" lon="3.31334">
        <ele>43.310584</ele>
        <time>2023-01-07T15:36:10.100Z</time>
      </trkpt>
      <trkpt lat="43.27981" lon="3.31319">
        <ele>43.418588</ele>
        <time>2023-01-07T15:36:13.103Z</time>
      </trkpt>
      <trkpt lat="43.27986" lon="3.31306">
        <ele>43.371785</ele>
        <time>2023-01-07T15:36:16.086Z</time>
      </trkpt>
      <trkpt lat="43.27991" lon="3.31293">
        <ele>43.327719</ele>
        <time>2023-01-07T15:36:19.090Z</time>
      </trkpt>
      <trkpt lat="43.27995" lon="3.3128">
        <ele>43.281385</ele>
        <time>2023-01-07T15:36:22.087Z</time>
      </trkpt>
      <trkpt lat="43.27999" lon="3.31267">
        <ele>43.23785</ele>
        <time>2023-01-07T15:36:25.093Z</time>
      </trkpt>
      <trkpt lat="43.28003" lon="3.31255">
        <ele>43.19751</ele>
        <time>2023-01-07T15:36:28.099Z</time>
      </trkpt>
      <trkpt lat="43.28008" lon="3.31241">
        <ele>43.146596</ele>
        <time>2023-01-07T15:36:32.079Z</time>
      </trkpt>
      <trkpt lat="43.28014" lon="3.31229">
        <ele>43.101936</ele>
        <time>2023-01-07T15:36:36.102Z</time>
      </trkpt>
      <trkpt lat="43.28023" lon="3.31233">
        <ele>43.059921</ele>
        <time>2023-01-07T15:36:42.090Z</time>
      </trkpt>
      <trkpt lat="43.28021" lon="3.31247">
        <ele>43.01549</ele>
        <time>2023-01-07T15:36:45.087Z</time>
      </trkpt>
      <trkpt lat="43.28015" lon="3.31261">
        <ele>42.964707</ele>
        <time>2023-01-07T15:36:48.087Z</time>
      </trkpt>
      <trkpt lat="43.28009" lon="3.31272">
        <ele>42.922962</ele>
        <time>2023-01-07T15:36:51.087Z</time>
      </trkpt>
      <trkpt lat="43.28004" lon="3.31285">
        <ele>42.875963</ele>
        <time>2023-01-07T15:36:55.080Z</time>
      </trkpt>
      <trkpt lat="43.28" lon="3.31297">
        <ele>42.835285</ele>
        <time>2023-01-07T15:36:58.085Z</time>
      </trkpt>
      <trkpt lat="43.27996" lon="3.3131">
        <ele>42.791022</ele>
        <time>2023-01-07T15:37:01.090Z</time>
      </trkpt>
      <trkpt lat="43.27991" lon="3.31323">
        <ele>42.744402</ele>
        <time>2023-01-07T15:37:04.086Z</time>
      </trkpt>
      <trkpt lat="43.27987" lon="3.31336">
        <ele>42.699673</ele>
        <time>2023-01-07T15:37:07.086Z</time>
      </trkpt>
      <trkpt lat="43.27982" lon="3.31349">
        <ele>42.667192</ele>
        <time>2023-01-07T15:37:10.086Z</time>
      </trkpt>
      <trkpt lat="43.27977" lon="3.31362">
        <ele>42.677784</ele>
        <time>2023-01-07T15:37:13.087Z</time>
      </trkpt>
      <trkpt lat="43.27972" lon="3.31376">
        <ele>42.689196</ele>
        <time>2023-01-07T15:37:16.088Z</time>
      </trkpt>
      <trkpt lat="43.27967" lon="3.31391">
        <ele>42.701231</ele>
        <time>2023-01-07T15:37:19.089Z</time>
      </trkpt>
      <trkpt lat="43.27961" lon="3.31406">
        <ele>42.712942</ele>
        <time>2023-01-07T15:37:22.087Z</time>
      </trkpt>
      <trkpt lat="43.27956" lon="3.31421">
        <ele>42.725303</ele>
        <time>2023-01-07T15:37:25.090Z</time>
      </trkpt>
      <trkpt lat="43.27951" lon="3.31438">
        <ele>42.737839</ele>
        <time>2023-01-07T15:37:28.086Z</time>
      </trkpt>
      <trkpt lat="43.27949" lon="3.31455">
        <ele>42.750312</ele>
        <time>2023-01-07T15:37:31.089Z</time>
      </trkpt>
      <trkpt lat="43.27947" lon="3.31472">
        <ele>42.762653</ele>
        <time>2023-01-07T15:37:34.089Z</time>
      </trkpt>
      <trkpt lat="43.27951" lon="3.31485">
        <ele>42.772723</ele>
        <time>2023-01-07T15:37:37.088Z</time>
      </trkpt>
      <trkpt lat="43.27959" lon="3.31494">
        <ele>42.783472</ele>
        <time>2023-01-07T15:37:40.086Z</time>
      </trkpt>
      <trkpt lat="43.2797" lon="3.31499">
        <ele>42.794066</ele>
        <time>2023-01-07T15:37:43.089Z</time>
      </trkpt>
      <trkpt lat="43.27981" lon="3.31499">
        <ele>42.805437</ele>
        <time>2023-01-07T15:37:46.087Z</time>
      </trkpt>
      <trkpt lat="43.27993" lon="3.31502">
        <ele>42.817829</ele>
        <time>2023-01-07T15:37:49.089Z</time>
      </trkpt>
      <trkpt lat="43.28005" lon="3.31505">
        <ele>42.829697</ele>
        <time>2023-01-07T15:37:52.101Z</time>
      </trkpt>
      <trkpt lat="43.28016" lon="3.3151">
        <ele>42.840958</ele>
        <time>2023-01-07T15:37:55.098Z</time>
      </trkpt>
      <trkpt lat="43.28027" lon="3.3152">
        <ele>42.787792</ele>
        <time>2023-01-07T15:37:58.095Z</time>
      </trkpt>
      <trkpt lat="43.28035" lon="3.31532">
        <ele>42.727784</ele>
        <time>2023-01-07T15:38:01.091Z</time>
      </trkpt>
      <trkpt lat="43.28042" lon="3.31547">
        <ele>42.667066</ele>
        <time>2023-01-07T15:38:04.091Z</time>
      </trkpt>
      <trkpt lat="43.28043" lon="3.31565">
        <ele>42.604552</ele>
        <time>2023-01-07T15:38:07.095Z</time>
      </trkpt>
      <trkpt lat="43.28043" lon="3.31582">
        <ele>42.544847</ele>
        <time>2023-01-07T15:38:10.094Z</time>
      </trkpt>
      <trkpt lat="43.28043" lon="3.31599">
        <ele>42.484485</ele>
        <time>2023-01-07T15:38:13.096Z</time>
      </trkpt>
      <trkpt lat="43.28045" lon="3.31617">
        <ele>42.421995</ele>
        <time>2023-01-07T15:38:16.084Z</time>
      </trkpt>
      <trkpt lat="43.28046" lon="3.31633">
        <ele>42.363695</ele>
        <time>2023-01-07T15:38:19.100Z</time>
      </trkpt>
      <trkpt lat="43.28048" lon="3.31649">
        <ele>42.30972</ele>
        <time>2023-01-07T15:38:22.093Z</time>
      </trkpt>
      <trkpt lat="43.2805" lon="3.31663">
        <ele>42.260941</ele>
        <time>2023-01-07T15:38:25.084Z</time>
      </trkpt>
      <trkpt lat="43.28052" lon="3.31677">
        <ele>42.20985</ele>
        <time>2023-01-07T15:38:28.097Z</time>
      </trkpt>
      <trkpt lat="43.28053" lon="3.31693">
        <ele>42.152694</ele>
        <time>2023-01-07T15:38:31.090Z</time>
      </trkpt>
      <trkpt lat="43.28056" lon="3.3171">
        <ele>42.093213</ele>
        <time>2023-01-07T15:38:34.087Z</time>
      </trkpt>
      <trkpt lat="43.28059" lon="3.31727">
        <ele>42.033204</ele>
        <time>2023-01-07T15:38:37.085Z</time>
      </trkpt>
      <trkpt lat="43.2806" lon="3.31744">
        <ele>41.99273</ele>
        <time>2023-01-07T15:38:40.087Z</time>
      </trkpt>
      <trkpt lat="43.28063" lon="3.31762">
        <ele>42.07763</ele>
        <time>2023-01-07T15:38:43.091Z</time>
      </trkpt>
      <trkpt lat="43.28065" lon="3.31779">
        <ele>42.163026</ele>
        <time>2023-01-07T15:38:46.086Z</time>
      </trkpt>
      <trkpt lat="43.28065" lon="3.31792">
        <ele>42.222476</ele>
        <time>2023-01-07T15:38:48.090Z</time>
      </trkpt>
      <trkpt lat="43.28066" lon="3.31808">
        <ele>42.303762</ele>
        <time>2023-01-07T15:38:51.084Z</time>
      </trkpt>
      <trkpt lat="43.28066" lon="3.31824">
        <ele>42.377216</ele>
        <time>2023-01-07T15:38:54.103Z</time>
      </trkpt>
      <trkpt lat="43.28067" lon="3.31837">
        <ele>42.442019</ele>
        <time>2023-01-07T15:38:57.084Z</time>
      </trkpt>
      <trkpt lat="43.28067" lon="3.31854">
        <ele>42.520164</ele>
        <time>2023-01-07T15:39:01.099Z</time>
      </trkpt>
      <trkpt lat="43.28066" lon="3.31867">
        <ele>42.585922</ele>
        <time>2023-01-07T15:39:04.099Z</time>
      </trkpt>
      <trkpt lat="43.28062" lon="3.31881">
        <ele>42.657775</ele>
        <time>2023-01-07T15:39:07.099Z</time>
      </trkpt>
      <trkpt lat="43.28055" lon="3.31894">
        <ele>42.734906</ele>
        <time>2023-01-07T15:39:10.103Z</time>
      </trkpt>
      <trkpt lat="43.28047" lon="3.31907">
        <ele>42.81585</ele>
        <time>2023-01-07T15:39:13.088Z</time>
      </trkpt>
      <trkpt lat="43.28039" lon="3.31919">
        <ele>42.894654</ele>
        <time>2023-01-07T15:39:16.087Z</time>
      </trkpt>
      <trkpt lat="43.28032" lon="3.31929">
        <ele>42.963568</ele>
        <time>2023-01-07T15:39:19.091Z</time>
      </trkpt>
      <trkpt lat="43.28024" lon="3.31939">
        <ele>43.029173</ele>
        <time>2023-01-07T15:39:23.083Z</time>
      </trkpt>
      <trkpt lat="43.28033" lon="3.31923">
        <ele>43.122196</ele>
        <time>2023-01-07T15:40:22.084Z</time>
      </trkpt>
      <trkpt lat="43.28041" lon="3.31912">
        <ele>43.186666</ele>
        <time>2023-01-07T15:40:26.087Z</time>
      </trkpt>
      <trkpt lat="43.28049" lon="3.319">
        <ele>43.238076</ele>
        <time>2023-01-07T15:40:30.081Z</time>
      </trkpt>
      <trkpt lat="43.28056" lon="3.31889">
        <ele>43.283661</ele>
        <time>2023-01-07T15:40:34.085Z</time>
      </trkpt>
      <trkpt lat="43.28061" lon="3.31879">
        <ele>43.323729</ele>
        <time>2023-01-07T15:40:38.088Z</time>
      </trkpt>
      <trkpt lat="43.28065" lon="3.31866">
        <ele>43.368688</ele>
        <time>2023-01-07T15:40:44.084Z</time>
      </trkpt>
      <trkpt lat="43.28071" lon="3.31855">
        <ele>43.410717</ele>
        <time>2023-01-07T15:40:49.115Z</time>
      </trkpt>
      <trkpt lat="43.28068" lon="3.31868">
        <ele>43.452072</ele>
        <time>2023-01-07T15:41:24.091Z</time>
      </trkpt>
      <trkpt lat="43.28071" lon="3.31882">
        <ele>43.498587</ele>
        <time>2023-01-07T15:41:28.102Z</time>
      </trkpt>
      <trkpt lat="43.28075" lon="3.31896">
        <ele>43.545683</ele>
        <time>2023-01-07T15:41:32.085Z</time>
      </trkpt>
      <trkpt lat="43.28081" lon="3.3191">
        <ele>43.596012</ele>
        <time>2023-01-07T15:41:36.096Z</time>
      </trkpt>
      <trkpt lat="43.28086" lon="3.31924">
        <ele>43.643703</ele>
        <time>2023-01-07T15:41:40.085Z</time>
      </trkpt>
      <trkpt lat="43.28089" lon="3.31935">
        <ele>43.683661</ele>
        <time>2023-01-07T15:41:43.096Z</time>
      </trkpt>
      <trkpt lat="43.28094" lon="3.31946">
        <ele>43.722966</ele>
        <time>2023-01-07T15:41:46.086Z</time>
      </trkpt>
      <trkpt lat="43.28099" lon="3.31959">
        <ele>43.770092</ele>
        <time>2023-01-07T15:41:50.084Z</time>
      </trkpt>
      <trkpt lat="43.28102" lon="3.31972">
        <ele>43.814334</ele>
        <time>2023-01-07T15:41:55.096Z</time>
      </trkpt>
      <trkpt lat="43.28096" lon="3.3196">
        <ele>43.86118</ele>
        <time>2023-01-07T15:42:11.095Z</time>
      </trkpt>
      <trkpt lat="43.28091" lon="3.31948">
        <ele>43.903741</ele>
        <time>2023-01-07T15:42:15.093Z</time>
      </trkpt>
      <trkpt lat="43.28088" lon="3.31936">
        <ele>43.935395</ele>
        <time>2023-01-07T15:42:18.086Z</time>
      </trkpt>
      <trkpt lat="43.28085" lon="3.31923">
        <ele>43.837227</ele>
        <time>2023-01-07T15:42:21.084Z</time>
      </trkpt>
      <trkpt lat="43.28081" lon="3.31911">
        <ele>43.741381</ele>
        <time>2023-01-07T15:42:24.099Z</time>
      </trkpt>
      <trkpt lat="43.28075" lon="3.31897">
        <ele>43.628205</ele>
        <time>2023-01-07T15:42:28.085Z</time>
      </trkpt>
      <trkpt lat="43.28071" lon="3.31885">
        <ele>43.535412</ele>
        <time>2023-01-07T15:42:32.085Z</time>
      </trkpt>
      <trkpt lat="43.28069" lon="3.31873">
        <ele>43.441843</ele>
        <time>2023-01-07T15:42:36.086Z</time>
      </trkpt>
      <trkpt lat="43.28072" lon="3.31861">
        <ele>43.349062</ele>
        <time>2023-01-07T15:42:41.088Z</time>
      </trkpt>
      <trkpt lat="43.28081" lon="3.31868">
        <ele>43.241663</ele>
        <time>2023-01-07T15:42:47.088Z</time>
      </trkpt>
      <trkpt lat="43.28086" lon="3.31881">
        <ele>43.131414</ele>
        <time>2023-01-07T15:42:51.089Z</time>
      </trkpt>
      <trkpt lat="43.28091" lon="3.31893">
        <ele>43.039691</ele>
        <time>2023-01-07T15:42:54.089Z</time>
      </trkpt>
      <trkpt lat="43.28094" lon="3.31904">
        <ele>42.947471</ele>
        <time>2023-01-07T15:42:57.083Z</time>
      </trkpt>
      <trkpt lat="43.28099" lon="3.31916">
        <ele>42.855103</ele>
        <time>2023-01-07T15:43:00.086Z</time>
      </trkpt>
      <trkpt lat="43.28103" lon="3.31927">
        <ele>42.762531</ele>
        <time>2023-01-07T15:43:03.086Z</time>
      </trkpt>
      <trkpt lat="43.28108" lon="3.31939">
        <ele>42.66495</ele>
        <time>2023-01-07T15:43:06.084Z</time>
      </trkpt>
      <trkpt lat="43.28112" lon="3.31951">
        <ele>42.564523</ele>
        <time>2023-01-07T15:43:09.088Z</time>
      </trkpt>
      <trkpt lat="43.28116" lon="3.31963">
        <ele>42.469645</ele>
        <time>2023-01-07T15:43:12.095Z</time>
      </trkpt>
      <trkpt lat="43.28119" lon="3.31976">
        <ele>42.374405</ele>
        <time>2023-01-07T15:43:15.083Z</time>
      </trkpt>
      <trkpt lat="43.28124" lon="3.31987">
        <ele>42.281878</ele>
        <time>2023-01-07T15:43:18.088Z</time>
      </trkpt>
      <trkpt lat="43.28128" lon="3.31999">
        <ele>42.183649</ele>
        <time>2023-01-07T15:43:21.080Z</time>
      </trkpt>
      <trkpt lat="43.28133" lon="3.32011">
        <ele>41.93872</ele>
        <time>2023-01-07T15:43:24.104Z</time>
      </trkpt>
      <trkpt lat="43.28137" lon="3.32023">
        <ele>41.650621</ele>
        <time>2023-01-07T15:43:28.083Z</time>
      </trkpt>
      <trkpt lat="43.28143" lon="3.32035">
        <ele>41.317987</ele>
        <time>2023-01-07T15:43:33.093Z</time>
      </trkpt>
      <trkpt lat="43.28149" lon="3.32049">
        <ele>40.977233</ele>
        <time>2023-01-07T15:43:37.102Z</time>
      </trkpt>
      <trkpt lat="43.28153" lon="3.3206">
        <ele>40.699224</ele>
        <time>2023-01-07T15:43:40.085Z</time>
      </trkpt>
      <trkpt lat="43.28158" lon="3.32072">
        <ele>40.404801</ele>
        <time>2023-01-07T15:43:43.091Z</time>
      </trkpt>
      <trkpt lat="43.28163" lon="3.32085">
        <ele>40.07556</ele>
        <time>2023-01-07T15:43:46.086Z</time>
      </trkpt>
      <trkpt lat="43.28167" lon="3.32098">
        <ele>39.758202</ele>
        <time>2023-01-07T15:43:49.085Z</time>
      </trkpt>
      <trkpt lat="43.28172" lon="3.32111">
        <ele>39.443435</ele>
        <time>2023-01-07T15:43:52.086Z</time>
      </trkpt>
      <trkpt lat="43.28176" lon="3.32124">
        <ele>39.145145</ele>
        <time>2023-01-07T15:43:55.082Z</time>
      </trkpt>
      <trkpt lat="43.28181" lon="3.32135">
        <ele>38.843845</ele>
        <time>2023-01-07T15:43:58.088Z</time>
      </trkpt>
      <trkpt lat="43.28186" lon="3.32148">
        <ele>38.540789</ele>
        <time>2023-01-07T15:44:01.086Z</time>
      </trkpt>
      <trkpt lat="43.28192" lon="3.32162">
        <ele>38.183715</ele>
        <time>2023-01-07T15:44:05.086Z</time>
      </trkpt>
      <trkpt lat="43.28197" lon="3.32173">
        <ele>37.888344</ele>
        <time>2023-01-07T15:44:08.086Z</time>
      </trkpt>
      <trkpt lat="43.28202" lon="3.32185">
        <ele>37.577418</ele>
        <time>2023-01-07T15:44:11.086Z</time>
      </trkpt>
      <trkpt lat="43.28207" lon="3.32197">
        <ele>37.275148</ele>
        <time>2023-01-07T15:44:14.091Z</time>
      </trkpt>
      <trkpt lat="43.28211" lon="3.32212">
        <ele>36.917782</ele>
        <time>2023-01-07T15:44:18.093Z</time>
      </trkpt>
      <trkpt lat="43.28215" lon="3.32225">
        <ele>36.755503</ele>
        <time>2023-01-07T15:44:21.095Z</time>
      </trkpt>
      <trkpt lat="43.28219" lon="3.32237">
        <ele>36.818416</ele>
        <time>2023-01-07T15:44:24.088Z</time>
      </trkpt>
      <trkpt lat="43.28223" lon="3.32249">
        <ele>36.878017</ele>
        <time>2023-01-07T15:44:27.100Z</time>
      </trkpt>
      <trkpt lat="43.28228" lon="3.3226">
        <ele>36.94094</ele>
        <time>2023-01-07T15:44:30.085Z</time>
      </trkpt>
      <trkpt lat="43.28232" lon="3.32272">
        <ele>37.00546</ele>
        <time>2023-01-07T15:44:33.087Z</time>
      </trkpt>
      <trkpt lat="43.28238" lon="3.32285">
        <ele>37.076285</ele>
        <time>2023-01-07T15:44:37.090Z</time>
      </trkpt>
      <trkpt lat="43.28242" lon="3.32298">
        <ele>37.143058</ele>
        <time>2023-01-07T15:44:41.085Z</time>
      </trkpt>
      <trkpt lat="43.28246" lon="3.32312">
        <ele>37.21082</ele>
        <time>2023-01-07T15:44:45.094Z</time>
      </trkpt>
      <trkpt lat="43.28247" lon="3.32324">
        <ele>37.270514</ele>
        <time>2023-01-07T15:45:04.086Z</time>
      </trkpt>
      <trkpt lat="43.28253" lon="3.32336">
        <ele>37.335712</ele>
        <time>2023-01-07T15:45:08.087Z</time>
      </trkpt>
      <trkpt lat="43.28257" lon="3.32348">
        <ele>37.399835</ele>
        <time>2023-01-07T15:45:11.096Z</time>
      </trkpt>
      <trkpt lat="43.28262" lon="3.3236">
        <ele>37.463543</ele>
        <time>2023-01-07T15:45:14.093Z</time>
      </trkpt>
      <trkpt lat="43.28266" lon="3.32373">
        <ele>37.529215</ele>
        <time>2023-01-07T15:45:17.083Z</time>
      </trkpt>
      <trkpt lat="43.28272" lon="3.32385">
        <ele>37.598798</ele>
        <time>2023-01-07T15:45:20.097Z</time>
      </trkpt>
      <trkpt lat="43.28277" lon="3.32399">
        <ele>37.670972</ele>
        <time>2023-01-07T15:45:23.088Z</time>
      </trkpt>
      <trkpt lat="43.28282" lon="3.32412">
        <ele>37.739865</ele>
        <time>2023-01-07T15:45:26.092Z</time>
      </trkpt>
      <trkpt lat="43.28287" lon="3.32425">
        <ele>37.809468</ele>
        <time>2023-01-07T15:45:29.088Z</time>
      </trkpt>
      <trkpt lat="43.28292" lon="3.32438">
        <ele>37.878963</ele>
        <time>2023-01-07T15:45:32.087Z</time>
      </trkpt>
      <trkpt lat="43.28297" lon="3.32451">
        <ele>37.935236</ele>
        <time>2023-01-07T15:45:35.081Z</time>
      </trkpt>
      <trkpt lat="43.28303" lon="3.32464">
        <ele>37.991976</ele>
        <time>2023-01-07T15:45:38.087Z</time>
      </trkpt>
      <trkpt lat="43.28308" lon="3.32478">
        <ele>38.048024</ele>
        <time>2023-01-07T15:45:41.093Z</time>
      </trkpt>
      <trkpt lat="43.28313" lon="3.32491">
        <ele>38.102105</ele>
        <time>2023-01-07T15:45:44.084Z</time>
      </trkpt>
      <trkpt lat="43.28319" lon="3.32504">
        <ele>38.156198</ele>
        <time>2023-01-07T15:45:48.090Z</time>
      </trkpt>
      <trkpt lat="43.28323" lon="3.32518">
        <ele>38.209824</ele>
        <time>2023-01-07T15:45:52.086Z</time>
      </trkpt>
      <trkpt lat="43.28328" lon="3.32529">
        <ele>38.258764</ele>
        <time>2023-01-07T15:45:56.082Z</time>
      </trkpt>
      <trkpt lat="43.28331" lon="3.32543">
        <ele>38.312814</ele>
        <time>2023-01-07T15:46:00.087Z</time>
      </trkpt>
      <trkpt lat="43.28336" lon="3.32556">
        <ele>38.366461</ele>
        <time>2023-01-07T15:46:04.082Z</time>
      </trkpt>
      <trkpt lat="43.28341" lon="3.32567">
        <ele>38.41275</ele>
        <time>2023-01-07T15:46:07.084Z</time>
      </trkpt>
      <trkpt lat="43.28345" lon="3.32579">
        <ele>38.460861</ele>
        <time>2023-01-07T15:46:10.090Z</time>
      </trkpt>
      <trkpt lat="43.28348" lon="3.32591">
        <ele>38.509204</ele>
        <time>2023-01-07T15:46:13.091Z</time>
      </trkpt>
      <trkpt lat="43.28355" lon="3.32604">
        <ele>38.566377</ele>
        <time>2023-01-07T15:46:17.089Z</time>
      </trkpt>
      <trkpt lat="43.2836" lon="3.32616">
        <ele>38.616118</ele>
        <time>2023-01-07T15:46:20.084Z</time>
      </trkpt>
      <trkpt lat="43.28364" lon="3.32628">
        <ele>38.664417</ele>
        <time>2023-01-07T15:46:23.083Z</time>
      </trkpt>
      <trkpt lat="43.28368" lon="3.3264">
        <ele>38.71304</ele>
        <time>2023-01-07T15:46:26.086Z</time>
      </trkpt>
      <trkpt lat="43.28372" lon="3.32653">
        <ele>38.764987</ele>
        <time>2023-01-07T15:46:29.083Z</time>
      </trkpt>
      <trkpt lat="43.28377" lon="3.32665">
        <ele>38.77022</ele>
        <time>2023-01-07T15:46:32.093Z</time>
      </trkpt>
      <trkpt lat="43.28381" lon="3.32678">
        <ele>38.717131</ele>
        <time>2023-01-07T15:46:35.095Z</time>
      </trkpt>
      <trkpt lat="43.28386" lon="3.32691">
        <ele>38.660966</ele>
        <time>2023-01-07T15:46:38.089Z</time>
      </trkpt>
      <trkpt lat="43.28391" lon="3.32705">
        <ele>38.603545</ele>
        <time>2023-01-07T15:46:41.097Z</time>
      </trkpt>
      <trkpt lat="43.28396" lon="3.32717">
        <ele>38.55029</ele>
        <time>2023-01-07T15:46:44.090Z</time>
      </trkpt>
      <trkpt lat="43.28401" lon="3.32729">
        <ele>38.496446</ele>
        <time>2023-01-07T15:46:48.091Z</time>
      </trkpt>
      <trkpt lat="43.28405" lon="3.32741">
        <ele>38.448901</ele>
        <time>2023-01-07T15:46:53.084Z</time>
      </trkpt>
      <trkpt lat="43.28409" lon="3.32752">
        <ele>38.398859</ele>
        <time>2023-01-07T15:46:57.088Z</time>
      </trkpt>
      <trkpt lat="43.28414" lon="3.32766">
        <ele>38.340667</ele>
        <time>2023-01-07T15:47:01.088Z</time>
      </trkpt>
      <trkpt lat="43.28419" lon="3.32779">
        <ele>38.286414</ele>
        <time>2023-01-07T15:47:05.087Z</time>
      </trkpt>
      <trkpt lat="43.28424" lon="3.32792">
        <ele>38.232194</ele>
        <time>2023-01-07T15:47:09.093Z</time>
      </trkpt>
      <trkpt lat="43.28427" lon="3.32803">
        <ele>38.185637</ele>
        <time>2023-01-07T15:47:12.085Z</time>
      </trkpt>
      <trkpt lat="43.28432" lon="3.32814">
        <ele>38.138732</ele>
        <time>2023-01-07T15:47:15.085Z</time>
      </trkpt>
      <trkpt lat="43.28437" lon="3.32826">
        <ele>38.085631</ele>
        <time>2023-01-07T15:47:18.085Z</time>
      </trkpt>
      <trkpt lat="43.28442" lon="3.32838">
        <ele>38.034294</ele>
        <time>2023-01-07T15:47:21.097Z</time>
      </trkpt>
      <trkpt lat="43.28447" lon="3.3285">
        <ele>37.983131</ele>
        <time>2023-01-07T15:47:24.081Z</time>
      </trkpt>
      <trkpt lat="43.28451" lon="3.32863">
        <ele>37.930136</ele>
        <time>2023-01-07T15:47:27.089Z</time>
      </trkpt>
      <trkpt lat="43.28455" lon="3.32876">
        <ele>37.874093</ele>
        <time>2023-01-07T15:47:30.085Z</time>
      </trkpt>
      <trkpt lat="43.28461" lon="3.3289">
        <ele>37.984936</ele>
        <time>2023-01-07T15:47:33.096Z</time>
      </trkpt>
      <trkpt lat="43.28466" lon="3.32904">
        <ele>38.144995</ele>
        <time>2023-01-07T15:47:36.089Z</time>
      </trkpt>
      <trkpt lat="43.28471" lon="3.32918">
        <ele>38.302307</ele>
        <time>2023-01-07T15:47:39.086Z</time>
      </trkpt>
      <trkpt lat="43.28475" lon="3.32931">
        <ele>38.440365</ele>
        <time>2023-01-07T15:47:42.096Z</time>
      </trkpt>
      <trkpt lat="43.28479" lon="3.32942">
        <ele>38.572045</ele>
        <time>2023-01-07T15:47:45.095Z</time>
      </trkpt>
      <trkpt lat="43.28483" lon="3.32954">
        <ele>38.703642</ele>
        <time>2023-01-07T15:47:48.095Z</time>
      </trkpt>
      <trkpt lat="43.28488" lon="3.32967">
        <ele>38.859129</ele>
        <time>2023-01-07T15:47:52.107Z</time>
      </trkpt>
      <trkpt lat="43.28493" lon="3.3298">
        <ele>39.005435</ele>
        <time>2023-01-07T15:47:56.087Z</time>
      </trkpt>
      <trkpt lat="43.28496" lon="3.32991">
        <ele>39.131217</ele>
        <time>2023-01-07T15:47:59.100Z</time>
      </trkpt>
      <trkpt lat="43.28501" lon="3.33004">
        <ele>39.274986</ele>
        <time>2023-01-07T15:48:02.097Z</time>
      </trkpt>
      <trkpt lat="43.28506" lon="3.33016">
        <ele>39.413316</ele>
        <time>2023-01-07T15:48:05.094Z</time>
      </trkpt>
      <trkpt lat="43.2851" lon="3.33029">
        <ele>39.558697</ele>
        <time>2023-01-07T15:48:08.117Z</time>
      </trkpt>
      <trkpt lat="43.28515" lon="3.33042">
        <ele>39.706207</ele>
        <time>2023-01-07T15:48:11.086Z</time>
      </trkpt>
      <trkpt lat="43.28519" lon="3.33055">
        <ele>39.852857</ele>
        <time>2023-01-07T15:48:14.088Z</time>
      </trkpt>
      <trkpt lat="43.28524" lon="3.33068">
        <ele>40.004383</ele>
        <time>2023-01-07T15:48:17.088Z</time>
      </trkpt>
      <trkpt lat="43.28527" lon="3.3308">
        <ele>40.139259</ele>
        <time>2023-01-07T15:48:20.087Z</time>
      </trkpt>
      <trkpt lat="43.28533" lon="3.33095">
        <ele>40.305213</ele>
        <time>2023-01-07T15:48:24.088Z</time>
      </trkpt>
      <trkpt lat="43.28537" lon="3.33107">
        <ele>40.429398</ele>
        <time>2023-01-07T15:48:27.089Z</time>
      </trkpt>
      <trkpt lat="43.28542" lon="3.3312">
        <ele>40.536469</ele>
        <time>2023-01-07T15:48:30.086Z</time>
      </trkpt>
      <trkpt lat="43.28546" lon="3.33132">
        <ele>40.635048</ele>
        <time>2023-01-07T15:48:33.082Z</time>
      </trkpt>
      <trkpt lat="43.2855" lon="3.33143">
        <ele>40.727411</ele>
        <time>2023-01-07T15:48:36.084Z</time>
      </trkpt>
      <trkpt lat="43.28555" lon="3.33155">
        <ele>40.824657</ele>
        <time>2023-01-07T15:48:39.086Z</time>
      </trkpt>
      <trkpt lat="43.2856" lon="3.33169">
        <ele>40.939561</ele>
        <time>2023-01-07T15:48:43.096Z</time>
      </trkpt>
      <trkpt lat="43.28565" lon="3.33179">
        <ele>41.031279</ele>
        <time>2023-01-07T15:48:47.091Z</time>
      </trkpt>
      <trkpt lat="43.2857" lon="3.33194">
        <ele>41.150026</ele>
        <time>2023-01-07T15:48:52.096Z</time>
      </trkpt>
      <trkpt lat="43.28574" lon="3.33206">
        <ele>41.250713</ele>
        <time>2023-01-07T15:48:56.083Z</time>
      </trkpt>
      <trkpt lat="43.28578" lon="3.33218">
        <ele>41.349814</ele>
        <time>2023-01-07T15:49:00.102Z</time>
      </trkpt>
      <trkpt lat="43.28585" lon="3.33229">
        <ele>41.460995</ele>
        <time>2023-01-07T15:49:05.086Z</time>
      </trkpt>
      <trkpt lat="43.28595" lon="3.33234">
        <ele>41.561528</ele>
        <time>2023-01-07T15:49:09.090Z</time>
      </trkpt>
      <trkpt lat="43.28605" lon="3.33231">
        <ele>41.662404</ele>
        <time>2023-01-07T15:49:13.110Z</time>
      </trkpt>
      <trkpt lat="43.28615" lon="3.33231">
        <ele>41.770212</ele>
        <time>2023-01-07T15:49:17.087Z</time>
      </trkpt>
      <trkpt lat="43.28627" lon="3.33229">
        <ele>41.887866</ele>
        <time>2023-01-07T15:49:21.083Z</time>
      </trkpt>
      <trkpt lat="43.28638" lon="3.33227">
        <ele>42.000292</ele>
        <time>2023-01-07T15:49:25.082Z</time>
      </trkpt>
      <trkpt lat="43.28649" lon="3.33225">
        <ele>42.113143</ele>
        <time>2023-01-07T15:49:29.087Z</time>
      </trkpt>
      <trkpt lat="43.28658" lon="3.33223">
        <ele>42.207657</ele>
        <time>2023-01-07T15:49:32.086Z</time>
      </trkpt>
      <trkpt lat="43.28668" lon="3.33222">
        <ele>42.190099</ele>
        <time>2023-01-07T15:49:35.099Z</time>
      </trkpt>
      <trkpt lat="43.28677" lon="3.3322">
        <ele>42.168912</ele>
        <time>2023-01-07T15:49:38.091Z</time>
      </trkpt>
      <trkpt lat="43.28687" lon="3.33219">
        <ele>42.147566</ele>
        <time>2023-01-07T15:49:41.090Z</time>
      </trkpt>
      <trkpt lat="43.28698" lon="3.33217">
        <ele>42.125366</ele>
        <time>2023-01-07T15:49:44.087Z</time>
      </trkpt>
      <trkpt lat="43.28708" lon="3.33216">
        <ele>42.102953</ele>
        <time>2023-01-07T15:49:47.087Z</time>
      </trkpt>
      <trkpt lat="43.28718" lon="3.33215">
        <ele>42.080555</ele>
        <time>2023-01-07T15:49:50.084Z</time>
      </trkpt>
      <trkpt lat="43.28729" lon="3.33213">
        <ele>42.058322</ele>
        <time>2023-01-07T15:49:53.090Z</time>
      </trkpt>
      <trkpt lat="43.28738" lon="3.33212">
        <ele>42.037433</ele>
        <time>2023-01-07T15:49:56.083Z</time>
      </trkpt>
      <trkpt lat="43.2875" lon="3.3321">
        <ele>42.012125</ele>
        <time>2023-01-07T15:50:00.089Z</time>
      </trkpt>
      <trkpt lat="43.2876" lon="3.33208">
        <ele>41.990918</ele>
        <time>2023-01-07T15:50:03.087Z</time>
      </trkpt>
      <trkpt lat="43.2877" lon="3.33206">
        <ele>41.969456</ele>
        <time>2023-01-07T15:50:06.085Z</time>
      </trkpt>
      <trkpt lat="43.28781" lon="3.33205">
        <ele>41.945607</ele>
        <time>2023-01-07T15:50:10.087Z</time>
      </trkpt>
      <trkpt lat="43.28791" lon="3.33204">
        <ele>41.924932</ele>
        <time>2023-01-07T15:50:13.089Z</time>
      </trkpt>
      <trkpt lat="43.288" lon="3.33202">
        <ele>41.905486</ele>
        <time>2023-01-07T15:50:16.087Z</time>
      </trkpt>
      <trkpt lat="43.28809" lon="3.332">
        <ele>41.884679</ele>
        <time>2023-01-07T15:50:19.089Z</time>
      </trkpt>
      <trkpt lat="43.28819" lon="3.33198">
        <ele>41.86379</ele>
        <time>2023-01-07T15:50:22.081Z</time>
      </trkpt>
      <trkpt lat="43.28829" lon="3.33195">
        <ele>41.840787</ele>
        <time>2023-01-07T15:50:25.088Z</time>
      </trkpt>
      <trkpt lat="43.2884" lon="3.33194">
        <ele>41.839265</ele>
        <time>2023-01-07T15:50:28.085Z</time>
      </trkpt>
      <trkpt lat="43.2885" lon="3.33191">
        <ele>41.88578</ele>
        <time>2023-01-07T15:50:31.095Z</time>
      </trkpt>
      <trkpt lat="43.28861" lon="3.33187">
        <ele>41.934156</ele>
        <time>2023-01-07T15:50:34.086Z</time>
      </trkpt>
      <trkpt lat="43.28872" lon="3.33183">
        <ele>41.983533</ele>
        <time>2023-01-07T15:50:37.095Z</time>
      </trkpt>
      <trkpt lat="43.28884" lon="3.33178">
        <ele>42.035483</ele>
        <time>2023-01-07T15:50:40.084Z</time>
      </trkpt>
      <trkpt lat="43.28895" lon="3.33173">
        <ele>42.086826</ele>
        <time>2023-01-07T15:50:43.087Z</time>
      </trkpt>
      <trkpt lat="43.28906" lon="3.33168">
        <ele>42.136878</ele>
        <time>2023-01-07T15:50:46.095Z</time>
      </trkpt>
      <trkpt lat="43.28917" lon="3.33163">
        <ele>42.189046</ele>
        <time>2023-01-07T15:50:49.107Z</time>
      </trkpt>
      <trkpt lat="43.28929" lon="3.33158">
        <ele>42.240485</ele>
        <time>2023-01-07T15:50:52.084Z</time>
      </trkpt>
      <trkpt lat="43.28938" lon="3.33153">
        <ele>42.285</ele>
        <time>2023-01-07T15:50:55.099Z</time>
      </trkpt>
      <trkpt lat="43.28947" lon="3.33149">
        <ele>42.325129</ele>
        <time>2023-01-07T15:50:58.086Z</time>
      </trkpt>
      <trkpt lat="43.28958" lon="3.33145">
        <ele>42.375007</ele>
        <time>2023-01-07T15:51:02.083Z</time>
      </trkpt>
      <trkpt lat="43.28968" lon="3.33141">
        <ele>42.416836</ele>
        <time>2023-01-07T15:51:05.094Z</time>
      </trkpt>
      <trkpt lat="43.28978" lon="3.33137">
        <ele>42.464462</ele>
        <time>2023-01-07T15:51:08.089Z</time>
      </trkpt>
      <trkpt lat="43.28989" lon="3.33132">
        <ele>42.51387</ele>
        <time>2023-01-07T15:51:11.093Z</time>
      </trkpt>
      <trkpt lat="43.29" lon="3.33128">
        <ele>42.562359</ele>
        <time>2023-01-07T15:51:14.086Z</time>
      </trkpt>
      <trkpt lat="43.2901" lon="3.33123">
        <ele>42.623403</ele>
        <time>2023-01-07T15:51:17.089Z</time>
      </trkpt>
      <trkpt lat="43.29021" lon="3.33118">
        <ele>42.772654</ele>
        <time>2023-01-07T15:51:20.102Z</time>
      </trkpt>
      <trkpt lat="43.29032" lon="3.33115">
        <ele>42.925392</ele>
        <time>2023-01-07T15:51:23.089Z</time>
      </trkpt>
      <trkpt lat="43.29042" lon="3.33111">
        <ele>43.073823</ele>
        <time>2023-01-07T15:51:26.088Z</time>
      </trkpt>
      <trkpt lat="43.29052" lon="3.33107">
        <ele>43.203858</ele>
        <time>2023-01-07T15:51:29.090Z</time>
      </trkpt>
      <trkpt lat="43.2906" lon="3.33103">
        <ele>43.328369</ele>
        <time>2023-01-07T15:51:32.086Z</time>
      </trkpt>
      <trkpt lat="43.2907" lon="3.33098">
        <ele>43.460365</ele>
        <time>2023-01-07T15:51:35.088Z</time>
      </trkpt>
      <trkpt lat="43.2908" lon="3.33092">
        <ele>43.61439</ele>
        <time>2023-01-07T15:51:39.086Z</time>
      </trkpt>
      <trkpt lat="43.291" lon="3.33082">
        <ele>43.891574</ele>
        <time>2023-01-07T15:52:08.096Z</time>
      </trkpt>
      <trkpt lat="43.29109" lon="3.33076">
        <ele>44.027118</ele>
        <time>2023-01-07T15:52:11.084Z</time>
      </trkpt>
      <trkpt lat="43.29119" lon="3.33068">
        <ele>44.18505</ele>
        <time>2023-01-07T15:52:14.085Z</time>
      </trkpt>
      <trkpt lat="43.2913" lon="3.33062">
        <ele>44.342755</ele>
        <time>2023-01-07T15:52:17.088Z</time>
      </trkpt>
      <trkpt lat="43.2914" lon="3.33054">
        <ele>44.495769</ele>
        <time>2023-01-07T15:52:20.088Z</time>
      </trkpt>
      <trkpt lat="43.2915" lon="3.33047">
        <ele>44.648901</ele>
        <time>2023-01-07T15:52:23.087Z</time>
      </trkpt>
      <trkpt lat="43.2916" lon="3.3304">
        <ele>44.804111</ele>
        <time>2023-01-07T15:52:26.091Z</time>
      </trkpt>
      <trkpt lat="43.29171" lon="3.33033">
        <ele>44.962493</ele>
        <time>2023-01-07T15:52:29.095Z</time>
      </trkpt>
      <trkpt lat="43.2918" lon="3.33026">
        <ele>45.010221</ele>
        <time>2023-01-07T15:52:32.085Z</time>
      </trkpt>
      <trkpt lat="43.29189" lon="3.3302">
        <ele>44.997506</ele>
        <time>2023-01-07T15:52:35.096Z</time>
      </trkpt>
      <trkpt lat="43.29197" lon="3.33014">
        <ele>44.984773</ele>
        <time>2023-01-07T15:52:38.084Z</time>
      </trkpt>
      <trkpt lat="43.29206" lon="3.33006">
        <ele>44.970473</ele>
        <time>2023-01-07T15:52:41.086Z</time>
      </trkpt>
      <trkpt lat="43.29216" lon="3.32997">
        <ele>44.954827</ele>
        <time>2023-01-07T15:52:44.096Z</time>
      </trkpt>
      <trkpt lat="43.29226" lon="3.32988">
        <ele>44.938956</ele>
        <time>2023-01-07T15:52:47.100Z</time>
      </trkpt>
      <trkpt lat="43.29236" lon="3.32978">
        <ele>44.923414</ele>
        <time>2023-01-07T15:52:50.092Z</time>
      </trkpt>
      <trkpt lat="43.29245" lon="3.3297">
        <ele>44.908313</ele>
        <time>2023-01-07T15:52:53.094Z</time>
      </trkpt>
      <trkpt lat="43.29255" lon="3.32962">
        <ele>44.893185</ele>
        <time>2023-01-07T15:52:56.086Z</time>
      </trkpt>
      <trkpt lat="43.29263" lon="3.32954">
        <ele>44.880317</ele>
        <time>2023-01-07T15:52:59.089Z</time>
      </trkpt>
      <trkpt lat="43.2927" lon="3.32945">
        <ele>44.867823</ele>
        <time>2023-01-07T15:53:02.091Z</time>
      </trkpt>
      <trkpt lat="43.29277" lon="3.32936">
        <ele>44.854457</ele>
        <time>2023-01-07T15:53:05.099Z</time>
      </trkpt>
      <trkpt lat="43.29285" lon="3.32926">
        <ele>44.84067</ele>
        <time>2023-01-07T15:53:08.090Z</time>
      </trkpt>
      <trkpt lat="43.29293" lon="3.32915">
        <ele>44.825606</ele>
        <time>2023-01-07T15:53:11.092Z</time>
      </trkpt>
      <trkpt lat="43.29301" lon="3.32904">
        <ele>44.810713</ele>
        <time>2023-01-07T15:53:14.089Z</time>
      </trkpt>
      <trkpt lat="43.2931" lon="3.32892">
        <ele>44.794151</ele>
        <time>2023-01-07T15:53:17.087Z</time>
      </trkpt>
      <trkpt lat="43.29319" lon="3.3288">
        <ele>44.767789</ele>
        <time>2023-01-07T15:53:20.085Z</time>
      </trkpt>
      <trkpt lat="43.29327" lon="3.32867">
        <ele>44.706615</ele>
        <time>2023-01-07T15:53:23.090Z</time>
      </trkpt>
      <trkpt lat="43.29335" lon="3.32856">
        <ele>44.65057</ele>
        <time>2023-01-07T15:53:26.090Z</time>
      </trkpt>
      <trkpt lat="43.29342" lon="3.32845">
        <ele>44.598993</ele>
        <time>2023-01-07T15:53:29.089Z</time>
      </trkpt>
      <trkpt lat="43.29349" lon="3.32836">
        <ele>44.553002</ele>
        <time>2023-01-07T15:53:32.085Z</time>
      </trkpt>
      <trkpt lat="43.29355" lon="3.32826">
        <ele>44.503486</ele>
        <time>2023-01-07T15:53:35.089Z</time>
      </trkpt>
      <trkpt lat="43.29362" lon="3.32816">
        <ele>44.45311</ele>
        <time>2023-01-07T15:53:38.089Z</time>
      </trkpt>
      <trkpt lat="43.2937" lon="3.32804">
        <ele>44.396911</ele>
        <time>2023-01-07T15:53:42.095Z</time>
      </trkpt>
      <trkpt lat="43.29373" lon="3.32791">
        <ele>44.349797</ele>
        <time>2023-01-07T15:53:46.088Z</time>
      </trkpt>
      <trkpt lat="43.29375" lon="3.32779">
        <ele>44.303466</ele>
        <time>2023-01-07T15:53:51.092Z</time>
      </trkpt>
      <trkpt lat="43.29383" lon="3.32771">
        <ele>44.254616</ele>
        <time>2023-01-07T15:53:56.081Z</time>
      </trkpt>
      <trkpt lat="43.29392" lon="3.32767">
        <ele>44.208272</ele>
        <time>2023-01-07T15:54:01.093Z</time>
      </trkpt>
      <trkpt lat="43.29409" lon="3.3277">
        <ele>44.122917</ele>
        <time>2023-01-07T15:54:30.096Z</time>
      </trkpt>
      <trkpt lat="43.29419" lon="3.32771">
        <ele>44.076419</ele>
        <time>2023-01-07T15:54:34.094Z</time>
      </trkpt>
      <trkpt lat="43.29428" lon="3.32766">
        <ele>44.027337</ele>
        <time>2023-01-07T15:54:39.088Z</time>
      </trkpt>
      <trkpt lat="43.29437" lon="3.3276">
        <ele>43.978707</ele>
        <time>2023-01-07T15:54:45.085Z</time>
      </trkpt>
      <trkpt lat="43.29446" lon="3.32764">
        <ele>43.931197</ele>
        <time>2023-01-07T15:54:56.088Z</time>
      </trkpt>
      <trkpt lat="43.29454" lon="3.32771">
        <ele>43.898561</ele>
        <time>2023-01-07T15:55:00.089Z</time>
      </trkpt>
      <trkpt lat="43.29461" lon="3.32778">
        <ele>43.933532</ele>
        <time>2023-01-07T15:55:04.095Z</time>
      </trkpt>
      <trkpt lat="43.29471" lon="3.3277">
        <ele>43.974763</ele>
        <time>2023-01-07T15:55:09.084Z</time>
      </trkpt>
      <trkpt lat="43.29475" lon="3.32756">
        <ele>44.018311</ele>
        <time>2023-01-07T15:55:13.084Z</time>
      </trkpt>
      <trkpt lat="43.29479" lon="3.32743">
        <ele>44.056989</ele>
        <time>2023-01-07T15:55:16.090Z</time>
      </trkpt>
      <trkpt lat="43.29483" lon="3.32729">
        <ele>44.09651</ele>
        <time>2023-01-07T15:55:19.105Z</time>
      </trkpt>
      <trkpt lat="43.29487" lon="3.32717">
        <ele>44.133639</ele>
        <time>2023-01-07T15:55:22.089Z</time>
      </trkpt>
      <trkpt lat="43.2949" lon="3.32704">
        <ele>44.169608</ele>
        <time>2023-01-07T15:55:25.103Z</time>
      </trkpt>
      <trkpt lat="43.29493" lon="3.32691">
        <ele>44.208388</ele>
        <time>2023-01-07T15:55:28.092Z</time>
      </trkpt>
      <trkpt lat="43.29496" lon="3.32678">
        <ele>44.243758</ele>
        <time>2023-01-07T15:55:31.098Z</time>
      </trkpt>
      <trkpt lat="43.29499" lon="3.32666">
        <ele>44.280766</ele>
        <time>2023-01-07T15:55:34.090Z</time>
      </trkpt>
      <trkpt lat="43.29502" lon="3.32653">
        <ele>44.317185</ele>
        <time>2023-01-07T15:55:37.092Z</time>
      </trkpt>
      <trkpt lat="43.29506" lon="3.32639">
        <ele>44.356862</ele>
        <time>2023-01-07T15:55:40.094Z</time>
      </trkpt>
      <trkpt lat="43.29511" lon="3.32627">
        <ele>44.395362</ele>
        <time>2023-01-07T15:55:43.091Z</time>
      </trkpt>
      <trkpt lat="43.29516" lon="3.32615">
        <ele>44.434955</ele>
        <time>2023-01-07T15:55:46.091Z</time>
      </trkpt>
      <trkpt lat="43.29522" lon="3.32602">
        <ele>44.475728</ele>
        <time>2023-01-07T15:55:49.094Z</time>
      </trkpt>
      <trkpt lat="43.29528" lon="3.32589">
        <ele>44.516932</ele>
        <time>2023-01-07T15:55:52.089Z</time>
      </trkpt>
      <trkpt lat="43.29534" lon="3.32577">
        <ele>44.557832</ele>
        <time>2023-01-07T15:55:55.086Z</time>
      </trkpt>
      <trkpt lat="43.2954" lon="3.32564">
        <ele>44.519608</ele>
        <time>2023-01-07T15:55:58.084Z</time>
      </trkpt>
      <trkpt lat="43.29546" lon="3.32552">
        <ele>44.459806</ele>
        <time>2023-01-07T15:56:01.106Z</time>
      </trkpt>
      <trkpt lat="43.29551" lon="3.32539">
        <ele>44.399894</ele>
        <time>2023-01-07T15:56:04.087Z</time>
      </trkpt>
      <trkpt lat="43.29558" lon="3.32531">
        <ele>44.347378</ele>
        <time>2023-01-07T15:56:07.098Z</time>
      </trkpt>
      <trkpt lat="43.29567" lon="3.3253">
        <ele>44.294967</ele>
        <time>2023-01-07T15:56:10.087Z</time>
      </trkpt>
      <trkpt lat="43.29575" lon="3.32537">
        <ele>44.24181</ele>
        <time>2023-01-07T15:56:14.089Z</time>
      </trkpt>
      <trkpt lat="43.29585" lon="3.3254">
        <ele>44.181438</ele>
        <time>2023-01-07T15:56:18.084Z</time>
      </trkpt>
      <trkpt lat="43.29595" lon="3.32545">
        <ele>44.123713</ele>
        <time>2023-01-07T15:56:21.089Z</time>
      </trkpt>
      <trkpt lat="43.29605" lon="3.3255">
        <ele>44.063336</ele>
        <time>2023-01-07T15:56:24.088Z</time>
      </trkpt>
      <trkpt lat="43.29614" lon="3.32556">
        <ele>44.004116</ele>
        <time>2023-01-07T15:56:27.089Z</time>
      </trkpt>
      <trkpt lat="43.29623" lon="3.32561">
        <ele>43.950709</ele>
        <time>2023-01-07T15:56:30.106Z</time>
      </trkpt>
      <trkpt lat="43.29631" lon="3.32565">
        <ele>43.898965</ele>
        <time>2023-01-07T15:56:33.091Z</time>
      </trkpt>
      <trkpt lat="43.29641" lon="3.3257">
        <ele>43.841981</ele>
        <time>2023-01-07T15:56:36.094Z</time>
      </trkpt>
      <trkpt lat="43.2965" lon="3.32575">
        <ele>43.78273</ele>
        <time>2023-01-07T15:56:39.089Z</time>
      </trkpt>
      <trkpt lat="43.2966" lon="3.32582">
        <ele>43.720883</ele>
        <time>2023-01-07T15:56:42.081Z</time>
      </trkpt>
      <trkpt lat="43.2967" lon="3.32586">
        <ele>43.660342</ele>
        <time>2023-01-07T15:56:45.091Z</time>
      </trkpt>
      <trkpt lat="43.2968" lon="3.3259">
        <ele>43.602446</ele>
        <time>2023-01-07T15:56:48.093Z</time>
      </trkpt>
      <trkpt lat="43.29689" lon="3.32593">
        <ele>43.546625</ele>
        <time>2023-01-07T15:56:51.088Z</time>
      </trkpt>
      <trkpt lat="43.297" lon="3.32599">
        <ele>43.50127</ele>
        <time>2023-01-07T15:56:55.090Z</time>
      </trkpt>
      <trkpt lat="43.29711" lon="3.32604">
        <ele>43.455837</ele>
        <time>2023-01-07T15:56:59.097Z</time>
      </trkpt>
      <trkpt lat="43.29722" lon="3.32613">
        <ele>43.409249</ele>
        <time>2023-01-07T15:57:03.089Z</time>
      </trkpt>
      <trkpt lat="43.29729" lon="3.32622">
        <ele>43.368585</ele>
        <time>2023-01-07T15:57:06.095Z</time>
      </trkpt>
      <trkpt lat="43.29737" lon="3.32632">
        <ele>43.328015</ele>
        <time>2023-01-07T15:57:09.095Z</time>
      </trkpt>
      <trkpt lat="43.29746" lon="3.32643">
        <ele>43.281488</ele>
        <time>2023-01-07T15:57:12.091Z</time>
      </trkpt>
      <trkpt lat="43.29754" lon="3.32652">
        <ele>43.242117</ele>
        <time>2023-01-07T15:57:15.082Z</time>
      </trkpt>
      <trkpt lat="43.29762" lon="3.32661">
        <ele>43.203442</ele>
        <time>2023-01-07T15:57:18.090Z</time>
      </trkpt>
      <trkpt lat="43.29769" lon="3.3267">
        <ele>43.163629</ele>
        <time>2023-01-07T15:57:21.092Z</time>
      </trkpt>
      <trkpt lat="43.29777" lon="3.32681">
        <ele>43.119682</ele>
        <time>2023-01-07T15:57:24.094Z</time>
      </trkpt>
      <trkpt lat="43.29786" lon="3.32692">
        <ele>43.075407</ele>
        <time>2023-01-07T15:57:27.090Z</time>
      </trkpt>
      <trkpt lat="43.29794" lon="3.32702">
        <ele>43.031785</ele>
        <time>2023-01-07T15:57:30.089Z</time>
      </trkpt>
      <trkpt lat="43.29804" lon="3.32712">
        <ele>42.984742</ele>
        <time>2023-01-07T15:57:33.083Z</time>
      </trkpt>
      <trkpt lat="43.29813" lon="3.32724">
        <ele>42.936347</ele>
        <time>2023-01-07T15:57:36.090Z</time>
      </trkpt>
      <trkpt lat="43.29822" lon="3.32736">
        <ele>42.887872</ele>
        <time>2023-01-07T15:57:39.091Z</time>
      </trkpt>
      <trkpt lat="43.29829" lon="3.32745">
        <ele>42.852901</ele>
        <time>2023-01-07T15:57:41.095Z</time>
      </trkpt>
      <trkpt lat="43.29835" lon="3.32753">
        <ele>42.76448</ele>
        <time>2023-01-07T15:57:43.084Z</time>
      </trkpt>
      <trkpt lat="43.29845" lon="3.32765">
        <ele>42.62239</ele>
        <time>2023-01-07T15:57:46.081Z</time>
      </trkpt>
      <trkpt lat="43.29854" lon="3.32778">
        <ele>42.480713</ele>
        <time>2023-01-07T15:57:49.099Z</time>
      </trkpt>
      <trkpt lat="43.29864" lon="3.3279">
        <ele>42.341009</ele>
        <time>2023-01-07T15:57:52.091Z</time>
      </trkpt>
      <trkpt lat="43.29873" lon="3.32801">
        <ele>42.209003</ele>
        <time>2023-01-07T15:57:55.087Z</time>
      </trkpt>
      <trkpt lat="43.29882" lon="3.32812">
        <ele>42.079075</ele>
        <time>2023-01-07T15:57:58.095Z</time>
      </trkpt>
      <trkpt lat="43.29891" lon="3.32824">
        <ele>41.943334</ele>
        <time>2023-01-07T15:58:01.099Z</time>
      </trkpt>
      <trkpt lat="43.299" lon="3.32836">
        <ele>41.808258</ele>
        <time>2023-01-07T15:58:04.094Z</time>
      </trkpt>
      <trkpt lat="43.29909" lon="3.32848">
        <ele>41.669223</ele>
        <time>2023-01-07T15:58:07.100Z</time>
      </trkpt>
      <trkpt lat="43.29918" lon="3.32861">
        <ele>41.530756</ele>
        <time>2023-01-07T15:58:10.085Z</time>
      </trkpt>
      <trkpt lat="43.29926" lon="3.32874">
        <ele>41.393459</ele>
        <time>2023-01-07T15:58:13.083Z</time>
      </trkpt>
      <trkpt lat="43.29932" lon="3.32884">
        <ele>41.296141</ele>
        <time>2023-01-07T15:58:15.095Z</time>
      </trkpt>
      <trkpt lat="43.29939" lon="3.32898">
        <ele>41.157517</ele>
        <time>2023-01-07T15:58:18.087Z</time>
      </trkpt>
      <trkpt lat="43.29945" lon="3.32913">
        <ele>41.029919</ele>
        <time>2023-01-07T15:58:21.096Z</time>
      </trkpt>
      <trkpt lat="43.29949" lon="3.32925">
        <ele>40.922365</ele>
        <time>2023-01-07T15:58:24.101Z</time>
      </trkpt>
      <trkpt lat="43.29955" lon="3.32935">
        <ele>41.029047</ele>
        <time>2023-01-07T15:58:28.089Z</time>
      </trkpt>
      <trkpt lat="43.29964" lon="3.32951">
        <ele>41.255906</ele>
        <time>2023-01-07T15:59:18.104Z</time>
      </trkpt>
      <trkpt lat="43.29969" lon="3.32964">
        <ele>41.424155</ele>
        <time>2023-01-07T15:59:22.082Z</time>
      </trkpt>
      <trkpt lat="43.29976" lon="3.32976">
        <ele>41.596568</ele>
        <time>2023-01-07T15:59:26.083Z</time>
      </trkpt>
      <trkpt lat="43.29981" lon="3.3299">
        <ele>41.773016</ele>
        <time>2023-01-07T15:59:30.101Z</time>
      </trkpt>
      <trkpt lat="43.29984" lon="3.33002">
        <ele>41.918446</ele>
        <time>2023-01-07T15:59:33.094Z</time>
      </trkpt>
      <trkpt lat="43.29988" lon="3.33016">
        <ele>42.092222</ele>
        <time>2023-01-07T15:59:37.084Z</time>
      </trkpt>
      <trkpt lat="43.29994" lon="3.3303">
        <ele>42.271624</ele>
        <time>2023-01-07T15:59:41.096Z</time>
      </trkpt>
      <trkpt lat="43.29997" lon="3.33041">
        <ele>42.415856</ele>
        <time>2023-01-07T15:59:44.082Z</time>
      </trkpt>
      <trkpt lat="43.30002" lon="3.33054">
        <ele>42.574246</ele>
        <time>2023-01-07T15:59:47.101Z</time>
      </trkpt>
      <trkpt lat="43.30006" lon="3.33067">
        <ele>42.737417</ele>
        <time>2023-01-07T15:59:50.087Z</time>
      </trkpt>
      <trkpt lat="43.3001" lon="3.3308">
        <ele>42.89749</ele>
        <time>2023-01-07T15:59:53.092Z</time>
      </trkpt>
      <trkpt lat="43.30014" lon="3.33092">
        <ele>43.049704</ele>
        <time>2023-01-07T15:59:56.089Z</time>
      </trkpt>
      <trkpt lat="43.30021" lon="3.33105">
        <ele>43.229655</ele>
        <time>2023-01-07T16:00:00.091Z</time>
      </trkpt>
      <trkpt lat="43.30026" lon="3.3312">
        <ele>43.416447</ele>
        <time>2023-01-07T16:00:04.103Z</time>
      </trkpt>
      <trkpt lat="43.30032" lon="3.33134">
        <ele>43.601556</ele>
        <time>2023-01-07T16:00:08.097Z</time>
      </trkpt>
      <trkpt lat="43.30035" lon="3.33146">
        <ele>43.703877</ele>
        <time>2023-01-07T16:00:11.101Z</time>
      </trkpt>
      <trkpt lat="43.30037" lon="3.33162">
        <ele>43.663354</ele>
        <time>2023-01-07T16:00:15.092Z</time>
      </trkpt>
      <trkpt lat="43.30035" lon="3.33177">
        <ele>43.625642</ele>
        <time>2023-01-07T16:00:19.101Z</time>
      </trkpt>
      <trkpt lat="43.30034" lon="3.33192">
        <ele>43.588819</ele>
        <time>2023-01-07T16:00:24.092Z</time>
      </trkpt>
      <trkpt lat="43.30032" lon="3.33204">
        <ele>43.557089</ele>
        <time>2023-01-07T16:00:28.104Z</time>
      </trkpt>
      <trkpt lat="43.30032" lon="3.33217">
        <ele>43.526543</ele>
        <time>2023-01-07T16:00:32.096Z</time>
      </trkpt>
      <trkpt lat="43.30023" lon="3.33231">
        <ele>43.479667</ele>
        <time>2023-01-07T16:01:15.118Z</time>
      </trkpt>
      <trkpt lat="43.30011" lon="3.33234">
        <ele>43.440174</ele>
        <time>2023-01-07T16:01:19.095Z</time>
      </trkpt>
      <trkpt lat="43.30002" lon="3.33237">
        <ele>43.408348</ele>
        <time>2023-01-07T16:01:22.089Z</time>
      </trkpt>
      <trkpt lat="43.29991" lon="3.3324">
        <ele>43.369564</ele>
        <time>2023-01-07T16:01:26.096Z</time>
      </trkpt>
      <trkpt lat="43.29979" lon="3.33243">
        <ele>43.32803</ele>
        <time>2023-01-07T16:01:30.095Z</time>
      </trkpt>
      <trkpt lat="43.29968" lon="3.33246">
        <ele>43.291102</ele>
        <time>2023-01-07T16:01:33.103Z</time>
      </trkpt>
      <trkpt lat="43.29957" lon="3.33249">
        <ele>43.253938</ele>
        <time>2023-01-07T16:01:36.086Z</time>
      </trkpt>
      <trkpt lat="43.29945" lon="3.33254">
        <ele>43.212202</ele>
        <time>2023-01-07T16:01:39.098Z</time>
      </trkpt>
      <trkpt lat="43.29937" lon="3.33257">
        <ele>43.180613</ele>
        <time>2023-01-07T16:01:41.105Z</time>
      </trkpt>
      <trkpt lat="43.29927" lon="3.33262">
        <ele>43.146385</ele>
        <time>2023-01-07T16:01:43.093Z</time>
      </trkpt>
      <trkpt lat="43.29914" lon="3.33267">
        <ele>43.101853</ele>
        <time>2023-01-07T16:01:46.101Z</time>
      </trkpt>
      <trkpt lat="43.29905" lon="3.33273">
        <ele>43.043868</ele>
        <time>2023-01-07T16:01:48.096Z</time>
      </trkpt>
      <trkpt lat="43.29893" lon="3.33279">
        <ele>42.970879</ele>
        <time>2023-01-07T16:01:51.108Z</time>
      </trkpt>
      <trkpt lat="43.29881" lon="3.33286">
        <ele>42.892135</ele>
        <time>2023-01-07T16:01:54.105Z</time>
      </trkpt>
      <trkpt lat="43.29872" lon="3.33291">
        <ele>42.83707</ele>
        <time>2023-01-07T16:01:56.086Z</time>
      </trkpt>
      <trkpt lat="43.29862" lon="3.33296">
        <ele>42.779246</ele>
        <time>2023-01-07T16:01:58.084Z</time>
      </trkpt>
      <trkpt lat="43.29853" lon="3.333">
        <ele>42.722888</ele>
        <time>2023-01-07T16:02:00.104Z</time>
      </trkpt>
      <trkpt lat="43.29844" lon="3.33304">
        <ele>42.668844</ele>
        <time>2023-01-07T16:02:02.093Z</time>
      </trkpt>
      <trkpt lat="43.29834" lon="3.3331">
        <ele>42.609749</ele>
        <time>2023-01-07T16:02:04.091Z</time>
      </trkpt>
      <trkpt lat="43.29825" lon="3.33315">
        <ele>42.550711</ele>
        <time>2023-01-07T16:02:06.092Z</time>
      </trkpt>
      <trkpt lat="43.29816" lon="3.33319">
        <ele>42.497082</ele>
        <time>2023-01-07T16:02:08.092Z</time>
      </trkpt>
      <trkpt lat="43.29807" lon="3.33324">
        <ele>42.443162</ele>
        <time>2023-01-07T16:02:10.097Z</time>
      </trkpt>
      <trkpt lat="43.29798" lon="3.3333">
        <ele>42.387623</ele>
        <time>2023-01-07T16:02:12.098Z</time>
      </trkpt>
      <trkpt lat="43.29787" lon="3.33337">
        <ele>42.31349</ele>
        <time>2023-01-07T16:02:15.094Z</time>
      </trkpt>
      <trkpt lat="43.29778" lon="3.33341">
        <ele>42.261705</ele>
        <time>2023-01-07T16:02:17.100Z</time>
      </trkpt>
      <trkpt lat="43.2977" lon="3.33347">
        <ele>42.206841</ele>
        <time>2023-01-07T16:02:19.087Z</time>
      </trkpt>
      <trkpt lat="43.29761" lon="3.33354">
        <ele>42.15199</ele>
        <time>2023-01-07T16:02:21.086Z</time>
      </trkpt>
      <trkpt lat="43.29753" lon="3.33361">
        <ele>42.096649</ele>
        <time>2023-01-07T16:02:23.081Z</time>
      </trkpt>
      <trkpt lat="43.29745" lon="3.33367">
        <ele>42.124684</ele>
        <time>2023-01-07T16:02:25.083Z</time>
      </trkpt>
      <trkpt lat="43.29734" lon="3.33377">
        <ele>42.252907</ele>
        <time>2023-01-07T16:02:28.081Z</time>
      </trkpt>
      <trkpt lat="43.29724" lon="3.33385">
        <ele>42.373126</ele>
        <time>2023-01-07T16:02:31.094Z</time>
      </trkpt>
      <trkpt lat="43.29714" lon="3.33393">
        <ele>42.490652</ele>
        <time>2023-01-07T16:02:34.095Z</time>
      </trkpt>
      <trkpt lat="43.29704" lon="3.33404">
        <ele>42.61826</ele>
        <time>2023-01-07T16:02:37.088Z</time>
      </trkpt>
      <trkpt lat="43.29694" lon="3.33415">
        <ele>42.751264</ele>
        <time>2023-01-07T16:02:40.091Z</time>
      </trkpt>
      <trkpt lat="43.29687" lon="3.33423">
        <ele>42.842161</ele>
        <time>2023-01-07T16:02:42.088Z</time>
      </trkpt>
      <trkpt lat="43.2968" lon="3.33432">
        <ele>42.933521</ele>
        <time>2023-01-07T16:02:44.099Z</time>
      </trkpt>
      <trkpt lat="43.29676" lon="3.33444">
        <ele>43.030165</ele>
        <time>2023-01-07T16:02:46.083Z</time>
      </trkpt>
      <trkpt lat="43.2967" lon="3.33453">
        <ele>43.123359</ele>
        <time>2023-01-07T16:02:48.094Z</time>
      </trkpt>
      <trkpt lat="43.29664" lon="3.33464">
        <ele>43.217568</ele>
        <time>2023-01-07T16:02:50.093Z</time>
      </trkpt>
      <trkpt lat="43.2966" lon="3.33475">
        <ele>43.310404</ele>
        <time>2023-01-07T16:02:52.102Z</time>
      </trkpt>
      <trkpt lat="43.29654" lon="3.33486">
        <ele>43.406517</ele>
        <time>2023-01-07T16:02:54.089Z</time>
      </trkpt>
      <trkpt lat="43.2965" lon="3.33497">
        <ele>43.498343</ele>
        <time>2023-01-07T16:02:56.091Z</time>
      </trkpt>
      <trkpt lat="43.29645" lon="3.33508">
        <ele>43.592729</ele>
        <time>2023-01-07T16:02:58.094Z</time>
      </trkpt>
      <trkpt lat="43.29641" lon="3.3352">
        <ele>43.692111</ele>
        <time>2023-01-07T16:03:00.090Z</time>
      </trkpt>
      <trkpt lat="43.29636" lon="3.33532">
        <ele>43.790199</ele>
        <time>2023-01-07T16:03:02.097Z</time>
      </trkpt>
      <trkpt lat="43.29632" lon="3.33543">
        <ele>43.883412</ele>
        <time>2023-01-07T16:03:04.098Z</time>
      </trkpt>
      <trkpt lat="43.29629" lon="3.33555">
        <ele>43.964648</ele>
        <time>2023-01-07T16:03:06.100Z</time>
      </trkpt>
      <trkpt lat="43.29625" lon="3.33567">
        <ele>44.047646</ele>
        <time>2023-01-07T16:03:08.099Z</time>
      </trkpt>
      <trkpt lat="43.29622" lon="3.33579">
        <ele>44.129642</ele>
        <time>2023-01-07T16:03:10.095Z</time>
      </trkpt>
      <trkpt lat="43.29618" lon="3.33591">
        <ele>44.216283</ele>
        <time>2023-01-07T16:03:12.094Z</time>
      </trkpt>
      <trkpt lat="43.29615" lon="3.33604">
        <ele>44.304025</ele>
        <time>2023-01-07T16:03:14.098Z</time>
      </trkpt>
      <trkpt lat="43.29612" lon="3.33617">
        <ele>44.388786</ele>
        <time>2023-01-07T16:03:16.098Z</time>
      </trkpt>
      <trkpt lat="43.29609" lon="3.33629">
        <ele>44.471801</ele>
        <time>2023-01-07T16:03:18.093Z</time>
      </trkpt>
      <trkpt lat="43.29606" lon="3.33642">
        <ele>44.555074</ele>
        <time>2023-01-07T16:03:20.106Z</time>
      </trkpt>
      <trkpt lat="43.29604" lon="3.33654">
        <ele>44.639692</ele>
        <time>2023-01-07T16:03:22.093Z</time>
      </trkpt>
      <trkpt lat="43.29601" lon="3.33667">
        <ele>44.724878</ele>
        <time>2023-01-07T16:03:24.095Z</time>
      </trkpt>
      <trkpt lat="43.29599" lon="3.33681">
        <ele>44.816533</ele>
        <time>2023-01-07T16:03:26.099Z</time>
      </trkpt>
      <trkpt lat="43.29597" lon="3.33694">
        <ele>44.90336</ele>
        <time>2023-01-07T16:03:28.093Z</time>
      </trkpt>
      <trkpt lat="43.29595" lon="3.33708">
        <ele>44.990844</ele>
        <time>2023-01-07T16:03:30.105Z</time>
      </trkpt>
      <trkpt lat="43.29593" lon="3.33721">
        <ele>45.081557</ele>
        <time>2023-01-07T16:03:32.104Z</time>
      </trkpt>
      <trkpt lat="43.29592" lon="3.33735">
        <ele>45.16604</ele>
        <time>2023-01-07T16:03:34.099Z</time>
      </trkpt>
      <trkpt lat="43.29592" lon="3.33748">
        <ele>45.24944</ele>
        <time>2023-01-07T16:03:36.099Z</time>
      </trkpt>
      <trkpt lat="43.29592" lon="3.3376">
        <ele>45.329658</ele>
        <time>2023-01-07T16:03:38.096Z</time>
      </trkpt>
      <trkpt lat="43.2959" lon="3.33778">
        <ele>45.445813</ele>
        <time>2023-01-07T16:03:41.107Z</time>
      </trkpt>
      <trkpt lat="43.29587" lon="3.33791">
        <ele>45.414938</ele>
        <time>2023-01-07T16:03:43.100Z</time>
      </trkpt>
      <trkpt lat="43.29584" lon="3.33803">
        <ele>45.345596</ele>
        <time>2023-01-07T16:03:45.099Z</time>
      </trkpt>
      <trkpt lat="43.29582" lon="3.33815">
        <ele>45.279869</ele>
        <time>2023-01-07T16:03:47.092Z</time>
      </trkpt>
      <trkpt lat="43.29579" lon="3.33828">
        <ele>45.209727</ele>
        <time>2023-01-07T16:03:49.101Z</time>
      </trkpt>
      <trkpt lat="43.29578" lon="3.33841">
        <ele>45.141767</ele>
        <time>2023-01-07T16:03:51.103Z</time>
      </trkpt>
      <trkpt lat="43.29576" lon="3.33855">
        <ele>45.064755</ele>
        <time>2023-01-07T16:03:53.103Z</time>
      </trkpt>
      <trkpt lat="43.29574" lon="3.33868">
        <ele>44.993489</ele>
        <time>2023-01-07T16:03:55.096Z</time>
      </trkpt>
      <trkpt lat="43.29571" lon="3.3388">
        <ele>44.925153</ele>
        <time>2023-01-07T16:03:57.101Z</time>
      </trkpt>
      <trkpt lat="43.29569" lon="3.33893">
        <ele>44.853365</ele>
        <time>2023-01-07T16:03:59.086Z</time>
      </trkpt>
      <trkpt lat="43.29566" lon="3.33906">
        <ele>44.780804</ele>
        <time>2023-01-07T16:04:01.107Z</time>
      </trkpt>
      <trkpt lat="43.29562" lon="3.33924">
        <ele>44.684478</ele>
        <time>2023-01-07T16:04:04.086Z</time>
      </trkpt>
      <trkpt lat="43.29557" lon="3.3394">
        <ele>44.593471</ele>
        <time>2023-01-07T16:04:07.087Z</time>
      </trkpt>
      <trkpt lat="43.29555" lon="3.33952">
        <ele>44.527831</ele>
        <time>2023-01-07T16:04:09.095Z</time>
      </trkpt>
      <trkpt lat="43.29551" lon="3.33964">
        <ele>44.457606</ele>
        <time>2023-01-07T16:04:11.097Z</time>
      </trkpt>
      <trkpt lat="43.29547" lon="3.33976">
        <ele>44.386045</ele>
        <time>2023-01-07T16:04:13.094Z</time>
      </trkpt>
      <trkpt lat="43.29543" lon="3.33988">
        <ele>44.31459</ele>
        <time>2023-01-07T16:04:15.100Z</time>
      </trkpt>
      <trkpt lat="43.29539" lon="3.34">
        <ele>44.24568</ele>
        <time>2023-01-07T16:04:17.087Z</time>
      </trkpt>
      <trkpt lat="43.29534" lon="3.34012">
        <ele>44.1722</ele>
        <time>2023-01-07T16:04:19.098Z</time>
      </trkpt>
      <trkpt lat="43.2953" lon="3.34024">
        <ele>44.173793</ele>
        <time>2023-01-07T16:04:21.098Z</time>
      </trkpt>
      <trkpt lat="43.29525" lon="3.34035">
        <ele>44.194007</ele>
        <time>2023-01-07T16:04:23.105Z</time>
      </trkpt>
      <trkpt lat="43.2952" lon="3.34046">
        <ele>44.214797</ele>
        <time>2023-01-07T16:04:25.099Z</time>
      </trkpt>
      <trkpt lat="43.29516" lon="3.34058">
        <ele>44.235218</ele>
        <time>2023-01-07T16:04:27.102Z</time>
      </trkpt>
      <trkpt lat="43.29512" lon="3.34069">
        <ele>44.255678</ele>
        <time>2023-01-07T16:04:29.098Z</time>
      </trkpt>
      <trkpt lat="43.29507" lon="3.34081">
        <ele>44.277537</ele>
        <time>2023-01-07T16:04:31.085Z</time>
      </trkpt>
      <trkpt lat="43.29502" lon="3.34093">
        <ele>44.299043</ele>
        <time>2023-01-07T16:04:33.096Z</time>
      </trkpt>
      <trkpt lat="43.29497" lon="3.34105">
        <ele>44.321318</ele>
        <time>2023-01-07T16:04:35.098Z</time>
      </trkpt>
      <trkpt lat="43.29492" lon="3.34118">
        <ele>44.343593</ele>
        <time>2023-01-07T16:04:37.101Z</time>
      </trkpt>
      <trkpt lat="43.29488" lon="3.3413">
        <ele>44.36578</ele>
        <time>2023-01-07T16:04:39.100Z</time>
      </trkpt>
      <trkpt lat="43.29483" lon="3.34142">
        <ele>44.387286</ele>
        <time>2023-01-07T16:04:41.091Z</time>
      </trkpt>
      <trkpt lat="43.29479" lon="3.34153">
        <ele>44.407675</ele>
        <time>2023-01-07T16:04:43.105Z</time>
      </trkpt>
      <trkpt lat="43.29475" lon="3.34165">
        <ele>44.42824</ele>
        <time>2023-01-07T16:04:45.105Z</time>
      </trkpt>
      <trkpt lat="43.2947" lon="3.34177">
        <ele>44.449688</ele>
        <time>2023-01-07T16:04:47.089Z</time>
      </trkpt>
      <trkpt lat="43.29465" lon="3.34189">
        <ele>44.471493</ele>
        <time>2023-01-07T16:04:49.093Z</time>
      </trkpt>
      <trkpt lat="43.29461" lon="3.342">
        <ele>44.492615</ele>
        <time>2023-01-07T16:04:51.087Z</time>
      </trkpt>
      <trkpt lat="43.29454" lon="3.34218">
        <ele>44.523448</ele>
        <time>2023-01-07T16:04:54.089Z</time>
      </trkpt>
      <trkpt lat="43.2945" lon="3.3423">
        <ele>44.545441</ele>
        <time>2023-01-07T16:04:56.085Z</time>
      </trkpt>
      <trkpt lat="43.29446" lon="3.34242">
        <ele>44.509849</ele>
        <time>2023-01-07T16:04:58.085Z</time>
      </trkpt>
      <trkpt lat="43.29442" lon="3.34254">
        <ele>44.461085</ele>
        <time>2023-01-07T16:05:00.099Z</time>
      </trkpt>
      <trkpt lat="43.29437" lon="3.34265">
        <ele>44.409285</ele>
        <time>2023-01-07T16:05:02.092Z</time>
      </trkpt>
      <trkpt lat="43.29432" lon="3.34278">
        <ele>44.351678</ele>
        <time>2023-01-07T16:05:04.086Z</time>
      </trkpt>
      <trkpt lat="43.29427" lon="3.34289">
        <ele>44.298883</ele>
        <time>2023-01-07T16:05:06.091Z</time>
      </trkpt>
      <trkpt lat="43.29422" lon="3.343">
        <ele>44.248943</ele>
        <time>2023-01-07T16:05:08.085Z</time>
      </trkpt>
      <trkpt lat="43.29417" lon="3.34312">
        <ele>44.195722</ele>
        <time>2023-01-07T16:05:10.098Z</time>
      </trkpt>
      <trkpt lat="43.29412" lon="3.34324">
        <ele>44.141192</ele>
        <time>2023-01-07T16:05:12.085Z</time>
      </trkpt>
      <trkpt lat="43.29407" lon="3.34335">
        <ele>44.090343</ele>
        <time>2023-01-07T16:05:14.089Z</time>
      </trkpt>
      <trkpt lat="43.29402" lon="3.34347">
        <ele>44.034029</ele>
        <time>2023-01-07T16:05:16.104Z</time>
      </trkpt>
      <trkpt lat="43.29397" lon="3.34359">
        <ele>43.980208</ele>
        <time>2023-01-07T16:05:18.084Z</time>
      </trkpt>
      <trkpt lat="43.29392" lon="3.34371">
        <ele>43.924791</ele>
        <time>2023-01-07T16:05:20.100Z</time>
      </trkpt>
      <trkpt lat="43.29387" lon="3.34383">
        <ele>43.872349</ele>
        <time>2023-01-07T16:05:22.091Z</time>
      </trkpt>
      <trkpt lat="43.29382" lon="3.34394">
        <ele>43.820455</ele>
        <time>2023-01-07T16:05:24.088Z</time>
      </trkpt>
      <trkpt lat="43.29376" lon="3.34411">
        <ele>43.748032</ele>
        <time>2023-01-07T16:05:27.088Z</time>
      </trkpt>
      <trkpt lat="43.29371" lon="3.34422">
        <ele>43.698589</ele>
        <time>2023-01-07T16:05:29.091Z</time>
      </trkpt>
      <trkpt lat="43.29367" lon="3.34433">
        <ele>43.648299</ele>
        <time>2023-01-07T16:05:31.091Z</time>
      </trkpt>
      <trkpt lat="43.29362" lon="3.34445">
        <ele>43.593832</ele>
        <time>2023-01-07T16:05:33.089Z</time>
      </trkpt>
      <trkpt lat="43.29356" lon="3.34456">
        <ele>43.584416</ele>
        <time>2023-01-07T16:05:35.105Z</time>
      </trkpt>
      <trkpt lat="43.29351" lon="3.34467">
        <ele>43.589685</ele>
        <time>2023-01-07T16:05:37.087Z</time>
      </trkpt>
      <trkpt lat="43.29346" lon="3.34478">
        <ele>43.594982</ele>
        <time>2023-01-07T16:05:39.096Z</time>
      </trkpt>
      <trkpt lat="43.29341" lon="3.3449">
        <ele>43.600252</ele>
        <time>2023-01-07T16:05:41.087Z</time>
      </trkpt>
      <trkpt lat="43.29336" lon="3.34501">
        <ele>43.605301</ele>
        <time>2023-01-07T16:05:43.105Z</time>
      </trkpt>
      <trkpt lat="43.29331" lon="3.34512">
        <ele>43.610548</ele>
        <time>2023-01-07T16:05:45.101Z</time>
      </trkpt>
      <trkpt lat="43.29325" lon="3.34523">
        <ele>43.615723</ele>
        <time>2023-01-07T16:05:47.096Z</time>
      </trkpt>
      <trkpt lat="43.2932" lon="3.34534">
        <ele>43.62097</ele>
        <time>2023-01-07T16:05:49.103Z</time>
      </trkpt>
      <trkpt lat="43.29315" lon="3.34545">
        <ele>43.626014</ele>
        <time>2023-01-07T16:05:51.084Z</time>
      </trkpt>
      <trkpt lat="43.29311" lon="3.34556">
        <ele>43.63108</ele>
        <time>2023-01-07T16:05:53.107Z</time>
      </trkpt>
      <trkpt lat="43.29304" lon="3.34572">
        <ele>43.638386</ele>
        <time>2023-01-07T16:05:56.101Z</time>
      </trkpt>
      <trkpt lat="43.29299" lon="3.34583">
        <ele>43.643637</ele>
        <time>2023-01-07T16:05:58.089Z</time>
      </trkpt>
      <trkpt lat="43.29294" lon="3.34595">
        <ele>43.649132</ele>
        <time>2023-01-07T16:06:00.104Z</time>
      </trkpt>
      <trkpt lat="43.29289" lon="3.34606">
        <ele>43.65417</ele>
        <time>2023-01-07T16:06:02.092Z</time>
      </trkpt>
      <trkpt lat="43.29284" lon="3.34619">
        <ele>43.659782</ele>
        <time>2023-01-07T16:06:04.086Z</time>
      </trkpt>
      <trkpt lat="43.29279" lon="3.34631">
        <ele>43.665233</ele>
        <time>2023-01-07T16:06:07.084Z</time>
      </trkpt>
      <trkpt lat="43.29275" lon="3.34642">
        <ele>43.670185</ele>
        <time>2023-01-07T16:06:10.085Z</time>
      </trkpt>
      <trkpt lat="43.2927" lon="3.34653">
        <ele>43.675414</ele>
        <time>2023-01-07T16:06:13.083Z</time>
      </trkpt>
      <trkpt lat="43.29263" lon="3.34672">
        <ele>43.719871</ele>
        <time>2023-01-07T16:07:58.139Z</time>
      </trkpt>
      <trkpt lat="43.29259" lon="3.34683">
        <ele>43.756731</ele>
        <time>2023-01-07T16:08:01.096Z</time>
      </trkpt>
      <trkpt lat="43.29255" lon="3.34696">
        <ele>43.797331</ele>
        <time>2023-01-07T16:08:04.088Z</time>
      </trkpt>
      <trkpt lat="43.2925" lon="3.34708">
        <ele>43.838658</ele>
        <time>2023-01-07T16:08:07.095Z</time>
      </trkpt>
      <trkpt lat="43.29245" lon="3.34721">
        <ele>43.883415</ele>
        <time>2023-01-07T16:08:10.087Z</time>
      </trkpt>
      <trkpt lat="43.2924" lon="3.34736">
        <ele>43.931047</ele>
        <time>2023-01-07T16:08:13.090Z</time>
      </trkpt>
      <trkpt lat="43.29235" lon="3.34751">
        <ele>43.980688</ele>
        <time>2023-01-07T16:08:16.098Z</time>
      </trkpt>
      <trkpt lat="43.2923" lon="3.34764">
        <ele>44.025094</ele>
        <time>2023-01-07T16:08:19.094Z</time>
      </trkpt>
      <trkpt lat="43.29224" lon="3.34779">
        <ele>44.074677</ele>
        <time>2023-01-07T16:08:22.092Z</time>
      </trkpt>
      <trkpt lat="43.29219" lon="3.34794">
        <ele>44.125562</ele>
        <time>2023-01-07T16:08:25.109Z</time>
      </trkpt>
      <trkpt lat="43.29212" lon="3.34809">
        <ele>44.175926</ele>
        <time>2023-01-07T16:08:28.086Z</time>
      </trkpt>
      <trkpt lat="43.29206" lon="3.34824">
        <ele>44.22687</ele>
        <time>2023-01-07T16:08:31.095Z</time>
      </trkpt>
      <trkpt lat="43.29201" lon="3.3484">
        <ele>44.278478</ele>
        <time>2023-01-07T16:08:34.086Z</time>
      </trkpt>
      <trkpt lat="43.29196" lon="3.34856">
        <ele>44.330202</ele>
        <time>2023-01-07T16:08:37.092Z</time>
      </trkpt>
      <trkpt lat="43.2919" lon="3.34872">
        <ele>44.382867</ele>
        <time>2023-01-07T16:08:40.101Z</time>
      </trkpt>
      <trkpt lat="43.29183" lon="3.34888">
        <ele>44.43302</ele>
        <time>2023-01-07T16:08:43.087Z</time>
      </trkpt>
      <trkpt lat="43.29178" lon="3.34905">
        <ele>44.478537</ele>
        <time>2023-01-07T16:08:46.094Z</time>
      </trkpt>
      <trkpt lat="43.29172" lon="3.34921">
        <ele>44.524019</ele>
        <time>2023-01-07T16:08:49.091Z</time>
      </trkpt>
      <trkpt lat="43.29166" lon="3.34938">
        <ele>44.569581</ele>
        <time>2023-01-07T16:08:52.095Z</time>
      </trkpt>
      <trkpt lat="43.2916" lon="3.34953">
        <ele>44.614041</ele>
        <time>2023-01-07T16:08:55.094Z</time>
      </trkpt>
      <trkpt lat="43.29156" lon="3.34964">
        <ele>44.644808</ele>
        <time>2023-01-07T16:08:57.091Z</time>
      </trkpt>
      <trkpt lat="43.29151" lon="3.34975">
        <ele>44.675486</ele>
        <time>2023-01-07T16:08:59.094Z</time>
      </trkpt>
      <trkpt lat="43.29145" lon="3.34991">
        <ele>44.719852</ele>
        <time>2023-01-07T16:09:02.085Z</time>
      </trkpt>
      <trkpt lat="43.2914" lon="3.35007">
        <ele>44.763469</ele>
        <time>2023-01-07T16:09:05.091Z</time>
      </trkpt>
      <trkpt lat="43.29134" lon="3.35022">
        <ele>44.807613</ele>
        <time>2023-01-07T16:09:08.090Z</time>
      </trkpt>
      <trkpt lat="43.2913" lon="3.35034">
        <ele>44.838556</ele>
        <time>2023-01-07T16:09:10.093Z</time>
      </trkpt>
      <trkpt lat="43.29124" lon="3.3505">
        <ele>44.883587</ele>
        <time>2023-01-07T16:09:13.085Z</time>
      </trkpt>
      <trkpt lat="43.29118" lon="3.35066">
        <ele>44.928619</ele>
        <time>2023-01-07T16:09:16.099Z</time>
      </trkpt>
      <trkpt lat="43.29115" lon="3.35078">
        <ele>44.959805</ele>
        <time>2023-01-07T16:09:18.087Z</time>
      </trkpt>
      <trkpt lat="43.29111" lon="3.3509">
        <ele>44.991795</ele>
        <time>2023-01-07T16:09:20.099Z</time>
      </trkpt>
      <trkpt lat="43.29107" lon="3.35101">
        <ele>45.023479</ele>
        <time>2023-01-07T16:09:22.092Z</time>
      </trkpt>
      <trkpt lat="43.29103" lon="3.35114">
        <ele>45.058696</ele>
        <time>2023-01-07T16:09:24.103Z</time>
      </trkpt>
      <trkpt lat="43.291" lon="3.35127">
        <ele>45.093842</ele>
        <time>2023-01-07T16:09:26.102Z</time>
      </trkpt>
      <trkpt lat="43.29097" lon="3.35139">
        <ele>45.126352</ele>
        <time>2023-01-07T16:09:28.097Z</time>
      </trkpt>
      <trkpt lat="43.29092" lon="3.35156">
        <ele>45.172298</ele>
        <time>2023-01-07T16:09:31.094Z</time>
      </trkpt>
      <trkpt lat="43.29088" lon="3.35171">
        <ele>45.213561</ele>
        <time>2023-01-07T16:09:34.090Z</time>
      </trkpt>
      <trkpt lat="43.29084" lon="3.35188">
        <ele>45.258961</ele>
        <time>2023-01-07T16:09:37.100Z</time>
      </trkpt>
      <trkpt lat="43.29081" lon="3.35204">
        <ele>45.302794</ele>
        <time>2023-01-07T16:09:40.087Z</time>
      </trkpt>
      <trkpt lat="43.29078" lon="3.3522">
        <ele>45.34448</ele>
        <time>2023-01-07T16:09:43.087Z</time>
      </trkpt>
      <trkpt lat="43.29075" lon="3.35236">
        <ele>45.387157</ele>
        <time>2023-01-07T16:09:46.092Z</time>
      </trkpt>
      <trkpt lat="43.29073" lon="3.35254">
        <ele>45.432075</ele>
        <time>2023-01-07T16:09:49.091Z</time>
      </trkpt>
      <trkpt lat="43.29071" lon="3.35272">
        <ele>45.478362</ele>
        <time>2023-01-07T16:09:52.084Z</time>
      </trkpt>
      <trkpt lat="43.2907" lon="3.35285">
        <ele>45.513513</ele>
        <time>2023-01-07T16:09:54.088Z</time>
      </trkpt>
      <trkpt lat="43.29068" lon="3.35298">
        <ele>45.547419</ele>
        <time>2023-01-07T16:09:56.091Z</time>
      </trkpt>
      <trkpt lat="43.29066" lon="3.35312">
        <ele>45.582842</ele>
        <time>2023-01-07T16:09:58.093Z</time>
      </trkpt>
      <trkpt lat="43.29065" lon="3.35325">
        <ele>45.617056</ele>
        <time>2023-01-07T16:10:00.097Z</time>
      </trkpt>
      <trkpt lat="43.29063" lon="3.35344">
        <ele>45.676602</ele>
        <time>2023-01-07T16:10:03.093Z</time>
      </trkpt>
      <trkpt lat="43.29062" lon="3.3536">
        <ele>45.763966</ele>
        <time>2023-01-07T16:10:06.086Z</time>
      </trkpt>
      <trkpt lat="43.29062" lon="3.35374">
        <ele>45.841363</ele>
        <time>2023-01-07T16:10:09.094Z</time>
      </trkpt>
      <trkpt lat="43.2906" lon="3.35388">
        <ele>45.917862</ele>
        <time>2023-01-07T16:10:12.091Z</time>
      </trkpt>
      <trkpt lat="43.29059" lon="3.35401">
        <ele>45.990918</ele>
        <time>2023-01-07T16:10:15.088Z</time>
      </trkpt>
      <trkpt lat="43.29059" lon="3.35414">
        <ele>46.060159</ele>
        <time>2023-01-07T16:10:18.089Z</time>
      </trkpt>
      <trkpt lat="43.29058" lon="3.35427">
        <ele>46.129859</ele>
        <time>2023-01-07T16:10:21.096Z</time>
      </trkpt>
      <trkpt lat="43.29057" lon="3.3544">
        <ele>46.203813</ele>
        <time>2023-01-07T16:10:24.092Z</time>
      </trkpt>
      <trkpt lat="43.29058" lon="3.35456">
        <ele>46.291667</ele>
        <time>2023-01-07T16:10:28.089Z</time>
      </trkpt>
      <trkpt lat="43.29058" lon="3.35471">
        <ele>46.371154</ele>
        <time>2023-01-07T16:10:31.097Z</time>
      </trkpt>
      <trkpt lat="43.29057" lon="3.35487">
        <ele>46.456744</ele>
        <time>2023-01-07T16:10:34.105Z</time>
      </trkpt>
      <trkpt lat="43.29056" lon="3.35503">
        <ele>46.544236</ele>
        <time>2023-01-07T16:10:37.094Z</time>
      </trkpt>
      <trkpt lat="43.29055" lon="3.35519">
        <ele>46.63323</ele>
        <time>2023-01-07T16:10:40.100Z</time>
      </trkpt>
      <trkpt lat="43.29055" lon="3.35536">
        <ele>46.724296</ele>
        <time>2023-01-07T16:10:43.099Z</time>
      </trkpt>
      <trkpt lat="43.29054" lon="3.35553">
        <ele>46.818838</ele>
        <time>2023-01-07T16:10:46.101Z</time>
      </trkpt>
      <trkpt lat="43.29052" lon="3.3557">
        <ele>46.911524</ele>
        <time>2023-01-07T16:10:49.100Z</time>
      </trkpt>
      <trkpt lat="43.29051" lon="3.35587">
        <ele>46.997436</ele>
        <time>2023-01-07T16:10:52.092Z</time>
      </trkpt>
      <trkpt lat="43.2905" lon="3.35604">
        <ele>46.941341</ele>
        <time>2023-01-07T16:10:55.095Z</time>
      </trkpt>
      <trkpt lat="43.29049" lon="3.35622">
        <ele>46.882729</ele>
        <time>2023-01-07T16:10:58.084Z</time>
      </trkpt>
      <trkpt lat="43.29048" lon="3.35634">
        <ele>46.84205</ele>
        <time>2023-01-07T16:11:00.092Z</time>
      </trkpt>
      <trkpt lat="43.29048" lon="3.35647">
        <ele>46.799752</ele>
        <time>2023-01-07T16:11:02.087Z</time>
      </trkpt>
      <trkpt lat="43.29048" lon="3.35661">
        <ele>46.753519</ele>
        <time>2023-01-07T16:11:04.098Z</time>
      </trkpt>
      <trkpt lat="43.29048" lon="3.35676">
        <ele>46.704001</ele>
        <time>2023-01-07T16:11:06.095Z</time>
      </trkpt>
      <trkpt lat="43.29049" lon="3.3569">
        <ele>46.658745</ele>
        <time>2023-01-07T16:11:08.103Z</time>
      </trkpt>
      <trkpt lat="43.29049" lon="3.35704">
        <ele>46.613824</ele>
        <time>2023-01-07T16:11:10.104Z</time>
      </trkpt>
      <trkpt lat="43.29049" lon="3.35717">
        <ele>46.568848</ele>
        <time>2023-01-07T16:11:12.091Z</time>
      </trkpt>
      <trkpt lat="43.2905" lon="3.3573">
        <ele>46.528129</ele>
        <time>2023-01-07T16:11:14.084Z</time>
      </trkpt>
      <trkpt lat="43.2905" lon="3.35748">
        <ele>46.469329</ele>
        <time>2023-01-07T16:11:17.091Z</time>
      </trkpt>
      <trkpt lat="43.2905" lon="3.35765">
        <ele>46.412606</ele>
        <time>2023-01-07T16:11:20.097Z</time>
      </trkpt>
      <trkpt lat="43.2905" lon="3.35782">
        <ele>46.35621</ele>
        <time>2023-01-07T16:11:23.098Z</time>
      </trkpt>
      <trkpt lat="43.29051" lon="3.35799">
        <ele>46.301596</ele>
        <time>2023-01-07T16:11:26.088Z</time>
      </trkpt>
      <trkpt lat="43.29052" lon="3.35813">
        <ele>46.254244</ele>
        <time>2023-01-07T16:11:29.105Z</time>
      </trkpt>
      <trkpt lat="43.29053" lon="3.35827">
        <ele>46.210303</ele>
        <time>2023-01-07T16:11:32.096Z</time>
      </trkpt>
      <trkpt lat="43.29054" lon="3.3584">
        <ele>46.165746</ele>
        <time>2023-01-07T16:11:37.101Z</time>
      </trkpt>
      <trkpt lat="43.29055" lon="3.35855">
        <ele>46.118232</ele>
        <time>2023-01-07T16:11:42.087Z</time>
      </trkpt>
      <trkpt lat="43.29056" lon="3.3587">
        <ele>46.071264</ele>
        <time>2023-01-07T16:11:46.088Z</time>
      </trkpt>
      <trkpt lat="43.29057" lon="3.35886">
        <ele>46.018974</ele>
        <time>2023-01-07T16:11:50.090Z</time>
      </trkpt>
      <trkpt lat="43.29058" lon="3.359">
        <ele>45.972944</ele>
        <time>2023-01-07T16:11:53.097Z</time>
      </trkpt>
      <trkpt lat="43.29059" lon="3.35916">
        <ele>45.922589</ele>
        <time>2023-01-07T16:11:56.087Z</time>
      </trkpt>
      <trkpt lat="43.29059" lon="3.35932">
        <ele>45.87153</ele>
        <time>2023-01-07T16:11:59.105Z</time>
      </trkpt>
      <trkpt lat="43.29061" lon="3.35947">
        <ele>45.822864</ele>
        <time>2023-01-07T16:12:02.094Z</time>
      </trkpt>
      <trkpt lat="43.29062" lon="3.35961">
        <ele>45.775579</ele>
        <time>2023-01-07T16:12:05.099Z</time>
      </trkpt>
      <trkpt lat="43.29063" lon="3.35977">
        <ele>45.726463</ele>
        <time>2023-01-07T16:12:08.099Z</time>
      </trkpt>
      <trkpt lat="43.29064" lon="3.35992">
        <ele>45.676318</ele>
        <time>2023-01-07T16:12:11.096Z</time>
      </trkpt>
      <trkpt lat="43.29066" lon="3.36007">
        <ele>45.629604</ele>
        <time>2023-01-07T16:12:14.095Z</time>
      </trkpt>
      <trkpt lat="43.29068" lon="3.3602">
        <ele>45.584479</ele>
        <time>2023-01-07T16:12:17.105Z</time>
      </trkpt>
      <trkpt lat="43.2907" lon="3.36032">
        <ele>45.544374</ele>
        <time>2023-01-07T16:12:20.096Z</time>
      </trkpt>
      <trkpt lat="43.29072" lon="3.36049">
        <ele>45.490579</ele>
        <time>2023-01-07T16:12:24.099Z</time>
      </trkpt>
      <trkpt lat="43.29074" lon="3.36064">
        <ele>45.440375</ele>
        <time>2023-01-07T16:12:27.109Z</time>
      </trkpt>
      <trkpt lat="43.29076" lon="3.36083">
        <ele>45.363726</ele>
        <time>2023-01-07T16:12:30.103Z</time>
      </trkpt>
      <trkpt lat="43.29078" lon="3.36096">
        <ele>45.27673</ele>
        <time>2023-01-07T16:12:32.097Z</time>
      </trkpt>
      <trkpt lat="43.29078" lon="3.36111">
        <ele>45.176235</ele>
        <time>2023-01-07T16:12:35.101Z</time>
      </trkpt>
      <trkpt lat="43.29077" lon="3.36124">
        <ele>45.09204</ele>
        <time>2023-01-07T16:12:38.099Z</time>
      </trkpt>
      <trkpt lat="43.29075" lon="3.36138">
        <ele>44.992717</ele>
        <time>2023-01-07T16:12:43.087Z</time>
      </trkpt>
      <trkpt lat="43.29071" lon="3.36153">
        <ele>44.888844</ele>
        <time>2023-01-07T16:12:47.088Z</time>
      </trkpt>
      <trkpt lat="43.29065" lon="3.36166">
        <ele>44.782087</ele>
        <time>2023-01-07T16:12:50.092Z</time>
      </trkpt>
      <trkpt lat="43.29057" lon="3.36178">
        <ele>44.675325</ele>
        <time>2023-01-07T16:12:53.103Z</time>
      </trkpt>
      <trkpt lat="43.2905" lon="3.36186">
        <ele>44.593326</ele>
        <time>2023-01-07T16:12:55.098Z</time>
      </trkpt>
      <trkpt lat="43.29039" lon="3.36195">
        <ele>44.478719</ele>
        <time>2023-01-07T16:12:58.087Z</time>
      </trkpt>
      <trkpt lat="43.29028" lon="3.36201">
        <ele>44.374075</ele>
        <time>2023-01-07T16:13:01.086Z</time>
      </trkpt>
      <trkpt lat="43.29017" lon="3.36207">
        <ele>44.269059</ele>
        <time>2023-01-07T16:13:04.131Z</time>
      </trkpt>
      <trkpt lat="43.29007" lon="3.36211">
        <ele>44.167487</ele>
        <time>2023-01-07T16:13:07.093Z</time>
      </trkpt>
      <trkpt lat="43.28996" lon="3.36216">
        <ele>44.062033</ele>
        <time>2023-01-07T16:13:10.094Z</time>
      </trkpt>
      <trkpt lat="43.28984" lon="3.36221">
        <ele>43.952505</ele>
        <time>2023-01-07T16:13:13.084Z</time>
      </trkpt>
      <trkpt lat="43.28972" lon="3.36226">
        <ele>43.838163</ele>
        <time>2023-01-07T16:13:16.089Z</time>
      </trkpt>
      <trkpt lat="43.2896" lon="3.36229">
        <ele>43.774292</ele>
        <time>2023-01-07T16:13:19.104Z</time>
      </trkpt>
      <trkpt lat="43.28949" lon="3.36233">
        <ele>43.792886</ele>
        <time>2023-01-07T16:13:22.090Z</time>
      </trkpt>
      <trkpt lat="43.28938" lon="3.36237">
        <ele>43.810791</ele>
        <time>2023-01-07T16:13:25.086Z</time>
      </trkpt>
      <trkpt lat="43.28925" lon="3.36252">
        <ele>43.839664</ele>
        <time>2023-01-07T16:14:12.103Z</time>
      </trkpt>
      <trkpt lat="43.28926" lon="3.36266">
        <ele>43.856127</ele>
        <time>2023-01-07T16:14:17.093Z</time>
      </trkpt>
      <trkpt lat="43.28932" lon="3.36278">
        <ele>43.873733</ele>
        <time>2023-01-07T16:14:21.088Z</time>
      </trkpt>
      <trkpt lat="43.2894" lon="3.36286">
        <ele>43.889287</ele>
        <time>2023-01-07T16:14:24.086Z</time>
      </trkpt>
      <trkpt lat="43.28948" lon="3.36295">
        <ele>43.906235</ele>
        <time>2023-01-07T16:14:27.100Z</time>
      </trkpt>
      <trkpt lat="43.28958" lon="3.36309">
        <ele>43.929119</ele>
        <time>2023-01-07T16:14:30.099Z</time>
      </trkpt>
      <trkpt lat="43.28965" lon="3.36323">
        <ele>43.949781</ele>
        <time>2023-01-07T16:14:32.088Z</time>
      </trkpt>
      <trkpt lat="43.2897" lon="3.36335">
        <ele>43.966017</ele>
        <time>2023-01-07T16:14:34.094Z</time>
      </trkpt>
      <trkpt lat="43.28973" lon="3.36352">
        <ele>43.987181</ele>
        <time>2023-01-07T16:14:37.102Z</time>
      </trkpt>
      <trkpt lat="43.2897" lon="3.36369">
        <ele>44.006995</ele>
        <time>2023-01-07T16:14:40.091Z</time>
      </trkpt>
      <trkpt lat="43.28964" lon="3.36382">
        <ele>44.025294</ele>
        <time>2023-01-07T16:14:43.087Z</time>
      </trkpt>
      <trkpt lat="43.28958" lon="3.36394">
        <ele>44.042903</ele>
        <time>2023-01-07T16:14:46.083Z</time>
      </trkpt>
      <trkpt lat="43.28952" lon="3.36407">
        <ele>44.057708</ele>
        <time>2023-01-07T16:14:49.105Z</time>
      </trkpt>
      <trkpt lat="43.28946" lon="3.36421">
        <ele>44.041064</ele>
        <time>2023-01-07T16:14:52.088Z</time>
      </trkpt>
      <trkpt lat="43.2894" lon="3.36435">
        <ele>44.023852</ele>
        <time>2023-01-07T16:14:55.088Z</time>
      </trkpt>
      <trkpt lat="43.28934" lon="3.36448">
        <ele>44.00673</ele>
        <time>2023-01-07T16:14:58.095Z</time>
      </trkpt>
      <trkpt lat="43.28928" lon="3.36463">
        <ele>43.988562</ele>
        <time>2023-01-07T16:15:01.090Z</time>
      </trkpt>
      <trkpt lat="43.28922" lon="3.36478">
        <ele>43.970186</ele>
        <time>2023-01-07T16:15:04.102Z</time>
      </trkpt>
      <trkpt lat="43.28915" lon="3.36493">
        <ele>43.951249</ele>
        <time>2023-01-07T16:15:07.089Z</time>
      </trkpt>
      <trkpt lat="43.2891" lon="3.3651">
        <ele>43.932491</ele>
        <time>2023-01-07T16:15:10.098Z</time>
      </trkpt>
      <trkpt lat="43.28904" lon="3.36525">
        <ele>43.91391</ele>
        <time>2023-01-07T16:15:13.092Z</time>
      </trkpt>
      <trkpt lat="43.28898" lon="3.36541">
        <ele>43.895371</ele>
        <time>2023-01-07T16:15:16.093Z</time>
      </trkpt>
      <trkpt lat="43.28892" lon="3.36556">
        <ele>43.876504</ele>
        <time>2023-01-07T16:15:19.100Z</time>
      </trkpt>
      <trkpt lat="43.28888" lon="3.36567">
        <ele>43.863245</ele>
        <time>2023-01-07T16:15:21.098Z</time>
      </trkpt>
      <trkpt lat="43.28881" lon="3.36583">
        <ele>43.843738</ele>
        <time>2023-01-07T16:15:24.091Z</time>
      </trkpt>
      <trkpt lat="43.28876" lon="3.36594">
        <ele>43.830212</ele>
        <time>2023-01-07T16:15:26.096Z</time>
      </trkpt>
      <trkpt lat="43.2887" lon="3.3661">
        <ele>43.810989</ele>
        <time>2023-01-07T16:15:29.088Z</time>
      </trkpt>
      <trkpt lat="43.28862" lon="3.36623">
        <ele>43.799862</ele>
        <time>2023-01-07T16:15:32.102Z</time>
      </trkpt>
      <trkpt lat="43.28856" lon="3.3664">
        <ele>43.81377</ele>
        <time>2023-01-07T16:15:35.089Z</time>
      </trkpt>
      <trkpt lat="43.28853" lon="3.36652">
        <ele>43.822862</ele>
        <time>2023-01-07T16:15:37.096Z</time>
      </trkpt>
      <trkpt lat="43.28849" lon="3.36668">
        <ele>43.835178</ele>
        <time>2023-01-07T16:15:40.089Z</time>
      </trkpt>
      <trkpt lat="43.28844" lon="3.36683">
        <ele>43.847465</ele>
        <time>2023-01-07T16:15:43.103Z</time>
      </trkpt>
      <trkpt lat="43.2884" lon="3.36699">
        <ele>43.860292</ele>
        <time>2023-01-07T16:15:46.105Z</time>
      </trkpt>
      <trkpt lat="43.28836" lon="3.36716">
        <ele>43.872986</ele>
        <time>2023-01-07T16:15:49.109Z</time>
      </trkpt>
      <trkpt lat="43.28832" lon="3.36731">
        <ele>43.88516</ele>
        <time>2023-01-07T16:15:52.095Z</time>
      </trkpt>
      <trkpt lat="43.28829" lon="3.36748">
        <ele>43.897511</ele>
        <time>2023-01-07T16:15:55.087Z</time>
      </trkpt>
      <trkpt lat="43.28825" lon="3.36763">
        <ele>43.909542</ele>
        <time>2023-01-07T16:15:58.086Z</time>
      </trkpt>
      <trkpt lat="43.28821" lon="3.36779">
        <ele>43.921894</ele>
        <time>2023-01-07T16:16:01.099Z</time>
      </trkpt>
      <trkpt lat="43.28817" lon="3.36796">
        <ele>43.935211</ele>
        <time>2023-01-07T16:16:04.097Z</time>
      </trkpt>
      <trkpt lat="43.28813" lon="3.36813">
        <ele>43.948116</ele>
        <time>2023-01-07T16:16:07.090Z</time>
      </trkpt>
      <trkpt lat="43.28809" lon="3.36829">
        <ele>43.96086</ele>
        <time>2023-01-07T16:16:10.100Z</time>
      </trkpt>
      <trkpt lat="43.28805" lon="3.36846">
        <ele>43.973652</ele>
        <time>2023-01-07T16:16:13.090Z</time>
      </trkpt>
      <trkpt lat="43.28801" lon="3.36862">
        <ele>43.962168</ele>
        <time>2023-01-07T16:16:16.092Z</time>
      </trkpt>
      <trkpt lat="43.28797" lon="3.36878">
        <ele>43.93464</ele>
        <time>2023-01-07T16:16:19.090Z</time>
      </trkpt>
      <trkpt lat="43.28793" lon="3.36895">
        <ele>43.906961</ele>
        <time>2023-01-07T16:16:22.093Z</time>
      </trkpt>
      <trkpt lat="43.28788" lon="3.36911">
        <ele>43.878583</ele>
        <time>2023-01-07T16:16:25.101Z</time>
      </trkpt>
      <trkpt lat="43.28783" lon="3.36928">
        <ele>43.849677</ele>
        <time>2023-01-07T16:16:28.103Z</time>
      </trkpt>
      <trkpt lat="43.2878" lon="3.36945">
        <ele>43.821354</ele>
        <time>2023-01-07T16:16:31.089Z</time>
      </trkpt>
      <trkpt lat="43.28776" lon="3.36961">
        <ele>43.7933</ele>
        <time>2023-01-07T16:16:34.102Z</time>
      </trkpt>
      <trkpt lat="43.28774" lon="3.36974">
        <ele>43.773335</ele>
        <time>2023-01-07T16:16:36.099Z</time>
      </trkpt>
      <trkpt lat="43.28771" lon="3.36985">
        <ele>43.753382</ele>
        <time>2023-01-07T16:16:38.094Z</time>
      </trkpt>
      <trkpt lat="43.28768" lon="3.36998">
        <ele>43.73297</ele>
        <time>2023-01-07T16:16:40.089Z</time>
      </trkpt>
      <trkpt lat="43.28765" lon="3.3701">
        <ele>43.71273</ele>
        <time>2023-01-07T16:16:42.095Z</time>
      </trkpt>
      <trkpt lat="43.28761" lon="3.37027">
        <ele>43.683773</ele>
        <time>2023-01-07T16:16:45.104Z</time>
      </trkpt>
      <trkpt lat="43.28756" lon="3.37043">
        <ele>43.655329</ele>
        <time>2023-01-07T16:16:48.089Z</time>
      </trkpt>
      <trkpt lat="43.28753" lon="3.37055">
        <ele>43.635392</ele>
        <time>2023-01-07T16:16:50.094Z</time>
      </trkpt>
      <trkpt lat="43.28748" lon="3.37072">
        <ele>43.606569</ele>
        <time>2023-01-07T16:16:53.096Z</time>
      </trkpt>
      <trkpt lat="43.28743" lon="3.37087">
        <ele>43.583561</ele>
        <time>2023-01-07T16:16:56.098Z</time>
      </trkpt>
      <trkpt lat="43.28737" lon="3.37102">
        <ele>43.586085</ele>
        <time>2023-01-07T16:16:59.092Z</time>
      </trkpt>
      <trkpt lat="43.2873" lon="3.37117">
        <ele>43.588708</ele>
        <time>2023-01-07T16:17:02.088Z</time>
      </trkpt>
      <trkpt lat="43.28722" lon="3.37132">
        <ele>43.591376</ele>
        <time>2023-01-07T16:17:05.091Z</time>
      </trkpt>
      <trkpt lat="43.28715" lon="3.37146">
        <ele>43.594031</ele>
        <time>2023-01-07T16:17:08.091Z</time>
      </trkpt>
      <trkpt lat="43.28709" lon="3.37162">
        <ele>43.596697</ele>
        <time>2023-01-07T16:17:11.090Z</time>
      </trkpt>
      <trkpt lat="43.28708" lon="3.3718">
        <ele>43.599377</ele>
        <time>2023-01-07T16:17:14.103Z</time>
      </trkpt>
      <trkpt lat="43.28709" lon="3.37193">
        <ele>43.601359</ele>
        <time>2023-01-07T16:17:16.083Z</time>
      </trkpt>
      <trkpt lat="43.2871" lon="3.37205">
        <ele>43.603221</ele>
        <time>2023-01-07T16:17:18.103Z</time>
      </trkpt>
      <trkpt lat="43.2871" lon="3.37222">
        <ele>43.605665</ele>
        <time>2023-01-07T16:17:21.102Z</time>
      </trkpt>
      <trkpt lat="43.28707" lon="3.37235">
        <ele>43.607764</ele>
        <time>2023-01-07T16:17:24.105Z</time>
      </trkpt>
      <trkpt lat="43.28703" lon="3.37249">
        <ele>43.610066</ele>
        <time>2023-01-07T16:17:27.098Z</time>
      </trkpt>
      <trkpt lat="43.28695" lon="3.37263">
        <ele>43.612624</ele>
        <time>2023-01-07T16:17:30.096Z</time>
      </trkpt>
      <trkpt lat="43.28684" lon="3.37274">
        <ele>43.615484</ele>
        <time>2023-01-07T16:17:33.100Z</time>
      </trkpt>
      <trkpt lat="43.28676" lon="3.37281">
        <ele>43.61742</ele>
        <time>2023-01-07T16:17:35.094Z</time>
      </trkpt>
      <trkpt lat="43.28669" lon="3.37289">
        <ele>43.619314</ele>
        <time>2023-01-07T16:17:37.103Z</time>
      </trkpt>
      <trkpt lat="43.28661" lon="3.37296">
        <ele>43.795443</ele>
        <time>2023-01-07T16:17:39.104Z</time>
      </trkpt>
      <trkpt lat="43.2865" lon="3.37307">
        <ele>44.225801</ele>
        <time>2023-01-07T16:17:42.095Z</time>
      </trkpt>
      <trkpt lat="43.2864" lon="3.37318">
        <ele>44.643358</ele>
        <time>2023-01-07T16:17:45.095Z</time>
      </trkpt>
      <trkpt lat="43.28632" lon="3.37328">
        <ele>44.986438</ele>
        <time>2023-01-07T16:17:48.108Z</time>
      </trkpt>
      <trkpt lat="43.28625" lon="3.3734">
        <ele>45.354862</ele>
        <time>2023-01-07T16:17:52.096Z</time>
      </trkpt>
      <trkpt lat="43.28622" lon="3.37352">
        <ele>45.652562</ele>
        <time>2023-01-07T16:17:55.107Z</time>
      </trkpt>
      <trkpt lat="43.2862" lon="3.37367">
        <ele>46.021279</ele>
        <time>2023-01-07T16:17:59.099Z</time>
      </trkpt>
      <trkpt lat="43.28619" lon="3.37383">
        <ele>46.393606</ele>
        <time>2023-01-07T16:18:03.101Z</time>
      </trkpt>
      <trkpt lat="43.28619" lon="3.37396">
        <ele>46.701731</ele>
        <time>2023-01-07T16:18:08.100Z</time>
      </trkpt>
      <trkpt lat="43.2863" lon="3.37409">
        <ele>47.149471</ele>
        <time>2023-01-07T16:29:08.207Z</time>
      </trkpt>
      <trkpt lat="43.28636" lon="3.37419">
        <ele>47.443577</ele>
        <time>2023-01-07T16:29:14.107Z</time>
      </trkpt>
      <trkpt lat="43.28639" lon="3.37432">
        <ele>47.759018</ele>
        <time>2023-01-07T16:29:18.097Z</time>
      </trkpt>
      <trkpt lat="43.28645" lon="3.37444">
        <ele>48.126958</ele>
        <time>2023-01-07T16:29:22.088Z</time>
      </trkpt>
      <trkpt lat="43.28652" lon="3.37453">
        <ele>48.426477</ele>
        <time>2023-01-07T16:29:27.098Z</time>
      </trkpt>
      <trkpt lat="43.28663" lon="3.3746">
        <ele>48.803245</ele>
        <time>2023-01-07T16:30:01.121Z</time>
      </trkpt>
      <trkpt lat="43.2867" lon="3.37468">
        <ele>49.094748</ele>
        <time>2023-01-07T16:30:04.096Z</time>
      </trkpt>
      <trkpt lat="43.28678" lon="3.37476">
        <ele>49.414673</ele>
        <time>2023-01-07T16:30:07.092Z</time>
      </trkpt>
      <trkpt lat="43.28686" lon="3.37485">
        <ele>49.351382</ele>
        <time>2023-01-07T16:30:10.102Z</time>
      </trkpt>
      <trkpt lat="43.28694" lon="3.37496">
        <ele>49.276562</ele>
        <time>2023-01-07T16:30:14.095Z</time>
      </trkpt>
      <trkpt lat="43.28701" lon="3.37504">
        <ele>49.218126</ele>
        <time>2023-01-07T16:30:17.096Z</time>
      </trkpt>
      <trkpt lat="43.28708" lon="3.37515">
        <ele>49.150067</ele>
        <time>2023-01-07T16:30:20.102Z</time>
      </trkpt>
      <trkpt lat="43.28716" lon="3.37525">
        <ele>49.081388</ele>
        <time>2023-01-07T16:30:23.098Z</time>
      </trkpt>
      <trkpt lat="43.28724" lon="3.37533">
        <ele>49.017986</ele>
        <time>2023-01-07T16:30:26.097Z</time>
      </trkpt>
      <trkpt lat="43.28732" lon="3.3754">
        <ele>48.954587</ele>
        <time>2023-01-07T16:30:29.107Z</time>
      </trkpt>
      <trkpt lat="43.28744" lon="3.37549">
        <ele>48.871352</ele>
        <time>2023-01-07T16:30:33.092Z</time>
      </trkpt>
      <trkpt lat="43.28756" lon="3.37555">
        <ele>48.790487</ele>
        <time>2023-01-07T16:30:36.092Z</time>
      </trkpt>
      <trkpt lat="43.28766" lon="3.37561">
        <ele>48.718803</ele>
        <time>2023-01-07T16:30:39.099Z</time>
      </trkpt>
      <trkpt lat="43.28775" lon="3.3757">
        <ele>48.648824</ele>
        <time>2023-01-07T16:30:42.089Z</time>
      </trkpt>
      <trkpt lat="43.28783" lon="3.37581">
        <ele>48.574144</ele>
        <time>2023-01-07T16:30:45.101Z</time>
      </trkpt>
      <trkpt lat="43.28789" lon="3.37596">
        <ele>48.494097</ele>
        <time>2023-01-07T16:30:48.104Z</time>
      </trkpt>
      <trkpt lat="43.28795" lon="3.37612">
        <ele>48.408868</ele>
        <time>2023-01-07T16:30:51.108Z</time>
      </trkpt>
      <trkpt lat="43.28798" lon="3.37628">
        <ele>48.333896</ele>
        <time>2023-01-07T16:30:54.100Z</time>
      </trkpt>
      <trkpt lat="43.28799" lon="3.37643">
        <ele>48.267299</ele>
        <time>2023-01-07T16:30:57.089Z</time>
      </trkpt>
      <trkpt lat="43.28803" lon="3.37657">
        <ele>48.336761</ele>
        <time>2023-01-07T16:31:00.090Z</time>
      </trkpt>
      <trkpt lat="43.28806" lon="3.37673">
        <ele>48.41705</ele>
        <time>2023-01-07T16:31:03.092Z</time>
      </trkpt>
      <trkpt lat="43.2881" lon="3.37688">
        <ele>48.49548</ele>
        <time>2023-01-07T16:31:06.096Z</time>
      </trkpt>
      <trkpt lat="43.28813" lon="3.37704">
        <ele>48.577248</ele>
        <time>2023-01-07T16:31:09.096Z</time>
      </trkpt>
      <trkpt lat="43.28817" lon="3.3772">
        <ele>48.659485</ele>
        <time>2023-01-07T16:31:12.093Z</time>
      </trkpt>
      <trkpt lat="43.2882" lon="3.37736">
        <ele>48.742377</ele>
        <time>2023-01-07T16:31:15.104Z</time>
      </trkpt>
      <trkpt lat="43.28824" lon="3.37752">
        <ele>48.823542</ele>
        <time>2023-01-07T16:31:18.101Z</time>
      </trkpt>
      <trkpt lat="43.28827" lon="3.37768">
        <ele>48.90297</ele>
        <time>2023-01-07T16:31:21.089Z</time>
      </trkpt>
      <trkpt lat="43.28833" lon="3.37783">
        <ele>48.984299</ele>
        <time>2023-01-07T16:31:24.092Z</time>
      </trkpt>
      <trkpt lat="43.28837" lon="3.37798">
        <ele>49.065563</ele>
        <time>2023-01-07T16:31:27.100Z</time>
      </trkpt>
      <trkpt lat="43.28843" lon="3.37814">
        <ele>49.150585</ele>
        <time>2023-01-07T16:31:30.094Z</time>
      </trkpt>
      <trkpt lat="43.28848" lon="3.3783">
        <ele>49.233553</ele>
        <time>2023-01-07T16:31:33.099Z</time>
      </trkpt>
      <trkpt lat="43.28854" lon="3.37845">
        <ele>49.31887</ele>
        <time>2023-01-07T16:31:36.088Z</time>
      </trkpt>
      <trkpt lat="43.28859" lon="3.3786">
        <ele>49.400357</ele>
        <time>2023-01-07T16:31:39.091Z</time>
      </trkpt>
      <trkpt lat="43.28865" lon="3.37876">
        <ele>49.426873</ele>
        <time>2023-01-07T16:31:42.093Z</time>
      </trkpt>
      <trkpt lat="43.28873" lon="3.37888">
        <ele>49.227831</ele>
        <time>2023-01-07T16:31:45.090Z</time>
      </trkpt>
      <trkpt lat="43.2888" lon="3.37896">
        <ele>49.07035</ele>
        <time>2023-01-07T16:31:48.096Z</time>
      </trkpt>
      <trkpt lat="43.28889" lon="3.37904">
        <ele>48.886312</ele>
        <time>2023-01-07T16:31:51.092Z</time>
      </trkpt>
      <trkpt lat="43.28899" lon="3.37913">
        <ele>48.682314</ele>
        <time>2023-01-07T16:31:54.096Z</time>
      </trkpt>
      <trkpt lat="43.28909" lon="3.3792">
        <ele>48.490805</ele>
        <time>2023-01-07T16:31:57.097Z</time>
      </trkpt>
      <trkpt lat="43.28921" lon="3.37923">
        <ele>48.288339</ele>
        <time>2023-01-07T16:32:00.101Z</time>
      </trkpt>
      <trkpt lat="43.28932" lon="3.37928">
        <ele>48.086401</ele>
        <time>2023-01-07T16:32:03.087Z</time>
      </trkpt>
      <trkpt lat="43.28943" lon="3.37936">
        <ele>47.880746</ele>
        <time>2023-01-07T16:32:06.099Z</time>
      </trkpt>
      <trkpt lat="43.28953" lon="3.37946">
        <ele>47.671486</ele>
        <time>2023-01-07T16:32:09.096Z</time>
      </trkpt>
      <trkpt lat="43.28961" lon="3.37957">
        <ele>47.479926</ele>
        <time>2023-01-07T16:32:12.093Z</time>
      </trkpt>
      <trkpt lat="43.28965" lon="3.37971">
        <ele>47.282849</ele>
        <time>2023-01-07T16:32:15.098Z</time>
      </trkpt>
      <trkpt lat="43.28968" lon="3.37984">
        <ele>47.117179</ele>
        <time>2023-01-07T16:32:18.098Z</time>
      </trkpt>
      <trkpt lat="43.28973" lon="3.37997">
        <ele>46.943309</ele>
        <time>2023-01-07T16:32:21.099Z</time>
      </trkpt>
      <trkpt lat="43.28978" lon="3.38012">
        <ele>46.730948</ele>
        <time>2023-01-07T16:32:24.096Z</time>
      </trkpt>
      <trkpt lat="43.28985" lon="3.38029">
        <ele>46.500176</ele>
        <time>2023-01-07T16:32:27.098Z</time>
      </trkpt>
      <trkpt lat="43.28992" lon="3.38044">
        <ele>46.435214</ele>
        <time>2023-01-07T16:32:30.105Z</time>
      </trkpt>
      <trkpt lat="43.28998" lon="3.38055">
        <ele>46.457337</ele>
        <time>2023-01-07T16:32:32.100Z</time>
      </trkpt>
      <trkpt lat="43.29004" lon="3.38064">
        <ele>46.47918</ele>
        <time>2023-01-07T16:32:34.092Z</time>
      </trkpt>
      <trkpt lat="43.29012" lon="3.38078">
        <ele>46.508591</ele>
        <time>2023-01-07T16:32:37.093Z</time>
      </trkpt>
      <trkpt lat="43.29016" lon="3.38094">
        <ele>46.538698</ele>
        <time>2023-01-07T16:32:40.090Z</time>
      </trkpt>
      <trkpt lat="43.29018" lon="3.38107">
        <ele>46.560782</ele>
        <time>2023-01-07T16:32:42.093Z</time>
      </trkpt>
      <trkpt lat="43.2902" lon="3.38124">
        <ele>46.590386</ele>
        <time>2023-01-07T16:32:45.100Z</time>
      </trkpt>
      <trkpt lat="43.29021" lon="3.38142">
        <ele>46.619922</ele>
        <time>2023-01-07T16:32:48.090Z</time>
      </trkpt>
      <trkpt lat="43.29026" lon="3.38156">
        <ele>46.64584</ele>
        <time>2023-01-07T16:32:51.089Z</time>
      </trkpt>
      <trkpt lat="43.29037" lon="3.38162">
        <ele>46.67363</ele>
        <time>2023-01-07T16:32:54.096Z</time>
      </trkpt>
      <trkpt lat="43.29049" lon="3.3816">
        <ele>46.702067</ele>
        <time>2023-01-07T16:32:57.111Z</time>
      </trkpt>
      <trkpt lat="43.2906" lon="3.38155">
        <ele>46.728147</ele>
        <time>2023-01-07T16:33:00.097Z</time>
      </trkpt>
      <trkpt lat="43.29069" lon="3.38151">
        <ele>46.751074</ele>
        <time>2023-01-07T16:33:03.093Z</time>
      </trkpt>
      <trkpt lat="43.2908" lon="3.3815">
        <ele>46.777172</ele>
        <time>2023-01-07T16:33:06.103Z</time>
      </trkpt>
      <trkpt lat="43.2909" lon="3.38154">
        <ele>46.801963</ele>
        <time>2023-01-07T16:33:09.087Z</time>
      </trkpt>
      <trkpt lat="43.29094" lon="3.38169">
        <ele>46.828559</ele>
        <time>2023-01-07T16:33:12.105Z</time>
      </trkpt>
      <trkpt lat="43.29096" lon="3.38187">
        <ele>46.776493</ele>
        <time>2023-01-07T16:33:15.106Z</time>
      </trkpt>
      <trkpt lat="43.29096" lon="3.38199">
        <ele>46.723205</ele>
        <time>2023-01-07T16:33:17.109Z</time>
      </trkpt>
      <trkpt lat="43.29097" lon="3.38212">
        <ele>46.66879</ele>
        <time>2023-01-07T16:33:19.101Z</time>
      </trkpt>
      <trkpt lat="43.29097" lon="3.38225">
        <ele>46.612713</ele>
        <time>2023-01-07T16:33:21.097Z</time>
      </trkpt>
      <trkpt lat="43.29097" lon="3.38238">
        <ele>46.559176</ele>
        <time>2023-01-07T16:33:23.091Z</time>
      </trkpt>
      <trkpt lat="43.29097" lon="3.38251">
        <ele>46.502659</ele>
        <time>2023-01-07T16:33:25.098Z</time>
      </trkpt>
      <trkpt lat="43.29097" lon="3.38264">
        <ele>46.447439</ele>
        <time>2023-01-07T16:33:27.100Z</time>
      </trkpt>
      <trkpt lat="43.29098" lon="3.38276">
        <ele>46.393609</ele>
        <time>2023-01-07T16:33:29.106Z</time>
      </trkpt>
      <trkpt lat="43.29099" lon="3.38289">
        <ele>46.338804</ele>
        <time>2023-01-07T16:33:31.090Z</time>
      </trkpt>
      <trkpt lat="43.29099" lon="3.38303">
        <ele>46.280513</ele>
        <time>2023-01-07T16:33:33.101Z</time>
      </trkpt>
      <trkpt lat="43.291" lon="3.38315">
        <ele>46.225566</ele>
        <time>2023-01-07T16:33:35.096Z</time>
      </trkpt>
      <trkpt lat="43.29101" lon="3.38328">
        <ele>46.171797</ele>
        <time>2023-01-07T16:33:37.093Z</time>
      </trkpt>
      <trkpt lat="43.29101" lon="3.38341">
        <ele>46.116851</ele>
        <time>2023-01-07T16:33:39.090Z</time>
      </trkpt>
      <trkpt lat="43.29102" lon="3.38354">
        <ele>46.061125</ele>
        <time>2023-01-07T16:33:41.095Z</time>
      </trkpt>
      <trkpt lat="43.29102" lon="3.38366">
        <ele>46.006748</ele>
        <time>2023-01-07T16:33:43.100Z</time>
      </trkpt>
      <trkpt lat="43.29103" lon="3.38379">
        <ele>45.952304</ele>
        <time>2023-01-07T16:33:45.094Z</time>
      </trkpt>
      <trkpt lat="43.29103" lon="3.38392">
        <ele>45.897683</ele>
        <time>2023-01-07T16:33:47.096Z</time>
      </trkpt>
      <trkpt lat="43.29104" lon="3.38404">
        <ele>45.844172</ele>
        <time>2023-01-07T16:33:49.089Z</time>
      </trkpt>
      <trkpt lat="43.29104" lon="3.38417">
        <ele>45.78938</ele>
        <time>2023-01-07T16:33:51.098Z</time>
      </trkpt>
      <trkpt lat="43.29104" lon="3.3843">
        <ele>45.791212</ele>
        <time>2023-01-07T16:33:53.101Z</time>
      </trkpt>
      <trkpt lat="43.29106" lon="3.38442">
        <ele>45.808611</ele>
        <time>2023-01-07T16:33:55.107Z</time>
      </trkpt>
      <trkpt lat="43.29107" lon="3.3846">
        <ele>45.833485</ele>
        <time>2023-01-07T16:33:58.099Z</time>
      </trkpt>
      <trkpt lat="43.29108" lon="3.38473">
        <ele>45.851372</ele>
        <time>2023-01-07T16:34:00.100Z</time>
      </trkpt>
      <trkpt lat="43.29108" lon="3.38486">
        <ele>45.869058</ele>
        <time>2023-01-07T16:34:02.098Z</time>
      </trkpt>
      <trkpt lat="43.29108" lon="3.38499">
        <ele>45.887714</ele>
        <time>2023-01-07T16:34:04.108Z</time>
      </trkpt>
      <trkpt lat="43.29108" lon="3.38512">
        <ele>45.905691</ele>
        <time>2023-01-07T16:34:06.098Z</time>
      </trkpt>
      <trkpt lat="43.29109" lon="3.38525">
        <ele>45.923539</ele>
        <time>2023-01-07T16:34:08.088Z</time>
      </trkpt>
      <trkpt lat="43.29109" lon="3.38538">
        <ele>45.941639</ele>
        <time>2023-01-07T16:34:10.106Z</time>
      </trkpt>
      <trkpt lat="43.29109" lon="3.38551">
        <ele>45.959328</ele>
        <time>2023-01-07T16:34:12.097Z</time>
      </trkpt>
      <trkpt lat="43.29109" lon="3.38569">
        <ele>45.98489</ele>
        <time>2023-01-07T16:34:15.106Z</time>
      </trkpt>
      <trkpt lat="43.29109" lon="3.38587">
        <ele>46.008796</ele>
        <time>2023-01-07T16:34:18.105Z</time>
      </trkpt>
      <trkpt lat="43.2911" lon="3.38605">
        <ele>46.033666</ele>
        <time>2023-01-07T16:34:21.092Z</time>
      </trkpt>
      <trkpt lat="43.29109" lon="3.38617">
        <ele>46.05094</ele>
        <time>2023-01-07T16:34:23.114Z</time>
      </trkpt>
      <trkpt lat="43.29109" lon="3.3863">
        <ele>46.068512</ele>
        <time>2023-01-07T16:34:25.090Z</time>
      </trkpt>
      <trkpt lat="43.29108" lon="3.38643">
        <ele>46.086785</ele>
        <time>2023-01-07T16:34:27.091Z</time>
      </trkpt>
      <trkpt lat="43.29108" lon="3.38656">
        <ele>46.105177</ele>
        <time>2023-01-07T16:34:29.092Z</time>
      </trkpt>
      <trkpt lat="43.29107" lon="3.38669">
        <ele>46.122966</ele>
        <time>2023-01-07T16:34:31.090Z</time>
      </trkpt>
      <trkpt lat="43.29106" lon="3.38682">
        <ele>46.141273</ele>
        <time>2023-01-07T16:34:33.089Z</time>
      </trkpt>
      <trkpt lat="43.29106" lon="3.38695">
        <ele>46.159965</ele>
        <time>2023-01-07T16:34:35.093Z</time>
      </trkpt>
      <trkpt lat="43.29105" lon="3.38707">
        <ele>46.178369</ele>
        <time>2023-01-07T16:34:37.093Z</time>
      </trkpt>
      <trkpt lat="43.29104" lon="3.38724">
        <ele>46.202827</ele>
        <time>2023-01-07T16:34:40.090Z</time>
      </trkpt>
      <trkpt lat="43.29103" lon="3.38742">
        <ele>46.229336</ele>
        <time>2023-01-07T16:34:43.106Z</time>
      </trkpt>
      <trkpt lat="43.29102" lon="3.38755">
        <ele>46.247687</ele>
        <time>2023-01-07T16:34:45.094Z</time>
      </trkpt>
      <trkpt lat="43.29101" lon="3.38768">
        <ele>46.265894</ele>
        <time>2023-01-07T16:34:47.103Z</time>
      </trkpt>
      <trkpt lat="43.291" lon="3.3878">
        <ele>46.283842</ele>
        <time>2023-01-07T16:34:49.113Z</time>
      </trkpt>
      <trkpt lat="43.291" lon="3.38793">
        <ele>46.30226</ele>
        <time>2023-01-07T16:34:51.112Z</time>
      </trkpt>
      <trkpt lat="43.29098" lon="3.38805">
        <ele>46.320865</ele>
        <time>2023-01-07T16:34:53.104Z</time>
      </trkpt>
      <trkpt lat="43.29096" lon="3.38823">
        <ele>46.346082</ele>
        <time>2023-01-07T16:34:56.100Z</time>
      </trkpt>
      <trkpt lat="43.29095" lon="3.38835">
        <ele>46.363979</ele>
        <time>2023-01-07T16:34:58.115Z</time>
      </trkpt>
      <trkpt lat="43.29095" lon="3.38853">
        <ele>46.390358</ele>
        <time>2023-01-07T16:35:01.100Z</time>
      </trkpt>
      <trkpt lat="43.29093" lon="3.38871">
        <ele>46.416391</ele>
        <time>2023-01-07T16:35:04.104Z</time>
      </trkpt>
      <trkpt lat="43.29092" lon="3.38889">
        <ele>46.442424</ele>
        <time>2023-01-07T16:35:07.099Z</time>
      </trkpt>
      <trkpt lat="43.29091" lon="3.38902">
        <ele>46.460775</ele>
        <time>2023-01-07T16:35:09.100Z</time>
      </trkpt>
      <trkpt lat="43.29089" lon="3.3892">
        <ele>46.475916</ele>
        <time>2023-01-07T16:35:12.102Z</time>
      </trkpt>
      <trkpt lat="43.29088" lon="3.38937">
        <ele>46.474951</ele>
        <time>2023-01-07T16:35:15.097Z</time>
      </trkpt>
      <trkpt lat="43.29085" lon="3.38954">
        <ele>46.474014</ele>
        <time>2023-01-07T16:35:18.102Z</time>
      </trkpt>
      <trkpt lat="43.29085" lon="3.38971">
        <ele>46.473048</ele>
        <time>2023-01-07T16:35:21.102Z</time>
      </trkpt>
      <trkpt lat="43.29086" lon="3.3899">
        <ele>46.472042</ele>
        <time>2023-01-07T16:35:24.105Z</time>
      </trkpt>
      <trkpt lat="43.29088" lon="3.39002">
        <ele>46.471353</ele>
        <time>2023-01-07T16:35:26.101Z</time>
      </trkpt>
      <trkpt lat="43.29093" lon="3.39014">
        <ele>46.470601</ele>
        <time>2023-01-07T16:35:28.099Z</time>
      </trkpt>
      <trkpt lat="43.29099" lon="3.39025">
        <ele>46.469843</ele>
        <time>2023-01-07T16:35:30.112Z</time>
      </trkpt>
      <trkpt lat="43.29106" lon="3.39034">
        <ele>46.469104</ele>
        <time>2023-01-07T16:35:32.117Z</time>
      </trkpt>
      <trkpt lat="43.29113" lon="3.39043">
        <ele>46.46837</ele>
        <time>2023-01-07T16:35:34.096Z</time>
      </trkpt>
      <trkpt lat="43.2912" lon="3.39051">
        <ele>46.467669</ele>
        <time>2023-01-07T16:35:36.090Z</time>
      </trkpt>
      <trkpt lat="43.2913" lon="3.39063">
        <ele>46.466705</ele>
        <time>2023-01-07T16:35:39.092Z</time>
      </trkpt>
      <trkpt lat="43.29139" lon="3.39074">
        <ele>46.465823</ele>
        <time>2023-01-07T16:35:42.092Z</time>
      </trkpt>
      <trkpt lat="43.29147" lon="3.39082">
        <ele>46.465024</ele>
        <time>2023-01-07T16:35:45.093Z</time>
      </trkpt>
      <trkpt lat="43.29154" lon="3.39091">
        <ele>46.464337</ele>
        <time>2023-01-07T16:35:48.102Z</time>
      </trkpt>
      <trkpt lat="43.29153" lon="3.39104">
        <ele>46.463572</ele>
        <time>2023-01-07T16:35:52.100Z</time>
      </trkpt>
      <trkpt lat="43.29145" lon="3.39112">
        <ele>46.462864</ele>
        <time>2023-01-07T16:35:55.092Z</time>
      </trkpt>
      <trkpt lat="43.29136" lon="3.39118">
        <ele>46.446897</ele>
        <time>2023-01-07T16:35:58.090Z</time>
      </trkpt>
      <trkpt lat="43.29128" lon="3.39124">
        <ele>46.428926</ele>
        <time>2023-01-07T16:36:01.093Z</time>
      </trkpt>
      <trkpt lat="43.29122" lon="3.39135">
        <ele>46.410296</ele>
        <time>2023-01-07T16:36:04.100Z</time>
      </trkpt>
      <trkpt lat="43.29118" lon="3.39149">
        <ele>46.390947</ele>
        <time>2023-01-07T16:36:07.093Z</time>
      </trkpt>
      <trkpt lat="43.29115" lon="3.39164">
        <ele>46.369093</ele>
        <time>2023-01-07T16:36:10.100Z</time>
      </trkpt>
      <trkpt lat="43.29112" lon="3.39181">
        <ele>46.345573</ele>
        <time>2023-01-07T16:36:13.106Z</time>
      </trkpt>
      <trkpt lat="43.29109" lon="3.39198">
        <ele>46.321647</ele>
        <time>2023-01-07T16:36:16.104Z</time>
      </trkpt>
      <trkpt lat="43.29106" lon="3.39216">
        <ele>46.296814</ele>
        <time>2023-01-07T16:36:19.093Z</time>
      </trkpt>
      <trkpt lat="43.29103" lon="3.39234">
        <ele>46.27198</ele>
        <time>2023-01-07T16:36:22.103Z</time>
      </trkpt>
      <trkpt lat="43.29099" lon="3.39252">
        <ele>46.247007</ele>
        <time>2023-01-07T16:36:25.110Z</time>
      </trkpt>
      <trkpt lat="43.29095" lon="3.39269">
        <ele>46.222272</ele>
        <time>2023-01-07T16:36:28.103Z</time>
      </trkpt>
      <trkpt lat="43.29091" lon="3.39285">
        <ele>46.198974</ele>
        <time>2023-01-07T16:36:31.095Z</time>
      </trkpt>
      <trkpt lat="43.29086" lon="3.393">
        <ele>46.177322</ele>
        <time>2023-01-07T16:36:34.102Z</time>
      </trkpt>
      <trkpt lat="43.29081" lon="3.39315">
        <ele>46.153966</ele>
        <time>2023-01-07T16:36:37.111Z</time>
      </trkpt>
      <trkpt lat="43.29075" lon="3.39331">
        <ele>46.129999</ele>
        <time>2023-01-07T16:36:40.111Z</time>
      </trkpt>
      <trkpt lat="43.29069" lon="3.39345">
        <ele>46.187887</ele>
        <time>2023-01-07T16:36:43.092Z</time>
      </trkpt>
      <trkpt lat="43.29063" lon="3.39361">
        <ele>46.258146</ele>
        <time>2023-01-07T16:36:46.099Z</time>
      </trkpt>
      <trkpt lat="43.29055" lon="3.39375">
        <ele>46.331015</ele>
        <time>2023-01-07T16:36:49.108Z</time>
      </trkpt>
      <trkpt lat="43.29046" lon="3.39389">
        <ele>46.403469</ele>
        <time>2023-01-07T16:36:52.102Z</time>
      </trkpt>
      <trkpt lat="43.29037" lon="3.39402">
        <ele>46.477159</ele>
        <time>2023-01-07T16:36:55.108Z</time>
      </trkpt>
      <trkpt lat="43.29032" lon="3.39413">
        <ele>46.528127</ele>
        <time>2023-01-07T16:36:57.095Z</time>
      </trkpt>
      <trkpt lat="43.29026" lon="3.39428">
        <ele>46.594576</ele>
        <time>2023-01-07T16:37:00.118Z</time>
      </trkpt>
      <trkpt lat="43.29024" lon="3.39443">
        <ele>46.655073</ele>
        <time>2023-01-07T16:37:03.110Z</time>
      </trkpt>
      <trkpt lat="43.29026" lon="3.39459">
        <ele>46.720228</ele>
        <time>2023-01-07T16:37:06.102Z</time>
      </trkpt>
      <trkpt lat="43.29031" lon="3.39474">
        <ele>46.789411</ele>
        <time>2023-01-07T16:37:09.106Z</time>
      </trkpt>
      <trkpt lat="43.29038" lon="3.39489">
        <ele>46.858422</ele>
        <time>2023-01-07T16:37:12.102Z</time>
      </trkpt>
      <trkpt lat="43.29043" lon="3.39502">
        <ele>46.919489</ele>
        <time>2023-01-07T16:37:15.105Z</time>
      </trkpt>
      <trkpt lat="43.29048" lon="3.39516">
        <ele>46.982304</ele>
        <time>2023-01-07T16:37:18.097Z</time>
      </trkpt>
      <trkpt lat="43.29054" lon="3.3953">
        <ele>47.046985</ele>
        <time>2023-01-07T16:37:21.104Z</time>
      </trkpt>
      <trkpt lat="43.29058" lon="3.39545">
        <ele>47.108426</ele>
        <time>2023-01-07T16:37:24.101Z</time>
      </trkpt>
      <trkpt lat="43.29063" lon="3.39558">
        <ele>47.098845</ele>
        <time>2023-01-07T16:37:27.095Z</time>
      </trkpt>
      <trkpt lat="43.29069" lon="3.3957">
        <ele>47.077727</ele>
        <time>2023-01-07T16:37:30.099Z</time>
      </trkpt>
      <trkpt lat="43.29071" lon="3.39582">
        <ele>47.059229</ele>
        <time>2023-01-07T16:37:33.106Z</time>
      </trkpt>
      <trkpt lat="43.29073" lon="3.39595">
        <ele>47.040351</ele>
        <time>2023-01-07T16:37:36.100Z</time>
      </trkpt>
      <trkpt lat="43.29075" lon="3.3961">
        <ele>47.01677</ele>
        <time>2023-01-07T16:37:39.116Z</time>
      </trkpt>
      <trkpt lat="43.29076" lon="3.39627">
        <ele>46.992472</ele>
        <time>2023-01-07T16:37:42.101Z</time>
      </trkpt>
      <trkpt lat="43.29078" lon="3.39643">
        <ele>46.968191</ele>
        <time>2023-01-07T16:37:45.103Z</time>
      </trkpt>
      <trkpt lat="43.29078" lon="3.3966">
        <ele>46.942617</ele>
        <time>2023-01-07T16:37:48.108Z</time>
      </trkpt>
      <trkpt lat="43.29076" lon="3.39674">
        <ele>46.920324</ele>
        <time>2023-01-07T16:37:51.101Z</time>
      </trkpt>
      <trkpt lat="43.29075" lon="3.39688">
        <ele>46.899505</ele>
        <time>2023-01-07T16:37:54.103Z</time>
      </trkpt>
      <trkpt lat="43.29075" lon="3.39703">
        <ele>46.877506</ele>
        <time>2023-01-07T16:37:57.110Z</time>
      </trkpt>
      <trkpt lat="43.29078" lon="3.39717">
        <ele>46.856224</ele>
        <time>2023-01-07T16:38:00.099Z</time>
      </trkpt>
      <trkpt lat="43.29084" lon="3.39732">
        <ele>46.831142</ele>
        <time>2023-01-07T16:38:03.097Z</time>
      </trkpt>
      <trkpt lat="43.29088" lon="3.39748">
        <ele>46.804805</ele>
        <time>2023-01-07T16:38:06.103Z</time>
      </trkpt>
      <trkpt lat="43.29086" lon="3.39766">
        <ele>46.778359</ele>
        <time>2023-01-07T16:38:09.108Z</time>
      </trkpt>
      <trkpt lat="43.29083" lon="3.39781">
        <ele>46.754379</ele>
        <time>2023-01-07T16:38:12.101Z</time>
      </trkpt>
      <trkpt lat="43.29078" lon="3.39796">
        <ele>46.836005</ele>
        <time>2023-01-07T16:38:15.115Z</time>
      </trkpt>
      <trkpt lat="43.29074" lon="3.39812">
        <ele>46.947513</ele>
        <time>2023-01-07T16:38:18.105Z</time>
      </trkpt>
      <trkpt lat="43.29069" lon="3.39829">
        <ele>47.060208</ele>
        <time>2023-01-07T16:38:21.101Z</time>
      </trkpt>
      <trkpt lat="43.29069" lon="3.39844">
        <ele>47.160557</ele>
        <time>2023-01-07T16:38:24.093Z</time>
      </trkpt>
      <trkpt lat="43.29076" lon="3.39857">
        <ele>47.263942</ele>
        <time>2023-01-07T16:38:27.110Z</time>
      </trkpt>
      <trkpt lat="43.29087" lon="3.39866">
        <ele>47.376233</ele>
        <time>2023-01-07T16:38:30.096Z</time>
      </trkpt>
      <trkpt lat="43.29099" lon="3.39874">
        <ele>47.492644</ele>
        <time>2023-01-07T16:38:33.109Z</time>
      </trkpt>
      <trkpt lat="43.29108" lon="3.39877">
        <ele>47.575406</ele>
        <time>2023-01-07T16:38:35.107Z</time>
      </trkpt>
      <trkpt lat="43.29117" lon="3.39883">
        <ele>47.660054</ele>
        <time>2023-01-07T16:38:37.097Z</time>
      </trkpt>
      <trkpt lat="43.29125" lon="3.39888">
        <ele>47.741802</ele>
        <time>2023-01-07T16:38:39.112Z</time>
      </trkpt>
      <trkpt lat="43.29137" lon="3.39896">
        <ele>47.861212</ele>
        <time>2023-01-07T16:38:42.109Z</time>
      </trkpt>
      <trkpt lat="43.29147" lon="3.39902">
        <ele>47.954394</ele>
        <time>2023-01-07T16:38:44.098Z</time>
      </trkpt>
      <trkpt lat="43.29157" lon="3.39907">
        <ele>48.050346</ele>
        <time>2023-01-07T16:38:46.110Z</time>
      </trkpt>
      <trkpt lat="43.29167" lon="3.39913">
        <ele>48.140437</ele>
        <time>2023-01-07T16:38:48.105Z</time>
      </trkpt>
      <trkpt lat="43.29176" lon="3.39918">
        <ele>48.229637</ele>
        <time>2023-01-07T16:38:50.104Z</time>
      </trkpt>
      <trkpt lat="43.29186" lon="3.39923">
        <ele>48.321602</ele>
        <time>2023-01-07T16:38:52.090Z</time>
      </trkpt>
      <trkpt lat="43.29196" lon="3.39929">
        <ele>48.289777</ele>
        <time>2023-01-07T16:38:54.104Z</time>
      </trkpt>
      <trkpt lat="43.29205" lon="3.39934">
        <ele>48.239935</ele>
        <time>2023-01-07T16:38:56.093Z</time>
      </trkpt>
      <trkpt lat="43.29214" lon="3.3994">
        <ele>48.188402</ele>
        <time>2023-01-07T16:38:58.106Z</time>
      </trkpt>
      <trkpt lat="43.29224" lon="3.39946">
        <ele>48.137496</ele>
        <time>2023-01-07T16:39:00.118Z</time>
      </trkpt>
      <trkpt lat="43.29232" lon="3.39953">
        <ele>48.088957</ele>
        <time>2023-01-07T16:39:02.107Z</time>
      </trkpt>
      <trkpt lat="43.2924" lon="3.39961">
        <ele>48.039818</ele>
        <time>2023-01-07T16:39:04.089Z</time>
      </trkpt>
      <trkpt lat="43.29246" lon="3.3997">
        <ele>47.99374</ele>
        <time>2023-01-07T16:39:06.104Z</time>
      </trkpt>
      <trkpt lat="43.29253" lon="3.3998">
        <ele>47.946515</ele>
        <time>2023-01-07T16:39:08.105Z</time>
      </trkpt>
      <trkpt lat="43.29259" lon="3.39995">
        <ele>47.883437</ele>
        <time>2023-01-07T16:39:11.091Z</time>
      </trkpt>
      <trkpt lat="43.29263" lon="3.40012">
        <ele>47.819825</ele>
        <time>2023-01-07T16:39:14.103Z</time>
      </trkpt>
      <trkpt lat="43.29266" lon="3.40029">
        <ele>47.753759</ele>
        <time>2023-01-07T16:39:17.106Z</time>
      </trkpt>
      <trkpt lat="43.29266" lon="3.40042">
        <ele>47.706659</ele>
        <time>2023-01-07T16:39:19.103Z</time>
      </trkpt>
      <trkpt lat="43.29268" lon="3.40061">
        <ele>47.639501</ele>
        <time>2023-01-07T16:39:22.096Z</time>
      </trkpt>
      <trkpt lat="43.29267" lon="3.40074">
        <ele>47.592092</ele>
        <time>2023-01-07T16:39:24.112Z</time>
      </trkpt>
      <trkpt lat="43.29267" lon="3.40087">
        <ele>47.54616</ele>
        <time>2023-01-07T16:39:26.103Z</time>
      </trkpt>
      <trkpt lat="43.29268" lon="3.401">
        <ele>47.499152</ele>
        <time>2023-01-07T16:39:28.109Z</time>
      </trkpt>
      <trkpt lat="43.29268" lon="3.40113">
        <ele>47.452845</ele>
        <time>2023-01-07T16:39:30.108Z</time>
      </trkpt>
      <trkpt lat="43.29267" lon="3.40126">
        <ele>47.464546</ele>
        <time>2023-01-07T16:39:32.092Z</time>
      </trkpt>
      <trkpt lat="43.29267" lon="3.40145">
        <ele>47.508642</ele>
        <time>2023-01-07T16:39:35.109Z</time>
      </trkpt>
      <trkpt lat="43.29266" lon="3.40159">
        <ele>47.539798</ele>
        <time>2023-01-07T16:39:37.092Z</time>
      </trkpt>
      <trkpt lat="43.29265" lon="3.40172">
        <ele>47.569038</ele>
        <time>2023-01-07T16:39:39.099Z</time>
      </trkpt>
      <trkpt lat="43.29264" lon="3.40185">
        <ele>47.598362</ele>
        <time>2023-01-07T16:39:41.105Z</time>
      </trkpt>
      <trkpt lat="43.29262" lon="3.40199">
        <ele>47.63165</ele>
        <time>2023-01-07T16:39:43.100Z</time>
      </trkpt>
      <trkpt lat="43.29262" lon="3.40213">
        <ele>47.662068</ele>
        <time>2023-01-07T16:39:45.119Z</time>
      </trkpt>
      <trkpt lat="43.2926" lon="3.40226">
        <ele>47.692586</ele>
        <time>2023-01-07T16:39:47.105Z</time>
      </trkpt>
      <trkpt lat="43.29259" lon="3.40239">
        <ele>47.722887</ele>
        <time>2023-01-07T16:39:49.096Z</time>
      </trkpt>
      <trkpt lat="43.29257" lon="3.40253">
        <ele>47.75425</ele>
        <time>2023-01-07T16:39:51.094Z</time>
      </trkpt>
      <trkpt lat="43.29255" lon="3.40267">
        <ele>47.78548</ele>
        <time>2023-01-07T16:39:53.112Z</time>
      </trkpt>
      <trkpt lat="43.29254" lon="3.40281">
        <ele>47.817786</ele>
        <time>2023-01-07T16:39:55.108Z</time>
      </trkpt>
      <trkpt lat="43.29252" lon="3.40295">
        <ele>47.850892</ele>
        <time>2023-01-07T16:39:57.097Z</time>
      </trkpt>
      <trkpt lat="43.29252" lon="3.40309">
        <ele>47.881648</ele>
        <time>2023-01-07T16:39:59.103Z</time>
      </trkpt>
      <trkpt lat="43.29251" lon="3.40323">
        <ele>47.913783</ele>
        <time>2023-01-07T16:40:01.092Z</time>
      </trkpt>
      <trkpt lat="43.29252" lon="3.40337">
        <ele>47.944377</ele>
        <time>2023-01-07T16:40:03.100Z</time>
      </trkpt>
      <trkpt lat="43.29253" lon="3.40351">
        <ele>47.976596</ele>
        <time>2023-01-07T16:40:05.096Z</time>
      </trkpt>
      <trkpt lat="43.29254" lon="3.40365">
        <ele>47.997176</ele>
        <time>2023-01-07T16:40:07.096Z</time>
      </trkpt>
      <trkpt lat="43.29255" lon="3.40378">
        <ele>47.986142</ele>
        <time>2023-01-07T16:40:09.094Z</time>
      </trkpt>
      <trkpt lat="43.29256" lon="3.40392">
        <ele>47.974766</ele>
        <time>2023-01-07T16:40:11.101Z</time>
      </trkpt>
      <trkpt lat="43.29256" lon="3.40406">
        <ele>47.963487</ele>
        <time>2023-01-07T16:40:13.103Z</time>
      </trkpt>
      <trkpt lat="43.29254" lon="3.4042">
        <ele>47.952625</ele>
        <time>2023-01-07T16:40:15.109Z</time>
      </trkpt>
      <trkpt lat="43.29251" lon="3.40437">
        <ele>47.938348</ele>
        <time>2023-01-07T16:40:18.103Z</time>
      </trkpt>
      <trkpt lat="43.29249" lon="3.40451">
        <ele>47.927172</ele>
        <time>2023-01-07T16:40:21.100Z</time>
      </trkpt>
      <trkpt lat="43.29248" lon="3.40465">
        <ele>47.915804</ele>
        <time>2023-01-07T16:40:24.107Z</time>
      </trkpt>
      <trkpt lat="43.29249" lon="3.4048">
        <ele>47.9031</ele>
        <time>2023-01-07T16:40:27.110Z</time>
      </trkpt>
      <trkpt lat="43.29254" lon="3.40496">
        <ele>47.889186</ele>
        <time>2023-01-07T16:40:30.108Z</time>
      </trkpt>
      <trkpt lat="43.29266" lon="3.40506">
        <ele>47.874262</ele>
        <time>2023-01-07T16:40:33.096Z</time>
      </trkpt>
      <trkpt lat="43.29276" lon="3.405">
        <ele>47.862352</ele>
        <time>2023-01-07T16:40:34.091Z</time>
      </trkpt>
      <trkpt lat="43.29285" lon="3.405">
        <ele>47.851835</ele>
        <time>2023-01-07T16:40:36.095Z</time>
      </trkpt>
      <trkpt lat="43.29294" lon="3.40498">
        <ele>47.841758</ele>
        <time>2023-01-07T16:40:38.100Z</time>
      </trkpt>
      <trkpt lat="43.29303" lon="3.40496">
        <ele>47.831331</ele>
        <time>2023-01-07T16:40:40.098Z</time>
      </trkpt>
      <trkpt lat="43.29314" lon="3.40492">
        <ele>47.819608</ele>
        <time>2023-01-07T16:40:43.096Z</time>
      </trkpt>
      <trkpt lat="43.29326" lon="3.40503">
        <ele>47.803635</ele>
        <time>2023-01-07T16:41:22.098Z</time>
      </trkpt>
      <trkpt lat="43.29334" lon="3.40514">
        <ele>47.780639</ele>
        <time>2023-01-07T16:41:28.097Z</time>
      </trkpt>
      <trkpt lat="43.29335" lon="3.40527">
        <ele>47.759943</ele>
        <time>2023-01-07T16:41:31.108Z</time>
      </trkpt>
      <trkpt lat="43.29337" lon="3.4054">
        <ele>47.737426</ele>
        <time>2023-01-07T16:41:34.110Z</time>
      </trkpt>
      <trkpt lat="43.29339" lon="3.40556">
        <ele>47.711032</ele>
        <time>2023-01-07T16:41:37.105Z</time>
      </trkpt>
      <trkpt lat="43.2934" lon="3.40573">
        <ele>47.683073</ele>
        <time>2023-01-07T16:41:40.102Z</time>
      </trkpt>
      <trkpt lat="43.29342" lon="3.4059">
        <ele>47.655747</ele>
        <time>2023-01-07T16:41:43.105Z</time>
      </trkpt>
      <trkpt lat="43.29344" lon="3.40604">
        <ele>47.632636</ele>
        <time>2023-01-07T16:41:46.097Z</time>
      </trkpt>
      <trkpt lat="43.29347" lon="3.40616">
        <ele>47.611027</ele>
        <time>2023-01-07T16:41:49.102Z</time>
      </trkpt>
      <trkpt lat="43.29348" lon="3.40629">
        <ele>47.590681</ele>
        <time>2023-01-07T16:41:52.104Z</time>
      </trkpt>
      <trkpt lat="43.29345" lon="3.40641">
        <ele>47.569681</ele>
        <time>2023-01-07T16:41:55.110Z</time>
      </trkpt>
      <trkpt lat="43.29341" lon="3.40653">
        <ele>47.547689</ele>
        <time>2023-01-07T16:41:58.097Z</time>
      </trkpt>
      <trkpt lat="43.29339" lon="3.40668">
        <ele>47.523461</ele>
        <time>2023-01-07T16:42:01.095Z</time>
      </trkpt>
      <trkpt lat="43.29342" lon="3.40683">
        <ele>47.497708</ele>
        <time>2023-01-07T16:42:04.106Z</time>
      </trkpt>
      <trkpt lat="43.29345" lon="3.40697">
        <ele>47.474088</ele>
        <time>2023-01-07T16:42:08.098Z</time>
      </trkpt>
      <trkpt lat="43.29349" lon="3.40711">
        <ele>47.449409</ele>
        <time>2023-01-07T16:42:22.100Z</time>
      </trkpt>
      <trkpt lat="43.29358" lon="3.40723">
        <ele>47.421647</ele>
        <time>2023-01-07T16:42:26.100Z</time>
      </trkpt>
      <trkpt lat="43.29368" lon="3.40731">
        <ele>47.399867</ele>
        <time>2023-01-07T16:42:29.099Z</time>
      </trkpt>
      <trkpt lat="43.29379" lon="3.40738">
        <ele>47.422522</ele>
        <time>2023-01-07T16:42:32.099Z</time>
      </trkpt>
      <trkpt lat="43.29391" lon="3.40746">
        <ele>47.44562</ele>
        <time>2023-01-07T16:42:35.109Z</time>
      </trkpt>
      <trkpt lat="43.294" lon="3.40749">
        <ele>47.462655</ele>
        <time>2023-01-07T16:42:37.107Z</time>
      </trkpt>
      <trkpt lat="43.2941" lon="3.40758">
        <ele>47.484961</ele>
        <time>2023-01-07T16:42:40.098Z</time>
      </trkpt>
      <trkpt lat="43.2942" lon="3.40765">
        <ele>47.504728</ele>
        <time>2023-01-07T16:42:43.103Z</time>
      </trkpt>
      <trkpt lat="43.29427" lon="3.40773">
        <ele>47.521773</ele>
        <time>2023-01-07T16:42:46.100Z</time>
      </trkpt>
      <trkpt lat="43.29427" lon="3.40788">
        <ele>47.541011</ele>
        <time>2023-01-07T16:42:49.109Z</time>
      </trkpt>
      <trkpt lat="43.29423" lon="3.40805">
        <ele>47.564493</ele>
        <time>2023-01-07T16:42:52.095Z</time>
      </trkpt>
      <trkpt lat="43.29418" lon="3.40822">
        <ele>47.588641</ele>
        <time>2023-01-07T16:42:55.099Z</time>
      </trkpt>
      <trkpt lat="43.29412" lon="3.40838">
        <ele>47.612115</ele>
        <time>2023-01-07T16:42:58.108Z</time>
      </trkpt>
      <trkpt lat="43.29407" lon="3.40852">
        <ele>47.633423</ele>
        <time>2023-01-07T16:43:01.105Z</time>
      </trkpt>
      <trkpt lat="43.29403" lon="3.40866">
        <ele>47.653482</ele>
        <time>2023-01-07T16:43:04.106Z</time>
      </trkpt>
      <trkpt lat="43.29399" lon="3.40881">
        <ele>47.673665</ele>
        <time>2023-01-07T16:43:07.118Z</time>
      </trkpt>
      <trkpt lat="43.29393" lon="3.40896">
        <ele>47.696301</ele>
        <time>2023-01-07T16:43:10.097Z</time>
      </trkpt>
      <trkpt lat="43.29389" lon="3.40907">
        <ele>47.712465</ele>
        <time>2023-01-07T16:43:12.107Z</time>
      </trkpt>
      <trkpt lat="43.29384" lon="3.40924">
        <ele>47.701001</ele>
        <time>2023-01-07T16:43:15.103Z</time>
      </trkpt>
      <trkpt lat="43.29381" lon="3.40936">
        <ele>47.672717</ele>
        <time>2023-01-07T16:43:17.098Z</time>
      </trkpt>
      <trkpt lat="43.29377" lon="3.40948">
        <ele>47.644504</ele>
        <time>2023-01-07T16:43:19.111Z</time>
      </trkpt>
      <trkpt lat="43.29373" lon="3.40959">
        <ele>47.616124</ele>
        <time>2023-01-07T16:43:21.095Z</time>
      </trkpt>
      <trkpt lat="43.29369" lon="3.40971">
        <ele>47.587138</ele>
        <time>2023-01-07T16:43:23.118Z</time>
      </trkpt>
      <trkpt lat="43.29365" lon="3.40983">
        <ele>47.559008</ele>
        <time>2023-01-07T16:43:25.114Z</time>
      </trkpt>
      <trkpt lat="43.29361" lon="3.40994">
        <ele>47.529897</ele>
        <time>2023-01-07T16:43:27.101Z</time>
      </trkpt>
      <trkpt lat="43.29358" lon="3.41007">
        <ele>47.500771</ele>
        <time>2023-01-07T16:43:29.118Z</time>
      </trkpt>
      <trkpt lat="43.29355" lon="3.41019">
        <ele>47.471749</ele>
        <time>2023-01-07T16:43:31.109Z</time>
      </trkpt>
      <trkpt lat="43.29351" lon="3.41032">
        <ele>47.442002</ele>
        <time>2023-01-07T16:43:33.094Z</time>
      </trkpt>
      <trkpt lat="43.29348" lon="3.41044">
        <ele>47.412048</ele>
        <time>2023-01-07T16:43:35.096Z</time>
      </trkpt>
      <trkpt lat="43.29344" lon="3.41057">
        <ele>47.382723</ele>
        <time>2023-01-07T16:43:37.108Z</time>
      </trkpt>
      <trkpt lat="43.29341" lon="3.41069">
        <ele>47.352636</ele>
        <time>2023-01-07T16:43:39.107Z</time>
      </trkpt>
      <trkpt lat="43.29337" lon="3.41081">
        <ele>47.323205</ele>
        <time>2023-01-07T16:43:41.107Z</time>
      </trkpt>
      <trkpt lat="43.29333" lon="3.41093">
        <ele>47.294896</ele>
        <time>2023-01-07T16:43:43.092Z</time>
      </trkpt>
      <trkpt lat="43.29327" lon="3.41108">
        <ele>47.255955</ele>
        <time>2023-01-07T16:43:46.103Z</time>
      </trkpt>
      <trkpt lat="43.29321" lon="3.41123">
        <ele>47.218475</ele>
        <time>2023-01-07T16:43:49.101Z</time>
      </trkpt>
      <trkpt lat="43.29315" lon="3.41138">
        <ele>47.180394</ele>
        <time>2023-01-07T16:43:52.096Z</time>
      </trkpt>
      <trkpt lat="43.29311" lon="3.41153">
        <ele>47.247621</ele>
        <time>2023-01-07T16:43:55.094Z</time>
      </trkpt>
      <trkpt lat="43.29315" lon="3.41167">
        <ele>47.330774</ele>
        <time>2023-01-07T16:43:58.094Z</time>
      </trkpt>
      <trkpt lat="43.29325" lon="3.41176">
        <ele>47.424391</ele>
        <time>2023-01-07T16:44:01.101Z</time>
      </trkpt>
      <trkpt lat="43.29338" lon="3.41174">
        <ele>47.527541</ele>
        <time>2023-01-07T16:44:03.094Z</time>
      </trkpt>
      <trkpt lat="43.29351" lon="3.41178">
        <ele>47.626499</ele>
        <time>2023-01-07T16:44:06.091Z</time>
      </trkpt>
      <trkpt lat="43.29363" lon="3.41181">
        <ele>47.723219</ele>
        <time>2023-01-07T16:44:09.102Z</time>
      </trkpt>
      <trkpt lat="43.29376" lon="3.41184">
        <ele>47.82109</ele>
        <time>2023-01-07T16:44:12.091Z</time>
      </trkpt>
      <trkpt lat="43.29389" lon="3.41185">
        <ele>47.91597</ele>
        <time>2023-01-07T16:44:15.091Z</time>
      </trkpt>
      <trkpt lat="43.29402" lon="3.41187">
        <ele>48.018077</ele>
        <time>2023-01-07T16:44:18.089Z</time>
      </trkpt>
      <trkpt lat="43.29414" lon="3.41194">
        <ele>48.118584</ele>
        <time>2023-01-07T16:44:21.101Z</time>
      </trkpt>
      <trkpt lat="43.29418" lon="3.41214">
        <ele>48.232683</ele>
        <time>2023-01-07T16:44:24.101Z</time>
      </trkpt>
      <trkpt lat="43.29418" lon="3.41227">
        <ele>48.302589</ele>
        <time>2023-01-07T16:44:26.102Z</time>
      </trkpt>
      <trkpt lat="43.29418" lon="3.4124">
        <ele>48.375883</ele>
        <time>2023-01-07T16:44:28.093Z</time>
      </trkpt>
      <trkpt lat="43.29417" lon="3.41257">
        <ele>48.471189</ele>
        <time>2023-01-07T16:44:31.105Z</time>
      </trkpt>
      <trkpt lat="43.29414" lon="3.41275">
        <ele>48.540988</ele>
        <time>2023-01-07T16:44:34.095Z</time>
      </trkpt>
      <trkpt lat="43.29412" lon="3.41293">
        <ele>48.521656</ele>
        <time>2023-01-07T16:44:37.101Z</time>
      </trkpt>
      <trkpt lat="43.29412" lon="3.41311">
        <ele>48.503599</ele>
        <time>2023-01-07T16:44:40.097Z</time>
      </trkpt>
      <trkpt lat="43.29412" lon="3.41324">
        <ele>48.490748</ele>
        <time>2023-01-07T16:44:42.094Z</time>
      </trkpt>
      <trkpt lat="43.29411" lon="3.41336">
        <ele>48.477855</ele>
        <time>2023-01-07T16:44:44.100Z</time>
      </trkpt>
      <trkpt lat="43.2941" lon="3.41349">
        <ele>48.464872</ele>
        <time>2023-01-07T16:44:46.097Z</time>
      </trkpt>
      <trkpt lat="43.2941" lon="3.41362">
        <ele>48.451812</ele>
        <time>2023-01-07T16:44:48.103Z</time>
      </trkpt>
      <trkpt lat="43.2941" lon="3.41375">
        <ele>48.438558</ele>
        <time>2023-01-07T16:44:50.108Z</time>
      </trkpt>
      <trkpt lat="43.29408" lon="3.41387">
        <ele>48.425569</ele>
        <time>2023-01-07T16:44:52.102Z</time>
      </trkpt>
      <trkpt lat="43.29406" lon="3.414">
        <ele>48.411961</ele>
        <time>2023-01-07T16:44:54.104Z</time>
      </trkpt>
      <trkpt lat="43.29403" lon="3.41413">
        <ele>48.398376</ele>
        <time>2023-01-07T16:44:56.097Z</time>
      </trkpt>
      <trkpt lat="43.29399" lon="3.41426">
        <ele>48.384582</ele>
        <time>2023-01-07T16:44:58.095Z</time>
      </trkpt>
      <trkpt lat="43.29396" lon="3.41438">
        <ele>48.371498</ele>
        <time>2023-01-07T16:45:00.105Z</time>
      </trkpt>
      <trkpt lat="43.29393" lon="3.4145">
        <ele>48.357844</ele>
        <time>2023-01-07T16:45:02.106Z</time>
      </trkpt>
      <trkpt lat="43.29389" lon="3.41463">
        <ele>48.34398</ele>
        <time>2023-01-07T16:45:04.101Z</time>
      </trkpt>
      <trkpt lat="43.29386" lon="3.41475">
        <ele>48.331037</ele>
        <time>2023-01-07T16:45:06.105Z</time>
      </trkpt>
      <trkpt lat="43.29383" lon="3.41488">
        <ele>48.317049</ele>
        <time>2023-01-07T16:45:08.098Z</time>
      </trkpt>
      <trkpt lat="43.2938" lon="3.415">
        <ele>48.30366</ele>
        <time>2023-01-07T16:45:10.098Z</time>
      </trkpt>
      <trkpt lat="43.29377" lon="3.41518">
        <ele>48.283539</ele>
        <time>2023-01-07T16:45:13.101Z</time>
      </trkpt>
      <trkpt lat="43.29377" lon="3.41536">
        <ele>48.26199</ele>
        <time>2023-01-07T16:45:16.108Z</time>
      </trkpt>
      <trkpt lat="43.29379" lon="3.41548">
        <ele>48.246811</ele>
        <time>2023-01-07T16:45:18.095Z</time>
      </trkpt>
      <trkpt lat="43.29385" lon="3.41564">
        <ele>48.224961</ele>
        <time>2023-01-07T16:45:21.109Z</time>
      </trkpt>
      <trkpt lat="43.29391" lon="3.41575">
        <ele>48.208913</ele>
        <time>2023-01-07T16:45:23.093Z</time>
      </trkpt>
      <trkpt lat="43.29397" lon="3.41585">
        <ele>48.192706</ele>
        <time>2023-01-07T16:45:25.107Z</time>
      </trkpt>
      <trkpt lat="43.29404" lon="3.41595">
        <ele>48.175827</ele>
        <time>2023-01-07T16:45:27.104Z</time>
      </trkpt>
      <trkpt lat="43.2941" lon="3.41605">
        <ele>48.160128</ele>
        <time>2023-01-07T16:45:29.103Z</time>
      </trkpt>
      <trkpt lat="43.29417" lon="3.41614">
        <ele>48.144677</ele>
        <time>2023-01-07T16:45:31.098Z</time>
      </trkpt>
      <trkpt lat="43.29426" lon="3.41627">
        <ele>48.122834</ele>
        <time>2023-01-07T16:45:34.095Z</time>
      </trkpt>
      <trkpt lat="43.29432" lon="3.41642">
        <ele>48.102753</ele>
        <time>2023-01-07T16:45:37.092Z</time>
      </trkpt>
      <trkpt lat="43.29435" lon="3.41657">
        <ele>48.084135</ele>
        <time>2023-01-07T16:45:40.104Z</time>
      </trkpt>
      <trkpt lat="43.29436" lon="3.41672">
        <ele>48.065769</ele>
        <time>2023-01-07T16:45:43.103Z</time>
      </trkpt>
      <trkpt lat="43.29436" lon="3.41686">
        <ele>48.048701</ele>
        <time>2023-01-07T16:45:46.110Z</time>
      </trkpt>
      <trkpt lat="43.29435" lon="3.41699">
        <ele>48.032053</ele>
        <time>2023-01-07T16:45:49.108Z</time>
      </trkpt>
      <trkpt lat="43.29431" lon="3.41713">
        <ele>48.014412</ele>
        <time>2023-01-07T16:45:52.115Z</time>
      </trkpt>
      <trkpt lat="43.29424" lon="3.41725">
        <ele>47.995523</ele>
        <time>2023-01-07T16:45:55.095Z</time>
      </trkpt>
      <trkpt lat="43.2942" lon="3.41739">
        <ele>47.974032</ele>
        <time>2023-01-07T16:45:58.093Z</time>
      </trkpt>
      <trkpt lat="43.29423" lon="3.41753">
        <ele>47.952822</ele>
        <time>2023-01-07T16:46:01.092Z</time>
      </trkpt>
      <trkpt lat="43.29432" lon="3.4176">
        <ele>47.932631</ele>
        <time>2023-01-07T16:46:05.105Z</time>
      </trkpt>
      <trkpt lat="43.29438" lon="3.41748">
        <ele>47.910528</ele>
        <time>2023-01-07T16:46:09.107Z</time>
      </trkpt>
      <trkpt lat="43.29447" lon="3.41744">
        <ele>47.892704</ele>
        <time>2023-01-07T16:46:14.095Z</time>
      </trkpt>
      <trkpt lat="43.29458" lon="3.41745">
        <ele>47.871078</ele>
        <time>2023-01-07T16:46:18.107Z</time>
      </trkpt>
      <trkpt lat="43.2947" lon="3.41748">
        <ele>47.848522</ele>
        <time>2023-01-07T16:46:21.115Z</time>
      </trkpt>
      <trkpt lat="43.29481" lon="3.41753">
        <ele>47.825632</ele>
        <time>2023-01-07T16:46:24.099Z</time>
      </trkpt>
      <trkpt lat="43.29493" lon="3.41756">
        <ele>47.802366</ele>
        <time>2023-01-07T16:46:27.111Z</time>
      </trkpt>
      <trkpt lat="43.29505" lon="3.41759">
        <ele>47.777983</ele>
        <time>2023-01-07T16:46:30.100Z</time>
      </trkpt>
      <trkpt lat="43.29518" lon="3.41762">
        <ele>47.753054</ele>
        <time>2023-01-07T16:46:33.098Z</time>
      </trkpt>
      <trkpt lat="43.29531" lon="3.41766">
        <ele>47.727356</ele>
        <time>2023-01-07T16:46:36.100Z</time>
      </trkpt>
      <trkpt lat="43.2954" lon="3.41772">
        <ele>47.707955</ele>
        <time>2023-01-07T16:46:38.102Z</time>
      </trkpt>
      <trkpt lat="43.29548" lon="3.41775">
        <ele>47.690252</ele>
        <time>2023-01-07T16:46:40.095Z</time>
      </trkpt>
      <trkpt lat="43.29562" lon="3.41777">
        <ele>47.664154</ele>
        <time>2023-01-07T16:46:43.092Z</time>
      </trkpt>
      <trkpt lat="43.29571" lon="3.41778">
        <ele>47.645981</ele>
        <time>2023-01-07T16:46:45.094Z</time>
      </trkpt>
      <trkpt lat="43.29581" lon="3.41779">
        <ele>47.654287</ele>
        <time>2023-01-07T16:46:47.090Z</time>
      </trkpt>
      <trkpt lat="43.2959" lon="3.4178">
        <ele>47.664278</ele>
        <time>2023-01-07T16:46:49.095Z</time>
      </trkpt>
      <trkpt lat="43.29599" lon="3.4178">
        <ele>47.674261</ele>
        <time>2023-01-07T16:46:51.097Z</time>
      </trkpt>
      <trkpt lat="43.29612" lon="3.41781">
        <ele>47.688122</ele>
        <time>2023-01-07T16:46:54.101Z</time>
      </trkpt>
      <trkpt lat="43.29625" lon="3.41781">
        <ele>47.702072</ele>
        <time>2023-01-07T16:46:57.112Z</time>
      </trkpt>
      <trkpt lat="43.29638" lon="3.41781">
        <ele>47.716131</ele>
        <time>2023-01-07T16:47:00.106Z</time>
      </trkpt>
      <trkpt lat="43.29651" lon="3.41781">
        <ele>47.730299</ele>
        <time>2023-01-07T16:47:03.088Z</time>
      </trkpt>
      <trkpt lat="43.29665" lon="3.41782">
        <ele>47.744803</ele>
        <time>2023-01-07T16:47:06.116Z</time>
      </trkpt>
      <trkpt lat="43.29674" lon="3.41782">
        <ele>47.754569</ele>
        <time>2023-01-07T16:47:08.093Z</time>
      </trkpt>
      <trkpt lat="43.29683" lon="3.41782">
        <ele>47.764338</ele>
        <time>2023-01-07T16:47:10.093Z</time>
      </trkpt>
      <trkpt lat="43.29695" lon="3.41783">
        <ele>47.776896</ele>
        <time>2023-01-07T16:47:13.103Z</time>
      </trkpt>
      <trkpt lat="43.29705" lon="3.41782">
        <ele>47.788271</ele>
        <time>2023-01-07T16:47:16.099Z</time>
      </trkpt>
      <trkpt lat="43.29715" lon="3.41783">
        <ele>47.799009</ele>
        <time>2023-01-07T16:47:19.106Z</time>
      </trkpt>
      <trkpt lat="43.29725" lon="3.41782">
        <ele>47.809855</ele>
        <time>2023-01-07T16:47:22.095Z</time>
      </trkpt>
      <trkpt lat="43.29736" lon="3.41782">
        <ele>47.82166</ele>
        <time>2023-01-07T16:47:25.104Z</time>
      </trkpt>
      <trkpt lat="43.29747" lon="3.41781">
        <ele>47.83318</ele>
        <time>2023-01-07T16:47:28.091Z</time>
      </trkpt>
      <trkpt lat="43.29757" lon="3.41782">
        <ele>47.850391</ele>
        <time>2023-01-07T16:47:31.104Z</time>
      </trkpt>
      <trkpt lat="43.29768" lon="3.41782">
        <ele>47.874222</ele>
        <time>2023-01-07T16:47:34.100Z</time>
      </trkpt>
      <trkpt lat="43.29781" lon="3.41779">
        <ele>47.902011</ele>
        <time>2023-01-07T16:47:37.112Z</time>
      </trkpt>
      <trkpt lat="43.29794" lon="3.4178">
        <ele>47.929315</ele>
        <time>2023-01-07T16:47:40.098Z</time>
      </trkpt>
      <trkpt lat="43.29806" lon="3.41779">
        <ele>47.956852</ele>
        <time>2023-01-07T16:47:43.105Z</time>
      </trkpt>
      <trkpt lat="43.29815" lon="3.4178">
        <ele>47.97683</ele>
        <time>2023-01-07T16:47:45.099Z</time>
      </trkpt>
      <trkpt lat="43.29828" lon="3.41779">
        <ele>48.003943</ele>
        <time>2023-01-07T16:47:48.094Z</time>
      </trkpt>
      <trkpt lat="43.29841" lon="3.41779">
        <ele>48.031668</ele>
        <time>2023-01-07T16:47:51.110Z</time>
      </trkpt>
      <trkpt lat="43.29854" lon="3.41779">
        <ele>48.05961</ele>
        <time>2023-01-07T16:47:54.087Z</time>
      </trkpt>
      <trkpt lat="43.29867" lon="3.41779">
        <ele>48.088204</ele>
        <time>2023-01-07T16:47:57.112Z</time>
      </trkpt>
      <trkpt lat="43.2988" lon="3.41779">
        <ele>48.116148</ele>
        <time>2023-01-07T16:48:00.096Z</time>
      </trkpt>
      <trkpt lat="43.29894" lon="3.41779">
        <ele>48.146045</ele>
        <time>2023-01-07T16:48:03.101Z</time>
      </trkpt>
      <trkpt lat="43.29906" lon="3.41779">
        <ele>48.173128</ele>
        <time>2023-01-07T16:48:06.098Z</time>
      </trkpt>
      <trkpt lat="43.29919" lon="3.41778">
        <ele>48.200226</ele>
        <time>2023-01-07T16:48:09.093Z</time>
      </trkpt>
      <trkpt lat="43.29931" lon="3.41779">
        <ele>48.227677</ele>
        <time>2023-01-07T16:48:12.100Z</time>
      </trkpt>
      <trkpt lat="43.29943" lon="3.41778">
        <ele>48.237681</ele>
        <time>2023-01-07T16:48:15.099Z</time>
      </trkpt>
      <trkpt lat="43.29954" lon="3.41777">
        <ele>48.246747</ele>
        <time>2023-01-07T16:48:18.094Z</time>
      </trkpt>
      <trkpt lat="43.29965" lon="3.41781">
        <ele>48.25632</ele>
        <time>2023-01-07T16:48:21.100Z</time>
      </trkpt>
      <trkpt lat="43.29974" lon="3.41788">
        <ele>48.264527</ele>
        <time>2023-01-07T16:48:24.106Z</time>
      </trkpt>
      <trkpt lat="43.29983" lon="3.41787">
        <ele>48.272273</ele>
        <time>2023-01-07T16:48:27.104Z</time>
      </trkpt>
      <trkpt lat="43.29994" lon="3.41788">
        <ele>48.281436</ele>
        <time>2023-01-07T16:48:30.102Z</time>
      </trkpt>
      <trkpt lat="43.30005" lon="3.41789">
        <ele>48.291284</ele>
        <time>2023-01-07T16:48:33.094Z</time>
      </trkpt>
      <trkpt lat="43.30018" lon="3.41791">
        <ele>48.30162</ele>
        <time>2023-01-07T16:48:36.104Z</time>
      </trkpt>
      <trkpt lat="43.3003" lon="3.41794">
        <ele>48.312271</ele>
        <time>2023-01-07T16:48:39.104Z</time>
      </trkpt>
      <trkpt lat="43.30043" lon="3.41797">
        <ele>48.322857</ele>
        <time>2023-01-07T16:48:42.093Z</time>
      </trkpt>
      <trkpt lat="43.30055" lon="3.41799">
        <ele>48.333552</ele>
        <time>2023-01-07T16:48:45.105Z</time>
      </trkpt>
      <trkpt lat="43.30067" lon="3.41802">
        <ele>48.343814</ele>
        <time>2023-01-07T16:48:48.099Z</time>
      </trkpt>
      <trkpt lat="43.30078" lon="3.41804">
        <ele>48.353163</ele>
        <time>2023-01-07T16:48:51.107Z</time>
      </trkpt>
      <trkpt lat="43.30088" lon="3.41807">
        <ele>48.361601</ele>
        <time>2023-01-07T16:48:54.093Z</time>
      </trkpt>
      <trkpt lat="43.30099" lon="3.4181">
        <ele>48.371218</ele>
        <time>2023-01-07T16:48:57.105Z</time>
      </trkpt>
      <trkpt lat="43.30109" lon="3.4182">
        <ele>48.374756</ele>
        <time>2023-01-07T16:49:00.096Z</time>
      </trkpt>
      <trkpt lat="43.30114" lon="3.41835">
        <ele>48.361744</ele>
        <time>2023-01-07T16:49:03.100Z</time>
      </trkpt>
      <trkpt lat="43.3012" lon="3.4185">
        <ele>48.348274</ele>
        <time>2023-01-07T16:49:06.103Z</time>
      </trkpt>
      <trkpt lat="43.30128" lon="3.41864">
        <ele>48.335147</ele>
        <time>2023-01-07T16:49:09.098Z</time>
      </trkpt>
      <trkpt lat="43.30138" lon="3.41874">
        <ele>48.321868</ele>
        <time>2023-01-07T16:49:12.105Z</time>
      </trkpt>
      <trkpt lat="43.30149" lon="3.4188">
        <ele>48.308934</ele>
        <time>2023-01-07T16:49:15.099Z</time>
      </trkpt>
      <trkpt lat="43.3016" lon="3.41882">
        <ele>48.297293</ele>
        <time>2023-01-07T16:49:18.101Z</time>
      </trkpt>
      <trkpt lat="43.3017" lon="3.41882">
        <ele>48.286202</ele>
        <time>2023-01-07T16:49:21.121Z</time>
      </trkpt>
      <trkpt lat="43.30182" lon="3.41885">
        <ele>48.274104</ele>
        <time>2023-01-07T16:49:24.103Z</time>
      </trkpt>
      <trkpt lat="43.30189" lon="3.41894">
        <ele>48.263096</ele>
        <time>2023-01-07T16:49:27.107Z</time>
      </trkpt>
      <trkpt lat="43.30197" lon="3.41905">
        <ele>48.251253</ele>
        <time>2023-01-07T16:49:31.108Z</time>
      </trkpt>
      <trkpt lat="43.30202" lon="3.41918">
        <ele>48.240388</ele>
        <time>2023-01-07T16:49:37.105Z</time>
      </trkpt>
      <trkpt lat="43.302" lon="3.41933">
        <ele>48.228455</ele>
        <time>2023-01-07T16:49:40.105Z</time>
      </trkpt>
      <trkpt lat="43.30199" lon="3.41945">
        <ele>48.218759</ele>
        <time>2023-01-07T16:49:42.115Z</time>
      </trkpt>
      <trkpt lat="43.30198" lon="3.41959">
        <ele>48.20824</ele>
        <time>2023-01-07T16:49:44.104Z</time>
      </trkpt>
      <trkpt lat="43.30197" lon="3.41972">
        <ele>48.197488</ele>
        <time>2023-01-07T16:49:46.106Z</time>
      </trkpt>
      <trkpt lat="43.30196" lon="3.41986">
        <ele>48.187082</ele>
        <time>2023-01-07T16:49:48.113Z</time>
      </trkpt>
      <trkpt lat="43.30197" lon="3.41998">
        <ele>48.221366</ele>
        <time>2023-01-07T16:49:50.098Z</time>
      </trkpt>
      <trkpt lat="43.30199" lon="3.42011">
        <ele>48.259633</ele>
        <time>2023-01-07T16:49:52.117Z</time>
      </trkpt>
      <trkpt lat="43.30203" lon="3.42024">
        <ele>48.299272</ele>
        <time>2023-01-07T16:49:54.096Z</time>
      </trkpt>
      <trkpt lat="43.30209" lon="3.42035">
        <ele>48.339315</ele>
        <time>2023-01-07T16:49:56.090Z</time>
      </trkpt>
      <trkpt lat="43.30214" lon="3.42047">
        <ele>48.379004</ele>
        <time>2023-01-07T16:49:58.098Z</time>
      </trkpt>
      <trkpt lat="43.30217" lon="3.42059">
        <ele>48.415207</ele>
        <time>2023-01-07T16:50:00.100Z</time>
      </trkpt>
      <trkpt lat="43.30221" lon="3.42075">
        <ele>48.465267</ele>
        <time>2023-01-07T16:50:03.096Z</time>
      </trkpt>
      <trkpt lat="43.30224" lon="3.42092">
        <ele>48.515684</ele>
        <time>2023-01-07T16:50:06.098Z</time>
      </trkpt>
      <trkpt lat="43.30225" lon="3.42109">
        <ele>48.565936</ele>
        <time>2023-01-07T16:50:09.106Z</time>
      </trkpt>
      <trkpt lat="43.30227" lon="3.42127">
        <ele>48.617767</ele>
        <time>2023-01-07T16:50:12.108Z</time>
      </trkpt>
      <trkpt lat="43.30228" lon="3.42144">
        <ele>48.668366</ele>
        <time>2023-01-07T16:50:15.106Z</time>
      </trkpt>
      <trkpt lat="43.30229" lon="3.42161">
        <ele>48.717134</ele>
        <time>2023-01-07T16:50:18.107Z</time>
      </trkpt>
      <trkpt lat="43.3023" lon="3.42178">
        <ele>48.767376</ele>
        <time>2023-01-07T16:50:21.093Z</time>
      </trkpt>
      <trkpt lat="43.30231" lon="3.42196">
        <ele>48.818878</ele>
        <time>2023-01-07T16:50:24.099Z</time>
      </trkpt>
      <trkpt lat="43.30231" lon="3.42209">
        <ele>48.854884</ele>
        <time>2023-01-07T16:50:26.095Z</time>
      </trkpt>
      <trkpt lat="43.30232" lon="3.42221">
        <ele>48.892247</ele>
        <time>2023-01-07T16:50:28.093Z</time>
      </trkpt>
      <trkpt lat="43.30233" lon="3.42235">
        <ele>48.862572</ele>
        <time>2023-01-07T16:50:30.099Z</time>
      </trkpt>
      <trkpt lat="43.30234" lon="3.42247">
        <ele>48.812679</ele>
        <time>2023-01-07T16:50:32.110Z</time>
      </trkpt>
      <trkpt lat="43.30234" lon="3.42261">
        <ele>48.760447</ele>
        <time>2023-01-07T16:50:34.107Z</time>
      </trkpt>
      <trkpt lat="43.30235" lon="3.42274">
        <ele>48.706558</ele>
        <time>2023-01-07T16:50:36.097Z</time>
      </trkpt>
      <trkpt lat="43.30236" lon="3.42288">
        <ele>48.653936</ele>
        <time>2023-01-07T16:50:38.099Z</time>
      </trkpt>
      <trkpt lat="43.30237" lon="3.42302">
        <ele>48.598763</ele>
        <time>2023-01-07T16:50:40.096Z</time>
      </trkpt>
      <trkpt lat="43.30239" lon="3.42315">
        <ele>48.548179</ele>
        <time>2023-01-07T16:50:42.096Z</time>
      </trkpt>
      <trkpt lat="43.3024" lon="3.42328">
        <ele>48.496821</ele>
        <time>2023-01-07T16:50:44.096Z</time>
      </trkpt>
      <trkpt lat="43.30241" lon="3.42341">
        <ele>48.44424</ele>
        <time>2023-01-07T16:50:46.105Z</time>
      </trkpt>
      <trkpt lat="43.30242" lon="3.42354">
        <ele>48.391961</ele>
        <time>2023-01-07T16:50:48.105Z</time>
      </trkpt>
      <trkpt lat="43.30242" lon="3.42368">
        <ele>48.337428</ele>
        <time>2023-01-07T16:50:50.096Z</time>
      </trkpt>
      <trkpt lat="43.30243" lon="3.42382">
        <ele>48.28203</ele>
        <time>2023-01-07T16:50:52.099Z</time>
      </trkpt>
      <trkpt lat="43.30245" lon="3.42397">
        <ele>48.222519</ele>
        <time>2023-01-07T16:50:54.099Z</time>
      </trkpt>
      <trkpt lat="43.30246" lon="3.42413">
        <ele>48.161452</ele>
        <time>2023-01-07T16:50:56.093Z</time>
      </trkpt>
      <trkpt lat="43.30247" lon="3.42427">
        <ele>48.106489</ele>
        <time>2023-01-07T16:50:58.111Z</time>
      </trkpt>
      <trkpt lat="43.30247" lon="3.4244">
        <ele>48.055583</ele>
        <time>2023-01-07T16:51:00.104Z</time>
      </trkpt>
      <trkpt lat="43.30248" lon="3.42458">
        <ele>47.983279</ele>
        <time>2023-01-07T16:51:03.096Z</time>
      </trkpt>
      <trkpt lat="43.30248" lon="3.42471">
        <ele>47.93474</ele>
        <time>2023-01-07T16:51:05.110Z</time>
      </trkpt>
      <trkpt lat="43.3025" lon="3.42483">
        <ele>47.929773</ele>
        <time>2023-01-07T16:51:07.108Z</time>
      </trkpt>
      <trkpt lat="43.30251" lon="3.42496">
        <ele>47.924888</ele>
        <time>2023-01-07T16:51:09.104Z</time>
      </trkpt>
      <trkpt lat="43.30252" lon="3.42509">
        <ele>47.919782</ele>
        <time>2023-01-07T16:51:11.105Z</time>
      </trkpt>
      <trkpt lat="43.30253" lon="3.42522">
        <ele>47.914536</ele>
        <time>2023-01-07T16:51:13.094Z</time>
      </trkpt>
      <trkpt lat="43.30254" lon="3.42534">
        <ele>47.909609</ele>
        <time>2023-01-07T16:51:15.124Z</time>
      </trkpt>
      <trkpt lat="43.30256" lon="3.42547">
        <ele>47.90447</ele>
        <time>2023-01-07T16:51:17.106Z</time>
      </trkpt>
      <trkpt lat="43.30257" lon="3.4256">
        <ele>47.899468</ele>
        <time>2023-01-07T16:51:19.103Z</time>
      </trkpt>
      <trkpt lat="43.30257" lon="3.42573">
        <ele>47.894447</ele>
        <time>2023-01-07T16:51:21.089Z</time>
      </trkpt>
      <trkpt lat="43.30258" lon="3.42586">
        <ele>47.889226</ele>
        <time>2023-01-07T16:51:23.106Z</time>
      </trkpt>
      <trkpt lat="43.30259" lon="3.42599">
        <ele>47.884024</ele>
        <time>2023-01-07T16:51:25.098Z</time>
      </trkpt>
      <trkpt lat="43.3026" lon="3.42613">
        <ele>47.878676</ele>
        <time>2023-01-07T16:51:27.110Z</time>
      </trkpt>
      <trkpt lat="43.30261" lon="3.42626">
        <ele>47.873268</ele>
        <time>2023-01-07T16:51:29.113Z</time>
      </trkpt>
      <trkpt lat="43.30262" lon="3.4264">
        <ele>47.867759</ele>
        <time>2023-01-07T16:51:31.096Z</time>
      </trkpt>
      <trkpt lat="43.30263" lon="3.42655">
        <ele>47.862063</ele>
        <time>2023-01-07T16:51:33.097Z</time>
      </trkpt>
      <trkpt lat="43.30263" lon="3.42669">
        <ele>47.85661</ele>
        <time>2023-01-07T16:51:35.120Z</time>
      </trkpt>
      <trkpt lat="43.30264" lon="3.42682">
        <ele>47.851285</ele>
        <time>2023-01-07T16:51:37.099Z</time>
      </trkpt>
      <trkpt lat="43.30264" lon="3.42696">
        <ele>47.846068</ele>
        <time>2023-01-07T16:51:39.103Z</time>
      </trkpt>
      <trkpt lat="43.30266" lon="3.42709">
        <ele>47.840909</ele>
        <time>2023-01-07T16:51:41.119Z</time>
      </trkpt>
      <trkpt lat="43.30267" lon="3.42722">
        <ele>47.856964</ele>
        <time>2023-01-07T16:51:43.100Z</time>
      </trkpt>
      <trkpt lat="43.30268" lon="3.42735">
        <ele>47.904686</ele>
        <time>2023-01-07T16:51:45.100Z</time>
      </trkpt>
      <trkpt lat="43.30268" lon="3.42748">
        <ele>47.953327</ele>
        <time>2023-01-07T16:51:47.105Z</time>
      </trkpt>
      <trkpt lat="43.30269" lon="3.42762">
        <ele>48.005329</ele>
        <time>2023-01-07T16:51:49.115Z</time>
      </trkpt>
      <trkpt lat="43.30271" lon="3.42777">
        <ele>48.05854</ele>
        <time>2023-01-07T16:51:51.121Z</time>
      </trkpt>
      <trkpt lat="43.30272" lon="3.42793">
        <ele>48.115167</ele>
        <time>2023-01-07T16:51:53.112Z</time>
      </trkpt>
      <trkpt lat="43.30273" lon="3.42807">
        <ele>48.169379</ele>
        <time>2023-01-07T16:51:55.108Z</time>
      </trkpt>
      <trkpt lat="43.30274" lon="3.42821">
        <ele>48.219075</ele>
        <time>2023-01-07T16:51:57.107Z</time>
      </trkpt>
      <trkpt lat="43.30275" lon="3.42834">
        <ele>48.267025</ele>
        <time>2023-01-07T16:51:59.104Z</time>
      </trkpt>
      <trkpt lat="43.30276" lon="3.42852">
        <ele>48.331346</ele>
        <time>2023-01-07T16:52:02.114Z</time>
      </trkpt>
      <trkpt lat="43.30276" lon="3.42869">
        <ele>48.392286</ele>
        <time>2023-01-07T16:52:05.115Z</time>
      </trkpt>
      <trkpt lat="43.30276" lon="3.42887">
        <ele>48.457864</ele>
        <time>2023-01-07T16:52:08.107Z</time>
      </trkpt>
      <trkpt lat="43.30275" lon="3.429">
        <ele>48.507342</ele>
        <time>2023-01-07T16:52:10.101Z</time>
      </trkpt>
      <trkpt lat="43.30272" lon="3.42914">
        <ele>48.559694</ele>
        <time>2023-01-07T16:52:12.110Z</time>
      </trkpt>
      <trkpt lat="43.3027" lon="3.42928">
        <ele>48.610418</ele>
        <time>2023-01-07T16:52:14.101Z</time>
      </trkpt>
      <trkpt lat="43.30268" lon="3.42945">
        <ele>48.672229</ele>
        <time>2023-01-07T16:52:17.103Z</time>
      </trkpt>
      <trkpt lat="43.30268" lon="3.42961">
        <ele>48.729889</ele>
        <time>2023-01-07T16:52:20.101Z</time>
      </trkpt>
      <trkpt lat="43.30268" lon="3.42975">
        <ele>48.7204</ele>
        <time>2023-01-07T16:52:23.112Z</time>
      </trkpt>
      <trkpt lat="43.30269" lon="3.42988">
        <ele>48.707373</ele>
        <time>2023-01-07T16:52:26.103Z</time>
      </trkpt>
      <trkpt lat="43.3027" lon="3.43004">
        <ele>48.692314</ele>
        <time>2023-01-07T16:52:30.102Z</time>
      </trkpt>
      <trkpt lat="43.30269" lon="3.43018">
        <ele>48.67872</ele>
        <time>2023-01-07T16:52:33.110Z</time>
      </trkpt>
      <trkpt lat="43.30269" lon="3.43031">
        <ele>48.665774</ele>
        <time>2023-01-07T16:52:36.105Z</time>
      </trkpt>
      <trkpt lat="43.3027" lon="3.43044">
        <ele>48.652528</ele>
        <time>2023-01-07T16:52:40.100Z</time>
      </trkpt>
      <trkpt lat="43.30273" lon="3.43058">
        <ele>48.639016</ele>
        <time>2023-01-07T16:58:27.163Z</time>
      </trkpt>
      <trkpt lat="43.30264" lon="3.43071">
        <ele>48.622259</ele>
        <time>2023-01-07T16:59:37.128Z</time>
      </trkpt>
      <trkpt lat="43.30255" lon="3.43077">
        <ele>48.607577</ele>
        <time>2023-01-07T16:59:42.103Z</time>
      </trkpt>
      <trkpt lat="43.30245" lon="3.43083">
        <ele>48.593778</ele>
        <time>2023-01-07T16:59:46.101Z</time>
      </trkpt>
      <trkpt lat="43.30237" lon="3.43088">
        <ele>48.581292</ele>
        <time>2023-01-07T16:59:49.100Z</time>
      </trkpt>
      <trkpt lat="43.30227" lon="3.43094">
        <ele>48.567553</ele>
        <time>2023-01-07T16:59:52.105Z</time>
      </trkpt>
      <trkpt lat="43.30219" lon="3.43104">
        <ele>48.55288</ele>
        <time>2023-01-07T16:59:55.095Z</time>
      </trkpt>
      <trkpt lat="43.30212" lon="3.43115">
        <ele>48.538599</ele>
        <time>2023-01-07T16:59:58.107Z</time>
      </trkpt>
      <trkpt lat="43.30205" lon="3.43128">
        <ele>48.523161</ele>
        <time>2023-01-07T17:00:01.121Z</time>
      </trkpt>
      <trkpt lat="43.30197" lon="3.43141">
        <ele>48.506704</ele>
        <time>2023-01-07T17:00:04.100Z</time>
      </trkpt>
      <trkpt lat="43.30189" lon="3.43153">
        <ele>48.491048</ele>
        <time>2023-01-07T17:00:07.109Z</time>
      </trkpt>
      <trkpt lat="43.30183" lon="3.43167">
        <ele>48.474224</ele>
        <time>2023-01-07T17:00:10.101Z</time>
      </trkpt>
      <trkpt lat="43.30176" lon="3.43179">
        <ele>48.458492</ele>
        <time>2023-01-07T17:00:13.096Z</time>
      </trkpt>
      <trkpt lat="43.3017" lon="3.4319">
        <ele>48.444557</ele>
        <time>2023-01-07T17:00:16.109Z</time>
      </trkpt>
      <trkpt lat="43.30165" lon="3.43201">
        <ele>48.431039</ele>
        <time>2023-01-07T17:00:19.187Z</time>
      </trkpt>
      <trkpt lat="43.3016" lon="3.43211">
        <ele>48.418241</ele>
        <time>2023-01-07T17:00:22.112Z</time>
      </trkpt>
      <trkpt lat="43.30154" lon="3.43224">
        <ele>48.402254</ele>
        <time>2023-01-07T17:00:26.119Z</time>
      </trkpt>
      <trkpt lat="43.30149" lon="3.43235">
        <ele>48.389015</ele>
        <time>2023-01-07T17:00:29.112Z</time>
      </trkpt>
      <trkpt lat="43.30143" lon="3.43249">
        <ele>48.373225</ele>
        <time>2023-01-07T17:00:33.102Z</time>
      </trkpt>
      <trkpt lat="43.30137" lon="3.43262">
        <ele>48.356975</ele>
        <time>2023-01-07T17:00:37.110Z</time>
      </trkpt>
      <trkpt lat="43.30131" lon="3.43272">
        <ele>48.344303</ele>
        <time>2023-01-07T17:00:44.101Z</time>
      </trkpt>
      <trkpt lat="43.30127" lon="3.43285">
        <ele>48.329773</ele>
        <time>2023-01-07T17:01:05.101Z</time>
      </trkpt>
      <trkpt lat="43.30121" lon="3.43298">
        <ele>48.313622</ele>
        <time>2023-01-07T17:01:10.105Z</time>
      </trkpt>
      <trkpt lat="43.30115" lon="3.43309">
        <ele>48.299298</ele>
        <time>2023-01-07T17:01:14.104Z</time>
      </trkpt>
      <trkpt lat="43.30108" lon="3.43321">
        <ele>48.283813</ele>
        <time>2023-01-07T17:01:18.100Z</time>
      </trkpt>
      <trkpt lat="43.30102" lon="3.43331">
        <ele>48.270893</ele>
        <time>2023-01-07T17:01:21.104Z</time>
      </trkpt>
      <trkpt lat="43.30096" lon="3.43344">
        <ele>48.25458</ele>
        <time>2023-01-07T17:01:25.101Z</time>
      </trkpt>
      <trkpt lat="43.30089" lon="3.43355">
        <ele>48.239892</ele>
        <time>2023-01-07T17:01:28.106Z</time>
      </trkpt>
      <trkpt lat="43.30082" lon="3.43364">
        <ele>48.23985</ele>
        <time>2023-01-07T17:01:31.108Z</time>
      </trkpt>
      <trkpt lat="43.30076" lon="3.43375">
        <ele>48.240021</ele>
        <time>2023-01-07T17:01:34.107Z</time>
      </trkpt>
      <trkpt lat="43.30068" lon="3.43385">
        <ele>48.240196</ele>
        <time>2023-01-07T17:01:37.106Z</time>
      </trkpt>
      <trkpt lat="43.3006" lon="3.43395">
        <ele>48.240368</ele>
        <time>2023-01-07T17:01:40.107Z</time>
      </trkpt>
      <trkpt lat="43.30053" lon="3.43405">
        <ele>48.240542</ele>
        <time>2023-01-07T17:01:43.105Z</time>
      </trkpt>
      <trkpt lat="43.30045" lon="3.43415">
        <ele>48.240715</ele>
        <time>2023-01-07T17:01:46.097Z</time>
      </trkpt>
      <trkpt lat="43.30037" lon="3.43426">
        <ele>48.240897</ele>
        <time>2023-01-07T17:01:49.107Z</time>
      </trkpt>
      <trkpt lat="43.3003" lon="3.43438">
        <ele>48.241081</ele>
        <time>2023-01-07T17:01:52.106Z</time>
      </trkpt>
      <trkpt lat="43.30024" lon="3.43451">
        <ele>48.241273</ele>
        <time>2023-01-07T17:01:55.099Z</time>
      </trkpt>
      <trkpt lat="43.30016" lon="3.43464">
        <ele>48.241466</ele>
        <time>2023-01-07T17:01:58.094Z</time>
      </trkpt>
      <trkpt lat="43.30009" lon="3.43477">
        <ele>48.241662</ele>
        <time>2023-01-07T17:02:01.100Z</time>
      </trkpt>
      <trkpt lat="43.30001" lon="3.43491">
        <ele>48.241867</ele>
        <time>2023-01-07T17:02:04.098Z</time>
      </trkpt>
      <trkpt lat="43.29993" lon="3.43504">
        <ele>48.242076</ele>
        <time>2023-01-07T17:02:07.104Z</time>
      </trkpt>
      <trkpt lat="43.29985" lon="3.43517">
        <ele>48.242279</ele>
        <time>2023-01-07T17:02:10.109Z</time>
      </trkpt>
      <trkpt lat="43.29978" lon="3.43528">
        <ele>48.242451</ele>
        <time>2023-01-07T17:02:13.102Z</time>
      </trkpt>
      <trkpt lat="43.29972" lon="3.43537">
        <ele>48.242602</ele>
        <time>2023-01-07T17:02:16.101Z</time>
      </trkpt>
      <trkpt lat="43.29965" lon="3.43547">
        <ele>48.217682</ele>
        <time>2023-01-07T17:02:19.109Z</time>
      </trkpt>
      <trkpt lat="43.29958" lon="3.43557">
        <ele>48.181884</ele>
        <time>2023-01-07T17:02:22.098Z</time>
      </trkpt>
      <trkpt lat="43.2995" lon="3.43569">
        <ele>48.140702</ele>
        <time>2023-01-07T17:02:25.101Z</time>
      </trkpt>
      <trkpt lat="43.29942" lon="3.43581">
        <ele>48.098215</ele>
        <time>2023-01-07T17:02:28.091Z</time>
      </trkpt>
      <trkpt lat="43.29933" lon="3.43593">
        <ele>48.057853</ele>
        <time>2023-01-07T17:02:31.098Z</time>
      </trkpt>
      <trkpt lat="43.29927" lon="3.43605">
        <ele>48.019752</ele>
        <time>2023-01-07T17:02:34.108Z</time>
      </trkpt>
      <trkpt lat="43.29921" lon="3.43615">
        <ele>47.986156</ele>
        <time>2023-01-07T17:02:37.102Z</time>
      </trkpt>
      <trkpt lat="43.29914" lon="3.43625">
        <ele>47.951124</ele>
        <time>2023-01-07T17:02:40.105Z</time>
      </trkpt>
      <trkpt lat="43.29907" lon="3.43637">
        <ele>47.912081</ele>
        <time>2023-01-07T17:02:43.105Z</time>
      </trkpt>
      <trkpt lat="43.29899" lon="3.43649">
        <ele>47.872161</ele>
        <time>2023-01-07T17:02:46.096Z</time>
      </trkpt>
      <trkpt lat="43.29893" lon="3.43661">
        <ele>47.83488</ele>
        <time>2023-01-07T17:02:49.106Z</time>
      </trkpt>
      <trkpt lat="43.29886" lon="3.43674">
        <ele>47.792885</ele>
        <time>2023-01-07T17:02:52.113Z</time>
      </trkpt>
      <trkpt lat="43.29878" lon="3.43687">
        <ele>47.750005</ele>
        <time>2023-01-07T17:02:55.106Z</time>
      </trkpt>
      <trkpt lat="43.2987" lon="3.43699">
        <ele>47.708674</ele>
        <time>2023-01-07T17:02:58.108Z</time>
      </trkpt>
      <trkpt lat="43.29862" lon="3.43712">
        <ele>47.665472</ele>
        <time>2023-01-07T17:03:01.114Z</time>
      </trkpt>
      <trkpt lat="43.29854" lon="3.43725">
        <ele>47.62185</ele>
        <time>2023-01-07T17:03:04.106Z</time>
      </trkpt>
      <trkpt lat="43.29846" lon="3.43739">
        <ele>47.617113</ele>
        <time>2023-01-07T17:03:07.103Z</time>
      </trkpt>
      <trkpt lat="43.29839" lon="3.43748">
        <ele>47.617582</ele>
        <time>2023-01-07T17:03:09.111Z</time>
      </trkpt>
      <trkpt lat="43.29833" lon="3.43758">
        <ele>47.618057</ele>
        <time>2023-01-07T17:03:11.105Z</time>
      </trkpt>
      <trkpt lat="43.29827" lon="3.43767">
        <ele>47.618539</ele>
        <time>2023-01-07T17:03:13.106Z</time>
      </trkpt>
      <trkpt lat="43.29818" lon="3.4378">
        <ele>47.61921</ele>
        <time>2023-01-07T17:03:16.115Z</time>
      </trkpt>
      <trkpt lat="43.29809" lon="3.43792">
        <ele>47.619842</ele>
        <time>2023-01-07T17:03:19.117Z</time>
      </trkpt>
      <trkpt lat="43.298" lon="3.43803">
        <ele>47.620455</ele>
        <time>2023-01-07T17:03:22.121Z</time>
      </trkpt>
      <trkpt lat="43.29793" lon="3.43812">
        <ele>47.620984</ele>
        <time>2023-01-07T17:03:25.117Z</time>
      </trkpt>
      <trkpt lat="43.29783" lon="3.4382">
        <ele>47.621563</ele>
        <time>2023-01-07T17:03:29.117Z</time>
      </trkpt>
      <trkpt lat="43.29775" lon="3.43831">
        <ele>47.622117</ele>
        <time>2023-01-07T17:03:33.118Z</time>
      </trkpt>
      <trkpt lat="43.29773" lon="3.43847">
        <ele>47.622737</ele>
        <time>2023-01-07T17:03:37.103Z</time>
      </trkpt>
      <trkpt lat="43.29776" lon="3.43862">
        <ele>47.623329</ele>
        <time>2023-01-07T17:03:40.100Z</time>
      </trkpt>
      <trkpt lat="43.29783" lon="3.43876">
        <ele>47.623955</ele>
        <time>2023-01-07T17:03:43.099Z</time>
      </trkpt>
      <trkpt lat="43.29791" lon="3.43891">
        <ele>47.624632</ele>
        <time>2023-01-07T17:03:46.115Z</time>
      </trkpt>
      <trkpt lat="43.29796" lon="3.43907">
        <ele>47.625298</ele>
        <time>2023-01-07T17:03:49.108Z</time>
      </trkpt>
      <trkpt lat="43.29798" lon="3.43924">
        <ele>47.617801</ele>
        <time>2023-01-07T17:03:52.123Z</time>
      </trkpt>
      <trkpt lat="43.298" lon="3.43937">
        <ele>47.597567</ele>
        <time>2023-01-07T17:03:54.101Z</time>
      </trkpt>
      <trkpt lat="43.29803" lon="3.4395">
        <ele>47.576807</ele>
        <time>2023-01-07T17:03:56.112Z</time>
      </trkpt>
      <trkpt lat="43.29806" lon="3.43963">
        <ele>47.555734</ele>
        <time>2023-01-07T17:03:58.100Z</time>
      </trkpt>
      <trkpt lat="43.2981" lon="3.43975">
        <ele>47.535096</ele>
        <time>2023-01-07T17:04:00.107Z</time>
      </trkpt>
      <trkpt lat="43.29813" lon="3.43988">
        <ele>47.514091</ele>
        <time>2023-01-07T17:04:02.101Z</time>
      </trkpt>
      <trkpt lat="43.29818" lon="3.43999">
        <ele>47.494477</ele>
        <time>2023-01-07T17:04:04.106Z</time>
      </trkpt>
      <trkpt lat="43.29823" lon="3.44015">
        <ele>47.466416</ele>
        <time>2023-01-07T17:04:07.099Z</time>
      </trkpt>
      <trkpt lat="43.29829" lon="3.44032">
        <ele>47.437595</ele>
        <time>2023-01-07T17:04:10.108Z</time>
      </trkpt>
      <trkpt lat="43.29834" lon="3.44049">
        <ele>47.409485</ele>
        <time>2023-01-07T17:04:13.099Z</time>
      </trkpt>
      <trkpt lat="43.29836" lon="3.44061">
        <ele>47.389408</ele>
        <time>2023-01-07T17:04:15.104Z</time>
      </trkpt>
      <trkpt lat="43.2984" lon="3.44079">
        <ele>47.361108</ele>
        <time>2023-01-07T17:04:18.103Z</time>
      </trkpt>
      <trkpt lat="43.29843" lon="3.44095">
        <ele>47.334106</ele>
        <time>2023-01-07T17:04:21.109Z</time>
      </trkpt>
      <trkpt lat="43.29847" lon="3.44111">
        <ele>47.309025</ele>
        <time>2023-01-07T17:04:24.096Z</time>
      </trkpt>
      <trkpt lat="43.2985" lon="3.44125">
        <ele>47.285931</ele>
        <time>2023-01-07T17:04:27.115Z</time>
      </trkpt>
      <trkpt lat="43.29851" lon="3.44138">
        <ele>47.265353</ele>
        <time>2023-01-07T17:04:30.092Z</time>
      </trkpt>
      <trkpt lat="43.29853" lon="3.44153">
        <ele>47.243567</ele>
        <time>2023-01-07T17:04:33.102Z</time>
      </trkpt>
      <trkpt lat="43.29856" lon="3.44169">
        <ele>47.323618</ele>
        <time>2023-01-07T17:04:36.107Z</time>
      </trkpt>
      <trkpt lat="43.29858" lon="3.44185">
        <ele>47.407395</ele>
        <time>2023-01-07T17:04:39.097Z</time>
      </trkpt>
      <trkpt lat="43.29862" lon="3.44201">
        <ele>47.490217</ele>
        <time>2023-01-07T17:04:42.107Z</time>
      </trkpt>
      <trkpt lat="43.29868" lon="3.44215">
        <ele>47.570491</ele>
        <time>2023-01-07T17:04:45.108Z</time>
      </trkpt>
      <trkpt lat="43.29873" lon="3.44228">
        <ele>47.647391</ele>
        <time>2023-01-07T17:04:48.119Z</time>
      </trkpt>
      <trkpt lat="43.29877" lon="3.44239">
        <ele>47.709599</ele>
        <time>2023-01-07T17:04:51.117Z</time>
      </trkpt>
      <trkpt lat="43.29885" lon="3.44251">
        <ele>47.791209</ele>
        <time>2023-01-07T17:04:55.104Z</time>
      </trkpt>
      <trkpt lat="43.29893" lon="3.44257">
        <ele>47.858587</ele>
        <time>2023-01-07T17:04:58.091Z</time>
      </trkpt>
      <trkpt lat="43.29902" lon="3.44266">
        <ele>47.931374</ele>
        <time>2023-01-07T17:05:01.095Z</time>
      </trkpt>
      <trkpt lat="43.29908" lon="3.44281">
        <ele>48.016765</ele>
        <time>2023-01-07T17:05:04.108Z</time>
      </trkpt>
      <trkpt lat="43.29911" lon="3.44298">
        <ele>48.107525</ele>
        <time>2023-01-07T17:05:07.119Z</time>
      </trkpt>
      <trkpt lat="43.29913" lon="3.44311">
        <ele>48.171912</ele>
        <time>2023-01-07T17:05:09.104Z</time>
      </trkpt>
      <trkpt lat="43.29915" lon="3.44324">
        <ele>48.238147</ele>
        <time>2023-01-07T17:05:11.113Z</time>
      </trkpt>
      <trkpt lat="43.29919" lon="3.44335">
        <ele>48.301088</ele>
        <time>2023-01-07T17:05:13.098Z</time>
      </trkpt>
      <trkpt lat="43.29924" lon="3.44352">
        <ele>48.394267</ele>
        <time>2023-01-07T17:05:16.109Z</time>
      </trkpt>
      <trkpt lat="43.29927" lon="3.44364">
        <ele>48.457271</ele>
        <time>2023-01-07T17:05:18.102Z</time>
      </trkpt>
      <trkpt lat="43.2993" lon="3.44376">
        <ele>48.460368</ele>
        <time>2023-01-07T17:05:20.109Z</time>
      </trkpt>
      <trkpt lat="43.29933" lon="3.44388">
        <ele>48.423277</ele>
        <time>2023-01-07T17:05:22.115Z</time>
      </trkpt>
      <trkpt lat="43.29936" lon="3.444">
        <ele>48.385973</ele>
        <time>2023-01-07T17:05:24.121Z</time>
      </trkpt>
      <trkpt lat="43.29939" lon="3.44412">
        <ele>48.348525</ele>
        <time>2023-01-07T17:05:26.107Z</time>
      </trkpt>
      <trkpt lat="43.29945" lon="3.44429">
        <ele>48.292731</ele>
        <time>2023-01-07T17:05:29.114Z</time>
      </trkpt>
      <trkpt lat="43.29949" lon="3.4444">
        <ele>48.254166</ele>
        <time>2023-01-07T17:05:31.113Z</time>
      </trkpt>
      <trkpt lat="43.29953" lon="3.44452">
        <ele>48.216408</ele>
        <time>2023-01-07T17:05:33.100Z</time>
      </trkpt>
      <trkpt lat="43.29957" lon="3.44464">
        <ele>48.177039</ele>
        <time>2023-01-07T17:05:35.107Z</time>
      </trkpt>
      <trkpt lat="43.29962" lon="3.44475">
        <ele>48.140114</ele>
        <time>2023-01-07T17:05:37.096Z</time>
      </trkpt>
      <trkpt lat="43.29966" lon="3.44487">
        <ele>48.100745</ele>
        <time>2023-01-07T17:05:39.109Z</time>
      </trkpt>
      <trkpt lat="43.2997" lon="3.44498">
        <ele>48.062905</ele>
        <time>2023-01-07T17:05:41.109Z</time>
      </trkpt>
      <trkpt lat="43.29978" lon="3.44513">
        <ele>48.009922</ele>
        <time>2023-01-07T17:05:44.107Z</time>
      </trkpt>
      <trkpt lat="43.29985" lon="3.44528">
        <ele>47.956973</ele>
        <time>2023-01-07T17:05:47.112Z</time>
      </trkpt>
      <trkpt lat="43.2999" lon="3.44538">
        <ele>47.919604</ele>
        <time>2023-01-07T17:05:49.105Z</time>
      </trkpt>
      <trkpt lat="43.29996" lon="3.44548">
        <ele>47.882708</ele>
        <time>2023-01-07T17:05:51.116Z</time>
      </trkpt>
      <trkpt lat="43.30004" lon="3.44561">
        <ele>47.832109</ele>
        <time>2023-01-07T17:05:54.106Z</time>
      </trkpt>
      <trkpt lat="43.30012" lon="3.44575">
        <ele>47.778552</ele>
        <time>2023-01-07T17:05:57.112Z</time>
      </trkpt>
      <trkpt lat="43.3002" lon="3.44589">
        <ele>47.727053</ele>
        <time>2023-01-07T17:06:00.116Z</time>
      </trkpt>
      <trkpt lat="43.30028" lon="3.446">
        <ele>47.68071</ele>
        <time>2023-01-07T17:06:03.094Z</time>
      </trkpt>
      <trkpt lat="43.30036" lon="3.44611">
        <ele>47.634922</ele>
        <time>2023-01-07T17:06:06.110Z</time>
      </trkpt>
      <trkpt lat="43.30044" lon="3.44624">
        <ele>47.58783</ele>
        <time>2023-01-07T17:06:09.117Z</time>
      </trkpt>
      <trkpt lat="43.30051" lon="3.44637">
        <ele>47.540198</ele>
        <time>2023-01-07T17:06:12.106Z</time>
      </trkpt>
      <trkpt lat="43.30058" lon="3.44652">
        <ele>47.489776</ele>
        <time>2023-01-07T17:06:15.111Z</time>
      </trkpt>
      <trkpt lat="43.30062" lon="3.44668">
        <ele>47.439618</ele>
        <time>2023-01-07T17:06:18.108Z</time>
      </trkpt>
      <trkpt lat="43.30063" lon="3.44686">
        <ele>47.386335</ele>
        <time>2023-01-07T17:06:21.102Z</time>
      </trkpt>
      <trkpt lat="43.30065" lon="3.44699">
        <ele>47.349221</ele>
        <time>2023-01-07T17:06:23.111Z</time>
      </trkpt>
      <trkpt lat="43.30067" lon="3.44716">
        <ele>47.297682</ele>
        <time>2023-01-07T17:06:26.098Z</time>
      </trkpt>
      <trkpt lat="43.30069" lon="3.44732">
        <ele>47.250605</ele>
        <time>2023-01-07T17:06:29.110Z</time>
      </trkpt>
      <trkpt lat="43.30071" lon="3.44747">
        <ele>47.206541</ele>
        <time>2023-01-07T17:06:32.108Z</time>
      </trkpt>
      <trkpt lat="43.30074" lon="3.44762">
        <ele>47.161884</ele>
        <time>2023-01-07T17:06:35.115Z</time>
      </trkpt>
      <trkpt lat="43.30076" lon="3.44779">
        <ele>47.113525</ele>
        <time>2023-01-07T17:06:38.099Z</time>
      </trkpt>
      <trkpt lat="43.30078" lon="3.44795">
        <ele>47.065219</ele>
        <time>2023-01-07T17:06:41.107Z</time>
      </trkpt>
      <trkpt lat="43.30081" lon="3.44811">
        <ele>47.040611</ele>
        <time>2023-01-07T17:06:44.144Z</time>
      </trkpt>
      <trkpt lat="43.30082" lon="3.44824">
        <ele>47.055294</ele>
        <time>2023-01-07T17:06:46.096Z</time>
      </trkpt>
      <trkpt lat="43.30084" lon="3.44837">
        <ele>47.070726</ele>
        <time>2023-01-07T17:06:48.115Z</time>
      </trkpt>
      <trkpt lat="43.30087" lon="3.44855">
        <ele>47.090312</ele>
        <time>2023-01-07T17:06:51.097Z</time>
      </trkpt>
      <trkpt lat="43.30091" lon="3.44871">
        <ele>47.109876</ele>
        <time>2023-01-07T17:06:54.106Z</time>
      </trkpt>
      <trkpt lat="43.30093" lon="3.44885">
        <ele>47.125067</ele>
        <time>2023-01-07T17:06:56.100Z</time>
      </trkpt>
      <trkpt lat="43.30094" lon="3.44897">
        <ele>47.139444</ele>
        <time>2023-01-07T17:06:58.106Z</time>
      </trkpt>
      <trkpt lat="43.30096" lon="3.4491">
        <ele>47.153272</ele>
        <time>2023-01-07T17:07:00.108Z</time>
      </trkpt>
      <trkpt lat="43.30099" lon="3.44928">
        <ele>47.173988</ele>
        <time>2023-01-07T17:07:03.110Z</time>
      </trkpt>
      <trkpt lat="43.30101" lon="3.4494">
        <ele>47.187829</ele>
        <time>2023-01-07T17:07:05.099Z</time>
      </trkpt>
      <trkpt lat="43.30103" lon="3.44952">
        <ele>47.201671</ele>
        <time>2023-01-07T17:07:07.108Z</time>
      </trkpt>
      <trkpt lat="43.30108" lon="3.44969">
        <ele>47.222226</ele>
        <time>2023-01-07T17:07:10.095Z</time>
      </trkpt>
      <trkpt lat="43.30111" lon="3.44987">
        <ele>47.242619</ele>
        <time>2023-01-07T17:07:13.096Z</time>
      </trkpt>
      <trkpt lat="43.30115" lon="3.45004">
        <ele>47.262412</ele>
        <time>2023-01-07T17:07:16.098Z</time>
      </trkpt>
      <trkpt lat="43.30118" lon="3.45021">
        <ele>47.282362</ele>
        <time>2023-01-07T17:07:19.110Z</time>
      </trkpt>
      <trkpt lat="43.30121" lon="3.45038">
        <ele>47.301626</ele>
        <time>2023-01-07T17:07:22.097Z</time>
      </trkpt>
      <trkpt lat="43.30124" lon="3.45052">
        <ele>47.333165</ele>
        <time>2023-01-07T17:07:25.095Z</time>
      </trkpt>
      <trkpt lat="43.30126" lon="3.45064">
        <ele>47.374304</ele>
        <time>2023-01-07T17:07:28.099Z</time>
      </trkpt>
      <trkpt lat="43.3013" lon="3.4508">
        <ele>47.427428</ele>
        <time>2023-01-07T17:07:32.105Z</time>
      </trkpt>
      <trkpt lat="43.30133" lon="3.45094">
        <ele>47.4749</ele>
        <time>2023-01-07T17:07:35.105Z</time>
      </trkpt>
      <trkpt lat="43.30135" lon="3.45108">
        <ele>47.522676</ele>
        <time>2023-01-07T17:07:38.105Z</time>
      </trkpt>
      <trkpt lat="43.30137" lon="3.45123">
        <ele>47.571512</ele>
        <time>2023-01-07T17:07:41.095Z</time>
      </trkpt>
      <trkpt lat="43.3014" lon="3.45138">
        <ele>47.622016</ele>
        <time>2023-01-07T17:07:44.099Z</time>
      </trkpt>
      <trkpt lat="43.30143" lon="3.45155">
        <ele>47.67778</ele>
        <time>2023-01-07T17:07:47.119Z</time>
      </trkpt>
      <trkpt lat="43.30145" lon="3.45167">
        <ele>47.720084</ele>
        <time>2023-01-07T17:07:49.106Z</time>
      </trkpt>
      <trkpt lat="43.30149" lon="3.45185">
        <ele>47.777953</ele>
        <time>2023-01-07T17:07:52.101Z</time>
      </trkpt>
      <trkpt lat="43.3015" lon="3.45197">
        <ele>47.819111</ele>
        <time>2023-01-07T17:07:54.119Z</time>
      </trkpt>
      <trkpt lat="43.30154" lon="3.45214">
        <ele>47.876257</ele>
        <time>2023-01-07T17:07:57.127Z</time>
      </trkpt>
      <trkpt lat="43.30157" lon="3.45232">
        <ele>47.936145</ele>
        <time>2023-01-07T17:08:00.094Z</time>
      </trkpt>
      <trkpt lat="43.3016" lon="3.45244">
        <ele>47.976374</ele>
        <time>2023-01-07T17:08:02.122Z</time>
      </trkpt>
      <trkpt lat="43.30163" lon="3.4526">
        <ele>48.033256</ele>
        <time>2023-01-07T17:08:05.119Z</time>
      </trkpt>
      <trkpt lat="43.30167" lon="3.45275">
        <ele>48.083355</ele>
        <time>2023-01-07T17:08:08.103Z</time>
      </trkpt>
      <trkpt lat="43.30169" lon="3.45291">
        <ele>48.119669</ele>
        <time>2023-01-07T17:08:11.124Z</time>
      </trkpt>
      <trkpt lat="43.30174" lon="3.45306">
        <ele>48.135957</ele>
        <time>2023-01-07T17:08:14.121Z</time>
      </trkpt>
      <trkpt lat="43.30178" lon="3.4532">
        <ele>48.151705</ele>
        <time>2023-01-07T17:08:17.101Z</time>
      </trkpt>
      <trkpt lat="43.30182" lon="3.45333">
        <ele>48.165693</ele>
        <time>2023-01-07T17:08:20.104Z</time>
      </trkpt>
      <trkpt lat="43.30186" lon="3.45346">
        <ele>48.179629</ele>
        <time>2023-01-07T17:08:23.106Z</time>
      </trkpt>
      <trkpt lat="43.3019" lon="3.45359">
        <ele>48.193617</ele>
        <time>2023-01-07T17:08:26.104Z</time>
      </trkpt>
      <trkpt lat="43.30194" lon="3.45372">
        <ele>48.207751</ele>
        <time>2023-01-07T17:08:29.110Z</time>
      </trkpt>
      <trkpt lat="43.30198" lon="3.45384">
        <ele>48.220695</ele>
        <time>2023-01-07T17:08:32.112Z</time>
      </trkpt>
      <trkpt lat="43.30203" lon="3.45396">
        <ele>48.235026</ele>
        <time>2023-01-07T17:08:36.099Z</time>
      </trkpt>
      <trkpt lat="43.30208" lon="3.45408">
        <ele>48.248457</ele>
        <time>2023-01-07T17:08:39.112Z</time>
      </trkpt>
      <trkpt lat="43.30212" lon="3.45421">
        <ele>48.263326</ele>
        <time>2023-01-07T17:08:42.106Z</time>
      </trkpt>
      <trkpt lat="43.30216" lon="3.45434">
        <ele>48.276799</ele>
        <time>2023-01-07T17:08:45.099Z</time>
      </trkpt>
      <trkpt lat="43.30221" lon="3.45448">
        <ele>48.29278</ele>
        <time>2023-01-07T17:08:49.108Z</time>
      </trkpt>
      <trkpt lat="43.30224" lon="3.4546">
        <ele>48.305549</ele>
        <time>2023-01-07T17:08:53.107Z</time>
      </trkpt>
      <trkpt lat="43.30228" lon="3.45475">
        <ele>48.32127</ele>
        <time>2023-01-07T17:08:58.101Z</time>
      </trkpt>
      <trkpt lat="43.30236" lon="3.45487">
        <ele>48.337608</ele>
        <time>2023-01-07T17:09:02.105Z</time>
      </trkpt>
      <trkpt lat="43.30246" lon="3.45493">
        <ele>48.351861</ele>
        <time>2023-01-07T17:09:05.095Z</time>
      </trkpt>
      <trkpt lat="43.30256" lon="3.45498">
        <ele>48.350331</ele>
        <time>2023-01-07T17:09:08.111Z</time>
      </trkpt>
      <trkpt lat="43.30268" lon="3.45502">
        <ele>48.327822</ele>
        <time>2023-01-07T17:09:11.091Z</time>
      </trkpt>
      <trkpt lat="43.3028" lon="3.45507">
        <ele>48.304859</ele>
        <time>2023-01-07T17:09:14.099Z</time>
      </trkpt>
      <trkpt lat="43.30292" lon="3.45511">
        <ele>48.281396</ele>
        <time>2023-01-07T17:09:17.102Z</time>
      </trkpt>
      <trkpt lat="43.30303" lon="3.45517">
        <ele>48.258174</ele>
        <time>2023-01-07T17:09:20.097Z</time>
      </trkpt>
      <trkpt lat="43.30315" lon="3.45522">
        <ele>48.235176</ele>
        <time>2023-01-07T17:09:23.111Z</time>
      </trkpt>
      <trkpt lat="43.30326" lon="3.45529">
        <ele>48.211831</ele>
        <time>2023-01-07T17:09:26.102Z</time>
      </trkpt>
      <trkpt lat="43.30338" lon="3.45536">
        <ele>48.1885</ele>
        <time>2023-01-07T17:09:29.101Z</time>
      </trkpt>
      <trkpt lat="43.30349" lon="3.45543">
        <ele>48.165595</ele>
        <time>2023-01-07T17:09:32.100Z</time>
      </trkpt>
      <trkpt lat="43.3036" lon="3.45551">
        <ele>48.142023</ele>
        <time>2023-01-07T17:09:35.109Z</time>
      </trkpt>
      <trkpt lat="43.30371" lon="3.4556">
        <ele>48.117596</ele>
        <time>2023-01-07T17:09:38.106Z</time>
      </trkpt>
      <trkpt lat="43.30379" lon="3.45569">
        <ele>48.099345</ele>
        <time>2023-01-07T17:09:40.113Z</time>
      </trkpt>
      <trkpt lat="43.30386" lon="3.45576">
        <ele>48.081858</ele>
        <time>2023-01-07T17:09:42.145Z</time>
      </trkpt>
      <trkpt lat="43.30394" lon="3.45583">
        <ele>48.06445</ele>
        <time>2023-01-07T17:09:44.092Z</time>
      </trkpt>
      <trkpt lat="43.30405" lon="3.45594">
        <ele>48.039615</ele>
        <time>2023-01-07T17:09:47.100Z</time>
      </trkpt>
      <trkpt lat="43.30415" lon="3.45604">
        <ele>48.045857</ele>
        <time>2023-01-07T17:09:50.095Z</time>
      </trkpt>
      <trkpt lat="43.30423" lon="3.45611">
        <ele>48.100526</ele>
        <time>2023-01-07T17:09:52.108Z</time>
      </trkpt>
      <trkpt lat="43.3043" lon="3.4562">
        <ele>48.157252</ele>
        <time>2023-01-07T17:09:54.105Z</time>
      </trkpt>
      <trkpt lat="43.30437" lon="3.45629">
        <ele>48.211787</ele>
        <time>2023-01-07T17:09:56.097Z</time>
      </trkpt>
      <trkpt lat="43.30444" lon="3.45638">
        <ele>48.26822</ele>
        <time>2023-01-07T17:09:58.104Z</time>
      </trkpt>
      <trkpt lat="43.30451" lon="3.45647">
        <ele>48.325836</ele>
        <time>2023-01-07T17:10:00.107Z</time>
      </trkpt>
      <trkpt lat="43.30458" lon="3.45657">
        <ele>48.386728</ele>
        <time>2023-01-07T17:10:02.103Z</time>
      </trkpt>
      <trkpt lat="43.30464" lon="3.45667">
        <ele>48.443488</ele>
        <time>2023-01-07T17:10:04.096Z</time>
      </trkpt>
      <trkpt lat="43.3047" lon="3.45677">
        <ele>48.500354</ele>
        <time>2023-01-07T17:10:06.108Z</time>
      </trkpt>
      <trkpt lat="43.30476" lon="3.45687">
        <ele>48.556008</ele>
        <time>2023-01-07T17:10:08.099Z</time>
      </trkpt>
      <trkpt lat="43.30482" lon="3.45697">
        <ele>48.611114</ele>
        <time>2023-01-07T17:10:10.104Z</time>
      </trkpt>
      <trkpt lat="43.30488" lon="3.45706">
        <ele>48.664268</ele>
        <time>2023-01-07T17:10:12.108Z</time>
      </trkpt>
      <trkpt lat="43.30493" lon="3.45716">
        <ele>48.718518</ele>
        <time>2023-01-07T17:10:14.114Z</time>
      </trkpt>
      <trkpt lat="43.30499" lon="3.45726">
        <ele>48.774185</ele>
        <time>2023-01-07T17:10:16.096Z</time>
      </trkpt>
      <trkpt lat="43.30504" lon="3.45737">
        <ele>48.830213</ele>
        <time>2023-01-07T17:10:18.098Z</time>
      </trkpt>
      <trkpt lat="43.3051" lon="3.45747">
        <ele>48.885565</ele>
        <time>2023-01-07T17:10:20.105Z</time>
      </trkpt>
      <trkpt lat="43.30516" lon="3.45757">
        <ele>48.941597</ele>
        <time>2023-01-07T17:10:22.099Z</time>
      </trkpt>
      <trkpt lat="43.30522" lon="3.45767">
        <ele>48.997322</ele>
        <time>2023-01-07T17:10:24.105Z</time>
      </trkpt>
      <trkpt lat="43.30528" lon="3.45777">
        <ele>49.052629</ele>
        <time>2023-01-07T17:10:26.112Z</time>
      </trkpt>
      <trkpt lat="43.30533" lon="3.45787">
        <ele>49.095318</ele>
        <time>2023-01-07T17:10:28.106Z</time>
      </trkpt>
      <trkpt lat="43.30539" lon="3.45798">
        <ele>49.106159</ele>
        <time>2023-01-07T17:10:30.106Z</time>
      </trkpt>
      <trkpt lat="43.30546" lon="3.45809">
        <ele>49.117066</ele>
        <time>2023-01-07T17:10:32.094Z</time>
      </trkpt>
      <trkpt lat="43.30552" lon="3.4582">
        <ele>49.127907</ele>
        <time>2023-01-07T17:10:34.097Z</time>
      </trkpt>
      <trkpt lat="43.30558" lon="3.45832">
        <ele>49.139194</ele>
        <time>2023-01-07T17:10:36.109Z</time>
      </trkpt>
      <trkpt lat="43.30564" lon="3.45842">
        <ele>49.150017</ele>
        <time>2023-01-07T17:10:38.096Z</time>
      </trkpt>
      <trkpt lat="43.3057" lon="3.45853">
        <ele>49.161181</ele>
        <time>2023-01-07T17:10:40.097Z</time>
      </trkpt>
      <trkpt lat="43.30576" lon="3.45865">
        <ele>49.172411</ele>
        <time>2023-01-07T17:10:42.104Z</time>
      </trkpt>
      <trkpt lat="43.30582" lon="3.45876">
        <ele>49.183506</ele>
        <time>2023-01-07T17:10:44.106Z</time>
      </trkpt>
      <trkpt lat="43.30588" lon="3.45887">
        <ele>49.194159</ele>
        <time>2023-01-07T17:10:46.097Z</time>
      </trkpt>
      <trkpt lat="43.30594" lon="3.45898">
        <ele>49.205127</ele>
        <time>2023-01-07T17:10:48.111Z</time>
      </trkpt>
      <trkpt lat="43.30601" lon="3.4591">
        <ele>49.216224</ele>
        <time>2023-01-07T17:10:50.095Z</time>
      </trkpt>
      <trkpt lat="43.30607" lon="3.4592">
        <ele>49.226882</ele>
        <time>2023-01-07T17:10:52.110Z</time>
      </trkpt>
      <trkpt lat="43.30613" lon="3.45931">
        <ele>49.237977</ele>
        <time>2023-01-07T17:10:54.109Z</time>
      </trkpt>
      <trkpt lat="43.30619" lon="3.45942">
        <ele>49.248702</ele>
        <time>2023-01-07T17:10:56.108Z</time>
      </trkpt>
      <trkpt lat="43.30625" lon="3.45952">
        <ele>49.259193</ele>
        <time>2023-01-07T17:10:58.096Z</time>
      </trkpt>
      <trkpt lat="43.30632" lon="3.45963">
        <ele>49.270064</ele>
        <time>2023-01-07T17:11:00.108Z</time>
      </trkpt>
      <trkpt lat="43.30638" lon="3.45974">
        <ele>49.281109</ele>
        <time>2023-01-07T17:11:02.109Z</time>
      </trkpt>
      <trkpt lat="43.30644" lon="3.45984">
        <ele>49.274681</ele>
        <time>2023-01-07T17:11:04.104Z</time>
      </trkpt>
      <trkpt lat="43.30651" lon="3.45994">
        <ele>49.245505</ele>
        <time>2023-01-07T17:11:06.111Z</time>
      </trkpt>
      <trkpt lat="43.30657" lon="3.46004">
        <ele>49.216327</ele>
        <time>2023-01-07T17:11:08.101Z</time>
      </trkpt>
      <trkpt lat="43.30664" lon="3.46014">
        <ele>49.186512</ele>
        <time>2023-01-07T17:11:10.123Z</time>
      </trkpt>
      <trkpt lat="43.30671" lon="3.46024">
        <ele>49.155966</ele>
        <time>2023-01-07T17:11:12.103Z</time>
      </trkpt>
      <trkpt lat="43.30678" lon="3.46034">
        <ele>49.126516</ele>
        <time>2023-01-07T17:11:14.100Z</time>
      </trkpt>
      <trkpt lat="43.30684" lon="3.46044">
        <ele>49.098033</ele>
        <time>2023-01-07T17:11:16.102Z</time>
      </trkpt>
      <trkpt lat="43.30691" lon="3.46053">
        <ele>49.068858</ele>
        <time>2023-01-07T17:11:18.099Z</time>
      </trkpt>
      <trkpt lat="43.30696" lon="3.46063">
        <ele>49.041528</ele>
        <time>2023-01-07T17:11:20.109Z</time>
      </trkpt>
      <trkpt lat="43.30703" lon="3.46072">
        <ele>49.012979</ele>
        <time>2023-01-07T17:11:22.114Z</time>
      </trkpt>
      <trkpt lat="43.30709" lon="3.46081">
        <ele>48.98527</ele>
        <time>2023-01-07T17:11:24.107Z</time>
      </trkpt>
      <trkpt lat="43.30716" lon="3.46091">
        <ele>48.955293</ele>
        <time>2023-01-07T17:11:26.096Z</time>
      </trkpt>
      <trkpt lat="43.30722" lon="3.46101">
        <ele>48.928094</ele>
        <time>2023-01-07T17:11:28.107Z</time>
      </trkpt>
      <trkpt lat="43.30728" lon="3.4611">
        <ele>48.899811</ele>
        <time>2023-01-07T17:11:30.106Z</time>
      </trkpt>
      <trkpt lat="43.30734" lon="3.4612">
        <ele>48.871552</ele>
        <time>2023-01-07T17:11:32.110Z</time>
      </trkpt>
      <trkpt lat="43.30741" lon="3.4613">
        <ele>48.841275</ele>
        <time>2023-01-07T17:11:34.106Z</time>
      </trkpt>
      <trkpt lat="43.30748" lon="3.46141">
        <ele>48.810365</ele>
        <time>2023-01-07T17:11:36.100Z</time>
      </trkpt>
      <trkpt lat="43.30754" lon="3.46152">
        <ele>48.779766</ele>
        <time>2023-01-07T17:11:38.099Z</time>
      </trkpt>
      <trkpt lat="43.30762" lon="3.46161">
        <ele>48.748852</ele>
        <time>2023-01-07T17:11:40.100Z</time>
      </trkpt>
      <trkpt lat="43.30769" lon="3.46172">
        <ele>48.748607</ele>
        <time>2023-01-07T17:11:42.112Z</time>
      </trkpt>
      <trkpt lat="43.30776" lon="3.46182">
        <ele>48.752417</ele>
        <time>2023-01-07T17:11:44.101Z</time>
      </trkpt>
      <trkpt lat="43.30782" lon="3.46192">
        <ele>48.756257</ele>
        <time>2023-01-07T17:11:46.110Z</time>
      </trkpt>
      <trkpt lat="43.30789" lon="3.46202">
        <ele>48.759954</ele>
        <time>2023-01-07T17:11:48.105Z</time>
      </trkpt>
      <trkpt lat="43.30796" lon="3.46212">
        <ele>48.763712</ele>
        <time>2023-01-07T17:11:50.101Z</time>
      </trkpt>
      <trkpt lat="43.30802" lon="3.46222">
        <ele>48.767665</ele>
        <time>2023-01-07T17:11:52.110Z</time>
      </trkpt>
      <trkpt lat="43.30812" lon="3.46235">
        <ele>48.772719</ele>
        <time>2023-01-07T17:11:55.101Z</time>
      </trkpt>
      <trkpt lat="43.30818" lon="3.46246">
        <ele>48.776529</ele>
        <time>2023-01-07T17:11:57.107Z</time>
      </trkpt>
      <trkpt lat="43.30824" lon="3.46255">
        <ele>48.779976</ele>
        <time>2023-01-07T17:11:59.111Z</time>
      </trkpt>
      <trkpt lat="43.30832" lon="3.46268">
        <ele>48.78472</ele>
        <time>2023-01-07T17:12:02.105Z</time>
      </trkpt>
      <trkpt lat="43.30841" lon="3.46281">
        <ele>48.789581</ele>
        <time>2023-01-07T17:12:05.103Z</time>
      </trkpt>
      <trkpt lat="43.30847" lon="3.4629">
        <ele>48.793144</ele>
        <time>2023-01-07T17:12:07.099Z</time>
      </trkpt>
      <trkpt lat="43.30854" lon="3.46299">
        <ele>48.796735</ele>
        <time>2023-01-07T17:12:09.105Z</time>
      </trkpt>
      <trkpt lat="43.30861" lon="3.46308">
        <ele>48.80034</ele>
        <time>2023-01-07T17:12:11.105Z</time>
      </trkpt>
      <trkpt lat="43.30867" lon="3.46318">
        <ele>48.803979</ele>
        <time>2023-01-07T17:12:13.097Z</time>
      </trkpt>
      <trkpt lat="43.30874" lon="3.46327">
        <ele>48.807523</ele>
        <time>2023-01-07T17:12:15.117Z</time>
      </trkpt>
      <trkpt lat="43.3088" lon="3.46336">
        <ele>48.811075</ele>
        <time>2023-01-07T17:12:17.114Z</time>
      </trkpt>
      <trkpt lat="43.30887" lon="3.46344">
        <ele>48.816673</ele>
        <time>2023-01-07T17:12:19.116Z</time>
      </trkpt>
      <trkpt lat="43.30895" lon="3.46352">
        <ele>48.828782</ele>
        <time>2023-01-07T17:12:21.097Z</time>
      </trkpt>
      <trkpt lat="43.30903" lon="3.46359">
        <ele>48.840473</ele>
        <time>2023-01-07T17:12:23.098Z</time>
      </trkpt>
      <trkpt lat="43.30911" lon="3.46366">
        <ele>48.852803</ele>
        <time>2023-01-07T17:12:25.109Z</time>
      </trkpt>
      <trkpt lat="43.3092" lon="3.46372">
        <ele>48.86523</ele>
        <time>2023-01-07T17:12:27.101Z</time>
      </trkpt>
      <trkpt lat="43.30929" lon="3.46377">
        <ele>48.876999</ele>
        <time>2023-01-07T17:12:29.100Z</time>
      </trkpt>
      <trkpt lat="43.30938" lon="3.46382">
        <ele>48.88959</ele>
        <time>2023-01-07T17:12:31.111Z</time>
      </trkpt>
      <trkpt lat="43.30947" lon="3.46387">
        <ele>48.901074</ele>
        <time>2023-01-07T17:12:33.110Z</time>
      </trkpt>
      <trkpt lat="43.30956" lon="3.4639">
        <ele>48.912729</ele>
        <time>2023-01-07T17:12:35.103Z</time>
      </trkpt>
      <trkpt lat="43.30965" lon="3.46392">
        <ele>48.924752</ele>
        <time>2023-01-07T17:12:37.112Z</time>
      </trkpt>
      <trkpt lat="43.30974" lon="3.46394">
        <ele>48.936558</ele>
        <time>2023-01-07T17:12:39.099Z</time>
      </trkpt>
      <trkpt lat="43.30983" lon="3.46395">
        <ele>48.948202</ele>
        <time>2023-01-07T17:12:41.099Z</time>
      </trkpt>
      <trkpt lat="43.30992" lon="3.46397">
        <ele>48.959519</ele>
        <time>2023-01-07T17:12:43.100Z</time>
      </trkpt>
      <trkpt lat="43.31004" lon="3.464">
        <ele>48.974757</ele>
        <time>2023-01-07T17:12:46.095Z</time>
      </trkpt>
      <trkpt lat="43.31015" lon="3.46402">
        <ele>48.98866</ele>
        <time>2023-01-07T17:12:49.105Z</time>
      </trkpt>
      <trkpt lat="43.31026" lon="3.46405">
        <ele>49.002876</ele>
        <time>2023-01-07T17:12:52.110Z</time>
      </trkpt>
      <trkpt lat="43.31038" lon="3.46409">
        <ele>49.01869</ele>
        <time>2023-01-07T17:12:55.107Z</time>
      </trkpt>
      <trkpt lat="43.3105" lon="3.46414">
        <ele>49.034276</ele>
        <time>2023-01-07T17:12:58.096Z</time>
      </trkpt>
      <trkpt lat="43.31062" lon="3.4642">
        <ele>49.021862</ele>
        <time>2023-01-07T17:13:01.097Z</time>
      </trkpt>
      <trkpt lat="43.31073" lon="3.46427">
        <ele>48.990518</ele>
        <time>2023-01-07T17:13:04.095Z</time>
      </trkpt>
      <trkpt lat="43.31083" lon="3.46433">
        <ele>48.961992</ele>
        <time>2023-01-07T17:13:07.111Z</time>
      </trkpt>
      <trkpt lat="43.31094" lon="3.46439">
        <ele>48.931447</ele>
        <time>2023-01-07T17:13:10.114Z</time>
      </trkpt>
      <trkpt lat="43.31105" lon="3.46446">
        <ele>48.901907</ele>
        <time>2023-01-07T17:13:13.101Z</time>
      </trkpt>
      <trkpt lat="43.31112" lon="3.46454">
        <ele>48.877688</ele>
        <time>2023-01-07T17:13:16.111Z</time>
      </trkpt>
      <trkpt lat="43.31121" lon="3.46459">
        <ele>48.852618</ele>
        <time>2023-01-07T17:13:19.110Z</time>
      </trkpt>
      <trkpt lat="43.31131" lon="3.46461">
        <ele>48.827697</ele>
        <time>2023-01-07T17:13:22.124Z</time>
      </trkpt>
      <trkpt lat="43.31139" lon="3.46466">
        <ele>48.804324</ele>
        <time>2023-01-07T17:13:25.109Z</time>
      </trkpt>
      <trkpt lat="43.31148" lon="3.46472">
        <ele>48.780397</ele>
        <time>2023-01-07T17:13:28.108Z</time>
      </trkpt>
      <trkpt lat="43.31156" lon="3.46478">
        <ele>48.756644</ele>
        <time>2023-01-07T17:13:31.095Z</time>
      </trkpt>
      <trkpt lat="43.31167" lon="3.46485">
        <ele>48.725631</ele>
        <time>2023-01-07T17:13:35.097Z</time>
      </trkpt>
      <trkpt lat="43.31175" lon="3.4649">
        <ele>48.702105</ele>
        <time>2023-01-07T17:13:38.119Z</time>
      </trkpt>
      <trkpt lat="43.31184" lon="3.46497">
        <ele>48.67662</ele>
        <time>2023-01-07T17:13:41.096Z</time>
      </trkpt>
      <trkpt lat="43.31192" lon="3.46504">
        <ele>48.652021</ele>
        <time>2023-01-07T17:13:44.119Z</time>
      </trkpt>
      <trkpt lat="43.31202" lon="3.46512">
        <ele>48.622944</ele>
        <time>2023-01-07T17:13:48.101Z</time>
      </trkpt>
      <trkpt lat="43.31212" lon="3.4652">
        <ele>48.592584</ele>
        <time>2023-01-07T17:13:52.107Z</time>
      </trkpt>
      <trkpt lat="43.31221" lon="3.46527">
        <ele>48.635039</ele>
        <time>2023-01-07T17:13:55.109Z</time>
      </trkpt>
      <trkpt lat="43.31231" lon="3.46533">
        <ele>48.727709</ele>
        <time>2023-01-07T17:13:58.104Z</time>
      </trkpt>
      <trkpt lat="43.31241" lon="3.46542">
        <ele>48.829305</ele>
        <time>2023-01-07T17:14:01.112Z</time>
      </trkpt>
      <trkpt lat="43.3125" lon="3.46553">
        <ele>48.935003</ele>
        <time>2023-01-07T17:14:04.102Z</time>
      </trkpt>
      <trkpt lat="43.3126" lon="3.46563">
        <ele>49.04001</ele>
        <time>2023-01-07T17:14:07.108Z</time>
      </trkpt>
      <trkpt lat="43.31269" lon="3.46574">
        <ele>49.147819</ele>
        <time>2023-01-07T17:14:10.112Z</time>
      </trkpt>
      <trkpt lat="43.31279" lon="3.46585">
        <ele>49.257631</ele>
        <time>2023-01-07T17:14:13.115Z</time>
      </trkpt>
      <trkpt lat="43.31289" lon="3.46595">
        <ele>49.361741</ele>
        <time>2023-01-07T17:14:16.097Z</time>
      </trkpt>
      <trkpt lat="43.31299" lon="3.46605">
        <ele>49.471897</ele>
        <time>2023-01-07T17:14:19.108Z</time>
      </trkpt>
      <trkpt lat="43.31308" lon="3.46615">
        <ele>49.572147</ele>
        <time>2023-01-07T17:14:22.101Z</time>
      </trkpt>
      <trkpt lat="43.31316" lon="3.46622">
        <ele>49.654091</ele>
        <time>2023-01-07T17:14:25.122Z</time>
      </trkpt>
      <trkpt lat="43.31323" lon="3.46631">
        <ele>49.739432</ele>
        <time>2023-01-07T17:14:29.117Z</time>
      </trkpt>
      <trkpt lat="43.31333" lon="3.46639">
        <ele>49.833135</ele>
        <time>2023-01-07T17:14:33.107Z</time>
      </trkpt>
      <trkpt lat="43.31343" lon="3.46647">
        <ele>49.940938</ele>
        <time>2023-01-07T17:14:36.105Z</time>
      </trkpt>
      <trkpt lat="43.31354" lon="3.46658">
        <ele>50.055749</ele>
        <time>2023-01-07T17:14:39.107Z</time>
      </trkpt>
      <trkpt lat="43.31364" lon="3.46669">
        <ele>50.158899</ele>
        <time>2023-01-07T17:14:42.098Z</time>
      </trkpt>
      <trkpt lat="43.31373" lon="3.46678">
        <ele>50.238228</ele>
        <time>2023-01-07T17:14:45.109Z</time>
      </trkpt>
      <trkpt lat="43.31383" lon="3.46686">
        <ele>50.314336</ele>
        <time>2023-01-07T17:14:48.106Z</time>
      </trkpt>
      <trkpt lat="43.31392" lon="3.46695">
        <ele>50.389122</ele>
        <time>2023-01-07T17:14:51.105Z</time>
      </trkpt>
      <trkpt lat="43.31401" lon="3.46707">
        <ele>50.474376</ele>
        <time>2023-01-07T17:14:54.103Z</time>
      </trkpt>
      <trkpt lat="43.3141" lon="3.4672">
        <ele>50.561747</ele>
        <time>2023-01-07T17:14:57.111Z</time>
      </trkpt>
      <trkpt lat="43.31419" lon="3.46732">
        <ele>50.645028</ele>
        <time>2023-01-07T17:15:00.117Z</time>
      </trkpt>
      <trkpt lat="43.31428" lon="3.46743">
        <ele>50.725515</ele>
        <time>2023-01-07T17:15:03.114Z</time>
      </trkpt>
      <trkpt lat="43.31436" lon="3.46753">
        <ele>50.795669</ele>
        <time>2023-01-07T17:15:06.108Z</time>
      </trkpt>
      <trkpt lat="43.31444" lon="3.46762">
        <ele>50.863422</ele>
        <time>2023-01-07T17:15:09.106Z</time>
      </trkpt>
      <trkpt lat="43.31452" lon="3.46771">
        <ele>50.934078</ele>
        <time>2023-01-07T17:15:12.119Z</time>
      </trkpt>
      <trkpt lat="43.31461" lon="3.4678">
        <ele>51.005734</ele>
        <time>2023-01-07T17:15:15.121Z</time>
      </trkpt>
      <trkpt lat="43.31469" lon="3.46788">
        <ele>51.075496</ele>
        <time>2023-01-07T17:15:18.106Z</time>
      </trkpt>
      <trkpt lat="43.31477" lon="3.46797">
        <ele>51.146153</ele>
        <time>2023-01-07T17:15:21.112Z</time>
      </trkpt>
      <trkpt lat="43.31486" lon="3.46805">
        <ele>51.217492</ele>
        <time>2023-01-07T17:15:24.100Z</time>
      </trkpt>
      <trkpt lat="43.31494" lon="3.46814">
        <ele>51.283123</ele>
        <time>2023-01-07T17:15:27.117Z</time>
      </trkpt>
      <trkpt lat="43.315" lon="3.46822">
        <ele>51.343503</ele>
        <time>2023-01-07T17:15:38.096Z</time>
      </trkpt>
      <trkpt lat="43.31508" lon="3.46833">
        <ele>51.342851</ele>
        <time>2023-01-07T17:16:04.115Z</time>
      </trkpt>
      <trkpt lat="43.31514" lon="3.46846">
        <ele>51.340698</ele>
        <time>2023-01-07T17:16:09.109Z</time>
      </trkpt>
      <trkpt lat="43.31516" lon="3.46861">
        <ele>51.338543</ele>
        <time>2023-01-07T17:16:13.102Z</time>
      </trkpt>
      <trkpt lat="43.31512" lon="3.46876">
        <ele>51.336377</ele>
        <time>2023-01-07T17:16:17.110Z</time>
      </trkpt>
      <trkpt lat="43.31507" lon="3.46889">
        <ele>51.334263</ele>
        <time>2023-01-07T17:16:21.108Z</time>
      </trkpt>
      <trkpt lat="43.31502" lon="3.46902">
        <ele>51.332157</ele>
        <time>2023-01-07T17:16:25.101Z</time>
      </trkpt>
      <trkpt lat="43.31497" lon="3.46916">
        <ele>51.330098</ele>
        <time>2023-01-07T17:16:29.111Z</time>
      </trkpt>
      <trkpt lat="43.31492" lon="3.4693">
        <ele>51.327923</ele>
        <time>2023-01-07T17:16:33.104Z</time>
      </trkpt>
      <trkpt lat="43.31488" lon="3.46941">
        <ele>51.326123</ele>
        <time>2023-01-07T17:16:36.100Z</time>
      </trkpt>
      <trkpt lat="43.31483" lon="3.46953">
        <ele>51.324289</ele>
        <time>2023-01-07T17:16:39.107Z</time>
      </trkpt>
      <trkpt lat="43.31479" lon="3.46965">
        <ele>51.322343</ele>
        <time>2023-01-07T17:16:42.102Z</time>
      </trkpt>
      <trkpt lat="43.31475" lon="3.46979">
        <ele>51.320301</ele>
        <time>2023-01-07T17:16:45.110Z</time>
      </trkpt>
      <trkpt lat="43.31475" lon="3.46994">
        <ele>51.318171</ele>
        <time>2023-01-07T17:16:48.103Z</time>
      </trkpt>
      <trkpt lat="43.31479" lon="3.47006">
        <ele>51.31642</ele>
        <time>2023-01-07T17:16:50.101Z</time>
      </trkpt>
      <trkpt lat="43.31485" lon="3.47017">
        <ele>51.314573</ele>
        <time>2023-01-07T17:16:52.101Z</time>
      </trkpt>
      <trkpt lat="43.31492" lon="3.47028">
        <ele>51.312379</ele>
        <time>2023-01-07T17:16:54.107Z</time>
      </trkpt>
      <trkpt lat="43.31499" lon="3.4704">
        <ele>51.3148</ele>
        <time>2023-01-07T17:16:56.102Z</time>
      </trkpt>
      <trkpt lat="43.31506" lon="3.47051">
        <ele>51.430047</ele>
        <time>2023-01-07T17:16:58.101Z</time>
      </trkpt>
      <trkpt lat="43.31512" lon="3.47061">
        <ele>51.529402</ele>
        <time>2023-01-07T17:17:00.105Z</time>
      </trkpt>
      <trkpt lat="43.3152" lon="3.47073">
        <ele>51.649342</ele>
        <time>2023-01-07T17:17:03.099Z</time>
      </trkpt>
      <trkpt lat="43.31517" lon="3.47087">
        <ele>51.76577</ele>
        <time>2023-01-07T17:17:07.111Z</time>
      </trkpt>
      <trkpt lat="43.3151" lon="3.47099">
        <ele>51.88241</ele>
        <time>2023-01-07T17:17:13.104Z</time>
      </trkpt>
      <trkpt lat="43.31508" lon="3.47113">
        <ele>51.987892</ele>
        <time>2023-01-07T17:17:17.109Z</time>
      </trkpt>
      <trkpt lat="43.31508" lon="3.47129">
        <ele>52.109733</ele>
        <time>2023-01-07T17:17:21.107Z</time>
      </trkpt>
      <trkpt lat="43.31507" lon="3.47142">
        <ele>52.211967</ele>
        <time>2023-01-07T17:17:24.115Z</time>
      </trkpt>
      <trkpt lat="43.31498" lon="3.47153">
        <ele>52.337777</ele>
        <time>2023-01-07T17:17:28.113Z</time>
      </trkpt>
      <trkpt lat="43.3149" lon="3.47159">
        <ele>52.441061</ele>
        <time>2023-01-07T17:17:31.110Z</time>
      </trkpt>
      <trkpt lat="43.3148" lon="3.47168">
        <ele>52.566015</ele>
        <time>2023-01-07T17:17:35.099Z</time>
      </trkpt>
      <trkpt lat="43.31469" lon="3.47177">
        <ele>52.697574</ele>
        <time>2023-01-07T17:17:39.117Z</time>
      </trkpt>
      <trkpt lat="43.31461" lon="3.47186">
        <ele>52.807362</ele>
        <time>2023-01-07T17:17:42.110Z</time>
      </trkpt>
      <trkpt lat="43.31451" lon="3.47194">
        <ele>52.931686</ele>
        <time>2023-01-07T17:17:45.119Z</time>
      </trkpt>
      <trkpt lat="43.31441" lon="3.472">
        <ele>53.053778</ele>
        <time>2023-01-07T17:17:48.104Z</time>
      </trkpt>
      <trkpt lat="43.31429" lon="3.47203">
        <ele>53.175175</ele>
        <time>2023-01-07T17:17:51.105Z</time>
      </trkpt>
      <trkpt lat="43.31418" lon="3.47205">
        <ele>53.431295</ele>
        <time>2023-01-07T17:17:54.107Z</time>
      </trkpt>
      <trkpt lat="43.31405" lon="3.47209">
        <ele>53.801788</ele>
        <time>2023-01-07T17:17:57.106Z</time>
      </trkpt>
      <trkpt lat="43.31393" lon="3.47212">
        <ele>54.152426</ele>
        <time>2023-01-07T17:18:00.101Z</time>
      </trkpt>
      <trkpt lat="43.31381" lon="3.47215">
        <ele>54.486766</ele>
        <time>2023-01-07T17:18:03.098Z</time>
      </trkpt>
      <trkpt lat="43.31371" lon="3.47218">
        <ele>54.78411</ele>
        <time>2023-01-07T17:18:06.108Z</time>
      </trkpt>
      <trkpt lat="43.31361" lon="3.47218">
        <ele>55.064875</ele>
        <time>2023-01-07T17:18:09.107Z</time>
      </trkpt>
      <trkpt lat="43.31351" lon="3.47215">
        <ele>55.35475</ele>
        <time>2023-01-07T17:18:12.098Z</time>
      </trkpt>
      <trkpt lat="43.3134" lon="3.47218">
        <ele>55.68092</ele>
        <time>2023-01-07T17:18:16.096Z</time>
      </trkpt>
      <trkpt lat="43.31335" lon="3.47228">
        <ele>55.937922</ele>
        <time>2023-01-07T17:18:19.105Z</time>
      </trkpt>
      <trkpt lat="43.31329" lon="3.4724">
        <ele>56.221725</ele>
        <time>2023-01-07T17:18:22.099Z</time>
      </trkpt>
      <trkpt lat="43.31322" lon="3.4725">
        <ele>56.509582</ele>
        <time>2023-01-07T17:18:25.107Z</time>
      </trkpt>
      <trkpt lat="43.31317" lon="3.47262">
        <ele>56.808406</ele>
        <time>2023-01-07T17:18:28.101Z</time>
      </trkpt>
      <trkpt lat="43.31311" lon="3.47275">
        <ele>57.111325</ele>
        <time>2023-01-07T17:18:31.118Z</time>
      </trkpt>
      <trkpt lat="43.31306" lon="3.47289">
        <ele>57.433109</ele>
        <time>2023-01-07T17:18:34.112Z</time>
      </trkpt>
      <trkpt lat="43.31302" lon="3.47302">
        <ele>57.739432</ele>
        <time>2023-01-07T17:18:37.125Z</time>
      </trkpt>
      <trkpt lat="43.31297" lon="3.47316">
        <ele>58.056953</ele>
        <time>2023-01-07T17:18:40.109Z</time>
      </trkpt>
      <trkpt lat="43.31291" lon="3.47331">
        <ele>58.345098</ele>
        <time>2023-01-07T17:18:43.113Z</time>
      </trkpt>
      <trkpt lat="43.31287" lon="3.47342">
        <ele>58.439927</ele>
        <time>2023-01-07T17:18:45.114Z</time>
      </trkpt>
      <trkpt lat="43.31283" lon="3.47355">
        <ele>58.547177</ele>
        <time>2023-01-07T17:18:48.116Z</time>
      </trkpt>
      <trkpt lat="43.31277" lon="3.47368">
        <ele>58.662652</ele>
        <time>2023-01-07T17:18:51.103Z</time>
      </trkpt>
      <trkpt lat="43.31272" lon="3.47381">
        <ele>58.773517</ele>
        <time>2023-01-07T17:18:54.117Z</time>
      </trkpt>
      <trkpt lat="43.31267" lon="3.47395">
        <ele>58.888895</ele>
        <time>2023-01-07T17:18:57.125Z</time>
      </trkpt>
      <trkpt lat="43.31262" lon="3.47409">
        <ele>59.008004</ele>
        <time>2023-01-07T17:19:00.105Z</time>
      </trkpt>
      <trkpt lat="43.31256" lon="3.47424">
        <ele>59.136729</ele>
        <time>2023-01-07T17:19:03.111Z</time>
      </trkpt>
      <trkpt lat="43.31251" lon="3.47438">
        <ele>59.255807</ele>
        <time>2023-01-07T17:19:06.113Z</time>
      </trkpt>
      <trkpt lat="43.31245" lon="3.47452">
        <ele>59.374796</ele>
        <time>2023-01-07T17:19:09.106Z</time>
      </trkpt>
      <trkpt lat="43.31239" lon="3.47467">
        <ele>59.502335</ele>
        <time>2023-01-07T17:19:12.114Z</time>
      </trkpt>
      <trkpt lat="43.31234" lon="3.47482">
        <ele>59.628993</ele>
        <time>2023-01-07T17:19:15.100Z</time>
      </trkpt>
      <trkpt lat="43.31229" lon="3.47496">
        <ele>59.74551</ele>
        <time>2023-01-07T17:19:18.096Z</time>
      </trkpt>
      <trkpt lat="43.31224" lon="3.4751">
        <ele>59.865394</ele>
        <time>2023-01-07T17:19:21.108Z</time>
      </trkpt>
      <trkpt lat="43.31219" lon="3.47523">
        <ele>59.972209</ele>
        <time>2023-01-07T17:19:24.104Z</time>
      </trkpt>
      <trkpt lat="43.31214" lon="3.47537">
        <ele>60.091319</ele>
        <time>2023-01-07T17:19:27.110Z</time>
      </trkpt>
      <trkpt lat="43.31208" lon="3.4755">
        <ele>60.194334</ele>
        <time>2023-01-07T17:19:30.107Z</time>
      </trkpt>
      <trkpt lat="43.31202" lon="3.47564">
        <ele>60.251877</ele>
        <time>2023-01-07T17:19:33.102Z</time>
      </trkpt>
      <trkpt lat="43.31196" lon="3.47576">
        <ele>60.305618</ele>
        <time>2023-01-07T17:19:36.100Z</time>
      </trkpt>
      <trkpt lat="43.31191" lon="3.47589">
        <ele>60.357583</ele>
        <time>2023-01-07T17:19:39.112Z</time>
      </trkpt>
      <trkpt lat="43.31185" lon="3.47602">
        <ele>60.412306</ele>
        <time>2023-01-07T17:19:42.113Z</time>
      </trkpt>
      <trkpt lat="43.3118" lon="3.47614">
        <ele>60.466148</ele>
        <time>2023-01-07T17:19:45.102Z</time>
      </trkpt>
      <trkpt lat="43.31175" lon="3.47628">
        <ele>60.520917</ele>
        <time>2023-01-07T17:19:48.103Z</time>
      </trkpt>
      <trkpt lat="43.31169" lon="3.47641">
        <ele>60.578659</ele>
        <time>2023-01-07T17:19:51.113Z</time>
      </trkpt>
      <trkpt lat="43.31163" lon="3.47656">
        <ele>60.639342</ele>
        <time>2023-01-07T17:19:54.111Z</time>
      </trkpt>
      <trkpt lat="43.31157" lon="3.4767">
        <ele>60.700298</ele>
        <time>2023-01-07T17:19:57.118Z</time>
      </trkpt>
      <trkpt lat="43.31151" lon="3.47685">
        <ele>60.761253</ele>
        <time>2023-01-07T17:20:00.104Z</time>
      </trkpt>
      <trkpt lat="43.31145" lon="3.47697">
        <ele>60.81557</ele>
        <time>2023-01-07T17:20:03.106Z</time>
      </trkpt>
      <trkpt lat="43.31139" lon="3.47708">
        <ele>60.86575</ele>
        <time>2023-01-07T17:20:06.122Z</time>
      </trkpt>
      <trkpt lat="43.31131" lon="3.47719">
        <ele>60.920927</ele>
        <time>2023-01-07T17:20:09.094Z</time>
      </trkpt>
      <trkpt lat="43.31126" lon="3.47732">
        <ele>60.975888</ele>
        <time>2023-01-07T17:20:12.104Z</time>
      </trkpt>
      <trkpt lat="43.31124" lon="3.47746">
        <ele>61.02804</ele>
        <time>2023-01-07T17:20:15.103Z</time>
      </trkpt>
      <trkpt lat="43.31123" lon="3.4776">
        <ele>61.076619</ele>
        <time>2023-01-07T17:20:18.119Z</time>
      </trkpt>
      <trkpt lat="43.31123" lon="3.47776">
        <ele>61.05861</ele>
        <time>2023-01-07T17:20:22.108Z</time>
      </trkpt>
      <trkpt lat="43.31122" lon="3.47788">
        <ele>61.041953</ele>
        <time>2023-01-07T17:20:25.102Z</time>
      </trkpt>
      <trkpt lat="43.31121" lon="3.47802">
        <ele>61.024859</ele>
        <time>2023-01-07T17:20:28.108Z</time>
      </trkpt>
      <trkpt lat="43.31117" lon="3.47814">
        <ele>61.007497</ele>
        <time>2023-01-07T17:20:31.111Z</time>
      </trkpt>
      <trkpt lat="43.3111" lon="3.47823">
        <ele>60.990931</ele>
        <time>2023-01-07T17:20:34.106Z</time>
      </trkpt>
      <trkpt lat="43.31106" lon="3.47838">
        <ele>60.970175</ele>
        <time>2023-01-07T17:20:38.113Z</time>
      </trkpt>
      <trkpt lat="43.31109" lon="3.47851">
        <ele>60.95305</ele>
        <time>2023-01-07T17:20:41.107Z</time>
      </trkpt>
      <trkpt lat="43.3111" lon="3.47866">
        <ele>60.932781</ele>
        <time>2023-01-07T17:20:45.098Z</time>
      </trkpt>
      <trkpt lat="43.31108" lon="3.47879">
        <ele>60.916068</ele>
        <time>2023-01-07T17:20:48.116Z</time>
      </trkpt>
      <trkpt lat="43.31106" lon="3.47892">
        <ele>60.898313</ele>
        <time>2023-01-07T17:20:51.104Z</time>
      </trkpt>
      <trkpt lat="43.31103" lon="3.47906">
        <ele>60.8803</ele>
        <time>2023-01-07T17:20:54.111Z</time>
      </trkpt>
      <trkpt lat="43.31102" lon="3.47919">
        <ele>60.862861</ele>
        <time>2023-01-07T17:20:57.113Z</time>
      </trkpt>
      <trkpt lat="43.311" lon="3.47932">
        <ele>60.846341</ele>
        <time>2023-01-07T17:21:00.105Z</time>
      </trkpt>
      <trkpt lat="43.31098" lon="3.47946">
        <ele>60.827913</ele>
        <time>2023-01-07T17:21:03.109Z</time>
      </trkpt>
      <trkpt lat="43.31096" lon="3.47961">
        <ele>60.808763</ele>
        <time>2023-01-07T17:21:06.105Z</time>
      </trkpt>
      <trkpt lat="43.31094" lon="3.47976">
        <ele>60.789283</ele>
        <time>2023-01-07T17:21:09.106Z</time>
      </trkpt>
      <trkpt lat="43.31092" lon="3.47991">
        <ele>60.76944</ele>
        <time>2023-01-07T17:21:12.117Z</time>
      </trkpt>
      <trkpt lat="43.3109" lon="3.48006">
        <ele>60.844255</ele>
        <time>2023-01-07T17:21:15.108Z</time>
      </trkpt>
      <trkpt lat="43.31088" lon="3.48022">
        <ele>61.000479</ele>
        <time>2023-01-07T17:21:18.111Z</time>
      </trkpt>
      <trkpt lat="43.31086" lon="3.48036">
        <ele>61.139811</ele>
        <time>2023-01-07T17:21:21.117Z</time>
      </trkpt>
      <trkpt lat="43.31084" lon="3.48051">
        <ele>61.277452</ele>
        <time>2023-01-07T17:21:24.117Z</time>
      </trkpt>
      <trkpt lat="43.31083" lon="3.48067">
        <ele>61.430217</ele>
        <time>2023-01-07T17:21:28.119Z</time>
      </trkpt>
      <trkpt lat="43.3108" lon="3.48082">
        <ele>61.577921</ele>
        <time>2023-01-07T17:21:32.104Z</time>
      </trkpt>
      <trkpt lat="43.31078" lon="3.48094">
        <ele>61.699582</ele>
        <time>2023-01-07T17:21:38.119Z</time>
      </trkpt>
      <trkpt lat="43.31079" lon="3.48114">
        <ele>61.889701</ele>
        <time>2023-01-07T17:23:52.119Z</time>
      </trkpt>
      <trkpt lat="43.31077" lon="3.48129">
        <ele>62.040202</ele>
        <time>2023-01-07T17:23:56.097Z</time>
      </trkpt>
      <trkpt lat="43.31075" lon="3.48142">
        <ele>62.170033</ele>
        <time>2023-01-07T17:23:59.113Z</time>
      </trkpt>
      <trkpt lat="43.31073" lon="3.48157">
        <ele>62.310219</ele>
        <time>2023-01-07T17:24:02.098Z</time>
      </trkpt>
      <trkpt lat="43.31071" lon="3.48171">
        <ele>62.452064</ele>
        <time>2023-01-07T17:24:05.101Z</time>
      </trkpt>
      <trkpt lat="43.3107" lon="3.48186">
        <ele>62.591804</ele>
        <time>2023-01-07T17:24:08.101Z</time>
      </trkpt>
      <trkpt lat="43.31068" lon="3.482">
        <ele>62.733233</ele>
        <time>2023-01-07T17:24:11.111Z</time>
      </trkpt>
      <trkpt lat="43.31066" lon="3.48215">
        <ele>62.875079</ele>
        <time>2023-01-07T17:24:14.098Z</time>
      </trkpt>
      <trkpt lat="43.31064" lon="3.4823">
        <ele>63.019775</ele>
        <time>2023-01-07T17:24:17.117Z</time>
      </trkpt>
      <trkpt lat="43.31062" lon="3.48244">
        <ele>63.145431</ele>
        <time>2023-01-07T17:24:20.107Z</time>
      </trkpt>
      <trkpt lat="43.3106" lon="3.48259">
        <ele>63.219684</ele>
        <time>2023-01-07T17:24:23.117Z</time>
      </trkpt>
      <trkpt lat="43.31058" lon="3.48274">
        <ele>63.296636</ele>
        <time>2023-01-07T17:24:26.122Z</time>
      </trkpt>
      <trkpt lat="43.31056" lon="3.48289">
        <ele>63.373703</ele>
        <time>2023-01-07T17:24:29.109Z</time>
      </trkpt>
      <trkpt lat="43.31054" lon="3.48304">
        <ele>63.452375</ele>
        <time>2023-01-07T17:24:32.109Z</time>
      </trkpt>
      <trkpt lat="43.31052" lon="3.4832">
        <ele>63.532038</ele>
        <time>2023-01-07T17:24:35.109Z</time>
      </trkpt>
      <trkpt lat="43.31051" lon="3.48335">
        <ele>63.607501</ele>
        <time>2023-01-07T17:24:38.111Z</time>
      </trkpt>
      <trkpt lat="43.31049" lon="3.48349">
        <ele>63.681101</ele>
        <time>2023-01-07T17:24:41.109Z</time>
      </trkpt>
      <trkpt lat="43.31047" lon="3.48363">
        <ele>63.753841</ele>
        <time>2023-01-07T17:24:44.113Z</time>
      </trkpt>
      <trkpt lat="43.31044" lon="3.48379">
        <ele>63.832554</ele>
        <time>2023-01-07T17:24:47.121Z</time>
      </trkpt>
      <trkpt lat="43.31041" lon="3.48396">
        <ele>63.920553</ele>
        <time>2023-01-07T17:24:50.096Z</time>
      </trkpt>
      <trkpt lat="43.31036" lon="3.48412">
        <ele>64.011371</ele>
        <time>2023-01-07T17:24:53.114Z</time>
      </trkpt>
      <trkpt lat="43.31032" lon="3.48429">
        <ele>64.102183</ele>
        <time>2023-01-07T17:24:56.107Z</time>
      </trkpt>
      <trkpt lat="43.31029" lon="3.48442">
        <ele>64.165832</ele>
        <time>2023-01-07T17:24:58.113Z</time>
      </trkpt>
      <trkpt lat="43.31026" lon="3.48453">
        <ele>64.228259</ele>
        <time>2023-01-07T17:25:00.108Z</time>
      </trkpt>
      <trkpt lat="43.31021" lon="3.4847">
        <ele>64.318778</ele>
        <time>2023-01-07T17:25:03.121Z</time>
      </trkpt>
      <trkpt lat="43.31017" lon="3.48481">
        <ele>64.34685</ele>
        <time>2023-01-07T17:25:05.113Z</time>
      </trkpt>
      <trkpt lat="43.31014" lon="3.48493">
        <ele>64.196282</ele>
        <time>2023-01-07T17:25:07.110Z</time>
      </trkpt>
      <trkpt lat="43.3101" lon="3.48505">
        <ele>64.044308</ele>
        <time>2023-01-07T17:25:09.111Z</time>
      </trkpt>
      <trkpt lat="43.31006" lon="3.48518">
        <ele>63.889929</ele>
        <time>2023-01-07T17:25:11.110Z</time>
      </trkpt>
      <trkpt lat="43.31003" lon="3.4853">
        <ele>63.737091</ele>
        <time>2023-01-07T17:25:13.105Z</time>
      </trkpt>
      <trkpt lat="43.30999" lon="3.48541">
        <ele>63.592094</ele>
        <time>2023-01-07T17:25:15.115Z</time>
      </trkpt>
      <trkpt lat="43.30995" lon="3.48553">
        <ele>63.444576</ele>
        <time>2023-01-07T17:25:17.111Z</time>
      </trkpt>
      <trkpt lat="43.30991" lon="3.48565">
        <ele>63.292997</ele>
        <time>2023-01-07T17:25:19.103Z</time>
      </trkpt>
      <trkpt lat="43.30987" lon="3.48578">
        <ele>63.129784</ele>
        <time>2023-01-07T17:25:21.117Z</time>
      </trkpt>
      <trkpt lat="43.30984" lon="3.48591">
        <ele>62.968367</ele>
        <time>2023-01-07T17:25:23.118Z</time>
      </trkpt>
      <trkpt lat="43.3098" lon="3.48605">
        <ele>62.800987</ele>
        <time>2023-01-07T17:25:25.108Z</time>
      </trkpt>
      <trkpt lat="43.30974" lon="3.48618">
        <ele>62.628673</ele>
        <time>2023-01-07T17:25:27.115Z</time>
      </trkpt>
      <trkpt lat="43.30971" lon="3.4863">
        <ele>62.469885</ele>
        <time>2023-01-07T17:25:29.107Z</time>
      </trkpt>
      <trkpt lat="43.30966" lon="3.48643">
        <ele>62.308955</ele>
        <time>2023-01-07T17:25:31.108Z</time>
      </trkpt>
      <trkpt lat="43.30961" lon="3.48656">
        <ele>62.136399</ele>
        <time>2023-01-07T17:25:33.116Z</time>
      </trkpt>
      <trkpt lat="43.30958" lon="3.4867">
        <ele>61.968425</ele>
        <time>2023-01-07T17:25:35.105Z</time>
      </trkpt>
      <trkpt lat="43.30955" lon="3.48684">
        <ele>61.795219</ele>
        <time>2023-01-07T17:25:37.106Z</time>
      </trkpt>
      <trkpt lat="43.30951" lon="3.48699">
        <ele>61.607754</ele>
        <time>2023-01-07T17:25:39.112Z</time>
      </trkpt>
      <trkpt lat="43.30946" lon="3.48714">
        <ele>61.360234</ele>
        <time>2023-01-07T17:25:41.109Z</time>
      </trkpt>
      <trkpt lat="43.30942" lon="3.48728">
        <ele>61.071704</ele>
        <time>2023-01-07T17:25:43.108Z</time>
      </trkpt>
      <trkpt lat="43.30938" lon="3.48741">
        <ele>60.770861</ele>
        <time>2023-01-07T17:25:45.112Z</time>
      </trkpt>
      <trkpt lat="43.30934" lon="3.48755">
        <ele>60.486903</ele>
        <time>2023-01-07T17:25:47.112Z</time>
      </trkpt>
      <trkpt lat="43.30931" lon="3.48769">
        <ele>60.18611</ele>
        <time>2023-01-07T17:25:49.108Z</time>
      </trkpt>
      <trkpt lat="43.30927" lon="3.48783">
        <ele>59.896478</ele>
        <time>2023-01-07T17:25:51.103Z</time>
      </trkpt>
      <trkpt lat="43.30923" lon="3.48797">
        <ele>59.607023</ele>
        <time>2023-01-07T17:25:53.102Z</time>
      </trkpt>
      <trkpt lat="43.30919" lon="3.48811">
        <ele>59.313843</ele>
        <time>2023-01-07T17:25:55.102Z</time>
      </trkpt>
      <trkpt lat="43.30915" lon="3.48824">
        <ele>59.031518</ele>
        <time>2023-01-07T17:25:57.112Z</time>
      </trkpt>
      <trkpt lat="43.30912" lon="3.48837">
        <ele>58.756806</ele>
        <time>2023-01-07T17:25:59.116Z</time>
      </trkpt>
      <trkpt lat="43.30908" lon="3.48849">
        <ele>58.491147</ele>
        <time>2023-01-07T17:26:01.108Z</time>
      </trkpt>
      <trkpt lat="43.30903" lon="3.48866">
        <ele>58.130114</ele>
        <time>2023-01-07T17:26:04.108Z</time>
      </trkpt>
      <trkpt lat="43.30896" lon="3.4888">
        <ele>57.794816</ele>
        <time>2023-01-07T17:26:07.102Z</time>
      </trkpt>
      <trkpt lat="43.3089" lon="3.48897">
        <ele>57.430609</ele>
        <time>2023-01-07T17:26:10.112Z</time>
      </trkpt>
      <trkpt lat="43.30887" lon="3.48915">
        <ele>57.060121</ele>
        <time>2023-01-07T17:26:13.097Z</time>
      </trkpt>
      <trkpt lat="43.30883" lon="3.48927">
        <ele>56.799151</ele>
        <time>2023-01-07T17:26:15.097Z</time>
      </trkpt>
      <trkpt lat="43.30879" lon="3.48939">
        <ele>56.609039</ele>
        <time>2023-01-07T17:26:17.102Z</time>
      </trkpt>
      <trkpt lat="43.30875" lon="3.48951">
        <ele>56.539619</ele>
        <time>2023-01-07T17:26:19.098Z</time>
      </trkpt>
      <trkpt lat="43.30872" lon="3.48964">
        <ele>56.473498</ele>
        <time>2023-01-07T17:26:21.101Z</time>
      </trkpt>
      <trkpt lat="43.30869" lon="3.48977">
        <ele>56.402359</ele>
        <time>2023-01-07T17:26:23.108Z</time>
      </trkpt>
      <trkpt lat="43.30865" lon="3.4899">
        <ele>56.331662</ele>
        <time>2023-01-07T17:26:25.109Z</time>
      </trkpt>
      <trkpt lat="43.30862" lon="3.49004">
        <ele>56.257899</ele>
        <time>2023-01-07T17:26:27.113Z</time>
      </trkpt>
      <trkpt lat="43.30858" lon="3.49018">
        <ele>56.181022</ele>
        <time>2023-01-07T17:26:29.102Z</time>
      </trkpt>
      <trkpt lat="43.30854" lon="3.49031">
        <ele>56.106931</ele>
        <time>2023-01-07T17:26:31.127Z</time>
      </trkpt>
      <trkpt lat="43.30851" lon="3.49045">
        <ele>56.033636</ele>
        <time>2023-01-07T17:26:33.116Z</time>
      </trkpt>
      <trkpt lat="43.30846" lon="3.49058">
        <ele>55.960872</ele>
        <time>2023-01-07T17:26:35.107Z</time>
      </trkpt>
      <trkpt lat="43.30842" lon="3.49069">
        <ele>55.89342</ele>
        <time>2023-01-07T17:26:37.111Z</time>
      </trkpt>
      <trkpt lat="43.30837" lon="3.49081">
        <ele>55.827647</ele>
        <time>2023-01-07T17:26:39.109Z</time>
      </trkpt>
      <trkpt lat="43.30832" lon="3.49092">
        <ele>55.7606</ele>
        <time>2023-01-07T17:26:41.102Z</time>
      </trkpt>
      <trkpt lat="43.30828" lon="3.49103">
        <ele>55.696459</ele>
        <time>2023-01-07T17:26:43.105Z</time>
      </trkpt>
      <trkpt lat="43.30822" lon="3.49114">
        <ele>55.629216</ele>
        <time>2023-01-07T17:26:45.107Z</time>
      </trkpt>
      <trkpt lat="43.30818" lon="3.49125">
        <ele>55.566128</ele>
        <time>2023-01-07T17:26:47.098Z</time>
      </trkpt>
      <trkpt lat="43.3081" lon="3.49139">
        <ele>55.476692</ele>
        <time>2023-01-07T17:26:50.106Z</time>
      </trkpt>
      <trkpt lat="43.30802" lon="3.49151">
        <ele>55.39129</ele>
        <time>2023-01-07T17:26:53.105Z</time>
      </trkpt>
      <trkpt lat="43.30794" lon="3.49162">
        <ele>55.371062</ele>
        <time>2023-01-07T17:26:56.164Z</time>
      </trkpt>
      <trkpt lat="43.30784" lon="3.49169">
        <ele>55.369184</ele>
        <time>2023-01-07T17:26:59.103Z</time>
      </trkpt>
      <trkpt lat="43.30775" lon="3.49174">
        <ele>55.367449</ele>
        <time>2023-01-07T17:27:02.108Z</time>
      </trkpt>
      <trkpt lat="43.30768" lon="3.49183">
        <ele>55.365635</ele>
        <time>2023-01-07T17:27:05.113Z</time>
      </trkpt>
      <trkpt lat="43.30763" lon="3.49197">
        <ele>55.363585</ele>
        <time>2023-01-07T17:27:08.104Z</time>
      </trkpt>
      <trkpt lat="43.30761" lon="3.49214">
        <ele>55.361431</ele>
        <time>2023-01-07T17:27:11.107Z</time>
      </trkpt>
      <trkpt lat="43.30764" lon="3.49232">
        <ele>55.359019</ele>
        <time>2023-01-07T17:27:14.217Z</time>
      </trkpt>
      <trkpt lat="43.30773" lon="3.49241">
        <ele>55.356991</ele>
        <time>2023-01-07T17:27:16.102Z</time>
      </trkpt>
      <trkpt lat="43.30784" lon="3.49251">
        <ele>55.354675</ele>
        <time>2023-01-07T17:27:19.101Z</time>
      </trkpt>
      <trkpt lat="43.30791" lon="3.49259">
        <ele>55.352999</ele>
        <time>2023-01-07T17:27:21.106Z</time>
      </trkpt>
      <trkpt lat="43.30796" lon="3.49269">
        <ele>55.351298</ele>
        <time>2023-01-07T17:27:23.114Z</time>
      </trkpt>
      <trkpt lat="43.30799" lon="3.49282">
        <ele>55.349545</ele>
        <time>2023-01-07T17:27:25.125Z</time>
      </trkpt>
      <trkpt lat="43.308" lon="3.49297">
        <ele>55.347674</ele>
        <time>2023-01-07T17:27:27.120Z</time>
      </trkpt>
      <trkpt lat="43.30799" lon="3.49311">
        <ele>55.345829</ele>
        <time>2023-01-07T17:27:29.104Z</time>
      </trkpt>
      <trkpt lat="43.30798" lon="3.49323">
        <ele>55.34415</ele>
        <time>2023-01-07T17:27:31.102Z</time>
      </trkpt>
      <trkpt lat="43.30797" lon="3.49337">
        <ele>55.342347</ele>
        <time>2023-01-07T17:27:33.114Z</time>
      </trkpt>
      <trkpt lat="43.30795" lon="3.4935">
        <ele>55.340586</ele>
        <time>2023-01-07T17:27:35.125Z</time>
      </trkpt>
      <trkpt lat="43.30791" lon="3.49364">
        <ele>55.518726</ele>
        <time>2023-01-07T17:27:38.120Z</time>
      </trkpt>
      <trkpt lat="43.30787" lon="3.49377">
        <ele>55.69253</ele>
        <time>2023-01-07T17:27:42.112Z</time>
      </trkpt>
      <trkpt lat="43.30788" lon="3.4939">
        <ele>55.864727</ele>
        <time>2023-01-07T17:29:21.118Z</time>
      </trkpt>
      <trkpt lat="43.30784" lon="3.49404">
        <ele>56.052503</ele>
        <time>2023-01-07T17:29:25.100Z</time>
      </trkpt>
      <trkpt lat="43.30779" lon="3.49419">
        <ele>56.259866</ele>
        <time>2023-01-07T17:29:29.098Z</time>
      </trkpt>
      <trkpt lat="43.30775" lon="3.49434">
        <ele>56.463598</ele>
        <time>2023-01-07T17:29:33.119Z</time>
      </trkpt>
      <trkpt lat="43.30772" lon="3.49447">
        <ele>56.627495</ele>
        <time>2023-01-07T17:29:36.116Z</time>
      </trkpt>
      <trkpt lat="43.30769" lon="3.4946">
        <ele>56.798865</ele>
        <time>2023-01-07T17:29:39.119Z</time>
      </trkpt>
      <trkpt lat="43.30768" lon="3.49473">
        <ele>56.964462</ele>
        <time>2023-01-07T17:29:42.122Z</time>
      </trkpt>
      <trkpt lat="43.30768" lon="3.49493">
        <ele>57.220615</ele>
        <time>2023-01-07T17:29:46.096Z</time>
      </trkpt>
      <trkpt lat="43.30767" lon="3.49506">
        <ele>57.390699</ele>
        <time>2023-01-07T17:29:48.111Z</time>
      </trkpt>
      <trkpt lat="43.30763" lon="3.49518">
        <ele>57.553805</ele>
        <time>2023-01-07T17:29:51.106Z</time>
      </trkpt>
      <trkpt lat="43.30753" lon="3.49526">
        <ele>57.752857</ele>
        <time>2023-01-07T17:29:55.102Z</time>
      </trkpt>
      <trkpt lat="43.30746" lon="3.49535">
        <ele>57.915569</ele>
        <time>2023-01-07T17:29:58.102Z</time>
      </trkpt>
      <trkpt lat="43.30742" lon="3.49547">
        <ele>58.087066</ele>
        <time>2023-01-07T17:30:01.116Z</time>
      </trkpt>
      <trkpt lat="43.30742" lon="3.49561">
        <ele>58.266106</ele>
        <time>2023-01-07T17:30:04.108Z</time>
      </trkpt>
      <trkpt lat="43.30746" lon="3.49574">
        <ele>58.448277</ele>
        <time>2023-01-07T17:30:07.103Z</time>
      </trkpt>
      <trkpt lat="43.30753" lon="3.49585">
        <ele>58.583496</ele>
        <time>2023-01-07T17:30:10.111Z</time>
      </trkpt>
      <trkpt lat="43.30762" lon="3.49594">
        <ele>58.713201</ele>
        <time>2023-01-07T17:30:13.111Z</time>
      </trkpt>
      <trkpt lat="43.30767" lon="3.49605">
        <ele>58.827026</ele>
        <time>2023-01-07T17:30:16.104Z</time>
      </trkpt>
      <trkpt lat="43.30769" lon="3.49618">
        <ele>58.942443</ele>
        <time>2023-01-07T17:30:20.103Z</time>
      </trkpt>
      <trkpt lat="43.30768" lon="3.49633">
        <ele>59.073812</ele>
        <time>2023-01-07T17:30:25.107Z</time>
      </trkpt>
      <trkpt lat="43.3077" lon="3.49648">
        <ele>59.20749</ele>
        <time>2023-01-07T17:30:29.112Z</time>
      </trkpt>
      <trkpt lat="43.3077" lon="3.49662">
        <ele>59.329201</ele>
        <time>2023-01-07T17:30:33.106Z</time>
      </trkpt>
      <trkpt lat="43.3077" lon="3.49677">
        <ele>59.459641</ele>
        <time>2023-01-07T17:30:38.108Z</time>
      </trkpt>
      <trkpt lat="43.3077" lon="3.4969">
        <ele>59.571703</ele>
        <time>2023-01-07T17:30:42.104Z</time>
      </trkpt>
      <trkpt lat="43.30769" lon="3.49704">
        <ele>59.694398</ele>
        <time>2023-01-07T17:30:46.105Z</time>
      </trkpt>
      <trkpt lat="43.30769" lon="3.49719">
        <ele>59.821278</ele>
        <time>2023-01-07T17:30:50.105Z</time>
      </trkpt>
      <trkpt lat="43.30769" lon="3.49733">
        <ele>59.948982</ele>
        <time>2023-01-07T17:30:54.097Z</time>
      </trkpt>
      <trkpt lat="43.30768" lon="3.49749">
        <ele>60.082952</ele>
        <time>2023-01-07T17:30:58.101Z</time>
      </trkpt>
      <trkpt lat="43.30768" lon="3.49764">
        <ele>60.21413</ele>
        <time>2023-01-07T17:31:02.120Z</time>
      </trkpt>
      <trkpt lat="43.30768" lon="3.49779">
        <ele>60.341879</ele>
        <time>2023-01-07T17:31:06.115Z</time>
      </trkpt>
      <trkpt lat="43.30767" lon="3.49794">
        <ele>60.473317</ele>
        <time>2023-01-07T17:31:10.118Z</time>
      </trkpt>
      <trkpt lat="43.30767" lon="3.49808">
        <ele>60.599301</ele>
        <time>2023-01-07T17:31:14.114Z</time>
      </trkpt>
      <trkpt lat="43.30766" lon="3.49822">
        <ele>60.893172</ele>
        <time>2023-01-07T17:31:18.126Z</time>
      </trkpt>
      <trkpt lat="43.30765" lon="3.49835">
        <ele>61.221482</ele>
        <time>2023-01-07T17:31:22.113Z</time>
      </trkpt>
      <trkpt lat="43.30765" lon="3.49848">
        <ele>61.556643</ele>
        <time>2023-01-07T17:31:27.118Z</time>
      </trkpt>
      <trkpt lat="43.30765" lon="3.49863">
        <ele>61.933836</ele>
        <time>2023-01-07T17:31:32.109Z</time>
      </trkpt>
      <trkpt lat="43.30764" lon="3.49878">
        <ele>62.304217</ele>
        <time>2023-01-07T17:31:37.108Z</time>
      </trkpt>
      <trkpt lat="43.30764" lon="3.49892">
        <ele>62.646543</ele>
        <time>2023-01-07T17:31:42.104Z</time>
      </trkpt>
      <trkpt lat="43.30764" lon="3.49905">
        <ele>62.966615</ele>
        <time>2023-01-07T17:31:47.103Z</time>
      </trkpt>
      <trkpt lat="43.30764" lon="3.49919">
        <ele>63.314052</ele>
        <time>2023-01-07T17:31:53.112Z</time>
      </trkpt>
      <trkpt lat="43.30764" lon="3.49932">
        <ele>63.629551</ele>
        <time>2023-01-07T17:31:58.100Z</time>
      </trkpt>
      <trkpt lat="43.30764" lon="3.49946">
        <ele>63.986826</ele>
        <time>2023-01-07T17:32:04.114Z</time>
      </trkpt>
      <trkpt lat="43.30764" lon="3.49959">
        <ele>64.301864</ele>
        <time>2023-01-07T17:32:10.111Z</time>
      </trkpt>
      <trkpt lat="43.30763" lon="3.49971">
        <ele>64.606814</ele>
        <time>2023-01-07T17:32:15.120Z</time>
      </trkpt>
      <trkpt lat="43.30762" lon="3.49985">
        <ele>64.950832</ele>
        <time>2023-01-07T17:32:20.111Z</time>
      </trkpt>
      <trkpt lat="43.30761" lon="3.49998">
        <ele>65.281195</ele>
        <time>2023-01-07T17:32:25.101Z</time>
      </trkpt>
      <trkpt lat="43.30761" lon="3.50011">
        <ele>65.589263</ele>
        <time>2023-01-07T17:32:29.119Z</time>
      </trkpt>
      <trkpt lat="43.3076" lon="3.50026">
        <ele>65.981735</ele>
        <time>2023-01-07T17:32:34.113Z</time>
      </trkpt>
      <trkpt lat="43.3076" lon="3.5004">
        <ele>66.311816</ele>
        <time>2023-01-07T17:32:38.113Z</time>
      </trkpt>
      <trkpt lat="43.3076" lon="3.50053">
        <ele>66.639328</ele>
        <time>2023-01-07T17:32:42.109Z</time>
      </trkpt>
      <trkpt lat="43.30759" lon="3.50065">
        <ele>66.736491</ele>
        <time>2023-01-07T17:32:46.108Z</time>
      </trkpt>
      <trkpt lat="43.3076" lon="3.50079">
        <ele>66.709559</ele>
        <time>2023-01-07T17:32:50.110Z</time>
      </trkpt>
      <trkpt lat="43.3076" lon="3.50094">
        <ele>66.678799</ele>
        <time>2023-01-07T17:32:54.109Z</time>
      </trkpt>
      <trkpt lat="43.3076" lon="3.50108">
        <ele>66.650048</ele>
        <time>2023-01-07T17:32:58.117Z</time>
      </trkpt>
      <trkpt lat="43.30759" lon="3.50124">
        <ele>66.619269</ele>
        <time>2023-01-07T17:33:03.108Z</time>
      </trkpt>
      <trkpt lat="43.30756" lon="3.50137">
        <ele>66.590516</ele>
        <time>2023-01-07T17:33:08.125Z</time>
      </trkpt>
      <trkpt lat="43.30751" lon="3.50148">
        <ele>66.564641</ele>
        <time>2023-01-07T17:33:12.104Z</time>
      </trkpt>
      <trkpt lat="43.3075" lon="3.50162">
        <ele>66.536471</ele>
        <time>2023-01-07T17:33:16.104Z</time>
      </trkpt>
      <trkpt lat="43.30756" lon="3.50172">
        <ele>66.510304</ele>
        <time>2023-01-07T17:33:20.110Z</time>
      </trkpt>
      <trkpt lat="43.30757" lon="3.50187">
        <ele>66.480514</ele>
        <time>2023-01-07T17:33:25.125Z</time>
      </trkpt>
      <trkpt lat="43.30755" lon="3.50201">
        <ele>66.452385</ele>
        <time>2023-01-07T17:33:29.121Z</time>
      </trkpt>
      <trkpt lat="43.30754" lon="3.50217">
        <ele>66.420755</ele>
        <time>2023-01-07T17:33:33.114Z</time>
      </trkpt>
      <trkpt lat="43.30752" lon="3.50232">
        <ele>66.389012</ele>
        <time>2023-01-07T17:33:37.118Z</time>
      </trkpt>
      <trkpt lat="43.3075" lon="3.50245">
        <ele>66.363556</ele>
        <time>2023-01-07T17:33:40.127Z</time>
      </trkpt>
      <trkpt lat="43.30749" lon="3.50258">
        <ele>66.337344</ele>
        <time>2023-01-07T17:33:43.123Z</time>
      </trkpt>
      <trkpt lat="43.30747" lon="3.5027">
        <ele>66.312327</ele>
        <time>2023-01-07T17:33:46.121Z</time>
      </trkpt>
      <trkpt lat="43.30744" lon="3.50284">
        <ele>66.283094</ele>
        <time>2023-01-07T17:33:50.123Z</time>
      </trkpt>
      <trkpt lat="43.30742" lon="3.503">
        <ele>66.227371</ele>
        <time>2023-01-07T17:33:54.115Z</time>
      </trkpt>
      <trkpt lat="43.30742" lon="3.50313">
        <ele>66.103515</ele>
        <time>2023-01-07T17:33:57.118Z</time>
      </trkpt>
      <trkpt lat="43.30741" lon="3.50327">
        <ele>65.972905</ele>
        <time>2023-01-07T17:34:00.124Z</time>
      </trkpt>
      <trkpt lat="43.30741" lon="3.50341">
        <ele>65.831735</ele>
        <time>2023-01-07T17:34:03.107Z</time>
      </trkpt>
      <trkpt lat="43.3074" lon="3.50356">
        <ele>65.688511</ele>
        <time>2023-01-07T17:34:06.119Z</time>
      </trkpt>
      <trkpt lat="43.3074" lon="3.50369">
        <ele>65.558974</ele>
        <time>2023-01-07T17:34:09.119Z</time>
      </trkpt>
      <trkpt lat="43.30737" lon="3.50357">
        <ele>65.437211</ele>
        <time>2023-01-07T17:35:16.109Z</time>
      </trkpt>
      <trkpt lat="43.30738" lon="3.50344">
        <ele>65.308018</ele>
        <time>2023-01-07T17:35:21.110Z</time>
      </trkpt>
      <trkpt lat="43.30738" lon="3.50332">
        <ele>65.188088</ele>
        <time>2023-01-07T17:35:25.113Z</time>
      </trkpt>
      <trkpt lat="43.30738" lon="3.50319">
        <ele>65.064381</ele>
        <time>2023-01-07T17:35:29.120Z</time>
      </trkpt>
      <trkpt lat="43.30738" lon="3.50304">
        <ele>64.923305</ele>
        <time>2023-01-07T17:35:33.113Z</time>
      </trkpt>
      <trkpt lat="43.30739" lon="3.50292">
        <ele>64.802343</ele>
        <time>2023-01-07T17:35:37.119Z</time>
      </trkpt>
      <trkpt lat="43.30739" lon="3.50279">
        <ele>64.681207</ele>
        <time>2023-01-07T17:35:42.114Z</time>
      </trkpt>
      <trkpt lat="43.3074" lon="3.50265">
        <ele>64.543841</ele>
        <time>2023-01-07T17:35:47.101Z</time>
      </trkpt>
      <trkpt lat="43.30749" lon="3.50263">
        <ele>64.422289</ele>
        <time>2023-01-07T17:36:04.127Z</time>
      </trkpt>
      <trkpt lat="43.30751" lon="3.50276">
        <ele>64.28895</ele>
        <time>2023-01-07T17:36:45.121Z</time>
      </trkpt>
      <trkpt lat="43.30751" lon="3.50291">
        <ele>64.144975</ele>
        <time>2023-01-07T17:36:48.110Z</time>
      </trkpt>
      <trkpt lat="43.3075" lon="3.50307">
        <ele>63.986386</ele>
        <time>2023-01-07T17:36:51.105Z</time>
      </trkpt>
      <trkpt lat="43.30748" lon="3.50325">
        <ele>63.733654</ele>
        <time>2023-01-07T17:36:54.100Z</time>
      </trkpt>
      <trkpt lat="43.3075" lon="3.50338">
        <ele>63.364522</ele>
        <time>2023-01-07T17:36:56.107Z</time>
      </trkpt>
      <trkpt lat="43.30749" lon="3.50351">
        <ele>63.025562</ele>
        <time>2023-01-07T17:36:58.108Z</time>
      </trkpt>
      <trkpt lat="43.30749" lon="3.50364">
        <ele>62.683183</ele>
        <time>2023-01-07T17:37:00.109Z</time>
      </trkpt>
      <trkpt lat="43.30748" lon="3.50377">
        <ele>62.327327</ele>
        <time>2023-01-07T17:37:02.119Z</time>
      </trkpt>
      <trkpt lat="43.30748" lon="3.50391">
        <ele>61.961786</ele>
        <time>2023-01-07T17:37:04.103Z</time>
      </trkpt>
      <trkpt lat="43.30746" lon="3.50406">
        <ele>61.572019</ele>
        <time>2023-01-07T17:37:06.109Z</time>
      </trkpt>
      <trkpt lat="43.30746" lon="3.50421">
        <ele>61.177385</ele>
        <time>2023-01-07T17:37:08.112Z</time>
      </trkpt>
      <trkpt lat="43.30745" lon="3.50437">
        <ele>60.753763</ele>
        <time>2023-01-07T17:37:10.119Z</time>
      </trkpt>
      <trkpt lat="43.30745" lon="3.50453">
        <ele>60.322343</ele>
        <time>2023-01-07T17:37:12.106Z</time>
      </trkpt>
      <trkpt lat="43.30746" lon="3.50469">
        <ele>59.898722</ele>
        <time>2023-01-07T17:37:14.106Z</time>
      </trkpt>
      <trkpt lat="43.30746" lon="3.50485">
        <ele>59.461266</ele>
        <time>2023-01-07T17:37:16.108Z</time>
      </trkpt>
      <trkpt lat="43.30746" lon="3.50501">
        <ele>59.043015</ele>
        <time>2023-01-07T17:37:18.108Z</time>
      </trkpt>
      <trkpt lat="43.30747" lon="3.50518">
        <ele>58.606165</ele>
        <time>2023-01-07T17:37:20.114Z</time>
      </trkpt>
      <trkpt lat="43.30747" lon="3.50534">
        <ele>58.174361</ele>
        <time>2023-01-07T17:37:22.118Z</time>
      </trkpt>
      <trkpt lat="43.30748" lon="3.50551">
        <ele>57.729171</ele>
        <time>2023-01-07T17:37:24.109Z</time>
      </trkpt>
      <trkpt lat="43.30748" lon="3.50568">
        <ele>57.288075</ele>
        <time>2023-01-07T17:37:26.113Z</time>
      </trkpt>
      <trkpt lat="43.30748" lon="3.50585">
        <ele>56.838789</ele>
        <time>2023-01-07T17:37:28.112Z</time>
      </trkpt>
      <trkpt lat="43.30749" lon="3.50603">
        <ele>56.374044</ele>
        <time>2023-01-07T17:37:30.111Z</time>
      </trkpt>
      <trkpt lat="43.3075" lon="3.50621">
        <ele>55.914069</ele>
        <time>2023-01-07T17:37:32.107Z</time>
      </trkpt>
      <trkpt lat="43.30751" lon="3.50639">
        <ele>55.445298</ele>
        <time>2023-01-07T17:37:34.111Z</time>
      </trkpt>
      <trkpt lat="43.30752" lon="3.50657">
        <ele>54.968821</ele>
        <time>2023-01-07T17:37:36.104Z</time>
      </trkpt>
      <trkpt lat="43.30753" lon="3.50675">
        <ele>54.498549</ele>
        <time>2023-01-07T17:37:38.108Z</time>
      </trkpt>
      <trkpt lat="43.30754" lon="3.50694">
        <ele>54.013691</ele>
        <time>2023-01-07T17:37:40.114Z</time>
      </trkpt>
      <trkpt lat="43.30757" lon="3.50713">
        <ele>53.532753</ele>
        <time>2023-01-07T17:37:42.110Z</time>
      </trkpt>
      <trkpt lat="43.30759" lon="3.50731">
        <ele>53.05087</ele>
        <time>2023-01-07T17:37:44.104Z</time>
      </trkpt>
      <trkpt lat="43.3076" lon="3.50749">
        <ele>52.584331</ele>
        <time>2023-01-07T17:37:46.104Z</time>
      </trkpt>
      <trkpt lat="43.30761" lon="3.50767">
        <ele>52.12872</ele>
        <time>2023-01-07T17:37:48.107Z</time>
      </trkpt>
      <trkpt lat="43.30763" lon="3.50784">
        <ele>51.683375</ele>
        <time>2023-01-07T17:37:50.108Z</time>
      </trkpt>
      <trkpt lat="43.30765" lon="3.50801">
        <ele>51.242317</ele>
        <time>2023-01-07T17:37:52.105Z</time>
      </trkpt>
      <trkpt lat="43.30767" lon="3.50815">
        <ele>50.938119</ele>
        <time>2023-01-07T17:37:54.106Z</time>
      </trkpt>
      <trkpt lat="43.30769" lon="3.50829">
        <ele>50.890345</ele>
        <time>2023-01-07T17:37:56.116Z</time>
      </trkpt>
      <trkpt lat="43.30771" lon="3.50842">
        <ele>50.845674</ele>
        <time>2023-01-07T17:37:58.115Z</time>
      </trkpt>
      <trkpt lat="43.30772" lon="3.50855">
        <ele>50.801697</ele>
        <time>2023-01-07T17:38:00.104Z</time>
      </trkpt>
      <trkpt lat="43.30775" lon="3.50868">
        <ele>50.756043</ele>
        <time>2023-01-07T17:38:02.121Z</time>
      </trkpt>
      <trkpt lat="43.30777" lon="3.50881">
        <ele>50.712126</ele>
        <time>2023-01-07T17:38:04.115Z</time>
      </trkpt>
      <trkpt lat="43.30779" lon="3.50894">
        <ele>50.667898</ele>
        <time>2023-01-07T17:38:06.117Z</time>
      </trkpt>
      <trkpt lat="43.30781" lon="3.50908">
        <ele>50.621261</ele>
        <time>2023-01-07T17:38:08.111Z</time>
      </trkpt>
      <trkpt lat="43.30783" lon="3.5092">
        <ele>50.577344</ele>
        <time>2023-01-07T17:38:10.116Z</time>
      </trkpt>
      <trkpt lat="43.30786" lon="3.50934">
        <ele>50.530125</ele>
        <time>2023-01-07T17:38:12.108Z</time>
      </trkpt>
      <trkpt lat="43.30789" lon="3.50947">
        <ele>50.485474</ele>
        <time>2023-01-07T17:38:14.117Z</time>
      </trkpt>
      <trkpt lat="43.30791" lon="3.5096">
        <ele>50.440375</ele>
        <time>2023-01-07T17:38:16.110Z</time>
      </trkpt>
      <trkpt lat="43.30793" lon="3.50973">
        <ele>50.394843</ele>
        <time>2023-01-07T17:38:18.104Z</time>
      </trkpt>
      <trkpt lat="43.30796" lon="3.50985">
        <ele>50.351554</ele>
        <time>2023-01-07T17:38:20.114Z</time>
      </trkpt>
      <trkpt lat="43.30799" lon="3.51003">
        <ele>50.291517</ele>
        <time>2023-01-07T17:38:23.101Z</time>
      </trkpt>
      <trkpt lat="43.30802" lon="3.51019">
        <ele>50.234355</ele>
        <time>2023-01-07T17:38:26.119Z</time>
      </trkpt>
      <trkpt lat="43.30806" lon="3.51036">
        <ele>50.17501</ele>
        <time>2023-01-07T17:38:29.122Z</time>
      </trkpt>
      <trkpt lat="43.30808" lon="3.51048">
        <ele>50.133195</ele>
        <time>2023-01-07T17:38:31.121Z</time>
      </trkpt>
      <trkpt lat="43.30812" lon="3.5106">
        <ele>50.083338</ele>
        <time>2023-01-07T17:38:33.113Z</time>
      </trkpt>
      <trkpt lat="43.30816" lon="3.51078">
        <ele>50.004088</ele>
        <time>2023-01-07T17:38:36.115Z</time>
      </trkpt>
      <trkpt lat="43.30819" lon="3.5109">
        <ele>49.952454</ele>
        <time>2023-01-07T17:38:38.110Z</time>
      </trkpt>
      <trkpt lat="43.30823" lon="3.51107">
        <ele>49.875709</ele>
        <time>2023-01-07T17:38:41.108Z</time>
      </trkpt>
      <trkpt lat="43.30825" lon="3.5112">
        <ele>49.823252</ele>
        <time>2023-01-07T17:38:43.111Z</time>
      </trkpt>
      <trkpt lat="43.30829" lon="3.51137">
        <ele>49.747959</ele>
        <time>2023-01-07T17:38:46.110Z</time>
      </trkpt>
      <trkpt lat="43.30833" lon="3.51154">
        <ele>49.672655</ele>
        <time>2023-01-07T17:38:49.124Z</time>
      </trkpt>
      <trkpt lat="43.30836" lon="3.51166">
        <ele>49.61945</ele>
        <time>2023-01-07T17:38:51.121Z</time>
      </trkpt>
      <trkpt lat="43.30841" lon="3.51183">
        <ele>49.542181</ele>
        <time>2023-01-07T17:38:54.115Z</time>
      </trkpt>
      <trkpt lat="43.30844" lon="3.51195">
        <ele>49.490747</ele>
        <time>2023-01-07T17:38:56.122Z</time>
      </trkpt>
      <trkpt lat="43.30849" lon="3.51212">
        <ele>49.414665</ele>
        <time>2023-01-07T17:38:59.120Z</time>
      </trkpt>
      <trkpt lat="43.30854" lon="3.51229">
        <ele>49.338515</ele>
        <time>2023-01-07T17:39:02.124Z</time>
      </trkpt>
      <trkpt lat="43.30859" lon="3.51246">
        <ele>49.261811</ele>
        <time>2023-01-07T17:39:05.126Z</time>
      </trkpt>
      <trkpt lat="43.30864" lon="3.51263">
        <ele>49.186813</ele>
        <time>2023-01-07T17:39:08.119Z</time>
      </trkpt>
      <trkpt lat="43.30869" lon="3.51279">
        <ele>49.111274</ele>
        <time>2023-01-07T17:39:11.123Z</time>
      </trkpt>
      <trkpt lat="43.30875" lon="3.51296">
        <ele>49.128196</ele>
        <time>2023-01-07T17:39:14.131Z</time>
      </trkpt>
      <trkpt lat="43.30877" lon="3.51308">
        <ele>49.163278</ele>
        <time>2023-01-07T17:39:18.115Z</time>
      </trkpt>
      <trkpt lat="43.30879" lon="3.51322">
        <ele>49.200919</ele>
        <time>2023-01-07T17:39:24.111Z</time>
      </trkpt>
      <trkpt lat="43.30884" lon="3.51334">
        <ele>49.237481</ele>
        <time>2023-01-07T17:39:30.111Z</time>
      </trkpt>
      <trkpt lat="43.30889" lon="3.51348">
        <ele>49.28188</ele>
        <time>2023-01-07T17:39:35.105Z</time>
      </trkpt>
      <trkpt lat="43.30893" lon="3.51361">
        <ele>49.318138</ele>
        <time>2023-01-07T17:39:38.105Z</time>
      </trkpt>
      <trkpt lat="43.30897" lon="3.51374">
        <ele>49.356993</ele>
        <time>2023-01-07T17:39:41.112Z</time>
      </trkpt>
      <trkpt lat="43.30901" lon="3.51387">
        <ele>49.396994</ele>
        <time>2023-01-07T17:39:44.104Z</time>
      </trkpt>
      <trkpt lat="43.30906" lon="3.514">
        <ele>49.437554</ele>
        <time>2023-01-07T17:39:47.120Z</time>
      </trkpt>
      <trkpt lat="43.30911" lon="3.51414">
        <ele>49.478682</ele>
        <time>2023-01-07T17:39:50.109Z</time>
      </trkpt>
      <trkpt lat="43.30915" lon="3.51428">
        <ele>49.520576</ele>
        <time>2023-01-07T17:39:53.117Z</time>
      </trkpt>
      <trkpt lat="43.3092" lon="3.51442">
        <ele>49.562372</ele>
        <time>2023-01-07T17:39:56.111Z</time>
      </trkpt>
      <trkpt lat="43.30925" lon="3.51456">
        <ele>49.604665</ele>
        <time>2023-01-07T17:39:59.103Z</time>
      </trkpt>
      <trkpt lat="43.30929" lon="3.51471">
        <ele>49.647955</ele>
        <time>2023-01-07T17:40:02.106Z</time>
      </trkpt>
      <trkpt lat="43.30934" lon="3.51485">
        <ele>49.690995</ele>
        <time>2023-01-07T17:40:05.121Z</time>
      </trkpt>
      <trkpt lat="43.30938" lon="3.515">
        <ele>49.733138</ele>
        <time>2023-01-07T17:40:08.110Z</time>
      </trkpt>
      <trkpt lat="43.30943" lon="3.51513">
        <ele>49.758473</ele>
        <time>2023-01-07T17:40:11.116Z</time>
      </trkpt>
      <trkpt lat="43.30947" lon="3.51527">
        <ele>49.724772</ele>
        <time>2023-01-07T17:40:15.113Z</time>
      </trkpt>
      <trkpt lat="43.30951" lon="3.51541">
        <ele>49.690208</ele>
        <time>2023-01-07T17:40:19.105Z</time>
      </trkpt>
      <trkpt lat="43.30955" lon="3.51554">
        <ele>49.661069</ele>
        <time>2023-01-07T17:40:22.109Z</time>
      </trkpt>
      <trkpt lat="43.3096" lon="3.51567">
        <ele>49.629643</ele>
        <time>2023-01-07T17:40:25.100Z</time>
      </trkpt>
      <trkpt lat="43.30964" lon="3.5158">
        <ele>49.597017</ele>
        <time>2023-01-07T17:40:28.109Z</time>
      </trkpt>
      <trkpt lat="43.30968" lon="3.51594">
        <ele>49.563749</ele>
        <time>2023-01-07T17:40:31.110Z</time>
      </trkpt>
      <trkpt lat="43.30973" lon="3.51608">
        <ele>49.530281</ele>
        <time>2023-01-07T17:40:34.100Z</time>
      </trkpt>
      <trkpt lat="43.30977" lon="3.51623">
        <ele>49.496012</ele>
        <time>2023-01-07T17:40:37.104Z</time>
      </trkpt>
      <trkpt lat="43.30982" lon="3.51637">
        <ele>49.462061</ele>
        <time>2023-01-07T17:40:40.104Z</time>
      </trkpt>
      <trkpt lat="43.30986" lon="3.51651">
        <ele>49.428793</ele>
        <time>2023-01-07T17:40:43.111Z</time>
      </trkpt>
      <trkpt lat="43.30991" lon="3.51665">
        <ele>49.395245</ele>
        <time>2023-01-07T17:40:46.114Z</time>
      </trkpt>
      <trkpt lat="43.30995" lon="3.51679">
        <ele>49.362333</ele>
        <time>2023-01-07T17:40:49.111Z</time>
      </trkpt>
      <trkpt lat="43.30999" lon="3.51692">
        <ele>49.330309</ele>
        <time>2023-01-07T17:40:52.108Z</time>
      </trkpt>
      <trkpt lat="43.31003" lon="3.51705">
        <ele>49.299243</ele>
        <time>2023-01-07T17:40:55.105Z</time>
      </trkpt>
      <trkpt lat="43.31008" lon="3.51719">
        <ele>49.266375</ele>
        <time>2023-01-07T17:40:58.103Z</time>
      </trkpt>
      <trkpt lat="43.31012" lon="3.51733">
        <ele>49.232306</ele>
        <time>2023-01-07T17:41:01.102Z</time>
      </trkpt>
      <trkpt lat="43.31017" lon="3.51748">
        <ele>49.241994</ele>
        <time>2023-01-07T17:41:04.105Z</time>
      </trkpt>
      <trkpt lat="43.31021" lon="3.51762">
        <ele>49.265637</ele>
        <time>2023-01-07T17:41:07.102Z</time>
      </trkpt>
      <trkpt lat="43.31025" lon="3.51777">
        <ele>49.289721</ele>
        <time>2023-01-07T17:41:10.103Z</time>
      </trkpt>
      <trkpt lat="43.3103" lon="3.51791">
        <ele>49.314107</ele>
        <time>2023-01-07T17:41:13.114Z</time>
      </trkpt>
      <trkpt lat="43.31034" lon="3.51806">
        <ele>49.338774</ele>
        <time>2023-01-07T17:41:16.107Z</time>
      </trkpt>
      <trkpt lat="43.31039" lon="3.51821">
        <ele>49.362966</ele>
        <time>2023-01-07T17:41:19.105Z</time>
      </trkpt>
      <trkpt lat="43.31044" lon="3.51834">
        <ele>49.385636</ele>
        <time>2023-01-07T17:41:22.106Z</time>
      </trkpt>
      <trkpt lat="43.31049" lon="3.51848">
        <ele>49.40905</ele>
        <time>2023-01-07T17:41:25.103Z</time>
      </trkpt>
      <trkpt lat="43.31054" lon="3.51862">
        <ele>49.432954</ele>
        <time>2023-01-07T17:41:28.113Z</time>
      </trkpt>
      <trkpt lat="43.31059" lon="3.51875">
        <ele>49.455259</ele>
        <time>2023-01-07T17:41:31.105Z</time>
      </trkpt>
      <trkpt lat="43.31063" lon="3.51888">
        <ele>49.477336</ele>
        <time>2023-01-07T17:41:34.121Z</time>
      </trkpt>
      <trkpt lat="43.31068" lon="3.51902">
        <ele>49.500967</ele>
        <time>2023-01-07T17:41:37.104Z</time>
      </trkpt>
      <trkpt lat="43.31073" lon="3.51918">
        <ele>49.527157</ele>
        <time>2023-01-07T17:41:40.105Z</time>
      </trkpt>
      <trkpt lat="43.31078" lon="3.51933">
        <ele>49.552969</ele>
        <time>2023-01-07T17:41:43.110Z</time>
      </trkpt>
      <trkpt lat="43.31083" lon="3.51947">
        <ele>49.576434</ele>
        <time>2023-01-07T17:41:46.108Z</time>
      </trkpt>
      <trkpt lat="43.31087" lon="3.51962">
        <ele>49.60068</ele>
        <time>2023-01-07T17:41:49.118Z</time>
      </trkpt>
      <trkpt lat="43.31092" lon="3.51976">
        <ele>49.554475</ele>
        <time>2023-01-07T17:41:52.113Z</time>
      </trkpt>
      <trkpt lat="43.31096" lon="3.51991">
        <ele>49.507272</ele>
        <time>2023-01-07T17:41:55.119Z</time>
      </trkpt>
      <trkpt lat="43.31101" lon="3.52006">
        <ele>49.459749</ele>
        <time>2023-01-07T17:41:58.117Z</time>
      </trkpt>
      <trkpt lat="43.31105" lon="3.52021">
        <ele>49.410966</ele>
        <time>2023-01-07T17:42:01.118Z</time>
      </trkpt>
      <trkpt lat="43.3111" lon="3.52035">
        <ele>49.363054</ele>
        <time>2023-01-07T17:42:04.113Z</time>
      </trkpt>
      <trkpt lat="43.31114" lon="3.5205">
        <ele>49.315967</ele>
        <time>2023-01-07T17:42:07.124Z</time>
      </trkpt>
      <trkpt lat="43.31119" lon="3.52064">
        <ele>49.269196</ele>
        <time>2023-01-07T17:42:10.101Z</time>
      </trkpt>
      <trkpt lat="43.31123" lon="3.52079">
        <ele>49.222326</ele>
        <time>2023-01-07T17:42:13.109Z</time>
      </trkpt>
      <trkpt lat="43.31128" lon="3.52093">
        <ele>49.175077</ele>
        <time>2023-01-07T17:42:16.109Z</time>
      </trkpt>
      <trkpt lat="43.31133" lon="3.52108">
        <ele>49.127441</ele>
        <time>2023-01-07T17:42:19.101Z</time>
      </trkpt>
      <trkpt lat="43.31137" lon="3.52122">
        <ele>49.079585</ele>
        <time>2023-01-07T17:42:22.106Z</time>
      </trkpt>
      <trkpt lat="43.31142" lon="3.52137">
        <ele>49.031788</ele>
        <time>2023-01-07T17:42:25.111Z</time>
      </trkpt>
      <trkpt lat="43.31147" lon="3.52152">
        <ele>48.982891</ele>
        <time>2023-01-07T17:42:28.116Z</time>
      </trkpt>
      <trkpt lat="43.31151" lon="3.52167">
        <ele>48.933834</ele>
        <time>2023-01-07T17:42:31.125Z</time>
      </trkpt>
      <trkpt lat="43.31156" lon="3.52182">
        <ele>48.885265</ele>
        <time>2023-01-07T17:42:34.107Z</time>
      </trkpt>
      <trkpt lat="43.31161" lon="3.52197">
        <ele>48.798271</ele>
        <time>2023-01-07T17:42:37.110Z</time>
      </trkpt>
      <trkpt lat="43.31165" lon="3.52212">
        <ele>48.678843</ele>
        <time>2023-01-07T17:42:40.115Z</time>
      </trkpt>
      <trkpt lat="43.3117" lon="3.52225">
        <ele>48.568794</ele>
        <time>2023-01-07T17:42:43.125Z</time>
      </trkpt>
      <trkpt lat="43.31174" lon="3.52237">
        <ele>48.467737</ele>
        <time>2023-01-07T17:42:46.112Z</time>
      </trkpt>
      <trkpt lat="43.31178" lon="3.52251">
        <ele>48.357242</ele>
        <time>2023-01-07T17:42:49.112Z</time>
      </trkpt>
      <trkpt lat="43.31182" lon="3.52265">
        <ele>48.242839</ele>
        <time>2023-01-07T17:42:52.111Z</time>
      </trkpt>
      <trkpt lat="43.31187" lon="3.52279">
        <ele>48.131662</ele>
        <time>2023-01-07T17:42:55.108Z</time>
      </trkpt>
      <trkpt lat="43.31191" lon="3.5229">
        <ele>48.033504</ele>
        <time>2023-01-07T17:42:58.112Z</time>
      </trkpt>
      <trkpt lat="43.31194" lon="3.52303">
        <ele>47.934917</ele>
        <time>2023-01-07T17:43:01.109Z</time>
      </trkpt>
      <trkpt lat="43.31198" lon="3.52316">
        <ele>47.822981</ele>
        <time>2023-01-07T17:43:06.112Z</time>
      </trkpt>
      <trkpt lat="43.31203" lon="3.52332">
        <ele>47.698898</ele>
        <time>2023-01-07T17:43:10.114Z</time>
      </trkpt>
      <trkpt lat="43.31208" lon="3.52345">
        <ele>47.586755</ele>
        <time>2023-01-07T17:43:13.118Z</time>
      </trkpt>
      <trkpt lat="43.31212" lon="3.5236">
        <ele>47.467723</ele>
        <time>2023-01-07T17:43:16.116Z</time>
      </trkpt>
      <trkpt lat="43.31217" lon="3.52375">
        <ele>47.348853</ele>
        <time>2023-01-07T17:43:19.110Z</time>
      </trkpt>
      <trkpt lat="43.31222" lon="3.52389">
        <ele>47.227512</ele>
        <time>2023-01-07T17:43:22.118Z</time>
      </trkpt>
      <trkpt lat="43.31226" lon="3.52404">
        <ele>47.105486</ele>
        <time>2023-01-07T17:43:25.115Z</time>
      </trkpt>
      <trkpt lat="43.31231" lon="3.52419">
        <ele>47.01048</ele>
        <time>2023-01-07T17:43:28.131Z</time>
      </trkpt>
      <trkpt lat="43.31236" lon="3.52435">
        <ele>47.006598</ele>
        <time>2023-01-07T17:43:31.117Z</time>
      </trkpt>
      <trkpt lat="43.3124" lon="3.5245">
        <ele>47.002713</ele>
        <time>2023-01-07T17:43:34.112Z</time>
      </trkpt>
      <trkpt lat="43.31245" lon="3.52465">
        <ele>46.998913</ele>
        <time>2023-01-07T17:43:37.123Z</time>
      </trkpt>
      <trkpt lat="43.3125" lon="3.5248">
        <ele>46.995253</ele>
        <time>2023-01-07T17:43:40.124Z</time>
      </trkpt>
      <trkpt lat="43.31255" lon="3.52494">
        <ele>46.991574</ele>
        <time>2023-01-07T17:43:43.111Z</time>
      </trkpt>
      <trkpt lat="43.3126" lon="3.52508">
        <ele>46.987936</ele>
        <time>2023-01-07T17:43:46.123Z</time>
      </trkpt>
      <trkpt lat="43.31264" lon="3.52523">
        <ele>46.984212</ele>
        <time>2023-01-07T17:43:49.128Z</time>
      </trkpt>
      <trkpt lat="43.31269" lon="3.52538">
        <ele>46.980327</ele>
        <time>2023-01-07T17:43:52.118Z</time>
      </trkpt>
      <trkpt lat="43.31274" lon="3.52554">
        <ele>46.976348</ele>
        <time>2023-01-07T17:43:55.109Z</time>
      </trkpt>
      <trkpt lat="43.31279" lon="3.52569">
        <ele>46.972493</ele>
        <time>2023-01-07T17:43:58.121Z</time>
      </trkpt>
      <trkpt lat="43.31284" lon="3.52584">
        <ele>46.968706</ele>
        <time>2023-01-07T17:44:01.103Z</time>
      </trkpt>
      <trkpt lat="43.31288" lon="3.52599">
        <ele>46.964977</ele>
        <time>2023-01-07T17:44:04.114Z</time>
      </trkpt>
      <trkpt lat="43.31293" lon="3.52613">
        <ele>46.961432</ele>
        <time>2023-01-07T17:44:07.117Z</time>
      </trkpt>
      <trkpt lat="43.31297" lon="3.52627">
        <ele>46.957959</ele>
        <time>2023-01-07T17:44:10.111Z</time>
      </trkpt>
      <trkpt lat="43.31301" lon="3.52641">
        <ele>46.954444</ele>
        <time>2023-01-07T17:44:13.126Z</time>
      </trkpt>
      <trkpt lat="43.31306" lon="3.52655">
        <ele>47.035767</ele>
        <time>2023-01-07T17:44:16.123Z</time>
      </trkpt>
      <trkpt lat="43.3131" lon="3.5267">
        <ele>47.132035</ele>
        <time>2023-01-07T17:44:19.122Z</time>
      </trkpt>
      <trkpt lat="43.31314" lon="3.52686">
        <ele>47.226918</ele>
        <time>2023-01-07T17:44:22.123Z</time>
      </trkpt>
      <trkpt lat="43.31319" lon="3.52701">
        <ele>47.323854</ele>
        <time>2023-01-07T17:44:25.114Z</time>
      </trkpt>
      <trkpt lat="43.31324" lon="3.52716">
        <ele>47.420571</ele>
        <time>2023-01-07T17:44:28.113Z</time>
      </trkpt>
      <trkpt lat="43.31328" lon="3.52731">
        <ele>47.516586</ele>
        <time>2023-01-07T17:44:31.111Z</time>
      </trkpt>
      <trkpt lat="43.31333" lon="3.52746">
        <ele>47.613628</ele>
        <time>2023-01-07T17:44:34.110Z</time>
      </trkpt>
      <trkpt lat="43.31338" lon="3.52761">
        <ele>47.709807</ele>
        <time>2023-01-07T17:44:37.122Z</time>
      </trkpt>
      <trkpt lat="43.31343" lon="3.52776">
        <ele>47.806849</ele>
        <time>2023-01-07T17:44:40.125Z</time>
      </trkpt>
      <trkpt lat="43.31348" lon="3.52791">
        <ele>47.903355</ele>
        <time>2023-01-07T17:44:43.106Z</time>
      </trkpt>
      <trkpt lat="43.31353" lon="3.52807">
        <ele>48.00147</ele>
        <time>2023-01-07T17:44:46.123Z</time>
      </trkpt>
      <trkpt lat="43.31357" lon="3.52822">
        <ele>48.0967</ele>
        <time>2023-01-07T17:44:49.103Z</time>
      </trkpt>
      <trkpt lat="43.31362" lon="3.52836">
        <ele>48.19141</ele>
        <time>2023-01-07T17:44:52.108Z</time>
      </trkpt>
      <trkpt lat="43.31367" lon="3.52851">
        <ele>48.287971</ele>
        <time>2023-01-07T17:44:55.122Z</time>
      </trkpt>
      <trkpt lat="43.31371" lon="3.52867">
        <ele>48.382841</ele>
        <time>2023-01-07T17:44:58.099Z</time>
      </trkpt>
      <trkpt lat="43.31375" lon="3.52881">
        <ele>48.357562</ele>
        <time>2023-01-07T17:45:01.112Z</time>
      </trkpt>
      <trkpt lat="43.31379" lon="3.52895">
        <ele>48.295765</ele>
        <time>2023-01-07T17:45:04.120Z</time>
      </trkpt>
      <trkpt lat="43.31384" lon="3.52909">
        <ele>48.23465</ele>
        <time>2023-01-07T17:45:07.115Z</time>
      </trkpt>
      <trkpt lat="43.31388" lon="3.52922">
        <ele>48.178039</ele>
        <time>2023-01-07T17:45:10.116Z</time>
      </trkpt>
      <trkpt lat="43.31391" lon="3.52933">
        <ele>48.127245</ele>
        <time>2023-01-07T17:45:13.123Z</time>
      </trkpt>
      <trkpt lat="43.31395" lon="3.52946">
        <ele>48.073619</ele>
        <time>2023-01-07T17:45:17.105Z</time>
      </trkpt>
      <trkpt lat="43.31398" lon="3.52959">
        <ele>48.016583</ele>
        <time>2023-01-07T17:45:22.108Z</time>
      </trkpt>
      <trkpt lat="43.31402" lon="3.52971">
        <ele>47.964188</ele>
        <time>2023-01-07T17:45:26.108Z</time>
      </trkpt>
      <trkpt lat="43.31406" lon="3.52985">
        <ele>47.901743</ele>
        <time>2023-01-07T17:45:30.109Z</time>
      </trkpt>
      <trkpt lat="43.3141" lon="3.53">
        <ele>47.838446</ele>
        <time>2023-01-07T17:45:34.104Z</time>
      </trkpt>
      <trkpt lat="43.31414" lon="3.53013">
        <ele>47.780662</ele>
        <time>2023-01-07T17:45:38.104Z</time>
      </trkpt>
      <trkpt lat="43.31418" lon="3.53029">
        <ele>47.713977</ele>
        <time>2023-01-07T17:45:42.109Z</time>
      </trkpt>
      <trkpt lat="43.31422" lon="3.53041">
        <ele>47.66106</ele>
        <time>2023-01-07T17:45:45.112Z</time>
      </trkpt>
      <trkpt lat="43.31426" lon="3.53053">
        <ele>47.60699</ele>
        <time>2023-01-07T17:45:48.106Z</time>
      </trkpt>
      <trkpt lat="43.3143" lon="3.53066">
        <ele>47.552038</ele>
        <time>2023-01-07T17:45:51.105Z</time>
      </trkpt>
      <trkpt lat="43.31434" lon="3.53079">
        <ele>47.494914</ele>
        <time>2023-01-07T17:45:54.105Z</time>
      </trkpt>
      <trkpt lat="43.31438" lon="3.5309">
        <ele>47.443887</ele>
        <time>2023-01-07T17:45:57.105Z</time>
      </trkpt>
      <trkpt lat="43.31443" lon="3.53103">
        <ele>47.418681</ele>
        <time>2023-01-07T17:46:01.106Z</time>
      </trkpt>
      <trkpt lat="43.31445" lon="3.53115">
        <ele>47.444797</ele>
        <time>2023-01-07T17:46:06.106Z</time>
      </trkpt>
      <trkpt lat="43.31449" lon="3.53127">
        <ele>47.469904</ele>
        <time>2023-01-07T17:46:10.109Z</time>
      </trkpt>
      <trkpt lat="43.31453" lon="3.53139">
        <ele>47.497536</ele>
        <time>2023-01-07T17:46:15.117Z</time>
      </trkpt>
      <trkpt lat="43.31457" lon="3.53152">
        <ele>47.524183</ele>
        <time>2023-01-07T17:46:25.112Z</time>
      </trkpt>
      <trkpt lat="43.31461" lon="3.53164">
        <ele>47.55161</ele>
        <time>2023-01-07T17:46:31.115Z</time>
      </trkpt>
      <trkpt lat="43.31464" lon="3.53176">
        <ele>47.577159</ele>
        <time>2023-01-07T17:46:35.122Z</time>
      </trkpt>
      <trkpt lat="43.3147" lon="3.5319">
        <ele>47.609456</ele>
        <time>2023-01-07T17:46:39.111Z</time>
      </trkpt>
      <trkpt lat="43.31474" lon="3.53202">
        <ele>47.636108</ele>
        <time>2023-01-07T17:46:42.119Z</time>
      </trkpt>
      <trkpt lat="43.31478" lon="3.53215">
        <ele>47.663265</ele>
        <time>2023-01-07T17:46:45.118Z</time>
      </trkpt>
      <trkpt lat="43.31482" lon="3.53227">
        <ele>47.689552</ele>
        <time>2023-01-07T17:46:48.102Z</time>
      </trkpt>
      <trkpt lat="43.31485" lon="3.5324">
        <ele>47.716893</ele>
        <time>2023-01-07T17:46:51.116Z</time>
      </trkpt>
      <trkpt lat="43.3149" lon="3.53252">
        <ele>47.744453</ele>
        <time>2023-01-07T17:46:54.111Z</time>
      </trkpt>
      <trkpt lat="43.31493" lon="3.53265">
        <ele>47.771029</ele>
        <time>2023-01-07T17:46:57.114Z</time>
      </trkpt>
      <trkpt lat="43.31498" lon="3.5328">
        <ele>47.803322</ele>
        <time>2023-01-07T17:47:01.102Z</time>
      </trkpt>
      <trkpt lat="43.31502" lon="3.53295">
        <ele>47.836377</ele>
        <time>2023-01-07T17:47:05.106Z</time>
      </trkpt>
      <trkpt lat="43.31506" lon="3.53307">
        <ele>47.863168</ele>
        <time>2023-01-07T17:47:08.111Z</time>
      </trkpt>
      <trkpt lat="43.3151" lon="3.5332">
        <ele>47.890218</ele>
        <time>2023-01-07T17:47:11.110Z</time>
      </trkpt>
      <trkpt lat="43.31514" lon="3.53333">
        <ele>47.90406</ele>
        <time>2023-01-07T17:47:14.107Z</time>
      </trkpt>
      <trkpt lat="43.31517" lon="3.53345">
        <ele>47.907447</ele>
        <time>2023-01-07T17:47:17.114Z</time>
      </trkpt>
      <trkpt lat="43.31521" lon="3.53356">
        <ele>47.910689</ele>
        <time>2023-01-07T17:47:20.113Z</time>
      </trkpt>
      <trkpt lat="43.31525" lon="3.53369">
        <ele>47.91421</ele>
        <time>2023-01-07T17:47:23.104Z</time>
      </trkpt>
      <trkpt lat="43.31528" lon="3.53381">
        <ele>47.917662</ele>
        <time>2023-01-07T17:47:26.108Z</time>
      </trkpt>
      <trkpt lat="43.31532" lon="3.53393">
        <ele>47.920918</ele>
        <time>2023-01-07T17:47:29.104Z</time>
      </trkpt>
      <trkpt lat="43.31536" lon="3.53407">
        <ele>47.924806</ele>
        <time>2023-01-07T17:47:33.105Z</time>
      </trkpt>
      <trkpt lat="43.31537" lon="3.53419">
        <ele>47.928153</ele>
        <time>2023-01-07T17:47:46.114Z</time>
      </trkpt>
      <trkpt lat="43.31543" lon="3.5343">
        <ele>47.931707</ele>
        <time>2023-01-07T17:48:00.124Z</time>
      </trkpt>
      <trkpt lat="43.31546" lon="3.53442">
        <ele>47.935019</ele>
        <time>2023-01-07T17:48:07.109Z</time>
      </trkpt>
      <trkpt lat="43.3155" lon="3.53456">
        <ele>47.938688</ele>
        <time>2023-01-07T17:48:11.111Z</time>
      </trkpt>
      <trkpt lat="43.31554" lon="3.53468">
        <ele>47.942086</ele>
        <time>2023-01-07T17:48:15.113Z</time>
      </trkpt>
      <trkpt lat="43.31554" lon="3.5348">
        <ele>47.945391</ele>
        <time>2023-01-07T17:48:19.111Z</time>
      </trkpt>
      <trkpt lat="43.31551" lon="3.53495">
        <ele>47.949275</ele>
        <time>2023-01-07T17:48:24.112Z</time>
      </trkpt>
      <trkpt lat="43.31549" lon="3.53508">
        <ele>47.952672</ele>
        <time>2023-01-07T17:48:28.102Z</time>
      </trkpt>
      <trkpt lat="43.31548" lon="3.53521">
        <ele>47.956195</ele>
        <time>2023-01-07T17:48:32.114Z</time>
      </trkpt>
      <trkpt lat="43.31549" lon="3.53536">
        <ele>47.960058</ele>
        <time>2023-01-07T17:48:37.114Z</time>
      </trkpt>
      <trkpt lat="43.31558" lon="3.53539">
        <ele>47.963461</ele>
        <time>2023-01-07T17:48:42.107Z</time>
      </trkpt>
      <trkpt lat="43.31567" lon="3.53538">
        <ele>47.97565</ele>
        <time>2023-01-07T17:48:47.119Z</time>
      </trkpt>
      <trkpt lat="43.31576" lon="3.53547">
        <ele>48.050616</ele>
        <time>2023-01-07T17:48:52.108Z</time>
      </trkpt>
      <trkpt lat="43.31583" lon="3.53559">
        <ele>48.125775</ele>
        <time>2023-01-07T17:48:56.116Z</time>
      </trkpt>
      <trkpt lat="43.31588" lon="3.53575">
        <ele>48.207606</ele>
        <time>2023-01-07T17:49:00.106Z</time>
      </trkpt>
      <trkpt lat="43.31592" lon="3.53587">
        <ele>48.275645</ele>
        <time>2023-01-07T17:49:03.104Z</time>
      </trkpt>
      <trkpt lat="43.31596" lon="3.53601">
        <ele>48.346907</ele>
        <time>2023-01-07T17:49:06.115Z</time>
      </trkpt>
      <trkpt lat="43.31601" lon="3.53614">
        <ele>48.420365</ele>
        <time>2023-01-07T17:49:09.106Z</time>
      </trkpt>
      <trkpt lat="43.31605" lon="3.53628">
        <ele>48.495304</ele>
        <time>2023-01-07T17:49:12.106Z</time>
      </trkpt>
      <trkpt lat="43.3161" lon="3.53642">
        <ele>48.567622</ele>
        <time>2023-01-07T17:49:15.110Z</time>
      </trkpt>
      <trkpt lat="43.31614" lon="3.53655">
        <ele>48.63994</ele>
        <time>2023-01-07T17:49:18.110Z</time>
      </trkpt>
      <trkpt lat="43.31618" lon="3.5367">
        <ele>48.718043</ele>
        <time>2023-01-07T17:49:21.106Z</time>
      </trkpt>
      <trkpt lat="43.31622" lon="3.53685">
        <ele>48.796912</ele>
        <time>2023-01-07T17:49:24.109Z</time>
      </trkpt>
      <trkpt lat="43.31627" lon="3.53701">
        <ele>48.876858</ele>
        <time>2023-01-07T17:49:27.105Z</time>
      </trkpt>
      <trkpt lat="43.31632" lon="3.53716">
        <ele>48.958409</ele>
        <time>2023-01-07T17:49:30.112Z</time>
      </trkpt>
      <trkpt lat="43.31636" lon="3.53732">
        <ele>49.042765</ele>
        <time>2023-01-07T17:49:33.110Z</time>
      </trkpt>
      <trkpt lat="43.31641" lon="3.53748">
        <ele>49.126471</ele>
        <time>2023-01-07T17:49:36.112Z</time>
      </trkpt>
      <trkpt lat="43.31645" lon="3.53764">
        <ele>49.206335</ele>
        <time>2023-01-07T17:49:39.112Z</time>
      </trkpt>
      <trkpt lat="43.3165" lon="3.5378">
        <ele>49.284706</ele>
        <time>2023-01-07T17:49:42.113Z</time>
      </trkpt>
      <trkpt lat="43.31656" lon="3.53795">
        <ele>49.361438</ele>
        <time>2023-01-07T17:49:45.113Z</time>
      </trkpt>
      <trkpt lat="43.3166" lon="3.53811">
        <ele>49.438179</ele>
        <time>2023-01-07T17:49:48.106Z</time>
      </trkpt>
      <trkpt lat="43.31664" lon="3.53827">
        <ele>49.514286</ele>
        <time>2023-01-07T17:49:51.105Z</time>
      </trkpt>
      <trkpt lat="43.31669" lon="3.53843">
        <ele>49.592247</ele>
        <time>2023-01-07T17:49:54.121Z</time>
      </trkpt>
      <trkpt lat="43.31674" lon="3.53859">
        <ele>49.67096</ele>
        <time>2023-01-07T17:49:57.118Z</time>
      </trkpt>
      <trkpt lat="43.31679" lon="3.53875">
        <ele>49.749171</ele>
        <time>2023-01-07T17:50:00.112Z</time>
      </trkpt>
      <trkpt lat="43.31684" lon="3.53891">
        <ele>49.826885</ele>
        <time>2023-01-07T17:50:03.107Z</time>
      </trkpt>
      <trkpt lat="43.31689" lon="3.53907">
        <ele>49.903704</ele>
        <time>2023-01-07T17:50:06.114Z</time>
      </trkpt>
      <trkpt lat="43.31694" lon="3.53923">
        <ele>49.983966</ele>
        <time>2023-01-07T17:50:09.110Z</time>
      </trkpt>
      <trkpt lat="43.317" lon="3.5394">
        <ele>50.064888</ele>
        <time>2023-01-07T17:50:12.105Z</time>
      </trkpt>
      <trkpt lat="43.31705" lon="3.53956">
        <ele>50.142848</ele>
        <time>2023-01-07T17:50:15.117Z</time>
      </trkpt>
      <trkpt lat="43.31709" lon="3.53971">
        <ele>50.217602</ele>
        <time>2023-01-07T17:50:18.109Z</time>
      </trkpt>
      <trkpt lat="43.31715" lon="3.53986">
        <ele>50.269323</ele>
        <time>2023-01-07T17:50:21.124Z</time>
      </trkpt>
      <trkpt lat="43.3172" lon="3.54002">
        <ele>50.146933</ele>
        <time>2023-01-07T17:50:24.112Z</time>
      </trkpt>
      <trkpt lat="43.31725" lon="3.54018">
        <ele>50.020844</ele>
        <time>2023-01-07T17:50:27.123Z</time>
      </trkpt>
      <trkpt lat="43.31729" lon="3.5403">
        <ele>49.93379</ele>
        <time>2023-01-07T17:50:29.110Z</time>
      </trkpt>
      <trkpt lat="43.31732" lon="3.54041">
        <ele>49.844033</ele>
        <time>2023-01-07T17:50:31.127Z</time>
      </trkpt>
      <trkpt lat="43.31736" lon="3.54053">
        <ele>49.752384</ele>
        <time>2023-01-07T17:50:33.121Z</time>
      </trkpt>
      <trkpt lat="43.3174" lon="3.54065">
        <ele>49.6602</ele>
        <time>2023-01-07T17:50:35.116Z</time>
      </trkpt>
      <trkpt lat="43.31743" lon="3.54077">
        <ele>49.567462</ele>
        <time>2023-01-07T17:50:37.119Z</time>
      </trkpt>
      <trkpt lat="43.31747" lon="3.54089">
        <ele>49.474723</ele>
        <time>2023-01-07T17:50:39.111Z</time>
      </trkpt>
      <trkpt lat="43.31751" lon="3.54101">
        <ele>49.382899</ele>
        <time>2023-01-07T17:50:41.124Z</time>
      </trkpt>
      <trkpt lat="43.31755" lon="3.54113">
        <ele>49.290919</ele>
        <time>2023-01-07T17:50:43.103Z</time>
      </trkpt>
      <trkpt lat="43.3176" lon="3.54129">
        <ele>49.167034</ele>
        <time>2023-01-07T17:50:46.110Z</time>
      </trkpt>
      <trkpt lat="43.31764" lon="3.54145">
        <ele>49.045854</ele>
        <time>2023-01-07T17:50:49.118Z</time>
      </trkpt>
      <trkpt lat="43.31769" lon="3.54161">
        <ele>48.922817</ele>
        <time>2023-01-07T17:50:52.110Z</time>
      </trkpt>
      <trkpt lat="43.31774" lon="3.54178">
        <ele>48.796799</ele>
        <time>2023-01-07T17:50:55.117Z</time>
      </trkpt>
      <trkpt lat="43.31779" lon="3.54193">
        <ele>48.683347</ele>
        <time>2023-01-07T17:50:58.127Z</time>
      </trkpt>
      <trkpt lat="43.31783" lon="3.54207">
        <ele>48.572772</ele>
        <time>2023-01-07T17:51:01.123Z</time>
      </trkpt>
      <trkpt lat="43.31788" lon="3.54222">
        <ele>48.610582</ele>
        <time>2023-01-07T17:51:04.115Z</time>
      </trkpt>
      <trkpt lat="43.31793" lon="3.54237">
        <ele>48.720287</ele>
        <time>2023-01-07T17:51:07.126Z</time>
      </trkpt>
      <trkpt lat="43.31797" lon="3.54252">
        <ele>48.831675</ele>
        <time>2023-01-07T17:51:10.119Z</time>
      </trkpt>
      <trkpt lat="43.31802" lon="3.54267">
        <ele>48.941628</ele>
        <time>2023-01-07T17:51:13.109Z</time>
      </trkpt>
      <trkpt lat="43.31806" lon="3.54282">
        <ele>49.049563</ele>
        <time>2023-01-07T17:51:16.127Z</time>
      </trkpt>
      <trkpt lat="43.31811" lon="3.54296">
        <ele>49.152891</ele>
        <time>2023-01-07T17:51:19.117Z</time>
      </trkpt>
      <trkpt lat="43.31814" lon="3.54311">
        <ele>49.25544</ele>
        <time>2023-01-07T17:51:22.117Z</time>
      </trkpt>
      <trkpt lat="43.31819" lon="3.54324">
        <ele>49.356238</ele>
        <time>2023-01-07T17:51:25.137Z</time>
      </trkpt>
      <trkpt lat="43.31823" lon="3.54338">
        <ele>49.454051</ele>
        <time>2023-01-07T17:51:28.124Z</time>
      </trkpt>
      <trkpt lat="43.31827" lon="3.5435">
        <ele>49.543876</ele>
        <time>2023-01-07T17:51:31.115Z</time>
      </trkpt>
      <trkpt lat="43.31831" lon="3.54365">
        <ele>49.649573</ele>
        <time>2023-01-07T17:51:35.121Z</time>
      </trkpt>
      <trkpt lat="43.31835" lon="3.54377">
        <ele>49.736576</ele>
        <time>2023-01-07T17:51:39.117Z</time>
      </trkpt>
      <trkpt lat="43.31839" lon="3.5439">
        <ele>49.832576</ele>
        <time>2023-01-07T17:51:43.114Z</time>
      </trkpt>
      <trkpt lat="43.31843" lon="3.54403">
        <ele>49.926632</ele>
        <time>2023-01-07T17:51:47.125Z</time>
      </trkpt>
      <trkpt lat="43.31847" lon="3.54417">
        <ele>50.028632</ele>
        <time>2023-01-07T17:51:51.121Z</time>
      </trkpt>
      <trkpt lat="43.3185" lon="3.54429">
        <ele>50.113264</ele>
        <time>2023-01-07T17:51:54.113Z</time>
      </trkpt>
      <trkpt lat="43.31854" lon="3.54442">
        <ele>50.190645</ele>
        <time>2023-01-07T17:51:57.115Z</time>
      </trkpt>
      <trkpt lat="43.31858" lon="3.54455">
        <ele>50.180181</ele>
        <time>2023-01-07T17:52:00.106Z</time>
      </trkpt>
      <trkpt lat="43.31862" lon="3.54468">
        <ele>50.169688</ele>
        <time>2023-01-07T17:52:03.131Z</time>
      </trkpt>
      <trkpt lat="43.31865" lon="3.5448">
        <ele>50.160385</ele>
        <time>2023-01-07T17:52:06.132Z</time>
      </trkpt>
      <trkpt lat="43.31868" lon="3.54495">
        <ele>50.148583</ele>
        <time>2023-01-07T17:52:10.127Z</time>
      </trkpt>
      <trkpt lat="43.31871" lon="3.54508">
        <ele>50.138795</ele>
        <time>2023-01-07T17:52:13.121Z</time>
      </trkpt>
      <trkpt lat="43.31875" lon="3.5452">
        <ele>50.128859</ele>
        <time>2023-01-07T17:52:16.122Z</time>
      </trkpt>
      <trkpt lat="43.31878" lon="3.54533">
        <ele>50.118787</ele>
        <time>2023-01-07T17:52:19.118Z</time>
      </trkpt>
      <trkpt lat="43.31881" lon="3.54545">
        <ele>50.10938</ele>
        <time>2023-01-07T17:52:22.124Z</time>
      </trkpt>
      <trkpt lat="43.31886" lon="3.54558">
        <ele>50.098251</ele>
        <time>2023-01-07T17:52:26.112Z</time>
      </trkpt>
      <trkpt lat="43.31889" lon="3.54572">
        <ele>50.087556</ele>
        <time>2023-01-07T17:52:30.114Z</time>
      </trkpt>
      <trkpt lat="43.31892" lon="3.54586">
        <ele>50.077011</ele>
        <time>2023-01-07T17:52:34.114Z</time>
      </trkpt>
      <trkpt lat="43.3189" lon="3.54598">
        <ele>50.067692</ele>
        <time>2023-01-07T17:52:38.124Z</time>
      </trkpt>
      <trkpt lat="43.31887" lon="3.5461">
        <ele>50.058239</ele>
        <time>2023-01-07T17:52:44.126Z</time>
      </trkpt>
      <trkpt lat="43.31884" lon="3.54624">
        <ele>50.0474</ele>
        <time>2023-01-07T17:53:14.115Z</time>
      </trkpt>
      <trkpt lat="43.31888" lon="3.54639">
        <ele>50.036177</ele>
        <time>2023-01-07T17:53:20.115Z</time>
      </trkpt>
      <trkpt lat="43.31895" lon="3.54647">
        <ele>50.026423</ele>
        <time>2023-01-07T17:53:25.115Z</time>
      </trkpt>
      <trkpt lat="43.31906" lon="3.5465">
        <ele>50.01518</ele>
        <time>2023-01-07T17:53:30.110Z</time>
      </trkpt>
      <trkpt lat="43.31915" lon="3.54656">
        <ele>50.039334</ele>
        <time>2023-01-07T17:53:34.113Z</time>
      </trkpt>
      <trkpt lat="43.31921" lon="3.54667">
        <ele>50.133973</ele>
        <time>2023-01-07T17:53:38.117Z</time>
      </trkpt>
      <trkpt lat="43.31925" lon="3.54679">
        <ele>50.218085</ele>
        <time>2023-01-07T17:53:41.114Z</time>
      </trkpt>
      <trkpt lat="43.31929" lon="3.54691">
        <ele>50.305514</ele>
        <time>2023-01-07T17:53:44.113Z</time>
      </trkpt>
      <trkpt lat="43.31933" lon="3.54704">
        <ele>50.390568</ele>
        <time>2023-01-07T17:53:47.116Z</time>
      </trkpt>
      <trkpt lat="43.31937" lon="3.54715">
        <ele>50.471482</ele>
        <time>2023-01-07T17:53:50.107Z</time>
      </trkpt>
      <trkpt lat="43.31941" lon="3.54727">
        <ele>50.557129</ele>
        <time>2023-01-07T17:53:53.113Z</time>
      </trkpt>
      <trkpt lat="43.31944" lon="3.54741">
        <ele>50.650834</ele>
        <time>2023-01-07T17:53:56.114Z</time>
      </trkpt>
      <trkpt lat="43.31948" lon="3.54754">
        <ele>50.74584</ele>
        <time>2023-01-07T17:53:59.107Z</time>
      </trkpt>
      <trkpt lat="43.31952" lon="3.54768">
        <ele>50.840781</ele>
        <time>2023-01-07T17:54:02.113Z</time>
      </trkpt>
      <trkpt lat="43.31957" lon="3.54782">
        <ele>50.938967</ele>
        <time>2023-01-07T17:54:05.115Z</time>
      </trkpt>
      <trkpt lat="43.31961" lon="3.54796">
        <ele>51.038692</ele>
        <time>2023-01-07T17:54:08.104Z</time>
      </trkpt>
      <trkpt lat="43.31966" lon="3.5481">
        <ele>51.138185</ele>
        <time>2023-01-07T17:54:11.117Z</time>
      </trkpt>
      <trkpt lat="43.31971" lon="3.54824">
        <ele>51.23696</ele>
        <time>2023-01-07T17:54:14.115Z</time>
      </trkpt>
      <trkpt lat="43.31976" lon="3.54839">
        <ele>51.342012</ele>
        <time>2023-01-07T17:54:17.126Z</time>
      </trkpt>
      <trkpt lat="43.31981" lon="3.54855">
        <ele>51.454154</ele>
        <time>2023-01-07T17:54:20.111Z</time>
      </trkpt>
      <trkpt lat="43.31985" lon="3.54871">
        <ele>51.56704</ele>
        <time>2023-01-07T17:54:23.119Z</time>
      </trkpt>
      <trkpt lat="43.3199" lon="3.54886">
        <ele>51.534442</ele>
        <time>2023-01-07T17:54:26.109Z</time>
      </trkpt>
      <trkpt lat="43.31995" lon="3.54902">
        <ele>51.430364</ele>
        <time>2023-01-07T17:54:29.107Z</time>
      </trkpt>
      <trkpt lat="43.32" lon="3.54917">
        <ele>51.324611</ele>
        <time>2023-01-07T17:54:32.125Z</time>
      </trkpt>
      <trkpt lat="43.32004" lon="3.54932">
        <ele>51.219546</ele>
        <time>2023-01-07T17:54:35.119Z</time>
      </trkpt>
      <trkpt lat="43.32008" lon="3.54947">
        <ele>51.118178</ele>
        <time>2023-01-07T17:54:38.105Z</time>
      </trkpt>
      <trkpt lat="43.32012" lon="3.54961">
        <ele>51.023932</ele>
        <time>2023-01-07T17:54:41.125Z</time>
      </trkpt>
      <trkpt lat="43.32015" lon="3.54974">
        <ele>50.941922</ele>
        <time>2023-01-07T17:54:44.117Z</time>
      </trkpt>
      <trkpt lat="43.32018" lon="3.54989">
        <ele>50.842531</ele>
        <time>2023-01-07T17:54:48.105Z</time>
      </trkpt>
      <trkpt lat="43.32023" lon="3.55001">
        <ele>50.751988</ele>
        <time>2023-01-07T17:54:51.111Z</time>
      </trkpt>
      <trkpt lat="43.32028" lon="3.55014">
        <ele>50.662004</ele>
        <time>2023-01-07T17:54:54.111Z</time>
      </trkpt>
      <trkpt lat="43.32032" lon="3.55028">
        <ele>50.568195</ele>
        <time>2023-01-07T17:54:57.116Z</time>
      </trkpt>
      <trkpt lat="43.32036" lon="3.55041">
        <ele>50.476234</ele>
        <time>2023-01-07T17:55:00.229Z</time>
      </trkpt>
      <trkpt lat="43.3204" lon="3.55054">
        <ele>50.384381</ele>
        <time>2023-01-07T17:55:03.123Z</time>
      </trkpt>
      <trkpt lat="43.32045" lon="3.55067">
        <ele>50.29176</ele>
        <time>2023-01-07T17:55:06.126Z</time>
      </trkpt>
      <trkpt lat="43.3205" lon="3.5508">
        <ele>50.200662</ele>
        <time>2023-01-07T17:55:09.123Z</time>
      </trkpt>
      <trkpt lat="43.32055" lon="3.55093">
        <ele>50.108642</ele>
        <time>2023-01-07T17:55:12.114Z</time>
      </trkpt>
      <trkpt lat="43.32058" lon="3.55106">
        <ele>50.015436</ele>
        <time>2023-01-07T17:55:15.124Z</time>
      </trkpt>
      <trkpt lat="43.32062" lon="3.5512">
        <ele>49.907998</ele>
        <time>2023-01-07T17:55:18.104Z</time>
      </trkpt>
      <trkpt lat="43.32067" lon="3.55134">
        <ele>49.799712</ele>
        <time>2023-01-07T17:55:21.106Z</time>
      </trkpt>
      <trkpt lat="43.32071" lon="3.55147">
        <ele>49.696529</ele>
        <time>2023-01-07T17:55:24.114Z</time>
      </trkpt>
      <trkpt lat="43.32075" lon="3.5516">
        <ele>49.59666</ele>
        <time>2023-01-07T17:55:27.113Z</time>
      </trkpt>
      <trkpt lat="43.32079" lon="3.55172">
        <ele>49.501303</ele>
        <time>2023-01-07T17:55:30.111Z</time>
      </trkpt>
      <trkpt lat="43.32082" lon="3.55183">
        <ele>49.410441</ele>
        <time>2023-01-07T17:55:33.115Z</time>
      </trkpt>
      <trkpt lat="43.32087" lon="3.55197">
        <ele>49.299737</ele>
        <time>2023-01-07T17:55:37.117Z</time>
      </trkpt>
      <trkpt lat="43.32093" lon="3.5521">
        <ele>49.188552</ele>
        <time>2023-01-07T17:55:41.114Z</time>
      </trkpt>
      <trkpt lat="43.32097" lon="3.55224">
        <ele>49.076085</ele>
        <time>2023-01-07T17:55:45.117Z</time>
      </trkpt>
      <trkpt lat="43.32103" lon="3.55238">
        <ele>48.967946</ele>
        <time>2023-01-07T17:55:49.119Z</time>
      </trkpt>
      <trkpt lat="43.32106" lon="3.5525">
        <ele>48.873432</ele>
        <time>2023-01-07T17:55:53.129Z</time>
      </trkpt>
      <trkpt lat="43.32107" lon="3.55264">
        <ele>48.773468</ele>
        <time>2023-01-07T17:55:57.123Z</time>
      </trkpt>
      <trkpt lat="43.32104" lon="3.55276">
        <ele>48.675212</ele>
        <time>2023-01-07T17:56:00.110Z</time>
      </trkpt>
      <trkpt lat="43.32097" lon="3.55287">
        <ele>48.571097</ele>
        <time>2023-01-07T17:56:02.118Z</time>
      </trkpt>
      <trkpt lat="43.32091" lon="3.55297">
        <ele>48.479824</ele>
        <time>2023-01-07T17:56:04.121Z</time>
      </trkpt>
      <trkpt lat="43.32086" lon="3.55308">
        <ele>48.390781</ele>
        <time>2023-01-07T17:56:06.106Z</time>
      </trkpt>
      <trkpt lat="43.3208" lon="3.55318">
        <ele>48.294177</ele>
        <time>2023-01-07T17:56:09.109Z</time>
      </trkpt>
      <trkpt lat="43.32076" lon="3.55338">
        <ele>48.251619</ele>
        <time>2023-01-07T17:59:23.181Z</time>
      </trkpt>
      <trkpt lat="43.32088" lon="3.55342">
        <ele>48.251619</ele>
        <time>2023-01-07T17:59:59.122Z</time>
      </trkpt>
      <trkpt lat="43.32098" lon="3.55342">
        <ele>48.251619</ele>
        <time>2023-01-07T18:00:11.132Z</time>
      </trkpt>
      <trkpt lat="43.32106" lon="3.55346">
        <ele>48.251619</ele>
        <time>2023-01-07T18:00:26.111Z</time>
      </trkpt>
      <trkpt lat="43.32111" lon="3.55334">
        <ele>48.251619</ele>
        <time>2023-01-07T18:03:14.130Z</time>
      </trkpt>
      <trkpt lat="43.32106" lon="3.55323">
        <ele>48.251619</ele>
        <time>2023-01-07T18:03:28.118Z</time>
      </trkpt>
      <trkpt lat="43.32112" lon="3.55333">
        <ele>48.251619</ele>
        <time>2023-01-07T18:03:45.123Z</time>
      </trkpt>
      <trkpt lat="43.32107" lon="3.55343">
        <ele>48.251619</ele>
        <time>2023-01-07T18:03:57.126Z</time>
      </trkpt>
      <trkpt lat="43.32098" lon="3.5534">
        <ele>48.251619</ele>
        <time>2023-01-07T18:04:24.133Z</time>
      </trkpt>
      <trkpt lat="43.32101" lon="3.55328">
        <ele>48.251619</ele>
        <time>2023-01-07T18:04:43.109Z</time>
      </trkpt>
      <trkpt lat="43.32098" lon="3.5534">
        <ele>48.251619</ele>
        <time>2023-01-07T18:05:50.134Z</time>
      </trkpt>
      <trkpt lat="43.32107" lon="3.55344">
        <ele>48.251619</ele>
        <time>2023-01-07T18:06:02.133Z</time>
      </trkpt>
      <trkpt lat="43.32114" lon="3.55334">
        <ele>48.251619</ele>
        <time>2023-01-07T18:06:19.136Z</time>
      </trkpt>
      <trkpt lat="43.32108" lon="3.55328">
        <ele>48.251619</ele>
        <time>2023-01-07T18:07:03.210Z</time>
      </trkpt>
    </trkseg>
  </trk>
</gpx>